<?xml version="1.0" encoding="UTF-8" standalone="no" ?>
<gpx xmlns="http://www.topografix.com/GPX/1/1" xmlns:xsi="http://www.w3.org/2001/XMLSchema-instance" xsi:schemaLocation="http://www.topografix.com/GPX/1/1 http://www.topografix.com/GPX/1/1/gpx.xsd" version="1.1" creator="VisuGPX - https://www.visugpx.com">
  <metadata>
    <name>tour de l'Anjou complet en 459 km et 3107 m+</name>
    <desc><![CDATA[tour de l'Anjou complet en 459 km et 3107 m+]]></desc>
  </metadata>
  <trk>
    <name><![CDATA[6153071-tour de l'Anjou 1]]></name>
    <trkseg>
      <trkpt lat="47.47252" lon="-0.5836">
        <ele>30</ele>
        <time>2021-03-24T19:27:26Z</time>
      </trkpt>
      <trkpt lat="47.47243" lon="-0.58421">
        <ele>32</ele>
        <time>2021-03-24T19:27:34Z</time>
      </trkpt>
      <trkpt lat="47.47223" lon="-0.58505">
        <ele>33</ele>
        <time>2021-03-24T19:27:44Z</time>
      </trkpt>
      <trkpt lat="47.47216" lon="-0.58538">
        <ele>33</ele>
        <time>2021-03-24T19:27:48Z</time>
      </trkpt>
      <trkpt lat="47.4722" lon="-0.58542">
        <ele>33</ele>
        <time>2021-03-24T19:27:49Z</time>
      </trkpt>
      <trkpt lat="47.47222" lon="-0.58552">
        <ele>34</ele>
        <time>2021-03-24T19:27:50Z</time>
      </trkpt>
      <trkpt lat="47.4722" lon="-0.58561">
        <ele>34</ele>
        <time>2021-03-24T19:27:52Z</time>
      </trkpt>
      <trkpt lat="47.47212" lon="-0.58564">
        <ele>34</ele>
        <time>2021-03-24T19:27:53Z</time>
      </trkpt>
      <trkpt lat="47.47207" lon="-0.58581">
        <ele>34</ele>
        <time>2021-03-24T19:27:55Z</time>
      </trkpt>
      <trkpt lat="47.4721" lon="-0.58591">
        <ele>34</ele>
        <time>2021-03-24T19:27:57Z</time>
      </trkpt>
      <trkpt lat="47.47208" lon="-0.58598">
        <ele>34</ele>
        <time>2021-03-24T19:27:58Z</time>
      </trkpt>
      <trkpt lat="47.47203" lon="-0.58602">
        <ele>34</ele>
        <time>2021-03-24T19:27:59Z</time>
      </trkpt>
      <trkpt lat="47.47197" lon="-0.58601">
        <ele>34</ele>
        <time>2021-03-24T19:28:00Z</time>
      </trkpt>
      <trkpt lat="47.47195" lon="-0.58598">
        <ele>34</ele>
        <time>2021-03-24T19:28:00Z</time>
      </trkpt>
      <trkpt lat="47.47188" lon="-0.58603">
        <ele>34</ele>
        <time>2021-03-24T19:28:02Z</time>
      </trkpt>
      <trkpt lat="47.47122" lon="-0.58683">
        <ele>31</ele>
        <time>2021-03-24T19:28:17Z</time>
      </trkpt>
      <trkpt lat="47.4708" lon="-0.58757">
        <ele>31</ele>
        <time>2021-03-24T19:28:28Z</time>
      </trkpt>
      <trkpt lat="47.47054" lon="-0.58807">
        <ele>29</ele>
        <time>2021-03-24T19:28:36Z</time>
      </trkpt>
      <trkpt lat="47.47053" lon="-0.5882">
        <ele>29</ele>
        <time>2021-03-24T19:28:38Z</time>
      </trkpt>
      <trkpt lat="47.47055" lon="-0.58829">
        <ele>29</ele>
        <time>2021-03-24T19:28:39Z</time>
      </trkpt>
      <trkpt lat="47.47054" lon="-0.58835">
        <ele>29</ele>
        <time>2021-03-24T19:28:39Z</time>
      </trkpt>
      <trkpt lat="47.4705" lon="-0.58839">
        <ele>29</ele>
        <time>2021-03-24T19:28:40Z</time>
      </trkpt>
      <trkpt lat="47.47047" lon="-0.58839">
        <ele>29</ele>
        <time>2021-03-24T19:28:41Z</time>
      </trkpt>
      <trkpt lat="47.47038" lon="-0.58853">
        <ele>29</ele>
        <time>2021-03-24T19:28:43Z</time>
      </trkpt>
      <trkpt lat="47.47036" lon="-0.5885">
        <ele>28</ele>
        <time>2021-03-24T19:28:44Z</time>
      </trkpt>
      <trkpt lat="47.47027" lon="-0.58862">
        <ele>28</ele>
        <time>2021-03-24T19:28:46Z</time>
      </trkpt>
      <trkpt lat="47.47011" lon="-0.58878">
        <ele>28</ele>
        <time>2021-03-24T19:28:49Z</time>
      </trkpt>
      <trkpt lat="47.47002" lon="-0.58884">
        <ele>27</ele>
        <time>2021-03-24T19:28:51Z</time>
      </trkpt>
      <trkpt lat="47.46948" lon="-0.58907">
        <ele>26</ele>
        <time>2021-03-24T19:29:01Z</time>
      </trkpt>
      <trkpt lat="47.46849" lon="-0.58956">
        <ele>25</ele>
        <time>2021-03-24T19:29:20Z</time>
      </trkpt>
      <trkpt lat="47.46814" lon="-0.58988">
        <ele>25</ele>
        <time>2021-03-24T19:29:27Z</time>
      </trkpt>
      <trkpt lat="47.46705" lon="-0.59154">
        <ele>25</ele>
        <time>2021-03-24T19:29:55Z</time>
      </trkpt>
      <trkpt lat="47.46687" lon="-0.59174">
        <ele>24</ele>
        <time>2021-03-24T19:29:59Z</time>
      </trkpt>
      <trkpt lat="47.4668" lon="-0.59181">
        <ele>24</ele>
        <time>2021-03-24T19:30:00Z</time>
      </trkpt>
      <trkpt lat="47.46676" lon="-0.59181">
        <ele>24</ele>
        <time>2021-03-24T19:30:01Z</time>
      </trkpt>
      <trkpt lat="47.46664" lon="-0.59191">
        <ele>24</ele>
        <time>2021-03-24T19:30:03Z</time>
      </trkpt>
      <trkpt lat="47.46557" lon="-0.59264">
        <ele>23</ele>
        <time>2021-03-24T19:30:24Z</time>
      </trkpt>
      <trkpt lat="47.46527" lon="-0.59294">
        <ele>24</ele>
        <time>2021-03-24T19:30:31Z</time>
      </trkpt>
      <trkpt lat="47.46498" lon="-0.59332">
        <ele>24</ele>
        <time>2021-03-24T19:30:38Z</time>
      </trkpt>
      <trkpt lat="47.46493" lon="-0.59356">
        <ele>24</ele>
        <time>2021-03-24T19:30:41Z</time>
      </trkpt>
      <trkpt lat="47.46497" lon="-0.59362">
        <ele>24</ele>
        <time>2021-03-24T19:30:42Z</time>
      </trkpt>
      <trkpt lat="47.46499" lon="-0.59369">
        <ele>24</ele>
        <time>2021-03-24T19:30:43Z</time>
      </trkpt>
      <trkpt lat="47.46499" lon="-0.59378">
        <ele>25</ele>
        <time>2021-03-24T19:30:44Z</time>
      </trkpt>
      <trkpt lat="47.46496" lon="-0.59387">
        <ele>25</ele>
        <time>2021-03-24T19:30:45Z</time>
      </trkpt>
      <trkpt lat="47.46492" lon="-0.59391">
        <ele>25</ele>
        <time>2021-03-24T19:30:46Z</time>
      </trkpt>
      <trkpt lat="47.46486" lon="-0.59393">
        <ele>25</ele>
        <time>2021-03-24T19:30:47Z</time>
      </trkpt>
      <trkpt lat="47.46474" lon="-0.59393">
        <ele>25</ele>
        <time>2021-03-24T19:30:49Z</time>
      </trkpt>
      <trkpt lat="47.46463" lon="-0.59386">
        <ele>25</ele>
        <time>2021-03-24T19:30:51Z</time>
      </trkpt>
      <trkpt lat="47.46452" lon="-0.59388">
        <ele>25</ele>
        <time>2021-03-24T19:30:53Z</time>
      </trkpt>
      <trkpt lat="47.46441" lon="-0.59393">
        <ele>25</ele>
        <time>2021-03-24T19:30:55Z</time>
      </trkpt>
      <trkpt lat="47.46317" lon="-0.595">
        <ele>22</ele>
        <time>2021-03-24T19:31:21Z</time>
      </trkpt>
      <trkpt lat="47.46245" lon="-0.59554">
        <ele>22</ele>
        <time>2021-03-24T19:31:35Z</time>
      </trkpt>
      <trkpt lat="47.46208" lon="-0.59579">
        <ele>22</ele>
        <time>2021-03-24T19:31:42Z</time>
      </trkpt>
      <trkpt lat="47.46089" lon="-0.5964">
        <ele>23</ele>
        <time>2021-03-24T19:32:05Z</time>
      </trkpt>
      <trkpt lat="47.4609" lon="-0.59651">
        <ele>23</ele>
        <time>2021-03-24T19:32:06Z</time>
      </trkpt>
      <trkpt lat="47.46089" lon="-0.5966">
        <ele>23</ele>
        <time>2021-03-24T19:32:07Z</time>
      </trkpt>
      <trkpt lat="47.46084" lon="-0.59667">
        <ele>23</ele>
        <time>2021-03-24T19:32:08Z</time>
      </trkpt>
      <trkpt lat="47.46077" lon="-0.59673">
        <ele>23</ele>
        <time>2021-03-24T19:32:10Z</time>
      </trkpt>
      <trkpt lat="47.46071" lon="-0.59673">
        <ele>23</ele>
        <time>2021-03-24T19:32:11Z</time>
      </trkpt>
      <trkpt lat="47.46062" lon="-0.59665">
        <ele>23</ele>
        <time>2021-03-24T19:32:13Z</time>
      </trkpt>
      <trkpt lat="47.46059" lon="-0.59657">
        <ele>23</ele>
        <time>2021-03-24T19:32:14Z</time>
      </trkpt>
      <trkpt lat="47.45975" lon="-0.59694">
        <ele>22</ele>
        <time>2021-03-24T19:32:29Z</time>
      </trkpt>
      <trkpt lat="47.45959" lon="-0.59698">
        <ele>22</ele>
        <time>2021-03-24T19:32:32Z</time>
      </trkpt>
      <trkpt lat="47.45771" lon="-0.59714">
        <ele>23</ele>
        <time>2021-03-24T19:33:06Z</time>
      </trkpt>
      <trkpt lat="47.45746" lon="-0.59712">
        <ele>23</ele>
        <time>2021-03-24T19:33:10Z</time>
      </trkpt>
      <trkpt lat="47.45586" lon="-0.59683">
        <ele>23</ele>
        <time>2021-03-24T19:33:39Z</time>
      </trkpt>
      <trkpt lat="47.45553" lon="-0.5968">
        <ele>22</ele>
        <time>2021-03-24T19:33:45Z</time>
      </trkpt>
      <trkpt lat="47.45521" lon="-0.59685">
        <ele>21</ele>
        <time>2021-03-24T19:33:51Z</time>
      </trkpt>
      <trkpt lat="47.455" lon="-0.59692">
        <ele>21</ele>
        <time>2021-03-24T19:33:54Z</time>
      </trkpt>
      <trkpt lat="47.45481" lon="-0.597">
        <ele>21</ele>
        <time>2021-03-24T19:33:58Z</time>
      </trkpt>
      <trkpt lat="47.45466" lon="-0.5971">
        <ele>22</ele>
        <time>2021-03-24T19:34:01Z</time>
      </trkpt>
      <trkpt lat="47.45404" lon="-0.59757">
        <ele>26</ele>
        <time>2021-03-24T19:34:13Z</time>
      </trkpt>
      <trkpt lat="47.45306" lon="-0.59843">
        <ele>39</ele>
        <time>2021-03-24T19:34:33Z</time>
      </trkpt>
      <trkpt lat="47.45205" lon="-0.59913">
        <ele>44</ele>
        <time>2021-03-24T19:34:53Z</time>
      </trkpt>
      <trkpt lat="47.45161" lon="-0.59951">
        <ele>45</ele>
        <time>2021-03-24T19:35:02Z</time>
      </trkpt>
      <trkpt lat="47.45075" lon="-0.60047">
        <ele>47</ele>
        <time>2021-03-24T19:35:22Z</time>
      </trkpt>
      <trkpt lat="47.44987" lon="-0.60149">
        <ele>51</ele>
        <time>2021-03-24T19:35:41Z</time>
      </trkpt>
      <trkpt lat="47.44974" lon="-0.60167">
        <ele>52</ele>
        <time>2021-03-24T19:35:45Z</time>
      </trkpt>
      <trkpt lat="47.44926" lon="-0.60245">
        <ele>55</ele>
        <time>2021-03-24T19:35:57Z</time>
      </trkpt>
      <trkpt lat="47.44918" lon="-0.60261">
        <ele>55</ele>
        <time>2021-03-24T19:36:00Z</time>
      </trkpt>
      <trkpt lat="47.4491" lon="-0.60283">
        <ele>56</ele>
        <time>2021-03-24T19:36:03Z</time>
      </trkpt>
      <trkpt lat="47.4488" lon="-0.60471">
        <ele>60</ele>
        <time>2021-03-24T19:36:26Z</time>
      </trkpt>
      <trkpt lat="47.44876" lon="-0.60491">
        <ele>60</ele>
        <time>2021-03-24T19:36:28Z</time>
      </trkpt>
      <trkpt lat="47.44868" lon="-0.60509">
        <ele>60</ele>
        <time>2021-03-24T19:36:31Z</time>
      </trkpt>
      <trkpt lat="47.44782" lon="-0.60626">
        <ele>55</ele>
        <time>2021-03-24T19:36:52Z</time>
      </trkpt>
      <trkpt lat="47.44766" lon="-0.60641">
        <ele>54</ele>
        <time>2021-03-24T19:36:55Z</time>
      </trkpt>
      <trkpt lat="47.44751" lon="-0.60651">
        <ele>53</ele>
        <time>2021-03-24T19:36:58Z</time>
      </trkpt>
      <trkpt lat="47.44739" lon="-0.60657">
        <ele>52</ele>
        <time>2021-03-24T19:37:00Z</time>
      </trkpt>
      <trkpt lat="47.44723" lon="-0.60659">
        <ele>51</ele>
        <time>2021-03-24T19:37:03Z</time>
      </trkpt>
      <trkpt lat="47.44711" lon="-0.60657">
        <ele>50</ele>
        <time>2021-03-24T19:37:05Z</time>
      </trkpt>
      <trkpt lat="47.44687" lon="-0.60646">
        <ele>48</ele>
        <time>2021-03-24T19:37:10Z</time>
      </trkpt>
      <trkpt lat="47.44674" lon="-0.60636">
        <ele>47</ele>
        <time>2021-03-24T19:37:13Z</time>
      </trkpt>
      <trkpt lat="47.44632" lon="-0.60591">
        <ele>44</ele>
        <time>2021-03-24T19:37:22Z</time>
      </trkpt>
      <trkpt lat="47.44614" lon="-0.60575">
        <ele>43</ele>
        <time>2021-03-24T19:37:25Z</time>
      </trkpt>
      <trkpt lat="47.44606" lon="-0.6057">
        <ele>43</ele>
        <time>2021-03-24T19:37:27Z</time>
      </trkpt>
      <trkpt lat="47.44602" lon="-0.60578">
        <ele>43</ele>
        <time>2021-03-24T19:37:28Z</time>
      </trkpt>
      <trkpt lat="47.44596" lon="-0.60582">
        <ele>43</ele>
        <time>2021-03-24T19:37:29Z</time>
      </trkpt>
      <trkpt lat="47.44586" lon="-0.60582">
        <ele>42</ele>
        <time>2021-03-24T19:37:31Z</time>
      </trkpt>
      <trkpt lat="47.4458" lon="-0.60574">
        <ele>42</ele>
        <time>2021-03-24T19:37:33Z</time>
      </trkpt>
      <trkpt lat="47.44576" lon="-0.60565">
        <ele>42</ele>
        <time>2021-03-24T19:37:34Z</time>
      </trkpt>
      <trkpt lat="47.44576" lon="-0.60553">
        <ele>41</ele>
        <time>2021-03-24T19:37:35Z</time>
      </trkpt>
      <trkpt lat="47.44556" lon="-0.60553">
        <ele>41</ele>
        <time>2021-03-24T19:37:39Z</time>
      </trkpt>
      <trkpt lat="47.44514" lon="-0.60577">
        <ele>40</ele>
        <time>2021-03-24T19:37:47Z</time>
      </trkpt>
      <trkpt lat="47.44428" lon="-0.60617">
        <ele>37</ele>
        <time>2021-03-24T19:38:03Z</time>
      </trkpt>
      <trkpt lat="47.444" lon="-0.60628">
        <ele>35</ele>
        <time>2021-03-24T19:38:08Z</time>
      </trkpt>
      <trkpt lat="47.44285" lon="-0.60657">
        <ele>29</ele>
        <time>2021-03-24T19:38:29Z</time>
      </trkpt>
      <trkpt lat="47.44253" lon="-0.60671">
        <ele>29</ele>
        <time>2021-03-24T19:38:35Z</time>
      </trkpt>
      <trkpt lat="47.43984" lon="-0.60852">
        <ele>39</ele>
        <time>2021-03-24T19:39:27Z</time>
      </trkpt>
      <trkpt lat="47.43929" lon="-0.60893">
        <ele>43</ele>
        <time>2021-03-24T19:39:38Z</time>
      </trkpt>
      <trkpt lat="47.43888" lon="-0.60916">
        <ele>46</ele>
        <time>2021-03-24T19:39:46Z</time>
      </trkpt>
      <trkpt lat="47.43771" lon="-0.60967">
        <ele>52</ele>
        <time>2021-03-24T19:40:08Z</time>
      </trkpt>
      <trkpt lat="47.43739" lon="-0.60976">
        <ele>53</ele>
        <time>2021-03-24T19:40:14Z</time>
      </trkpt>
      <trkpt lat="47.43606" lon="-0.60973">
        <ele>55</ele>
        <time>2021-03-24T19:40:37Z</time>
      </trkpt>
      <trkpt lat="47.43566" lon="-0.6098">
        <ele>55</ele>
        <time>2021-03-24T19:40:44Z</time>
      </trkpt>
      <trkpt lat="47.43537" lon="-0.60993">
        <ele>55</ele>
        <time>2021-03-24T19:40:50Z</time>
      </trkpt>
      <trkpt lat="47.43497" lon="-0.61019">
        <ele>56</ele>
        <time>2021-03-24T19:40:58Z</time>
      </trkpt>
      <trkpt lat="47.43463" lon="-0.61054">
        <ele>58</ele>
        <time>2021-03-24T19:41:05Z</time>
      </trkpt>
      <trkpt lat="47.43453" lon="-0.61058">
        <ele>58</ele>
        <time>2021-03-24T19:41:07Z</time>
      </trkpt>
      <trkpt lat="47.43437" lon="-0.6107">
        <ele>59</ele>
        <time>2021-03-24T19:41:10Z</time>
      </trkpt>
      <trkpt lat="47.43417" lon="-0.61082">
        <ele>60</ele>
        <time>2021-03-24T19:41:14Z</time>
      </trkpt>
      <trkpt lat="47.43395" lon="-0.61088">
        <ele>60</ele>
        <time>2021-03-24T19:41:18Z</time>
      </trkpt>
      <trkpt lat="47.43382" lon="-0.61105">
        <ele>61</ele>
        <time>2021-03-24T19:41:21Z</time>
      </trkpt>
      <trkpt lat="47.43358" lon="-0.61104">
        <ele>61</ele>
        <time>2021-03-24T19:41:25Z</time>
      </trkpt>
      <trkpt lat="47.43343" lon="-0.61096">
        <ele>61</ele>
        <time>2021-03-24T19:41:28Z</time>
      </trkpt>
      <trkpt lat="47.43249" lon="-0.61073">
        <ele>60</ele>
        <time>2021-03-24T19:41:45Z</time>
      </trkpt>
      <trkpt lat="47.43227" lon="-0.61062">
        <ele>60</ele>
        <time>2021-03-24T19:41:49Z</time>
      </trkpt>
      <trkpt lat="47.43177" lon="-0.61052">
        <ele>60</ele>
        <time>2021-03-24T19:41:58Z</time>
      </trkpt>
      <trkpt lat="47.43126" lon="-0.61034">
        <ele>58</ele>
        <time>2021-03-24T19:42:07Z</time>
      </trkpt>
      <trkpt lat="47.43029" lon="-0.60965">
        <ele>52</ele>
        <time>2021-03-24T19:42:27Z</time>
      </trkpt>
      <trkpt lat="47.43034" lon="-0.60951">
        <ele>53</ele>
        <time>2021-03-24T19:42:29Z</time>
      </trkpt>
      <trkpt lat="47.43027" lon="-0.60946">
        <ele>52</ele>
        <time>2021-03-24T19:42:30Z</time>
      </trkpt>
      <trkpt lat="47.42962" lon="-0.60901">
        <ele>50</ele>
        <time>2021-03-24T19:42:43Z</time>
      </trkpt>
      <trkpt lat="47.42941" lon="-0.60892">
        <ele>49</ele>
        <time>2021-03-24T19:42:47Z</time>
      </trkpt>
      <trkpt lat="47.42915" lon="-0.60888">
        <ele>49</ele>
        <time>2021-03-24T19:42:51Z</time>
      </trkpt>
      <trkpt lat="47.42894" lon="-0.60889">
        <ele>48</ele>
        <time>2021-03-24T19:42:55Z</time>
      </trkpt>
      <trkpt lat="47.42875" lon="-0.60894">
        <ele>48</ele>
        <time>2021-03-24T19:42:58Z</time>
      </trkpt>
      <trkpt lat="47.42758" lon="-0.60936">
        <ele>45</ele>
        <time>2021-03-24T19:43:20Z</time>
      </trkpt>
      <trkpt lat="47.42693" lon="-0.60947">
        <ele>43</ele>
        <time>2021-03-24T19:43:31Z</time>
      </trkpt>
      <trkpt lat="47.42531" lon="-0.60967">
        <ele>37</ele>
        <time>2021-03-24T19:44:00Z</time>
      </trkpt>
      <trkpt lat="47.42503" lon="-0.60963">
        <ele>36</ele>
        <time>2021-03-24T19:44:05Z</time>
      </trkpt>
      <trkpt lat="47.42463" lon="-0.60934">
        <ele>35</ele>
        <time>2021-03-24T19:44:13Z</time>
      </trkpt>
      <trkpt lat="47.42439" lon="-0.60926">
        <ele>35</ele>
        <time>2021-03-24T19:44:18Z</time>
      </trkpt>
      <trkpt lat="47.42385" lon="-0.60916">
        <ele>34</ele>
        <time>2021-03-24T19:44:27Z</time>
      </trkpt>
      <trkpt lat="47.42353" lon="-0.60914">
        <ele>33</ele>
        <time>2021-03-24T19:44:33Z</time>
      </trkpt>
      <trkpt lat="47.42309" lon="-0.60919">
        <ele>30</ele>
        <time>2021-03-24T19:44:41Z</time>
      </trkpt>
      <trkpt lat="47.42273" lon="-0.60924">
        <ele>28</ele>
        <time>2021-03-24T19:44:47Z</time>
      </trkpt>
      <trkpt lat="47.42251" lon="-0.60931">
        <ele>26</ele>
        <time>2021-03-24T19:44:51Z</time>
      </trkpt>
      <trkpt lat="47.42272" lon="-0.60997">
        <ele>29</ele>
        <time>2021-03-24T19:45:00Z</time>
      </trkpt>
      <trkpt lat="47.42272" lon="-0.61014">
        <ele>29</ele>
        <time>2021-03-24T19:45:02Z</time>
      </trkpt>
      <trkpt lat="47.42268" lon="-0.61026">
        <ele>28</ele>
        <time>2021-03-24T19:45:04Z</time>
      </trkpt>
      <trkpt lat="47.4226" lon="-0.61033">
        <ele>27</ele>
        <time>2021-03-24T19:45:05Z</time>
      </trkpt>
      <trkpt lat="47.42202" lon="-0.61065">
        <ele>23</ele>
        <time>2021-03-24T19:45:16Z</time>
      </trkpt>
      <trkpt lat="47.42196" lon="-0.61064">
        <ele>22</ele>
        <time>2021-03-24T19:45:18Z</time>
      </trkpt>
      <trkpt lat="47.42153" lon="-0.61042">
        <ele>21</ele>
        <time>2021-03-24T19:45:26Z</time>
      </trkpt>
      <trkpt lat="47.42148" lon="-0.61025">
        <ele>21</ele>
        <time>2021-03-24T19:45:28Z</time>
      </trkpt>
      <trkpt lat="47.42123" lon="-0.61014">
        <ele>20</ele>
        <time>2021-03-24T19:45:33Z</time>
      </trkpt>
      <trkpt lat="47.42112" lon="-0.61012">
        <ele>20</ele>
        <time>2021-03-24T19:45:34Z</time>
      </trkpt>
      <trkpt lat="47.42111" lon="-0.61019">
        <ele>20</ele>
        <time>2021-03-24T19:45:35Z</time>
      </trkpt>
      <trkpt lat="47.42106" lon="-0.61032">
        <ele>20</ele>
        <time>2021-03-24T19:45:37Z</time>
      </trkpt>
      <trkpt lat="47.42102" lon="-0.61036">
        <ele>19</ele>
        <time>2021-03-24T19:45:38Z</time>
      </trkpt>
      <trkpt lat="47.42096" lon="-0.61038">
        <ele>19</ele>
        <time>2021-03-24T19:45:39Z</time>
      </trkpt>
      <trkpt lat="47.42086" lon="-0.61035">
        <ele>19</ele>
        <time>2021-03-24T19:45:41Z</time>
      </trkpt>
      <trkpt lat="47.42082" lon="-0.61031">
        <ele>19</ele>
        <time>2021-03-24T19:45:42Z</time>
      </trkpt>
      <trkpt lat="47.42007" lon="-0.61088">
        <ele>19</ele>
        <time>2021-03-24T19:45:57Z</time>
      </trkpt>
      <trkpt lat="47.41797" lon="-0.61269">
        <ele>21</ele>
        <time>2021-03-24T19:46:40Z</time>
      </trkpt>
      <trkpt lat="47.41752" lon="-0.61333">
        <ele>20</ele>
        <time>2021-03-24T19:46:51Z</time>
      </trkpt>
      <trkpt lat="47.41711" lon="-0.61421">
        <ele>22</ele>
        <time>2021-03-24T19:47:04Z</time>
      </trkpt>
      <trkpt lat="47.41699" lon="-0.61445">
        <ele>22</ele>
        <time>2021-03-24T19:47:08Z</time>
      </trkpt>
      <trkpt lat="47.41684" lon="-0.61464">
        <ele>22</ele>
        <time>2021-03-24T19:47:11Z</time>
      </trkpt>
      <trkpt lat="47.41649" lon="-0.61494">
        <ele>22</ele>
        <time>2021-03-24T19:47:18Z</time>
      </trkpt>
      <trkpt lat="47.41585" lon="-0.61533">
        <ele>22</ele>
        <time>2021-03-24T19:47:31Z</time>
      </trkpt>
      <trkpt lat="47.41515" lon="-0.61616">
        <ele>25</ele>
        <time>2021-03-24T19:47:47Z</time>
      </trkpt>
      <trkpt lat="47.415" lon="-0.61627">
        <ele>25</ele>
        <time>2021-03-24T19:47:50Z</time>
      </trkpt>
      <trkpt lat="47.41482" lon="-0.61633">
        <ele>24</ele>
        <time>2021-03-24T19:47:53Z</time>
      </trkpt>
      <trkpt lat="47.41411" lon="-0.6165">
        <ele>23</ele>
        <time>2021-03-24T19:48:06Z</time>
      </trkpt>
      <trkpt lat="47.41379" lon="-0.61662">
        <ele>22</ele>
        <time>2021-03-24T19:48:12Z</time>
      </trkpt>
      <trkpt lat="47.4135" lon="-0.61681">
        <ele>21</ele>
        <time>2021-03-24T19:48:17Z</time>
      </trkpt>
      <trkpt lat="47.41321" lon="-0.61708">
        <ele>21</ele>
        <time>2021-03-24T19:48:23Z</time>
      </trkpt>
      <trkpt lat="47.41298" lon="-0.61735">
        <ele>21</ele>
        <time>2021-03-24T19:48:29Z</time>
      </trkpt>
      <trkpt lat="47.41257" lon="-0.61793">
        <ele>21</ele>
        <time>2021-03-24T19:48:39Z</time>
      </trkpt>
      <trkpt lat="47.41221" lon="-0.61838">
        <ele>24</ele>
        <time>2021-03-24T19:48:47Z</time>
      </trkpt>
      <trkpt lat="47.41188" lon="-0.61864">
        <ele>27</ele>
        <time>2021-03-24T19:48:54Z</time>
      </trkpt>
      <trkpt lat="47.41155" lon="-0.61879">
        <ele>29</ele>
        <time>2021-03-24T19:49:00Z</time>
      </trkpt>
      <trkpt lat="47.41133" lon="-0.61896">
        <ele>30</ele>
        <time>2021-03-24T19:49:04Z</time>
      </trkpt>
      <trkpt lat="47.41076" lon="-0.61959">
        <ele>33</ele>
        <time>2021-03-24T19:49:17Z</time>
      </trkpt>
      <trkpt lat="47.4101" lon="-0.62006">
        <ele>33</ele>
        <time>2021-03-24T19:49:30Z</time>
      </trkpt>
      <trkpt lat="47.40996" lon="-0.61989">
        <ele>32</ele>
        <time>2021-03-24T19:49:33Z</time>
      </trkpt>
      <trkpt lat="47.40939" lon="-0.61999">
        <ele>31</ele>
        <time>2021-03-24T19:49:43Z</time>
      </trkpt>
      <trkpt lat="47.40926" lon="-0.6199">
        <ele>30</ele>
        <time>2021-03-24T19:49:46Z</time>
      </trkpt>
      <trkpt lat="47.40919" lon="-0.61979">
        <ele>29</ele>
        <time>2021-03-24T19:49:48Z</time>
      </trkpt>
      <trkpt lat="47.40905" lon="-0.61969">
        <ele>27</ele>
        <time>2021-03-24T19:49:50Z</time>
      </trkpt>
      <trkpt lat="47.40894" lon="-0.61967">
        <ele>27</ele>
        <time>2021-03-24T19:49:52Z</time>
      </trkpt>
      <trkpt lat="47.40886" lon="-0.6197">
        <ele>27</ele>
        <time>2021-03-24T19:49:54Z</time>
      </trkpt>
      <trkpt lat="47.40853" lon="-0.61995">
        <ele>26</ele>
        <time>2021-03-24T19:50:01Z</time>
      </trkpt>
      <trkpt lat="47.40819" lon="-0.62006">
        <ele>25</ele>
        <time>2021-03-24T19:50:07Z</time>
      </trkpt>
      <trkpt lat="47.40783" lon="-0.62022">
        <ele>25</ele>
        <time>2021-03-24T19:50:13Z</time>
      </trkpt>
      <trkpt lat="47.40719" lon="-0.62064">
        <ele>24</ele>
        <time>2021-03-24T19:50:26Z</time>
      </trkpt>
      <trkpt lat="47.40706" lon="-0.62065">
        <ele>23</ele>
        <time>2021-03-24T19:50:28Z</time>
      </trkpt>
      <trkpt lat="47.40696" lon="-0.62068">
        <ele>23</ele>
        <time>2021-03-24T19:50:30Z</time>
      </trkpt>
      <trkpt lat="47.40679" lon="-0.62082">
        <ele>22</ele>
        <time>2021-03-24T19:50:33Z</time>
      </trkpt>
      <trkpt lat="47.40659" lon="-0.62096">
        <ele>21</ele>
        <time>2021-03-24T19:50:37Z</time>
      </trkpt>
      <trkpt lat="47.40639" lon="-0.62128">
        <ele>22</ele>
        <time>2021-03-24T19:50:43Z</time>
      </trkpt>
      <trkpt lat="47.4063" lon="-0.62146">
        <ele>22</ele>
        <time>2021-03-24T19:50:45Z</time>
      </trkpt>
      <trkpt lat="47.40626" lon="-0.62159">
        <ele>22</ele>
        <time>2021-03-24T19:50:47Z</time>
      </trkpt>
      <trkpt lat="47.40615" lon="-0.62284">
        <ele>25</ele>
        <time>2021-03-24T19:51:02Z</time>
      </trkpt>
      <trkpt lat="47.40611" lon="-0.62305">
        <ele>25</ele>
        <time>2021-03-24T19:51:05Z</time>
      </trkpt>
      <trkpt lat="47.40599" lon="-0.62334">
        <ele>24</ele>
        <time>2021-03-24T19:51:09Z</time>
      </trkpt>
      <trkpt lat="47.40596" lon="-0.62357">
        <ele>24</ele>
        <time>2021-03-24T19:51:12Z</time>
      </trkpt>
      <trkpt lat="47.40581" lon="-0.6236">
        <ele>23</ele>
        <time>2021-03-24T19:51:14Z</time>
      </trkpt>
      <trkpt lat="47.40569" lon="-0.62367">
        <ele>24</ele>
        <time>2021-03-24T19:51:17Z</time>
      </trkpt>
      <trkpt lat="47.40561" lon="-0.62374">
        <ele>25</ele>
        <time>2021-03-24T19:51:18Z</time>
      </trkpt>
      <trkpt lat="47.40555" lon="-0.62383">
        <ele>25</ele>
        <time>2021-03-24T19:51:20Z</time>
      </trkpt>
      <trkpt lat="47.40532" lon="-0.62431">
        <ele>28</ele>
        <time>2021-03-24T19:51:27Z</time>
      </trkpt>
      <trkpt lat="47.40519" lon="-0.62462">
        <ele>29</ele>
        <time>2021-03-24T19:51:31Z</time>
      </trkpt>
      <trkpt lat="47.40507" lon="-0.62496">
        <ele>29</ele>
        <time>2021-03-24T19:51:36Z</time>
      </trkpt>
      <trkpt lat="47.40486" lon="-0.62575">
        <ele>31</ele>
        <time>2021-03-24T19:51:46Z</time>
      </trkpt>
      <trkpt lat="47.40481" lon="-0.62674">
        <ele>33</ele>
        <time>2021-03-24T19:51:58Z</time>
      </trkpt>
      <trkpt lat="47.40479" lon="-0.627">
        <ele>34</ele>
        <time>2021-03-24T19:52:01Z</time>
      </trkpt>
      <trkpt lat="47.40474" lon="-0.62728">
        <ele>35</ele>
        <time>2021-03-24T19:52:05Z</time>
      </trkpt>
      <trkpt lat="47.40465" lon="-0.62767">
        <ele>36</ele>
        <time>2021-03-24T19:52:10Z</time>
      </trkpt>
      <trkpt lat="47.4046" lon="-0.62782">
        <ele>36</ele>
        <time>2021-03-24T19:52:12Z</time>
      </trkpt>
      <trkpt lat="47.40446" lon="-0.6281">
        <ele>36</ele>
        <time>2021-03-24T19:52:16Z</time>
      </trkpt>
      <trkpt lat="47.40411" lon="-0.62864">
        <ele>36</ele>
        <time>2021-03-24T19:52:25Z</time>
      </trkpt>
      <trkpt lat="47.40378" lon="-0.62924">
        <ele>41</ele>
        <time>2021-03-24T19:52:34Z</time>
      </trkpt>
      <trkpt lat="47.40301" lon="-0.63084">
        <ele>43</ele>
        <time>2021-03-24T19:52:58Z</time>
      </trkpt>
      <trkpt lat="47.40269" lon="-0.63159">
        <ele>44</ele>
        <time>2021-03-24T19:53:09Z</time>
      </trkpt>
      <trkpt lat="47.40218" lon="-0.63325">
        <ele>45</ele>
        <time>2021-03-24T19:53:31Z</time>
      </trkpt>
      <trkpt lat="47.40188" lon="-0.63434">
        <ele>46</ele>
        <time>2021-03-24T19:53:45Z</time>
      </trkpt>
      <trkpt lat="47.40168" lon="-0.63475">
        <ele>45</ele>
        <time>2021-03-24T19:53:51Z</time>
      </trkpt>
      <trkpt lat="47.40157" lon="-0.63489">
        <ele>45</ele>
        <time>2021-03-24T19:53:53Z</time>
      </trkpt>
      <trkpt lat="47.4003" lon="-0.63617">
        <ele>52</ele>
        <time>2021-03-24T19:54:21Z</time>
      </trkpt>
      <trkpt lat="47.40022" lon="-0.63621">
        <ele>53</ele>
        <time>2021-03-24T19:54:22Z</time>
      </trkpt>
      <trkpt lat="47.40001" lon="-0.63622">
        <ele>54</ele>
        <time>2021-03-24T19:54:26Z</time>
      </trkpt>
      <trkpt lat="47.39994" lon="-0.63621">
        <ele>54</ele>
        <time>2021-03-24T19:54:27Z</time>
      </trkpt>
      <trkpt lat="47.39979" lon="-0.63609">
        <ele>55</ele>
        <time>2021-03-24T19:54:30Z</time>
      </trkpt>
      <trkpt lat="47.39949" lon="-0.63576">
        <ele>56</ele>
        <time>2021-03-24T19:54:37Z</time>
      </trkpt>
      <trkpt lat="47.39882" lon="-0.63497">
        <ele>59</ele>
        <time>2021-03-24T19:54:52Z</time>
      </trkpt>
      <trkpt lat="47.39855" lon="-0.63469">
        <ele>59</ele>
        <time>2021-03-24T19:54:58Z</time>
      </trkpt>
      <trkpt lat="47.39827" lon="-0.63448">
        <ele>58</ele>
        <time>2021-03-24T19:55:04Z</time>
      </trkpt>
      <trkpt lat="47.39793" lon="-0.63435">
        <ele>57</ele>
        <time>2021-03-24T19:55:10Z</time>
      </trkpt>
      <trkpt lat="47.39779" lon="-0.63435">
        <ele>56</ele>
        <time>2021-03-24T19:55:12Z</time>
      </trkpt>
      <trkpt lat="47.39768" lon="-0.63444">
        <ele>56</ele>
        <time>2021-03-24T19:55:15Z</time>
      </trkpt>
      <trkpt lat="47.39731" lon="-0.63504">
        <ele>58</ele>
        <time>2021-03-24T19:55:24Z</time>
      </trkpt>
      <trkpt lat="47.39715" lon="-0.63538">
        <ele>58</ele>
        <time>2021-03-24T19:55:29Z</time>
      </trkpt>
      <trkpt lat="47.39696" lon="-0.63596">
        <ele>58</ele>
        <time>2021-03-24T19:55:37Z</time>
      </trkpt>
      <trkpt lat="47.39662" lon="-0.63669">
        <ele>57</ele>
        <time>2021-03-24T19:55:48Z</time>
      </trkpt>
      <trkpt lat="47.39652" lon="-0.63699">
        <ele>59</ele>
        <time>2021-03-24T19:55:52Z</time>
      </trkpt>
      <trkpt lat="47.39648" lon="-0.63723">
        <ele>60</ele>
        <time>2021-03-24T19:55:55Z</time>
      </trkpt>
      <trkpt lat="47.3964" lon="-0.63744">
        <ele>61</ele>
        <time>2021-03-24T19:55:58Z</time>
      </trkpt>
      <trkpt lat="47.39628" lon="-0.63772">
        <ele>62</ele>
        <time>2021-03-24T19:56:02Z</time>
      </trkpt>
      <trkpt lat="47.39592" lon="-0.63841">
        <ele>64</ele>
        <time>2021-03-24T19:56:12Z</time>
      </trkpt>
      <trkpt lat="47.39582" lon="-0.63863">
        <ele>64</ele>
        <time>2021-03-24T19:56:15Z</time>
      </trkpt>
      <trkpt lat="47.39575" lon="-0.63887">
        <ele>63</ele>
        <time>2021-03-24T19:56:19Z</time>
      </trkpt>
      <trkpt lat="47.39574" lon="-0.63906">
        <ele>63</ele>
        <time>2021-03-24T19:56:21Z</time>
      </trkpt>
      <trkpt lat="47.39577" lon="-0.63931">
        <ele>63</ele>
        <time>2021-03-24T19:56:24Z</time>
      </trkpt>
      <trkpt lat="47.39612" lon="-0.64063">
        <ele>63</ele>
        <time>2021-03-24T19:56:41Z</time>
      </trkpt>
      <trkpt lat="47.39615" lon="-0.64096">
        <ele>63</ele>
        <time>2021-03-24T19:56:45Z</time>
      </trkpt>
      <trkpt lat="47.39614" lon="-0.64114">
        <ele>63</ele>
        <time>2021-03-24T19:56:47Z</time>
      </trkpt>
      <trkpt lat="47.39597" lon="-0.6419">
        <ele>62</ele>
        <time>2021-03-24T19:56:57Z</time>
      </trkpt>
      <trkpt lat="47.39594" lon="-0.64224">
        <ele>62</ele>
        <time>2021-03-24T19:57:01Z</time>
      </trkpt>
      <trkpt lat="47.39594" lon="-0.6424">
        <ele>61</ele>
        <time>2021-03-24T19:57:03Z</time>
      </trkpt>
      <trkpt lat="47.39603" lon="-0.64305">
        <ele>60</ele>
        <time>2021-03-24T19:57:11Z</time>
      </trkpt>
      <trkpt lat="47.39605" lon="-0.64338">
        <ele>59</ele>
        <time>2021-03-24T19:57:15Z</time>
      </trkpt>
      <trkpt lat="47.39605" lon="-0.64354">
        <ele>59</ele>
        <time>2021-03-24T19:57:17Z</time>
      </trkpt>
      <trkpt lat="47.396" lon="-0.64386">
        <ele>59</ele>
        <time>2021-03-24T19:57:21Z</time>
      </trkpt>
      <trkpt lat="47.3959" lon="-0.64412">
        <ele>58</ele>
        <time>2021-03-24T19:57:24Z</time>
      </trkpt>
      <trkpt lat="47.39583" lon="-0.64424">
        <ele>58</ele>
        <time>2021-03-24T19:57:26Z</time>
      </trkpt>
      <trkpt lat="47.3956" lon="-0.64439">
        <ele>58</ele>
        <time>2021-03-24T19:57:31Z</time>
      </trkpt>
      <trkpt lat="47.39517" lon="-0.64453">
        <ele>58</ele>
        <time>2021-03-24T19:57:39Z</time>
      </trkpt>
      <trkpt lat="47.39488" lon="-0.64471">
        <ele>58</ele>
        <time>2021-03-24T19:57:44Z</time>
      </trkpt>
      <trkpt lat="47.39443" lon="-0.64509">
        <ele>60</ele>
        <time>2021-03-24T19:57:53Z</time>
      </trkpt>
      <trkpt lat="47.39419" lon="-0.64533">
        <ele>61</ele>
        <time>2021-03-24T19:57:59Z</time>
      </trkpt>
      <trkpt lat="47.39408" lon="-0.64547">
        <ele>62</ele>
        <time>2021-03-24T19:58:01Z</time>
      </trkpt>
      <trkpt lat="47.3934" lon="-0.64666">
        <ele>64</ele>
        <time>2021-03-24T19:58:20Z</time>
      </trkpt>
      <trkpt lat="47.39319" lon="-0.64701">
        <ele>62</ele>
        <time>2021-03-24T19:58:26Z</time>
      </trkpt>
      <trkpt lat="47.39307" lon="-0.64719">
        <ele>61</ele>
        <time>2021-03-24T19:58:29Z</time>
      </trkpt>
      <trkpt lat="47.39291" lon="-0.64732">
        <ele>59</ele>
        <time>2021-03-24T19:58:32Z</time>
      </trkpt>
      <trkpt lat="47.39282" lon="-0.64735">
        <ele>58</ele>
        <time>2021-03-24T19:58:33Z</time>
      </trkpt>
      <trkpt lat="47.3925" lon="-0.6474">
        <ele>56</ele>
        <time>2021-03-24T19:58:39Z</time>
      </trkpt>
      <trkpt lat="47.39217" lon="-0.64757">
        <ele>54</ele>
        <time>2021-03-24T19:58:45Z</time>
      </trkpt>
      <trkpt lat="47.39191" lon="-0.64765">
        <ele>52</ele>
        <time>2021-03-24T19:58:50Z</time>
      </trkpt>
      <trkpt lat="47.39143" lon="-0.6477">
        <ele>50</ele>
        <time>2021-03-24T19:58:59Z</time>
      </trkpt>
      <trkpt lat="47.39126" lon="-0.64779">
        <ele>47</ele>
        <time>2021-03-24T19:59:02Z</time>
      </trkpt>
      <trkpt lat="47.3911" lon="-0.64797">
        <ele>44</ele>
        <time>2021-03-24T19:59:06Z</time>
      </trkpt>
      <trkpt lat="47.39104" lon="-0.648">
        <ele>43</ele>
        <time>2021-03-24T19:59:07Z</time>
      </trkpt>
      <trkpt lat="47.39097" lon="-0.648">
        <ele>43</ele>
        <time>2021-03-24T19:59:08Z</time>
      </trkpt>
      <trkpt lat="47.39082" lon="-0.64793">
        <ele>43</ele>
        <time>2021-03-24T19:59:11Z</time>
      </trkpt>
      <trkpt lat="47.39038" lon="-0.64746">
        <ele>42</ele>
        <time>2021-03-24T19:59:20Z</time>
      </trkpt>
      <trkpt lat="47.39016" lon="-0.64725">
        <ele>42</ele>
        <time>2021-03-24T19:59:25Z</time>
      </trkpt>
      <trkpt lat="47.39005" lon="-0.64718">
        <ele>41</ele>
        <time>2021-03-24T19:59:27Z</time>
      </trkpt>
      <trkpt lat="47.38996" lon="-0.64714">
        <ele>41</ele>
        <time>2021-03-24T19:59:29Z</time>
      </trkpt>
      <trkpt lat="47.38984" lon="-0.64712">
        <ele>40</ele>
        <time>2021-03-24T19:59:31Z</time>
      </trkpt>
      <trkpt lat="47.38952" lon="-0.64715">
        <ele>37</ele>
        <time>2021-03-24T19:59:37Z</time>
      </trkpt>
      <trkpt lat="47.38925" lon="-0.64711">
        <ele>35</ele>
        <time>2021-03-24T19:59:41Z</time>
      </trkpt>
      <trkpt lat="47.38905" lon="-0.64703">
        <ele>35</ele>
        <time>2021-03-24T19:59:45Z</time>
      </trkpt>
      <trkpt lat="47.38883" lon="-0.64689">
        <ele>36</ele>
        <time>2021-03-24T19:59:49Z</time>
      </trkpt>
      <trkpt lat="47.38651" lon="-0.64532">
        <ele>23</ele>
        <time>2021-03-24T20:00:35Z</time>
      </trkpt>
      <trkpt lat="47.38592" lon="-0.6448">
        <ele>19</ele>
        <time>2021-03-24T20:00:47Z</time>
      </trkpt>
      <trkpt lat="47.38582" lon="-0.64477">
        <ele>19</ele>
        <time>2021-03-24T20:00:49Z</time>
      </trkpt>
      <trkpt lat="47.38574" lon="-0.64485">
        <ele>19</ele>
        <time>2021-03-24T20:00:51Z</time>
      </trkpt>
      <trkpt lat="47.38435" lon="-0.64806">
        <ele>19</ele>
        <time>2021-03-24T20:01:37Z</time>
      </trkpt>
      <trkpt lat="47.3832" lon="-0.65081">
        <ele>18</ele>
        <time>2021-03-24T20:02:15Z</time>
      </trkpt>
      <trkpt lat="47.38324" lon="-0.65088">
        <ele>19</ele>
        <time>2021-03-24T20:02:17Z</time>
      </trkpt>
      <trkpt lat="47.38314" lon="-0.65118">
        <ele>19</ele>
        <time>2021-03-24T20:02:21Z</time>
      </trkpt>
      <trkpt lat="47.38312" lon="-0.6517">
        <ele>20</ele>
        <time>2021-03-24T20:02:27Z</time>
      </trkpt>
      <trkpt lat="47.38313" lon="-0.65189">
        <ele>20</ele>
        <time>2021-03-24T20:02:29Z</time>
      </trkpt>
      <trkpt lat="47.38328" lon="-0.6524">
        <ele>20</ele>
        <time>2021-03-24T20:02:36Z</time>
      </trkpt>
      <trkpt lat="47.38332" lon="-0.65258">
        <ele>20</ele>
        <time>2021-03-24T20:02:38Z</time>
      </trkpt>
      <trkpt lat="47.38332" lon="-0.6528">
        <ele>20</ele>
        <time>2021-03-24T20:02:41Z</time>
      </trkpt>
      <trkpt lat="47.38325" lon="-0.65308">
        <ele>21</ele>
        <time>2021-03-24T20:02:44Z</time>
      </trkpt>
      <trkpt lat="47.38299" lon="-0.65377">
        <ele>21</ele>
        <time>2021-03-24T20:02:54Z</time>
      </trkpt>
      <trkpt lat="47.38292" lon="-0.65411">
        <ele>21</ele>
        <time>2021-03-24T20:02:58Z</time>
      </trkpt>
      <trkpt lat="47.38285" lon="-0.65427">
        <ele>21</ele>
        <time>2021-03-24T20:03:00Z</time>
      </trkpt>
      <trkpt lat="47.3827" lon="-0.65451">
        <ele>21</ele>
        <time>2021-03-24T20:03:04Z</time>
      </trkpt>
      <trkpt lat="47.3826" lon="-0.65472">
        <ele>20</ele>
        <time>2021-03-24T20:03:07Z</time>
      </trkpt>
      <trkpt lat="47.38203" lon="-0.65544">
        <ele>20</ele>
        <time>2021-03-24T20:03:21Z</time>
      </trkpt>
      <trkpt lat="47.38178" lon="-0.65585">
        <ele>19</ele>
        <time>2021-03-24T20:03:27Z</time>
      </trkpt>
      <trkpt lat="47.38175" lon="-0.6558">
        <ele>19</ele>
        <time>2021-03-24T20:03:28Z</time>
      </trkpt>
      <trkpt lat="47.38144" lon="-0.65553">
        <ele>19</ele>
        <time>2021-03-24T20:03:35Z</time>
      </trkpt>
      <trkpt lat="47.38075" lon="-0.65502">
        <ele>19</ele>
        <time>2021-03-24T20:03:48Z</time>
      </trkpt>
      <trkpt lat="47.38023" lon="-0.65454">
        <ele>18</ele>
        <time>2021-03-24T20:03:59Z</time>
      </trkpt>
      <trkpt lat="47.37997" lon="-0.65426">
        <ele>17</ele>
        <time>2021-03-24T20:04:05Z</time>
      </trkpt>
      <trkpt lat="47.37953" lon="-0.65384">
        <ele>17</ele>
        <time>2021-03-24T20:04:14Z</time>
      </trkpt>
      <trkpt lat="47.3791" lon="-0.65348">
        <ele>16</ele>
        <time>2021-03-24T20:04:23Z</time>
      </trkpt>
      <trkpt lat="47.37324" lon="-0.64872">
        <ele>10</ele>
        <time>2021-03-24T20:06:22Z</time>
      </trkpt>
      <trkpt lat="47.37249" lon="-0.64812">
        <ele>19</ele>
        <time>2021-03-24T20:06:37Z</time>
      </trkpt>
      <trkpt lat="47.37233" lon="-0.64803">
        <ele>18</ele>
        <time>2021-03-24T20:06:40Z</time>
      </trkpt>
      <trkpt lat="47.37214" lon="-0.64797">
        <ele>18</ele>
        <time>2021-03-24T20:06:44Z</time>
      </trkpt>
      <trkpt lat="47.37196" lon="-0.64797">
        <ele>17</ele>
        <time>2021-03-24T20:06:47Z</time>
      </trkpt>
      <trkpt lat="47.37181" lon="-0.64803">
        <ele>17</ele>
        <time>2021-03-24T20:06:50Z</time>
      </trkpt>
      <trkpt lat="47.37165" lon="-0.64814">
        <ele>17</ele>
        <time>2021-03-24T20:06:53Z</time>
      </trkpt>
      <trkpt lat="47.37148" lon="-0.64831">
        <ele>17</ele>
        <time>2021-03-24T20:06:57Z</time>
      </trkpt>
      <trkpt lat="47.37133" lon="-0.64854">
        <ele>16</ele>
        <time>2021-03-24T20:07:00Z</time>
      </trkpt>
      <trkpt lat="47.37054" lon="-0.65001">
        <ele>17</ele>
        <time>2021-03-24T20:07:23Z</time>
      </trkpt>
      <trkpt lat="47.36956" lon="-0.65177">
        <ele>16</ele>
        <time>2021-03-24T20:07:51Z</time>
      </trkpt>
      <trkpt lat="47.36924" lon="-0.65221">
        <ele>16</ele>
        <time>2021-03-24T20:07:58Z</time>
      </trkpt>
      <trkpt lat="47.36906" lon="-0.65238">
        <ele>16</ele>
        <time>2021-03-24T20:08:02Z</time>
      </trkpt>
      <trkpt lat="47.36884" lon="-0.65253">
        <ele>16</ele>
        <time>2021-03-24T20:08:06Z</time>
      </trkpt>
      <trkpt lat="47.36861" lon="-0.65264">
        <ele>17</ele>
        <time>2021-03-24T20:08:11Z</time>
      </trkpt>
      <trkpt lat="47.36836" lon="-0.65271">
        <ele>17</ele>
        <time>2021-03-24T20:08:15Z</time>
      </trkpt>
      <trkpt lat="47.36711" lon="-0.65279">
        <ele>15</ele>
        <time>2021-03-24T20:08:38Z</time>
      </trkpt>
      <trkpt lat="47.36664" lon="-0.65292">
        <ele>15</ele>
        <time>2021-03-24T20:08:46Z</time>
      </trkpt>
      <trkpt lat="47.36423" lon="-0.65392">
        <ele>15</ele>
        <time>2021-03-24T20:09:31Z</time>
      </trkpt>
      <trkpt lat="47.36044" lon="-0.65546">
        <ele>16</ele>
        <time>2021-03-24T20:10:41Z</time>
      </trkpt>
      <trkpt lat="47.36016" lon="-0.6555">
        <ele>16</ele>
        <time>2021-03-24T20:10:46Z</time>
      </trkpt>
      <trkpt lat="47.35959" lon="-0.65532">
        <ele>17</ele>
        <time>2021-03-24T20:10:56Z</time>
      </trkpt>
      <trkpt lat="47.35895" lon="-0.65504">
        <ele>18</ele>
        <time>2021-03-24T20:11:08Z</time>
      </trkpt>
      <trkpt lat="47.3588" lon="-0.65501">
        <ele>19</ele>
        <time>2021-03-24T20:11:10Z</time>
      </trkpt>
      <trkpt lat="47.35876" lon="-0.65527">
        <ele>19</ele>
        <time>2021-03-24T20:11:14Z</time>
      </trkpt>
      <trkpt lat="47.35842" lon="-0.65536">
        <ele>21</ele>
        <time>2021-03-24T20:11:20Z</time>
      </trkpt>
      <trkpt lat="47.35832" lon="-0.65543">
        <ele>22</ele>
        <time>2021-03-24T20:11:22Z</time>
      </trkpt>
      <trkpt lat="47.35812" lon="-0.65567">
        <ele>22</ele>
        <time>2021-03-24T20:11:26Z</time>
      </trkpt>
      <trkpt lat="47.3579" lon="-0.65599">
        <ele>23</ele>
        <time>2021-03-24T20:11:32Z</time>
      </trkpt>
      <trkpt lat="47.35759" lon="-0.65592">
        <ele>24</ele>
        <time>2021-03-24T20:11:37Z</time>
      </trkpt>
      <trkpt lat="47.35731" lon="-0.6558">
        <ele>26</ele>
        <time>2021-03-24T20:11:43Z</time>
      </trkpt>
      <trkpt lat="47.35693" lon="-0.65742">
        <ele>25</ele>
        <time>2021-03-24T20:12:03Z</time>
      </trkpt>
      <trkpt lat="47.35598" lon="-0.66129">
        <ele>20</ele>
        <time>2021-03-24T20:12:53Z</time>
      </trkpt>
      <trkpt lat="47.35581" lon="-0.6618">
        <ele>20</ele>
        <time>2021-03-24T20:13:00Z</time>
      </trkpt>
      <trkpt lat="47.35558" lon="-0.66225">
        <ele>20</ele>
        <time>2021-03-24T20:13:07Z</time>
      </trkpt>
      <trkpt lat="47.3551" lon="-0.66299">
        <ele>21</ele>
        <time>2021-03-24T20:13:19Z</time>
      </trkpt>
      <trkpt lat="47.35485" lon="-0.66332">
        <ele>21</ele>
        <time>2021-03-24T20:13:25Z</time>
      </trkpt>
      <trkpt lat="47.3547" lon="-0.66347">
        <ele>21</ele>
        <time>2021-03-24T20:13:28Z</time>
      </trkpt>
      <trkpt lat="47.35446" lon="-0.66366">
        <ele>21</ele>
        <time>2021-03-24T20:13:33Z</time>
      </trkpt>
      <trkpt lat="47.35379" lon="-0.66406">
        <ele>22</ele>
        <time>2021-03-24T20:13:46Z</time>
      </trkpt>
      <trkpt lat="47.35337" lon="-0.66434">
        <ele>22</ele>
        <time>2021-03-24T20:13:54Z</time>
      </trkpt>
      <trkpt lat="47.35317" lon="-0.66454">
        <ele>22</ele>
        <time>2021-03-24T20:13:58Z</time>
      </trkpt>
      <trkpt lat="47.35296" lon="-0.66478">
        <ele>21</ele>
        <time>2021-03-24T20:14:03Z</time>
      </trkpt>
      <trkpt lat="47.35132" lon="-0.66755">
        <ele>19</ele>
        <time>2021-03-24T20:14:47Z</time>
      </trkpt>
      <trkpt lat="47.34923" lon="-0.67113">
        <ele>19</ele>
        <time>2021-03-24T20:15:44Z</time>
      </trkpt>
      <trkpt lat="47.34869" lon="-0.67201">
        <ele>20</ele>
        <time>2021-03-24T20:15:59Z</time>
      </trkpt>
      <trkpt lat="47.34805" lon="-0.67296">
        <ele>23</ele>
        <time>2021-03-24T20:16:15Z</time>
      </trkpt>
      <trkpt lat="47.34791" lon="-0.67319">
        <ele>24</ele>
        <time>2021-03-24T20:16:19Z</time>
      </trkpt>
      <trkpt lat="47.34776" lon="-0.67358">
        <ele>24</ele>
        <time>2021-03-24T20:16:24Z</time>
      </trkpt>
      <trkpt lat="47.34771" lon="-0.67381">
        <ele>23</ele>
        <time>2021-03-24T20:16:27Z</time>
      </trkpt>
      <trkpt lat="47.34768" lon="-0.67403">
        <ele>22</ele>
        <time>2021-03-24T20:16:30Z</time>
      </trkpt>
      <trkpt lat="47.34767" lon="-0.67434">
        <ele>22</ele>
        <time>2021-03-24T20:16:33Z</time>
      </trkpt>
      <trkpt lat="47.34775" lon="-0.67539">
        <ele>24</ele>
        <time>2021-03-24T20:16:46Z</time>
      </trkpt>
      <trkpt lat="47.34771" lon="-0.67576">
        <ele>26</ele>
        <time>2021-03-24T20:16:51Z</time>
      </trkpt>
      <trkpt lat="47.34752" lon="-0.6765">
        <ele>26</ele>
        <time>2021-03-24T20:17:00Z</time>
      </trkpt>
      <trkpt lat="47.34731" lon="-0.67709">
        <ele>27</ele>
        <time>2021-03-24T20:17:08Z</time>
      </trkpt>
      <trkpt lat="47.34721" lon="-0.67729">
        <ele>28</ele>
        <time>2021-03-24T20:17:11Z</time>
      </trkpt>
      <trkpt lat="47.3469" lon="-0.67776">
        <ele>32</ele>
        <time>2021-03-24T20:17:19Z</time>
      </trkpt>
      <trkpt lat="47.3468" lon="-0.67799">
        <ele>34</ele>
        <time>2021-03-24T20:17:22Z</time>
      </trkpt>
      <trkpt lat="47.34672" lon="-0.67825">
        <ele>36</ele>
        <time>2021-03-24T20:17:26Z</time>
      </trkpt>
      <trkpt lat="47.34665" lon="-0.67858">
        <ele>37</ele>
        <time>2021-03-24T20:17:30Z</time>
      </trkpt>
      <trkpt lat="47.34662" lon="-0.67893">
        <ele>37</ele>
        <time>2021-03-24T20:17:34Z</time>
      </trkpt>
      <trkpt lat="47.34663" lon="-0.67927">
        <ele>36</ele>
        <time>2021-03-24T20:17:38Z</time>
      </trkpt>
      <trkpt lat="47.34662" lon="-0.67946">
        <ele>35</ele>
        <time>2021-03-24T20:17:41Z</time>
      </trkpt>
      <trkpt lat="47.34657" lon="-0.6798">
        <ele>36</ele>
        <time>2021-03-24T20:17:45Z</time>
      </trkpt>
      <trkpt lat="47.34627" lon="-0.68095">
        <ele>41</ele>
        <time>2021-03-24T20:18:00Z</time>
      </trkpt>
      <trkpt lat="47.34609" lon="-0.68175">
        <ele>42</ele>
        <time>2021-03-24T20:18:10Z</time>
      </trkpt>
      <trkpt lat="47.34574" lon="-0.68254">
        <ele>44</ele>
        <time>2021-03-24T20:18:21Z</time>
      </trkpt>
      <trkpt lat="47.34567" lon="-0.6828">
        <ele>43</ele>
        <time>2021-03-24T20:18:25Z</time>
      </trkpt>
      <trkpt lat="47.34561" lon="-0.68342">
        <ele>38</ele>
        <time>2021-03-24T20:18:32Z</time>
      </trkpt>
      <trkpt lat="47.34557" lon="-0.6836">
        <ele>37</ele>
        <time>2021-03-24T20:18:34Z</time>
      </trkpt>
      <trkpt lat="47.34551" lon="-0.68374">
        <ele>37</ele>
        <time>2021-03-24T20:18:36Z</time>
      </trkpt>
      <trkpt lat="47.34542" lon="-0.68384">
        <ele>38</ele>
        <time>2021-03-24T20:18:38Z</time>
      </trkpt>
      <trkpt lat="47.3453" lon="-0.68389">
        <ele>40</ele>
        <time>2021-03-24T20:18:41Z</time>
      </trkpt>
      <trkpt lat="47.34519" lon="-0.6839">
        <ele>42</ele>
        <time>2021-03-24T20:18:43Z</time>
      </trkpt>
      <trkpt lat="47.34473" lon="-0.68382">
        <ele>50</ele>
        <time>2021-03-24T20:18:51Z</time>
      </trkpt>
      <trkpt lat="47.34463" lon="-0.68386">
        <ele>50</ele>
        <time>2021-03-24T20:18:53Z</time>
      </trkpt>
      <trkpt lat="47.34452" lon="-0.68408">
        <ele>50</ele>
        <time>2021-03-24T20:18:56Z</time>
      </trkpt>
      <trkpt lat="47.34451" lon="-0.68417">
        <ele>49</ele>
        <time>2021-03-24T20:18:57Z</time>
      </trkpt>
      <trkpt lat="47.34453" lon="-0.68436">
        <ele>49</ele>
        <time>2021-03-24T20:18:59Z</time>
      </trkpt>
      <trkpt lat="47.34474" lon="-0.68494">
        <ele>48</ele>
        <time>2021-03-24T20:19:07Z</time>
      </trkpt>
      <trkpt lat="47.34479" lon="-0.68526">
        <ele>48</ele>
        <time>2021-03-24T20:19:11Z</time>
      </trkpt>
      <trkpt lat="47.34479" lon="-0.68551">
        <ele>49</ele>
        <time>2021-03-24T20:19:14Z</time>
      </trkpt>
      <trkpt lat="47.34478" lon="-0.68563">
        <ele>49</ele>
        <time>2021-03-24T20:19:16Z</time>
      </trkpt>
      <trkpt lat="47.34453" lon="-0.68689">
        <ele>53</ele>
        <time>2021-03-24T20:19:32Z</time>
      </trkpt>
      <trkpt lat="47.3445" lon="-0.6871">
        <ele>52</ele>
        <time>2021-03-24T20:19:34Z</time>
      </trkpt>
      <trkpt lat="47.34448" lon="-0.68749">
        <ele>52</ele>
        <time>2021-03-24T20:19:39Z</time>
      </trkpt>
      <trkpt lat="47.34449" lon="-0.68787">
        <ele>52</ele>
        <time>2021-03-24T20:19:43Z</time>
      </trkpt>
      <trkpt lat="47.34453" lon="-0.68826">
        <ele>51</ele>
        <time>2021-03-24T20:19:48Z</time>
      </trkpt>
      <trkpt lat="47.34457" lon="-0.68848">
        <ele>51</ele>
        <time>2021-03-24T20:19:51Z</time>
      </trkpt>
      <trkpt lat="47.34468" lon="-0.68892">
        <ele>50</ele>
        <time>2021-03-24T20:19:57Z</time>
      </trkpt>
      <trkpt lat="47.34471" lon="-0.68917">
        <ele>51</ele>
        <time>2021-03-24T20:20:00Z</time>
      </trkpt>
      <trkpt lat="47.3447" lon="-0.68939">
        <ele>51</ele>
        <time>2021-03-24T20:20:02Z</time>
      </trkpt>
      <trkpt lat="47.34466" lon="-0.68961">
        <ele>51</ele>
        <time>2021-03-24T20:20:05Z</time>
      </trkpt>
      <trkpt lat="47.34421" lon="-0.69101">
        <ele>54</ele>
        <time>2021-03-24T20:20:24Z</time>
      </trkpt>
      <trkpt lat="47.34406" lon="-0.69138">
        <ele>52</ele>
        <time>2021-03-24T20:20:29Z</time>
      </trkpt>
      <trkpt lat="47.34398" lon="-0.69152">
        <ele>52</ele>
        <time>2021-03-24T20:20:31Z</time>
      </trkpt>
      <trkpt lat="47.34387" lon="-0.69161">
        <ele>52</ele>
        <time>2021-03-24T20:20:33Z</time>
      </trkpt>
      <trkpt lat="47.34381" lon="-0.69163">
        <ele>52</ele>
        <time>2021-03-24T20:20:34Z</time>
      </trkpt>
      <trkpt lat="47.34369" lon="-0.69163">
        <ele>53</ele>
        <time>2021-03-24T20:20:37Z</time>
      </trkpt>
      <trkpt lat="47.34344" lon="-0.69156">
        <ele>55</ele>
        <time>2021-03-24T20:20:41Z</time>
      </trkpt>
      <trkpt lat="47.34337" lon="-0.69156">
        <ele>56</ele>
        <time>2021-03-24T20:20:42Z</time>
      </trkpt>
      <trkpt lat="47.34329" lon="-0.69157">
        <ele>57</ele>
        <time>2021-03-24T20:20:44Z</time>
      </trkpt>
      <trkpt lat="47.34314" lon="-0.69166">
        <ele>57</ele>
        <time>2021-03-24T20:20:47Z</time>
      </trkpt>
      <trkpt lat="47.34238" lon="-0.6925">
        <ele>58</ele>
        <time>2021-03-24T20:21:04Z</time>
      </trkpt>
      <trkpt lat="47.34162" lon="-0.6933">
        <ele>62</ele>
        <time>2021-03-24T20:21:20Z</time>
      </trkpt>
      <trkpt lat="47.34148" lon="-0.69356">
        <ele>62</ele>
        <time>2021-03-24T20:21:24Z</time>
      </trkpt>
      <trkpt lat="47.34143" lon="-0.69368">
        <ele>63</ele>
        <time>2021-03-24T20:21:26Z</time>
      </trkpt>
      <trkpt lat="47.3414" lon="-0.69383">
        <ele>63</ele>
        <time>2021-03-24T20:21:28Z</time>
      </trkpt>
      <trkpt lat="47.34135" lon="-0.69416">
        <ele>63</ele>
        <time>2021-03-24T20:21:32Z</time>
      </trkpt>
      <trkpt lat="47.34105" lon="-0.70012">
        <ele>60</ele>
        <time>2021-03-24T20:22:44Z</time>
      </trkpt>
      <trkpt lat="47.34104" lon="-0.70046">
        <ele>59</ele>
        <time>2021-03-24T20:22:48Z</time>
      </trkpt>
      <trkpt lat="47.34107" lon="-0.70078">
        <ele>59</ele>
        <time>2021-03-24T20:22:52Z</time>
      </trkpt>
      <trkpt lat="47.34121" lon="-0.70179">
        <ele>61</ele>
        <time>2021-03-24T20:23:04Z</time>
      </trkpt>
      <trkpt lat="47.34123" lon="-0.70198">
        <ele>61</ele>
        <time>2021-03-24T20:23:07Z</time>
      </trkpt>
      <trkpt lat="47.34123" lon="-0.70221">
        <ele>62</ele>
        <time>2021-03-24T20:23:09Z</time>
      </trkpt>
      <trkpt lat="47.34121" lon="-0.70244">
        <ele>62</ele>
        <time>2021-03-24T20:23:12Z</time>
      </trkpt>
      <trkpt lat="47.34045" lon="-0.70728">
        <ele>60</ele>
        <time>2021-03-24T20:24:12Z</time>
      </trkpt>
      <trkpt lat="47.3403" lon="-0.70868">
        <ele>61</ele>
        <time>2021-03-24T20:24:29Z</time>
      </trkpt>
      <trkpt lat="47.34019" lon="-0.70922">
        <ele>62</ele>
        <time>2021-03-24T20:24:36Z</time>
      </trkpt>
      <trkpt lat="47.33992" lon="-0.71028">
        <ele>60</ele>
        <time>2021-03-24T20:24:50Z</time>
      </trkpt>
      <trkpt lat="47.33994" lon="-0.71049">
        <ele>60</ele>
        <time>2021-03-24T20:24:52Z</time>
      </trkpt>
      <trkpt lat="47.33997" lon="-0.71059">
        <ele>60</ele>
        <time>2021-03-24T20:24:54Z</time>
      </trkpt>
      <trkpt lat="47.34035" lon="-0.71183">
        <ele>57</ele>
        <time>2021-03-24T20:25:10Z</time>
      </trkpt>
      <trkpt lat="47.34042" lon="-0.71196">
        <ele>57</ele>
        <time>2021-03-24T20:25:12Z</time>
      </trkpt>
      <trkpt lat="47.34054" lon="-0.71207">
        <ele>57</ele>
        <time>2021-03-24T20:25:14Z</time>
      </trkpt>
      <trkpt lat="47.34061" lon="-0.71211">
        <ele>57</ele>
        <time>2021-03-24T20:25:16Z</time>
      </trkpt>
      <trkpt lat="47.34078" lon="-0.71209">
        <ele>55</ele>
        <time>2021-03-24T20:25:19Z</time>
      </trkpt>
      <trkpt lat="47.3409" lon="-0.71203">
        <ele>54</ele>
        <time>2021-03-24T20:25:21Z</time>
      </trkpt>
      <trkpt lat="47.34114" lon="-0.71183">
        <ele>51</ele>
        <time>2021-03-24T20:25:26Z</time>
      </trkpt>
      <trkpt lat="47.34123" lon="-0.71178">
        <ele>50</ele>
        <time>2021-03-24T20:25:28Z</time>
      </trkpt>
      <trkpt lat="47.34131" lon="-0.71176">
        <ele>50</ele>
        <time>2021-03-24T20:25:29Z</time>
      </trkpt>
      <trkpt lat="47.34144" lon="-0.71179">
        <ele>50</ele>
        <time>2021-03-24T20:25:32Z</time>
      </trkpt>
      <trkpt lat="47.34177" lon="-0.71195">
        <ele>51</ele>
        <time>2021-03-24T20:25:38Z</time>
      </trkpt>
      <trkpt lat="47.3419" lon="-0.71197">
        <ele>52</ele>
        <time>2021-03-24T20:25:40Z</time>
      </trkpt>
      <trkpt lat="47.342" lon="-0.71195">
        <ele>53</ele>
        <time>2021-03-24T20:25:42Z</time>
      </trkpt>
      <trkpt lat="47.34214" lon="-0.71185">
        <ele>53</ele>
        <time>2021-03-24T20:25:45Z</time>
      </trkpt>
      <trkpt lat="47.34224" lon="-0.71165">
        <ele>53</ele>
        <time>2021-03-24T20:25:48Z</time>
      </trkpt>
      <trkpt lat="47.34238" lon="-0.71104">
        <ele>49</ele>
        <time>2021-03-24T20:25:55Z</time>
      </trkpt>
      <trkpt lat="47.34249" lon="-0.71076">
        <ele>47</ele>
        <time>2021-03-24T20:25:59Z</time>
      </trkpt>
      <trkpt lat="47.34262" lon="-0.7106">
        <ele>46</ele>
        <time>2021-03-24T20:26:02Z</time>
      </trkpt>
      <trkpt lat="47.3429" lon="-0.71035">
        <ele>42</ele>
        <time>2021-03-24T20:26:08Z</time>
      </trkpt>
      <trkpt lat="47.34312" lon="-0.71025">
        <ele>41</ele>
        <time>2021-03-24T20:26:12Z</time>
      </trkpt>
      <trkpt lat="47.34337" lon="-0.71024">
        <ele>40</ele>
        <time>2021-03-24T20:26:17Z</time>
      </trkpt>
      <trkpt lat="47.34345" lon="-0.71026">
        <ele>38</ele>
        <time>2021-03-24T20:26:18Z</time>
      </trkpt>
      <trkpt lat="47.34359" lon="-0.71037">
        <ele>37</ele>
        <time>2021-03-24T20:26:21Z</time>
      </trkpt>
      <trkpt lat="47.3437" lon="-0.71058">
        <ele>37</ele>
        <time>2021-03-24T20:26:24Z</time>
      </trkpt>
      <trkpt lat="47.34373" lon="-0.71069">
        <ele>38</ele>
        <time>2021-03-24T20:26:26Z</time>
      </trkpt>
      <trkpt lat="47.34382" lon="-0.71139">
        <ele>41</ele>
        <time>2021-03-24T20:26:34Z</time>
      </trkpt>
      <trkpt lat="47.34391" lon="-0.71181">
        <ele>41</ele>
        <time>2021-03-24T20:26:39Z</time>
      </trkpt>
      <trkpt lat="47.34411" lon="-0.7125">
        <ele>40</ele>
        <time>2021-03-24T20:26:48Z</time>
      </trkpt>
      <trkpt lat="47.345" lon="-0.71528">
        <ele>36</ele>
        <time>2021-03-24T20:27:26Z</time>
      </trkpt>
      <trkpt lat="47.34513" lon="-0.71573">
        <ele>37</ele>
        <time>2021-03-24T20:27:31Z</time>
      </trkpt>
      <trkpt lat="47.34525" lon="-0.71624">
        <ele>40</ele>
        <time>2021-03-24T20:27:38Z</time>
      </trkpt>
      <trkpt lat="47.3453" lon="-0.71641">
        <ele>40</ele>
        <time>2021-03-24T20:27:40Z</time>
      </trkpt>
      <trkpt lat="47.34539" lon="-0.71663">
        <ele>39</ele>
        <time>2021-03-24T20:27:43Z</time>
      </trkpt>
      <trkpt lat="47.34551" lon="-0.71684">
        <ele>37</ele>
        <time>2021-03-24T20:27:47Z</time>
      </trkpt>
      <trkpt lat="47.3461" lon="-0.71741">
        <ele>29</ele>
        <time>2021-03-24T20:27:59Z</time>
      </trkpt>
      <trkpt lat="47.34618" lon="-0.71753">
        <ele>28</ele>
        <time>2021-03-24T20:28:01Z</time>
      </trkpt>
      <trkpt lat="47.34623" lon="-0.71764">
        <ele>28</ele>
        <time>2021-03-24T20:28:03Z</time>
      </trkpt>
      <trkpt lat="47.34638" lon="-0.71812">
        <ele>28</ele>
        <time>2021-03-24T20:28:09Z</time>
      </trkpt>
      <trkpt lat="47.34663" lon="-0.71872">
        <ele>23</ele>
        <time>2021-03-24T20:28:18Z</time>
      </trkpt>
      <trkpt lat="47.34669" lon="-0.71895">
        <ele>22</ele>
        <time>2021-03-24T20:28:21Z</time>
      </trkpt>
      <trkpt lat="47.34673" lon="-0.71919">
        <ele>24</ele>
        <time>2021-03-24T20:28:24Z</time>
      </trkpt>
      <trkpt lat="47.34679" lon="-0.72041">
        <ele>33</ele>
        <time>2021-03-24T20:28:38Z</time>
      </trkpt>
      <trkpt lat="47.34682" lon="-0.72069">
        <ele>35</ele>
        <time>2021-03-24T20:28:42Z</time>
      </trkpt>
      <trkpt lat="47.34687" lon="-0.72101">
        <ele>36</ele>
        <time>2021-03-24T20:28:46Z</time>
      </trkpt>
      <trkpt lat="47.34708" lon="-0.72189">
        <ele>32</ele>
        <time>2021-03-24T20:28:57Z</time>
      </trkpt>
      <trkpt lat="47.34718" lon="-0.7222">
        <ele>29</ele>
        <time>2021-03-24T20:29:01Z</time>
      </trkpt>
      <trkpt lat="47.34735" lon="-0.72259">
        <ele>24</ele>
        <time>2021-03-24T20:29:07Z</time>
      </trkpt>
      <trkpt lat="47.34746" lon="-0.72294">
        <ele>22</ele>
        <time>2021-03-24T20:29:11Z</time>
      </trkpt>
      <trkpt lat="47.34748" lon="-0.72316">
        <ele>22</ele>
        <time>2021-03-24T20:29:14Z</time>
      </trkpt>
      <trkpt lat="47.34749" lon="-0.72342">
        <ele>23</ele>
        <time>2021-03-24T20:29:17Z</time>
      </trkpt>
      <trkpt lat="47.34748" lon="-0.72416">
        <ele>25</ele>
        <time>2021-03-24T20:29:26Z</time>
      </trkpt>
      <trkpt lat="47.34753" lon="-0.72519">
        <ele>28</ele>
        <time>2021-03-24T20:29:39Z</time>
      </trkpt>
      <trkpt lat="47.34756" lon="-0.72546">
        <ele>29</ele>
        <time>2021-03-24T20:29:42Z</time>
      </trkpt>
      <trkpt lat="47.34761" lon="-0.72573">
        <ele>29</ele>
        <time>2021-03-24T20:29:45Z</time>
      </trkpt>
      <trkpt lat="47.34781" lon="-0.72636">
        <ele>28</ele>
        <time>2021-03-24T20:29:54Z</time>
      </trkpt>
      <trkpt lat="47.34791" lon="-0.72726">
        <ele>29</ele>
        <time>2021-03-24T20:30:05Z</time>
      </trkpt>
      <trkpt lat="47.34802" lon="-0.72779">
        <ele>28</ele>
        <time>2021-03-24T20:30:11Z</time>
      </trkpt>
      <trkpt lat="47.34811" lon="-0.72816">
        <ele>26</ele>
        <time>2021-03-24T20:30:16Z</time>
      </trkpt>
      <trkpt lat="47.34823" lon="-0.7285">
        <ele>26</ele>
        <time>2021-03-24T20:30:21Z</time>
      </trkpt>
      <trkpt lat="47.34856" lon="-0.72914">
        <ele>26</ele>
        <time>2021-03-24T20:30:30Z</time>
      </trkpt>
      <trkpt lat="47.34866" lon="-0.72941">
        <ele>25</ele>
        <time>2021-03-24T20:30:34Z</time>
      </trkpt>
      <trkpt lat="47.34868" lon="-0.72955">
        <ele>25</ele>
        <time>2021-03-24T20:30:36Z</time>
      </trkpt>
      <trkpt lat="47.34869" lon="-0.72972">
        <ele>26</ele>
        <time>2021-03-24T20:30:38Z</time>
      </trkpt>
      <trkpt lat="47.3486" lon="-0.73064">
        <ele>26</ele>
        <time>2021-03-24T20:30:49Z</time>
      </trkpt>
      <trkpt lat="47.34861" lon="-0.73104">
        <ele>26</ele>
        <time>2021-03-24T20:30:54Z</time>
      </trkpt>
      <trkpt lat="47.34864" lon="-0.73144">
        <ele>26</ele>
        <time>2021-03-24T20:30:59Z</time>
      </trkpt>
      <trkpt lat="47.34886" lon="-0.73272">
        <ele>27</ele>
        <time>2021-03-24T20:31:15Z</time>
      </trkpt>
      <trkpt lat="47.34897" lon="-0.73362">
        <ele>25</ele>
        <time>2021-03-24T20:31:26Z</time>
      </trkpt>
      <trkpt lat="47.34901" lon="-0.73445">
        <ele>22</ele>
        <time>2021-03-24T20:31:36Z</time>
      </trkpt>
      <trkpt lat="47.34897" lon="-0.7351">
        <ele>22</ele>
        <time>2021-03-24T20:31:44Z</time>
      </trkpt>
      <trkpt lat="47.34898" lon="-0.73524">
        <ele>23</ele>
        <time>2021-03-24T20:31:45Z</time>
      </trkpt>
      <trkpt lat="47.34904" lon="-0.73545">
        <ele>23</ele>
        <time>2021-03-24T20:31:48Z</time>
      </trkpt>
      <trkpt lat="47.34911" lon="-0.73557">
        <ele>22</ele>
        <time>2021-03-24T20:31:50Z</time>
      </trkpt>
      <trkpt lat="47.3494" lon="-0.73586">
        <ele>19</ele>
        <time>2021-03-24T20:31:56Z</time>
      </trkpt>
      <trkpt lat="47.34944" lon="-0.73592">
        <ele>19</ele>
        <time>2021-03-24T20:31:57Z</time>
      </trkpt>
      <trkpt lat="47.34948" lon="-0.73608">
        <ele>19</ele>
        <time>2021-03-24T20:31:59Z</time>
      </trkpt>
      <trkpt lat="47.34949" lon="-0.73616">
        <ele>19</ele>
        <time>2021-03-24T20:32:00Z</time>
      </trkpt>
      <trkpt lat="47.34947" lon="-0.73635">
        <ele>20</ele>
        <time>2021-03-24T20:32:02Z</time>
      </trkpt>
      <trkpt lat="47.34937" lon="-0.73678">
        <ele>23</ele>
        <time>2021-03-24T20:32:08Z</time>
      </trkpt>
      <trkpt lat="47.34935" lon="-0.73694">
        <ele>24</ele>
        <time>2021-03-24T20:32:10Z</time>
      </trkpt>
      <trkpt lat="47.34934" lon="-0.73724">
        <ele>25</ele>
        <time>2021-03-24T20:32:14Z</time>
      </trkpt>
      <trkpt lat="47.34939" lon="-0.73755">
        <ele>25</ele>
        <time>2021-03-24T20:32:17Z</time>
      </trkpt>
      <trkpt lat="47.34971" lon="-0.73834">
        <ele>26</ele>
        <time>2021-03-24T20:32:28Z</time>
      </trkpt>
      <trkpt lat="47.35023" lon="-0.7401">
        <ele>26</ele>
        <time>2021-03-24T20:32:52Z</time>
      </trkpt>
      <trkpt lat="47.35032" lon="-0.74056">
        <ele>28</ele>
        <time>2021-03-24T20:32:57Z</time>
      </trkpt>
      <trkpt lat="47.35048" lon="-0.7422">
        <ele>30</ele>
        <time>2021-03-24T20:33:17Z</time>
      </trkpt>
      <trkpt lat="47.35059" lon="-0.74292">
        <ele>27</ele>
        <time>2021-03-24T20:33:26Z</time>
      </trkpt>
      <trkpt lat="47.35077" lon="-0.74386">
        <ele>24</ele>
        <time>2021-03-24T20:33:38Z</time>
      </trkpt>
      <trkpt lat="47.35078" lon="-0.74406">
        <ele>25</ele>
        <time>2021-03-24T20:33:40Z</time>
      </trkpt>
      <trkpt lat="47.35075" lon="-0.74452">
        <ele>25</ele>
        <time>2021-03-24T20:33:46Z</time>
      </trkpt>
      <trkpt lat="47.35045" lon="-0.74836">
        <ele>17</ele>
        <time>2021-03-24T20:34:33Z</time>
      </trkpt>
      <trkpt lat="47.35042" lon="-0.7486">
        <ele>17</ele>
        <time>2021-03-24T20:34:36Z</time>
      </trkpt>
      <trkpt lat="47.35038" lon="-0.74878">
        <ele>16</ele>
        <time>2021-03-24T20:34:38Z</time>
      </trkpt>
      <trkpt lat="47.35017" lon="-0.7494">
        <ele>15</ele>
        <time>2021-03-24T20:34:46Z</time>
      </trkpt>
      <trkpt lat="47.35003" lon="-0.74994">
        <ele>15</ele>
        <time>2021-03-24T20:34:53Z</time>
      </trkpt>
      <trkpt lat="47.34995" lon="-0.75063">
        <ele>13</ele>
        <time>2021-03-24T20:35:02Z</time>
      </trkpt>
      <trkpt lat="47.34995" lon="-0.75112">
        <ele>12</ele>
        <time>2021-03-24T20:35:08Z</time>
      </trkpt>
      <trkpt lat="47.35054" lon="-0.75613">
        <ele>19</ele>
        <time>2021-03-24T20:36:09Z</time>
      </trkpt>
      <trkpt lat="47.35054" lon="-0.75631">
        <ele>19</ele>
        <time>2021-03-24T20:36:11Z</time>
      </trkpt>
      <trkpt lat="47.35057" lon="-0.75637">
        <ele>20</ele>
        <time>2021-03-24T20:36:12Z</time>
      </trkpt>
      <trkpt lat="47.35058" lon="-0.75641">
        <ele>20</ele>
        <time>2021-03-24T20:36:12Z</time>
      </trkpt>
      <trkpt lat="47.35056" lon="-0.75646">
        <ele>20</ele>
        <time>2021-03-24T20:36:13Z</time>
      </trkpt>
      <trkpt lat="47.35058" lon="-0.75656">
        <ele>20</ele>
        <time>2021-03-24T20:36:14Z</time>
      </trkpt>
      <trkpt lat="47.35066" lon="-0.75714">
        <ele>21</ele>
        <time>2021-03-24T20:36:22Z</time>
      </trkpt>
      <trkpt lat="47.35079" lon="-0.75707">
        <ele>21</ele>
        <time>2021-03-24T20:36:24Z</time>
      </trkpt>
      <trkpt lat="47.35094" lon="-0.75705">
        <ele>21</ele>
        <time>2021-03-24T20:36:27Z</time>
      </trkpt>
      <trkpt lat="47.3515" lon="-0.75717">
        <ele>20</ele>
        <time>2021-03-24T20:36:37Z</time>
      </trkpt>
      <trkpt lat="47.35155" lon="-0.75724">
        <ele>20</ele>
        <time>2021-03-24T20:36:38Z</time>
      </trkpt>
      <trkpt lat="47.35158" lon="-0.75735">
        <ele>19</ele>
        <time>2021-03-24T20:36:39Z</time>
      </trkpt>
      <trkpt lat="47.35157" lon="-0.75747">
        <ele>19</ele>
        <time>2021-03-24T20:36:41Z</time>
      </trkpt>
      <trkpt lat="47.35138" lon="-0.7577">
        <ele>19</ele>
        <time>2021-03-24T20:36:45Z</time>
      </trkpt>
      <trkpt lat="47.35162" lon="-0.75872">
        <ele>18</ele>
        <time>2021-03-24T20:36:58Z</time>
      </trkpt>
      <trkpt lat="47.35216" lon="-0.75828">
        <ele>17</ele>
        <time>2021-03-24T20:37:09Z</time>
      </trkpt>
      <trkpt lat="47.35222" lon="-0.75827">
        <ele>17</ele>
        <time>2021-03-24T20:37:10Z</time>
      </trkpt>
      <trkpt lat="47.35236" lon="-0.75832">
        <ele>17</ele>
        <time>2021-03-24T20:37:13Z</time>
      </trkpt>
      <trkpt lat="47.35244" lon="-0.7584">
        <ele>17</ele>
        <time>2021-03-24T20:37:15Z</time>
      </trkpt>
      <trkpt lat="47.35258" lon="-0.75863">
        <ele>18</ele>
        <time>2021-03-24T20:37:18Z</time>
      </trkpt>
      <trkpt lat="47.35262" lon="-0.75872">
        <ele>18</ele>
        <time>2021-03-24T20:37:20Z</time>
      </trkpt>
      <trkpt lat="47.35355" lon="-0.76227">
        <ele>17</ele>
        <time>2021-03-24T20:38:05Z</time>
      </trkpt>
      <trkpt lat="47.35489" lon="-0.76156">
        <ele>13</ele>
        <time>2021-03-24T20:38:31Z</time>
      </trkpt>
      <trkpt lat="47.35727" lon="-0.76018">
        <ele>14</ele>
        <time>2021-03-24T20:39:16Z</time>
      </trkpt>
      <trkpt lat="47.35794" lon="-0.75984">
        <ele>14</ele>
        <time>2021-03-24T20:39:29Z</time>
      </trkpt>
      <trkpt lat="47.36224" lon="-0.75749">
        <ele>14</ele>
        <time>2021-03-24T20:40:50Z</time>
      </trkpt>
      <trkpt lat="47.3632" lon="-0.75703">
        <ele>15</ele>
        <time>2021-03-24T20:41:08Z</time>
      </trkpt>
      <trkpt lat="47.36329" lon="-0.75687">
        <ele>16</ele>
        <time>2021-03-24T20:41:11Z</time>
      </trkpt>
      <trkpt lat="47.36406" lon="-0.75647">
        <ele>14</ele>
        <time>2021-03-24T20:41:25Z</time>
      </trkpt>
      <trkpt lat="47.36417" lon="-0.75649">
        <ele>13</ele>
        <time>2021-03-24T20:41:27Z</time>
      </trkpt>
      <trkpt lat="47.3671" lon="-0.75489">
        <ele>12</ele>
        <time>2021-03-24T20:42:23Z</time>
      </trkpt>
      <trkpt lat="47.36715" lon="-0.75478">
        <ele>12</ele>
        <time>2021-03-24T20:42:25Z</time>
      </trkpt>
      <trkpt lat="47.36894" lon="-0.75381">
        <ele>13</ele>
        <time>2021-03-24T20:42:59Z</time>
      </trkpt>
      <trkpt lat="47.36904" lon="-0.75384">
        <ele>13</ele>
        <time>2021-03-24T20:43:00Z</time>
      </trkpt>
      <trkpt lat="47.37042" lon="-0.7531">
        <ele>16</ele>
        <time>2021-03-24T20:43:26Z</time>
      </trkpt>
      <trkpt lat="47.37042" lon="-0.7532">
        <ele>16</ele>
        <time>2021-03-24T20:43:28Z</time>
      </trkpt>
      <trkpt lat="47.37037" lon="-0.75339">
        <ele>16</ele>
        <time>2021-03-24T20:43:30Z</time>
      </trkpt>
      <trkpt lat="47.37037" lon="-0.75349">
        <ele>16</ele>
        <time>2021-03-24T20:43:31Z</time>
      </trkpt>
      <trkpt lat="47.37116" lon="-0.75713">
        <ele>14</ele>
        <time>2021-03-24T20:44:17Z</time>
      </trkpt>
      <trkpt lat="47.37352" lon="-0.7682">
        <ele>16</ele>
        <time>2021-03-24T20:46:37Z</time>
      </trkpt>
      <trkpt lat="47.37364" lon="-0.76864">
        <ele>16</ele>
        <time>2021-03-24T20:46:43Z</time>
      </trkpt>
      <trkpt lat="47.37426" lon="-0.76974">
        <ele>15</ele>
        <time>2021-03-24T20:47:00Z</time>
      </trkpt>
      <trkpt lat="47.37473" lon="-0.77104">
        <ele>15</ele>
        <time>2021-03-24T20:47:18Z</time>
      </trkpt>
      <trkpt lat="47.37617" lon="-0.77366">
        <ele>13</ele>
        <time>2021-03-24T20:47:59Z</time>
      </trkpt>
      <trkpt lat="47.37664" lon="-0.77457">
        <ele>13</ele>
        <time>2021-03-24T20:48:12Z</time>
      </trkpt>
      <trkpt lat="47.37697" lon="-0.77557">
        <ele>13</ele>
        <time>2021-03-24T20:48:26Z</time>
      </trkpt>
      <trkpt lat="47.37807" lon="-0.77991">
        <ele>14</ele>
        <time>2021-03-24T20:49:22Z</time>
      </trkpt>
      <trkpt lat="47.3795" lon="-0.78447">
        <ele>13</ele>
        <time>2021-03-24T20:50:22Z</time>
      </trkpt>
      <trkpt lat="47.38064" lon="-0.78857">
        <ele>14</ele>
        <time>2021-03-24T20:51:16Z</time>
      </trkpt>
      <trkpt lat="47.38152" lon="-0.79257">
        <ele>12</ele>
        <time>2021-03-24T20:52:06Z</time>
      </trkpt>
      <trkpt lat="47.3817" lon="-0.79344">
        <ele>12</ele>
        <time>2021-03-24T20:52:17Z</time>
      </trkpt>
      <trkpt lat="47.38188" lon="-0.79408">
        <ele>14</ele>
        <time>2021-03-24T20:52:26Z</time>
      </trkpt>
      <trkpt lat="47.38272" lon="-0.79681">
        <ele>14</ele>
        <time>2021-03-24T20:53:02Z</time>
      </trkpt>
      <trkpt lat="47.38316" lon="-0.79868">
        <ele>14</ele>
        <time>2021-03-24T20:53:26Z</time>
      </trkpt>
      <trkpt lat="47.38326" lon="-0.7993">
        <ele>13</ele>
        <time>2021-03-24T20:53:33Z</time>
      </trkpt>
      <trkpt lat="47.38328" lon="-0.79976">
        <ele>12</ele>
        <time>2021-03-24T20:53:39Z</time>
      </trkpt>
      <trkpt lat="47.38319" lon="-0.80103">
        <ele>13</ele>
        <time>2021-03-24T20:53:54Z</time>
      </trkpt>
      <trkpt lat="47.38317" lon="-0.80161">
        <ele>13</ele>
        <time>2021-03-24T20:54:01Z</time>
      </trkpt>
      <trkpt lat="47.38322" lon="-0.80251">
        <ele>12</ele>
        <time>2021-03-24T20:54:12Z</time>
      </trkpt>
      <trkpt lat="47.38331" lon="-0.80339">
        <ele>13</ele>
        <time>2021-03-24T20:54:23Z</time>
      </trkpt>
      <trkpt lat="47.38337" lon="-0.80376">
        <ele>13</ele>
        <time>2021-03-24T20:54:27Z</time>
      </trkpt>
      <trkpt lat="47.38348" lon="-0.80416">
        <ele>13</ele>
        <time>2021-03-24T20:54:33Z</time>
      </trkpt>
      <trkpt lat="47.38515" lon="-0.8078">
        <ele>14</ele>
        <time>2021-03-24T20:55:26Z</time>
      </trkpt>
      <trkpt lat="47.38528" lon="-0.80811">
        <ele>14</ele>
        <time>2021-03-24T20:55:30Z</time>
      </trkpt>
      <trkpt lat="47.38608" lon="-0.8108">
        <ele>14</ele>
        <time>2021-03-24T20:56:05Z</time>
      </trkpt>
      <trkpt lat="47.38614" lon="-0.81116">
        <ele>14</ele>
        <time>2021-03-24T20:56:10Z</time>
      </trkpt>
      <trkpt lat="47.38619" lon="-0.8116">
        <ele>15</ele>
        <time>2021-03-24T20:56:15Z</time>
      </trkpt>
      <trkpt lat="47.3862" lon="-0.81227">
        <ele>15</ele>
        <time>2021-03-24T20:56:23Z</time>
      </trkpt>
      <trkpt lat="47.38622" lon="-0.81244">
        <ele>15</ele>
        <time>2021-03-24T20:56:25Z</time>
      </trkpt>
      <trkpt lat="47.38628" lon="-0.81271">
        <ele>15</ele>
        <time>2021-03-24T20:56:29Z</time>
      </trkpt>
      <trkpt lat="47.38724" lon="-0.81507">
        <ele>12</ele>
        <time>2021-03-24T20:57:02Z</time>
      </trkpt>
      <trkpt lat="47.38747" lon="-0.81579">
        <ele>13</ele>
        <time>2021-03-24T20:57:11Z</time>
      </trkpt>
      <trkpt lat="47.38821" lon="-0.8183">
        <ele>13</ele>
        <time>2021-03-24T20:57:44Z</time>
      </trkpt>
      <trkpt lat="47.38838" lon="-0.81928">
        <ele>13</ele>
        <time>2021-03-24T20:57:57Z</time>
      </trkpt>
      <trkpt lat="47.38849" lon="-0.82051">
        <ele>14</ele>
        <time>2021-03-24T20:58:12Z</time>
      </trkpt>
      <trkpt lat="47.38861" lon="-0.82109">
        <ele>13</ele>
        <time>2021-03-24T20:58:19Z</time>
      </trkpt>
      <trkpt lat="47.38873" lon="-0.82155">
        <ele>13</ele>
        <time>2021-03-24T20:58:25Z</time>
      </trkpt>
      <trkpt lat="47.3889" lon="-0.82294">
        <ele>13</ele>
        <time>2021-03-24T20:58:42Z</time>
      </trkpt>
      <trkpt lat="47.38907" lon="-0.82371">
        <ele>13</ele>
        <time>2021-03-24T20:58:52Z</time>
      </trkpt>
      <trkpt lat="47.38925" lon="-0.82479">
        <ele>13</ele>
        <time>2021-03-24T20:59:05Z</time>
      </trkpt>
      <trkpt lat="47.38932" lon="-0.82598">
        <ele>13</ele>
        <time>2021-03-24T20:59:19Z</time>
      </trkpt>
      <trkpt lat="47.38945" lon="-0.82681">
        <ele>13</ele>
        <time>2021-03-24T20:59:30Z</time>
      </trkpt>
      <trkpt lat="47.38949" lon="-0.82727">
        <ele>13</ele>
        <time>2021-03-24T20:59:35Z</time>
      </trkpt>
      <trkpt lat="47.38969" lon="-0.82816">
        <ele>13</ele>
        <time>2021-03-24T20:59:47Z</time>
      </trkpt>
      <trkpt lat="47.38997" lon="-0.82933">
        <ele>13</ele>
        <time>2021-03-24T21:00:02Z</time>
      </trkpt>
      <trkpt lat="47.39016" lon="-0.82985">
        <ele>14</ele>
        <time>2021-03-24T21:00:09Z</time>
      </trkpt>
      <trkpt lat="47.39037" lon="-0.83029">
        <ele>14</ele>
        <time>2021-03-24T21:00:15Z</time>
      </trkpt>
      <trkpt lat="47.39047" lon="-0.8306">
        <ele>14</ele>
        <time>2021-03-24T21:00:19Z</time>
      </trkpt>
      <trkpt lat="47.3905" lon="-0.83073">
        <ele>14</ele>
        <time>2021-03-24T21:00:21Z</time>
      </trkpt>
      <trkpt lat="47.39052" lon="-0.83094">
        <ele>14</ele>
        <time>2021-03-24T21:00:23Z</time>
      </trkpt>
      <trkpt lat="47.39104" lon="-0.83319">
        <ele>13</ele>
        <time>2021-03-24T21:00:52Z</time>
      </trkpt>
      <trkpt lat="47.39114" lon="-0.83371">
        <ele>12</ele>
        <time>2021-03-24T21:00:59Z</time>
      </trkpt>
      <trkpt lat="47.39184" lon="-0.83565">
        <ele>13</ele>
        <time>2021-03-24T21:01:25Z</time>
      </trkpt>
      <trkpt lat="47.39259" lon="-0.83744">
        <ele>15</ele>
        <time>2021-03-24T21:01:50Z</time>
      </trkpt>
      <trkpt lat="47.39274" lon="-0.83777">
        <ele>14</ele>
        <time>2021-03-24T21:01:55Z</time>
      </trkpt>
      <trkpt lat="47.39338" lon="-0.83867">
        <ele>11</ele>
        <time>2021-03-24T21:02:11Z</time>
      </trkpt>
      <trkpt lat="47.39361" lon="-0.83902">
        <ele>11</ele>
        <time>2021-03-24T21:02:17Z</time>
      </trkpt>
      <trkpt lat="47.39375" lon="-0.83928">
        <ele>11</ele>
        <time>2021-03-24T21:02:21Z</time>
      </trkpt>
      <trkpt lat="47.39496" lon="-0.84191">
        <ele>12</ele>
        <time>2021-03-24T21:02:59Z</time>
      </trkpt>
      <trkpt lat="47.3951" lon="-0.84233">
        <ele>12</ele>
        <time>2021-03-24T21:03:05Z</time>
      </trkpt>
      <trkpt lat="47.3952" lon="-0.84298">
        <ele>11</ele>
        <time>2021-03-24T21:03:13Z</time>
      </trkpt>
      <trkpt lat="47.39521" lon="-0.84345">
        <ele>11</ele>
        <time>2021-03-24T21:03:18Z</time>
      </trkpt>
      <trkpt lat="47.39501" lon="-0.84447">
        <ele>13</ele>
        <time>2021-03-24T21:03:31Z</time>
      </trkpt>
      <trkpt lat="47.39499" lon="-0.84483">
        <ele>14</ele>
        <time>2021-03-24T21:03:36Z</time>
      </trkpt>
      <trkpt lat="47.39514" lon="-0.84814">
        <ele>14</ele>
        <time>2021-03-24T21:04:16Z</time>
      </trkpt>
      <trkpt lat="47.39517" lon="-0.84843">
        <ele>14</ele>
        <time>2021-03-24T21:04:19Z</time>
      </trkpt>
      <trkpt lat="47.39522" lon="-0.84872">
        <ele>13</ele>
        <time>2021-03-24T21:04:23Z</time>
      </trkpt>
      <trkpt lat="47.39586" lon="-0.85116">
        <ele>14</ele>
        <time>2021-03-24T21:04:54Z</time>
      </trkpt>
      <trkpt lat="47.39589" lon="-0.85131">
        <ele>15</ele>
        <time>2021-03-24T21:04:56Z</time>
      </trkpt>
      <trkpt lat="47.39593" lon="-0.85161">
        <ele>16</ele>
        <time>2021-03-24T21:05:00Z</time>
      </trkpt>
      <trkpt lat="47.39615" lon="-0.857">
        <ele>11</ele>
        <time>2021-03-24T21:06:05Z</time>
      </trkpt>
      <trkpt lat="47.39618" lon="-0.85714">
        <ele>11</ele>
        <time>2021-03-24T21:06:07Z</time>
      </trkpt>
      <trkpt lat="47.39623" lon="-0.85725">
        <ele>12</ele>
        <time>2021-03-24T21:06:08Z</time>
      </trkpt>
      <trkpt lat="47.39629" lon="-0.85731">
        <ele>12</ele>
        <time>2021-03-24T21:06:09Z</time>
      </trkpt>
      <trkpt lat="47.3966" lon="-0.85741">
        <ele>13</ele>
        <time>2021-03-24T21:06:15Z</time>
      </trkpt>
      <trkpt lat="47.39667" lon="-0.85742">
        <ele>13</ele>
        <time>2021-03-24T21:06:16Z</time>
      </trkpt>
      <trkpt lat="47.39674" lon="-0.85746">
        <ele>13</ele>
        <time>2021-03-24T21:06:18Z</time>
      </trkpt>
      <trkpt lat="47.39686" lon="-0.85764">
        <ele>13</ele>
        <time>2021-03-24T21:06:21Z</time>
      </trkpt>
      <trkpt lat="47.39688" lon="-0.85771">
        <ele>13</ele>
        <time>2021-03-24T21:06:22Z</time>
      </trkpt>
      <trkpt lat="47.39195" lon="-0.86113">
        <ele>14</ele>
        <time>2021-03-24T21:07:59Z</time>
      </trkpt>
      <trkpt lat="47.39224" lon="-0.86192">
        <ele>13</ele>
        <time>2021-03-24T21:08:09Z</time>
      </trkpt>
      <trkpt lat="47.3923" lon="-0.8622">
        <ele>13</ele>
        <time>2021-03-24T21:08:13Z</time>
      </trkpt>
      <trkpt lat="47.39231" lon="-0.86246">
        <ele>13</ele>
        <time>2021-03-24T21:08:16Z</time>
      </trkpt>
      <trkpt lat="47.39209" lon="-0.86665">
        <ele>11</ele>
        <time>2021-03-24T21:09:07Z</time>
      </trkpt>
      <trkpt lat="47.39207" lon="-0.86739">
        <ele>10</ele>
        <time>2021-03-24T21:09:16Z</time>
      </trkpt>
      <trkpt lat="47.3923" lon="-0.87407">
        <ele>13</ele>
        <time>2021-03-24T21:10:36Z</time>
      </trkpt>
      <trkpt lat="47.39236" lon="-0.87465">
        <ele>12</ele>
        <time>2021-03-24T21:10:43Z</time>
      </trkpt>
      <trkpt lat="47.39243" lon="-0.87503">
        <ele>12</ele>
        <time>2021-03-24T21:10:48Z</time>
      </trkpt>
      <trkpt lat="47.39254" lon="-0.87552">
        <ele>12</ele>
        <time>2021-03-24T21:10:54Z</time>
      </trkpt>
      <trkpt lat="47.39414" lon="-0.8815">
        <ele>11</ele>
        <time>2021-03-24T21:12:12Z</time>
      </trkpt>
      <trkpt lat="47.39419" lon="-0.8818">
        <ele>11</ele>
        <time>2021-03-24T21:12:15Z</time>
      </trkpt>
      <trkpt lat="47.39426" lon="-0.88236">
        <ele>11</ele>
        <time>2021-03-24T21:12:22Z</time>
      </trkpt>
      <trkpt lat="47.39448" lon="-0.88397">
        <ele>12</ele>
        <time>2021-03-24T21:12:42Z</time>
      </trkpt>
      <trkpt lat="47.39455" lon="-0.88435">
        <ele>12</ele>
        <time>2021-03-24T21:12:47Z</time>
      </trkpt>
      <trkpt lat="47.39485" lon="-0.88531">
        <ele>12</ele>
        <time>2021-03-24T21:12:59Z</time>
      </trkpt>
      <trkpt lat="47.39566" lon="-0.8875">
        <ele>11</ele>
        <time>2021-03-24T21:13:30Z</time>
      </trkpt>
      <trkpt lat="47.39587" lon="-0.88811">
        <ele>11</ele>
        <time>2021-03-24T21:13:38Z</time>
      </trkpt>
      <trkpt lat="47.396" lon="-0.88862">
        <ele>11</ele>
        <time>2021-03-24T21:13:44Z</time>
      </trkpt>
      <trkpt lat="47.39604" lon="-0.88889">
        <ele>11</ele>
        <time>2021-03-24T21:13:48Z</time>
      </trkpt>
      <trkpt lat="47.39614" lon="-0.88991">
        <ele>11</ele>
        <time>2021-03-24T21:14:00Z</time>
      </trkpt>
      <trkpt lat="47.39628" lon="-0.8921">
        <ele>12</ele>
        <time>2021-03-24T21:14:27Z</time>
      </trkpt>
      <trkpt lat="47.39636" lon="-0.89283">
        <ele>13</ele>
        <time>2021-03-24T21:14:36Z</time>
      </trkpt>
      <trkpt lat="47.39645" lon="-0.89337">
        <ele>13</ele>
        <time>2021-03-24T21:14:42Z</time>
      </trkpt>
      <trkpt lat="47.39653" lon="-0.8937">
        <ele>13</ele>
        <time>2021-03-24T21:14:46Z</time>
      </trkpt>
      <trkpt lat="47.39661" lon="-0.89399">
        <ele>14</ele>
        <time>2021-03-24T21:14:50Z</time>
      </trkpt>
      <trkpt lat="47.3971" lon="-0.89547">
        <ele>13</ele>
        <time>2021-03-24T21:15:10Z</time>
      </trkpt>
      <trkpt lat="47.39932" lon="-0.90195">
        <ele>13</ele>
        <time>2021-03-24T21:16:38Z</time>
      </trkpt>
      <trkpt lat="47.39984" lon="-0.90356">
        <ele>13</ele>
        <time>2021-03-24T21:16:59Z</time>
      </trkpt>
      <trkpt lat="47.39997" lon="-0.90411">
        <ele>13</ele>
        <time>2021-03-24T21:17:06Z</time>
      </trkpt>
      <trkpt lat="47.40013" lon="-0.90495">
        <ele>12</ele>
        <time>2021-03-24T21:17:17Z</time>
      </trkpt>
      <trkpt lat="47.4002" lon="-0.90563">
        <ele>12</ele>
        <time>2021-03-24T21:17:25Z</time>
      </trkpt>
      <trkpt lat="47.40022" lon="-0.90619">
        <ele>13</ele>
        <time>2021-03-24T21:17:32Z</time>
      </trkpt>
      <trkpt lat="47.4002" lon="-0.90739">
        <ele>13</ele>
        <time>2021-03-24T21:17:46Z</time>
      </trkpt>
      <trkpt lat="47.40012" lon="-0.90913">
        <ele>13</ele>
        <time>2021-03-24T21:18:07Z</time>
      </trkpt>
      <trkpt lat="47.40003" lon="-0.91189">
        <ele>13</ele>
        <time>2021-03-24T21:18:40Z</time>
      </trkpt>
      <trkpt lat="47.39998" lon="-0.91238">
        <ele>12</ele>
        <time>2021-03-24T21:18:46Z</time>
      </trkpt>
      <trkpt lat="47.39984" lon="-0.91316">
        <ele>13</ele>
        <time>2021-03-24T21:18:56Z</time>
      </trkpt>
      <trkpt lat="47.39966" lon="-0.91394">
        <ele>12</ele>
        <time>2021-03-24T21:19:06Z</time>
      </trkpt>
      <trkpt lat="47.39954" lon="-0.9143">
        <ele>13</ele>
        <time>2021-03-24T21:19:11Z</time>
      </trkpt>
      <trkpt lat="47.3992" lon="-0.9152">
        <ele>15</ele>
        <time>2021-03-24T21:19:23Z</time>
      </trkpt>
      <trkpt lat="47.3985" lon="-0.91689">
        <ele>13</ele>
        <time>2021-03-24T21:19:47Z</time>
      </trkpt>
      <trkpt lat="47.39695" lon="-0.92079">
        <ele>12</ele>
        <time>2021-03-24T21:20:41Z</time>
      </trkpt>
      <trkpt lat="47.39651" lon="-0.92183">
        <ele>13</ele>
        <time>2021-03-24T21:20:56Z</time>
      </trkpt>
      <trkpt lat="47.3961" lon="-0.92268">
        <ele>12</ele>
        <time>2021-03-24T21:21:09Z</time>
      </trkpt>
      <trkpt lat="47.39567" lon="-0.92336">
        <ele>13</ele>
        <time>2021-03-24T21:21:20Z</time>
      </trkpt>
      <trkpt lat="47.39517" lon="-0.92401">
        <ele>13</ele>
        <time>2021-03-24T21:21:32Z</time>
      </trkpt>
      <trkpt lat="47.38866" lon="-0.93187">
        <ele>11</ele>
        <time>2021-03-24T21:24:01Z</time>
      </trkpt>
      <trkpt lat="47.38801" lon="-0.93253">
        <ele>10</ele>
        <time>2021-03-24T21:24:16Z</time>
      </trkpt>
      <trkpt lat="47.38741" lon="-0.933">
        <ele>11</ele>
        <time>2021-03-24T21:24:28Z</time>
      </trkpt>
      <trkpt lat="47.3869" lon="-0.93335">
        <ele>11</ele>
        <time>2021-03-24T21:24:38Z</time>
      </trkpt>
      <trkpt lat="47.3857" lon="-0.9341">
        <ele>12</ele>
        <time>2021-03-24T21:25:01Z</time>
      </trkpt>
      <trkpt lat="47.38528" lon="-0.93443">
        <ele>12</ele>
        <time>2021-03-24T21:25:09Z</time>
      </trkpt>
      <trkpt lat="47.38488" lon="-0.93485">
        <ele>11</ele>
        <time>2021-03-24T21:25:18Z</time>
      </trkpt>
      <trkpt lat="47.38449" lon="-0.93535">
        <ele>10</ele>
        <time>2021-03-24T21:25:27Z</time>
      </trkpt>
      <trkpt lat="47.38411" lon="-0.93602">
        <ele>10</ele>
        <time>2021-03-24T21:25:38Z</time>
      </trkpt>
      <trkpt lat="47.37632" lon="-0.95213">
        <ele>11</ele>
        <time>2021-03-24T21:29:36Z</time>
      </trkpt>
      <trkpt lat="47.37599" lon="-0.95283">
        <ele>12</ele>
        <time>2021-03-24T21:29:47Z</time>
      </trkpt>
      <trkpt lat="47.3757" lon="-0.95352">
        <ele>13</ele>
        <time>2021-03-24T21:29:56Z</time>
      </trkpt>
      <trkpt lat="47.3732" lon="-0.9603">
        <ele>12</ele>
        <time>2021-03-24T21:31:29Z</time>
      </trkpt>
      <trkpt lat="47.37292" lon="-0.96113">
        <ele>12</ele>
        <time>2021-03-24T21:31:40Z</time>
      </trkpt>
      <trkpt lat="47.37266" lon="-0.96222">
        <ele>11</ele>
        <time>2021-03-24T21:31:54Z</time>
      </trkpt>
      <trkpt lat="47.37098" lon="-0.97321">
        <ele>11</ele>
        <time>2021-03-24T21:34:10Z</time>
      </trkpt>
      <trkpt lat="47.37062" lon="-0.97572">
        <ele>11</ele>
        <time>2021-03-24T21:34:41Z</time>
      </trkpt>
      <trkpt lat="47.3703" lon="-0.97768">
        <ele>11</ele>
        <time>2021-03-24T21:35:05Z</time>
      </trkpt>
      <trkpt lat="47.36948" lon="-0.98311">
        <ele>9</ele>
        <time>2021-03-24T21:36:12Z</time>
      </trkpt>
      <trkpt lat="47.3693" lon="-0.98421">
        <ele>9</ele>
        <time>2021-03-24T21:36:26Z</time>
      </trkpt>
      <trkpt lat="47.36907" lon="-0.98523">
        <ele>10</ele>
        <time>2021-03-24T21:36:39Z</time>
      </trkpt>
      <trkpt lat="47.36872" lon="-0.98657">
        <ele>9</ele>
        <time>2021-03-24T21:36:56Z</time>
      </trkpt>
      <trkpt lat="47.36637" lon="-0.99473">
        <ele>10</ele>
        <time>2021-03-24T21:38:43Z</time>
      </trkpt>
      <trkpt lat="47.36622" lon="-0.9952">
        <ele>10</ele>
        <time>2021-03-24T21:38:49Z</time>
      </trkpt>
      <trkpt lat="47.36604" lon="-0.99588">
        <ele>10</ele>
        <time>2021-03-24T21:38:58Z</time>
      </trkpt>
      <trkpt lat="47.36542" lon="-0.99804">
        <ele>8</ele>
        <time>2021-03-24T21:39:27Z</time>
      </trkpt>
      <trkpt lat="47.3651" lon="-0.99902">
        <ele>9</ele>
        <time>2021-03-24T21:39:40Z</time>
      </trkpt>
      <trkpt lat="47.36494" lon="-0.99946">
        <ele>10</ele>
        <time>2021-03-24T21:39:46Z</time>
      </trkpt>
      <trkpt lat="47.3645" lon="-1.00055">
        <ele>10</ele>
        <time>2021-03-24T21:40:01Z</time>
      </trkpt>
      <trkpt lat="47.36355" lon="-1.00276">
        <ele>11</ele>
        <time>2021-03-24T21:40:32Z</time>
      </trkpt>
      <trkpt lat="47.36305" lon="-1.00396">
        <ele>14</ele>
        <time>2021-03-24T21:40:49Z</time>
      </trkpt>
      <trkpt lat="47.3629" lon="-1.00436">
        <ele>15</ele>
        <time>2021-03-24T21:40:55Z</time>
      </trkpt>
      <trkpt lat="47.36284" lon="-1.00468">
        <ele>15</ele>
        <time>2021-03-24T21:40:59Z</time>
      </trkpt>
      <trkpt lat="47.36272" lon="-1.00511">
        <ele>16</ele>
        <time>2021-03-24T21:41:05Z</time>
      </trkpt>
      <trkpt lat="47.3626" lon="-1.00537">
        <ele>17</ele>
        <time>2021-03-24T21:41:08Z</time>
      </trkpt>
      <trkpt lat="47.36245" lon="-1.00558">
        <ele>19</ele>
        <time>2021-03-24T21:41:12Z</time>
      </trkpt>
      <trkpt lat="47.3622" lon="-1.00582">
        <ele>20</ele>
        <time>2021-03-24T21:41:17Z</time>
      </trkpt>
      <trkpt lat="47.36186" lon="-1.00606">
        <ele>22</ele>
        <time>2021-03-24T21:41:24Z</time>
      </trkpt>
      <trkpt lat="47.36112" lon="-1.00641">
        <ele>22</ele>
        <time>2021-03-24T21:41:38Z</time>
      </trkpt>
      <trkpt lat="47.36075" lon="-1.00656">
        <ele>21</ele>
        <time>2021-03-24T21:41:45Z</time>
      </trkpt>
      <trkpt lat="47.36057" lon="-1.00669">
        <ele>20</ele>
        <time>2021-03-24T21:41:48Z</time>
      </trkpt>
      <trkpt lat="47.36061" lon="-1.00701">
        <ele>21</ele>
        <time>2021-03-24T21:41:52Z</time>
      </trkpt>
      <trkpt lat="47.36063" lon="-1.00753">
        <ele>21</ele>
        <time>2021-03-24T21:41:58Z</time>
      </trkpt>
      <trkpt lat="47.36062" lon="-1.00786">
        <ele>21</ele>
        <time>2021-03-24T21:42:02Z</time>
      </trkpt>
      <trkpt lat="47.36054" lon="-1.00869">
        <ele>21</ele>
        <time>2021-03-24T21:42:13Z</time>
      </trkpt>
      <trkpt lat="47.36053" lon="-1.00893">
        <ele>21</ele>
        <time>2021-03-24T21:42:15Z</time>
      </trkpt>
      <trkpt lat="47.36055" lon="-1.00917">
        <ele>21</ele>
        <time>2021-03-24T21:42:18Z</time>
      </trkpt>
      <trkpt lat="47.3606" lon="-1.00957">
        <ele>22</ele>
        <time>2021-03-24T21:42:23Z</time>
      </trkpt>
      <trkpt lat="47.36116" lon="-1.01243">
        <ele>22</ele>
        <time>2021-03-24T21:42:59Z</time>
      </trkpt>
      <trkpt lat="47.36121" lon="-1.01275">
        <ele>22</ele>
        <time>2021-03-24T21:43:03Z</time>
      </trkpt>
      <trkpt lat="47.36125" lon="-1.01319">
        <ele>22</ele>
        <time>2021-03-24T21:43:08Z</time>
      </trkpt>
      <trkpt lat="47.3614" lon="-1.01439">
        <ele>24</ele>
        <time>2021-03-24T21:43:23Z</time>
      </trkpt>
      <trkpt lat="47.36151" lon="-1.01549">
        <ele>25</ele>
        <time>2021-03-24T21:43:37Z</time>
      </trkpt>
      <trkpt lat="47.36153" lon="-1.01582">
        <ele>25</ele>
        <time>2021-03-24T21:43:41Z</time>
      </trkpt>
      <trkpt lat="47.36115" lon="-1.01604">
        <ele>25</ele>
        <time>2021-03-24T21:43:48Z</time>
      </trkpt>
      <trkpt lat="47.36106" lon="-1.01617">
        <ele>25</ele>
        <time>2021-03-24T21:43:50Z</time>
      </trkpt>
      <trkpt lat="47.36101" lon="-1.01631">
        <ele>26</ele>
        <time>2021-03-24T21:43:52Z</time>
      </trkpt>
      <trkpt lat="47.36017" lon="-1.01998">
        <ele>27</ele>
        <time>2021-03-24T21:44:39Z</time>
      </trkpt>
      <trkpt lat="47.36014" lon="-1.02042">
        <ele>28</ele>
        <time>2021-03-24T21:44:44Z</time>
      </trkpt>
      <trkpt lat="47.36051" lon="-1.02421">
        <ele>32</ele>
        <time>2021-03-24T21:45:30Z</time>
      </trkpt>
      <trkpt lat="47.36057" lon="-1.0245">
        <ele>31</ele>
        <time>2021-03-24T21:45:34Z</time>
      </trkpt>
      <trkpt lat="47.36061" lon="-1.02508">
        <ele>30</ele>
        <time>2021-03-24T21:45:41Z</time>
      </trkpt>
      <trkpt lat="47.36135" lon="-1.03246">
        <ele>12</ele>
        <time>2021-03-24T21:47:11Z</time>
      </trkpt>
      <trkpt lat="47.36139" lon="-1.03301">
        <ele>12</ele>
        <time>2021-03-24T21:47:17Z</time>
      </trkpt>
      <trkpt lat="47.3614" lon="-1.03353">
        <ele>12</ele>
        <time>2021-03-24T21:47:24Z</time>
      </trkpt>
      <trkpt lat="47.36138" lon="-1.03396">
        <ele>12</ele>
        <time>2021-03-24T21:47:29Z</time>
      </trkpt>
      <trkpt lat="47.36135" lon="-1.03414">
        <ele>12</ele>
        <time>2021-03-24T21:47:31Z</time>
      </trkpt>
      <trkpt lat="47.36131" lon="-1.03437">
        <ele>12</ele>
        <time>2021-03-24T21:47:34Z</time>
      </trkpt>
      <trkpt lat="47.36114" lon="-1.03509">
        <ele>12</ele>
        <time>2021-03-24T21:47:43Z</time>
      </trkpt>
      <trkpt lat="47.36114" lon="-1.03528">
        <ele>12</ele>
        <time>2021-03-24T21:47:45Z</time>
      </trkpt>
      <trkpt lat="47.36107" lon="-1.0354">
        <ele>12</ele>
        <time>2021-03-24T21:47:47Z</time>
      </trkpt>
      <trkpt lat="47.36098" lon="-1.03572">
        <ele>13</ele>
        <time>2021-03-24T21:47:52Z</time>
      </trkpt>
      <trkpt lat="47.36057" lon="-1.03731">
        <ele>10</ele>
        <time>2021-03-24T21:48:12Z</time>
      </trkpt>
      <trkpt lat="47.36061" lon="-1.03735">
        <ele>10</ele>
        <time>2021-03-24T21:48:13Z</time>
      </trkpt>
      <trkpt lat="47.36061" lon="-1.0374">
        <ele>10</ele>
        <time>2021-03-24T21:48:14Z</time>
      </trkpt>
      <trkpt lat="47.36033" lon="-1.03857">
        <ele>12</ele>
        <time>2021-03-24T21:48:28Z</time>
      </trkpt>
      <trkpt lat="47.36026" lon="-1.03894">
        <ele>12</ele>
        <time>2021-03-24T21:48:33Z</time>
      </trkpt>
      <trkpt lat="47.36029" lon="-1.03902">
        <ele>12</ele>
        <time>2021-03-24T21:48:34Z</time>
      </trkpt>
      <trkpt lat="47.36047" lon="-1.03923">
        <ele>11</ele>
        <time>2021-03-24T21:48:38Z</time>
      </trkpt>
      <trkpt lat="47.36071" lon="-1.03889">
        <ele>10</ele>
        <time>2021-03-24T21:48:44Z</time>
      </trkpt>
      <trkpt lat="47.36079" lon="-1.03881">
        <ele>10</ele>
        <time>2021-03-24T21:48:46Z</time>
      </trkpt>
      <trkpt lat="47.36093" lon="-1.03874">
        <ele>10</ele>
        <time>2021-03-24T21:48:49Z</time>
      </trkpt>
      <trkpt lat="47.36096" lon="-1.03878">
        <ele>10</ele>
        <time>2021-03-24T21:48:49Z</time>
      </trkpt>
      <trkpt lat="47.36122" lon="-1.04085">
        <ele>9</ele>
        <time>2021-03-24T21:49:15Z</time>
      </trkpt>
      <trkpt lat="47.36138" lon="-1.04175">
        <ele>8</ele>
        <time>2021-03-24T21:49:26Z</time>
      </trkpt>
      <trkpt lat="47.36146" lon="-1.04265">
        <ele>9</ele>
        <time>2021-03-24T21:49:37Z</time>
      </trkpt>
      <trkpt lat="47.36152" lon="-1.04309">
        <ele>9</ele>
        <time>2021-03-24T21:49:42Z</time>
      </trkpt>
      <trkpt lat="47.3616" lon="-1.04514">
        <ele>9</ele>
        <time>2021-03-24T21:50:07Z</time>
      </trkpt>
      <trkpt lat="47.3616" lon="-1.04565">
        <ele>9</ele>
        <time>2021-03-24T21:50:13Z</time>
      </trkpt>
      <trkpt lat="47.3615" lon="-1.04792">
        <ele>9</ele>
        <time>2021-03-24T21:50:41Z</time>
      </trkpt>
      <trkpt lat="47.36147" lon="-1.04807">
        <ele>9</ele>
        <time>2021-03-24T21:50:42Z</time>
      </trkpt>
      <trkpt lat="47.36143" lon="-1.04813">
        <ele>9</ele>
        <time>2021-03-24T21:50:43Z</time>
      </trkpt>
      <trkpt lat="47.36137" lon="-1.04817">
        <ele>10</ele>
        <time>2021-03-24T21:50:45Z</time>
      </trkpt>
      <trkpt lat="47.36107" lon="-1.04825">
        <ele>10</ele>
        <time>2021-03-24T21:50:50Z</time>
      </trkpt>
      <trkpt lat="47.36101" lon="-1.0483">
        <ele>10</ele>
        <time>2021-03-24T21:50:51Z</time>
      </trkpt>
      <trkpt lat="47.36097" lon="-1.04838">
        <ele>11</ele>
        <time>2021-03-24T21:50:52Z</time>
      </trkpt>
      <trkpt lat="47.36094" lon="-1.0485">
        <ele>11</ele>
        <time>2021-03-24T21:50:54Z</time>
      </trkpt>
      <trkpt lat="47.36089" lon="-1.05051">
        <ele>10</ele>
        <time>2021-03-24T21:51:18Z</time>
      </trkpt>
      <trkpt lat="47.36091" lon="-1.05128">
        <ele>10</ele>
        <time>2021-03-24T21:51:27Z</time>
      </trkpt>
      <trkpt lat="47.3609" lon="-1.0523">
        <ele>11</ele>
        <time>2021-03-24T21:51:40Z</time>
      </trkpt>
      <trkpt lat="47.36086" lon="-1.0539">
        <ele>10</ele>
        <time>2021-03-24T21:51:59Z</time>
      </trkpt>
      <trkpt lat="47.36089" lon="-1.05472">
        <ele>9</ele>
        <time>2021-03-24T21:52:09Z</time>
      </trkpt>
      <trkpt lat="47.36087" lon="-1.05595">
        <ele>8</ele>
        <time>2021-03-24T21:52:24Z</time>
      </trkpt>
      <trkpt lat="47.361" lon="-1.05899">
        <ele>10</ele>
        <time>2021-03-24T21:53:01Z</time>
      </trkpt>
      <trkpt lat="47.36101" lon="-1.06081">
        <ele>11</ele>
        <time>2021-03-24T21:53:22Z</time>
      </trkpt>
      <trkpt lat="47.36096" lon="-1.06279">
        <ele>10</ele>
        <time>2021-03-24T21:53:46Z</time>
      </trkpt>
      <trkpt lat="47.36099" lon="-1.06316">
        <ele>10</ele>
        <time>2021-03-24T21:53:51Z</time>
      </trkpt>
      <trkpt lat="47.36105" lon="-1.06349">
        <ele>10</ele>
        <time>2021-03-24T21:53:55Z</time>
      </trkpt>
      <trkpt lat="47.36119" lon="-1.06396">
        <ele>10</ele>
        <time>2021-03-24T21:54:01Z</time>
      </trkpt>
      <trkpt lat="47.36124" lon="-1.06423">
        <ele>11</ele>
        <time>2021-03-24T21:54:05Z</time>
      </trkpt>
      <trkpt lat="47.36128" lon="-1.06476">
        <ele>10</ele>
        <time>2021-03-24T21:54:11Z</time>
      </trkpt>
      <trkpt lat="47.36275" lon="-1.0648">
        <ele>8</ele>
        <time>2021-03-24T21:54:37Z</time>
      </trkpt>
      <trkpt lat="47.36294" lon="-1.06485">
        <ele>8</ele>
        <time>2021-03-24T21:54:41Z</time>
      </trkpt>
      <trkpt lat="47.36358" lon="-1.06547">
        <ele>8</ele>
        <time>2021-03-24T21:54:54Z</time>
      </trkpt>
      <trkpt lat="47.36457" lon="-1.0661">
        <ele>9</ele>
        <time>2021-03-24T21:55:13Z</time>
      </trkpt>
      <trkpt lat="47.36462" lon="-1.06616">
        <ele>8</ele>
        <time>2021-03-24T21:55:14Z</time>
      </trkpt>
      <trkpt lat="47.3646" lon="-1.06629">
        <ele>8</ele>
        <time>2021-03-24T21:55:16Z</time>
      </trkpt>
      <trkpt lat="47.36439" lon="-1.067">
        <ele>8</ele>
        <time>2021-03-24T21:55:25Z</time>
      </trkpt>
      <trkpt lat="47.36434" lon="-1.06726">
        <ele>8</ele>
        <time>2021-03-24T21:55:29Z</time>
      </trkpt>
      <trkpt lat="47.3642" lon="-1.06855">
        <ele>8</ele>
        <time>2021-03-24T21:55:44Z</time>
      </trkpt>
      <trkpt lat="47.36418" lon="-1.06881">
        <ele>9</ele>
        <time>2021-03-24T21:55:48Z</time>
      </trkpt>
      <trkpt lat="47.3642" lon="-1.06935">
        <ele>9</ele>
        <time>2021-03-24T21:55:54Z</time>
      </trkpt>
      <trkpt lat="47.36426" lon="-1.07007">
        <ele>9</ele>
        <time>2021-03-24T21:56:03Z</time>
      </trkpt>
      <trkpt lat="47.36434" lon="-1.07049">
        <ele>10</ele>
        <time>2021-03-24T21:56:08Z</time>
      </trkpt>
      <trkpt lat="47.36436" lon="-1.07069">
        <ele>11</ele>
        <time>2021-03-24T21:56:11Z</time>
      </trkpt>
      <trkpt lat="47.36436" lon="-1.0709">
        <ele>11</ele>
        <time>2021-03-24T21:56:13Z</time>
      </trkpt>
      <trkpt lat="47.36431" lon="-1.07135">
        <ele>10</ele>
        <time>2021-03-24T21:56:19Z</time>
      </trkpt>
      <trkpt lat="47.36424" lon="-1.07161">
        <ele>9</ele>
        <time>2021-03-24T21:56:22Z</time>
      </trkpt>
      <trkpt lat="47.36408" lon="-1.07201">
        <ele>9</ele>
        <time>2021-03-24T21:56:28Z</time>
      </trkpt>
      <trkpt lat="47.36364" lon="-1.07266">
        <ele>10</ele>
        <time>2021-03-24T21:56:39Z</time>
      </trkpt>
      <trkpt lat="47.36335" lon="-1.07313">
        <ele>9</ele>
        <time>2021-03-24T21:56:46Z</time>
      </trkpt>
      <trkpt lat="47.36306" lon="-1.07372">
        <ele>10</ele>
        <time>2021-03-24T21:56:55Z</time>
      </trkpt>
      <trkpt lat="47.36298" lon="-1.07393">
        <ele>10</ele>
        <time>2021-03-24T21:56:58Z</time>
      </trkpt>
      <trkpt lat="47.36293" lon="-1.07412">
        <ele>10</ele>
        <time>2021-03-24T21:57:00Z</time>
      </trkpt>
      <trkpt lat="47.36277" lon="-1.07503">
        <ele>10</ele>
        <time>2021-03-24T21:57:12Z</time>
      </trkpt>
      <trkpt lat="47.36267" lon="-1.07579">
        <ele>10</ele>
        <time>2021-03-24T21:57:21Z</time>
      </trkpt>
      <trkpt lat="47.36256" lon="-1.07642">
        <ele>9</ele>
        <time>2021-03-24T21:57:29Z</time>
      </trkpt>
      <trkpt lat="47.36255" lon="-1.0766">
        <ele>9</ele>
        <time>2021-03-24T21:57:31Z</time>
      </trkpt>
      <trkpt lat="47.36257" lon="-1.07783">
        <ele>9</ele>
        <time>2021-03-24T21:57:46Z</time>
      </trkpt>
      <trkpt lat="47.36261" lon="-1.07806">
        <ele>9</ele>
        <time>2021-03-24T21:57:49Z</time>
      </trkpt>
      <trkpt lat="47.36265" lon="-1.07823">
        <ele>9</ele>
        <time>2021-03-24T21:57:51Z</time>
      </trkpt>
      <trkpt lat="47.36275" lon="-1.07846">
        <ele>9</ele>
        <time>2021-03-24T21:57:54Z</time>
      </trkpt>
      <trkpt lat="47.36287" lon="-1.07884">
        <ele>9</ele>
        <time>2021-03-24T21:57:59Z</time>
      </trkpt>
      <trkpt lat="47.36295" lon="-1.07925">
        <ele>9</ele>
        <time>2021-03-24T21:58:04Z</time>
      </trkpt>
      <trkpt lat="47.36302" lon="-1.07968">
        <ele>9</ele>
        <time>2021-03-24T21:58:10Z</time>
      </trkpt>
      <trkpt lat="47.36306" lon="-1.08015">
        <ele>9</ele>
        <time>2021-03-24T21:58:15Z</time>
      </trkpt>
      <trkpt lat="47.36305" lon="-1.08059">
        <ele>8</ele>
        <time>2021-03-24T21:58:21Z</time>
      </trkpt>
      <trkpt lat="47.36299" lon="-1.08094">
        <ele>8</ele>
        <time>2021-03-24T21:58:25Z</time>
      </trkpt>
      <trkpt lat="47.36313" lon="-1.08123">
        <ele>8</ele>
        <time>2021-03-24T21:58:29Z</time>
      </trkpt>
      <trkpt lat="47.36352" lon="-1.08169">
        <ele>9</ele>
        <time>2021-03-24T21:58:38Z</time>
      </trkpt>
      <trkpt lat="47.36394" lon="-1.08235">
        <ele>9</ele>
        <time>2021-03-24T21:58:49Z</time>
      </trkpt>
      <trkpt lat="47.36414" lon="-1.08261">
        <ele>10</ele>
        <time>2021-03-24T21:58:54Z</time>
      </trkpt>
      <trkpt lat="47.36442" lon="-1.0831">
        <ele>10</ele>
        <time>2021-03-24T21:59:02Z</time>
      </trkpt>
      <trkpt lat="47.36448" lon="-1.08317">
        <ele>10</ele>
        <time>2021-03-24T21:59:03Z</time>
      </trkpt>
      <trkpt lat="47.36454" lon="-1.08323">
        <ele>10</ele>
        <time>2021-03-24T21:59:04Z</time>
      </trkpt>
      <trkpt lat="47.3646" lon="-1.08326">
        <ele>10</ele>
        <time>2021-03-24T21:59:05Z</time>
      </trkpt>
      <trkpt lat="47.365" lon="-1.08331">
        <ele>9</ele>
        <time>2021-03-24T21:59:13Z</time>
      </trkpt>
      <trkpt lat="47.36504" lon="-1.08336">
        <ele>9</ele>
        <time>2021-03-24T21:59:14Z</time>
      </trkpt>
      <trkpt lat="47.36507" lon="-1.08343">
        <ele>9</ele>
        <time>2021-03-24T21:59:15Z</time>
      </trkpt>
      <trkpt lat="47.36514" lon="-1.08395">
        <ele>8</ele>
        <time>2021-03-24T21:59:21Z</time>
      </trkpt>
      <trkpt lat="47.36527" lon="-1.08452">
        <ele>9</ele>
        <time>2021-03-24T21:59:28Z</time>
      </trkpt>
      <trkpt lat="47.36531" lon="-1.08475">
        <ele>9</ele>
        <time>2021-03-24T21:59:31Z</time>
      </trkpt>
      <trkpt lat="47.36534" lon="-1.08549">
        <ele>10</ele>
        <time>2021-03-24T21:59:40Z</time>
      </trkpt>
      <trkpt lat="47.36569" lon="-1.0871">
        <ele>8</ele>
        <time>2021-03-24T22:00:00Z</time>
      </trkpt>
      <trkpt lat="47.36573" lon="-1.08735">
        <ele>8</ele>
        <time>2021-03-24T22:00:03Z</time>
      </trkpt>
      <trkpt lat="47.36575" lon="-1.08759">
        <ele>8</ele>
        <time>2021-03-24T22:00:06Z</time>
      </trkpt>
      <trkpt lat="47.36573" lon="-1.08889">
        <ele>8</ele>
        <time>2021-03-24T22:00:22Z</time>
      </trkpt>
      <trkpt lat="47.36569" lon="-1.08959">
        <ele>9</ele>
        <time>2021-03-24T22:00:31Z</time>
      </trkpt>
      <trkpt lat="47.36572" lon="-1.08985">
        <ele>9</ele>
        <time>2021-03-24T22:00:34Z</time>
      </trkpt>
      <trkpt lat="47.36572" lon="-1.08997">
        <ele>9</ele>
        <time>2021-03-24T22:00:35Z</time>
      </trkpt>
      <trkpt lat="47.36571" lon="-1.09001">
        <ele>9</ele>
        <time>2021-03-24T22:00:36Z</time>
      </trkpt>
      <trkpt lat="47.36568" lon="-1.09004">
        <ele>9</ele>
        <time>2021-03-24T22:00:36Z</time>
      </trkpt>
      <trkpt lat="47.36527" lon="-1.08997">
        <ele>10</ele>
        <time>2021-03-24T22:00:44Z</time>
      </trkpt>
      <trkpt lat="47.3652" lon="-1.08999">
        <ele>10</ele>
        <time>2021-03-24T22:00:45Z</time>
      </trkpt>
      <trkpt lat="47.36513" lon="-1.09005">
        <ele>10</ele>
        <time>2021-03-24T22:00:46Z</time>
      </trkpt>
      <trkpt lat="47.36409" lon="-1.09119">
        <ele>7</ele>
        <time>2021-03-24T22:01:09Z</time>
      </trkpt>
      <trkpt lat="47.36394" lon="-1.09122">
        <ele>7</ele>
        <time>2021-03-24T22:01:12Z</time>
      </trkpt>
      <trkpt lat="47.36348" lon="-1.0911">
        <ele>8</ele>
        <time>2021-03-24T22:01:20Z</time>
      </trkpt>
      <trkpt lat="47.36342" lon="-1.09112">
        <ele>8</ele>
        <time>2021-03-24T22:01:21Z</time>
      </trkpt>
      <trkpt lat="47.3634" lon="-1.0912">
        <ele>8</ele>
        <time>2021-03-24T22:01:23Z</time>
      </trkpt>
      <trkpt lat="47.36355" lon="-1.0917">
        <ele>8</ele>
        <time>2021-03-24T22:01:29Z</time>
      </trkpt>
      <trkpt lat="47.3637" lon="-1.09251">
        <ele>9</ele>
        <time>2021-03-24T22:01:39Z</time>
      </trkpt>
      <trkpt lat="47.36381" lon="-1.09323">
        <ele>9</ele>
        <time>2021-03-24T22:01:48Z</time>
      </trkpt>
      <trkpt lat="47.36389" lon="-1.0939">
        <ele>9</ele>
        <time>2021-03-24T22:01:56Z</time>
      </trkpt>
      <trkpt lat="47.36399" lon="-1.0952">
        <ele>10</ele>
        <time>2021-03-24T22:02:12Z</time>
      </trkpt>
      <trkpt lat="47.36403" lon="-1.09555">
        <ele>10</ele>
        <time>2021-03-24T22:02:16Z</time>
      </trkpt>
      <trkpt lat="47.36409" lon="-1.0959">
        <ele>11</ele>
        <time>2021-03-24T22:02:21Z</time>
      </trkpt>
      <trkpt lat="47.36424" lon="-1.09662">
        <ele>11</ele>
        <time>2021-03-24T22:02:30Z</time>
      </trkpt>
      <trkpt lat="47.36431" lon="-1.09711">
        <ele>12</ele>
        <time>2021-03-24T22:02:36Z</time>
      </trkpt>
      <trkpt lat="47.36439" lon="-1.09784">
        <ele>11</ele>
        <time>2021-03-24T22:02:45Z</time>
      </trkpt>
      <trkpt lat="47.36445" lon="-1.09831">
        <ele>9</ele>
        <time>2021-03-24T22:02:51Z</time>
      </trkpt>
      <trkpt lat="47.36464" lon="-1.09921">
        <ele>9</ele>
        <time>2021-03-24T22:03:02Z</time>
      </trkpt>
      <trkpt lat="47.36475" lon="-1.0996">
        <ele>9</ele>
        <time>2021-03-24T22:03:07Z</time>
      </trkpt>
      <trkpt lat="47.3649" lon="-1.10027">
        <ele>8</ele>
        <time>2021-03-24T22:03:15Z</time>
      </trkpt>
      <trkpt lat="47.36506" lon="-1.10121">
        <ele>9</ele>
        <time>2021-03-24T22:03:27Z</time>
      </trkpt>
      <trkpt lat="47.36508" lon="-1.10145">
        <ele>9</ele>
        <time>2021-03-24T22:03:30Z</time>
      </trkpt>
      <trkpt lat="47.36508" lon="-1.10158">
        <ele>9</ele>
        <time>2021-03-24T22:03:32Z</time>
      </trkpt>
      <trkpt lat="47.365" lon="-1.10222">
        <ele>10</ele>
        <time>2021-03-24T22:03:39Z</time>
      </trkpt>
      <trkpt lat="47.36503" lon="-1.10225">
        <ele>10</ele>
        <time>2021-03-24T22:03:40Z</time>
      </trkpt>
      <trkpt lat="47.36511" lon="-1.10241">
        <ele>10</ele>
        <time>2021-03-24T22:03:43Z</time>
      </trkpt>
      <trkpt lat="47.36514" lon="-1.10264">
        <ele>10</ele>
        <time>2021-03-24T22:03:45Z</time>
      </trkpt>
      <trkpt lat="47.36516" lon="-1.10284">
        <ele>9</ele>
        <time>2021-03-24T22:03:48Z</time>
      </trkpt>
      <trkpt lat="47.36523" lon="-1.1043">
        <ele>9</ele>
        <time>2021-03-24T22:04:05Z</time>
      </trkpt>
      <trkpt lat="47.36523" lon="-1.10556">
        <ele>10</ele>
        <time>2021-03-24T22:04:21Z</time>
      </trkpt>
      <trkpt lat="47.36532" lon="-1.10679">
        <ele>10</ele>
        <time>2021-03-24T22:04:36Z</time>
      </trkpt>
      <trkpt lat="47.36538" lon="-1.10839">
        <ele>11</ele>
        <time>2021-03-24T22:04:55Z</time>
      </trkpt>
      <trkpt lat="47.3654" lon="-1.10883">
        <ele>11</ele>
        <time>2021-03-24T22:05:00Z</time>
      </trkpt>
      <trkpt lat="47.36559" lon="-1.11048">
        <ele>11</ele>
        <time>2021-03-24T22:05:20Z</time>
      </trkpt>
      <trkpt lat="47.3656" lon="-1.11138">
        <ele>11</ele>
        <time>2021-03-24T22:05:31Z</time>
      </trkpt>
      <trkpt lat="47.36572" lon="-1.11323">
        <ele>10</ele>
        <time>2021-03-24T22:05:54Z</time>
      </trkpt>
      <trkpt lat="47.36569" lon="-1.11418">
        <ele>11</ele>
        <time>2021-03-24T22:06:05Z</time>
      </trkpt>
      <trkpt lat="47.3657" lon="-1.11487">
        <ele>10</ele>
        <time>2021-03-24T22:06:13Z</time>
      </trkpt>
      <trkpt lat="47.36583" lon="-1.11649">
        <ele>10</ele>
        <time>2021-03-24T22:06:33Z</time>
      </trkpt>
      <trkpt lat="47.36593" lon="-1.11806">
        <ele>11</ele>
        <time>2021-03-24T22:06:52Z</time>
      </trkpt>
      <trkpt lat="47.36599" lon="-1.11867">
        <ele>10</ele>
        <time>2021-03-24T22:06:59Z</time>
      </trkpt>
      <trkpt lat="47.36597" lon="-1.11909">
        <ele>10</ele>
        <time>2021-03-24T22:07:04Z</time>
      </trkpt>
      <trkpt lat="47.36594" lon="-1.11918">
        <ele>10</ele>
        <time>2021-03-24T22:07:06Z</time>
      </trkpt>
      <trkpt lat="47.36583" lon="-1.11904">
        <ele>10</ele>
        <time>2021-03-24T22:07:08Z</time>
      </trkpt>
      <trkpt lat="47.36566" lon="-1.11893">
        <ele>10</ele>
        <time>2021-03-24T22:07:12Z</time>
      </trkpt>
      <trkpt lat="47.36539" lon="-1.1188">
        <ele>10</ele>
        <time>2021-03-24T22:07:17Z</time>
      </trkpt>
      <trkpt lat="47.36476" lon="-1.11873">
        <ele>10</ele>
        <time>2021-03-24T22:07:28Z</time>
      </trkpt>
      <trkpt lat="47.36403" lon="-1.11844">
        <ele>11</ele>
        <time>2021-03-24T22:07:41Z</time>
      </trkpt>
      <trkpt lat="47.36364" lon="-1.11833">
        <ele>10</ele>
        <time>2021-03-24T22:07:48Z</time>
      </trkpt>
      <trkpt lat="47.36248" lon="-1.1182">
        <ele>9</ele>
        <time>2021-03-24T22:08:09Z</time>
      </trkpt>
      <trkpt lat="47.362" lon="-1.11818">
        <ele>11</ele>
        <time>2021-03-24T22:08:18Z</time>
      </trkpt>
      <trkpt lat="47.36157" lon="-1.11832">
        <ele>12</ele>
        <time>2021-03-24T22:08:25Z</time>
      </trkpt>
      <trkpt lat="47.36093" lon="-1.11834">
        <ele>8</ele>
        <time>2021-03-24T22:08:37Z</time>
      </trkpt>
      <trkpt lat="47.36082" lon="-1.11836">
        <ele>8</ele>
        <time>2021-03-24T22:08:39Z</time>
      </trkpt>
      <trkpt lat="47.36061" lon="-1.11843">
        <ele>8</ele>
        <time>2021-03-24T22:08:43Z</time>
      </trkpt>
      <trkpt lat="47.36009" lon="-1.11848">
        <ele>8</ele>
        <time>2021-03-24T22:08:52Z</time>
      </trkpt>
      <trkpt lat="47.35941" lon="-1.11847">
        <ele>10</ele>
        <time>2021-03-24T22:09:04Z</time>
      </trkpt>
      <trkpt lat="47.35864" lon="-1.11844">
        <ele>9</ele>
        <time>2021-03-24T22:09:18Z</time>
      </trkpt>
      <trkpt lat="47.35801" lon="-1.11836">
        <ele>9</ele>
        <time>2021-03-24T22:09:29Z</time>
      </trkpt>
      <trkpt lat="47.35793" lon="-1.11889">
        <ele>10</ele>
        <time>2021-03-24T22:09:36Z</time>
      </trkpt>
      <trkpt lat="47.35762" lon="-1.12115">
        <ele>7</ele>
        <time>2021-03-24T22:10:03Z</time>
      </trkpt>
      <trkpt lat="47.35761" lon="-1.12131">
        <ele>7</ele>
        <time>2021-03-24T22:10:05Z</time>
      </trkpt>
      <trkpt lat="47.35762" lon="-1.1216">
        <ele>7</ele>
        <time>2021-03-24T22:10:09Z</time>
      </trkpt>
      <trkpt lat="47.35798" lon="-1.12255">
        <ele>9</ele>
        <time>2021-03-24T22:10:22Z</time>
      </trkpt>
      <trkpt lat="47.35802" lon="-1.12277">
        <ele>9</ele>
        <time>2021-03-24T22:10:25Z</time>
      </trkpt>
      <trkpt lat="47.35797" lon="-1.12293">
        <ele>9</ele>
        <time>2021-03-24T22:10:27Z</time>
      </trkpt>
      <trkpt lat="47.35737" lon="-1.12377">
        <ele>9</ele>
        <time>2021-03-24T22:10:41Z</time>
      </trkpt>
      <trkpt lat="47.35726" lon="-1.12405">
        <ele>10</ele>
        <time>2021-03-24T22:10:45Z</time>
      </trkpt>
      <trkpt lat="47.35715" lon="-1.12441">
        <ele>9</ele>
        <time>2021-03-24T22:10:50Z</time>
      </trkpt>
      <trkpt lat="47.357" lon="-1.12436">
        <ele>10</ele>
        <time>2021-03-24T22:10:53Z</time>
      </trkpt>
      <trkpt lat="47.35696" lon="-1.12439">
        <ele>10</ele>
        <time>2021-03-24T22:10:54Z</time>
      </trkpt>
      <trkpt lat="47.35688" lon="-1.12452">
        <ele>10</ele>
        <time>2021-03-24T22:10:56Z</time>
      </trkpt>
      <trkpt lat="47.35665" lon="-1.12509">
        <ele>9</ele>
        <time>2021-03-24T22:11:04Z</time>
      </trkpt>
      <trkpt lat="47.35655" lon="-1.12539">
        <ele>9</ele>
        <time>2021-03-24T22:11:08Z</time>
      </trkpt>
      <trkpt lat="47.35642" lon="-1.12583">
        <ele>10</ele>
        <time>2021-03-24T22:11:14Z</time>
      </trkpt>
      <trkpt lat="47.35627" lon="-1.12657">
        <ele>8</ele>
        <time>2021-03-24T22:11:23Z</time>
      </trkpt>
      <trkpt lat="47.35611" lon="-1.12754">
        <ele>8</ele>
        <time>2021-03-24T22:11:35Z</time>
      </trkpt>
      <trkpt lat="47.35611" lon="-1.12762">
        <ele>9</ele>
        <time>2021-03-24T22:11:36Z</time>
      </trkpt>
      <trkpt lat="47.35614" lon="-1.12778">
        <ele>9</ele>
        <time>2021-03-24T22:11:38Z</time>
      </trkpt>
      <trkpt lat="47.3563" lon="-1.12813">
        <ele>9</ele>
        <time>2021-03-24T22:11:43Z</time>
      </trkpt>
      <trkpt lat="47.3563" lon="-1.12824">
        <ele>9</ele>
        <time>2021-03-24T22:11:44Z</time>
      </trkpt>
      <trkpt lat="47.35613" lon="-1.12881">
        <ele>9</ele>
        <time>2021-03-24T22:11:52Z</time>
      </trkpt>
      <trkpt lat="47.356" lon="-1.12946">
        <ele>9</ele>
        <time>2021-03-24T22:12:00Z</time>
      </trkpt>
      <trkpt lat="47.35587" lon="-1.12981">
        <ele>9</ele>
        <time>2021-03-24T22:12:05Z</time>
      </trkpt>
      <trkpt lat="47.35572" lon="-1.13053">
        <ele>9</ele>
        <time>2021-03-24T22:12:14Z</time>
      </trkpt>
      <trkpt lat="47.35559" lon="-1.13096">
        <ele>9</ele>
        <time>2021-03-24T22:12:20Z</time>
      </trkpt>
      <trkpt lat="47.3555" lon="-1.13138">
        <ele>10</ele>
        <time>2021-03-24T22:12:25Z</time>
      </trkpt>
      <trkpt lat="47.35536" lon="-1.13185">
        <ele>10</ele>
        <time>2021-03-24T22:12:31Z</time>
      </trkpt>
      <trkpt lat="47.35509" lon="-1.13307">
        <ele>9</ele>
        <time>2021-03-24T22:12:47Z</time>
      </trkpt>
      <trkpt lat="47.35489" lon="-1.13362">
        <ele>9</ele>
        <time>2021-03-24T22:12:54Z</time>
      </trkpt>
      <trkpt lat="47.35461" lon="-1.13426">
        <ele>9</ele>
        <time>2021-03-24T22:13:03Z</time>
      </trkpt>
      <trkpt lat="47.35439" lon="-1.13492">
        <ele>9</ele>
        <time>2021-03-24T22:13:12Z</time>
      </trkpt>
      <trkpt lat="47.35431" lon="-1.13506">
        <ele>9</ele>
        <time>2021-03-24T22:13:14Z</time>
      </trkpt>
      <trkpt lat="47.35425" lon="-1.13508">
        <ele>9</ele>
        <time>2021-03-24T22:13:15Z</time>
      </trkpt>
      <trkpt lat="47.35418" lon="-1.13514">
        <ele>9</ele>
        <time>2021-03-24T22:13:17Z</time>
      </trkpt>
      <trkpt lat="47.3539" lon="-1.13557">
        <ele>8</ele>
        <time>2021-03-24T22:13:24Z</time>
      </trkpt>
      <trkpt lat="47.35374" lon="-1.13592">
        <ele>7</ele>
        <time>2021-03-24T22:13:29Z</time>
      </trkpt>
      <trkpt lat="47.35362" lon="-1.13632">
        <ele>7</ele>
        <time>2021-03-24T22:13:34Z</time>
      </trkpt>
      <trkpt lat="47.35354" lon="-1.13674">
        <ele>7</ele>
        <time>2021-03-24T22:13:40Z</time>
      </trkpt>
      <trkpt lat="47.3534" lon="-1.13773">
        <ele>7</ele>
        <time>2021-03-24T22:13:52Z</time>
      </trkpt>
      <trkpt lat="47.35335" lon="-1.13844">
        <ele>8</ele>
        <time>2021-03-24T22:14:00Z</time>
      </trkpt>
      <trkpt lat="47.3533" lon="-1.13871">
        <ele>8</ele>
        <time>2021-03-24T22:14:04Z</time>
      </trkpt>
      <trkpt lat="47.35312" lon="-1.13951">
        <ele>8</ele>
        <time>2021-03-24T22:14:14Z</time>
      </trkpt>
      <trkpt lat="47.35287" lon="-1.14029">
        <ele>8</ele>
        <time>2021-03-24T22:14:24Z</time>
      </trkpt>
      <trkpt lat="47.35255" lon="-1.14148">
        <ele>8</ele>
        <time>2021-03-24T22:14:40Z</time>
      </trkpt>
      <trkpt lat="47.35251" lon="-1.1419">
        <ele>8</ele>
        <time>2021-03-24T22:14:45Z</time>
      </trkpt>
      <trkpt lat="47.35248" lon="-1.1427">
        <ele>7</ele>
        <time>2021-03-24T22:14:55Z</time>
      </trkpt>
      <trkpt lat="47.35241" lon="-1.14347">
        <ele>7</ele>
        <time>2021-03-24T22:15:04Z</time>
      </trkpt>
      <trkpt lat="47.35243" lon="-1.14362">
        <ele>7</ele>
        <time>2021-03-24T22:15:06Z</time>
      </trkpt>
      <trkpt lat="47.35253" lon="-1.14381">
        <ele>8</ele>
        <time>2021-03-24T22:15:09Z</time>
      </trkpt>
      <trkpt lat="47.35261" lon="-1.14411">
        <ele>8</ele>
        <time>2021-03-24T22:15:13Z</time>
      </trkpt>
      <trkpt lat="47.35266" lon="-1.14445">
        <ele>8</ele>
        <time>2021-03-24T22:15:17Z</time>
      </trkpt>
      <trkpt lat="47.35266" lon="-1.1447">
        <ele>7</ele>
        <time>2021-03-24T22:15:20Z</time>
      </trkpt>
      <trkpt lat="47.35256" lon="-1.14551">
        <ele>8</ele>
        <time>2021-03-24T22:15:30Z</time>
      </trkpt>
      <trkpt lat="47.35251" lon="-1.14573">
        <ele>9</ele>
        <time>2021-03-24T22:15:33Z</time>
      </trkpt>
      <trkpt lat="47.35246" lon="-1.14588">
        <ele>9</ele>
        <time>2021-03-24T22:15:35Z</time>
      </trkpt>
      <trkpt lat="47.35222" lon="-1.14631">
        <ele>8</ele>
        <time>2021-03-24T22:15:41Z</time>
      </trkpt>
      <trkpt lat="47.35212" lon="-1.14653">
        <ele>8</ele>
        <time>2021-03-24T22:15:44Z</time>
      </trkpt>
      <trkpt lat="47.35194" lon="-1.14745">
        <ele>8</ele>
        <time>2021-03-24T22:15:56Z</time>
      </trkpt>
      <trkpt lat="47.35133" lon="-1.14715">
        <ele>8</ele>
        <time>2021-03-24T22:16:07Z</time>
      </trkpt>
      <trkpt lat="47.35061" lon="-1.1469">
        <ele>9</ele>
        <time>2021-03-24T22:16:21Z</time>
      </trkpt>
      <trkpt lat="47.35056" lon="-1.14701">
        <ele>10</ele>
        <time>2021-03-24T22:16:22Z</time>
      </trkpt>
      <trkpt lat="47.35041" lon="-1.14833">
        <ele>12</ele>
        <time>2021-03-24T22:16:38Z</time>
      </trkpt>
      <trkpt lat="47.35038" lon="-1.14849">
        <ele>12</ele>
        <time>2021-03-24T22:16:40Z</time>
      </trkpt>
      <trkpt lat="47.35033" lon="-1.14859">
        <ele>12</ele>
        <time>2021-03-24T22:16:42Z</time>
      </trkpt>
      <trkpt lat="47.35025" lon="-1.14866">
        <ele>12</ele>
        <time>2021-03-24T22:16:43Z</time>
      </trkpt>
      <trkpt lat="47.34929" lon="-1.14904">
        <ele>16</ele>
        <time>2021-03-24T22:17:01Z</time>
      </trkpt>
      <trkpt lat="47.3489" lon="-1.1491">
        <ele>17</ele>
        <time>2021-03-24T22:17:08Z</time>
      </trkpt>
      <trkpt lat="47.34853" lon="-1.1491">
        <ele>18</ele>
        <time>2021-03-24T22:17:15Z</time>
      </trkpt>
      <trkpt lat="47.34731" lon="-1.14887">
        <ele>20</ele>
        <time>2021-03-24T22:17:37Z</time>
      </trkpt>
      <trkpt lat="47.34715" lon="-1.14887">
        <ele>20</ele>
        <time>2021-03-24T22:17:39Z</time>
      </trkpt>
      <trkpt lat="47.34701" lon="-1.14891">
        <ele>20</ele>
        <time>2021-03-24T22:17:42Z</time>
      </trkpt>
      <trkpt lat="47.34637" lon="-1.14919">
        <ele>22</ele>
        <time>2021-03-24T22:17:54Z</time>
      </trkpt>
      <trkpt lat="47.34616" lon="-1.14925">
        <ele>22</ele>
        <time>2021-03-24T22:17:58Z</time>
      </trkpt>
      <trkpt lat="47.34574" lon="-1.14927">
        <ele>23</ele>
        <time>2021-03-24T22:18:05Z</time>
      </trkpt>
      <trkpt lat="47.34559" lon="-1.14925">
        <ele>23</ele>
        <time>2021-03-24T22:18:08Z</time>
      </trkpt>
      <trkpt lat="47.3456" lon="-1.14969">
        <ele>24</ele>
        <time>2021-03-24T22:18:13Z</time>
      </trkpt>
      <trkpt lat="47.34552" lon="-1.151">
        <ele>22</ele>
        <time>2021-03-24T22:18:29Z</time>
      </trkpt>
      <trkpt lat="47.34547" lon="-1.15131">
        <ele>22</ele>
        <time>2021-03-24T22:18:33Z</time>
      </trkpt>
      <trkpt lat="47.34538" lon="-1.15174">
        <ele>22</ele>
        <time>2021-03-24T22:18:38Z</time>
      </trkpt>
      <trkpt lat="47.3453" lon="-1.15198">
        <ele>22</ele>
        <time>2021-03-24T22:18:41Z</time>
      </trkpt>
      <trkpt lat="47.34505" lon="-1.1526">
        <ele>23</ele>
        <time>2021-03-24T22:18:50Z</time>
      </trkpt>
      <trkpt lat="47.34476" lon="-1.15348">
        <ele>25</ele>
        <time>2021-03-24T22:19:02Z</time>
      </trkpt>
      <trkpt lat="47.34474" lon="-1.1536">
        <ele>25</ele>
        <time>2021-03-24T22:19:03Z</time>
      </trkpt>
      <trkpt lat="47.34475" lon="-1.15374">
        <ele>24</ele>
        <time>2021-03-24T22:19:05Z</time>
      </trkpt>
      <trkpt lat="47.34477" lon="-1.1539">
        <ele>24</ele>
        <time>2021-03-24T22:19:07Z</time>
      </trkpt>
      <trkpt lat="47.34481" lon="-1.15406">
        <ele>24</ele>
        <time>2021-03-24T22:19:09Z</time>
      </trkpt>
      <trkpt lat="47.34527" lon="-1.15546">
        <ele>23</ele>
        <time>2021-03-24T22:19:28Z</time>
      </trkpt>
      <trkpt lat="47.34531" lon="-1.1557">
        <ele>22</ele>
        <time>2021-03-24T22:19:31Z</time>
      </trkpt>
      <trkpt lat="47.3453" lon="-1.15602">
        <ele>22</ele>
        <time>2021-03-24T22:19:35Z</time>
      </trkpt>
      <trkpt lat="47.34526" lon="-1.15639">
        <ele>21</ele>
        <time>2021-03-24T22:19:39Z</time>
      </trkpt>
      <trkpt lat="47.34526" lon="-1.15659">
        <ele>21</ele>
        <time>2021-03-24T22:19:42Z</time>
      </trkpt>
      <trkpt lat="47.34532" lon="-1.15711">
        <ele>20</ele>
        <time>2021-03-24T22:19:48Z</time>
      </trkpt>
      <trkpt lat="47.34528" lon="-1.15743">
        <ele>20</ele>
        <time>2021-03-24T22:19:52Z</time>
      </trkpt>
      <trkpt lat="47.34525" lon="-1.15749">
        <ele>20</ele>
        <time>2021-03-24T22:19:53Z</time>
      </trkpt>
      <trkpt lat="47.34518" lon="-1.15752">
        <ele>20</ele>
        <time>2021-03-24T22:19:54Z</time>
      </trkpt>
      <trkpt lat="47.34497" lon="-1.15773">
        <ele>20</ele>
        <time>2021-03-24T22:19:59Z</time>
      </trkpt>
      <trkpt lat="47.34511" lon="-1.15808">
        <ele>19</ele>
        <time>2021-03-24T22:20:04Z</time>
      </trkpt>
      <trkpt lat="47.34523" lon="-1.15855">
        <ele>18</ele>
        <time>2021-03-24T22:20:10Z</time>
      </trkpt>
      <trkpt lat="47.3453" lon="-1.15904">
        <ele>17</ele>
        <time>2021-03-24T22:20:16Z</time>
      </trkpt>
      <trkpt lat="47.34532" lon="-1.15949">
        <ele>15</ele>
        <time>2021-03-24T22:20:21Z</time>
      </trkpt>
      <trkpt lat="47.3453" lon="-1.15988">
        <ele>14</ele>
        <time>2021-03-24T22:20:26Z</time>
      </trkpt>
      <trkpt lat="47.34527" lon="-1.16018">
        <ele>12</ele>
        <time>2021-03-24T22:20:30Z</time>
      </trkpt>
      <trkpt lat="47.34507" lon="-1.16109">
        <ele>10</ele>
        <time>2021-03-24T22:20:41Z</time>
      </trkpt>
      <trkpt lat="47.34503" lon="-1.16123">
        <ele>10</ele>
        <time>2021-03-24T22:20:43Z</time>
      </trkpt>
      <trkpt lat="47.34473" lon="-1.16183">
        <ele>13</ele>
        <time>2021-03-24T22:20:52Z</time>
      </trkpt>
      <trkpt lat="47.34466" lon="-1.1621">
        <ele>15</ele>
        <time>2021-03-24T22:20:55Z</time>
      </trkpt>
      <trkpt lat="47.34464" lon="-1.1623">
        <ele>16</ele>
        <time>2021-03-24T22:20:58Z</time>
      </trkpt>
      <trkpt lat="47.34465" lon="-1.1628">
        <ele>19</ele>
        <time>2021-03-24T22:21:04Z</time>
      </trkpt>
      <trkpt lat="47.34468" lon="-1.16282">
        <ele>18</ele>
        <time>2021-03-24T22:21:04Z</time>
      </trkpt>
      <trkpt lat="47.3447" lon="-1.16287">
        <ele>18</ele>
        <time>2021-03-24T22:21:05Z</time>
      </trkpt>
      <trkpt lat="47.34469" lon="-1.16289">
        <ele>19</ele>
        <time>2021-03-24T22:21:05Z</time>
      </trkpt>
      <trkpt lat="47.34465" lon="-1.16296">
        <ele>19</ele>
        <time>2021-03-24T22:21:07Z</time>
      </trkpt>
      <trkpt lat="47.34468" lon="-1.16434">
        <ele>21</ele>
        <time>2021-03-24T22:21:23Z</time>
      </trkpt>
      <trkpt lat="47.34471" lon="-1.16476">
        <ele>20</ele>
        <time>2021-03-24T22:21:28Z</time>
      </trkpt>
      <trkpt lat="47.34512" lon="-1.1679">
        <ele>15</ele>
        <time>2021-03-24T22:22:07Z</time>
      </trkpt>
      <trkpt lat="47.34515" lon="-1.16835">
        <ele>14</ele>
        <time>2021-03-24T22:22:12Z</time>
      </trkpt>
      <trkpt lat="47.34516" lon="-1.16873">
        <ele>14</ele>
        <time>2021-03-24T22:22:17Z</time>
      </trkpt>
      <trkpt lat="47.34504" lon="-1.17502">
        <ele>14</ele>
        <time>2021-03-24T22:23:33Z</time>
      </trkpt>
      <trkpt lat="47.34481" lon="-1.18128">
        <ele>16</ele>
        <time>2021-03-24T22:24:48Z</time>
      </trkpt>
      <trkpt lat="47.34471" lon="-1.18356">
        <ele>13</ele>
        <time>2021-03-24T22:25:16Z</time>
      </trkpt>
      <trkpt lat="47.34474" lon="-1.18434">
        <ele>14</ele>
        <time>2021-03-24T22:25:25Z</time>
      </trkpt>
      <trkpt lat="47.34489" lon="-1.186">
        <ele>18</ele>
        <time>2021-03-24T22:25:45Z</time>
      </trkpt>
      <trkpt lat="47.34516" lon="-1.18931">
        <ele>15</ele>
        <time>2021-03-24T22:26:26Z</time>
      </trkpt>
      <trkpt lat="47.34518" lon="-1.19006">
        <ele>14</ele>
        <time>2021-03-24T22:26:35Z</time>
      </trkpt>
      <trkpt lat="47.34516" lon="-1.19061">
        <ele>13</ele>
        <time>2021-03-24T22:26:41Z</time>
      </trkpt>
      <trkpt lat="47.34495" lon="-1.19272">
        <ele>13</ele>
        <time>2021-03-24T22:27:07Z</time>
      </trkpt>
      <trkpt lat="47.34485" lon="-1.19403">
        <ele>16</ele>
        <time>2021-03-24T22:27:23Z</time>
      </trkpt>
      <trkpt lat="47.3447" lon="-1.19668">
        <ele>17</ele>
        <time>2021-03-24T22:27:55Z</time>
      </trkpt>
      <trkpt lat="47.3446" lon="-1.19841">
        <ele>15</ele>
        <time>2021-03-24T22:28:16Z</time>
      </trkpt>
      <trkpt lat="47.34451" lon="-1.19891">
        <ele>15</ele>
        <time>2021-03-24T22:28:22Z</time>
      </trkpt>
      <trkpt lat="47.3442" lon="-1.20024">
        <ele>14</ele>
        <time>2021-03-24T22:28:39Z</time>
      </trkpt>
      <trkpt lat="47.34417" lon="-1.2004">
        <ele>14</ele>
        <time>2021-03-24T22:28:41Z</time>
      </trkpt>
      <trkpt lat="47.34415" lon="-1.20075">
        <ele>14</ele>
        <time>2021-03-24T22:28:45Z</time>
      </trkpt>
      <trkpt lat="47.34415" lon="-1.20094">
        <ele>15</ele>
        <time>2021-03-24T22:28:48Z</time>
      </trkpt>
      <trkpt lat="47.34422" lon="-1.20187">
        <ele>16</ele>
        <time>2021-03-24T22:28:59Z</time>
      </trkpt>
      <trkpt lat="47.34423" lon="-1.20232">
        <ele>14</ele>
        <time>2021-03-24T22:29:04Z</time>
      </trkpt>
      <trkpt lat="47.3442" lon="-1.20276">
        <ele>13</ele>
        <time>2021-03-24T22:29:10Z</time>
      </trkpt>
      <trkpt lat="47.34403" lon="-1.20387">
        <ele>14</ele>
        <time>2021-03-24T22:29:23Z</time>
      </trkpt>
      <trkpt lat="47.34396" lon="-1.20419">
        <ele>15</ele>
        <time>2021-03-24T22:29:27Z</time>
      </trkpt>
      <trkpt lat="47.34389" lon="-1.20439">
        <ele>15</ele>
        <time>2021-03-24T22:29:30Z</time>
      </trkpt>
      <trkpt lat="47.34373" lon="-1.20473">
        <ele>16</ele>
        <time>2021-03-24T22:29:35Z</time>
      </trkpt>
      <trkpt lat="47.34322" lon="-1.20553">
        <ele>19</ele>
        <time>2021-03-24T22:29:48Z</time>
      </trkpt>
      <trkpt lat="47.34308" lon="-1.2058">
        <ele>20</ele>
        <time>2021-03-24T22:29:53Z</time>
      </trkpt>
      <trkpt lat="47.34298" lon="-1.20606">
        <ele>21</ele>
        <time>2021-03-24T22:29:56Z</time>
      </trkpt>
      <trkpt lat="47.34292" lon="-1.20627">
        <ele>23</ele>
        <time>2021-03-24T22:29:59Z</time>
      </trkpt>
      <trkpt lat="47.34272" lon="-1.20734">
        <ele>26</ele>
        <time>2021-03-24T22:30:12Z</time>
      </trkpt>
      <trkpt lat="47.34222" lon="-1.21035">
        <ele>22</ele>
        <time>2021-03-24T22:30:50Z</time>
      </trkpt>
      <trkpt lat="47.34207" lon="-1.211">
        <ele>21</ele>
        <time>2021-03-24T22:30:58Z</time>
      </trkpt>
      <trkpt lat="47.34179" lon="-1.21197">
        <ele>18</ele>
        <time>2021-03-24T22:31:11Z</time>
      </trkpt>
      <trkpt lat="47.34168" lon="-1.21251">
        <ele>19</ele>
        <time>2021-03-24T22:31:17Z</time>
      </trkpt>
      <trkpt lat="47.34163" lon="-1.21284">
        <ele>20</ele>
        <time>2021-03-24T22:31:21Z</time>
      </trkpt>
      <trkpt lat="47.34161" lon="-1.2132">
        <ele>21</ele>
        <time>2021-03-24T22:31:26Z</time>
      </trkpt>
      <trkpt lat="47.34159" lon="-1.21476">
        <ele>22</ele>
        <time>2021-03-24T22:31:45Z</time>
      </trkpt>
      <trkpt lat="47.34161" lon="-1.21724">
        <ele>21</ele>
        <time>2021-03-24T22:32:15Z</time>
      </trkpt>
      <trkpt lat="47.34171" lon="-1.21797">
        <ele>17</ele>
        <time>2021-03-24T22:32:24Z</time>
      </trkpt>
      <trkpt lat="47.34173" lon="-1.21828">
        <ele>16</ele>
        <time>2021-03-24T22:32:27Z</time>
      </trkpt>
      <trkpt lat="47.34172" lon="-1.21862">
        <ele>16</ele>
        <time>2021-03-24T22:32:31Z</time>
      </trkpt>
      <trkpt lat="47.34153" lon="-1.22131">
        <ele>19</ele>
        <time>2021-03-24T22:33:04Z</time>
      </trkpt>
      <trkpt lat="47.34143" lon="-1.22208">
        <ele>20</ele>
        <time>2021-03-24T22:33:13Z</time>
      </trkpt>
      <trkpt lat="47.34122" lon="-1.22308">
        <ele>20</ele>
        <time>2021-03-24T22:33:26Z</time>
      </trkpt>
      <trkpt lat="47.34104" lon="-1.22405">
        <ele>19</ele>
        <time>2021-03-24T22:33:38Z</time>
      </trkpt>
      <trkpt lat="47.34061" lon="-1.22728">
        <ele>14</ele>
        <time>2021-03-24T22:34:18Z</time>
      </trkpt>
      <trkpt lat="47.34055" lon="-1.22751">
        <ele>14</ele>
        <time>2021-03-24T22:34:21Z</time>
      </trkpt>
      <trkpt lat="47.34034" lon="-1.2281">
        <ele>16</ele>
        <time>2021-03-24T22:34:29Z</time>
      </trkpt>
      <trkpt lat="47.34027" lon="-1.22844">
        <ele>17</ele>
        <time>2021-03-24T22:34:33Z</time>
      </trkpt>
      <trkpt lat="47.33997" lon="-1.23097">
        <ele>11</ele>
        <time>2021-03-24T22:35:04Z</time>
      </trkpt>
      <trkpt lat="47.33994" lon="-1.23267">
        <ele>15</ele>
        <time>2021-03-24T22:35:25Z</time>
      </trkpt>
      <trkpt lat="47.33992" lon="-1.23316">
        <ele>14</ele>
        <time>2021-03-24T22:35:31Z</time>
      </trkpt>
      <trkpt lat="47.33952" lon="-1.23581">
        <ele>13</ele>
        <time>2021-03-24T22:36:03Z</time>
      </trkpt>
      <trkpt lat="47.33946" lon="-1.23609">
        <ele>13</ele>
        <time>2021-03-24T22:36:07Z</time>
      </trkpt>
      <trkpt lat="47.33936" lon="-1.23644">
        <ele>13</ele>
        <time>2021-03-24T22:36:11Z</time>
      </trkpt>
      <trkpt lat="47.33881" lon="-1.23804">
        <ele>13</ele>
        <time>2021-03-24T22:36:33Z</time>
      </trkpt>
      <trkpt lat="47.33872" lon="-1.23835">
        <ele>13</ele>
        <time>2021-03-24T22:36:37Z</time>
      </trkpt>
      <trkpt lat="47.33861" lon="-1.2388">
        <ele>13</ele>
        <time>2021-03-24T22:36:43Z</time>
      </trkpt>
      <trkpt lat="47.33812" lon="-1.24118">
        <ele>16</ele>
        <time>2021-03-24T22:37:13Z</time>
      </trkpt>
      <trkpt lat="47.33808" lon="-1.24158">
        <ele>16</ele>
        <time>2021-03-24T22:37:18Z</time>
      </trkpt>
      <trkpt lat="47.33804" lon="-1.24272">
        <ele>14</ele>
        <time>2021-03-24T22:37:32Z</time>
      </trkpt>
      <trkpt lat="47.33799" lon="-1.24317">
        <ele>15</ele>
        <time>2021-03-24T22:37:37Z</time>
      </trkpt>
      <trkpt lat="47.3377" lon="-1.24491">
        <ele>16</ele>
        <time>2021-03-24T22:37:59Z</time>
      </trkpt>
      <trkpt lat="47.33768" lon="-1.24528">
        <ele>17</ele>
        <time>2021-03-24T22:38:03Z</time>
      </trkpt>
      <trkpt lat="47.33771" lon="-1.24552">
        <ele>18</ele>
        <time>2021-03-24T22:38:06Z</time>
      </trkpt>
      <trkpt lat="47.33777" lon="-1.24573">
        <ele>18</ele>
        <time>2021-03-24T22:38:09Z</time>
      </trkpt>
      <trkpt lat="47.33809" lon="-1.2463">
        <ele>17</ele>
        <time>2021-03-24T22:38:18Z</time>
      </trkpt>
      <trkpt lat="47.3382" lon="-1.24655">
        <ele>16</ele>
        <time>2021-03-24T22:38:21Z</time>
      </trkpt>
      <trkpt lat="47.3386" lon="-1.24774">
        <ele>14</ele>
        <time>2021-03-24T22:38:37Z</time>
      </trkpt>
      <trkpt lat="47.33864" lon="-1.24802">
        <ele>14</ele>
        <time>2021-03-24T22:38:41Z</time>
      </trkpt>
      <trkpt lat="47.33863" lon="-1.24816">
        <ele>14</ele>
        <time>2021-03-24T22:38:42Z</time>
      </trkpt>
      <trkpt lat="47.33858" lon="-1.24831">
        <ele>15</ele>
        <time>2021-03-24T22:38:44Z</time>
      </trkpt>
      <trkpt lat="47.33851" lon="-1.24843">
        <ele>15</ele>
        <time>2021-03-24T22:38:46Z</time>
      </trkpt>
      <trkpt lat="47.338" lon="-1.24892">
        <ele>24</ele>
        <time>2021-03-24T22:38:57Z</time>
      </trkpt>
      <trkpt lat="47.33791" lon="-1.24903">
        <ele>26</ele>
        <time>2021-03-24T22:38:59Z</time>
      </trkpt>
      <trkpt lat="47.33788" lon="-1.24914">
        <ele>26</ele>
        <time>2021-03-24T22:39:01Z</time>
      </trkpt>
      <trkpt lat="47.33788" lon="-1.24928">
        <ele>27</ele>
        <time>2021-03-24T22:39:02Z</time>
      </trkpt>
      <trkpt lat="47.33789" lon="-1.2494">
        <ele>28</ele>
        <time>2021-03-24T22:39:04Z</time>
      </trkpt>
      <trkpt lat="47.33795" lon="-1.24952">
        <ele>28</ele>
        <time>2021-03-24T22:39:06Z</time>
      </trkpt>
      <trkpt lat="47.33805" lon="-1.24959">
        <ele>26</ele>
        <time>2021-03-24T22:39:08Z</time>
      </trkpt>
      <trkpt lat="47.33838" lon="-1.24975">
        <ele>23</ele>
        <time>2021-03-24T22:39:14Z</time>
      </trkpt>
      <trkpt lat="47.33852" lon="-1.24986">
        <ele>22</ele>
        <time>2021-03-24T22:39:17Z</time>
      </trkpt>
      <trkpt lat="47.33863" lon="-1.24999">
        <ele>21</ele>
        <time>2021-03-24T22:39:19Z</time>
      </trkpt>
      <trkpt lat="47.33875" lon="-1.25019">
        <ele>21</ele>
        <time>2021-03-24T22:39:22Z</time>
      </trkpt>
      <trkpt lat="47.33928" lon="-1.25145">
        <ele>23</ele>
        <time>2021-03-24T22:39:40Z</time>
      </trkpt>
      <trkpt lat="47.33935" lon="-1.25185">
        <ele>24</ele>
        <time>2021-03-24T22:39:45Z</time>
      </trkpt>
      <trkpt lat="47.33936" lon="-1.25207">
        <ele>24</ele>
        <time>2021-03-24T22:39:48Z</time>
      </trkpt>
      <trkpt lat="47.33935" lon="-1.2523">
        <ele>25</ele>
        <time>2021-03-24T22:39:51Z</time>
      </trkpt>
      <trkpt lat="47.33931" lon="-1.25265">
        <ele>27</ele>
        <time>2021-03-24T22:39:55Z</time>
      </trkpt>
      <trkpt lat="47.33893" lon="-1.2551">
        <ele>34</ele>
        <time>2021-03-24T22:40:25Z</time>
      </trkpt>
      <trkpt lat="47.33886" lon="-1.25552">
        <ele>34</ele>
        <time>2021-03-24T22:40:30Z</time>
      </trkpt>
      <trkpt lat="47.33879" lon="-1.25578">
        <ele>34</ele>
        <time>2021-03-24T22:40:34Z</time>
      </trkpt>
      <trkpt lat="47.33865" lon="-1.25599">
        <ele>36</ele>
        <time>2021-03-24T22:40:37Z</time>
      </trkpt>
      <trkpt lat="47.33857" lon="-1.25609">
        <ele>37</ele>
        <time>2021-03-24T22:40:39Z</time>
      </trkpt>
      <trkpt lat="47.33841" lon="-1.25622">
        <ele>39</ele>
        <time>2021-03-24T22:40:43Z</time>
      </trkpt>
      <trkpt lat="47.33825" lon="-1.25626">
        <ele>41</ele>
        <time>2021-03-24T22:40:45Z</time>
      </trkpt>
      <trkpt lat="47.33817" lon="-1.25624">
        <ele>42</ele>
        <time>2021-03-24T22:40:47Z</time>
      </trkpt>
      <trkpt lat="47.3381" lon="-1.25619">
        <ele>43</ele>
        <time>2021-03-24T22:40:48Z</time>
      </trkpt>
      <trkpt lat="47.33796" lon="-1.25604">
        <ele>46</ele>
        <time>2021-03-24T22:40:51Z</time>
      </trkpt>
      <trkpt lat="47.33787" lon="-1.25597">
        <ele>47</ele>
        <time>2021-03-24T22:40:53Z</time>
      </trkpt>
      <trkpt lat="47.33775" lon="-1.25594">
        <ele>49</ele>
        <time>2021-03-24T22:40:55Z</time>
      </trkpt>
      <trkpt lat="47.33769" lon="-1.25596">
        <ele>50</ele>
        <time>2021-03-24T22:40:56Z</time>
      </trkpt>
      <trkpt lat="47.33765" lon="-1.25599">
        <ele>50</ele>
        <time>2021-03-24T22:40:57Z</time>
      </trkpt>
      <trkpt lat="47.33759" lon="-1.25613">
        <ele>50</ele>
        <time>2021-03-24T22:40:59Z</time>
      </trkpt>
      <trkpt lat="47.33758" lon="-1.25633">
        <ele>50</ele>
        <time>2021-03-24T22:41:02Z</time>
      </trkpt>
      <trkpt lat="47.3376" lon="-1.25667">
        <ele>48</ele>
        <time>2021-03-24T22:41:06Z</time>
      </trkpt>
      <trkpt lat="47.33757" lon="-1.25685">
        <ele>49</ele>
        <time>2021-03-24T22:41:08Z</time>
      </trkpt>
      <trkpt lat="47.33739" lon="-1.25714">
        <ele>52</ele>
        <time>2021-03-24T22:41:13Z</time>
      </trkpt>
      <trkpt lat="47.33734" lon="-1.2573">
        <ele>52</ele>
        <time>2021-03-24T22:41:15Z</time>
      </trkpt>
      <trkpt lat="47.33733" lon="-1.25758">
        <ele>53</ele>
        <time>2021-03-24T22:41:18Z</time>
      </trkpt>
      <trkpt lat="47.33736" lon="-1.25773">
        <ele>53</ele>
        <time>2021-03-24T22:41:20Z</time>
      </trkpt>
      <trkpt lat="47.33741" lon="-1.25786">
        <ele>53</ele>
        <time>2021-03-24T22:41:22Z</time>
      </trkpt>
      <trkpt lat="47.33754" lon="-1.25799">
        <ele>51</ele>
        <time>2021-03-24T22:41:25Z</time>
      </trkpt>
      <trkpt lat="47.3378" lon="-1.25811">
        <ele>49</ele>
        <time>2021-03-24T22:41:30Z</time>
      </trkpt>
      <trkpt lat="47.33788" lon="-1.25825">
        <ele>48</ele>
        <time>2021-03-24T22:41:32Z</time>
      </trkpt>
      <trkpt lat="47.33791" lon="-1.25844">
        <ele>49</ele>
        <time>2021-03-24T22:41:34Z</time>
      </trkpt>
      <trkpt lat="47.3377" lon="-1.26138">
        <ele>62</ele>
        <time>2021-03-24T22:42:10Z</time>
      </trkpt>
      <trkpt lat="47.33766" lon="-1.26163">
        <ele>63</ele>
        <time>2021-03-24T22:42:13Z</time>
      </trkpt>
      <trkpt lat="47.3376" lon="-1.26184">
        <ele>64</ele>
        <time>2021-03-24T22:42:16Z</time>
      </trkpt>
      <trkpt lat="47.33739" lon="-1.26223">
        <ele>67</ele>
        <time>2021-03-24T22:42:22Z</time>
      </trkpt>
      <trkpt lat="47.33735" lon="-1.26233">
        <ele>68</ele>
        <time>2021-03-24T22:42:23Z</time>
      </trkpt>
      <trkpt lat="47.33736" lon="-1.26239">
        <ele>68</ele>
        <time>2021-03-24T22:42:24Z</time>
      </trkpt>
      <trkpt lat="47.33734" lon="-1.26245">
        <ele>68</ele>
        <time>2021-03-24T22:42:25Z</time>
      </trkpt>
      <trkpt lat="47.33732" lon="-1.26245">
        <ele>68</ele>
        <time>2021-03-24T22:42:25Z</time>
      </trkpt>
      <trkpt lat="47.33731" lon="-1.26265">
        <ele>68</ele>
        <time>2021-03-24T22:42:27Z</time>
      </trkpt>
      <trkpt lat="47.33739" lon="-1.26349">
        <ele>69</ele>
        <time>2021-03-24T22:42:38Z</time>
      </trkpt>
      <trkpt lat="47.3374" lon="-1.26352">
        <ele>69</ele>
        <time>2021-03-24T22:42:38Z</time>
      </trkpt>
      <trkpt lat="47.33736" lon="-1.26366">
        <ele>70</ele>
        <time>2021-03-24T22:42:40Z</time>
      </trkpt>
      <trkpt lat="47.33736" lon="-1.26468">
        <ele>72</ele>
        <time>2021-03-24T22:42:52Z</time>
      </trkpt>
      <trkpt lat="47.33739" lon="-1.26579">
        <ele>73</ele>
        <time>2021-03-24T22:43:05Z</time>
      </trkpt>
      <trkpt lat="47.3373" lon="-1.26657">
        <ele>73</ele>
        <time>2021-03-24T22:43:15Z</time>
      </trkpt>
      <trkpt lat="47.3371" lon="-1.26735">
        <ele>70</ele>
        <time>2021-03-24T22:43:25Z</time>
      </trkpt>
      <trkpt lat="47.33708" lon="-1.26749">
        <ele>70</ele>
        <time>2021-03-24T22:43:27Z</time>
      </trkpt>
      <trkpt lat="47.337" lon="-1.26747">
        <ele>70</ele>
        <time>2021-03-24T22:43:28Z</time>
      </trkpt>
      <trkpt lat="47.33694" lon="-1.26743">
        <ele>70</ele>
        <time>2021-03-24T22:43:29Z</time>
      </trkpt>
      <trkpt lat="47.33563" lon="-1.26617">
        <ele>71</ele>
        <time>2021-03-24T22:43:57Z</time>
      </trkpt>
      <trkpt lat="47.33553" lon="-1.26606">
        <ele>71</ele>
        <time>2021-03-24T22:43:59Z</time>
      </trkpt>
      <trkpt lat="47.3352" lon="-1.26559">
        <ele>72</ele>
        <time>2021-03-24T22:44:08Z</time>
      </trkpt>
      <trkpt lat="47.33485" lon="-1.26496">
        <ele>73</ele>
        <time>2021-03-24T22:44:17Z</time>
      </trkpt>
      <trkpt lat="47.33435" lon="-1.26413">
        <ele>76</ele>
        <time>2021-03-24T22:44:31Z</time>
      </trkpt>
      <trkpt lat="47.33429" lon="-1.26396">
        <ele>75</ele>
        <time>2021-03-24T22:44:33Z</time>
      </trkpt>
      <trkpt lat="47.33425" lon="-1.26396">
        <ele>76</ele>
        <time>2021-03-24T22:44:34Z</time>
      </trkpt>
      <trkpt lat="47.33422" lon="-1.26393">
        <ele>76</ele>
        <time>2021-03-24T22:44:34Z</time>
      </trkpt>
      <trkpt lat="47.33422" lon="-1.26384">
        <ele>76</ele>
        <time>2021-03-24T22:44:36Z</time>
      </trkpt>
      <trkpt lat="47.33407" lon="-1.26365">
        <ele>75</ele>
        <time>2021-03-24T22:44:39Z</time>
      </trkpt>
      <trkpt lat="47.33208" lon="-1.26033">
        <ele>76</ele>
        <time>2021-03-24T22:45:33Z</time>
      </trkpt>
      <trkpt lat="47.31237" lon="-1.2273">
        <ele>76</ele>
        <time>2021-03-24T22:54:23Z</time>
      </trkpt>
      <trkpt lat="47.3" lon="-1.20668">
        <ele>89</ele>
        <time>2021-03-24T22:59:55Z</time>
      </trkpt>
      <trkpt lat="47.29764" lon="-1.20271">
        <ele>87</ele>
        <time>2021-03-24T23:00:59Z</time>
      </trkpt>
      <trkpt lat="47.29525" lon="-1.19875">
        <ele>80</ele>
        <time>2021-03-24T23:02:03Z</time>
      </trkpt>
      <trkpt lat="47.2914" lon="-1.19232">
        <ele>82</ele>
        <time>2021-03-24T23:03:47Z</time>
      </trkpt>
      <trkpt lat="47.29116" lon="-1.19199">
        <ele>82</ele>
        <time>2021-03-24T23:03:52Z</time>
      </trkpt>
      <trkpt lat="47.29099" lon="-1.19182">
        <ele>82</ele>
        <time>2021-03-24T23:03:56Z</time>
      </trkpt>
      <trkpt lat="47.29071" lon="-1.19162">
        <ele>82</ele>
        <time>2021-03-24T23:04:02Z</time>
      </trkpt>
      <trkpt lat="47.29057" lon="-1.19155">
        <ele>82</ele>
        <time>2021-03-24T23:04:04Z</time>
      </trkpt>
      <trkpt lat="47.28979" lon="-1.19129">
        <ele>84</ele>
        <time>2021-03-24T23:04:19Z</time>
      </trkpt>
      <trkpt lat="47.28933" lon="-1.19111">
        <ele>86</ele>
        <time>2021-03-24T23:04:27Z</time>
      </trkpt>
      <trkpt lat="47.2868" lon="-1.1903">
        <ele>92</ele>
        <time>2021-03-24T23:05:13Z</time>
      </trkpt>
      <trkpt lat="47.2867" lon="-1.19025">
        <ele>92</ele>
        <time>2021-03-24T23:05:15Z</time>
      </trkpt>
      <trkpt lat="47.28664" lon="-1.1903">
        <ele>92</ele>
        <time>2021-03-24T23:05:16Z</time>
      </trkpt>
      <trkpt lat="47.28657" lon="-1.19027">
        <ele>92</ele>
        <time>2021-03-24T23:05:17Z</time>
      </trkpt>
      <trkpt lat="47.28654" lon="-1.19015">
        <ele>92</ele>
        <time>2021-03-24T23:05:19Z</time>
      </trkpt>
      <trkpt lat="47.28655" lon="-1.1901">
        <ele>92</ele>
        <time>2021-03-24T23:05:20Z</time>
      </trkpt>
      <trkpt lat="47.28649" lon="-1.19003">
        <ele>92</ele>
        <time>2021-03-24T23:05:21Z</time>
      </trkpt>
      <trkpt lat="47.28598" lon="-1.18919">
        <ele>93</ele>
        <time>2021-03-24T23:05:35Z</time>
      </trkpt>
      <trkpt lat="47.28559" lon="-1.18889">
        <ele>93</ele>
        <time>2021-03-24T23:05:42Z</time>
      </trkpt>
      <trkpt lat="47.2854" lon="-1.18861">
        <ele>92</ele>
        <time>2021-03-24T23:05:47Z</time>
      </trkpt>
      <trkpt lat="47.28532" lon="-1.18846">
        <ele>92</ele>
        <time>2021-03-24T23:05:50Z</time>
      </trkpt>
      <trkpt lat="47.28519" lon="-1.18815">
        <ele>92</ele>
        <time>2021-03-24T23:05:54Z</time>
      </trkpt>
      <trkpt lat="47.28517" lon="-1.18803">
        <ele>92</ele>
        <time>2021-03-24T23:05:55Z</time>
      </trkpt>
      <trkpt lat="47.28512" lon="-1.18804">
        <ele>92</ele>
        <time>2021-03-24T23:05:56Z</time>
      </trkpt>
      <trkpt lat="47.28504" lon="-1.18802">
        <ele>92</ele>
        <time>2021-03-24T23:05:58Z</time>
      </trkpt>
      <trkpt lat="47.28396" lon="-1.18661">
        <ele>94</ele>
        <time>2021-03-24T23:06:23Z</time>
      </trkpt>
      <trkpt lat="47.28385" lon="-1.18643">
        <ele>94</ele>
        <time>2021-03-24T23:06:26Z</time>
      </trkpt>
      <trkpt lat="47.28376" lon="-1.18623">
        <ele>94</ele>
        <time>2021-03-24T23:06:29Z</time>
      </trkpt>
      <trkpt lat="47.28354" lon="-1.18543">
        <ele>94</ele>
        <time>2021-03-24T23:06:40Z</time>
      </trkpt>
      <trkpt lat="47.28348" lon="-1.18503">
        <ele>94</ele>
        <time>2021-03-24T23:06:45Z</time>
      </trkpt>
      <trkpt lat="47.28337" lon="-1.18398">
        <ele>93</ele>
        <time>2021-03-24T23:06:57Z</time>
      </trkpt>
      <trkpt lat="47.28335" lon="-1.18296">
        <ele>94</ele>
        <time>2021-03-24T23:07:10Z</time>
      </trkpt>
      <trkpt lat="47.28333" lon="-1.18274">
        <ele>94</ele>
        <time>2021-03-24T23:07:12Z</time>
      </trkpt>
      <trkpt lat="47.28322" lon="-1.18151">
        <ele>96</ele>
        <time>2021-03-24T23:07:27Z</time>
      </trkpt>
      <trkpt lat="47.28317" lon="-1.1812">
        <ele>96</ele>
        <time>2021-03-24T23:07:31Z</time>
      </trkpt>
      <trkpt lat="47.28264" lon="-1.17884">
        <ele>95</ele>
        <time>2021-03-24T23:08:01Z</time>
      </trkpt>
      <trkpt lat="47.28227" lon="-1.17714">
        <ele>98</ele>
        <time>2021-03-24T23:08:23Z</time>
      </trkpt>
      <trkpt lat="47.28188" lon="-1.177">
        <ele>98</ele>
        <time>2021-03-24T23:08:30Z</time>
      </trkpt>
      <trkpt lat="47.28171" lon="-1.1769">
        <ele>98</ele>
        <time>2021-03-24T23:08:33Z</time>
      </trkpt>
      <trkpt lat="47.28154" lon="-1.17674">
        <ele>98</ele>
        <time>2021-03-24T23:08:37Z</time>
      </trkpt>
      <trkpt lat="47.28034" lon="-1.1755">
        <ele>99</ele>
        <time>2021-03-24T23:09:03Z</time>
      </trkpt>
      <trkpt lat="47.28017" lon="-1.17536">
        <ele>99</ele>
        <time>2021-03-24T23:09:06Z</time>
      </trkpt>
      <trkpt lat="47.27948" lon="-1.17491">
        <ele>101</ele>
        <time>2021-03-24T23:09:20Z</time>
      </trkpt>
      <trkpt lat="47.27828" lon="-1.17421">
        <ele>104</ele>
        <time>2021-03-24T23:09:43Z</time>
      </trkpt>
      <trkpt lat="47.27796" lon="-1.17404">
        <ele>104</ele>
        <time>2021-03-24T23:09:49Z</time>
      </trkpt>
      <trkpt lat="47.27723" lon="-1.17379">
        <ele>103</ele>
        <time>2021-03-24T23:10:02Z</time>
      </trkpt>
      <trkpt lat="47.27656" lon="-1.17365">
        <ele>103</ele>
        <time>2021-03-24T23:10:14Z</time>
      </trkpt>
      <trkpt lat="47.27644" lon="-1.1736">
        <ele>103</ele>
        <time>2021-03-24T23:10:16Z</time>
      </trkpt>
      <trkpt lat="47.27625" lon="-1.17344">
        <ele>103</ele>
        <time>2021-03-24T23:10:20Z</time>
      </trkpt>
      <trkpt lat="47.27615" lon="-1.17332">
        <ele>103</ele>
        <time>2021-03-24T23:10:23Z</time>
      </trkpt>
      <trkpt lat="47.27597" lon="-1.17298">
        <ele>102</ele>
        <time>2021-03-24T23:10:28Z</time>
      </trkpt>
      <trkpt lat="47.27556" lon="-1.17179">
        <ele>103</ele>
        <time>2021-03-24T23:10:44Z</time>
      </trkpt>
      <trkpt lat="47.27531" lon="-1.17117">
        <ele>103</ele>
        <time>2021-03-24T23:10:53Z</time>
      </trkpt>
      <trkpt lat="47.27146" lon="-1.16324">
        <ele>104</ele>
        <time>2021-03-24T23:12:50Z</time>
      </trkpt>
      <trkpt lat="47.27114" lon="-1.16263">
        <ele>105</ele>
        <time>2021-03-24T23:13:00Z</time>
      </trkpt>
      <trkpt lat="47.27101" lon="-1.16248">
        <ele>106</ele>
        <time>2021-03-24T23:13:03Z</time>
      </trkpt>
      <trkpt lat="47.27051" lon="-1.16228">
        <ele>106</ele>
        <time>2021-03-24T23:13:12Z</time>
      </trkpt>
      <trkpt lat="47.26957" lon="-1.16184">
        <ele>101</ele>
        <time>2021-03-24T23:13:29Z</time>
      </trkpt>
      <trkpt lat="47.26666" lon="-1.16058">
        <ele>104</ele>
        <time>2021-03-24T23:14:23Z</time>
      </trkpt>
      <trkpt lat="47.26465" lon="-1.15968">
        <ele>105</ele>
        <time>2021-03-24T23:15:01Z</time>
      </trkpt>
      <trkpt lat="47.26426" lon="-1.15945">
        <ele>103</ele>
        <time>2021-03-24T23:15:08Z</time>
      </trkpt>
      <trkpt lat="47.26297" lon="-1.15848">
        <ele>99</ele>
        <time>2021-03-24T23:15:34Z</time>
      </trkpt>
      <trkpt lat="47.2628" lon="-1.15833">
        <ele>99</ele>
        <time>2021-03-24T23:15:37Z</time>
      </trkpt>
      <trkpt lat="47.26266" lon="-1.15818">
        <ele>99</ele>
        <time>2021-03-24T23:15:40Z</time>
      </trkpt>
      <trkpt lat="47.26245" lon="-1.15787">
        <ele>98</ele>
        <time>2021-03-24T23:15:46Z</time>
      </trkpt>
      <trkpt lat="47.26207" lon="-1.15706">
        <ele>95</ele>
        <time>2021-03-24T23:15:58Z</time>
      </trkpt>
      <trkpt lat="47.26195" lon="-1.15686">
        <ele>94</ele>
        <time>2021-03-24T23:16:01Z</time>
      </trkpt>
      <trkpt lat="47.26179" lon="-1.15664">
        <ele>94</ele>
        <time>2021-03-24T23:16:05Z</time>
      </trkpt>
      <trkpt lat="47.26147" lon="-1.15643">
        <ele>93</ele>
        <time>2021-03-24T23:16:11Z</time>
      </trkpt>
      <trkpt lat="47.26109" lon="-1.15627">
        <ele>92</ele>
        <time>2021-03-24T23:16:18Z</time>
      </trkpt>
      <trkpt lat="47.26096" lon="-1.15624">
        <ele>92</ele>
        <time>2021-03-24T23:16:20Z</time>
      </trkpt>
      <trkpt lat="47.26084" lon="-1.15623">
        <ele>92</ele>
        <time>2021-03-24T23:16:23Z</time>
      </trkpt>
      <trkpt lat="47.2607" lon="-1.15627">
        <ele>92</ele>
        <time>2021-03-24T23:16:25Z</time>
      </trkpt>
      <trkpt lat="47.26049" lon="-1.15639">
        <ele>91</ele>
        <time>2021-03-24T23:16:29Z</time>
      </trkpt>
      <trkpt lat="47.26039" lon="-1.15642">
        <ele>91</ele>
        <time>2021-03-24T23:16:31Z</time>
      </trkpt>
      <trkpt lat="47.26019" lon="-1.1564">
        <ele>90</ele>
        <time>2021-03-24T23:16:34Z</time>
      </trkpt>
      <trkpt lat="47.2601" lon="-1.15635">
        <ele>90</ele>
        <time>2021-03-24T23:16:36Z</time>
      </trkpt>
      <trkpt lat="47.25992" lon="-1.1562">
        <ele>89</ele>
        <time>2021-03-24T23:16:40Z</time>
      </trkpt>
      <trkpt lat="47.25975" lon="-1.15603">
        <ele>89</ele>
        <time>2021-03-24T23:16:43Z</time>
      </trkpt>
      <trkpt lat="47.25956" lon="-1.1559">
        <ele>88</ele>
        <time>2021-03-24T23:16:47Z</time>
      </trkpt>
      <trkpt lat="47.25814" lon="-1.15537">
        <ele>93</ele>
        <time>2021-03-24T23:17:13Z</time>
      </trkpt>
      <trkpt lat="47.25792" lon="-1.15524">
        <ele>93</ele>
        <time>2021-03-24T23:17:18Z</time>
      </trkpt>
      <trkpt lat="47.2578" lon="-1.15513">
        <ele>94</ele>
        <time>2021-03-24T23:17:20Z</time>
      </trkpt>
      <trkpt lat="47.25686" lon="-1.15401">
        <ele>97</ele>
        <time>2021-03-24T23:17:42Z</time>
      </trkpt>
      <trkpt lat="47.25661" lon="-1.15366">
        <ele>98</ele>
        <time>2021-03-24T23:17:48Z</time>
      </trkpt>
      <trkpt lat="47.25653" lon="-1.15347">
        <ele>98</ele>
        <time>2021-03-24T23:17:50Z</time>
      </trkpt>
      <trkpt lat="47.25633" lon="-1.15272">
        <ele>99</ele>
        <time>2021-03-24T23:18:00Z</time>
      </trkpt>
      <trkpt lat="47.25621" lon="-1.1524">
        <ele>100</ele>
        <time>2021-03-24T23:18:05Z</time>
      </trkpt>
      <trkpt lat="47.2561" lon="-1.15218">
        <ele>100</ele>
        <time>2021-03-24T23:18:08Z</time>
      </trkpt>
      <trkpt lat="47.25596" lon="-1.15201">
        <ele>100</ele>
        <time>2021-03-24T23:18:11Z</time>
      </trkpt>
      <trkpt lat="47.25578" lon="-1.15185">
        <ele>100</ele>
        <time>2021-03-24T23:18:15Z</time>
      </trkpt>
      <trkpt lat="47.2551" lon="-1.1513">
        <ele>100</ele>
        <time>2021-03-24T23:18:29Z</time>
      </trkpt>
      <trkpt lat="47.25498" lon="-1.15124">
        <ele>100</ele>
        <time>2021-03-24T23:18:31Z</time>
      </trkpt>
      <trkpt lat="47.25488" lon="-1.15123">
        <ele>100</ele>
        <time>2021-03-24T23:18:33Z</time>
      </trkpt>
      <trkpt lat="47.25438" lon="-1.15121">
        <ele>99</ele>
        <time>2021-03-24T23:18:42Z</time>
      </trkpt>
      <trkpt lat="47.25425" lon="-1.15118">
        <ele>99</ele>
        <time>2021-03-24T23:18:44Z</time>
      </trkpt>
      <trkpt lat="47.25416" lon="-1.15112">
        <ele>99</ele>
        <time>2021-03-24T23:18:46Z</time>
      </trkpt>
      <trkpt lat="47.25406" lon="-1.15101">
        <ele>99</ele>
        <time>2021-03-24T23:18:48Z</time>
      </trkpt>
      <trkpt lat="47.25345" lon="-1.15013">
        <ele>100</ele>
        <time>2021-03-24T23:19:03Z</time>
      </trkpt>
      <trkpt lat="47.2534" lon="-1.15001">
        <ele>100</ele>
        <time>2021-03-24T23:19:05Z</time>
      </trkpt>
      <trkpt lat="47.25335" lon="-1.14984">
        <ele>100</ele>
        <time>2021-03-24T23:19:07Z</time>
      </trkpt>
      <trkpt lat="47.25324" lon="-1.14922">
        <ele>99</ele>
        <time>2021-03-24T23:19:15Z</time>
      </trkpt>
      <trkpt lat="47.2532" lon="-1.14907">
        <ele>99</ele>
        <time>2021-03-24T23:19:17Z</time>
      </trkpt>
      <trkpt lat="47.25308" lon="-1.14869">
        <ele>98</ele>
        <time>2021-03-24T23:19:22Z</time>
      </trkpt>
      <trkpt lat="47.25297" lon="-1.14845">
        <ele>98</ele>
        <time>2021-03-24T23:19:25Z</time>
      </trkpt>
      <trkpt lat="47.25204" lon="-1.14706">
        <ele>101</ele>
        <time>2021-03-24T23:19:49Z</time>
      </trkpt>
      <trkpt lat="47.25135" lon="-1.14608">
        <ele>105</ele>
        <time>2021-03-24T23:20:06Z</time>
      </trkpt>
      <trkpt lat="47.25069" lon="-1.14508">
        <ele>103</ele>
        <time>2021-03-24T23:20:23Z</time>
      </trkpt>
      <trkpt lat="47.25" lon="-1.14407">
        <ele>104</ele>
        <time>2021-03-24T23:20:40Z</time>
      </trkpt>
      <trkpt lat="47.24377" lon="-1.13488">
        <ele>106</ele>
        <time>2021-03-24T23:23:17Z</time>
      </trkpt>
      <trkpt lat="47.24322" lon="-1.13411">
        <ele>108</ele>
        <time>2021-03-24T23:23:30Z</time>
      </trkpt>
      <trkpt lat="47.24209" lon="-1.13265">
        <ele>107</ele>
        <time>2021-03-24T23:23:57Z</time>
      </trkpt>
      <trkpt lat="47.24162" lon="-1.13206">
        <ele>107</ele>
        <time>2021-03-24T23:24:08Z</time>
      </trkpt>
      <trkpt lat="47.23904" lon="-1.12879">
        <ele>106</ele>
        <time>2021-03-24T23:25:09Z</time>
      </trkpt>
      <trkpt lat="47.23889" lon="-1.12864">
        <ele>106</ele>
        <time>2021-03-24T23:25:12Z</time>
      </trkpt>
      <trkpt lat="47.23873" lon="-1.12852">
        <ele>106</ele>
        <time>2021-03-24T23:25:15Z</time>
      </trkpt>
      <trkpt lat="47.23717" lon="-1.12754">
        <ele>105</ele>
        <time>2021-03-24T23:25:45Z</time>
      </trkpt>
      <trkpt lat="47.23665" lon="-1.12727">
        <ele>105</ele>
        <time>2021-03-24T23:25:55Z</time>
      </trkpt>
      <trkpt lat="47.2352" lon="-1.12661">
        <ele>105</ele>
        <time>2021-03-24T23:26:22Z</time>
      </trkpt>
      <trkpt lat="47.2351" lon="-1.12654">
        <ele>105</ele>
        <time>2021-03-24T23:26:24Z</time>
      </trkpt>
      <trkpt lat="47.23495" lon="-1.12638">
        <ele>105</ele>
        <time>2021-03-24T23:26:27Z</time>
      </trkpt>
      <trkpt lat="47.23488" lon="-1.12627">
        <ele>105</ele>
        <time>2021-03-24T23:26:29Z</time>
      </trkpt>
      <trkpt lat="47.23479" lon="-1.12605">
        <ele>105</ele>
        <time>2021-03-24T23:26:32Z</time>
      </trkpt>
      <trkpt lat="47.23438" lon="-1.12467">
        <ele>105</ele>
        <time>2021-03-24T23:26:50Z</time>
      </trkpt>
      <trkpt lat="47.23367" lon="-1.12197">
        <ele>99</ele>
        <time>2021-03-24T23:27:25Z</time>
      </trkpt>
      <trkpt lat="47.23341" lon="-1.12129">
        <ele>98</ele>
        <time>2021-03-24T23:27:35Z</time>
      </trkpt>
      <trkpt lat="47.23315" lon="-1.12073">
        <ele>98</ele>
        <time>2021-03-24T23:27:43Z</time>
      </trkpt>
      <trkpt lat="47.23257" lon="-1.11955">
        <ele>98</ele>
        <time>2021-03-24T23:28:01Z</time>
      </trkpt>
      <trkpt lat="47.23246" lon="-1.11923">
        <ele>98</ele>
        <time>2021-03-24T23:28:05Z</time>
      </trkpt>
      <trkpt lat="47.23242" lon="-1.11907">
        <ele>98</ele>
        <time>2021-03-24T23:28:07Z</time>
      </trkpt>
      <trkpt lat="47.23233" lon="-1.11854">
        <ele>97</ele>
        <time>2021-03-24T23:28:14Z</time>
      </trkpt>
      <trkpt lat="47.23201" lon="-1.11599">
        <ele>93</ele>
        <time>2021-03-24T23:28:45Z</time>
      </trkpt>
      <trkpt lat="47.23179" lon="-1.11538">
        <ele>93</ele>
        <time>2021-03-24T23:28:53Z</time>
      </trkpt>
      <trkpt lat="47.23147" lon="-1.1156">
        <ele>93</ele>
        <time>2021-03-24T23:29:00Z</time>
      </trkpt>
      <trkpt lat="47.23023" lon="-1.11565">
        <ele>91</ele>
        <time>2021-03-24T23:29:22Z</time>
      </trkpt>
      <trkpt lat="47.22957" lon="-1.11563">
        <ele>90</ele>
        <time>2021-03-24T23:29:33Z</time>
      </trkpt>
      <trkpt lat="47.22926" lon="-1.11557">
        <ele>89</ele>
        <time>2021-03-24T23:29:39Z</time>
      </trkpt>
      <trkpt lat="47.22868" lon="-1.11536">
        <ele>89</ele>
        <time>2021-03-24T23:29:50Z</time>
      </trkpt>
      <trkpt lat="47.22849" lon="-1.11526">
        <ele>89</ele>
        <time>2021-03-24T23:29:53Z</time>
      </trkpt>
      <trkpt lat="47.22822" lon="-1.11506">
        <ele>88</ele>
        <time>2021-03-24T23:29:59Z</time>
      </trkpt>
      <trkpt lat="47.22795" lon="-1.11477">
        <ele>87</ele>
        <time>2021-03-24T23:30:05Z</time>
      </trkpt>
      <trkpt lat="47.22774" lon="-1.11452">
        <ele>87</ele>
        <time>2021-03-24T23:30:09Z</time>
      </trkpt>
      <trkpt lat="47.22725" lon="-1.11399">
        <ele>87</ele>
        <time>2021-03-24T23:30:20Z</time>
      </trkpt>
      <trkpt lat="47.22682" lon="-1.11359">
        <ele>87</ele>
        <time>2021-03-24T23:30:29Z</time>
      </trkpt>
      <trkpt lat="47.2259" lon="-1.1128">
        <ele>82</ele>
        <time>2021-03-24T23:30:48Z</time>
      </trkpt>
      <trkpt lat="47.22542" lon="-1.11249">
        <ele>81</ele>
        <time>2021-03-24T23:30:57Z</time>
      </trkpt>
      <trkpt lat="47.22525" lon="-1.11236">
        <ele>81</ele>
        <time>2021-03-24T23:31:01Z</time>
      </trkpt>
      <trkpt lat="47.22506" lon="-1.11215">
        <ele>82</ele>
        <time>2021-03-24T23:31:05Z</time>
      </trkpt>
      <trkpt lat="47.22476" lon="-1.11171">
        <ele>84</ele>
        <time>2021-03-24T23:31:13Z</time>
      </trkpt>
      <trkpt lat="47.2234" lon="-1.10895">
        <ele>92</ele>
        <time>2021-03-24T23:31:54Z</time>
      </trkpt>
      <trkpt lat="47.22317" lon="-1.10863">
        <ele>93</ele>
        <time>2021-03-24T23:31:59Z</time>
      </trkpt>
      <trkpt lat="47.22296" lon="-1.10845">
        <ele>94</ele>
        <time>2021-03-24T23:32:04Z</time>
      </trkpt>
      <trkpt lat="47.22264" lon="-1.1083">
        <ele>95</ele>
        <time>2021-03-24T23:32:10Z</time>
      </trkpt>
      <trkpt lat="47.22246" lon="-1.10825">
        <ele>95</ele>
        <time>2021-03-24T23:32:13Z</time>
      </trkpt>
      <trkpt lat="47.22229" lon="-1.10823">
        <ele>95</ele>
        <time>2021-03-24T23:32:16Z</time>
      </trkpt>
      <trkpt lat="47.22206" lon="-1.10825">
        <ele>96</ele>
        <time>2021-03-24T23:32:20Z</time>
      </trkpt>
      <trkpt lat="47.22151" lon="-1.10838">
        <ele>96</ele>
        <time>2021-03-24T23:32:30Z</time>
      </trkpt>
      <trkpt lat="47.2199" lon="-1.10882">
        <ele>96</ele>
        <time>2021-03-24T23:32:59Z</time>
      </trkpt>
      <trkpt lat="47.21949" lon="-1.10898">
        <ele>96</ele>
        <time>2021-03-24T23:33:07Z</time>
      </trkpt>
      <trkpt lat="47.21824" lon="-1.10959">
        <ele>99</ele>
        <time>2021-03-24T23:33:30Z</time>
      </trkpt>
      <trkpt lat="47.2168" lon="-1.11025">
        <ele>100</ele>
        <time>2021-03-24T23:33:57Z</time>
      </trkpt>
      <trkpt lat="47.21642" lon="-1.11049">
        <ele>100</ele>
        <time>2021-03-24T23:34:04Z</time>
      </trkpt>
      <trkpt lat="47.21627" lon="-1.11062">
        <ele>100</ele>
        <time>2021-03-24T23:34:07Z</time>
      </trkpt>
      <trkpt lat="47.21447" lon="-1.11258">
        <ele>103</ele>
        <time>2021-03-24T23:34:47Z</time>
      </trkpt>
      <trkpt lat="47.21401" lon="-1.11316">
        <ele>104</ele>
        <time>2021-03-24T23:34:58Z</time>
      </trkpt>
      <trkpt lat="47.21308" lon="-1.11444">
        <ele>103</ele>
        <time>2021-03-24T23:35:21Z</time>
      </trkpt>
      <trkpt lat="47.21169" lon="-1.11631">
        <ele>103</ele>
        <time>2021-03-24T23:35:54Z</time>
      </trkpt>
      <trkpt lat="47.21129" lon="-1.11681">
        <ele>101</ele>
        <time>2021-03-24T23:36:04Z</time>
      </trkpt>
      <trkpt lat="47.21028" lon="-1.11779">
        <ele>100</ele>
        <time>2021-03-24T23:36:25Z</time>
      </trkpt>
      <trkpt lat="47.21001" lon="-1.11797">
        <ele>100</ele>
        <time>2021-03-24T23:36:30Z</time>
      </trkpt>
      <trkpt lat="47.20968" lon="-1.11816">
        <ele>101</ele>
        <time>2021-03-24T23:36:37Z</time>
      </trkpt>
      <trkpt lat="47.20916" lon="-1.11838">
        <ele>101</ele>
        <time>2021-03-24T23:36:46Z</time>
      </trkpt>
      <trkpt lat="47.20775" lon="-1.11884">
        <ele>103</ele>
        <time>2021-03-24T23:37:12Z</time>
      </trkpt>
      <trkpt lat="47.20639" lon="-1.11936">
        <ele>104</ele>
        <time>2021-03-24T23:37:37Z</time>
      </trkpt>
      <trkpt lat="47.20604" lon="-1.11959">
        <ele>104</ele>
        <time>2021-03-24T23:37:44Z</time>
      </trkpt>
      <trkpt lat="47.20455" lon="-1.12101">
        <ele>101</ele>
        <time>2021-03-24T23:38:15Z</time>
      </trkpt>
      <trkpt lat="47.20304" lon="-1.12214">
        <ele>99</ele>
        <time>2021-03-24T23:38:46Z</time>
      </trkpt>
      <trkpt lat="47.2017" lon="-1.12298">
        <ele>93</ele>
        <time>2021-03-24T23:39:11Z</time>
      </trkpt>
      <trkpt lat="47.19962" lon="-1.12418">
        <ele>89</ele>
        <time>2021-03-24T23:39:51Z</time>
      </trkpt>
      <trkpt lat="47.19929" lon="-1.12431">
        <ele>88</ele>
        <time>2021-03-24T23:39:57Z</time>
      </trkpt>
      <trkpt lat="47.19881" lon="-1.12445">
        <ele>87</ele>
        <time>2021-03-24T23:40:06Z</time>
      </trkpt>
      <trkpt lat="47.19861" lon="-1.12452">
        <ele>87</ele>
        <time>2021-03-24T23:40:10Z</time>
      </trkpt>
      <trkpt lat="47.19839" lon="-1.12464">
        <ele>87</ele>
        <time>2021-03-24T23:40:14Z</time>
      </trkpt>
      <trkpt lat="47.19769" lon="-1.12516">
        <ele>84</ele>
        <time>2021-03-24T23:40:28Z</time>
      </trkpt>
      <trkpt lat="47.19708" lon="-1.12574">
        <ele>81</ele>
        <time>2021-03-24T23:40:41Z</time>
      </trkpt>
      <trkpt lat="47.19684" lon="-1.1259">
        <ele>80</ele>
        <time>2021-03-24T23:40:45Z</time>
      </trkpt>
      <trkpt lat="47.19656" lon="-1.12597">
        <ele>79</ele>
        <time>2021-03-24T23:40:50Z</time>
      </trkpt>
      <trkpt lat="47.19642" lon="-1.12596">
        <ele>79</ele>
        <time>2021-03-24T23:40:53Z</time>
      </trkpt>
      <trkpt lat="47.19624" lon="-1.12591">
        <ele>78</ele>
        <time>2021-03-24T23:40:56Z</time>
      </trkpt>
      <trkpt lat="47.19367" lon="-1.12491">
        <ele>65</ele>
        <time>2021-03-24T23:41:44Z</time>
      </trkpt>
      <trkpt lat="47.19255" lon="-1.12445">
        <ele>69</ele>
        <time>2021-03-24T23:42:04Z</time>
      </trkpt>
      <trkpt lat="47.19223" lon="-1.12435">
        <ele>71</ele>
        <time>2021-03-24T23:42:10Z</time>
      </trkpt>
      <trkpt lat="47.1904" lon="-1.12406">
        <ele>80</ele>
        <time>2021-03-24T23:42:43Z</time>
      </trkpt>
      <trkpt lat="47.19009" lon="-1.12397">
        <ele>81</ele>
        <time>2021-03-24T23:42:48Z</time>
      </trkpt>
      <trkpt lat="47.18982" lon="-1.1238">
        <ele>82</ele>
        <time>2021-03-24T23:42:54Z</time>
      </trkpt>
      <trkpt lat="47.18932" lon="-1.12333">
        <ele>82</ele>
        <time>2021-03-24T23:43:04Z</time>
      </trkpt>
      <trkpt lat="47.18911" lon="-1.12304">
        <ele>81</ele>
        <time>2021-03-24T23:43:09Z</time>
      </trkpt>
      <trkpt lat="47.18903" lon="-1.12286">
        <ele>81</ele>
        <time>2021-03-24T23:43:12Z</time>
      </trkpt>
      <trkpt lat="47.18895" lon="-1.12257">
        <ele>81</ele>
        <time>2021-03-24T23:43:16Z</time>
      </trkpt>
      <trkpt lat="47.18865" lon="-1.12085">
        <ele>80</ele>
        <time>2021-03-24T23:43:37Z</time>
      </trkpt>
      <trkpt lat="47.18859" lon="-1.12058">
        <ele>80</ele>
        <time>2021-03-24T23:43:41Z</time>
      </trkpt>
      <trkpt lat="47.18851" lon="-1.12032">
        <ele>80</ele>
        <time>2021-03-24T23:43:44Z</time>
      </trkpt>
      <trkpt lat="47.18802" lon="-1.11904">
        <ele>80</ele>
        <time>2021-03-24T23:44:02Z</time>
      </trkpt>
      <trkpt lat="47.18791" lon="-1.11883">
        <ele>80</ele>
        <time>2021-03-24T23:44:05Z</time>
      </trkpt>
      <trkpt lat="47.1877" lon="-1.11858">
        <ele>81</ele>
        <time>2021-03-24T23:44:10Z</time>
      </trkpt>
      <trkpt lat="47.18582" lon="-1.11662">
        <ele>77</ele>
        <time>2021-03-24T23:44:51Z</time>
      </trkpt>
      <trkpt lat="47.18321" lon="-1.11382">
        <ele>77</ele>
        <time>2021-03-24T23:45:48Z</time>
      </trkpt>
      <trkpt lat="47.18301" lon="-1.1142">
        <ele>79</ele>
        <time>2021-03-24T23:45:54Z</time>
      </trkpt>
      <trkpt lat="47.18194" lon="-1.1161">
        <ele>79</ele>
        <time>2021-03-24T23:46:24Z</time>
      </trkpt>
      <trkpt lat="47.18185" lon="-1.11615">
        <ele>79</ele>
        <time>2021-03-24T23:46:26Z</time>
      </trkpt>
      <trkpt lat="47.18166" lon="-1.11614">
        <ele>79</ele>
        <time>2021-03-24T23:46:29Z</time>
      </trkpt>
      <trkpt lat="47.18194" lon="-1.11321">
        <ele>79</ele>
        <time>2021-03-24T23:47:05Z</time>
      </trkpt>
      <trkpt lat="47.18193" lon="-1.11302">
        <ele>78</ele>
        <time>2021-03-24T23:47:07Z</time>
      </trkpt>
      <trkpt lat="47.18188" lon="-1.11286">
        <ele>78</ele>
        <time>2021-03-24T23:47:09Z</time>
      </trkpt>
      <trkpt lat="47.18173" lon="-1.11259">
        <ele>78</ele>
        <time>2021-03-24T23:47:13Z</time>
      </trkpt>
      <trkpt lat="47.18152" lon="-1.11224">
        <ele>78</ele>
        <time>2021-03-24T23:47:19Z</time>
      </trkpt>
      <trkpt lat="47.1813" lon="-1.11202">
        <ele>78</ele>
        <time>2021-03-24T23:47:24Z</time>
      </trkpt>
      <trkpt lat="47.18122" lon="-1.11188">
        <ele>78</ele>
        <time>2021-03-24T23:47:26Z</time>
      </trkpt>
      <trkpt lat="47.18115" lon="-1.11169">
        <ele>78</ele>
        <time>2021-03-24T23:47:29Z</time>
      </trkpt>
      <trkpt lat="47.18101" lon="-1.11147">
        <ele>77</ele>
        <time>2021-03-24T23:47:32Z</time>
      </trkpt>
      <trkpt lat="47.18092" lon="-1.11138">
        <ele>77</ele>
        <time>2021-03-24T23:47:34Z</time>
      </trkpt>
      <trkpt lat="47.18053" lon="-1.11111">
        <ele>75</ele>
        <time>2021-03-24T23:47:42Z</time>
      </trkpt>
      <trkpt lat="47.18031" lon="-1.11093">
        <ele>74</ele>
        <time>2021-03-24T23:47:46Z</time>
      </trkpt>
      <trkpt lat="47.18025" lon="-1.11103">
        <ele>75</ele>
        <time>2021-03-24T23:47:48Z</time>
      </trkpt>
      <trkpt lat="47.17987" lon="-1.11123">
        <ele>76</ele>
        <time>2021-03-24T23:47:55Z</time>
      </trkpt>
      <trkpt lat="47.17974" lon="-1.11127">
        <ele>77</ele>
        <time>2021-03-24T23:47:58Z</time>
      </trkpt>
      <trkpt lat="47.17949" lon="-1.11132">
        <ele>78</ele>
        <time>2021-03-24T23:48:02Z</time>
      </trkpt>
      <trkpt lat="47.17938" lon="-1.1113">
        <ele>78</ele>
        <time>2021-03-24T23:48:04Z</time>
      </trkpt>
      <trkpt lat="47.1793" lon="-1.11124">
        <ele>78</ele>
        <time>2021-03-24T23:48:06Z</time>
      </trkpt>
      <trkpt lat="47.17855" lon="-1.111">
        <ele>81</ele>
        <time>2021-03-24T23:48:19Z</time>
      </trkpt>
      <trkpt lat="47.17844" lon="-1.11094">
        <ele>81</ele>
        <time>2021-03-24T23:48:21Z</time>
      </trkpt>
      <trkpt lat="47.17705" lon="-1.11001">
        <ele>82</ele>
        <time>2021-03-24T23:48:49Z</time>
      </trkpt>
      <trkpt lat="47.17659" lon="-1.10975">
        <ele>82</ele>
        <time>2021-03-24T23:48:57Z</time>
      </trkpt>
      <trkpt lat="47.1764" lon="-1.10967">
        <ele>81</ele>
        <time>2021-03-24T23:49:01Z</time>
      </trkpt>
      <trkpt lat="47.17495" lon="-1.10929">
        <ele>78</ele>
        <time>2021-03-24T23:49:27Z</time>
      </trkpt>
      <trkpt lat="47.17481" lon="-1.10922">
        <ele>78</ele>
        <time>2021-03-24T23:49:30Z</time>
      </trkpt>
      <trkpt lat="47.17469" lon="-1.10912">
        <ele>78</ele>
        <time>2021-03-24T23:49:32Z</time>
      </trkpt>
      <trkpt lat="47.17448" lon="-1.1089">
        <ele>77</ele>
        <time>2021-03-24T23:49:37Z</time>
      </trkpt>
      <trkpt lat="47.17439" lon="-1.10875">
        <ele>77</ele>
        <time>2021-03-24T23:49:39Z</time>
      </trkpt>
      <trkpt lat="47.17431" lon="-1.10857">
        <ele>77</ele>
        <time>2021-03-24T23:49:42Z</time>
      </trkpt>
      <trkpt lat="47.17406" lon="-1.10787">
        <ele>75</ele>
        <time>2021-03-24T23:49:51Z</time>
      </trkpt>
      <trkpt lat="47.17398" lon="-1.10769">
        <ele>75</ele>
        <time>2021-03-24T23:49:54Z</time>
      </trkpt>
      <trkpt lat="47.1738" lon="-1.10735">
        <ele>74</ele>
        <time>2021-03-24T23:49:59Z</time>
      </trkpt>
      <trkpt lat="47.17364" lon="-1.1071">
        <ele>74</ele>
        <time>2021-03-24T23:50:03Z</time>
      </trkpt>
      <trkpt lat="47.17344" lon="-1.10685">
        <ele>74</ele>
        <time>2021-03-24T23:50:08Z</time>
      </trkpt>
      <trkpt lat="47.17332" lon="-1.10673">
        <ele>74</ele>
        <time>2021-03-24T23:50:11Z</time>
      </trkpt>
      <trkpt lat="47.17176" lon="-1.10537">
        <ele>78</ele>
        <time>2021-03-24T23:50:43Z</time>
      </trkpt>
      <trkpt lat="47.17062" lon="-1.10415">
        <ele>74</ele>
        <time>2021-03-24T23:51:08Z</time>
      </trkpt>
      <trkpt lat="47.17048" lon="-1.10398">
        <ele>74</ele>
        <time>2021-03-24T23:51:11Z</time>
      </trkpt>
      <trkpt lat="47.17037" lon="-1.1038">
        <ele>74</ele>
        <time>2021-03-24T23:51:14Z</time>
      </trkpt>
      <trkpt lat="47.17008" lon="-1.10332">
        <ele>73</ele>
        <time>2021-03-24T23:51:22Z</time>
      </trkpt>
      <trkpt lat="47.16886" lon="-1.10118">
        <ele>82</ele>
        <time>2021-03-24T23:51:56Z</time>
      </trkpt>
      <trkpt lat="47.16807" lon="-1.09986">
        <ele>87</ele>
        <time>2021-03-24T23:52:17Z</time>
      </trkpt>
      <trkpt lat="47.16785" lon="-1.09955">
        <ele>87</ele>
        <time>2021-03-24T23:52:22Z</time>
      </trkpt>
      <trkpt lat="47.16662" lon="-1.09808">
        <ele>90</ele>
        <time>2021-03-24T23:52:50Z</time>
      </trkpt>
      <trkpt lat="47.16645" lon="-1.09792">
        <ele>91</ele>
        <time>2021-03-24T23:52:54Z</time>
      </trkpt>
      <trkpt lat="47.16633" lon="-1.09783">
        <ele>92</ele>
        <time>2021-03-24T23:52:56Z</time>
      </trkpt>
      <trkpt lat="47.16607" lon="-1.09771">
        <ele>93</ele>
        <time>2021-03-24T23:53:01Z</time>
      </trkpt>
      <trkpt lat="47.16596" lon="-1.0977">
        <ele>93</ele>
        <time>2021-03-24T23:53:03Z</time>
      </trkpt>
      <trkpt lat="47.16575" lon="-1.0977">
        <ele>93</ele>
        <time>2021-03-24T23:53:07Z</time>
      </trkpt>
      <trkpt lat="47.16468" lon="-1.0979">
        <ele>92</ele>
        <time>2021-03-24T23:53:26Z</time>
      </trkpt>
      <trkpt lat="47.15709" lon="-1.09967">
        <ele>90</ele>
        <time>2021-03-24T23:55:43Z</time>
      </trkpt>
      <trkpt lat="47.15649" lon="-1.09987">
        <ele>91</ele>
        <time>2021-03-24T23:55:54Z</time>
      </trkpt>
      <trkpt lat="47.15544" lon="-1.10045">
        <ele>93</ele>
        <time>2021-03-24T23:56:14Z</time>
      </trkpt>
      <trkpt lat="47.15514" lon="-1.10059">
        <ele>93</ele>
        <time>2021-03-24T23:56:19Z</time>
      </trkpt>
      <trkpt lat="47.15495" lon="-1.10065">
        <ele>94</ele>
        <time>2021-03-24T23:56:23Z</time>
      </trkpt>
      <trkpt lat="47.15434" lon="-1.10071">
        <ele>96</ele>
        <time>2021-03-24T23:56:34Z</time>
      </trkpt>
      <trkpt lat="47.15422" lon="-1.10074">
        <ele>96</ele>
        <time>2021-03-24T23:56:36Z</time>
      </trkpt>
      <trkpt lat="47.15409" lon="-1.1008">
        <ele>96</ele>
        <time>2021-03-24T23:56:38Z</time>
      </trkpt>
      <trkpt lat="47.15381" lon="-1.10101">
        <ele>97</ele>
        <time>2021-03-24T23:56:44Z</time>
      </trkpt>
      <trkpt lat="47.14969" lon="-1.10541">
        <ele>98</ele>
        <time>2021-03-24T23:58:15Z</time>
      </trkpt>
      <trkpt lat="47.14898" lon="-1.10624">
        <ele>98</ele>
        <time>2021-03-24T23:58:31Z</time>
      </trkpt>
      <trkpt lat="47.14865" lon="-1.10668">
        <ele>98</ele>
        <time>2021-03-24T23:58:39Z</time>
      </trkpt>
      <trkpt lat="47.14816" lon="-1.10748">
        <ele>99</ele>
        <time>2021-03-24T23:58:52Z</time>
      </trkpt>
      <trkpt lat="47.14754" lon="-1.10866">
        <ele>98</ele>
        <time>2021-03-24T23:59:10Z</time>
      </trkpt>
      <trkpt lat="47.14699" lon="-1.10965">
        <ele>97</ele>
        <time>2021-03-24T23:59:25Z</time>
      </trkpt>
      <trkpt lat="47.14612" lon="-1.11104">
        <ele>94</ele>
        <time>2021-03-24T23:59:48Z</time>
      </trkpt>
      <trkpt lat="47.14353" lon="-1.11606">
        <ele>101</ele>
        <time>2021-03-25T00:01:04Z</time>
      </trkpt>
      <trkpt lat="47.14343" lon="-1.11619">
        <ele>101</ele>
        <time>2021-03-25T00:01:07Z</time>
      </trkpt>
      <trkpt lat="47.14337" lon="-1.11622">
        <ele>101</ele>
        <time>2021-03-25T00:01:08Z</time>
      </trkpt>
      <trkpt lat="47.14334" lon="-1.11657">
        <ele>102</ele>
        <time>2021-03-25T00:01:12Z</time>
      </trkpt>
      <trkpt lat="47.1433" lon="-1.11658">
        <ele>102</ele>
        <time>2021-03-25T00:01:13Z</time>
      </trkpt>
      <trkpt lat="47.14324" lon="-1.11665">
        <ele>102</ele>
        <time>2021-03-25T00:01:14Z</time>
      </trkpt>
      <trkpt lat="47.14297" lon="-1.11717">
        <ele>102</ele>
        <time>2021-03-25T00:01:22Z</time>
      </trkpt>
      <trkpt lat="47.14277" lon="-1.11747">
        <ele>102</ele>
        <time>2021-03-25T00:01:27Z</time>
      </trkpt>
      <trkpt lat="47.14263" lon="-1.11762">
        <ele>102</ele>
        <time>2021-03-25T00:01:30Z</time>
      </trkpt>
      <trkpt lat="47.14247" lon="-1.11773">
        <ele>102</ele>
        <time>2021-03-25T00:01:33Z</time>
      </trkpt>
      <trkpt lat="47.14223" lon="-1.11785">
        <ele>103</ele>
        <time>2021-03-25T00:01:38Z</time>
      </trkpt>
      <trkpt lat="47.14192" lon="-1.11793">
        <ele>103</ele>
        <time>2021-03-25T00:01:43Z</time>
      </trkpt>
      <trkpt lat="47.13352" lon="-1.11928">
        <ele>91</ele>
        <time>2021-03-25T00:04:14Z</time>
      </trkpt>
      <trkpt lat="47.1333" lon="-1.1194">
        <ele>90</ele>
        <time>2021-03-25T00:04:18Z</time>
      </trkpt>
      <trkpt lat="47.13267" lon="-1.12004">
        <ele>89</ele>
        <time>2021-03-25T00:04:32Z</time>
      </trkpt>
      <trkpt lat="47.13253" lon="-1.12016">
        <ele>89</ele>
        <time>2021-03-25T00:04:34Z</time>
      </trkpt>
      <trkpt lat="47.13206" lon="-1.1204">
        <ele>88</ele>
        <time>2021-03-25T00:04:43Z</time>
      </trkpt>
      <trkpt lat="47.13182" lon="-1.12046">
        <ele>88</ele>
        <time>2021-03-25T00:04:48Z</time>
      </trkpt>
      <trkpt lat="47.13167" lon="-1.12048">
        <ele>88</ele>
        <time>2021-03-25T00:04:50Z</time>
      </trkpt>
      <trkpt lat="47.13146" lon="-1.12046">
        <ele>88</ele>
        <time>2021-03-25T00:04:54Z</time>
      </trkpt>
      <trkpt lat="47.13119" lon="-1.12038">
        <ele>87</ele>
        <time>2021-03-25T00:04:59Z</time>
      </trkpt>
      <trkpt lat="47.12928" lon="-1.11959">
        <ele>81</ele>
        <time>2021-03-25T00:05:34Z</time>
      </trkpt>
      <trkpt lat="47.12893" lon="-1.1195">
        <ele>81</ele>
        <time>2021-03-25T00:05:41Z</time>
      </trkpt>
      <trkpt lat="47.12861" lon="-1.1195">
        <ele>82</ele>
        <time>2021-03-25T00:05:46Z</time>
      </trkpt>
      <trkpt lat="47.12839" lon="-1.11955">
        <ele>82</ele>
        <time>2021-03-25T00:05:50Z</time>
      </trkpt>
      <trkpt lat="47.12814" lon="-1.11963">
        <ele>82</ele>
        <time>2021-03-25T00:05:55Z</time>
      </trkpt>
      <trkpt lat="47.12791" lon="-1.11974">
        <ele>82</ele>
        <time>2021-03-25T00:05:59Z</time>
      </trkpt>
      <trkpt lat="47.12713" lon="-1.12018">
        <ele>83</ele>
        <time>2021-03-25T00:06:14Z</time>
      </trkpt>
      <trkpt lat="47.1257" lon="-1.12108">
        <ele>85</ele>
        <time>2021-03-25T00:06:42Z</time>
      </trkpt>
      <trkpt lat="47.12512" lon="-1.1215">
        <ele>85</ele>
        <time>2021-03-25T00:06:53Z</time>
      </trkpt>
      <trkpt lat="47.12489" lon="-1.1216">
        <ele>85</ele>
        <time>2021-03-25T00:06:57Z</time>
      </trkpt>
      <trkpt lat="47.12477" lon="-1.1216">
        <ele>84</ele>
        <time>2021-03-25T00:07:00Z</time>
      </trkpt>
      <trkpt lat="47.12459" lon="-1.12157">
        <ele>84</ele>
        <time>2021-03-25T00:07:03Z</time>
      </trkpt>
      <trkpt lat="47.12293" lon="-1.1212">
        <ele>81</ele>
        <time>2021-03-25T00:07:33Z</time>
      </trkpt>
      <trkpt lat="47.12258" lon="-1.12118">
        <ele>83</ele>
        <time>2021-03-25T00:07:39Z</time>
      </trkpt>
      <trkpt lat="47.12245" lon="-1.1212">
        <ele>84</ele>
        <time>2021-03-25T00:07:41Z</time>
      </trkpt>
      <trkpt lat="47.12227" lon="-1.12128">
        <ele>84</ele>
        <time>2021-03-25T00:07:45Z</time>
      </trkpt>
      <trkpt lat="47.12202" lon="-1.12143">
        <ele>84</ele>
        <time>2021-03-25T00:07:49Z</time>
      </trkpt>
      <trkpt lat="47.12088" lon="-1.12251">
        <ele>80</ele>
        <time>2021-03-25T00:08:14Z</time>
      </trkpt>
      <trkpt lat="47.12054" lon="-1.12278">
        <ele>79</ele>
        <time>2021-03-25T00:08:20Z</time>
      </trkpt>
      <trkpt lat="47.11918" lon="-1.1237">
        <ele>77</ele>
        <time>2021-03-25T00:08:47Z</time>
      </trkpt>
      <trkpt lat="47.11899" lon="-1.12381">
        <ele>76</ele>
        <time>2021-03-25T00:08:51Z</time>
      </trkpt>
      <trkpt lat="47.11868" lon="-1.12394">
        <ele>75</ele>
        <time>2021-03-25T00:08:56Z</time>
      </trkpt>
      <trkpt lat="47.11856" lon="-1.1239">
        <ele>74</ele>
        <time>2021-03-25T00:08:59Z</time>
      </trkpt>
      <trkpt lat="47.11834" lon="-1.12378">
        <ele>74</ele>
        <time>2021-03-25T00:09:03Z</time>
      </trkpt>
      <trkpt lat="47.11792" lon="-1.12351">
        <ele>73</ele>
        <time>2021-03-25T00:09:11Z</time>
      </trkpt>
      <trkpt lat="47.11745" lon="-1.12313">
        <ele>72</ele>
        <time>2021-03-25T00:09:20Z</time>
      </trkpt>
      <trkpt lat="47.1173" lon="-1.12289">
        <ele>73</ele>
        <time>2021-03-25T00:09:24Z</time>
      </trkpt>
      <trkpt lat="47.11722" lon="-1.12284">
        <ele>73</ele>
        <time>2021-03-25T00:09:26Z</time>
      </trkpt>
      <trkpt lat="47.11718" lon="-1.12264">
        <ele>73</ele>
        <time>2021-03-25T00:09:28Z</time>
      </trkpt>
      <trkpt lat="47.11706" lon="-1.12242">
        <ele>73</ele>
        <time>2021-03-25T00:09:32Z</time>
      </trkpt>
      <trkpt lat="47.11647" lon="-1.1218">
        <ele>73</ele>
        <time>2021-03-25T00:09:45Z</time>
      </trkpt>
      <trkpt lat="47.11635" lon="-1.12172">
        <ele>74</ele>
        <time>2021-03-25T00:09:47Z</time>
      </trkpt>
      <trkpt lat="47.11618" lon="-1.12164">
        <ele>74</ele>
        <time>2021-03-25T00:09:50Z</time>
      </trkpt>
      <trkpt lat="47.11597" lon="-1.12159">
        <ele>75</ele>
        <time>2021-03-25T00:09:54Z</time>
      </trkpt>
      <trkpt lat="47.11577" lon="-1.12158">
        <ele>75</ele>
        <time>2021-03-25T00:09:58Z</time>
      </trkpt>
      <trkpt lat="47.11542" lon="-1.12163">
        <ele>76</ele>
        <time>2021-03-25T00:10:04Z</time>
      </trkpt>
      <trkpt lat="47.11522" lon="-1.12168">
        <ele>77</ele>
        <time>2021-03-25T00:10:08Z</time>
      </trkpt>
      <trkpt lat="47.11489" lon="-1.12184">
        <ele>78</ele>
        <time>2021-03-25T00:10:14Z</time>
      </trkpt>
      <trkpt lat="47.11445" lon="-1.12215">
        <ele>79</ele>
        <time>2021-03-25T00:10:22Z</time>
      </trkpt>
      <trkpt lat="47.11421" lon="-1.12237">
        <ele>79</ele>
        <time>2021-03-25T00:10:27Z</time>
      </trkpt>
      <trkpt lat="47.11388" lon="-1.12278">
        <ele>78</ele>
        <time>2021-03-25T00:10:35Z</time>
      </trkpt>
      <trkpt lat="47.11351" lon="-1.12333">
        <ele>76</ele>
        <time>2021-03-25T00:10:44Z</time>
      </trkpt>
      <trkpt lat="47.11319" lon="-1.12365">
        <ele>75</ele>
        <time>2021-03-25T00:10:51Z</time>
      </trkpt>
      <trkpt lat="47.11271" lon="-1.12398">
        <ele>75</ele>
        <time>2021-03-25T00:11:01Z</time>
      </trkpt>
      <trkpt lat="47.11247" lon="-1.1241">
        <ele>75</ele>
        <time>2021-03-25T00:11:05Z</time>
      </trkpt>
      <trkpt lat="47.11231" lon="-1.12414">
        <ele>73</ele>
        <time>2021-03-25T00:11:08Z</time>
      </trkpt>
      <trkpt lat="47.112" lon="-1.12413">
        <ele>70</ele>
        <time>2021-03-25T00:11:14Z</time>
      </trkpt>
      <trkpt lat="47.11168" lon="-1.12402">
        <ele>68</ele>
        <time>2021-03-25T00:11:20Z</time>
      </trkpt>
      <trkpt lat="47.11114" lon="-1.12374">
        <ele>66</ele>
        <time>2021-03-25T00:11:30Z</time>
      </trkpt>
      <trkpt lat="47.10884" lon="-1.1224">
        <ele>64</ele>
        <time>2021-03-25T00:12:14Z</time>
      </trkpt>
      <trkpt lat="47.10847" lon="-1.12225">
        <ele>68</ele>
        <time>2021-03-25T00:12:21Z</time>
      </trkpt>
      <trkpt lat="47.10832" lon="-1.1222">
        <ele>70</ele>
        <time>2021-03-25T00:12:23Z</time>
      </trkpt>
      <trkpt lat="47.10805" lon="-1.12216">
        <ele>72</ele>
        <time>2021-03-25T00:12:28Z</time>
      </trkpt>
      <trkpt lat="47.10765" lon="-1.12217">
        <ele>74</ele>
        <time>2021-03-25T00:12:35Z</time>
      </trkpt>
      <trkpt lat="47.10741" lon="-1.12222">
        <ele>75</ele>
        <time>2021-03-25T00:12:40Z</time>
      </trkpt>
      <trkpt lat="47.10716" lon="-1.1223">
        <ele>77</ele>
        <time>2021-03-25T00:12:44Z</time>
      </trkpt>
      <trkpt lat="47.10684" lon="-1.12248">
        <ele>78</ele>
        <time>2021-03-25T00:12:50Z</time>
      </trkpt>
      <trkpt lat="47.10562" lon="-1.12333">
        <ele>77</ele>
        <time>2021-03-25T00:13:14Z</time>
      </trkpt>
      <trkpt lat="47.10503" lon="-1.12369">
        <ele>73</ele>
        <time>2021-03-25T00:13:26Z</time>
      </trkpt>
      <trkpt lat="47.1044" lon="-1.12396">
        <ele>72</ele>
        <time>2021-03-25T00:13:37Z</time>
      </trkpt>
      <trkpt lat="47.10286" lon="-1.12448">
        <ele>68</ele>
        <time>2021-03-25T00:14:05Z</time>
      </trkpt>
      <trkpt lat="47.10194" lon="-1.12473">
        <ele>65</ele>
        <time>2021-03-25T00:14:22Z</time>
      </trkpt>
      <trkpt lat="47.10114" lon="-1.12492">
        <ele>60</ele>
        <time>2021-03-25T00:14:37Z</time>
      </trkpt>
      <trkpt lat="47.10105" lon="-1.12493">
        <ele>60</ele>
        <time>2021-03-25T00:14:38Z</time>
      </trkpt>
      <trkpt lat="47.10085" lon="-1.1249">
        <ele>58</ele>
        <time>2021-03-25T00:14:42Z</time>
      </trkpt>
      <trkpt lat="47.10051" lon="-1.12478">
        <ele>56</ele>
        <time>2021-03-25T00:14:48Z</time>
      </trkpt>
      <trkpt lat="47.10022" lon="-1.12462">
        <ele>53</ele>
        <time>2021-03-25T00:14:53Z</time>
      </trkpt>
      <trkpt lat="47.0996" lon="-1.12591">
        <ele>50</ele>
        <time>2021-03-25T00:15:13Z</time>
      </trkpt>
      <trkpt lat="47.09917" lon="-1.12672">
        <ele>46</ele>
        <time>2021-03-25T00:15:25Z</time>
      </trkpt>
      <trkpt lat="47.09858" lon="-1.12723">
        <ele>41</ele>
        <time>2021-03-25T00:15:37Z</time>
      </trkpt>
      <trkpt lat="47.09854" lon="-1.12725">
        <ele>41</ele>
        <time>2021-03-25T00:15:38Z</time>
      </trkpt>
      <trkpt lat="47.09844" lon="-1.12723">
        <ele>40</ele>
        <time>2021-03-25T00:15:40Z</time>
      </trkpt>
      <trkpt lat="47.09837" lon="-1.12715">
        <ele>38</ele>
        <time>2021-03-25T00:15:41Z</time>
      </trkpt>
      <trkpt lat="47.09805" lon="-1.1266">
        <ele>34</ele>
        <time>2021-03-25T00:15:50Z</time>
      </trkpt>
      <trkpt lat="47.09792" lon="-1.12644">
        <ele>34</ele>
        <time>2021-03-25T00:15:53Z</time>
      </trkpt>
      <trkpt lat="47.09758" lon="-1.12611">
        <ele>34</ele>
        <time>2021-03-25T00:16:00Z</time>
      </trkpt>
      <trkpt lat="47.0975" lon="-1.12604">
        <ele>34</ele>
        <time>2021-03-25T00:16:02Z</time>
      </trkpt>
      <trkpt lat="47.09718" lon="-1.1259">
        <ele>35</ele>
        <time>2021-03-25T00:16:08Z</time>
      </trkpt>
      <trkpt lat="47.09717" lon="-1.12594">
        <ele>35</ele>
        <time>2021-03-25T00:16:08Z</time>
      </trkpt>
      <trkpt lat="47.09712" lon="-1.126">
        <ele>35</ele>
        <time>2021-03-25T00:16:10Z</time>
      </trkpt>
      <trkpt lat="47.09706" lon="-1.126">
        <ele>35</ele>
        <time>2021-03-25T00:16:11Z</time>
      </trkpt>
      <trkpt lat="47.09701" lon="-1.12596">
        <ele>35</ele>
        <time>2021-03-25T00:16:12Z</time>
      </trkpt>
      <trkpt lat="47.09699" lon="-1.12584">
        <ele>35</ele>
        <time>2021-03-25T00:16:13Z</time>
      </trkpt>
      <trkpt lat="47.09666" lon="-1.12576">
        <ele>36</ele>
        <time>2021-03-25T00:16:19Z</time>
      </trkpt>
      <trkpt lat="47.09626" lon="-1.12533">
        <ele>38</ele>
        <time>2021-03-25T00:16:28Z</time>
      </trkpt>
      <trkpt lat="47.096" lon="-1.1249">
        <ele>39</ele>
        <time>2021-03-25T00:16:35Z</time>
      </trkpt>
      <trkpt lat="47.09588" lon="-1.12452">
        <ele>41</ele>
        <time>2021-03-25T00:16:40Z</time>
      </trkpt>
      <trkpt lat="47.09488" lon="-1.12067">
        <ele>57</ele>
        <time>2021-03-25T00:17:30Z</time>
      </trkpt>
      <trkpt lat="47.09479" lon="-1.12039">
        <ele>58</ele>
        <time>2021-03-25T00:17:34Z</time>
      </trkpt>
      <trkpt lat="47.09435" lon="-1.11897">
        <ele>56</ele>
        <time>2021-03-25T00:17:53Z</time>
      </trkpt>
      <trkpt lat="47.0936" lon="-1.11669">
        <ele>64</ele>
        <time>2021-03-25T00:18:23Z</time>
      </trkpt>
      <trkpt lat="47.09345" lon="-1.11627">
        <ele>66</ele>
        <time>2021-03-25T00:18:29Z</time>
      </trkpt>
      <trkpt lat="47.09308" lon="-1.11547">
        <ele>68</ele>
        <time>2021-03-25T00:18:41Z</time>
      </trkpt>
      <trkpt lat="47.09289" lon="-1.11494">
        <ele>69</ele>
        <time>2021-03-25T00:18:48Z</time>
      </trkpt>
      <trkpt lat="47.09193" lon="-1.11125">
        <ele>75</ele>
        <time>2021-03-25T00:19:36Z</time>
      </trkpt>
      <trkpt lat="47.09111" lon="-1.10907">
        <ele>76</ele>
        <time>2021-03-25T00:20:06Z</time>
      </trkpt>
      <trkpt lat="47.09096" lon="-1.10862">
        <ele>75</ele>
        <time>2021-03-25T00:20:12Z</time>
      </trkpt>
      <trkpt lat="47.09092" lon="-1.10836">
        <ele>75</ele>
        <time>2021-03-25T00:20:15Z</time>
      </trkpt>
      <trkpt lat="47.09053" lon="-1.10504">
        <ele>79</ele>
        <time>2021-03-25T00:20:56Z</time>
      </trkpt>
      <trkpt lat="47.09042" lon="-1.10434">
        <ele>79</ele>
        <time>2021-03-25T00:21:05Z</time>
      </trkpt>
      <trkpt lat="47.09034" lon="-1.10404">
        <ele>80</ele>
        <time>2021-03-25T00:21:09Z</time>
      </trkpt>
      <trkpt lat="47.09023" lon="-1.10377">
        <ele>79</ele>
        <time>2021-03-25T00:21:12Z</time>
      </trkpt>
      <trkpt lat="47.09011" lon="-1.10351">
        <ele>79</ele>
        <time>2021-03-25T00:21:16Z</time>
      </trkpt>
      <trkpt lat="47.08983" lon="-1.10308">
        <ele>80</ele>
        <time>2021-03-25T00:21:23Z</time>
      </trkpt>
      <trkpt lat="47.08946" lon="-1.10263">
        <ele>81</ele>
        <time>2021-03-25T00:21:32Z</time>
      </trkpt>
      <trkpt lat="47.08917" lon="-1.10234">
        <ele>82</ele>
        <time>2021-03-25T00:21:38Z</time>
      </trkpt>
      <trkpt lat="47.089" lon="-1.10213">
        <ele>81</ele>
        <time>2021-03-25T00:21:42Z</time>
      </trkpt>
      <trkpt lat="47.08885" lon="-1.10187">
        <ele>81</ele>
        <time>2021-03-25T00:21:46Z</time>
      </trkpt>
      <trkpt lat="47.08879" lon="-1.10174">
        <ele>81</ele>
        <time>2021-03-25T00:21:48Z</time>
      </trkpt>
      <trkpt lat="47.08872" lon="-1.10152">
        <ele>81</ele>
        <time>2021-03-25T00:21:51Z</time>
      </trkpt>
      <trkpt lat="47.08742" lon="-1.09597">
        <ele>85</ele>
        <time>2021-03-25T00:23:02Z</time>
      </trkpt>
      <trkpt lat="47.0873" lon="-1.09556">
        <ele>85</ele>
        <time>2021-03-25T00:23:08Z</time>
      </trkpt>
      <trkpt lat="47.08706" lon="-1.09488">
        <ele>86</ele>
        <time>2021-03-25T00:23:17Z</time>
      </trkpt>
      <trkpt lat="47.08681" lon="-1.09434">
        <ele>85</ele>
        <time>2021-03-25T00:23:25Z</time>
      </trkpt>
      <trkpt lat="47.08636" lon="-1.09355">
        <ele>86</ele>
        <time>2021-03-25T00:23:37Z</time>
      </trkpt>
      <trkpt lat="47.08577" lon="-1.09262">
        <ele>86</ele>
        <time>2021-03-25T00:23:53Z</time>
      </trkpt>
      <trkpt lat="47.08529" lon="-1.09173">
        <ele>88</ele>
        <time>2021-03-25T00:24:07Z</time>
      </trkpt>
      <trkpt lat="47.08489" lon="-1.09077">
        <ele>88</ele>
        <time>2021-03-25T00:24:20Z</time>
      </trkpt>
      <trkpt lat="47.08472" lon="-1.09029">
        <ele>88</ele>
        <time>2021-03-25T00:24:27Z</time>
      </trkpt>
      <trkpt lat="47.08447" lon="-1.08941">
        <ele>88</ele>
        <time>2021-03-25T00:24:38Z</time>
      </trkpt>
      <trkpt lat="47.08423" lon="-1.08837">
        <ele>89</ele>
        <time>2021-03-25T00:24:52Z</time>
      </trkpt>
      <trkpt lat="47.08214" lon="-1.07799">
        <ele>89</ele>
        <time>2021-03-25T00:27:03Z</time>
      </trkpt>
      <trkpt lat="47.08205" lon="-1.07762">
        <ele>89</ele>
        <time>2021-03-25T00:27:08Z</time>
      </trkpt>
      <trkpt lat="47.08193" lon="-1.07724">
        <ele>90</ele>
        <time>2021-03-25T00:27:13Z</time>
      </trkpt>
      <trkpt lat="47.08161" lon="-1.07641">
        <ele>92</ele>
        <time>2021-03-25T00:27:24Z</time>
      </trkpt>
      <trkpt lat="47.08061" lon="-1.07437">
        <ele>96</ele>
        <time>2021-03-25T00:27:55Z</time>
      </trkpt>
      <trkpt lat="47.08048" lon="-1.07415">
        <ele>96</ele>
        <time>2021-03-25T00:27:58Z</time>
      </trkpt>
      <trkpt lat="47.08038" lon="-1.07401">
        <ele>97</ele>
        <time>2021-03-25T00:28:01Z</time>
      </trkpt>
      <trkpt lat="47.08011" lon="-1.07376">
        <ele>97</ele>
        <time>2021-03-25T00:28:06Z</time>
      </trkpt>
      <trkpt lat="47.07938" lon="-1.07322">
        <ele>98</ele>
        <time>2021-03-25T00:28:21Z</time>
      </trkpt>
      <trkpt lat="47.07921" lon="-1.07308">
        <ele>98</ele>
        <time>2021-03-25T00:28:24Z</time>
      </trkpt>
      <trkpt lat="47.07906" lon="-1.07291">
        <ele>99</ele>
        <time>2021-03-25T00:28:28Z</time>
      </trkpt>
      <trkpt lat="47.07896" lon="-1.07275">
        <ele>99</ele>
        <time>2021-03-25T00:28:30Z</time>
      </trkpt>
      <trkpt lat="47.07879" lon="-1.07241">
        <ele>100</ele>
        <time>2021-03-25T00:28:35Z</time>
      </trkpt>
      <trkpt lat="47.07836" lon="-1.0714">
        <ele>103</ele>
        <time>2021-03-25T00:28:50Z</time>
      </trkpt>
      <trkpt lat="47.07806" lon="-1.07076">
        <ele>106</ele>
        <time>2021-03-25T00:28:59Z</time>
      </trkpt>
      <trkpt lat="47.07776" lon="-1.07019">
        <ele>108</ele>
        <time>2021-03-25T00:29:08Z</time>
      </trkpt>
      <trkpt lat="47.07743" lon="-1.06972">
        <ele>110</ele>
        <time>2021-03-25T00:29:16Z</time>
      </trkpt>
      <trkpt lat="47.07704" lon="-1.06928">
        <ele>112</ele>
        <time>2021-03-25T00:29:25Z</time>
      </trkpt>
      <trkpt lat="47.07597" lon="-1.0682">
        <ele>112</ele>
        <time>2021-03-25T00:29:48Z</time>
      </trkpt>
      <trkpt lat="47.07581" lon="-1.068">
        <ele>112</ele>
        <time>2021-03-25T00:29:52Z</time>
      </trkpt>
      <trkpt lat="47.07539" lon="-1.06734">
        <ele>111</ele>
        <time>2021-03-25T00:30:03Z</time>
      </trkpt>
      <trkpt lat="47.07527" lon="-1.06711">
        <ele>110</ele>
        <time>2021-03-25T00:30:06Z</time>
      </trkpt>
      <trkpt lat="47.07519" lon="-1.0669">
        <ele>110</ele>
        <time>2021-03-25T00:30:09Z</time>
      </trkpt>
      <trkpt lat="47.07512" lon="-1.06666">
        <ele>109</ele>
        <time>2021-03-25T00:30:12Z</time>
      </trkpt>
      <trkpt lat="47.07486" lon="-1.06527">
        <ele>111</ele>
        <time>2021-03-25T00:30:30Z</time>
      </trkpt>
      <trkpt lat="47.07467" lon="-1.06447">
        <ele>112</ele>
        <time>2021-03-25T00:30:40Z</time>
      </trkpt>
      <trkpt lat="47.07428" lon="-1.06344">
        <ele>113</ele>
        <time>2021-03-25T00:30:54Z</time>
      </trkpt>
      <trkpt lat="47.07418" lon="-1.06315">
        <ele>113</ele>
        <time>2021-03-25T00:30:58Z</time>
      </trkpt>
      <trkpt lat="47.07352" lon="-1.06058">
        <ele>115</ele>
        <time>2021-03-25T00:31:32Z</time>
      </trkpt>
      <trkpt lat="47.07329" lon="-1.06001">
        <ele>115</ele>
        <time>2021-03-25T00:31:40Z</time>
      </trkpt>
      <trkpt lat="47.07276" lon="-1.05886">
        <ele>116</ele>
        <time>2021-03-25T00:31:56Z</time>
      </trkpt>
      <trkpt lat="47.07261" lon="-1.05847">
        <ele>115</ele>
        <time>2021-03-25T00:32:02Z</time>
      </trkpt>
      <trkpt lat="47.07255" lon="-1.05824">
        <ele>115</ele>
        <time>2021-03-25T00:32:05Z</time>
      </trkpt>
      <trkpt lat="47.07192" lon="-1.05472">
        <ele>104</ele>
        <time>2021-03-25T00:32:49Z</time>
      </trkpt>
      <trkpt lat="47.07189" lon="-1.05423">
        <ele>103</ele>
        <time>2021-03-25T00:32:55Z</time>
      </trkpt>
      <trkpt lat="47.0719" lon="-1.0536">
        <ele>101</ele>
        <time>2021-03-25T00:33:02Z</time>
      </trkpt>
      <trkpt lat="47.07208" lon="-1.05121">
        <ele>102</ele>
        <time>2021-03-25T00:33:32Z</time>
      </trkpt>
      <trkpt lat="47.07208" lon="-1.05077">
        <ele>105</ele>
        <time>2021-03-25T00:33:37Z</time>
      </trkpt>
      <trkpt lat="47.07202" lon="-1.05032">
        <ele>106</ele>
        <time>2021-03-25T00:33:42Z</time>
      </trkpt>
      <trkpt lat="47.07192" lon="-1.04992">
        <ele>107</ele>
        <time>2021-03-25T00:33:48Z</time>
      </trkpt>
      <trkpt lat="47.07168" lon="-1.04925">
        <ele>109</ele>
        <time>2021-03-25T00:33:57Z</time>
      </trkpt>
      <trkpt lat="47.07144" lon="-1.04872">
        <ele>110</ele>
        <time>2021-03-25T00:34:05Z</time>
      </trkpt>
      <trkpt lat="47.07122" lon="-1.04832">
        <ele>111</ele>
        <time>2021-03-25T00:34:11Z</time>
      </trkpt>
      <trkpt lat="47.07111" lon="-1.04815">
        <ele>112</ele>
        <time>2021-03-25T00:34:14Z</time>
      </trkpt>
      <trkpt lat="47.07081" lon="-1.04779">
        <ele>112</ele>
        <time>2021-03-25T00:34:21Z</time>
      </trkpt>
      <trkpt lat="47.07045" lon="-1.04747">
        <ele>113</ele>
        <time>2021-03-25T00:34:28Z</time>
      </trkpt>
      <trkpt lat="47.06946" lon="-1.04686">
        <ele>115</ele>
        <time>2021-03-25T00:34:47Z</time>
      </trkpt>
      <trkpt lat="47.06891" lon="-1.04646">
        <ele>115</ele>
        <time>2021-03-25T00:34:58Z</time>
      </trkpt>
      <trkpt lat="47.06583" lon="-1.04409">
        <ele>124</ele>
        <time>2021-03-25T00:36:00Z</time>
      </trkpt>
      <trkpt lat="47.06564" lon="-1.04387">
        <ele>125</ele>
        <time>2021-03-25T00:36:04Z</time>
      </trkpt>
      <trkpt lat="47.06536" lon="-1.04352">
        <ele>126</ele>
        <time>2021-03-25T00:36:11Z</time>
      </trkpt>
      <trkpt lat="47.06491" lon="-1.04281">
        <ele>127</ele>
        <time>2021-03-25T00:36:23Z</time>
      </trkpt>
      <trkpt lat="47.06469" lon="-1.04233">
        <ele>127</ele>
        <time>2021-03-25T00:36:30Z</time>
      </trkpt>
      <trkpt lat="47.06457" lon="-1.04191">
        <ele>126</ele>
        <time>2021-03-25T00:36:35Z</time>
      </trkpt>
      <trkpt lat="47.06451" lon="-1.04166">
        <ele>125</ele>
        <time>2021-03-25T00:36:38Z</time>
      </trkpt>
      <trkpt lat="47.06445" lon="-1.04128">
        <ele>125</ele>
        <time>2021-03-25T00:36:43Z</time>
      </trkpt>
      <trkpt lat="47.06437" lon="-1.04044">
        <ele>124</ele>
        <time>2021-03-25T00:36:53Z</time>
      </trkpt>
      <trkpt lat="47.06435" lon="-1.03997">
        <ele>125</ele>
        <time>2021-03-25T00:36:59Z</time>
      </trkpt>
      <trkpt lat="47.06434" lon="-1.03938">
        <ele>123</ele>
        <time>2021-03-25T00:37:06Z</time>
      </trkpt>
      <trkpt lat="47.06439" lon="-1.03893">
        <ele>123</ele>
        <time>2021-03-25T00:37:12Z</time>
      </trkpt>
      <trkpt lat="47.06445" lon="-1.03859">
        <ele>123</ele>
        <time>2021-03-25T00:37:16Z</time>
      </trkpt>
      <trkpt lat="47.0646" lon="-1.03801">
        <ele>122</ele>
        <time>2021-03-25T00:37:23Z</time>
      </trkpt>
      <trkpt lat="47.06468" lon="-1.03759">
        <ele>121</ele>
        <time>2021-03-25T00:37:29Z</time>
      </trkpt>
      <trkpt lat="47.06472" lon="-1.03721">
        <ele>121</ele>
        <time>2021-03-25T00:37:33Z</time>
      </trkpt>
      <trkpt lat="47.06472" lon="-1.03658">
        <ele>121</ele>
        <time>2021-03-25T00:37:41Z</time>
      </trkpt>
      <trkpt lat="47.0647" lon="-1.03635">
        <ele>121</ele>
        <time>2021-03-25T00:37:44Z</time>
      </trkpt>
      <trkpt lat="47.06445" lon="-1.03283">
        <ele>117</ele>
        <time>2021-03-25T00:38:27Z</time>
      </trkpt>
      <trkpt lat="47.06439" lon="-1.03244">
        <ele>117</ele>
        <time>2021-03-25T00:38:32Z</time>
      </trkpt>
      <trkpt lat="47.06425" lon="-1.03173">
        <ele>116</ele>
        <time>2021-03-25T00:38:41Z</time>
      </trkpt>
      <trkpt lat="47.06417" lon="-1.03124">
        <ele>114</ele>
        <time>2021-03-25T00:38:47Z</time>
      </trkpt>
      <trkpt lat="47.06413" lon="-1.03125">
        <ele>115</ele>
        <time>2021-03-25T00:38:47Z</time>
      </trkpt>
      <trkpt lat="47.06405" lon="-1.03121">
        <ele>115</ele>
        <time>2021-03-25T00:38:49Z</time>
      </trkpt>
      <trkpt lat="47.06401" lon="-1.03111">
        <ele>114</ele>
        <time>2021-03-25T00:38:50Z</time>
      </trkpt>
      <trkpt lat="47.06401" lon="-1.03099">
        <ele>114</ele>
        <time>2021-03-25T00:38:52Z</time>
      </trkpt>
      <trkpt lat="47.06407" lon="-1.03089">
        <ele>113</ele>
        <time>2021-03-25T00:38:53Z</time>
      </trkpt>
      <trkpt lat="47.06411" lon="-1.03087">
        <ele>113</ele>
        <time>2021-03-25T00:38:54Z</time>
      </trkpt>
      <trkpt lat="47.06371" lon="-1.02887">
        <ele>112</ele>
        <time>2021-03-25T00:39:19Z</time>
      </trkpt>
      <trkpt lat="47.06356" lon="-1.0284">
        <ele>112</ele>
        <time>2021-03-25T00:39:26Z</time>
      </trkpt>
      <trkpt lat="47.06302" lon="-1.02694">
        <ele>109</ele>
        <time>2021-03-25T00:39:46Z</time>
      </trkpt>
      <trkpt lat="47.06288" lon="-1.0266">
        <ele>108</ele>
        <time>2021-03-25T00:39:51Z</time>
      </trkpt>
      <trkpt lat="47.06278" lon="-1.02641">
        <ele>107</ele>
        <time>2021-03-25T00:39:53Z</time>
      </trkpt>
      <trkpt lat="47.06211" lon="-1.0253">
        <ele>105</ele>
        <time>2021-03-25T00:40:11Z</time>
      </trkpt>
      <trkpt lat="47.06094" lon="-1.02348">
        <ele>105</ele>
        <time>2021-03-25T00:40:42Z</time>
      </trkpt>
      <trkpt lat="47.06085" lon="-1.0234">
        <ele>105</ele>
        <time>2021-03-25T00:40:44Z</time>
      </trkpt>
      <trkpt lat="47.06077" lon="-1.02337">
        <ele>105</ele>
        <time>2021-03-25T00:40:45Z</time>
      </trkpt>
      <trkpt lat="47.0608" lon="-1.02318">
        <ele>105</ele>
        <time>2021-03-25T00:40:47Z</time>
      </trkpt>
      <trkpt lat="47.06079" lon="-1.02268">
        <ele>104</ele>
        <time>2021-03-25T00:40:54Z</time>
      </trkpt>
      <trkpt lat="47.0604" lon="-1.02013">
        <ele>97</ele>
        <time>2021-03-25T00:41:25Z</time>
      </trkpt>
      <trkpt lat="47.06029" lon="-1.01911">
        <ele>94</ele>
        <time>2021-03-25T00:41:38Z</time>
      </trkpt>
      <trkpt lat="47.05986" lon="-1.01449">
        <ele>94</ele>
        <time>2021-03-25T00:42:34Z</time>
      </trkpt>
      <trkpt lat="47.05958" lon="-1.01231">
        <ele>91</ele>
        <time>2021-03-25T00:43:01Z</time>
      </trkpt>
      <trkpt lat="47.05942" lon="-1.01159">
        <ele>90</ele>
        <time>2021-03-25T00:43:10Z</time>
      </trkpt>
      <trkpt lat="47.05937" lon="-1.01115">
        <ele>90</ele>
        <time>2021-03-25T00:43:16Z</time>
      </trkpt>
      <trkpt lat="47.05931" lon="-1.01099">
        <ele>91</ele>
        <time>2021-03-25T00:43:18Z</time>
      </trkpt>
      <trkpt lat="47.05903" lon="-1.01089">
        <ele>91</ele>
        <time>2021-03-25T00:43:23Z</time>
      </trkpt>
      <trkpt lat="47.05886" lon="-1.01105">
        <ele>91</ele>
        <time>2021-03-25T00:43:27Z</time>
      </trkpt>
      <trkpt lat="47.05868" lon="-1.01118">
        <ele>90</ele>
        <time>2021-03-25T00:43:30Z</time>
      </trkpt>
      <trkpt lat="47.05843" lon="-1.01142">
        <ele>91</ele>
        <time>2021-03-25T00:43:36Z</time>
      </trkpt>
      <trkpt lat="47.05827" lon="-1.0116">
        <ele>91</ele>
        <time>2021-03-25T00:43:39Z</time>
      </trkpt>
      <trkpt lat="47.05814" lon="-1.01177">
        <ele>91</ele>
        <time>2021-03-25T00:43:42Z</time>
      </trkpt>
      <trkpt lat="47.05795" lon="-1.01209">
        <ele>92</ele>
        <time>2021-03-25T00:43:47Z</time>
      </trkpt>
      <trkpt lat="47.05661" lon="-1.01447">
        <ele>98</ele>
        <time>2021-03-25T00:44:25Z</time>
      </trkpt>
      <trkpt lat="47.0561" lon="-1.01388">
        <ele>100</ele>
        <time>2021-03-25T00:44:36Z</time>
      </trkpt>
      <trkpt lat="47.0558" lon="-1.0134">
        <ele>102</ele>
        <time>2021-03-25T00:44:44Z</time>
      </trkpt>
      <trkpt lat="47.05554" lon="-1.01291">
        <ele>101</ele>
        <time>2021-03-25T00:44:52Z</time>
      </trkpt>
      <trkpt lat="47.05538" lon="-1.01255">
        <ele>101</ele>
        <time>2021-03-25T00:44:57Z</time>
      </trkpt>
      <trkpt lat="47.05531" lon="-1.01235">
        <ele>100</ele>
        <time>2021-03-25T00:45:00Z</time>
      </trkpt>
      <trkpt lat="47.05523" lon="-1.01203">
        <ele>99</ele>
        <time>2021-03-25T00:45:04Z</time>
      </trkpt>
      <trkpt lat="47.05515" lon="-1.0114">
        <ele>97</ele>
        <time>2021-03-25T00:45:12Z</time>
      </trkpt>
      <trkpt lat="47.05507" lon="-1.01099">
        <ele>97</ele>
        <time>2021-03-25T00:45:17Z</time>
      </trkpt>
      <trkpt lat="47.05495" lon="-1.01072">
        <ele>98</ele>
        <time>2021-03-25T00:45:21Z</time>
      </trkpt>
      <trkpt lat="47.0538" lon="-1.009">
        <ele>103</ele>
        <time>2021-03-25T00:45:50Z</time>
      </trkpt>
      <trkpt lat="47.0537" lon="-1.00889">
        <ele>103</ele>
        <time>2021-03-25T00:45:52Z</time>
      </trkpt>
      <trkpt lat="47.05311" lon="-1.00843">
        <ele>104</ele>
        <time>2021-03-25T00:46:04Z</time>
      </trkpt>
      <trkpt lat="47.05298" lon="-1.0083">
        <ele>104</ele>
        <time>2021-03-25T00:46:07Z</time>
      </trkpt>
      <trkpt lat="47.05286" lon="-1.00812">
        <ele>104</ele>
        <time>2021-03-25T00:46:10Z</time>
      </trkpt>
      <trkpt lat="47.05271" lon="-1.00787">
        <ele>104</ele>
        <time>2021-03-25T00:46:14Z</time>
      </trkpt>
      <trkpt lat="47.05141" lon="-1.00505">
        <ele>106</ele>
        <time>2021-03-25T00:46:55Z</time>
      </trkpt>
      <trkpt lat="47.05121" lon="-1.00456">
        <ele>106</ele>
        <time>2021-03-25T00:47:02Z</time>
      </trkpt>
      <trkpt lat="47.05107" lon="-1.00406">
        <ele>106</ele>
        <time>2021-03-25T00:47:09Z</time>
      </trkpt>
      <trkpt lat="47.05064" lon="-1.00212">
        <ele>104</ele>
        <time>2021-03-25T00:47:33Z</time>
      </trkpt>
      <trkpt lat="47.0494" lon="-0.99725">
        <ele>95</ele>
        <time>2021-03-25T00:48:36Z</time>
      </trkpt>
      <trkpt lat="47.0492" lon="-0.9968">
        <ele>95</ele>
        <time>2021-03-25T00:48:43Z</time>
      </trkpt>
      <trkpt lat="47.0484" lon="-0.99581">
        <ele>96</ele>
        <time>2021-03-25T00:49:02Z</time>
      </trkpt>
      <trkpt lat="47.0482" lon="-0.99553">
        <ele>95</ele>
        <time>2021-03-25T00:49:06Z</time>
      </trkpt>
      <trkpt lat="47.04798" lon="-0.99518">
        <ele>94</ele>
        <time>2021-03-25T00:49:12Z</time>
      </trkpt>
      <trkpt lat="47.04641" lon="-0.99216">
        <ele>94</ele>
        <time>2021-03-25T00:49:58Z</time>
      </trkpt>
      <trkpt lat="47.04628" lon="-0.99184">
        <ele>94</ele>
        <time>2021-03-25T00:50:03Z</time>
      </trkpt>
      <trkpt lat="47.04613" lon="-0.99137">
        <ele>94</ele>
        <time>2021-03-25T00:50:09Z</time>
      </trkpt>
      <trkpt lat="47.04601" lon="-0.99089">
        <ele>93</ele>
        <time>2021-03-25T00:50:15Z</time>
      </trkpt>
      <trkpt lat="47.04586" lon="-0.98962">
        <ele>91</ele>
        <time>2021-03-25T00:50:31Z</time>
      </trkpt>
      <trkpt lat="47.04577" lon="-0.98909">
        <ele>91</ele>
        <time>2021-03-25T00:50:38Z</time>
      </trkpt>
      <trkpt lat="47.04555" lon="-0.9882">
        <ele>90</ele>
        <time>2021-03-25T00:50:49Z</time>
      </trkpt>
      <trkpt lat="47.04528" lon="-0.98652">
        <ele>88</ele>
        <time>2021-03-25T00:51:10Z</time>
      </trkpt>
      <trkpt lat="47.04525" lon="-0.9861">
        <ele>88</ele>
        <time>2021-03-25T00:51:15Z</time>
      </trkpt>
      <trkpt lat="47.04532" lon="-0.98534">
        <ele>88</ele>
        <time>2021-03-25T00:51:24Z</time>
      </trkpt>
      <trkpt lat="47.04531" lon="-0.98517">
        <ele>88</ele>
        <time>2021-03-25T00:51:26Z</time>
      </trkpt>
      <trkpt lat="47.04528" lon="-0.98498">
        <ele>88</ele>
        <time>2021-03-25T00:51:29Z</time>
      </trkpt>
      <trkpt lat="47.04521" lon="-0.98476">
        <ele>88</ele>
        <time>2021-03-25T00:51:32Z</time>
      </trkpt>
      <trkpt lat="47.0446" lon="-0.98338">
        <ele>85</ele>
        <time>2021-03-25T00:51:52Z</time>
      </trkpt>
      <trkpt lat="47.04427" lon="-0.98255">
        <ele>85</ele>
        <time>2021-03-25T00:52:03Z</time>
      </trkpt>
      <trkpt lat="47.04367" lon="-0.98082">
        <ele>84</ele>
        <time>2021-03-25T00:52:27Z</time>
      </trkpt>
      <trkpt lat="47.04351" lon="-0.98042">
        <ele>84</ele>
        <time>2021-03-25T00:52:33Z</time>
      </trkpt>
      <trkpt lat="47.04284" lon="-0.97903">
        <ele>82</ele>
        <time>2021-03-25T00:52:53Z</time>
      </trkpt>
      <trkpt lat="47.0427" lon="-0.97862">
        <ele>82</ele>
        <time>2021-03-25T00:52:59Z</time>
      </trkpt>
      <trkpt lat="47.04245" lon="-0.97766">
        <ele>81</ele>
        <time>2021-03-25T00:53:11Z</time>
      </trkpt>
      <trkpt lat="47.04236" lon="-0.9771">
        <ele>80</ele>
        <time>2021-03-25T00:53:18Z</time>
      </trkpt>
      <trkpt lat="47.04235" lon="-0.97686">
        <ele>79</ele>
        <time>2021-03-25T00:53:21Z</time>
      </trkpt>
      <trkpt lat="47.04243" lon="-0.97599">
        <ele>78</ele>
        <time>2021-03-25T00:53:32Z</time>
      </trkpt>
      <trkpt lat="47.04241" lon="-0.97575">
        <ele>78</ele>
        <time>2021-03-25T00:53:35Z</time>
      </trkpt>
      <trkpt lat="47.04238" lon="-0.97564">
        <ele>78</ele>
        <time>2021-03-25T00:53:36Z</time>
      </trkpt>
      <trkpt lat="47.04219" lon="-0.97533">
        <ele>77</ele>
        <time>2021-03-25T00:53:41Z</time>
      </trkpt>
      <trkpt lat="47.04159" lon="-0.97454">
        <ele>79</ele>
        <time>2021-03-25T00:53:56Z</time>
      </trkpt>
      <trkpt lat="47.0412" lon="-0.97394">
        <ele>81</ele>
        <time>2021-03-25T00:54:06Z</time>
      </trkpt>
      <trkpt lat="47.04096" lon="-0.97348">
        <ele>81</ele>
        <time>2021-03-25T00:54:13Z</time>
      </trkpt>
      <trkpt lat="47.04043" lon="-0.97231">
        <ele>79</ele>
        <time>2021-03-25T00:54:30Z</time>
      </trkpt>
      <trkpt lat="47.04013" lon="-0.97169">
        <ele>79</ele>
        <time>2021-03-25T00:54:39Z</time>
      </trkpt>
      <trkpt lat="47.03963" lon="-0.97082">
        <ele>79</ele>
        <time>2021-03-25T00:54:53Z</time>
      </trkpt>
      <trkpt lat="47.03929" lon="-0.97005">
        <ele>82</ele>
        <time>2021-03-25T00:55:04Z</time>
      </trkpt>
      <trkpt lat="47.03918" lon="-0.96985">
        <ele>83</ele>
        <time>2021-03-25T00:55:07Z</time>
      </trkpt>
      <trkpt lat="47.03891" lon="-0.96946">
        <ele>85</ele>
        <time>2021-03-25T00:55:14Z</time>
      </trkpt>
      <trkpt lat="47.03883" lon="-0.96931">
        <ele>85</ele>
        <time>2021-03-25T00:55:16Z</time>
      </trkpt>
      <trkpt lat="47.03872" lon="-0.96908">
        <ele>85</ele>
        <time>2021-03-25T00:55:19Z</time>
      </trkpt>
      <trkpt lat="47.0386" lon="-0.96856">
        <ele>86</ele>
        <time>2021-03-25T00:55:26Z</time>
      </trkpt>
      <trkpt lat="47.03848" lon="-0.96832">
        <ele>87</ele>
        <time>2021-03-25T00:55:30Z</time>
      </trkpt>
      <trkpt lat="47.03773" lon="-0.96742">
        <ele>90</ele>
        <time>2021-03-25T00:55:47Z</time>
      </trkpt>
      <trkpt lat="47.03632" lon="-0.96528">
        <ele>94</ele>
        <time>2021-03-25T00:56:23Z</time>
      </trkpt>
      <trkpt lat="47.03623" lon="-0.96509">
        <ele>94</ele>
        <time>2021-03-25T00:56:26Z</time>
      </trkpt>
      <trkpt lat="47.03603" lon="-0.96453">
        <ele>95</ele>
        <time>2021-03-25T00:56:33Z</time>
      </trkpt>
      <trkpt lat="47.03588" lon="-0.96414">
        <ele>96</ele>
        <time>2021-03-25T00:56:39Z</time>
      </trkpt>
      <trkpt lat="47.03459" lon="-0.9612">
        <ele>96</ele>
        <time>2021-03-25T00:57:21Z</time>
      </trkpt>
      <trkpt lat="47.03432" lon="-0.96065">
        <ele>96</ele>
        <time>2021-03-25T00:57:29Z</time>
      </trkpt>
      <trkpt lat="47.0341" lon="-0.96031">
        <ele>96</ele>
        <time>2021-03-25T00:57:35Z</time>
      </trkpt>
      <trkpt lat="47.03241" lon="-0.95799">
        <ele>100</ele>
        <time>2021-03-25T00:58:16Z</time>
      </trkpt>
      <trkpt lat="47.03219" lon="-0.95778">
        <ele>100</ele>
        <time>2021-03-25T00:58:21Z</time>
      </trkpt>
      <trkpt lat="47.03197" lon="-0.95763">
        <ele>101</ele>
        <time>2021-03-25T00:58:25Z</time>
      </trkpt>
      <trkpt lat="47.03146" lon="-0.95737">
        <ele>101</ele>
        <time>2021-03-25T00:58:35Z</time>
      </trkpt>
      <trkpt lat="47.03124" lon="-0.9572">
        <ele>101</ele>
        <time>2021-03-25T00:58:39Z</time>
      </trkpt>
      <trkpt lat="47.03103" lon="-0.95697">
        <ele>101</ele>
        <time>2021-03-25T00:58:44Z</time>
      </trkpt>
      <trkpt lat="47.03078" lon="-0.95663">
        <ele>101</ele>
        <time>2021-03-25T00:58:50Z</time>
      </trkpt>
      <trkpt lat="47.0306" lon="-0.95635">
        <ele>101</ele>
        <time>2021-03-25T00:58:55Z</time>
      </trkpt>
      <trkpt lat="47.03046" lon="-0.95607">
        <ele>101</ele>
        <time>2021-03-25T00:58:59Z</time>
      </trkpt>
      <trkpt lat="47.02961" lon="-0.95376">
        <ele>99</ele>
        <time>2021-03-25T00:59:31Z</time>
      </trkpt>
      <trkpt lat="47.02924" lon="-0.95292">
        <ele>98</ele>
        <time>2021-03-25T00:59:43Z</time>
      </trkpt>
      <trkpt lat="47.02834" lon="-0.95068">
        <ele>98</ele>
        <time>2021-03-25T01:00:14Z</time>
      </trkpt>
      <trkpt lat="47.02815" lon="-0.95027">
        <ele>98</ele>
        <time>2021-03-25T01:00:20Z</time>
      </trkpt>
      <trkpt lat="47.02757" lon="-0.94932">
        <ele>97</ele>
        <time>2021-03-25T01:00:36Z</time>
      </trkpt>
      <trkpt lat="47.02733" lon="-0.9488">
        <ele>96</ele>
        <time>2021-03-25T01:00:44Z</time>
      </trkpt>
      <trkpt lat="47.02663" lon="-0.94705">
        <ele>99</ele>
        <time>2021-03-25T01:01:08Z</time>
      </trkpt>
      <trkpt lat="47.02752" lon="-0.94615">
        <ele>99</ele>
        <time>2021-03-25T01:01:27Z</time>
      </trkpt>
      <trkpt lat="47.02761" lon="-0.94601">
        <ele>98</ele>
        <time>2021-03-25T01:01:30Z</time>
      </trkpt>
      <trkpt lat="47.02748" lon="-0.94581">
        <ele>99</ele>
        <time>2021-03-25T01:01:33Z</time>
      </trkpt>
      <trkpt lat="47.02744" lon="-0.94547">
        <ele>99</ele>
        <time>2021-03-25T01:01:37Z</time>
      </trkpt>
      <trkpt lat="47.02743" lon="-0.94485">
        <ele>99</ele>
        <time>2021-03-25T01:01:45Z</time>
      </trkpt>
      <trkpt lat="47.0274" lon="-0.94466">
        <ele>98</ele>
        <time>2021-03-25T01:01:47Z</time>
      </trkpt>
      <trkpt lat="47.02731" lon="-0.94425">
        <ele>98</ele>
        <time>2021-03-25T01:01:52Z</time>
      </trkpt>
      <trkpt lat="47.02723" lon="-0.94401">
        <ele>97</ele>
        <time>2021-03-25T01:01:56Z</time>
      </trkpt>
      <trkpt lat="47.02717" lon="-0.9439">
        <ele>97</ele>
        <time>2021-03-25T01:01:57Z</time>
      </trkpt>
      <trkpt lat="47.02709" lon="-0.94378">
        <ele>97</ele>
        <time>2021-03-25T01:01:59Z</time>
      </trkpt>
      <trkpt lat="47.02688" lon="-0.94358">
        <ele>97</ele>
        <time>2021-03-25T01:02:04Z</time>
      </trkpt>
      <trkpt lat="47.02678" lon="-0.94352">
        <ele>97</ele>
        <time>2021-03-25T01:02:06Z</time>
      </trkpt>
      <trkpt lat="47.02671" lon="-0.94355">
        <ele>97</ele>
        <time>2021-03-25T01:02:07Z</time>
      </trkpt>
      <trkpt lat="47.02669" lon="-0.94352">
        <ele>97</ele>
        <time>2021-03-25T01:02:08Z</time>
      </trkpt>
      <trkpt lat="47.02669" lon="-0.94346">
        <ele>97</ele>
        <time>2021-03-25T01:02:08Z</time>
      </trkpt>
      <trkpt lat="47.02625" lon="-0.94308">
        <ele>98</ele>
        <time>2021-03-25T01:02:17Z</time>
      </trkpt>
      <trkpt lat="47.02591" lon="-0.9428">
        <ele>98</ele>
        <time>2021-03-25T01:02:24Z</time>
      </trkpt>
      <trkpt lat="47.02578" lon="-0.94265">
        <ele>98</ele>
        <time>2021-03-25T01:02:27Z</time>
      </trkpt>
      <trkpt lat="47.02516" lon="-0.94149">
        <ele>97</ele>
        <time>2021-03-25T01:02:45Z</time>
      </trkpt>
      <trkpt lat="47.02494" lon="-0.94114">
        <ele>98</ele>
        <time>2021-03-25T01:02:51Z</time>
      </trkpt>
      <trkpt lat="47.02276" lon="-0.93863">
        <ele>89</ele>
        <time>2021-03-25T01:03:40Z</time>
      </trkpt>
      <trkpt lat="47.02248" lon="-0.93828">
        <ele>88</ele>
        <time>2021-03-25T01:03:47Z</time>
      </trkpt>
      <trkpt lat="47.02233" lon="-0.93794">
        <ele>87</ele>
        <time>2021-03-25T01:03:52Z</time>
      </trkpt>
      <trkpt lat="47.02225" lon="-0.93755">
        <ele>86</ele>
        <time>2021-03-25T01:03:57Z</time>
      </trkpt>
      <trkpt lat="47.0222" lon="-0.93698">
        <ele>87</ele>
        <time>2021-03-25T01:04:04Z</time>
      </trkpt>
      <trkpt lat="47.02216" lon="-0.93674">
        <ele>88</ele>
        <time>2021-03-25T01:04:07Z</time>
      </trkpt>
      <trkpt lat="47.02211" lon="-0.93656">
        <ele>88</ele>
        <time>2021-03-25T01:04:09Z</time>
      </trkpt>
      <trkpt lat="47.02094" lon="-0.93424">
        <ele>98</ele>
        <time>2021-03-25T01:04:44Z</time>
      </trkpt>
      <trkpt lat="47.02061" lon="-0.9337">
        <ele>98</ele>
        <time>2021-03-25T01:04:53Z</time>
      </trkpt>
      <trkpt lat="47.01996" lon="-0.93249">
        <ele>99</ele>
        <time>2021-03-25T01:05:11Z</time>
      </trkpt>
      <trkpt lat="47.01955" lon="-0.93186">
        <ele>99</ele>
        <time>2021-03-25T01:05:22Z</time>
      </trkpt>
      <trkpt lat="47.01915" lon="-0.93129">
        <ele>100</ele>
        <time>2021-03-25T01:05:32Z</time>
      </trkpt>
      <trkpt lat="47.01798" lon="-0.92972">
        <ele>100</ele>
        <time>2021-03-25T01:06:00Z</time>
      </trkpt>
      <trkpt lat="47.01721" lon="-0.92872">
        <ele>103</ele>
        <time>2021-03-25T01:06:18Z</time>
      </trkpt>
      <trkpt lat="47.01684" lon="-0.9283">
        <ele>104</ele>
        <time>2021-03-25T01:06:27Z</time>
      </trkpt>
      <trkpt lat="47.01665" lon="-0.92814">
        <ele>105</ele>
        <time>2021-03-25T01:06:31Z</time>
      </trkpt>
      <trkpt lat="47.01659" lon="-0.9281">
        <ele>104</ele>
        <time>2021-03-25T01:06:32Z</time>
      </trkpt>
      <trkpt lat="47.01652" lon="-0.92809">
        <ele>104</ele>
        <time>2021-03-25T01:06:33Z</time>
      </trkpt>
      <trkpt lat="47.01647" lon="-0.92812">
        <ele>104</ele>
        <time>2021-03-25T01:06:34Z</time>
      </trkpt>
      <trkpt lat="47.01636" lon="-0.92812">
        <ele>104</ele>
        <time>2021-03-25T01:06:36Z</time>
      </trkpt>
      <trkpt lat="47.01631" lon="-0.92809">
        <ele>104</ele>
        <time>2021-03-25T01:06:37Z</time>
      </trkpt>
      <trkpt lat="47.01627" lon="-0.92804">
        <ele>104</ele>
        <time>2021-03-25T01:06:38Z</time>
      </trkpt>
      <trkpt lat="47.01622" lon="-0.92788">
        <ele>104</ele>
        <time>2021-03-25T01:06:40Z</time>
      </trkpt>
      <trkpt lat="47.01623" lon="-0.92779">
        <ele>104</ele>
        <time>2021-03-25T01:06:41Z</time>
      </trkpt>
      <trkpt lat="47.01611" lon="-0.92753">
        <ele>104</ele>
        <time>2021-03-25T01:06:45Z</time>
      </trkpt>
      <trkpt lat="47.01592" lon="-0.92738">
        <ele>105</ele>
        <time>2021-03-25T01:06:49Z</time>
      </trkpt>
      <trkpt lat="47.01526" lon="-0.92671">
        <ele>105</ele>
        <time>2021-03-25T01:07:03Z</time>
      </trkpt>
      <trkpt lat="47.01513" lon="-0.92666">
        <ele>105</ele>
        <time>2021-03-25T01:07:05Z</time>
      </trkpt>
      <trkpt lat="47.01493" lon="-0.92665">
        <ele>105</ele>
        <time>2021-03-25T01:07:09Z</time>
      </trkpt>
      <trkpt lat="47.01487" lon="-0.92658">
        <ele>105</ele>
        <time>2021-03-25T01:07:10Z</time>
      </trkpt>
      <trkpt lat="47.01484" lon="-0.92652">
        <ele>105</ele>
        <time>2021-03-25T01:07:11Z</time>
      </trkpt>
      <trkpt lat="47.01484" lon="-0.92642">
        <ele>105</ele>
        <time>2021-03-25T01:07:12Z</time>
      </trkpt>
      <trkpt lat="47.0148" lon="-0.92635">
        <ele>105</ele>
        <time>2021-03-25T01:07:14Z</time>
      </trkpt>
      <trkpt lat="47.01474" lon="-0.92626">
        <ele>106</ele>
        <time>2021-03-25T01:07:15Z</time>
      </trkpt>
      <trkpt lat="47.01462" lon="-0.92613">
        <ele>106</ele>
        <time>2021-03-25T01:07:18Z</time>
      </trkpt>
      <trkpt lat="47.01401" lon="-0.92564">
        <ele>108</ele>
        <time>2021-03-25T01:07:30Z</time>
      </trkpt>
      <trkpt lat="47.01363" lon="-0.92538">
        <ele>109</ele>
        <time>2021-03-25T01:07:38Z</time>
      </trkpt>
      <trkpt lat="47.01352" lon="-0.92535">
        <ele>109</ele>
        <time>2021-03-25T01:07:40Z</time>
      </trkpt>
      <trkpt lat="47.01287" lon="-0.92532">
        <ele>108</ele>
        <time>2021-03-25T01:07:51Z</time>
      </trkpt>
      <trkpt lat="47.01265" lon="-0.92525">
        <ele>108</ele>
        <time>2021-03-25T01:07:55Z</time>
      </trkpt>
      <trkpt lat="47.01231" lon="-0.92506">
        <ele>108</ele>
        <time>2021-03-25T01:08:02Z</time>
      </trkpt>
      <trkpt lat="47.01211" lon="-0.9249">
        <ele>109</ele>
        <time>2021-03-25T01:08:06Z</time>
      </trkpt>
      <trkpt lat="47.01145" lon="-0.92419">
        <ele>111</ele>
        <time>2021-03-25T01:08:20Z</time>
      </trkpt>
      <trkpt lat="47.0105" lon="-0.9233">
        <ele>110</ele>
        <time>2021-03-25T01:08:40Z</time>
      </trkpt>
      <trkpt lat="47.01041" lon="-0.92317">
        <ele>110</ele>
        <time>2021-03-25T01:08:43Z</time>
      </trkpt>
      <trkpt lat="47.01034" lon="-0.92304">
        <ele>110</ele>
        <time>2021-03-25T01:08:45Z</time>
      </trkpt>
      <trkpt lat="47.01027" lon="-0.92285">
        <ele>110</ele>
        <time>2021-03-25T01:08:47Z</time>
      </trkpt>
      <trkpt lat="47.01008" lon="-0.9222">
        <ele>111</ele>
        <time>2021-03-25T01:08:56Z</time>
      </trkpt>
      <trkpt lat="47.01002" lon="-0.92188">
        <ele>111</ele>
        <time>2021-03-25T01:09:00Z</time>
      </trkpt>
      <trkpt lat="47.00997" lon="-0.92147">
        <ele>111</ele>
        <time>2021-03-25T01:09:05Z</time>
      </trkpt>
      <trkpt lat="47.00989" lon="-0.92012">
        <ele>113</ele>
        <time>2021-03-25T01:09:21Z</time>
      </trkpt>
      <trkpt lat="47.00986" lon="-0.9199">
        <ele>113</ele>
        <time>2021-03-25T01:09:24Z</time>
      </trkpt>
      <trkpt lat="47.00979" lon="-0.91959">
        <ele>113</ele>
        <time>2021-03-25T01:09:28Z</time>
      </trkpt>
      <trkpt lat="47.00956" lon="-0.91888">
        <ele>112</ele>
        <time>2021-03-25T01:09:38Z</time>
      </trkpt>
      <trkpt lat="47.00933" lon="-0.91832">
        <ele>111</ele>
        <time>2021-03-25T01:09:45Z</time>
      </trkpt>
      <trkpt lat="47.00899" lon="-0.91763">
        <ele>111</ele>
        <time>2021-03-25T01:09:56Z</time>
      </trkpt>
      <trkpt lat="47.00854" lon="-0.91682">
        <ele>111</ele>
        <time>2021-03-25T01:10:08Z</time>
      </trkpt>
      <trkpt lat="47.00836" lon="-0.91643">
        <ele>111</ele>
        <time>2021-03-25T01:10:14Z</time>
      </trkpt>
      <trkpt lat="47.00813" lon="-0.91581">
        <ele>113</ele>
        <time>2021-03-25T01:10:23Z</time>
      </trkpt>
      <trkpt lat="47.00789" lon="-0.91511">
        <ele>114</ele>
        <time>2021-03-25T01:10:32Z</time>
      </trkpt>
      <trkpt lat="47.0078" lon="-0.91465">
        <ele>115</ele>
        <time>2021-03-25T01:10:38Z</time>
      </trkpt>
      <trkpt lat="47.00778" lon="-0.91438">
        <ele>115</ele>
        <time>2021-03-25T01:10:41Z</time>
      </trkpt>
      <trkpt lat="47.00778" lon="-0.91382">
        <ele>116</ele>
        <time>2021-03-25T01:10:48Z</time>
      </trkpt>
      <trkpt lat="47.00777" lon="-0.91351">
        <ele>117</ele>
        <time>2021-03-25T01:10:52Z</time>
      </trkpt>
      <trkpt lat="47.00764" lon="-0.91245">
        <ele>119</ele>
        <time>2021-03-25T01:11:05Z</time>
      </trkpt>
      <trkpt lat="47.00754" lon="-0.91176">
        <ele>120</ele>
        <time>2021-03-25T01:11:14Z</time>
      </trkpt>
      <trkpt lat="47.00746" lon="-0.91143">
        <ele>120</ele>
        <time>2021-03-25T01:11:18Z</time>
      </trkpt>
      <trkpt lat="47.00719" lon="-0.91065">
        <ele>120</ele>
        <time>2021-03-25T01:11:28Z</time>
      </trkpt>
      <trkpt lat="47.00701" lon="-0.9099">
        <ele>121</ele>
        <time>2021-03-25T01:11:38Z</time>
      </trkpt>
      <trkpt lat="47.00646" lon="-0.90809">
        <ele>124</ele>
        <time>2021-03-25T01:12:02Z</time>
      </trkpt>
      <trkpt lat="47.0063" lon="-0.90741">
        <ele>124</ele>
        <time>2021-03-25T01:12:11Z</time>
      </trkpt>
      <trkpt lat="47.00616" lon="-0.90693">
        <ele>124</ele>
        <time>2021-03-25T01:12:17Z</time>
      </trkpt>
      <trkpt lat="47.006" lon="-0.90657">
        <ele>125</ele>
        <time>2021-03-25T01:12:22Z</time>
      </trkpt>
      <trkpt lat="47.00571" lon="-0.90612">
        <ele>126</ele>
        <time>2021-03-25T01:12:30Z</time>
      </trkpt>
      <trkpt lat="47.00566" lon="-0.90601">
        <ele>126</ele>
        <time>2021-03-25T01:12:31Z</time>
      </trkpt>
      <trkpt lat="47.00562" lon="-0.9059">
        <ele>126</ele>
        <time>2021-03-25T01:12:33Z</time>
      </trkpt>
      <trkpt lat="47.00553" lon="-0.90553">
        <ele>127</ele>
        <time>2021-03-25T01:12:38Z</time>
      </trkpt>
      <trkpt lat="47.00552" lon="-0.90527">
        <ele>127</ele>
        <time>2021-03-25T01:12:41Z</time>
      </trkpt>
      <trkpt lat="47.00554" lon="-0.90501">
        <ele>127</ele>
        <time>2021-03-25T01:12:44Z</time>
      </trkpt>
      <trkpt lat="47.00562" lon="-0.90436">
        <ele>126</ele>
        <time>2021-03-25T01:12:52Z</time>
      </trkpt>
      <trkpt lat="47.00563" lon="-0.9041">
        <ele>126</ele>
        <time>2021-03-25T01:12:55Z</time>
      </trkpt>
      <trkpt lat="47.00559" lon="-0.9038">
        <ele>126</ele>
        <time>2021-03-25T01:12:59Z</time>
      </trkpt>
      <trkpt lat="47.00553" lon="-0.90361">
        <ele>126</ele>
        <time>2021-03-25T01:13:02Z</time>
      </trkpt>
      <trkpt lat="47.00544" lon="-0.90338">
        <ele>126</ele>
        <time>2021-03-25T01:13:05Z</time>
      </trkpt>
      <trkpt lat="47.00448" lon="-0.9019">
        <ele>130</ele>
        <time>2021-03-25T01:13:30Z</time>
      </trkpt>
      <trkpt lat="47.00425" lon="-0.90149">
        <ele>129</ele>
        <time>2021-03-25T01:13:36Z</time>
      </trkpt>
      <trkpt lat="47.00312" lon="-0.89879">
        <ele>135</ele>
        <time>2021-03-25T01:14:14Z</time>
      </trkpt>
      <trkpt lat="47.003" lon="-0.89837">
        <ele>135</ele>
        <time>2021-03-25T01:14:20Z</time>
      </trkpt>
      <trkpt lat="47.0029" lon="-0.89794">
        <ele>136</ele>
        <time>2021-03-25T01:14:25Z</time>
      </trkpt>
      <trkpt lat="47.00272" lon="-0.89751">
        <ele>138</ele>
        <time>2021-03-25T01:14:32Z</time>
      </trkpt>
      <trkpt lat="47.00256" lon="-0.89705">
        <ele>140</ele>
        <time>2021-03-25T01:14:38Z</time>
      </trkpt>
      <trkpt lat="47.00235" lon="-0.89613">
        <ele>143</ele>
        <time>2021-03-25T01:14:50Z</time>
      </trkpt>
      <trkpt lat="47.00227" lon="-0.89534">
        <ele>144</ele>
        <time>2021-03-25T01:14:59Z</time>
      </trkpt>
      <trkpt lat="47.00211" lon="-0.89458">
        <ele>144</ele>
        <time>2021-03-25T01:15:09Z</time>
      </trkpt>
      <trkpt lat="47.00209" lon="-0.89443">
        <ele>144</ele>
        <time>2021-03-25T01:15:11Z</time>
      </trkpt>
      <trkpt lat="47.00209" lon="-0.89432">
        <ele>144</ele>
        <time>2021-03-25T01:15:12Z</time>
      </trkpt>
      <trkpt lat="47.00204" lon="-0.89428">
        <ele>145</ele>
        <time>2021-03-25T01:15:13Z</time>
      </trkpt>
      <trkpt lat="47.00204" lon="-0.89424">
        <ele>145</ele>
        <time>2021-03-25T01:15:14Z</time>
      </trkpt>
      <trkpt lat="47.00208" lon="-0.8942">
        <ele>145</ele>
        <time>2021-03-25T01:15:14Z</time>
      </trkpt>
      <trkpt lat="47.00208" lon="-0.89416">
        <ele>145</ele>
        <time>2021-03-25T01:15:15Z</time>
      </trkpt>
      <trkpt lat="47.00197" lon="-0.89337">
        <ele>145</ele>
        <time>2021-03-25T01:15:25Z</time>
      </trkpt>
      <trkpt lat="47.0018" lon="-0.89251">
        <ele>146</ele>
        <time>2021-03-25T01:15:36Z</time>
      </trkpt>
      <trkpt lat="47.00164" lon="-0.89204">
        <ele>146</ele>
        <time>2021-03-25T01:15:42Z</time>
      </trkpt>
      <trkpt lat="47.00156" lon="-0.89203">
        <ele>146</ele>
        <time>2021-03-25T01:15:43Z</time>
      </trkpt>
      <trkpt lat="47.00153" lon="-0.89199">
        <ele>146</ele>
        <time>2021-03-25T01:15:44Z</time>
      </trkpt>
      <trkpt lat="47.00152" lon="-0.89188">
        <ele>146</ele>
        <time>2021-03-25T01:15:45Z</time>
      </trkpt>
      <trkpt lat="47.00155" lon="-0.89181">
        <ele>146</ele>
        <time>2021-03-25T01:15:46Z</time>
      </trkpt>
      <trkpt lat="47.00122" lon="-0.89097">
        <ele>145</ele>
        <time>2021-03-25T01:15:58Z</time>
      </trkpt>
      <trkpt lat="46.99972" lon="-0.89119">
        <ele>145</ele>
        <time>2021-03-25T01:16:25Z</time>
      </trkpt>
      <trkpt lat="46.99958" lon="-0.8902">
        <ele>148</ele>
        <time>2021-03-25T01:16:37Z</time>
      </trkpt>
      <trkpt lat="46.99934" lon="-0.88869">
        <ele>151</ele>
        <time>2021-03-25T01:16:56Z</time>
      </trkpt>
      <trkpt lat="46.99927" lon="-0.88866">
        <ele>152</ele>
        <time>2021-03-25T01:16:57Z</time>
      </trkpt>
      <trkpt lat="46.99924" lon="-0.88856">
        <ele>152</ele>
        <time>2021-03-25T01:16:59Z</time>
      </trkpt>
      <trkpt lat="46.99832" lon="-0.88842">
        <ele>152</ele>
        <time>2021-03-25T01:17:15Z</time>
      </trkpt>
      <trkpt lat="46.99832" lon="-0.88846">
        <ele>151</ele>
        <time>2021-03-25T01:17:16Z</time>
      </trkpt>
      <trkpt lat="46.99826" lon="-0.88854">
        <ele>151</ele>
        <time>2021-03-25T01:17:17Z</time>
      </trkpt>
      <trkpt lat="46.99823" lon="-0.88854">
        <ele>151</ele>
        <time>2021-03-25T01:17:18Z</time>
      </trkpt>
      <trkpt lat="46.9982" lon="-0.88853">
        <ele>151</ele>
        <time>2021-03-25T01:17:18Z</time>
      </trkpt>
      <trkpt lat="46.99815" lon="-0.88844">
        <ele>151</ele>
        <time>2021-03-25T01:17:20Z</time>
      </trkpt>
      <trkpt lat="46.99815" lon="-0.8884">
        <ele>152</ele>
        <time>2021-03-25T01:17:20Z</time>
      </trkpt>
      <trkpt lat="46.99727" lon="-0.88828">
        <ele>151</ele>
        <time>2021-03-25T01:17:36Z</time>
      </trkpt>
      <trkpt lat="46.99737" lon="-0.88694">
        <ele>160</ele>
        <time>2021-03-25T01:17:52Z</time>
      </trkpt>
      <trkpt lat="46.99747" lon="-0.88614">
        <ele>164</ele>
        <time>2021-03-25T01:18:02Z</time>
      </trkpt>
      <trkpt lat="46.99757" lon="-0.88448">
        <ele>167</ele>
        <time>2021-03-25T01:18:22Z</time>
      </trkpt>
      <trkpt lat="46.99755" lon="-0.8843">
        <ele>167</ele>
        <time>2021-03-25T01:18:25Z</time>
      </trkpt>
      <trkpt lat="46.9975" lon="-0.8841">
        <ele>167</ele>
        <time>2021-03-25T01:18:27Z</time>
      </trkpt>
      <trkpt lat="46.99728" lon="-0.88369">
        <ele>165</ele>
        <time>2021-03-25T01:18:33Z</time>
      </trkpt>
      <trkpt lat="46.9967" lon="-0.88215">
        <ele>163</ele>
        <time>2021-03-25T01:18:55Z</time>
      </trkpt>
      <trkpt lat="46.99666" lon="-0.88196">
        <ele>164</ele>
        <time>2021-03-25T01:18:57Z</time>
      </trkpt>
      <trkpt lat="46.99668" lon="-0.88183">
        <ele>164</ele>
        <time>2021-03-25T01:18:59Z</time>
      </trkpt>
      <trkpt lat="46.99708" lon="-0.88126">
        <ele>163</ele>
        <time>2021-03-25T01:19:09Z</time>
      </trkpt>
      <trkpt lat="46.99769" lon="-0.88006">
        <ele>158</ele>
        <time>2021-03-25T01:19:27Z</time>
      </trkpt>
      <trkpt lat="46.99779" lon="-0.87991">
        <ele>158</ele>
        <time>2021-03-25T01:19:29Z</time>
      </trkpt>
      <trkpt lat="46.9979" lon="-0.87974">
        <ele>157</ele>
        <time>2021-03-25T01:19:32Z</time>
      </trkpt>
      <trkpt lat="46.99883" lon="-0.87861">
        <ele>150</ele>
        <time>2021-03-25T01:19:54Z</time>
      </trkpt>
      <trkpt lat="46.99897" lon="-0.87842">
        <ele>149</ele>
        <time>2021-03-25T01:19:57Z</time>
      </trkpt>
      <trkpt lat="46.99909" lon="-0.8782">
        <ele>148</ele>
        <time>2021-03-25T01:20:01Z</time>
      </trkpt>
      <trkpt lat="46.99955" lon="-0.87706">
        <ele>148</ele>
        <time>2021-03-25T01:20:17Z</time>
      </trkpt>
      <trkpt lat="47.00081" lon="-0.87302">
        <ele>145</ele>
        <time>2021-03-25T01:21:11Z</time>
      </trkpt>
      <trkpt lat="47.00132" lon="-0.87168">
        <ele>144</ele>
        <time>2021-03-25T01:21:29Z</time>
      </trkpt>
      <trkpt lat="47.00167" lon="-0.87092">
        <ele>143</ele>
        <time>2021-03-25T01:21:40Z</time>
      </trkpt>
      <trkpt lat="47.00291" lon="-0.86885">
        <ele>143</ele>
        <time>2021-03-25T01:22:14Z</time>
      </trkpt>
      <trkpt lat="47.00311" lon="-0.86847">
        <ele>143</ele>
        <time>2021-03-25T01:22:20Z</time>
      </trkpt>
      <trkpt lat="47.00333" lon="-0.86799">
        <ele>143</ele>
        <time>2021-03-25T01:22:27Z</time>
      </trkpt>
      <trkpt lat="47.00348" lon="-0.86761">
        <ele>144</ele>
        <time>2021-03-25T01:22:32Z</time>
      </trkpt>
      <trkpt lat="47.00372" lon="-0.86686">
        <ele>143</ele>
        <time>2021-03-25T01:22:42Z</time>
      </trkpt>
      <trkpt lat="47.0039" lon="-0.86616">
        <ele>142</ele>
        <time>2021-03-25T01:22:51Z</time>
      </trkpt>
      <trkpt lat="47.00405" lon="-0.86515">
        <ele>141</ele>
        <time>2021-03-25T01:23:04Z</time>
      </trkpt>
      <trkpt lat="47.00409" lon="-0.86478">
        <ele>141</ele>
        <time>2021-03-25T01:23:08Z</time>
      </trkpt>
      <trkpt lat="47.00413" lon="-0.86382">
        <ele>139</ele>
        <time>2021-03-25T01:23:20Z</time>
      </trkpt>
      <trkpt lat="47.0041" lon="-0.86259">
        <ele>137</ele>
        <time>2021-03-25T01:23:35Z</time>
      </trkpt>
      <trkpt lat="47.0041" lon="-0.86003">
        <ele>136</ele>
        <time>2021-03-25T01:24:06Z</time>
      </trkpt>
      <trkpt lat="47.00421" lon="-0.85878">
        <ele>134</ele>
        <time>2021-03-25T01:24:21Z</time>
      </trkpt>
      <trkpt lat="47.00423" lon="-0.85775">
        <ele>132</ele>
        <time>2021-03-25T01:24:34Z</time>
      </trkpt>
      <trkpt lat="47.00453" lon="-0.85644">
        <ele>132</ele>
        <time>2021-03-25T01:24:50Z</time>
      </trkpt>
      <trkpt lat="47.00457" lon="-0.85601">
        <ele>132</ele>
        <time>2021-03-25T01:24:56Z</time>
      </trkpt>
      <trkpt lat="47.00456" lon="-0.85582">
        <ele>132</ele>
        <time>2021-03-25T01:24:58Z</time>
      </trkpt>
      <trkpt lat="47.00454" lon="-0.85571">
        <ele>131</ele>
        <time>2021-03-25T01:24:59Z</time>
      </trkpt>
      <trkpt lat="47.00448" lon="-0.85568">
        <ele>132</ele>
        <time>2021-03-25T01:25:00Z</time>
      </trkpt>
      <trkpt lat="47.00447" lon="-0.8556">
        <ele>131</ele>
        <time>2021-03-25T01:25:01Z</time>
      </trkpt>
      <trkpt lat="47.00449" lon="-0.85556">
        <ele>131</ele>
        <time>2021-03-25T01:25:02Z</time>
      </trkpt>
      <trkpt lat="47.00454" lon="-0.85554">
        <ele>131</ele>
        <time>2021-03-25T01:25:03Z</time>
      </trkpt>
      <trkpt lat="47.00458" lon="-0.85545">
        <ele>131</ele>
        <time>2021-03-25T01:25:04Z</time>
      </trkpt>
      <trkpt lat="47.0046" lon="-0.85528">
        <ele>131</ele>
        <time>2021-03-25T01:25:06Z</time>
      </trkpt>
      <trkpt lat="47.00461" lon="-0.85472">
        <ele>131</ele>
        <time>2021-03-25T01:25:13Z</time>
      </trkpt>
      <trkpt lat="47.00467" lon="-0.85406">
        <ele>130</ele>
        <time>2021-03-25T01:25:21Z</time>
      </trkpt>
      <trkpt lat="47.00481" lon="-0.85314">
        <ele>128</ele>
        <time>2021-03-25T01:25:33Z</time>
      </trkpt>
      <trkpt lat="47.00486" lon="-0.8527">
        <ele>127</ele>
        <time>2021-03-25T01:25:38Z</time>
      </trkpt>
      <trkpt lat="47.00488" lon="-0.85229">
        <ele>125</ele>
        <time>2021-03-25T01:25:43Z</time>
      </trkpt>
      <trkpt lat="47.00499" lon="-0.85191">
        <ele>125</ele>
        <time>2021-03-25T01:25:48Z</time>
      </trkpt>
      <trkpt lat="47.00488" lon="-0.8518">
        <ele>124</ele>
        <time>2021-03-25T01:25:50Z</time>
      </trkpt>
      <trkpt lat="47.00474" lon="-0.85152">
        <ele>123</ele>
        <time>2021-03-25T01:25:55Z</time>
      </trkpt>
      <trkpt lat="47.0047" lon="-0.85134">
        <ele>123</ele>
        <time>2021-03-25T01:25:57Z</time>
      </trkpt>
      <trkpt lat="47.00461" lon="-0.85084">
        <ele>122</ele>
        <time>2021-03-25T01:26:03Z</time>
      </trkpt>
      <trkpt lat="47.0047" lon="-0.85076">
        <ele>122</ele>
        <time>2021-03-25T01:26:05Z</time>
      </trkpt>
      <trkpt lat="47.00484" lon="-0.85057">
        <ele>121</ele>
        <time>2021-03-25T01:26:09Z</time>
      </trkpt>
      <trkpt lat="47.00491" lon="-0.85051">
        <ele>120</ele>
        <time>2021-03-25T01:26:10Z</time>
      </trkpt>
      <trkpt lat="47.00521" lon="-0.84995">
        <ele>117</ele>
        <time>2021-03-25T01:26:19Z</time>
      </trkpt>
      <trkpt lat="47.00527" lon="-0.84987">
        <ele>116</ele>
        <time>2021-03-25T01:26:20Z</time>
      </trkpt>
      <trkpt lat="47.00533" lon="-0.84984">
        <ele>116</ele>
        <time>2021-03-25T01:26:21Z</time>
      </trkpt>
      <trkpt lat="47.00533" lon="-0.84949">
        <ele>115</ele>
        <time>2021-03-25T01:26:25Z</time>
      </trkpt>
      <trkpt lat="47.00536" lon="-0.84912">
        <ele>113</ele>
        <time>2021-03-25T01:26:30Z</time>
      </trkpt>
      <trkpt lat="47.00541" lon="-0.84883">
        <ele>113</ele>
        <time>2021-03-25T01:26:34Z</time>
      </trkpt>
      <trkpt lat="47.00536" lon="-0.84877">
        <ele>113</ele>
        <time>2021-03-25T01:26:35Z</time>
      </trkpt>
      <trkpt lat="47.00533" lon="-0.84866">
        <ele>113</ele>
        <time>2021-03-25T01:26:36Z</time>
      </trkpt>
      <trkpt lat="47.00532" lon="-0.84843">
        <ele>112</ele>
        <time>2021-03-25T01:26:39Z</time>
      </trkpt>
      <trkpt lat="47.00528" lon="-0.84404">
        <ele>129</ele>
        <time>2021-03-25T01:27:32Z</time>
      </trkpt>
      <trkpt lat="47.00524" lon="-0.84379">
        <ele>129</ele>
        <time>2021-03-25T01:27:35Z</time>
      </trkpt>
      <trkpt lat="47.00511" lon="-0.84335">
        <ele>130</ele>
        <time>2021-03-25T01:27:41Z</time>
      </trkpt>
      <trkpt lat="47.00509" lon="-0.84335">
        <ele>130</ele>
        <time>2021-03-25T01:27:42Z</time>
      </trkpt>
      <trkpt lat="47.00503" lon="-0.84331">
        <ele>130</ele>
        <time>2021-03-25T01:27:43Z</time>
      </trkpt>
      <trkpt lat="47.00502" lon="-0.84329">
        <ele>130</ele>
        <time>2021-03-25T01:27:43Z</time>
      </trkpt>
      <trkpt lat="47.00502" lon="-0.84323">
        <ele>130</ele>
        <time>2021-03-25T01:27:44Z</time>
      </trkpt>
      <trkpt lat="47.00506" lon="-0.84316">
        <ele>130</ele>
        <time>2021-03-25T01:27:45Z</time>
      </trkpt>
      <trkpt lat="47.00473" lon="-0.8421">
        <ele>132</ele>
        <time>2021-03-25T01:27:59Z</time>
      </trkpt>
      <trkpt lat="47.0036" lon="-0.83922">
        <ele>135</ele>
        <time>2021-03-25T01:28:39Z</time>
      </trkpt>
      <trkpt lat="47.00263" lon="-0.83628">
        <ele>129</ele>
        <time>2021-03-25T01:29:19Z</time>
      </trkpt>
      <trkpt lat="47.00143" lon="-0.83253">
        <ele>123</ele>
        <time>2021-03-25T01:30:09Z</time>
      </trkpt>
      <trkpt lat="47.00123" lon="-0.83186">
        <ele>124</ele>
        <time>2021-03-25T01:30:18Z</time>
      </trkpt>
      <trkpt lat="47.00117" lon="-0.83146">
        <ele>124</ele>
        <time>2021-03-25T01:30:23Z</time>
      </trkpt>
      <trkpt lat="47.00116" lon="-0.83105">
        <ele>124</ele>
        <time>2021-03-25T01:30:28Z</time>
      </trkpt>
      <trkpt lat="47.00118" lon="-0.83041">
        <ele>123</ele>
        <time>2021-03-25T01:30:36Z</time>
      </trkpt>
      <trkpt lat="47.00155" lon="-0.8281">
        <ele>123</ele>
        <time>2021-03-25T01:31:05Z</time>
      </trkpt>
      <trkpt lat="47.0016" lon="-0.82772">
        <ele>122</ele>
        <time>2021-03-25T01:31:09Z</time>
      </trkpt>
      <trkpt lat="47.0016" lon="-0.82735">
        <ele>122</ele>
        <time>2021-03-25T01:31:14Z</time>
      </trkpt>
      <trkpt lat="47.00109" lon="-0.82223">
        <ele>132</ele>
        <time>2021-03-25T01:32:17Z</time>
      </trkpt>
      <trkpt lat="47.00107" lon="-0.82195">
        <ele>132</ele>
        <time>2021-03-25T01:32:20Z</time>
      </trkpt>
      <trkpt lat="47.00111" lon="-0.82137">
        <ele>131</ele>
        <time>2021-03-25T01:32:27Z</time>
      </trkpt>
      <trkpt lat="47.00208" lon="-0.81568">
        <ele>124</ele>
        <time>2021-03-25T01:33:38Z</time>
      </trkpt>
      <trkpt lat="47.00222" lon="-0.81467">
        <ele>122</ele>
        <time>2021-03-25T01:33:51Z</time>
      </trkpt>
      <trkpt lat="47.00243" lon="-0.81172">
        <ele>118</ele>
        <time>2021-03-25T01:34:27Z</time>
      </trkpt>
      <trkpt lat="47.00246" lon="-0.81104">
        <ele>115</ele>
        <time>2021-03-25T01:34:35Z</time>
      </trkpt>
      <trkpt lat="47.00247" lon="-0.80972">
        <ele>112</ele>
        <time>2021-03-25T01:34:51Z</time>
      </trkpt>
      <trkpt lat="47.00275" lon="-0.80605">
        <ele>103</ele>
        <time>2021-03-25T01:35:36Z</time>
      </trkpt>
      <trkpt lat="47.0028" lon="-0.80568">
        <ele>103</ele>
        <time>2021-03-25T01:35:40Z</time>
      </trkpt>
      <trkpt lat="47.00286" lon="-0.80538">
        <ele>103</ele>
        <time>2021-03-25T01:35:44Z</time>
      </trkpt>
      <trkpt lat="47.00302" lon="-0.80492">
        <ele>105</ele>
        <time>2021-03-25T01:35:50Z</time>
      </trkpt>
      <trkpt lat="47.00346" lon="-0.80376">
        <ele>113</ele>
        <time>2021-03-25T01:36:07Z</time>
      </trkpt>
      <trkpt lat="47.00529" lon="-0.79877">
        <ele>116</ele>
        <time>2021-03-25T01:37:15Z</time>
      </trkpt>
      <trkpt lat="47.00537" lon="-0.79848">
        <ele>116</ele>
        <time>2021-03-25T01:37:19Z</time>
      </trkpt>
      <trkpt lat="47.0054" lon="-0.7983">
        <ele>115</ele>
        <time>2021-03-25T01:37:21Z</time>
      </trkpt>
      <trkpt lat="47.0054" lon="-0.79811">
        <ele>115</ele>
        <time>2021-03-25T01:37:24Z</time>
      </trkpt>
      <trkpt lat="47.00533" lon="-0.79758">
        <ele>114</ele>
        <time>2021-03-25T01:37:30Z</time>
      </trkpt>
      <trkpt lat="47.00508" lon="-0.79615">
        <ele>111</ele>
        <time>2021-03-25T01:37:48Z</time>
      </trkpt>
      <trkpt lat="47.00447" lon="-0.79419">
        <ele>112</ele>
        <time>2021-03-25T01:38:14Z</time>
      </trkpt>
      <trkpt lat="47.00429" lon="-0.79376">
        <ele>113</ele>
        <time>2021-03-25T01:38:20Z</time>
      </trkpt>
      <trkpt lat="47.00415" lon="-0.79349">
        <ele>114</ele>
        <time>2021-03-25T01:38:24Z</time>
      </trkpt>
      <trkpt lat="47.00371" lon="-0.79277">
        <ele>113</ele>
        <time>2021-03-25T01:38:36Z</time>
      </trkpt>
      <trkpt lat="47.00351" lon="-0.7924">
        <ele>111</ele>
        <time>2021-03-25T01:38:42Z</time>
      </trkpt>
      <trkpt lat="47.00306" lon="-0.79122">
        <ele>108</ele>
        <time>2021-03-25T01:38:58Z</time>
      </trkpt>
      <trkpt lat="47.00289" lon="-0.79067">
        <ele>108</ele>
        <time>2021-03-25T01:39:06Z</time>
      </trkpt>
      <trkpt lat="47.00251" lon="-0.78957">
        <ele>107</ele>
        <time>2021-03-25T01:39:21Z</time>
      </trkpt>
      <trkpt lat="47.00219" lon="-0.78887">
        <ele>110</ele>
        <time>2021-03-25T01:39:31Z</time>
      </trkpt>
      <trkpt lat="47.00178" lon="-0.78809">
        <ele>112</ele>
        <time>2021-03-25T01:39:43Z</time>
      </trkpt>
      <trkpt lat="47.00133" lon="-0.78734">
        <ele>114</ele>
        <time>2021-03-25T01:39:55Z</time>
      </trkpt>
      <trkpt lat="47.00105" lon="-0.78683">
        <ele>116</ele>
        <time>2021-03-25T01:40:03Z</time>
      </trkpt>
      <trkpt lat="47.00094" lon="-0.78653">
        <ele>117</ele>
        <time>2021-03-25T01:40:07Z</time>
      </trkpt>
      <trkpt lat="47.00078" lon="-0.78583">
        <ele>119</ele>
        <time>2021-03-25T01:40:16Z</time>
      </trkpt>
      <trkpt lat="47.00072" lon="-0.78546">
        <ele>119</ele>
        <time>2021-03-25T01:40:21Z</time>
      </trkpt>
      <trkpt lat="47.0006" lon="-0.78315">
        <ele>116</ele>
        <time>2021-03-25T01:40:49Z</time>
      </trkpt>
      <trkpt lat="47.0006" lon="-0.7829">
        <ele>116</ele>
        <time>2021-03-25T01:40:52Z</time>
      </trkpt>
      <trkpt lat="47.00062" lon="-0.78273">
        <ele>115</ele>
        <time>2021-03-25T01:40:54Z</time>
      </trkpt>
      <trkpt lat="47.00066" lon="-0.78257">
        <ele>115</ele>
        <time>2021-03-25T01:40:56Z</time>
      </trkpt>
      <trkpt lat="47.00079" lon="-0.78227">
        <ele>112</ele>
        <time>2021-03-25T01:41:00Z</time>
      </trkpt>
      <trkpt lat="47.00092" lon="-0.78187">
        <ele>109</ele>
        <time>2021-03-25T01:41:06Z</time>
      </trkpt>
      <trkpt lat="47.00097" lon="-0.78159">
        <ele>108</ele>
        <time>2021-03-25T01:41:09Z</time>
      </trkpt>
      <trkpt lat="47.00103" lon="-0.78109">
        <ele>110</ele>
        <time>2021-03-25T01:41:15Z</time>
      </trkpt>
      <trkpt lat="47.00107" lon="-0.78086">
        <ele>110</ele>
        <time>2021-03-25T01:41:18Z</time>
      </trkpt>
      <trkpt lat="47.00113" lon="-0.78066">
        <ele>109</ele>
        <time>2021-03-25T01:41:21Z</time>
      </trkpt>
      <trkpt lat="47.00184" lon="-0.779">
        <ele>107</ele>
        <time>2021-03-25T01:41:45Z</time>
      </trkpt>
      <trkpt lat="47.0019" lon="-0.77878">
        <ele>107</ele>
        <time>2021-03-25T01:41:47Z</time>
      </trkpt>
      <trkpt lat="47.00194" lon="-0.77857">
        <ele>107</ele>
        <time>2021-03-25T01:41:50Z</time>
      </trkpt>
      <trkpt lat="47.00195" lon="-0.77829">
        <ele>107</ele>
        <time>2021-03-25T01:41:53Z</time>
      </trkpt>
      <trkpt lat="47.00194" lon="-0.77803">
        <ele>108</ele>
        <time>2021-03-25T01:41:57Z</time>
      </trkpt>
      <trkpt lat="47.00171" lon="-0.77603">
        <ele>112</ele>
        <time>2021-03-25T01:42:21Z</time>
      </trkpt>
      <trkpt lat="47.00169" lon="-0.77574">
        <ele>112</ele>
        <time>2021-03-25T01:42:25Z</time>
      </trkpt>
      <trkpt lat="47.00166" lon="-0.77439">
        <ele>113</ele>
        <time>2021-03-25T01:42:41Z</time>
      </trkpt>
      <trkpt lat="47.00167" lon="-0.77163">
        <ele>111</ele>
        <time>2021-03-25T01:43:15Z</time>
      </trkpt>
      <trkpt lat="47.00171" lon="-0.77107">
        <ele>110</ele>
        <time>2021-03-25T01:43:21Z</time>
      </trkpt>
      <trkpt lat="47.0018" lon="-0.77059">
        <ele>109</ele>
        <time>2021-03-25T01:43:28Z</time>
      </trkpt>
      <trkpt lat="47.002" lon="-0.76996">
        <ele>108</ele>
        <time>2021-03-25T01:43:36Z</time>
      </trkpt>
      <trkpt lat="47.0022" lon="-0.76957">
        <ele>108</ele>
        <time>2021-03-25T01:43:42Z</time>
      </trkpt>
      <trkpt lat="47.00247" lon="-0.76916">
        <ele>107</ele>
        <time>2021-03-25T01:43:49Z</time>
      </trkpt>
      <trkpt lat="47.00289" lon="-0.76856">
        <ele>110</ele>
        <time>2021-03-25T01:43:59Z</time>
      </trkpt>
      <trkpt lat="47.00305" lon="-0.76825">
        <ele>111</ele>
        <time>2021-03-25T01:44:04Z</time>
      </trkpt>
      <trkpt lat="47.00493" lon="-0.76368">
        <ele>129</ele>
        <time>2021-03-25T01:45:09Z</time>
      </trkpt>
      <trkpt lat="47.00529" lon="-0.76287">
        <ele>132</ele>
        <time>2021-03-25T01:45:20Z</time>
      </trkpt>
      <trkpt lat="47.00605" lon="-0.76135">
        <ele>136</ele>
        <time>2021-03-25T01:45:43Z</time>
      </trkpt>
      <trkpt lat="47.0062" lon="-0.76089">
        <ele>137</ele>
        <time>2021-03-25T01:45:50Z</time>
      </trkpt>
      <trkpt lat="47.0063" lon="-0.76042">
        <ele>137</ele>
        <time>2021-03-25T01:45:55Z</time>
      </trkpt>
      <trkpt lat="47.00639" lon="-0.75977">
        <ele>137</ele>
        <time>2021-03-25T01:46:04Z</time>
      </trkpt>
      <trkpt lat="47.00678" lon="-0.75734">
        <ele>134</ele>
        <time>2021-03-25T01:46:34Z</time>
      </trkpt>
      <trkpt lat="47.00695" lon="-0.75639">
        <ele>136</ele>
        <time>2021-03-25T01:46:46Z</time>
      </trkpt>
      <trkpt lat="47.00706" lon="-0.75583">
        <ele>137</ele>
        <time>2021-03-25T01:46:53Z</time>
      </trkpt>
      <trkpt lat="47.00732" lon="-0.75489">
        <ele>139</ele>
        <time>2021-03-25T01:47:05Z</time>
      </trkpt>
      <trkpt lat="47.00737" lon="-0.75466">
        <ele>139</ele>
        <time>2021-03-25T01:47:08Z</time>
      </trkpt>
      <trkpt lat="47.00756" lon="-0.75326">
        <ele>138</ele>
        <time>2021-03-25T01:47:25Z</time>
      </trkpt>
      <trkpt lat="47.00758" lon="-0.75293">
        <ele>138</ele>
        <time>2021-03-25T01:47:29Z</time>
      </trkpt>
      <trkpt lat="47.0076" lon="-0.75096">
        <ele>141</ele>
        <time>2021-03-25T01:47:53Z</time>
      </trkpt>
      <trkpt lat="47.00764" lon="-0.75047">
        <ele>141</ele>
        <time>2021-03-25T01:47:59Z</time>
      </trkpt>
      <trkpt lat="47.00768" lon="-0.75032">
        <ele>140</ele>
        <time>2021-03-25T01:48:01Z</time>
      </trkpt>
      <trkpt lat="47.00773" lon="-0.75027">
        <ele>140</ele>
        <time>2021-03-25T01:48:02Z</time>
      </trkpt>
      <trkpt lat="47.0077" lon="-0.75008">
        <ele>140</ele>
        <time>2021-03-25T01:48:05Z</time>
      </trkpt>
      <trkpt lat="47.00759" lon="-0.74669">
        <ele>133</ele>
        <time>2021-03-25T01:48:46Z</time>
      </trkpt>
      <trkpt lat="47.00753" lon="-0.74629">
        <ele>132</ele>
        <time>2021-03-25T01:48:51Z</time>
      </trkpt>
      <trkpt lat="47.00753" lon="-0.74615">
        <ele>132</ele>
        <time>2021-03-25T01:48:53Z</time>
      </trkpt>
      <trkpt lat="47.0076" lon="-0.74609">
        <ele>132</ele>
        <time>2021-03-25T01:48:54Z</time>
      </trkpt>
      <trkpt lat="47.00781" lon="-0.74565">
        <ele>132</ele>
        <time>2021-03-25T01:49:00Z</time>
      </trkpt>
      <trkpt lat="47.00791" lon="-0.74552">
        <ele>132</ele>
        <time>2021-03-25T01:49:03Z</time>
      </trkpt>
      <trkpt lat="47.00828" lon="-0.74526">
        <ele>134</ele>
        <time>2021-03-25T01:49:10Z</time>
      </trkpt>
      <trkpt lat="47.00835" lon="-0.74518">
        <ele>134</ele>
        <time>2021-03-25T01:49:12Z</time>
      </trkpt>
      <trkpt lat="47.00835" lon="-0.74512">
        <ele>134</ele>
        <time>2021-03-25T01:49:12Z</time>
      </trkpt>
      <trkpt lat="47.0084" lon="-0.74496">
        <ele>134</ele>
        <time>2021-03-25T01:49:15Z</time>
      </trkpt>
      <trkpt lat="47.00871" lon="-0.74413">
        <ele>132</ele>
        <time>2021-03-25T01:49:26Z</time>
      </trkpt>
      <trkpt lat="47.00897" lon="-0.74336">
        <ele>130</ele>
        <time>2021-03-25T01:49:36Z</time>
      </trkpt>
      <trkpt lat="47.00939" lon="-0.74186">
        <ele>133</ele>
        <time>2021-03-25T01:49:56Z</time>
      </trkpt>
      <trkpt lat="47.01037" lon="-0.73855">
        <ele>139</ele>
        <time>2021-03-25T01:50:40Z</time>
      </trkpt>
      <trkpt lat="47.01032" lon="-0.7385">
        <ele>139</ele>
        <time>2021-03-25T01:50:41Z</time>
      </trkpt>
      <trkpt lat="47.01029" lon="-0.73843">
        <ele>139</ele>
        <time>2021-03-25T01:50:42Z</time>
      </trkpt>
      <trkpt lat="47.01028" lon="-0.73835">
        <ele>139</ele>
        <time>2021-03-25T01:50:43Z</time>
      </trkpt>
      <trkpt lat="47.01029" lon="-0.73827">
        <ele>139</ele>
        <time>2021-03-25T01:50:44Z</time>
      </trkpt>
      <trkpt lat="47.01031" lon="-0.7382">
        <ele>139</ele>
        <time>2021-03-25T01:50:45Z</time>
      </trkpt>
      <trkpt lat="47.01035" lon="-0.73814">
        <ele>140</ele>
        <time>2021-03-25T01:50:46Z</time>
      </trkpt>
      <trkpt lat="47.0104" lon="-0.7381">
        <ele>140</ele>
        <time>2021-03-25T01:50:47Z</time>
      </trkpt>
      <trkpt lat="47.01046" lon="-0.73809">
        <ele>140</ele>
        <time>2021-03-25T01:50:48Z</time>
      </trkpt>
      <trkpt lat="47.01051" lon="-0.73811">
        <ele>141</ele>
        <time>2021-03-25T01:50:49Z</time>
      </trkpt>
      <trkpt lat="47.01181" lon="-0.73355">
        <ele>143</ele>
        <time>2021-03-25T01:51:49Z</time>
      </trkpt>
      <trkpt lat="47.01193" lon="-0.7329">
        <ele>142</ele>
        <time>2021-03-25T01:51:57Z</time>
      </trkpt>
      <trkpt lat="47.012" lon="-0.73264">
        <ele>141</ele>
        <time>2021-03-25T01:52:00Z</time>
      </trkpt>
      <trkpt lat="47.01219" lon="-0.73225">
        <ele>140</ele>
        <time>2021-03-25T01:52:06Z</time>
      </trkpt>
      <trkpt lat="47.01216" lon="-0.73219">
        <ele>140</ele>
        <time>2021-03-25T01:52:07Z</time>
      </trkpt>
      <trkpt lat="47.01214" lon="-0.73211">
        <ele>139</ele>
        <time>2021-03-25T01:52:08Z</time>
      </trkpt>
      <trkpt lat="47.01214" lon="-0.73202">
        <ele>139</ele>
        <time>2021-03-25T01:52:09Z</time>
      </trkpt>
      <trkpt lat="47.01216" lon="-0.73194">
        <ele>139</ele>
        <time>2021-03-25T01:52:10Z</time>
      </trkpt>
      <trkpt lat="47.01219" lon="-0.73188">
        <ele>139</ele>
        <time>2021-03-25T01:52:11Z</time>
      </trkpt>
      <trkpt lat="47.01224" lon="-0.73183">
        <ele>138</ele>
        <time>2021-03-25T01:52:12Z</time>
      </trkpt>
      <trkpt lat="47.0123" lon="-0.73182">
        <ele>138</ele>
        <time>2021-03-25T01:52:13Z</time>
      </trkpt>
      <trkpt lat="47.01236" lon="-0.73183">
        <ele>139</ele>
        <time>2021-03-25T01:52:14Z</time>
      </trkpt>
      <trkpt lat="47.01242" lon="-0.73148">
        <ele>137</ele>
        <time>2021-03-25T01:52:19Z</time>
      </trkpt>
      <trkpt lat="47.01248" lon="-0.73122">
        <ele>136</ele>
        <time>2021-03-25T01:52:22Z</time>
      </trkpt>
      <trkpt lat="47.01502" lon="-0.72254">
        <ele>161</ele>
        <time>2021-03-25T01:54:17Z</time>
      </trkpt>
      <trkpt lat="47.01586" lon="-0.71958">
        <ele>163</ele>
        <time>2021-03-25T01:54:56Z</time>
      </trkpt>
      <trkpt lat="47.01812" lon="-0.71178">
        <ele>152</ele>
        <time>2021-03-25T01:56:38Z</time>
      </trkpt>
      <trkpt lat="47.01826" lon="-0.71138">
        <ele>152</ele>
        <time>2021-03-25T01:56:44Z</time>
      </trkpt>
      <trkpt lat="47.01837" lon="-0.71116">
        <ele>152</ele>
        <time>2021-03-25T01:56:47Z</time>
      </trkpt>
      <trkpt lat="47.01853" lon="-0.7109">
        <ele>153</ele>
        <time>2021-03-25T01:56:52Z</time>
      </trkpt>
      <trkpt lat="47.01849" lon="-0.71084">
        <ele>153</ele>
        <time>2021-03-25T01:56:53Z</time>
      </trkpt>
      <trkpt lat="47.01846" lon="-0.71076">
        <ele>152</ele>
        <time>2021-03-25T01:56:54Z</time>
      </trkpt>
      <trkpt lat="47.01846" lon="-0.71067">
        <ele>152</ele>
        <time>2021-03-25T01:56:55Z</time>
      </trkpt>
      <trkpt lat="47.01847" lon="-0.71058">
        <ele>152</ele>
        <time>2021-03-25T01:56:56Z</time>
      </trkpt>
      <trkpt lat="47.01851" lon="-0.71051">
        <ele>153</ele>
        <time>2021-03-25T01:56:57Z</time>
      </trkpt>
      <trkpt lat="47.01855" lon="-0.71046">
        <ele>153</ele>
        <time>2021-03-25T01:56:58Z</time>
      </trkpt>
      <trkpt lat="47.01861" lon="-0.71043">
        <ele>153</ele>
        <time>2021-03-25T01:56:59Z</time>
      </trkpt>
      <trkpt lat="47.01867" lon="-0.71043">
        <ele>153</ele>
        <time>2021-03-25T01:57:00Z</time>
      </trkpt>
      <trkpt lat="47.0187" lon="-0.71005">
        <ele>153</ele>
        <time>2021-03-25T01:57:05Z</time>
      </trkpt>
      <trkpt lat="47.01875" lon="-0.70966">
        <ele>153</ele>
        <time>2021-03-25T01:57:10Z</time>
      </trkpt>
      <trkpt lat="47.02053" lon="-0.70349">
        <ele>167</ele>
        <time>2021-03-25T01:58:31Z</time>
      </trkpt>
      <trkpt lat="47.02058" lon="-0.7034">
        <ele>167</ele>
        <time>2021-03-25T01:58:32Z</time>
      </trkpt>
      <trkpt lat="47.02081" lon="-0.7031">
        <ele>168</ele>
        <time>2021-03-25T01:58:38Z</time>
      </trkpt>
      <trkpt lat="47.02103" lon="-0.70274">
        <ele>169</ele>
        <time>2021-03-25T01:58:44Z</time>
      </trkpt>
      <trkpt lat="47.0211" lon="-0.70255">
        <ele>170</ele>
        <time>2021-03-25T01:58:46Z</time>
      </trkpt>
      <trkpt lat="47.02149" lon="-0.70128">
        <ele>173</ele>
        <time>2021-03-25T01:59:03Z</time>
      </trkpt>
      <trkpt lat="47.02165" lon="-0.7009">
        <ele>175</ele>
        <time>2021-03-25T01:59:08Z</time>
      </trkpt>
      <trkpt lat="47.02184" lon="-0.70057">
        <ele>176</ele>
        <time>2021-03-25T01:59:14Z</time>
      </trkpt>
      <trkpt lat="47.02244" lon="-0.6997">
        <ele>177</ele>
        <time>2021-03-25T01:59:29Z</time>
      </trkpt>
      <trkpt lat="47.02368" lon="-0.69797">
        <ele>181</ele>
        <time>2021-03-25T01:59:59Z</time>
      </trkpt>
      <trkpt lat="47.02365" lon="-0.69792">
        <ele>181</ele>
        <time>2021-03-25T02:00:00Z</time>
      </trkpt>
      <trkpt lat="47.02361" lon="-0.69782">
        <ele>181</ele>
        <time>2021-03-25T02:00:01Z</time>
      </trkpt>
      <trkpt lat="47.02349" lon="-0.6962">
        <ele>183</ele>
        <time>2021-03-25T02:00:21Z</time>
      </trkpt>
      <trkpt lat="47.02349" lon="-0.69562">
        <ele>183</ele>
        <time>2021-03-25T02:00:28Z</time>
      </trkpt>
      <trkpt lat="47.02363" lon="-0.69432">
        <ele>182</ele>
        <time>2021-03-25T02:00:44Z</time>
      </trkpt>
      <trkpt lat="47.02425" lon="-0.68981">
        <ele>180</ele>
        <time>2021-03-25T02:01:40Z</time>
      </trkpt>
      <trkpt lat="47.02431" lon="-0.68925">
        <ele>180</ele>
        <time>2021-03-25T02:01:47Z</time>
      </trkpt>
      <trkpt lat="47.02464" lon="-0.68564">
        <ele>179</ele>
        <time>2021-03-25T02:02:31Z</time>
      </trkpt>
      <trkpt lat="47.0247" lon="-0.68535">
        <ele>179</ele>
        <time>2021-03-25T02:02:35Z</time>
      </trkpt>
      <trkpt lat="47.02527" lon="-0.68293">
        <ele>178</ele>
        <time>2021-03-25T02:03:06Z</time>
      </trkpt>
      <trkpt lat="47.02633" lon="-0.67888">
        <ele>174</ele>
        <time>2021-03-25T02:03:58Z</time>
      </trkpt>
      <trkpt lat="47.02641" lon="-0.6785">
        <ele>173</ele>
        <time>2021-03-25T02:04:03Z</time>
      </trkpt>
      <trkpt lat="47.02646" lon="-0.67821">
        <ele>172</ele>
        <time>2021-03-25T02:04:07Z</time>
      </trkpt>
      <trkpt lat="47.02649" lon="-0.6779">
        <ele>172</ele>
        <time>2021-03-25T02:04:11Z</time>
      </trkpt>
      <trkpt lat="47.02653" lon="-0.67735">
        <ele>170</ele>
        <time>2021-03-25T02:04:17Z</time>
      </trkpt>
      <trkpt lat="47.0265" lon="-0.67661">
        <ele>170</ele>
        <time>2021-03-25T02:04:26Z</time>
      </trkpt>
      <trkpt lat="47.02642" lon="-0.67594">
        <ele>168</ele>
        <time>2021-03-25T02:04:35Z</time>
      </trkpt>
      <trkpt lat="47.02642" lon="-0.67554">
        <ele>168</ele>
        <time>2021-03-25T02:04:39Z</time>
      </trkpt>
      <trkpt lat="47.02649" lon="-0.67493">
        <ele>167</ele>
        <time>2021-03-25T02:04:47Z</time>
      </trkpt>
      <trkpt lat="47.0266" lon="-0.67438">
        <ele>166</ele>
        <time>2021-03-25T02:04:54Z</time>
      </trkpt>
      <trkpt lat="47.02693" lon="-0.67314">
        <ele>164</ele>
        <time>2021-03-25T02:05:10Z</time>
      </trkpt>
      <trkpt lat="47.02709" lon="-0.67283">
        <ele>164</ele>
        <time>2021-03-25T02:05:15Z</time>
      </trkpt>
      <trkpt lat="47.0276" lon="-0.67209">
        <ele>162</ele>
        <time>2021-03-25T02:05:27Z</time>
      </trkpt>
      <trkpt lat="47.02811" lon="-0.6713">
        <ele>158</ele>
        <time>2021-03-25T02:05:41Z</time>
      </trkpt>
      <trkpt lat="47.02906" lon="-0.66971">
        <ele>153</ele>
        <time>2021-03-25T02:06:06Z</time>
      </trkpt>
      <trkpt lat="47.02922" lon="-0.66939">
        <ele>152</ele>
        <time>2021-03-25T02:06:11Z</time>
      </trkpt>
      <trkpt lat="47.03055" lon="-0.66649">
        <ele>148</ele>
        <time>2021-03-25T02:06:54Z</time>
      </trkpt>
      <trkpt lat="47.03066" lon="-0.66627">
        <ele>148</ele>
        <time>2021-03-25T02:06:57Z</time>
      </trkpt>
      <trkpt lat="47.03081" lon="-0.66605">
        <ele>148</ele>
        <time>2021-03-25T02:07:01Z</time>
      </trkpt>
      <trkpt lat="47.03142" lon="-0.66535">
        <ele>145</ele>
        <time>2021-03-25T02:07:14Z</time>
      </trkpt>
      <trkpt lat="47.03178" lon="-0.66481">
        <ele>144</ele>
        <time>2021-03-25T02:07:24Z</time>
      </trkpt>
      <trkpt lat="47.03188" lon="-0.66462">
        <ele>144</ele>
        <time>2021-03-25T02:07:26Z</time>
      </trkpt>
      <trkpt lat="47.03196" lon="-0.66444">
        <ele>144</ele>
        <time>2021-03-25T02:07:29Z</time>
      </trkpt>
      <trkpt lat="47.03203" lon="-0.66418">
        <ele>144</ele>
        <time>2021-03-25T02:07:32Z</time>
      </trkpt>
      <trkpt lat="47.03229" lon="-0.66258">
        <ele>141</ele>
        <time>2021-03-25T02:07:52Z</time>
      </trkpt>
      <trkpt lat="47.03238" lon="-0.66227">
        <ele>141</ele>
        <time>2021-03-25T02:07:56Z</time>
      </trkpt>
      <trkpt lat="47.03247" lon="-0.66207">
        <ele>141</ele>
        <time>2021-03-25T02:07:59Z</time>
      </trkpt>
      <trkpt lat="47.03268" lon="-0.66165">
        <ele>142</ele>
        <time>2021-03-25T02:08:06Z</time>
      </trkpt>
      <trkpt lat="47.034" lon="-0.65926">
        <ele>144</ele>
        <time>2021-03-25T02:08:43Z</time>
      </trkpt>
      <trkpt lat="47.03428" lon="-0.65887">
        <ele>144</ele>
        <time>2021-03-25T02:08:50Z</time>
      </trkpt>
      <trkpt lat="47.03463" lon="-0.65847">
        <ele>144</ele>
        <time>2021-03-25T02:08:58Z</time>
      </trkpt>
      <trkpt lat="47.03486" lon="-0.65809">
        <ele>144</ele>
        <time>2021-03-25T02:09:04Z</time>
      </trkpt>
      <trkpt lat="47.03504" lon="-0.65773">
        <ele>144</ele>
        <time>2021-03-25T02:09:09Z</time>
      </trkpt>
      <trkpt lat="47.03583" lon="-0.65584">
        <ele>140</ele>
        <time>2021-03-25T02:09:36Z</time>
      </trkpt>
      <trkpt lat="47.03603" lon="-0.65512">
        <ele>138</ele>
        <time>2021-03-25T02:09:46Z</time>
      </trkpt>
      <trkpt lat="47.03607" lon="-0.65464">
        <ele>138</ele>
        <time>2021-03-25T02:09:52Z</time>
      </trkpt>
      <trkpt lat="47.03608" lon="-0.65349">
        <ele>136</ele>
        <time>2021-03-25T02:10:05Z</time>
      </trkpt>
      <trkpt lat="47.03607" lon="-0.65305">
        <ele>136</ele>
        <time>2021-03-25T02:10:11Z</time>
      </trkpt>
      <trkpt lat="47.03605" lon="-0.65263">
        <ele>135</ele>
        <time>2021-03-25T02:10:16Z</time>
      </trkpt>
      <trkpt lat="47.03573" lon="-0.65082">
        <ele>132</ele>
        <time>2021-03-25T02:10:39Z</time>
      </trkpt>
      <trkpt lat="47.0357" lon="-0.65055">
        <ele>132</ele>
        <time>2021-03-25T02:10:42Z</time>
      </trkpt>
      <trkpt lat="47.03571" lon="-0.65026">
        <ele>132</ele>
        <time>2021-03-25T02:10:45Z</time>
      </trkpt>
      <trkpt lat="47.03573" lon="-0.64996">
        <ele>132</ele>
        <time>2021-03-25T02:10:49Z</time>
      </trkpt>
      <trkpt lat="47.03585" lon="-0.64919">
        <ele>133</ele>
        <time>2021-03-25T02:10:59Z</time>
      </trkpt>
      <trkpt lat="47.036" lon="-0.64856">
        <ele>132</ele>
        <time>2021-03-25T02:11:07Z</time>
      </trkpt>
      <trkpt lat="47.0362" lon="-0.64781">
        <ele>130</ele>
        <time>2021-03-25T02:11:17Z</time>
      </trkpt>
      <trkpt lat="47.03624" lon="-0.64756">
        <ele>130</ele>
        <time>2021-03-25T02:11:20Z</time>
      </trkpt>
      <trkpt lat="47.03625" lon="-0.64738">
        <ele>130</ele>
        <time>2021-03-25T02:11:22Z</time>
      </trkpt>
      <trkpt lat="47.03621" lon="-0.647">
        <ele>130</ele>
        <time>2021-03-25T02:11:27Z</time>
      </trkpt>
      <trkpt lat="47.03571" lon="-0.64455">
        <ele>128</ele>
        <time>2021-03-25T02:11:58Z</time>
      </trkpt>
      <trkpt lat="47.03547" lon="-0.64319">
        <ele>129</ele>
        <time>2021-03-25T02:12:15Z</time>
      </trkpt>
      <trkpt lat="47.03538" lon="-0.64198">
        <ele>130</ele>
        <time>2021-03-25T02:12:29Z</time>
      </trkpt>
      <trkpt lat="47.03526" lon="-0.64119">
        <ele>130</ele>
        <time>2021-03-25T02:12:39Z</time>
      </trkpt>
      <trkpt lat="47.03505" lon="-0.64033">
        <ele>130</ele>
        <time>2021-03-25T02:12:50Z</time>
      </trkpt>
      <trkpt lat="47.03472" lon="-0.63919">
        <ele>131</ele>
        <time>2021-03-25T02:13:05Z</time>
      </trkpt>
      <trkpt lat="47.03429" lon="-0.63817">
        <ele>130</ele>
        <time>2021-03-25T02:13:20Z</time>
      </trkpt>
      <trkpt lat="47.03421" lon="-0.63792">
        <ele>130</ele>
        <time>2021-03-25T02:13:23Z</time>
      </trkpt>
      <trkpt lat="47.03417" lon="-0.63765">
        <ele>129</ele>
        <time>2021-03-25T02:13:26Z</time>
      </trkpt>
      <trkpt lat="47.03355" lon="-0.631">
        <ele>125</ele>
        <time>2021-03-25T02:14:48Z</time>
      </trkpt>
      <trkpt lat="47.03332" lon="-0.62908">
        <ele>128</ele>
        <time>2021-03-25T02:15:12Z</time>
      </trkpt>
      <trkpt lat="47.03315" lon="-0.62786">
        <ele>128</ele>
        <time>2021-03-25T02:15:27Z</time>
      </trkpt>
      <trkpt lat="47.03298" lon="-0.62683">
        <ele>127</ele>
        <time>2021-03-25T02:15:39Z</time>
      </trkpt>
      <trkpt lat="47.0317" lon="-0.62007">
        <ele>127</ele>
        <time>2021-03-25T02:17:05Z</time>
      </trkpt>
      <trkpt lat="47.0316" lon="-0.61962">
        <ele>127</ele>
        <time>2021-03-25T02:17:10Z</time>
      </trkpt>
      <trkpt lat="47.03148" lon="-0.6192">
        <ele>128</ele>
        <time>2021-03-25T02:17:16Z</time>
      </trkpt>
      <trkpt lat="47.03134" lon="-0.61882">
        <ele>129</ele>
        <time>2021-03-25T02:17:21Z</time>
      </trkpt>
      <trkpt lat="47.03091" lon="-0.6179">
        <ele>130</ele>
        <time>2021-03-25T02:17:35Z</time>
      </trkpt>
      <trkpt lat="47.03039" lon="-0.61695">
        <ele>129</ele>
        <time>2021-03-25T02:17:49Z</time>
      </trkpt>
      <trkpt lat="47.03035" lon="-0.61682">
        <ele>129</ele>
        <time>2021-03-25T02:17:51Z</time>
      </trkpt>
      <trkpt lat="47.03035" lon="-0.61672">
        <ele>128</ele>
        <time>2021-03-25T02:17:52Z</time>
      </trkpt>
      <trkpt lat="47.03038" lon="-0.6166">
        <ele>128</ele>
        <time>2021-03-25T02:17:54Z</time>
      </trkpt>
      <trkpt lat="47.03139" lon="-0.61413">
        <ele>122</ele>
        <time>2021-03-25T02:18:29Z</time>
      </trkpt>
      <trkpt lat="47.0316" lon="-0.61356">
        <ele>121</ele>
        <time>2021-03-25T02:18:37Z</time>
      </trkpt>
      <trkpt lat="47.0318" lon="-0.61292">
        <ele>120</ele>
        <time>2021-03-25T02:18:45Z</time>
      </trkpt>
      <trkpt lat="47.03183" lon="-0.61274">
        <ele>120</ele>
        <time>2021-03-25T02:18:47Z</time>
      </trkpt>
      <trkpt lat="47.03181" lon="-0.61274">
        <ele>120</ele>
        <time>2021-03-25T02:18:48Z</time>
      </trkpt>
      <trkpt lat="47.03178" lon="-0.61267">
        <ele>120</ele>
        <time>2021-03-25T02:18:49Z</time>
      </trkpt>
      <trkpt lat="47.03178" lon="-0.61263">
        <ele>120</ele>
        <time>2021-03-25T02:18:49Z</time>
      </trkpt>
      <trkpt lat="47.0318" lon="-0.6126">
        <ele>120</ele>
        <time>2021-03-25T02:18:50Z</time>
      </trkpt>
      <trkpt lat="47.03186" lon="-0.6126">
        <ele>120</ele>
        <time>2021-03-25T02:18:51Z</time>
      </trkpt>
      <trkpt lat="47.03191" lon="-0.61235">
        <ele>120</ele>
        <time>2021-03-25T02:18:54Z</time>
      </trkpt>
      <trkpt lat="47.03202" lon="-0.61168">
        <ele>121</ele>
        <time>2021-03-25T02:19:02Z</time>
      </trkpt>
      <trkpt lat="47.03229" lon="-0.61066">
        <ele>122</ele>
        <time>2021-03-25T02:19:16Z</time>
      </trkpt>
      <trkpt lat="47.03235" lon="-0.6104">
        <ele>121</ele>
        <time>2021-03-25T02:19:19Z</time>
      </trkpt>
      <trkpt lat="47.03238" lon="-0.61018">
        <ele>121</ele>
        <time>2021-03-25T02:19:22Z</time>
      </trkpt>
      <trkpt lat="47.03242" lon="-0.60949">
        <ele>120</ele>
        <time>2021-03-25T02:19:30Z</time>
      </trkpt>
      <trkpt lat="47.03241" lon="-0.60893">
        <ele>121</ele>
        <time>2021-03-25T02:19:37Z</time>
      </trkpt>
      <trkpt lat="47.03227" lon="-0.60779">
        <ele>120</ele>
        <time>2021-03-25T02:19:51Z</time>
      </trkpt>
      <trkpt lat="47.03231" lon="-0.60713">
        <ele>120</ele>
        <time>2021-03-25T02:19:59Z</time>
      </trkpt>
      <trkpt lat="47.0324" lon="-0.60654">
        <ele>120</ele>
        <time>2021-03-25T02:20:06Z</time>
      </trkpt>
      <trkpt lat="47.03252" lon="-0.60653">
        <ele>120</ele>
        <time>2021-03-25T02:20:08Z</time>
      </trkpt>
      <trkpt lat="47.03294" lon="-0.60635">
        <ele>121</ele>
        <time>2021-03-25T02:20:16Z</time>
      </trkpt>
      <trkpt lat="47.03345" lon="-0.60604">
        <ele>122</ele>
        <time>2021-03-25T02:20:26Z</time>
      </trkpt>
      <trkpt lat="47.03391" lon="-0.60556">
        <ele>124</ele>
        <time>2021-03-25T02:20:36Z</time>
      </trkpt>
      <trkpt lat="47.0344" lon="-0.60519">
        <ele>126</ele>
        <time>2021-03-25T02:20:46Z</time>
      </trkpt>
      <trkpt lat="47.03514" lon="-0.60471">
        <ele>129</ele>
        <time>2021-03-25T02:21:00Z</time>
      </trkpt>
      <trkpt lat="47.03533" lon="-0.60454">
        <ele>130</ele>
        <time>2021-03-25T02:21:04Z</time>
      </trkpt>
      <trkpt lat="47.03594" lon="-0.60392">
        <ele>133</ele>
        <time>2021-03-25T02:21:17Z</time>
      </trkpt>
      <trkpt lat="47.03732" lon="-0.60262">
        <ele>136</ele>
        <time>2021-03-25T02:21:47Z</time>
      </trkpt>
      <trkpt lat="47.03829" lon="-0.60166">
        <ele>138</ele>
        <time>2021-03-25T02:22:07Z</time>
      </trkpt>
      <trkpt lat="47.03898" lon="-0.60094">
        <ele>138</ele>
        <time>2021-03-25T02:22:23Z</time>
      </trkpt>
      <trkpt lat="47.03932" lon="-0.60048">
        <ele>139</ele>
        <time>2021-03-25T02:22:31Z</time>
      </trkpt>
      <trkpt lat="47.04069" lon="-0.59839">
        <ele>143</ele>
        <time>2021-03-25T02:23:06Z</time>
      </trkpt>
      <trkpt lat="47.041" lon="-0.59778">
        <ele>143</ele>
        <time>2021-03-25T02:23:15Z</time>
      </trkpt>
      <trkpt lat="47.04165" lon="-0.59631">
        <ele>142</ele>
        <time>2021-03-25T02:23:36Z</time>
      </trkpt>
      <trkpt lat="47.04189" lon="-0.59572">
        <ele>143</ele>
        <time>2021-03-25T02:23:45Z</time>
      </trkpt>
      <trkpt lat="47.04218" lon="-0.59472">
        <ele>144</ele>
        <time>2021-03-25T02:23:58Z</time>
      </trkpt>
      <trkpt lat="47.04298" lon="-0.59239">
        <ele>143</ele>
        <time>2021-03-25T02:24:30Z</time>
      </trkpt>
      <trkpt lat="47.04369" lon="-0.59052">
        <ele>140</ele>
        <time>2021-03-25T02:24:55Z</time>
      </trkpt>
      <trkpt lat="47.04385" lon="-0.59006">
        <ele>139</ele>
        <time>2021-03-25T02:25:02Z</time>
      </trkpt>
      <trkpt lat="47.04416" lon="-0.58893">
        <ele>138</ele>
        <time>2021-03-25T02:25:17Z</time>
      </trkpt>
      <trkpt lat="47.04478" lon="-0.58666">
        <ele>143</ele>
        <time>2021-03-25T02:25:46Z</time>
      </trkpt>
      <trkpt lat="47.045" lon="-0.5857">
        <ele>144</ele>
        <time>2021-03-25T02:25:58Z</time>
      </trkpt>
      <trkpt lat="47.04513" lon="-0.58528">
        <ele>146</ele>
        <time>2021-03-25T02:26:04Z</time>
      </trkpt>
      <trkpt lat="47.04532" lon="-0.58486">
        <ele>147</ele>
        <time>2021-03-25T02:26:10Z</time>
      </trkpt>
      <trkpt lat="47.04559" lon="-0.58434">
        <ele>147</ele>
        <time>2021-03-25T02:26:18Z</time>
      </trkpt>
      <trkpt lat="47.04602" lon="-0.58376">
        <ele>147</ele>
        <time>2021-03-25T02:26:28Z</time>
      </trkpt>
      <trkpt lat="47.04769" lon="-0.58087">
        <ele>149</ele>
        <time>2021-03-25T02:27:14Z</time>
      </trkpt>
      <trkpt lat="47.04782" lon="-0.58068">
        <ele>149</ele>
        <time>2021-03-25T02:27:18Z</time>
      </trkpt>
      <trkpt lat="47.04818" lon="-0.58016">
        <ele>149</ele>
        <time>2021-03-25T02:27:27Z</time>
      </trkpt>
      <trkpt lat="47.04856" lon="-0.57971">
        <ele>149</ele>
        <time>2021-03-25T02:27:35Z</time>
      </trkpt>
      <trkpt lat="47.04895" lon="-0.57936">
        <ele>150</ele>
        <time>2021-03-25T02:27:43Z</time>
      </trkpt>
      <trkpt lat="47.04915" lon="-0.57908">
        <ele>150</ele>
        <time>2021-03-25T02:27:48Z</time>
      </trkpt>
      <trkpt lat="47.04998" lon="-0.57772">
        <ele>152</ele>
        <time>2021-03-25T02:28:11Z</time>
      </trkpt>
      <trkpt lat="47.05117" lon="-0.5757">
        <ele>154</ele>
        <time>2021-03-25T02:28:43Z</time>
      </trkpt>
      <trkpt lat="47.05235" lon="-0.57374">
        <ele>155</ele>
        <time>2021-03-25T02:29:15Z</time>
      </trkpt>
      <trkpt lat="47.05292" lon="-0.57277">
        <ele>156</ele>
        <time>2021-03-25T02:29:30Z</time>
      </trkpt>
      <trkpt lat="47.05312" lon="-0.57247">
        <ele>156</ele>
        <time>2021-03-25T02:29:35Z</time>
      </trkpt>
      <trkpt lat="47.05443" lon="-0.57096">
        <ele>162</ele>
        <time>2021-03-25T02:30:05Z</time>
      </trkpt>
      <trkpt lat="47.05492" lon="-0.57033">
        <ele>163</ele>
        <time>2021-03-25T02:30:16Z</time>
      </trkpt>
      <trkpt lat="47.05565" lon="-0.56931">
        <ele>163</ele>
        <time>2021-03-25T02:30:34Z</time>
      </trkpt>
      <trkpt lat="47.056" lon="-0.56886">
        <ele>164</ele>
        <time>2021-03-25T02:30:43Z</time>
      </trkpt>
      <trkpt lat="47.05642" lon="-0.56844">
        <ele>165</ele>
        <time>2021-03-25T02:30:52Z</time>
      </trkpt>
      <trkpt lat="47.0567" lon="-0.56819">
        <ele>166</ele>
        <time>2021-03-25T02:30:58Z</time>
      </trkpt>
      <trkpt lat="47.05744" lon="-0.56775">
        <ele>168</ele>
        <time>2021-03-25T02:31:12Z</time>
      </trkpt>
      <trkpt lat="47.05898" lon="-0.56638">
        <ele>171</ele>
        <time>2021-03-25T02:31:44Z</time>
      </trkpt>
      <trkpt lat="47.05907" lon="-0.56627">
        <ele>171</ele>
        <time>2021-03-25T02:31:46Z</time>
      </trkpt>
      <trkpt lat="47.05963" lon="-0.56541">
        <ele>172</ele>
        <time>2021-03-25T02:32:00Z</time>
      </trkpt>
      <trkpt lat="47.0598" lon="-0.5651">
        <ele>174</ele>
        <time>2021-03-25T02:32:05Z</time>
      </trkpt>
      <trkpt lat="47.05994" lon="-0.56481">
        <ele>175</ele>
        <time>2021-03-25T02:32:09Z</time>
      </trkpt>
      <trkpt lat="47.06001" lon="-0.5646">
        <ele>175</ele>
        <time>2021-03-25T02:32:12Z</time>
      </trkpt>
      <trkpt lat="47.06006" lon="-0.5644">
        <ele>175</ele>
        <time>2021-03-25T02:32:15Z</time>
      </trkpt>
      <trkpt lat="47.06043" lon="-0.56208">
        <ele>172</ele>
        <time>2021-03-25T02:32:44Z</time>
      </trkpt>
      <trkpt lat="47.0607" lon="-0.5613">
        <ele>171</ele>
        <time>2021-03-25T02:32:54Z</time>
      </trkpt>
      <trkpt lat="47.06079" lon="-0.56105">
        <ele>169</ele>
        <time>2021-03-25T02:32:58Z</time>
      </trkpt>
      <trkpt lat="47.06109" lon="-0.56053">
        <ele>165</ele>
        <time>2021-03-25T02:33:06Z</time>
      </trkpt>
      <trkpt lat="47.06188" lon="-0.55938">
        <ele>163</ele>
        <time>2021-03-25T02:33:26Z</time>
      </trkpt>
      <trkpt lat="47.06314" lon="-0.55812">
        <ele>168</ele>
        <time>2021-03-25T02:33:53Z</time>
      </trkpt>
      <trkpt lat="47.06337" lon="-0.55793">
        <ele>170</ele>
        <time>2021-03-25T02:33:58Z</time>
      </trkpt>
      <trkpt lat="47.06376" lon="-0.55768">
        <ele>172</ele>
        <time>2021-03-25T02:34:05Z</time>
      </trkpt>
      <trkpt lat="47.06394" lon="-0.55761">
        <ele>173</ele>
        <time>2021-03-25T02:34:09Z</time>
      </trkpt>
      <trkpt lat="47.06427" lon="-0.55752">
        <ele>174</ele>
        <time>2021-03-25T02:34:14Z</time>
      </trkpt>
      <trkpt lat="47.06693" lon="-0.55725">
        <ele>173</ele>
        <time>2021-03-25T02:35:02Z</time>
      </trkpt>
      <trkpt lat="47.06726" lon="-0.5572">
        <ele>173</ele>
        <time>2021-03-25T02:35:08Z</time>
      </trkpt>
      <trkpt lat="47.06961" lon="-0.55641">
        <ele>172</ele>
        <time>2021-03-25T02:35:51Z</time>
      </trkpt>
      <trkpt lat="47.06979" lon="-0.55632">
        <ele>172</ele>
        <time>2021-03-25T02:35:54Z</time>
      </trkpt>
      <trkpt lat="47.07005" lon="-0.55614">
        <ele>172</ele>
        <time>2021-03-25T02:35:59Z</time>
      </trkpt>
      <trkpt lat="47.0703" lon="-0.55589">
        <ele>172</ele>
        <time>2021-03-25T02:36:05Z</time>
      </trkpt>
      <trkpt lat="47.07067" lon="-0.5554">
        <ele>170</ele>
        <time>2021-03-25T02:36:13Z</time>
      </trkpt>
      <trkpt lat="47.07096" lon="-0.55508">
        <ele>167</ele>
        <time>2021-03-25T02:36:20Z</time>
      </trkpt>
      <trkpt lat="47.07117" lon="-0.55478">
        <ele>165</ele>
        <time>2021-03-25T02:36:25Z</time>
      </trkpt>
      <trkpt lat="47.07126" lon="-0.55428">
        <ele>162</ele>
        <time>2021-03-25T02:36:31Z</time>
      </trkpt>
      <trkpt lat="47.07133" lon="-0.55395">
        <ele>160</ele>
        <time>2021-03-25T02:36:36Z</time>
      </trkpt>
      <trkpt lat="47.07146" lon="-0.55367">
        <ele>158</ele>
        <time>2021-03-25T02:36:40Z</time>
      </trkpt>
      <trkpt lat="47.07201" lon="-0.55276">
        <ele>152</ele>
        <time>2021-03-25T02:36:54Z</time>
      </trkpt>
      <trkpt lat="47.0722" lon="-0.55249">
        <ele>150</ele>
        <time>2021-03-25T02:36:59Z</time>
      </trkpt>
      <trkpt lat="47.07264" lon="-0.55198">
        <ele>148</ele>
        <time>2021-03-25T02:37:09Z</time>
      </trkpt>
      <trkpt lat="47.07279" lon="-0.55172">
        <ele>146</ele>
        <time>2021-03-25T02:37:13Z</time>
      </trkpt>
      <trkpt lat="47.07308" lon="-0.55099">
        <ele>143</ele>
        <time>2021-03-25T02:37:23Z</time>
      </trkpt>
      <trkpt lat="47.07316" lon="-0.55086">
        <ele>142</ele>
        <time>2021-03-25T02:37:26Z</time>
      </trkpt>
      <trkpt lat="47.07324" lon="-0.55077">
        <ele>141</ele>
        <time>2021-03-25T02:37:27Z</time>
      </trkpt>
      <trkpt lat="47.07342" lon="-0.5507">
        <ele>141</ele>
        <time>2021-03-25T02:37:31Z</time>
      </trkpt>
      <trkpt lat="47.07386" lon="-0.55072">
        <ele>141</ele>
        <time>2021-03-25T02:37:39Z</time>
      </trkpt>
      <trkpt lat="47.07398" lon="-0.5507">
        <ele>141</ele>
        <time>2021-03-25T02:37:41Z</time>
      </trkpt>
      <trkpt lat="47.07421" lon="-0.55062">
        <ele>140</ele>
        <time>2021-03-25T02:37:45Z</time>
      </trkpt>
      <trkpt lat="47.07443" lon="-0.55044">
        <ele>140</ele>
        <time>2021-03-25T02:37:49Z</time>
      </trkpt>
      <trkpt lat="47.07516" lon="-0.54961">
        <ele>138</ele>
        <time>2021-03-25T02:38:06Z</time>
      </trkpt>
      <trkpt lat="47.07544" lon="-0.54936">
        <ele>138</ele>
        <time>2021-03-25T02:38:12Z</time>
      </trkpt>
      <trkpt lat="47.07604" lon="-0.54897">
        <ele>137</ele>
        <time>2021-03-25T02:38:23Z</time>
      </trkpt>
      <trkpt lat="47.07715" lon="-0.54835">
        <ele>134</ele>
        <time>2021-03-25T02:38:44Z</time>
      </trkpt>
      <trkpt lat="47.07761" lon="-0.54815">
        <ele>134</ele>
        <time>2021-03-25T02:38:53Z</time>
      </trkpt>
      <trkpt lat="47.07771" lon="-0.54807">
        <ele>133</ele>
        <time>2021-03-25T02:38:55Z</time>
      </trkpt>
      <trkpt lat="47.07786" lon="-0.54788">
        <ele>133</ele>
        <time>2021-03-25T02:38:59Z</time>
      </trkpt>
      <trkpt lat="47.07793" lon="-0.54778">
        <ele>132</ele>
        <time>2021-03-25T02:39:00Z</time>
      </trkpt>
      <trkpt lat="47.07839" lon="-0.54693">
        <ele>131</ele>
        <time>2021-03-25T02:39:13Z</time>
      </trkpt>
      <trkpt lat="47.07863" lon="-0.54639">
        <ele>132</ele>
        <time>2021-03-25T02:39:21Z</time>
      </trkpt>
      <trkpt lat="47.07871" lon="-0.54624">
        <ele>132</ele>
        <time>2021-03-25T02:39:24Z</time>
      </trkpt>
      <trkpt lat="47.07868" lon="-0.5462">
        <ele>132</ele>
        <time>2021-03-25T02:39:24Z</time>
      </trkpt>
      <trkpt lat="47.07871" lon="-0.54624">
        <ele>132</ele>
        <time>2021-03-25T02:39:25Z</time>
      </trkpt>
      <trkpt lat="47.07985" lon="-0.54519">
        <ele>131</ele>
        <time>2021-03-25T02:39:49Z</time>
      </trkpt>
      <trkpt lat="47.08042" lon="-0.54446">
        <ele>130</ele>
        <time>2021-03-25T02:40:02Z</time>
      </trkpt>
      <trkpt lat="47.08057" lon="-0.54433">
        <ele>130</ele>
        <time>2021-03-25T02:40:05Z</time>
      </trkpt>
      <trkpt lat="47.08061" lon="-0.54431">
        <ele>130</ele>
        <time>2021-03-25T02:40:06Z</time>
      </trkpt>
      <trkpt lat="47.08064" lon="-0.54411">
        <ele>130</ele>
        <time>2021-03-25T02:40:09Z</time>
      </trkpt>
      <trkpt lat="47.08053" lon="-0.54344">
        <ele>130</ele>
        <time>2021-03-25T02:40:17Z</time>
      </trkpt>
      <trkpt lat="47.08047" lon="-0.54301">
        <ele>129</ele>
        <time>2021-03-25T02:40:22Z</time>
      </trkpt>
      <trkpt lat="47.08044" lon="-0.54257">
        <ele>128</ele>
        <time>2021-03-25T02:40:28Z</time>
      </trkpt>
      <trkpt lat="47.08041" lon="-0.54161">
        <ele>126</ele>
        <time>2021-03-25T02:40:39Z</time>
      </trkpt>
      <trkpt lat="47.08042" lon="-0.54121">
        <ele>126</ele>
        <time>2021-03-25T02:40:44Z</time>
      </trkpt>
      <trkpt lat="47.08046" lon="-0.54084">
        <ele>125</ele>
        <time>2021-03-25T02:40:49Z</time>
      </trkpt>
      <trkpt lat="47.08051" lon="-0.54059">
        <ele>125</ele>
        <time>2021-03-25T02:40:52Z</time>
      </trkpt>
      <trkpt lat="47.08061" lon="-0.54035">
        <ele>125</ele>
        <time>2021-03-25T02:40:55Z</time>
      </trkpt>
      <trkpt lat="47.0807" lon="-0.54021">
        <ele>124</ele>
        <time>2021-03-25T02:40:58Z</time>
      </trkpt>
      <trkpt lat="47.08124" lon="-0.5397">
        <ele>123</ele>
        <time>2021-03-25T02:41:09Z</time>
      </trkpt>
      <trkpt lat="47.08152" lon="-0.5394">
        <ele>122</ele>
        <time>2021-03-25T02:41:15Z</time>
      </trkpt>
      <trkpt lat="47.08297" lon="-0.5376">
        <ele>123</ele>
        <time>2021-03-25T02:41:49Z</time>
      </trkpt>
      <trkpt lat="47.08321" lon="-0.53734">
        <ele>122</ele>
        <time>2021-03-25T02:41:54Z</time>
      </trkpt>
      <trkpt lat="47.08345" lon="-0.53716">
        <ele>122</ele>
        <time>2021-03-25T02:41:59Z</time>
      </trkpt>
      <trkpt lat="47.08393" lon="-0.53686">
        <ele>123</ele>
        <time>2021-03-25T02:42:08Z</time>
      </trkpt>
      <trkpt lat="47.08413" lon="-0.53671">
        <ele>124</ele>
        <time>2021-03-25T02:42:12Z</time>
      </trkpt>
      <trkpt lat="47.08449" lon="-0.53634">
        <ele>125</ele>
        <time>2021-03-25T02:42:20Z</time>
      </trkpt>
      <trkpt lat="47.0846" lon="-0.53619">
        <ele>125</ele>
        <time>2021-03-25T02:42:23Z</time>
      </trkpt>
      <trkpt lat="47.08475" lon="-0.53592">
        <ele>125</ele>
        <time>2021-03-25T02:42:27Z</time>
      </trkpt>
      <trkpt lat="47.08489" lon="-0.53557">
        <ele>125</ele>
        <time>2021-03-25T02:42:32Z</time>
      </trkpt>
      <trkpt lat="47.08513" lon="-0.53493">
        <ele>125</ele>
        <time>2021-03-25T02:42:41Z</time>
      </trkpt>
      <trkpt lat="47.08529" lon="-0.53439">
        <ele>125</ele>
        <time>2021-03-25T02:42:48Z</time>
      </trkpt>
      <trkpt lat="47.08546" lon="-0.53352">
        <ele>126</ele>
        <time>2021-03-25T02:42:59Z</time>
      </trkpt>
      <trkpt lat="47.08581" lon="-0.53217">
        <ele>127</ele>
        <time>2021-03-25T02:43:17Z</time>
      </trkpt>
      <trkpt lat="47.08657" lon="-0.53034">
        <ele>126</ele>
        <time>2021-03-25T02:43:42Z</time>
      </trkpt>
      <trkpt lat="47.08681" lon="-0.52989">
        <ele>125</ele>
        <time>2021-03-25T02:43:49Z</time>
      </trkpt>
      <trkpt lat="47.08707" lon="-0.52948">
        <ele>124</ele>
        <time>2021-03-25T02:43:56Z</time>
      </trkpt>
      <trkpt lat="47.08739" lon="-0.52904">
        <ele>123</ele>
        <time>2021-03-25T02:44:04Z</time>
      </trkpt>
      <trkpt lat="47.08813" lon="-0.5281">
        <ele>124</ele>
        <time>2021-03-25T02:44:21Z</time>
      </trkpt>
      <trkpt lat="47.08865" lon="-0.52752">
        <ele>124</ele>
        <time>2021-03-25T02:44:33Z</time>
      </trkpt>
      <trkpt lat="47.08878" lon="-0.52743">
        <ele>124</ele>
        <time>2021-03-25T02:44:36Z</time>
      </trkpt>
      <trkpt lat="47.08893" lon="-0.52738">
        <ele>125</ele>
        <time>2021-03-25T02:44:38Z</time>
      </trkpt>
      <trkpt lat="47.08935" lon="-0.52731">
        <ele>124</ele>
        <time>2021-03-25T02:44:46Z</time>
      </trkpt>
      <trkpt lat="47.08954" lon="-0.52724">
        <ele>124</ele>
        <time>2021-03-25T02:44:49Z</time>
      </trkpt>
      <trkpt lat="47.08967" lon="-0.52716">
        <ele>124</ele>
        <time>2021-03-25T02:44:52Z</time>
      </trkpt>
      <trkpt lat="47.08983" lon="-0.52703">
        <ele>123</ele>
        <time>2021-03-25T02:44:55Z</time>
      </trkpt>
      <trkpt lat="47.08995" lon="-0.52687">
        <ele>123</ele>
        <time>2021-03-25T02:44:58Z</time>
      </trkpt>
      <trkpt lat="47.09049" lon="-0.52582">
        <ele>123</ele>
        <time>2021-03-25T02:45:14Z</time>
      </trkpt>
      <trkpt lat="47.09072" lon="-0.52544">
        <ele>123</ele>
        <time>2021-03-25T02:45:20Z</time>
      </trkpt>
      <trkpt lat="47.09126" lon="-0.52471">
        <ele>123</ele>
        <time>2021-03-25T02:45:33Z</time>
      </trkpt>
      <trkpt lat="47.09224" lon="-0.52363">
        <ele>125</ele>
        <time>2021-03-25T02:45:55Z</time>
      </trkpt>
      <trkpt lat="47.09235" lon="-0.52348">
        <ele>125</ele>
        <time>2021-03-25T02:45:58Z</time>
      </trkpt>
      <trkpt lat="47.09253" lon="-0.52305">
        <ele>126</ele>
        <time>2021-03-25T02:46:04Z</time>
      </trkpt>
      <trkpt lat="47.0927" lon="-0.52255">
        <ele>127</ele>
        <time>2021-03-25T02:46:10Z</time>
      </trkpt>
      <trkpt lat="47.09277" lon="-0.5223">
        <ele>127</ele>
        <time>2021-03-25T02:46:14Z</time>
      </trkpt>
      <trkpt lat="47.0929" lon="-0.5217">
        <ele>128</ele>
        <time>2021-03-25T02:46:21Z</time>
      </trkpt>
      <trkpt lat="47.09295" lon="-0.5213">
        <ele>128</ele>
        <time>2021-03-25T02:46:26Z</time>
      </trkpt>
      <trkpt lat="47.09301" lon="-0.52">
        <ele>127</ele>
        <time>2021-03-25T02:46:42Z</time>
      </trkpt>
      <trkpt lat="47.09304" lon="-0.51846">
        <ele>126</ele>
        <time>2021-03-25T02:47:01Z</time>
      </trkpt>
      <trkpt lat="47.09306" lon="-0.5182">
        <ele>126</ele>
        <time>2021-03-25T02:47:04Z</time>
      </trkpt>
      <trkpt lat="47.09311" lon="-0.51805">
        <ele>125</ele>
        <time>2021-03-25T02:47:06Z</time>
      </trkpt>
      <trkpt lat="47.09318" lon="-0.5179">
        <ele>125</ele>
        <time>2021-03-25T02:47:08Z</time>
      </trkpt>
      <trkpt lat="47.09384" lon="-0.51694">
        <ele>125</ele>
        <time>2021-03-25T02:47:25Z</time>
      </trkpt>
      <trkpt lat="47.09482" lon="-0.5157">
        <ele>121</ele>
        <time>2021-03-25T02:47:48Z</time>
      </trkpt>
      <trkpt lat="47.09524" lon="-0.51501">
        <ele>120</ele>
        <time>2021-03-25T02:47:59Z</time>
      </trkpt>
      <trkpt lat="47.0954" lon="-0.51464">
        <ele>119</ele>
        <time>2021-03-25T02:48:04Z</time>
      </trkpt>
      <trkpt lat="47.09544" lon="-0.51451">
        <ele>119</ele>
        <time>2021-03-25T02:48:06Z</time>
      </trkpt>
      <trkpt lat="47.09545" lon="-0.51428">
        <ele>118</ele>
        <time>2021-03-25T02:48:09Z</time>
      </trkpt>
      <trkpt lat="47.0952" lon="-0.51257">
        <ele>118</ele>
        <time>2021-03-25T02:48:30Z</time>
      </trkpt>
      <trkpt lat="47.09519" lon="-0.51224">
        <ele>118</ele>
        <time>2021-03-25T02:48:34Z</time>
      </trkpt>
      <trkpt lat="47.09526" lon="-0.51142">
        <ele>118</ele>
        <time>2021-03-25T02:48:44Z</time>
      </trkpt>
      <trkpt lat="47.09533" lon="-0.5109">
        <ele>118</ele>
        <time>2021-03-25T02:48:50Z</time>
      </trkpt>
      <trkpt lat="47.09542" lon="-0.51054">
        <ele>117</ele>
        <time>2021-03-25T02:48:55Z</time>
      </trkpt>
      <trkpt lat="47.09553" lon="-0.51022">
        <ele>116</ele>
        <time>2021-03-25T02:48:59Z</time>
      </trkpt>
      <trkpt lat="47.09564" lon="-0.51004">
        <ele>115</ele>
        <time>2021-03-25T02:49:02Z</time>
      </trkpt>
      <trkpt lat="47.0966" lon="-0.50879">
        <ele>115</ele>
        <time>2021-03-25T02:49:25Z</time>
      </trkpt>
      <trkpt lat="47.09682" lon="-0.50853">
        <ele>115</ele>
        <time>2021-03-25T02:49:30Z</time>
      </trkpt>
      <trkpt lat="47.09703" lon="-0.50832">
        <ele>115</ele>
        <time>2021-03-25T02:49:35Z</time>
      </trkpt>
      <trkpt lat="47.09727" lon="-0.50815">
        <ele>114</ele>
        <time>2021-03-25T02:49:39Z</time>
      </trkpt>
      <trkpt lat="47.09816" lon="-0.50754">
        <ele>116</ele>
        <time>2021-03-25T02:49:57Z</time>
      </trkpt>
      <trkpt lat="47.09828" lon="-0.50744">
        <ele>116</ele>
        <time>2021-03-25T02:49:59Z</time>
      </trkpt>
      <trkpt lat="47.09881" lon="-0.50685">
        <ele>116</ele>
        <time>2021-03-25T02:50:11Z</time>
      </trkpt>
      <trkpt lat="47.09951" lon="-0.50632">
        <ele>115</ele>
        <time>2021-03-25T02:50:25Z</time>
      </trkpt>
      <trkpt lat="47.09971" lon="-0.50615">
        <ele>114</ele>
        <time>2021-03-25T02:50:29Z</time>
      </trkpt>
      <trkpt lat="47.09983" lon="-0.50603">
        <ele>114</ele>
        <time>2021-03-25T02:50:32Z</time>
      </trkpt>
      <trkpt lat="47.09994" lon="-0.50589">
        <ele>114</ele>
        <time>2021-03-25T02:50:34Z</time>
      </trkpt>
      <trkpt lat="47.10015" lon="-0.5055">
        <ele>115</ele>
        <time>2021-03-25T02:50:40Z</time>
      </trkpt>
      <trkpt lat="47.10028" lon="-0.50517">
        <ele>116</ele>
        <time>2021-03-25T02:50:45Z</time>
      </trkpt>
      <trkpt lat="47.10039" lon="-0.5048">
        <ele>117</ele>
        <time>2021-03-25T02:50:50Z</time>
      </trkpt>
      <trkpt lat="47.10053" lon="-0.50442">
        <ele>117</ele>
        <time>2021-03-25T02:50:55Z</time>
      </trkpt>
      <trkpt lat="47.10077" lon="-0.50397">
        <ele>117</ele>
        <time>2021-03-25T02:51:02Z</time>
      </trkpt>
      <trkpt lat="47.10089" lon="-0.50383">
        <ele>117</ele>
        <time>2021-03-25T02:51:05Z</time>
      </trkpt>
      <trkpt lat="47.10175" lon="-0.50304">
        <ele>119</ele>
        <time>2021-03-25T02:51:23Z</time>
      </trkpt>
      <trkpt lat="47.10186" lon="-0.50291">
        <ele>119</ele>
        <time>2021-03-25T02:51:25Z</time>
      </trkpt>
      <trkpt lat="47.10194" lon="-0.50278">
        <ele>119</ele>
        <time>2021-03-25T02:51:28Z</time>
      </trkpt>
      <trkpt lat="47.10204" lon="-0.50248">
        <ele>119</ele>
        <time>2021-03-25T02:51:32Z</time>
      </trkpt>
      <trkpt lat="47.10209" lon="-0.50222">
        <ele>120</ele>
        <time>2021-03-25T02:51:35Z</time>
      </trkpt>
      <trkpt lat="47.10211" lon="-0.50192">
        <ele>119</ele>
        <time>2021-03-25T02:51:39Z</time>
      </trkpt>
      <trkpt lat="47.10213" lon="-0.50087">
        <ele>120</ele>
        <time>2021-03-25T02:51:51Z</time>
      </trkpt>
      <trkpt lat="47.10216" lon="-0.50063">
        <ele>120</ele>
        <time>2021-03-25T02:51:54Z</time>
      </trkpt>
      <trkpt lat="47.10241" lon="-0.49932">
        <ele>120</ele>
        <time>2021-03-25T02:52:11Z</time>
      </trkpt>
      <trkpt lat="47.1025" lon="-0.49869">
        <ele>119</ele>
        <time>2021-03-25T02:52:18Z</time>
      </trkpt>
      <trkpt lat="47.10254" lon="-0.49819">
        <ele>119</ele>
        <time>2021-03-25T02:52:25Z</time>
      </trkpt>
      <trkpt lat="47.10254" lon="-0.4973">
        <ele>119</ele>
        <time>2021-03-25T02:52:35Z</time>
      </trkpt>
      <trkpt lat="47.10272" lon="-0.49597">
        <ele>118</ele>
        <time>2021-03-25T02:52:52Z</time>
      </trkpt>
      <trkpt lat="47.10275" lon="-0.49557">
        <ele>117</ele>
        <time>2021-03-25T02:52:57Z</time>
      </trkpt>
      <trkpt lat="47.10273" lon="-0.49535">
        <ele>117</ele>
        <time>2021-03-25T02:52:59Z</time>
      </trkpt>
      <trkpt lat="47.10257" lon="-0.49395">
        <ele>116</ele>
        <time>2021-03-25T02:53:17Z</time>
      </trkpt>
      <trkpt lat="47.10226" lon="-0.48957">
        <ele>114</ele>
        <time>2021-03-25T02:54:10Z</time>
      </trkpt>
      <trkpt lat="47.10225" lon="-0.48917">
        <ele>113</ele>
        <time>2021-03-25T02:54:15Z</time>
      </trkpt>
      <trkpt lat="47.10226" lon="-0.48882">
        <ele>114</ele>
        <time>2021-03-25T02:54:19Z</time>
      </trkpt>
      <trkpt lat="47.10248" lon="-0.48733">
        <ele>112</ele>
        <time>2021-03-25T02:54:37Z</time>
      </trkpt>
      <trkpt lat="47.1027" lon="-0.48613">
        <ele>111</ele>
        <time>2021-03-25T02:54:52Z</time>
      </trkpt>
      <trkpt lat="47.10269" lon="-0.48591">
        <ele>111</ele>
        <time>2021-03-25T02:54:55Z</time>
      </trkpt>
      <trkpt lat="47.10264" lon="-0.48571">
        <ele>112</ele>
        <time>2021-03-25T02:54:58Z</time>
      </trkpt>
      <trkpt lat="47.10229" lon="-0.48484">
        <ele>112</ele>
        <time>2021-03-25T02:55:10Z</time>
      </trkpt>
      <trkpt lat="47.10223" lon="-0.48459">
        <ele>112</ele>
        <time>2021-03-25T02:55:13Z</time>
      </trkpt>
      <trkpt lat="47.10221" lon="-0.48434">
        <ele>112</ele>
        <time>2021-03-25T02:55:16Z</time>
      </trkpt>
      <trkpt lat="47.10198" lon="-0.48053">
        <ele>111</ele>
        <time>2021-03-25T02:56:03Z</time>
      </trkpt>
      <trkpt lat="47.10197" lon="-0.47753">
        <ele>108</ele>
        <time>2021-03-25T02:56:39Z</time>
      </trkpt>
      <trkpt lat="47.10199" lon="-0.47735">
        <ele>108</ele>
        <time>2021-03-25T02:56:41Z</time>
      </trkpt>
      <trkpt lat="47.10201" lon="-0.47722">
        <ele>108</ele>
        <time>2021-03-25T02:56:43Z</time>
      </trkpt>
      <trkpt lat="47.10205" lon="-0.47711">
        <ele>108</ele>
        <time>2021-03-25T02:56:44Z</time>
      </trkpt>
      <trkpt lat="47.10217" lon="-0.47691">
        <ele>107</ele>
        <time>2021-03-25T02:56:47Z</time>
      </trkpt>
      <trkpt lat="47.10288" lon="-0.47593">
        <ele>106</ele>
        <time>2021-03-25T02:57:05Z</time>
      </trkpt>
      <trkpt lat="47.1033" lon="-0.47522">
        <ele>106</ele>
        <time>2021-03-25T02:57:16Z</time>
      </trkpt>
      <trkpt lat="47.10375" lon="-0.47434">
        <ele>103</ele>
        <time>2021-03-25T02:57:29Z</time>
      </trkpt>
      <trkpt lat="47.10467" lon="-0.47185">
        <ele>103</ele>
        <time>2021-03-25T02:58:04Z</time>
      </trkpt>
      <trkpt lat="47.10486" lon="-0.47127">
        <ele>103</ele>
        <time>2021-03-25T02:58:12Z</time>
      </trkpt>
      <trkpt lat="47.10508" lon="-0.47048">
        <ele>103</ele>
        <time>2021-03-25T02:58:22Z</time>
      </trkpt>
      <trkpt lat="47.10518" lon="-0.47016">
        <ele>103</ele>
        <time>2021-03-25T02:58:26Z</time>
      </trkpt>
      <trkpt lat="47.10522" lon="-0.4701">
        <ele>103</ele>
        <time>2021-03-25T02:58:27Z</time>
      </trkpt>
      <trkpt lat="47.10534" lon="-0.46998">
        <ele>102</ele>
        <time>2021-03-25T02:58:30Z</time>
      </trkpt>
      <trkpt lat="47.10658" lon="-0.46925">
        <ele>102</ele>
        <time>2021-03-25T02:58:54Z</time>
      </trkpt>
      <trkpt lat="47.10695" lon="-0.46897">
        <ele>104</ele>
        <time>2021-03-25T02:59:01Z</time>
      </trkpt>
      <trkpt lat="47.10736" lon="-0.46858">
        <ele>107</ele>
        <time>2021-03-25T02:59:10Z</time>
      </trkpt>
      <trkpt lat="47.10747" lon="-0.46844">
        <ele>108</ele>
        <time>2021-03-25T02:59:12Z</time>
      </trkpt>
      <trkpt lat="47.1076" lon="-0.46819">
        <ele>109</ele>
        <time>2021-03-25T02:59:16Z</time>
      </trkpt>
      <trkpt lat="47.10789" lon="-0.46734">
        <ele>111</ele>
        <time>2021-03-25T02:59:28Z</time>
      </trkpt>
      <trkpt lat="47.10786" lon="-0.46726">
        <ele>111</ele>
        <time>2021-03-25T02:59:29Z</time>
      </trkpt>
      <trkpt lat="47.10738" lon="-0.46647">
        <ele>111</ele>
        <time>2021-03-25T02:59:42Z</time>
      </trkpt>
      <trkpt lat="47.10729" lon="-0.46617">
        <ele>112</ele>
        <time>2021-03-25T02:59:45Z</time>
      </trkpt>
      <trkpt lat="47.10715" lon="-0.46552">
        <ele>114</ele>
        <time>2021-03-25T02:59:54Z</time>
      </trkpt>
      <trkpt lat="47.10707" lon="-0.46528">
        <ele>114</ele>
        <time>2021-03-25T02:59:57Z</time>
      </trkpt>
      <trkpt lat="47.10691" lon="-0.46492">
        <ele>114</ele>
        <time>2021-03-25T03:00:02Z</time>
      </trkpt>
      <trkpt lat="47.10662" lon="-0.46437">
        <ele>115</ele>
        <time>2021-03-25T03:00:11Z</time>
      </trkpt>
      <trkpt lat="47.10646" lon="-0.464">
        <ele>116</ele>
        <time>2021-03-25T03:00:16Z</time>
      </trkpt>
      <trkpt lat="47.10601" lon="-0.46269">
        <ele>115</ele>
        <time>2021-03-25T03:00:34Z</time>
      </trkpt>
      <trkpt lat="47.1055" lon="-0.46129">
        <ele>112</ele>
        <time>2021-03-25T03:00:53Z</time>
      </trkpt>
      <trkpt lat="47.10528" lon="-0.46061">
        <ele>111</ele>
        <time>2021-03-25T03:01:02Z</time>
      </trkpt>
      <trkpt lat="47.10485" lon="-0.45943">
        <ele>109</ele>
        <time>2021-03-25T03:01:18Z</time>
      </trkpt>
      <trkpt lat="47.1047" lon="-0.4591">
        <ele>109</ele>
        <time>2021-03-25T03:01:23Z</time>
      </trkpt>
      <trkpt lat="47.10396" lon="-0.45771">
        <ele>110</ele>
        <time>2021-03-25T03:01:44Z</time>
      </trkpt>
      <trkpt lat="47.10332" lon="-0.45645">
        <ele>111</ele>
        <time>2021-03-25T03:02:03Z</time>
      </trkpt>
      <trkpt lat="47.10319" lon="-0.45601">
        <ele>112</ele>
        <time>2021-03-25T03:02:09Z</time>
      </trkpt>
      <trkpt lat="47.10269" lon="-0.45357">
        <ele>115</ele>
        <time>2021-03-25T03:02:40Z</time>
      </trkpt>
      <trkpt lat="47.10253" lon="-0.45321">
        <ele>115</ele>
        <time>2021-03-25T03:02:45Z</time>
      </trkpt>
      <trkpt lat="47.1014" lon="-0.45111">
        <ele>106</ele>
        <time>2021-03-25T03:03:18Z</time>
      </trkpt>
      <trkpt lat="47.10129" lon="-0.45081">
        <ele>106</ele>
        <time>2021-03-25T03:03:22Z</time>
      </trkpt>
      <trkpt lat="47.10051" lon="-0.44721">
        <ele>104</ele>
        <time>2021-03-25T03:04:08Z</time>
      </trkpt>
      <trkpt lat="47.09948" lon="-0.44358">
        <ele>104</ele>
        <time>2021-03-25T03:04:55Z</time>
      </trkpt>
      <trkpt lat="47.09907" lon="-0.44162">
        <ele>98</ele>
        <time>2021-03-25T03:05:20Z</time>
      </trkpt>
      <trkpt lat="47.09891" lon="-0.44115">
        <ele>99</ele>
        <time>2021-03-25T03:05:26Z</time>
      </trkpt>
      <trkpt lat="47.09839" lon="-0.43995">
        <ele>102</ele>
        <time>2021-03-25T03:05:44Z</time>
      </trkpt>
      <trkpt lat="47.09808" lon="-0.43902">
        <ele>101</ele>
        <time>2021-03-25T03:05:56Z</time>
      </trkpt>
      <trkpt lat="47.098" lon="-0.43861">
        <ele>102</ele>
        <time>2021-03-25T03:06:01Z</time>
      </trkpt>
      <trkpt lat="47.09795" lon="-0.4378">
        <ele>103</ele>
        <time>2021-03-25T03:06:11Z</time>
      </trkpt>
      <trkpt lat="47.09791" lon="-0.43744">
        <ele>103</ele>
        <time>2021-03-25T03:06:16Z</time>
      </trkpt>
      <trkpt lat="47.09783" lon="-0.43695">
        <ele>102</ele>
        <time>2021-03-25T03:06:22Z</time>
      </trkpt>
      <trkpt lat="47.09771" lon="-0.43642">
        <ele>102</ele>
        <time>2021-03-25T03:06:29Z</time>
      </trkpt>
      <trkpt lat="47.0971" lon="-0.4341">
        <ele>104</ele>
        <time>2021-03-25T03:06:59Z</time>
      </trkpt>
      <trkpt lat="47.09703" lon="-0.43361">
        <ele>103</ele>
        <time>2021-03-25T03:07:05Z</time>
      </trkpt>
      <trkpt lat="47.097" lon="-0.43323">
        <ele>103</ele>
        <time>2021-03-25T03:07:09Z</time>
      </trkpt>
      <trkpt lat="47.09696" lon="-0.43141">
        <ele>101</ele>
        <time>2021-03-25T03:07:31Z</time>
      </trkpt>
      <trkpt lat="47.09681" lon="-0.42905">
        <ele>92</ele>
        <time>2021-03-25T03:08:00Z</time>
      </trkpt>
      <trkpt lat="47.09676" lon="-0.42655">
        <ele>88</ele>
        <time>2021-03-25T03:08:30Z</time>
      </trkpt>
      <trkpt lat="47.09673" lon="-0.42602">
        <ele>88</ele>
        <time>2021-03-25T03:08:37Z</time>
      </trkpt>
      <trkpt lat="47.09667" lon="-0.42564">
        <ele>88</ele>
        <time>2021-03-25T03:08:42Z</time>
      </trkpt>
      <trkpt lat="47.09657" lon="-0.42527">
        <ele>88</ele>
        <time>2021-03-25T03:08:46Z</time>
      </trkpt>
      <trkpt lat="47.09561" lon="-0.42265">
        <ele>84</ele>
        <time>2021-03-25T03:09:22Z</time>
      </trkpt>
      <trkpt lat="47.09542" lon="-0.42207">
        <ele>81</ele>
        <time>2021-03-25T03:09:30Z</time>
      </trkpt>
      <trkpt lat="47.09537" lon="-0.42184">
        <ele>80</ele>
        <time>2021-03-25T03:09:33Z</time>
      </trkpt>
      <trkpt lat="47.09528" lon="-0.42084">
        <ele>76</ele>
        <time>2021-03-25T03:09:45Z</time>
      </trkpt>
      <trkpt lat="47.09525" lon="-0.42068">
        <ele>76</ele>
        <time>2021-03-25T03:09:47Z</time>
      </trkpt>
      <trkpt lat="47.09542" lon="-0.42059">
        <ele>76</ele>
        <time>2021-03-25T03:09:51Z</time>
      </trkpt>
      <trkpt lat="47.09559" lon="-0.42044">
        <ele>75</ele>
        <time>2021-03-25T03:09:54Z</time>
      </trkpt>
      <trkpt lat="47.09578" lon="-0.42015">
        <ele>75</ele>
        <time>2021-03-25T03:09:59Z</time>
      </trkpt>
      <trkpt lat="47.09591" lon="-0.42">
        <ele>76</ele>
        <time>2021-03-25T03:10:02Z</time>
      </trkpt>
      <trkpt lat="47.0959" lon="-0.41994">
        <ele>75</ele>
        <time>2021-03-25T03:10:03Z</time>
      </trkpt>
      <trkpt lat="47.09593" lon="-0.41982">
        <ele>75</ele>
        <time>2021-03-25T03:10:04Z</time>
      </trkpt>
      <trkpt lat="47.09644" lon="-0.41879">
        <ele>77</ele>
        <time>2021-03-25T03:10:20Z</time>
      </trkpt>
      <trkpt lat="47.09661" lon="-0.4185">
        <ele>76</ele>
        <time>2021-03-25T03:10:24Z</time>
      </trkpt>
      <trkpt lat="47.09669" lon="-0.4184">
        <ele>76</ele>
        <time>2021-03-25T03:10:26Z</time>
      </trkpt>
      <trkpt lat="47.09696" lon="-0.41824">
        <ele>78</ele>
        <time>2021-03-25T03:10:31Z</time>
      </trkpt>
      <trkpt lat="47.09728" lon="-0.4181">
        <ele>80</ele>
        <time>2021-03-25T03:10:37Z</time>
      </trkpt>
      <trkpt lat="47.09848" lon="-0.41771">
        <ele>86</ele>
        <time>2021-03-25T03:10:59Z</time>
      </trkpt>
      <trkpt lat="47.0987" lon="-0.41761">
        <ele>86</ele>
        <time>2021-03-25T03:11:03Z</time>
      </trkpt>
      <trkpt lat="47.09885" lon="-0.41747">
        <ele>86</ele>
        <time>2021-03-25T03:11:06Z</time>
      </trkpt>
      <trkpt lat="47.0995" lon="-0.41673">
        <ele>89</ele>
        <time>2021-03-25T03:11:21Z</time>
      </trkpt>
      <trkpt lat="47.09966" lon="-0.41649">
        <ele>90</ele>
        <time>2021-03-25T03:11:25Z</time>
      </trkpt>
      <trkpt lat="47.09977" lon="-0.41623">
        <ele>90</ele>
        <time>2021-03-25T03:11:29Z</time>
      </trkpt>
      <trkpt lat="47.09986" lon="-0.41591">
        <ele>91</ele>
        <time>2021-03-25T03:11:33Z</time>
      </trkpt>
      <trkpt lat="47.10029" lon="-0.41339">
        <ele>94</ele>
        <time>2021-03-25T03:12:05Z</time>
      </trkpt>
      <trkpt lat="47.10039" lon="-0.41299">
        <ele>94</ele>
        <time>2021-03-25T03:12:10Z</time>
      </trkpt>
      <trkpt lat="47.10049" lon="-0.41273">
        <ele>93</ele>
        <time>2021-03-25T03:12:13Z</time>
      </trkpt>
      <trkpt lat="47.10232" lon="-0.40896">
        <ele>94</ele>
        <time>2021-03-25T03:13:09Z</time>
      </trkpt>
      <trkpt lat="47.10246" lon="-0.40861">
        <ele>94</ele>
        <time>2021-03-25T03:13:14Z</time>
      </trkpt>
      <trkpt lat="47.10254" lon="-0.40835">
        <ele>94</ele>
        <time>2021-03-25T03:13:18Z</time>
      </trkpt>
      <trkpt lat="47.10256" lon="-0.40813">
        <ele>94</ele>
        <time>2021-03-25T03:13:20Z</time>
      </trkpt>
      <trkpt lat="47.10255" lon="-0.40784">
        <ele>94</ele>
        <time>2021-03-25T03:13:24Z</time>
      </trkpt>
      <trkpt lat="47.10219" lon="-0.40499">
        <ele>101</ele>
        <time>2021-03-25T03:13:59Z</time>
      </trkpt>
      <trkpt lat="47.10218" lon="-0.4048">
        <ele>101</ele>
        <time>2021-03-25T03:14:01Z</time>
      </trkpt>
      <trkpt lat="47.10219" lon="-0.40434">
        <ele>102</ele>
        <time>2021-03-25T03:14:07Z</time>
      </trkpt>
      <trkpt lat="47.10222" lon="-0.40414">
        <ele>102</ele>
        <time>2021-03-25T03:14:09Z</time>
      </trkpt>
      <trkpt lat="47.10225" lon="-0.40395">
        <ele>102</ele>
        <time>2021-03-25T03:14:12Z</time>
      </trkpt>
      <trkpt lat="47.10235" lon="-0.4036">
        <ele>103</ele>
        <time>2021-03-25T03:14:16Z</time>
      </trkpt>
      <trkpt lat="47.10241" lon="-0.40344">
        <ele>103</ele>
        <time>2021-03-25T03:14:19Z</time>
      </trkpt>
      <trkpt lat="47.10317" lon="-0.40174">
        <ele>104</ele>
        <time>2021-03-25T03:14:43Z</time>
      </trkpt>
      <trkpt lat="47.10409" lon="-0.39983">
        <ele>103</ele>
        <time>2021-03-25T03:15:12Z</time>
      </trkpt>
      <trkpt lat="47.1042" lon="-0.39953">
        <ele>102</ele>
        <time>2021-03-25T03:15:16Z</time>
      </trkpt>
      <trkpt lat="47.10429" lon="-0.39905">
        <ele>102</ele>
        <time>2021-03-25T03:15:22Z</time>
      </trkpt>
      <trkpt lat="47.10432" lon="-0.3988">
        <ele>101</ele>
        <time>2021-03-25T03:15:25Z</time>
      </trkpt>
      <trkpt lat="47.10433" lon="-0.39843">
        <ele>100</ele>
        <time>2021-03-25T03:15:29Z</time>
      </trkpt>
      <trkpt lat="47.10433" lon="-0.3979">
        <ele>99</ele>
        <time>2021-03-25T03:15:36Z</time>
      </trkpt>
      <trkpt lat="47.10434" lon="-0.39769">
        <ele>99</ele>
        <time>2021-03-25T03:15:38Z</time>
      </trkpt>
      <trkpt lat="47.10437" lon="-0.39745">
        <ele>98</ele>
        <time>2021-03-25T03:15:41Z</time>
      </trkpt>
      <trkpt lat="47.10467" lon="-0.39653">
        <ele>97</ele>
        <time>2021-03-25T03:15:54Z</time>
      </trkpt>
      <trkpt lat="47.10479" lon="-0.39589">
        <ele>97</ele>
        <time>2021-03-25T03:16:02Z</time>
      </trkpt>
      <trkpt lat="47.10483" lon="-0.3954">
        <ele>95</ele>
        <time>2021-03-25T03:16:08Z</time>
      </trkpt>
      <trkpt lat="47.10482" lon="-0.3948">
        <ele>93</ele>
        <time>2021-03-25T03:16:15Z</time>
      </trkpt>
      <trkpt lat="47.1047" lon="-0.39362">
        <ele>88</ele>
        <time>2021-03-25T03:16:29Z</time>
      </trkpt>
      <trkpt lat="47.10469" lon="-0.39343">
        <ele>88</ele>
        <time>2021-03-25T03:16:32Z</time>
      </trkpt>
      <trkpt lat="47.10473" lon="-0.39299">
        <ele>86</ele>
        <time>2021-03-25T03:16:37Z</time>
      </trkpt>
      <trkpt lat="47.10478" lon="-0.3928">
        <ele>85</ele>
        <time>2021-03-25T03:16:39Z</time>
      </trkpt>
      <trkpt lat="47.10489" lon="-0.39255">
        <ele>85</ele>
        <time>2021-03-25T03:16:43Z</time>
      </trkpt>
      <trkpt lat="47.10558" lon="-0.39117">
        <ele>82</ele>
        <time>2021-03-25T03:17:04Z</time>
      </trkpt>
      <trkpt lat="47.10596" lon="-0.39045">
        <ele>85</ele>
        <time>2021-03-25T03:17:15Z</time>
      </trkpt>
      <trkpt lat="47.10605" lon="-0.39031">
        <ele>86</ele>
        <time>2021-03-25T03:17:17Z</time>
      </trkpt>
      <trkpt lat="47.10656" lon="-0.38972">
        <ele>89</ele>
        <time>2021-03-25T03:17:29Z</time>
      </trkpt>
      <trkpt lat="47.10662" lon="-0.38967">
        <ele>90</ele>
        <time>2021-03-25T03:17:30Z</time>
      </trkpt>
      <trkpt lat="47.10666" lon="-0.38966">
        <ele>90</ele>
        <time>2021-03-25T03:17:31Z</time>
      </trkpt>
      <trkpt lat="47.10671" lon="-0.38967">
        <ele>90</ele>
        <time>2021-03-25T03:17:32Z</time>
      </trkpt>
      <trkpt lat="47.10733" lon="-0.39023">
        <ele>94</ele>
        <time>2021-03-25T03:17:45Z</time>
      </trkpt>
      <trkpt lat="47.1075" lon="-0.39031">
        <ele>95</ele>
        <time>2021-03-25T03:17:48Z</time>
      </trkpt>
      <trkpt lat="47.10762" lon="-0.39031">
        <ele>95</ele>
        <time>2021-03-25T03:17:50Z</time>
      </trkpt>
      <trkpt lat="47.1079" lon="-0.38941">
        <ele>97</ele>
        <time>2021-03-25T03:18:02Z</time>
      </trkpt>
      <trkpt lat="47.10799" lon="-0.38861">
        <ele>95</ele>
        <time>2021-03-25T03:18:12Z</time>
      </trkpt>
      <trkpt lat="47.10806" lon="-0.38832">
        <ele>94</ele>
        <time>2021-03-25T03:18:15Z</time>
      </trkpt>
      <trkpt lat="47.10819" lon="-0.38795">
        <ele>92</ele>
        <time>2021-03-25T03:18:20Z</time>
      </trkpt>
      <trkpt lat="47.10847" lon="-0.38723">
        <ele>89</ele>
        <time>2021-03-25T03:18:30Z</time>
      </trkpt>
      <trkpt lat="47.10863" lon="-0.3869">
        <ele>89</ele>
        <time>2021-03-25T03:18:35Z</time>
      </trkpt>
      <trkpt lat="47.10922" lon="-0.38584">
        <ele>89</ele>
        <time>2021-03-25T03:18:52Z</time>
      </trkpt>
      <trkpt lat="47.10983" lon="-0.3849">
        <ele>85</ele>
        <time>2021-03-25T03:19:08Z</time>
      </trkpt>
      <trkpt lat="47.11042" lon="-0.38418">
        <ele>83</ele>
        <time>2021-03-25T03:19:21Z</time>
      </trkpt>
      <trkpt lat="47.11086" lon="-0.38354">
        <ele>84</ele>
        <time>2021-03-25T03:19:32Z</time>
      </trkpt>
      <trkpt lat="47.11099" lon="-0.3833">
        <ele>84</ele>
        <time>2021-03-25T03:19:36Z</time>
      </trkpt>
      <trkpt lat="47.11104" lon="-0.38314">
        <ele>85</ele>
        <time>2021-03-25T03:19:38Z</time>
      </trkpt>
      <trkpt lat="47.11105" lon="-0.38231">
        <ele>85</ele>
        <time>2021-03-25T03:19:48Z</time>
      </trkpt>
      <trkpt lat="47.11124" lon="-0.38094">
        <ele>88</ele>
        <time>2021-03-25T03:20:05Z</time>
      </trkpt>
      <trkpt lat="47.11131" lon="-0.38067">
        <ele>89</ele>
        <time>2021-03-25T03:20:09Z</time>
      </trkpt>
      <trkpt lat="47.11139" lon="-0.38048">
        <ele>90</ele>
        <time>2021-03-25T03:20:11Z</time>
      </trkpt>
      <trkpt lat="47.11155" lon="-0.38024">
        <ele>92</ele>
        <time>2021-03-25T03:20:15Z</time>
      </trkpt>
      <trkpt lat="47.11187" lon="-0.37981">
        <ele>93</ele>
        <time>2021-03-25T03:20:23Z</time>
      </trkpt>
      <trkpt lat="47.1123" lon="-0.37911">
        <ele>93</ele>
        <time>2021-03-25T03:20:35Z</time>
      </trkpt>
      <trkpt lat="47.11276" lon="-0.3783">
        <ele>91</ele>
        <time>2021-03-25T03:20:47Z</time>
      </trkpt>
      <trkpt lat="47.11308" lon="-0.37746">
        <ele>89</ele>
        <time>2021-03-25T03:20:59Z</time>
      </trkpt>
      <trkpt lat="47.11319" lon="-0.37704">
        <ele>88</ele>
        <time>2021-03-25T03:21:04Z</time>
      </trkpt>
      <trkpt lat="47.11334" lon="-0.37609">
        <ele>89</ele>
        <time>2021-03-25T03:21:16Z</time>
      </trkpt>
      <trkpt lat="47.11341" lon="-0.37572">
        <ele>90</ele>
        <time>2021-03-25T03:21:21Z</time>
      </trkpt>
      <trkpt lat="47.11349" lon="-0.37539">
        <ele>90</ele>
        <time>2021-03-25T03:21:25Z</time>
      </trkpt>
      <trkpt lat="47.11385" lon="-0.37442">
        <ele>88</ele>
        <time>2021-03-25T03:21:39Z</time>
      </trkpt>
      <trkpt lat="47.11428" lon="-0.37299">
        <ele>88</ele>
        <time>2021-03-25T03:21:57Z</time>
      </trkpt>
      <trkpt lat="47.11436" lon="-0.37277">
        <ele>88</ele>
        <time>2021-03-25T03:22:00Z</time>
      </trkpt>
      <trkpt lat="47.11494" lon="-0.37176">
        <ele>87</ele>
        <time>2021-03-25T03:22:16Z</time>
      </trkpt>
      <trkpt lat="47.11514" lon="-0.37134">
        <ele>87</ele>
        <time>2021-03-25T03:22:23Z</time>
      </trkpt>
      <trkpt lat="47.11571" lon="-0.36994">
        <ele>86</ele>
        <time>2021-03-25T03:22:42Z</time>
      </trkpt>
      <trkpt lat="47.11641" lon="-0.36788">
        <ele>87</ele>
        <time>2021-03-25T03:23:10Z</time>
      </trkpt>
      <trkpt lat="47.11669" lon="-0.36718">
        <ele>89</ele>
        <time>2021-03-25T03:23:20Z</time>
      </trkpt>
      <trkpt lat="47.11699" lon="-0.36657">
        <ele>90</ele>
        <time>2021-03-25T03:23:29Z</time>
      </trkpt>
      <trkpt lat="47.11751" lon="-0.3656">
        <ele>87</ele>
        <time>2021-03-25T03:23:44Z</time>
      </trkpt>
      <trkpt lat="47.11772" lon="-0.36516">
        <ele>84</ele>
        <time>2021-03-25T03:23:51Z</time>
      </trkpt>
      <trkpt lat="47.11778" lon="-0.36508">
        <ele>84</ele>
        <time>2021-03-25T03:23:52Z</time>
      </trkpt>
      <trkpt lat="47.11779" lon="-0.36496">
        <ele>83</ele>
        <time>2021-03-25T03:23:54Z</time>
      </trkpt>
      <trkpt lat="47.11773" lon="-0.36434">
        <ele>81</ele>
        <time>2021-03-25T03:24:01Z</time>
      </trkpt>
      <trkpt lat="47.11775" lon="-0.36427">
        <ele>80</ele>
        <time>2021-03-25T03:24:02Z</time>
      </trkpt>
      <trkpt lat="47.11784" lon="-0.3641">
        <ele>80</ele>
        <time>2021-03-25T03:24:05Z</time>
      </trkpt>
      <trkpt lat="47.11787" lon="-0.36402">
        <ele>80</ele>
        <time>2021-03-25T03:24:06Z</time>
      </trkpt>
      <trkpt lat="47.11787" lon="-0.36394">
        <ele>79</ele>
        <time>2021-03-25T03:24:07Z</time>
      </trkpt>
      <trkpt lat="47.11778" lon="-0.36338">
        <ele>78</ele>
        <time>2021-03-25T03:24:14Z</time>
      </trkpt>
      <trkpt lat="47.11779" lon="-0.36247">
        <ele>73</ele>
        <time>2021-03-25T03:24:25Z</time>
      </trkpt>
      <trkpt lat="47.11784" lon="-0.36111">
        <ele>68</ele>
        <time>2021-03-25T03:24:41Z</time>
      </trkpt>
      <trkpt lat="47.11788" lon="-0.36066">
        <ele>69</ele>
        <time>2021-03-25T03:24:47Z</time>
      </trkpt>
      <trkpt lat="47.11795" lon="-0.35996">
        <ele>70</ele>
        <time>2021-03-25T03:24:55Z</time>
      </trkpt>
      <trkpt lat="47.11796" lon="-0.35974">
        <ele>70</ele>
        <time>2021-03-25T03:24:58Z</time>
      </trkpt>
      <trkpt lat="47.11791" lon="-0.35943">
        <ele>69</ele>
        <time>2021-03-25T03:25:02Z</time>
      </trkpt>
      <trkpt lat="47.11784" lon="-0.35918">
        <ele>68</ele>
        <time>2021-03-25T03:25:05Z</time>
      </trkpt>
      <trkpt lat="47.11714" lon="-0.35713">
        <ele>63</ele>
        <time>2021-03-25T03:25:33Z</time>
      </trkpt>
      <trkpt lat="47.11706" lon="-0.35676">
        <ele>63</ele>
        <time>2021-03-25T03:25:38Z</time>
      </trkpt>
      <trkpt lat="47.117" lon="-0.35622">
        <ele>63</ele>
        <time>2021-03-25T03:25:44Z</time>
      </trkpt>
      <trkpt lat="47.11697" lon="-0.35566">
        <ele>62</ele>
        <time>2021-03-25T03:25:51Z</time>
      </trkpt>
      <trkpt lat="47.117" lon="-0.35398">
        <ele>61</ele>
        <time>2021-03-25T03:26:11Z</time>
      </trkpt>
      <trkpt lat="47.11705" lon="-0.35338">
        <ele>62</ele>
        <time>2021-03-25T03:26:19Z</time>
      </trkpt>
      <trkpt lat="47.11723" lon="-0.35248">
        <ele>64</ele>
        <time>2021-03-25T03:26:30Z</time>
      </trkpt>
      <trkpt lat="47.1173" lon="-0.35224">
        <ele>65</ele>
        <time>2021-03-25T03:26:33Z</time>
      </trkpt>
      <trkpt lat="47.11757" lon="-0.35156">
        <ele>67</ele>
        <time>2021-03-25T03:26:43Z</time>
      </trkpt>
      <trkpt lat="47.11767" lon="-0.35119">
        <ele>70</ele>
        <time>2021-03-25T03:26:48Z</time>
      </trkpt>
      <trkpt lat="47.11768" lon="-0.35083">
        <ele>72</ele>
        <time>2021-03-25T03:26:52Z</time>
      </trkpt>
      <trkpt lat="47.11766" lon="-0.35065">
        <ele>73</ele>
        <time>2021-03-25T03:26:54Z</time>
      </trkpt>
      <trkpt lat="47.11757" lon="-0.35021">
        <ele>76</ele>
        <time>2021-03-25T03:27:00Z</time>
      </trkpt>
      <trkpt lat="47.11739" lon="-0.34954">
        <ele>79</ele>
        <time>2021-03-25T03:27:08Z</time>
      </trkpt>
      <trkpt lat="47.11686" lon="-0.3478">
        <ele>85</ele>
        <time>2021-03-25T03:27:32Z</time>
      </trkpt>
      <trkpt lat="47.11601" lon="-0.34532">
        <ele>83</ele>
        <time>2021-03-25T03:28:05Z</time>
      </trkpt>
      <trkpt lat="47.11598" lon="-0.34515">
        <ele>83</ele>
        <time>2021-03-25T03:28:07Z</time>
      </trkpt>
      <trkpt lat="47.11556" lon="-0.33694">
        <ele>78</ele>
        <time>2021-03-25T03:29:47Z</time>
      </trkpt>
      <trkpt lat="47.11501" lon="-0.32703">
        <ele>85</ele>
        <time>2021-03-25T03:31:47Z</time>
      </trkpt>
      <trkpt lat="47.11484" lon="-0.32377">
        <ele>84</ele>
        <time>2021-03-25T03:32:27Z</time>
      </trkpt>
      <trkpt lat="47.1141" lon="-0.31091">
        <ele>70</ele>
        <time>2021-03-25T03:35:03Z</time>
      </trkpt>
      <trkpt lat="47.11396" lon="-0.30831">
        <ele>69</ele>
        <time>2021-03-25T03:35:35Z</time>
      </trkpt>
      <trkpt lat="47.11395" lon="-0.30796">
        <ele>68</ele>
        <time>2021-03-25T03:35:39Z</time>
      </trkpt>
      <trkpt lat="47.11396" lon="-0.30782">
        <ele>67</ele>
        <time>2021-03-25T03:35:41Z</time>
      </trkpt>
      <trkpt lat="47.11397" lon="-0.30768">
        <ele>67</ele>
        <time>2021-03-25T03:35:42Z</time>
      </trkpt>
      <trkpt lat="47.11402" lon="-0.30752">
        <ele>67</ele>
        <time>2021-03-25T03:35:45Z</time>
      </trkpt>
      <trkpt lat="47.11459" lon="-0.30601">
        <ele>65</ele>
        <time>2021-03-25T03:36:05Z</time>
      </trkpt>
      <trkpt lat="47.11463" lon="-0.3059">
        <ele>65</ele>
        <time>2021-03-25T03:36:07Z</time>
      </trkpt>
      <trkpt lat="47.1149" lon="-0.30411">
        <ele>62</ele>
        <time>2021-03-25T03:36:29Z</time>
      </trkpt>
      <trkpt lat="47.115" lon="-0.30372">
        <ele>61</ele>
        <time>2021-03-25T03:36:34Z</time>
      </trkpt>
      <trkpt lat="47.11518" lon="-0.30311">
        <ele>61</ele>
        <time>2021-03-25T03:36:42Z</time>
      </trkpt>
      <trkpt lat="47.11529" lon="-0.30281">
        <ele>61</ele>
        <time>2021-03-25T03:36:46Z</time>
      </trkpt>
      <trkpt lat="47.11541" lon="-0.30257">
        <ele>61</ele>
        <time>2021-03-25T03:36:50Z</time>
      </trkpt>
      <trkpt lat="47.11644" lon="-0.30081">
        <ele>60</ele>
        <time>2021-03-25T03:37:18Z</time>
      </trkpt>
      <trkpt lat="47.11659" lon="-0.30047">
        <ele>60</ele>
        <time>2021-03-25T03:37:23Z</time>
      </trkpt>
      <trkpt lat="47.11674" lon="-0.29999">
        <ele>60</ele>
        <time>2021-03-25T03:37:29Z</time>
      </trkpt>
      <trkpt lat="47.11677" lon="-0.29984">
        <ele>60</ele>
        <time>2021-03-25T03:37:31Z</time>
      </trkpt>
      <trkpt lat="47.11678" lon="-0.29973">
        <ele>60</ele>
        <time>2021-03-25T03:37:33Z</time>
      </trkpt>
      <trkpt lat="47.11677" lon="-0.29942">
        <ele>60</ele>
        <time>2021-03-25T03:37:36Z</time>
      </trkpt>
      <trkpt lat="47.11675" lon="-0.29922">
        <ele>59</ele>
        <time>2021-03-25T03:37:39Z</time>
      </trkpt>
      <trkpt lat="47.11667" lon="-0.29885">
        <ele>59</ele>
        <time>2021-03-25T03:37:44Z</time>
      </trkpt>
      <trkpt lat="47.11638" lon="-0.2976">
        <ele>59</ele>
        <time>2021-03-25T03:38:00Z</time>
      </trkpt>
      <trkpt lat="47.11633" lon="-0.29713">
        <ele>59</ele>
        <time>2021-03-25T03:38:05Z</time>
      </trkpt>
      <trkpt lat="47.11636" lon="-0.29634">
        <ele>58</ele>
        <time>2021-03-25T03:38:15Z</time>
      </trkpt>
      <trkpt lat="47.11641" lon="-0.296">
        <ele>58</ele>
        <time>2021-03-25T03:38:19Z</time>
      </trkpt>
      <trkpt lat="47.11653" lon="-0.29537">
        <ele>59</ele>
        <time>2021-03-25T03:38:27Z</time>
      </trkpt>
      <trkpt lat="47.11667" lon="-0.29482">
        <ele>60</ele>
        <time>2021-03-25T03:38:34Z</time>
      </trkpt>
      <trkpt lat="47.11677" lon="-0.29422">
        <ele>58</ele>
        <time>2021-03-25T03:38:42Z</time>
      </trkpt>
      <trkpt lat="47.11728" lon="-0.28871">
        <ele>57</ele>
        <time>2021-03-25T03:39:49Z</time>
      </trkpt>
      <trkpt lat="47.1175" lon="-0.28761">
        <ele>57</ele>
        <time>2021-03-25T03:40:03Z</time>
      </trkpt>
      <trkpt lat="47.11753" lon="-0.28748">
        <ele>57</ele>
        <time>2021-03-25T03:40:05Z</time>
      </trkpt>
      <trkpt lat="47.11759" lon="-0.28734">
        <ele>57</ele>
        <time>2021-03-25T03:40:07Z</time>
      </trkpt>
      <trkpt lat="47.11779" lon="-0.28702">
        <ele>57</ele>
        <time>2021-03-25T03:40:12Z</time>
      </trkpt>
      <trkpt lat="47.11809" lon="-0.28662">
        <ele>56</ele>
        <time>2021-03-25T03:40:19Z</time>
      </trkpt>
      <trkpt lat="47.11822" lon="-0.28636">
        <ele>56</ele>
        <time>2021-03-25T03:40:23Z</time>
      </trkpt>
      <trkpt lat="47.11853" lon="-0.28565">
        <ele>55</ele>
        <time>2021-03-25T03:40:33Z</time>
      </trkpt>
      <trkpt lat="47.11868" lon="-0.28525">
        <ele>54</ele>
        <time>2021-03-25T03:40:39Z</time>
      </trkpt>
      <trkpt lat="47.119" lon="-0.28407">
        <ele>54</ele>
        <time>2021-03-25T03:40:54Z</time>
      </trkpt>
      <trkpt lat="47.11916" lon="-0.28343">
        <ele>54</ele>
        <time>2021-03-25T03:41:02Z</time>
      </trkpt>
      <trkpt lat="47.11924" lon="-0.28292">
        <ele>53</ele>
        <time>2021-03-25T03:41:09Z</time>
      </trkpt>
      <trkpt lat="47.11933" lon="-0.28208">
        <ele>52</ele>
        <time>2021-03-25T03:41:19Z</time>
      </trkpt>
      <trkpt lat="47.11937" lon="-0.28188">
        <ele>52</ele>
        <time>2021-03-25T03:41:21Z</time>
      </trkpt>
      <trkpt lat="47.11943" lon="-0.28168">
        <ele>51</ele>
        <time>2021-03-25T03:41:24Z</time>
      </trkpt>
      <trkpt lat="47.11978" lon="-0.28064">
        <ele>51</ele>
        <time>2021-03-25T03:41:38Z</time>
      </trkpt>
      <trkpt lat="47.12001" lon="-0.27991">
        <ele>51</ele>
        <time>2021-03-25T03:41:48Z</time>
      </trkpt>
      <trkpt lat="47.12011" lon="-0.27964">
        <ele>51</ele>
        <time>2021-03-25T03:41:52Z</time>
      </trkpt>
      <trkpt lat="47.1206" lon="-0.2789">
        <ele>52</ele>
        <time>2021-03-25T03:42:04Z</time>
      </trkpt>
      <trkpt lat="47.12071" lon="-0.2787">
        <ele>52</ele>
        <time>2021-03-25T03:42:07Z</time>
      </trkpt>
      <trkpt lat="47.12135" lon="-0.27732">
        <ele>54</ele>
        <time>2021-03-25T03:42:27Z</time>
      </trkpt>
      <trkpt lat="47.12143" lon="-0.27707">
        <ele>54</ele>
        <time>2021-03-25T03:42:31Z</time>
      </trkpt>
      <trkpt lat="47.1215" lon="-0.27674">
        <ele>54</ele>
        <time>2021-03-25T03:42:35Z</time>
      </trkpt>
      <trkpt lat="47.1216" lon="-0.27615">
        <ele>54</ele>
        <time>2021-03-25T03:42:42Z</time>
      </trkpt>
      <trkpt lat="47.12266" lon="-0.2716">
        <ele>55</ele>
        <time>2021-03-25T03:43:41Z</time>
      </trkpt>
      <trkpt lat="47.12273" lon="-0.27135">
        <ele>55</ele>
        <time>2021-03-25T03:43:44Z</time>
      </trkpt>
      <trkpt lat="47.12367" lon="-0.26882">
        <ele>57</ele>
        <time>2021-03-25T03:44:19Z</time>
      </trkpt>
      <trkpt lat="47.12374" lon="-0.26848">
        <ele>57</ele>
        <time>2021-03-25T03:44:23Z</time>
      </trkpt>
      <trkpt lat="47.12376" lon="-0.26828">
        <ele>56</ele>
        <time>2021-03-25T03:44:25Z</time>
      </trkpt>
      <trkpt lat="47.124" lon="-0.26131">
        <ele>64</ele>
        <time>2021-03-25T03:45:50Z</time>
      </trkpt>
      <trkpt lat="47.12412" lon="-0.26002">
        <ele>67</ele>
        <time>2021-03-25T03:46:06Z</time>
      </trkpt>
      <trkpt lat="47.12419" lon="-0.25798">
        <ele>63</ele>
        <time>2021-03-25T03:46:30Z</time>
      </trkpt>
      <trkpt lat="47.12452" lon="-0.25487">
        <ele>61</ele>
        <time>2021-03-25T03:47:09Z</time>
      </trkpt>
      <trkpt lat="47.12454" lon="-0.25439">
        <ele>61</ele>
        <time>2021-03-25T03:47:14Z</time>
      </trkpt>
      <trkpt lat="47.12453" lon="-0.25414">
        <ele>61</ele>
        <time>2021-03-25T03:47:17Z</time>
      </trkpt>
      <trkpt lat="47.12449" lon="-0.25352">
        <ele>61</ele>
        <time>2021-03-25T03:47:25Z</time>
      </trkpt>
      <trkpt lat="47.12443" lon="-0.25307">
        <ele>60</ele>
        <time>2021-03-25T03:47:30Z</time>
      </trkpt>
      <trkpt lat="47.12427" lon="-0.25227">
        <ele>60</ele>
        <time>2021-03-25T03:47:41Z</time>
      </trkpt>
      <trkpt lat="47.12416" lon="-0.25189">
        <ele>60</ele>
        <time>2021-03-25T03:47:46Z</time>
      </trkpt>
      <trkpt lat="47.12365" lon="-0.2503">
        <ele>61</ele>
        <time>2021-03-25T03:48:07Z</time>
      </trkpt>
      <trkpt lat="47.12342" lon="-0.24951">
        <ele>64</ele>
        <time>2021-03-25T03:48:17Z</time>
      </trkpt>
      <trkpt lat="47.12334" lon="-0.249">
        <ele>65</ele>
        <time>2021-03-25T03:48:24Z</time>
      </trkpt>
      <trkpt lat="47.12332" lon="-0.24851">
        <ele>67</ele>
        <time>2021-03-25T03:48:30Z</time>
      </trkpt>
      <trkpt lat="47.12333" lon="-0.24825">
        <ele>67</ele>
        <time>2021-03-25T03:48:33Z</time>
      </trkpt>
      <trkpt lat="47.12337" lon="-0.24797">
        <ele>67</ele>
        <time>2021-03-25T03:48:36Z</time>
      </trkpt>
      <trkpt lat="47.12348" lon="-0.24734">
        <ele>69</ele>
        <time>2021-03-25T03:48:44Z</time>
      </trkpt>
      <trkpt lat="47.1238" lon="-0.24623">
        <ele>71</ele>
        <time>2021-03-25T03:48:59Z</time>
      </trkpt>
      <trkpt lat="47.12389" lon="-0.24587">
        <ele>71</ele>
        <time>2021-03-25T03:49:03Z</time>
      </trkpt>
      <trkpt lat="47.12406" lon="-0.24504">
        <ele>73</ele>
        <time>2021-03-25T03:49:14Z</time>
      </trkpt>
      <trkpt lat="47.12432" lon="-0.24291">
        <ele>72</ele>
        <time>2021-03-25T03:49:40Z</time>
      </trkpt>
      <trkpt lat="47.12437" lon="-0.24267">
        <ele>72</ele>
        <time>2021-03-25T03:49:43Z</time>
      </trkpt>
      <trkpt lat="47.12443" lon="-0.24239">
        <ele>72</ele>
        <time>2021-03-25T03:49:47Z</time>
      </trkpt>
      <trkpt lat="47.12454" lon="-0.24202">
        <ele>72</ele>
        <time>2021-03-25T03:49:51Z</time>
      </trkpt>
      <trkpt lat="47.1252" lon="-0.24004">
        <ele>73</ele>
        <time>2021-03-25T03:50:18Z</time>
      </trkpt>
      <trkpt lat="47.12542" lon="-0.23924">
        <ele>76</ele>
        <time>2021-03-25T03:50:29Z</time>
      </trkpt>
      <trkpt lat="47.12561" lon="-0.23865">
        <ele>78</ele>
        <time>2021-03-25T03:50:36Z</time>
      </trkpt>
      <trkpt lat="47.12568" lon="-0.23829">
        <ele>79</ele>
        <time>2021-03-25T03:50:41Z</time>
      </trkpt>
      <trkpt lat="47.1257" lon="-0.23729">
        <ele>84</ele>
        <time>2021-03-25T03:50:53Z</time>
      </trkpt>
      <trkpt lat="47.12572" lon="-0.23713">
        <ele>85</ele>
        <time>2021-03-25T03:50:55Z</time>
      </trkpt>
      <trkpt lat="47.12564" lon="-0.23694">
        <ele>86</ele>
        <time>2021-03-25T03:50:58Z</time>
      </trkpt>
      <trkpt lat="47.12545" lon="-0.2363">
        <ele>88</ele>
        <time>2021-03-25T03:51:06Z</time>
      </trkpt>
      <trkpt lat="47.12535" lon="-0.23608">
        <ele>89</ele>
        <time>2021-03-25T03:51:09Z</time>
      </trkpt>
      <trkpt lat="47.12506" lon="-0.23559">
        <ele>90</ele>
        <time>2021-03-25T03:51:17Z</time>
      </trkpt>
      <trkpt lat="47.12523" lon="-0.23537">
        <ele>91</ele>
        <time>2021-03-25T03:51:21Z</time>
      </trkpt>
      <trkpt lat="47.12521" lon="-0.23525">
        <ele>92</ele>
        <time>2021-03-25T03:51:23Z</time>
      </trkpt>
      <trkpt lat="47.12519" lon="-0.23419">
        <ele>93</ele>
        <time>2021-03-25T03:51:36Z</time>
      </trkpt>
      <trkpt lat="47.1252" lon="-0.23407">
        <ele>93</ele>
        <time>2021-03-25T03:51:37Z</time>
      </trkpt>
      <trkpt lat="47.12525" lon="-0.23399">
        <ele>93</ele>
        <time>2021-03-25T03:51:38Z</time>
      </trkpt>
      <trkpt lat="47.12542" lon="-0.23384">
        <ele>93</ele>
        <time>2021-03-25T03:51:42Z</time>
      </trkpt>
      <trkpt lat="47.12528" lon="-0.23351">
        <ele>92</ele>
        <time>2021-03-25T03:51:47Z</time>
      </trkpt>
      <trkpt lat="47.1252" lon="-0.23322">
        <ele>91</ele>
        <time>2021-03-25T03:51:50Z</time>
      </trkpt>
      <trkpt lat="47.12517" lon="-0.23277">
        <ele>93</ele>
        <time>2021-03-25T03:51:56Z</time>
      </trkpt>
      <trkpt lat="47.12518" lon="-0.23121">
        <ele>95</ele>
        <time>2021-03-25T03:52:15Z</time>
      </trkpt>
      <trkpt lat="47.12521" lon="-0.22997">
        <ele>95</ele>
        <time>2021-03-25T03:52:30Z</time>
      </trkpt>
      <trkpt lat="47.12539" lon="-0.22791">
        <ele>96</ele>
        <time>2021-03-25T03:52:55Z</time>
      </trkpt>
      <trkpt lat="47.12547" lon="-0.22732">
        <ele>95</ele>
        <time>2021-03-25T03:53:02Z</time>
      </trkpt>
      <trkpt lat="47.12601" lon="-0.22533">
        <ele>91</ele>
        <time>2021-03-25T03:53:28Z</time>
      </trkpt>
      <trkpt lat="47.12636" lon="-0.22383">
        <ele>88</ele>
        <time>2021-03-25T03:53:47Z</time>
      </trkpt>
      <trkpt lat="47.12639" lon="-0.22346">
        <ele>87</ele>
        <time>2021-03-25T03:53:52Z</time>
      </trkpt>
      <trkpt lat="47.12635" lon="-0.22277">
        <ele>83</ele>
        <time>2021-03-25T03:54:00Z</time>
      </trkpt>
      <trkpt lat="47.12622" lon="-0.22146">
        <ele>76</ele>
        <time>2021-03-25T03:54:16Z</time>
      </trkpt>
      <trkpt lat="47.12622" lon="-0.2212">
        <ele>75</ele>
        <time>2021-03-25T03:54:19Z</time>
      </trkpt>
      <trkpt lat="47.12629" lon="-0.22031">
        <ele>71</ele>
        <time>2021-03-25T03:54:30Z</time>
      </trkpt>
      <trkpt lat="47.12628" lon="-0.21986">
        <ele>69</ele>
        <time>2021-03-25T03:54:36Z</time>
      </trkpt>
      <trkpt lat="47.12624" lon="-0.21939">
        <ele>67</ele>
        <time>2021-03-25T03:54:42Z</time>
      </trkpt>
      <trkpt lat="47.12605" lon="-0.21815">
        <ele>65</ele>
        <time>2021-03-25T03:54:57Z</time>
      </trkpt>
      <trkpt lat="47.12597" lon="-0.21754">
        <ele>63</ele>
        <time>2021-03-25T03:55:04Z</time>
      </trkpt>
      <trkpt lat="47.12597" lon="-0.21717">
        <ele>62</ele>
        <time>2021-03-25T03:55:09Z</time>
      </trkpt>
      <trkpt lat="47.12599" lon="-0.21707">
        <ele>62</ele>
        <time>2021-03-25T03:55:10Z</time>
      </trkpt>
      <trkpt lat="47.12604" lon="-0.21687">
        <ele>62</ele>
        <time>2021-03-25T03:55:13Z</time>
      </trkpt>
      <trkpt lat="47.12627" lon="-0.21628">
        <ele>61</ele>
        <time>2021-03-25T03:55:21Z</time>
      </trkpt>
      <trkpt lat="47.12707" lon="-0.21436">
        <ele>56</ele>
        <time>2021-03-25T03:55:48Z</time>
      </trkpt>
      <trkpt lat="47.12774" lon="-0.21267">
        <ele>53</ele>
        <time>2021-03-25T03:56:12Z</time>
      </trkpt>
      <trkpt lat="47.12804" lon="-0.21217">
        <ele>52</ele>
        <time>2021-03-25T03:56:20Z</time>
      </trkpt>
      <trkpt lat="47.12839" lon="-0.21165">
        <ele>51</ele>
        <time>2021-03-25T03:56:29Z</time>
      </trkpt>
      <trkpt lat="47.12856" lon="-0.21134">
        <ele>51</ele>
        <time>2021-03-25T03:56:34Z</time>
      </trkpt>
      <trkpt lat="47.12871" lon="-0.21101">
        <ele>50</ele>
        <time>2021-03-25T03:56:38Z</time>
      </trkpt>
      <trkpt lat="47.12894" lon="-0.2103">
        <ele>49</ele>
        <time>2021-03-25T03:56:48Z</time>
      </trkpt>
      <trkpt lat="47.12984" lon="-0.20736">
        <ele>48</ele>
        <time>2021-03-25T03:57:27Z</time>
      </trkpt>
      <trkpt lat="47.12998" lon="-0.20696">
        <ele>47</ele>
        <time>2021-03-25T03:57:32Z</time>
      </trkpt>
      <trkpt lat="47.13015" lon="-0.20654">
        <ele>48</ele>
        <time>2021-03-25T03:57:38Z</time>
      </trkpt>
      <trkpt lat="47.13035" lon="-0.20612">
        <ele>48</ele>
        <time>2021-03-25T03:57:45Z</time>
      </trkpt>
      <trkpt lat="47.13177" lon="-0.20342">
        <ele>47</ele>
        <time>2021-03-25T03:58:26Z</time>
      </trkpt>
      <trkpt lat="47.13185" lon="-0.20319">
        <ele>47</ele>
        <time>2021-03-25T03:58:29Z</time>
      </trkpt>
      <trkpt lat="47.13199" lon="-0.20236">
        <ele>47</ele>
        <time>2021-03-25T03:58:39Z</time>
      </trkpt>
      <trkpt lat="47.13208" lon="-0.20137">
        <ele>46</ele>
        <time>2021-03-25T03:58:51Z</time>
      </trkpt>
      <trkpt lat="47.1321" lon="-0.20125">
        <ele>46</ele>
        <time>2021-03-25T03:58:53Z</time>
      </trkpt>
      <trkpt lat="47.13217" lon="-0.20102">
        <ele>47</ele>
        <time>2021-03-25T03:58:56Z</time>
      </trkpt>
      <trkpt lat="47.13226" lon="-0.20079">
        <ele>47</ele>
        <time>2021-03-25T03:58:59Z</time>
      </trkpt>
      <trkpt lat="47.13239" lon="-0.20058">
        <ele>47</ele>
        <time>2021-03-25T03:59:03Z</time>
      </trkpt>
      <trkpt lat="47.13256" lon="-0.2004">
        <ele>48</ele>
        <time>2021-03-25T03:59:06Z</time>
      </trkpt>
      <trkpt lat="47.13393" lon="-0.19926">
        <ele>50</ele>
        <time>2021-03-25T03:59:34Z</time>
      </trkpt>
      <trkpt lat="47.13433" lon="-0.19889">
        <ele>51</ele>
        <time>2021-03-25T03:59:43Z</time>
      </trkpt>
      <trkpt lat="47.13441" lon="-0.19877">
        <ele>51</ele>
        <time>2021-03-25T03:59:45Z</time>
      </trkpt>
      <trkpt lat="47.13447" lon="-0.19859">
        <ele>52</ele>
        <time>2021-03-25T03:59:47Z</time>
      </trkpt>
      <trkpt lat="47.13449" lon="-0.19846">
        <ele>52</ele>
        <time>2021-03-25T03:59:49Z</time>
      </trkpt>
      <trkpt lat="47.13448" lon="-0.19828">
        <ele>52</ele>
        <time>2021-03-25T03:59:51Z</time>
      </trkpt>
      <trkpt lat="47.13444" lon="-0.19811">
        <ele>52</ele>
        <time>2021-03-25T03:59:53Z</time>
      </trkpt>
      <trkpt lat="47.13381" lon="-0.1964">
        <ele>51</ele>
        <time>2021-03-25T04:00:17Z</time>
      </trkpt>
      <trkpt lat="47.13371" lon="-0.19616">
        <ele>51</ele>
        <time>2021-03-25T04:00:20Z</time>
      </trkpt>
      <trkpt lat="47.13283" lon="-0.19449">
        <ele>49</ele>
        <time>2021-03-25T04:00:46Z</time>
      </trkpt>
      <trkpt lat="47.13257" lon="-0.19396">
        <ele>49</ele>
        <time>2021-03-25T04:00:54Z</time>
      </trkpt>
      <trkpt lat="47.13232" lon="-0.19341">
        <ele>48</ele>
        <time>2021-03-25T04:01:02Z</time>
      </trkpt>
      <trkpt lat="47.13209" lon="-0.19299">
        <ele>46</ele>
        <time>2021-03-25T04:01:08Z</time>
      </trkpt>
      <trkpt lat="47.13142" lon="-0.19202">
        <ele>43</ele>
        <time>2021-03-25T04:01:25Z</time>
      </trkpt>
      <trkpt lat="47.13102" lon="-0.19136">
        <ele>42</ele>
        <time>2021-03-25T04:01:36Z</time>
      </trkpt>
      <trkpt lat="47.13087" lon="-0.19101">
        <ele>42</ele>
        <time>2021-03-25T04:01:41Z</time>
      </trkpt>
      <trkpt lat="47.13081" lon="-0.19078">
        <ele>42</ele>
        <time>2021-03-25T04:01:44Z</time>
      </trkpt>
      <trkpt lat="47.13077" lon="-0.19052">
        <ele>42</ele>
        <time>2021-03-25T04:01:47Z</time>
      </trkpt>
      <trkpt lat="47.13065" lon="-0.18903">
        <ele>40</ele>
        <time>2021-03-25T04:02:05Z</time>
      </trkpt>
      <trkpt lat="47.13057" lon="-0.18832">
        <ele>39</ele>
        <time>2021-03-25T04:02:14Z</time>
      </trkpt>
      <trkpt lat="47.13034" lon="-0.18703">
        <ele>39</ele>
        <time>2021-03-25T04:02:30Z</time>
      </trkpt>
      <trkpt lat="47.13026" lon="-0.18652">
        <ele>40</ele>
        <time>2021-03-25T04:02:36Z</time>
      </trkpt>
      <trkpt lat="47.13015" lon="-0.18509">
        <ele>38</ele>
        <time>2021-03-25T04:02:54Z</time>
      </trkpt>
      <trkpt lat="47.12984" lon="-0.18189">
        <ele>35</ele>
        <time>2021-03-25T04:03:33Z</time>
      </trkpt>
      <trkpt lat="47.12984" lon="-0.18163">
        <ele>34</ele>
        <time>2021-03-25T04:03:36Z</time>
      </trkpt>
      <trkpt lat="47.12985" lon="-0.18109">
        <ele>35</ele>
        <time>2021-03-25T04:03:42Z</time>
      </trkpt>
      <trkpt lat="47.12997" lon="-0.17911">
        <ele>35</ele>
        <time>2021-03-25T04:04:06Z</time>
      </trkpt>
      <trkpt lat="47.12996" lon="-0.17875">
        <ele>35</ele>
        <time>2021-03-25T04:04:11Z</time>
      </trkpt>
      <trkpt lat="47.12991" lon="-0.17781">
        <ele>36</ele>
        <time>2021-03-25T04:04:22Z</time>
      </trkpt>
      <trkpt lat="47.1299" lon="-0.17735">
        <ele>36</ele>
        <time>2021-03-25T04:04:28Z</time>
      </trkpt>
      <trkpt lat="47.12993" lon="-0.17693">
        <ele>36</ele>
        <time>2021-03-25T04:04:33Z</time>
      </trkpt>
      <trkpt lat="47.12998" lon="-0.17658">
        <ele>36</ele>
        <time>2021-03-25T04:04:37Z</time>
      </trkpt>
      <trkpt lat="47.13001" lon="-0.17639">
        <ele>36</ele>
        <time>2021-03-25T04:04:40Z</time>
      </trkpt>
      <trkpt lat="47.1302" lon="-0.17564">
        <ele>36</ele>
        <time>2021-03-25T04:04:49Z</time>
      </trkpt>
      <trkpt lat="47.13026" lon="-0.17526">
        <ele>36</ele>
        <time>2021-03-25T04:04:54Z</time>
      </trkpt>
      <trkpt lat="47.13024" lon="-0.17472">
        <ele>36</ele>
        <time>2021-03-25T04:05:01Z</time>
      </trkpt>
      <trkpt lat="47.13014" lon="-0.17405">
        <ele>36</ele>
        <time>2021-03-25T04:05:09Z</time>
      </trkpt>
      <trkpt lat="47.13013" lon="-0.17384">
        <ele>36</ele>
        <time>2021-03-25T04:05:11Z</time>
      </trkpt>
      <trkpt lat="47.13013" lon="-0.1736">
        <ele>36</ele>
        <time>2021-03-25T04:05:14Z</time>
      </trkpt>
      <trkpt lat="47.13017" lon="-0.17322">
        <ele>35</ele>
        <time>2021-03-25T04:05:19Z</time>
      </trkpt>
      <trkpt lat="47.13025" lon="-0.17292">
        <ele>35</ele>
        <time>2021-03-25T04:05:23Z</time>
      </trkpt>
      <trkpt lat="47.13043" lon="-0.17256">
        <ele>35</ele>
        <time>2021-03-25T04:05:28Z</time>
      </trkpt>
      <trkpt lat="47.1312" lon="-0.17117">
        <ele>38</ele>
        <time>2021-03-25T04:05:50Z</time>
      </trkpt>
      <trkpt lat="47.1314" lon="-0.17069">
        <ele>39</ele>
        <time>2021-03-25T04:05:57Z</time>
      </trkpt>
      <trkpt lat="47.13147" lon="-0.17046">
        <ele>39</ele>
        <time>2021-03-25T04:06:00Z</time>
      </trkpt>
      <trkpt lat="47.13156" lon="-0.16995">
        <ele>39</ele>
        <time>2021-03-25T04:06:06Z</time>
      </trkpt>
      <trkpt lat="47.13172" lon="-0.16813">
        <ele>38</ele>
        <time>2021-03-25T04:06:28Z</time>
      </trkpt>
      <trkpt lat="47.13174" lon="-0.16789">
        <ele>37</ele>
        <time>2021-03-25T04:06:31Z</time>
      </trkpt>
      <trkpt lat="47.13185" lon="-0.16727">
        <ele>36</ele>
        <time>2021-03-25T04:06:39Z</time>
      </trkpt>
      <trkpt lat="47.1324" lon="-0.16569">
        <ele>39</ele>
        <time>2021-03-25T04:07:01Z</time>
      </trkpt>
      <trkpt lat="47.13258" lon="-0.16496">
        <ele>38</ele>
        <time>2021-03-25T04:07:10Z</time>
      </trkpt>
      <trkpt lat="47.13282" lon="-0.16417">
        <ele>38</ele>
        <time>2021-03-25T04:07:21Z</time>
      </trkpt>
      <trkpt lat="47.13313" lon="-0.16346">
        <ele>37</ele>
        <time>2021-03-25T04:07:31Z</time>
      </trkpt>
      <trkpt lat="47.13335" lon="-0.16274">
        <ele>34</ele>
        <time>2021-03-25T04:07:40Z</time>
      </trkpt>
      <trkpt lat="47.13373" lon="-0.162">
        <ele>36</ele>
        <time>2021-03-25T04:07:51Z</time>
      </trkpt>
      <trkpt lat="47.13405" lon="-0.16144">
        <ele>36</ele>
        <time>2021-03-25T04:08:00Z</time>
      </trkpt>
      <trkpt lat="47.13465" lon="-0.1605">
        <ele>36</ele>
        <time>2021-03-25T04:08:16Z</time>
      </trkpt>
      <trkpt lat="47.13545" lon="-0.15857">
        <ele>37</ele>
        <time>2021-03-25T04:08:43Z</time>
      </trkpt>
      <trkpt lat="47.13601" lon="-0.1577">
        <ele>37</ele>
        <time>2021-03-25T04:08:58Z</time>
      </trkpt>
      <trkpt lat="47.13614" lon="-0.15738">
        <ele>36</ele>
        <time>2021-03-25T04:09:02Z</time>
      </trkpt>
      <trkpt lat="47.13636" lon="-0.15646">
        <ele>34</ele>
        <time>2021-03-25T04:09:14Z</time>
      </trkpt>
      <trkpt lat="47.13644" lon="-0.1562">
        <ele>34</ele>
        <time>2021-03-25T04:09:18Z</time>
      </trkpt>
      <trkpt lat="47.13667" lon="-0.15568">
        <ele>34</ele>
        <time>2021-03-25T04:09:25Z</time>
      </trkpt>
      <trkpt lat="47.13526" lon="-0.15409">
        <ele>33</ele>
        <time>2021-03-25T04:09:57Z</time>
      </trkpt>
      <trkpt lat="47.13497" lon="-0.15372">
        <ele>35</ele>
        <time>2021-03-25T04:10:04Z</time>
      </trkpt>
      <trkpt lat="47.13435" lon="-0.15306">
        <ele>43</ele>
        <time>2021-03-25T04:10:17Z</time>
      </trkpt>
      <trkpt lat="47.13374" lon="-0.15233">
        <ele>51</ele>
        <time>2021-03-25T04:10:31Z</time>
      </trkpt>
      <trkpt lat="47.13342" lon="-0.15199">
        <ele>53</ele>
        <time>2021-03-25T04:10:38Z</time>
      </trkpt>
      <trkpt lat="47.13333" lon="-0.15192">
        <ele>53</ele>
        <time>2021-03-25T04:10:40Z</time>
      </trkpt>
      <trkpt lat="47.13323" lon="-0.15188">
        <ele>54</ele>
        <time>2021-03-25T04:10:42Z</time>
      </trkpt>
      <trkpt lat="47.13311" lon="-0.15189">
        <ele>54</ele>
        <time>2021-03-25T04:10:44Z</time>
      </trkpt>
      <trkpt lat="47.13312" lon="-0.15175">
        <ele>55</ele>
        <time>2021-03-25T04:10:46Z</time>
      </trkpt>
      <trkpt lat="47.13355" lon="-0.15115">
        <ele>53</ele>
        <time>2021-03-25T04:10:56Z</time>
      </trkpt>
      <trkpt lat="47.13437" lon="-0.14973">
        <ele>49</ele>
        <time>2021-03-25T04:11:19Z</time>
      </trkpt>
      <trkpt lat="47.13563" lon="-0.14762">
        <ele>48</ele>
        <time>2021-03-25T04:11:53Z</time>
      </trkpt>
      <trkpt lat="47.1357" lon="-0.14746">
        <ele>48</ele>
        <time>2021-03-25T04:11:55Z</time>
      </trkpt>
      <trkpt lat="47.13591" lon="-0.1471">
        <ele>49</ele>
        <time>2021-03-25T04:12:01Z</time>
      </trkpt>
      <trkpt lat="47.13879" lon="-0.14236">
        <ele>43</ele>
        <time>2021-03-25T04:13:18Z</time>
      </trkpt>
      <trkpt lat="47.139" lon="-0.14207">
        <ele>43</ele>
        <time>2021-03-25T04:13:23Z</time>
      </trkpt>
      <trkpt lat="47.14067" lon="-0.13942">
        <ele>43</ele>
        <time>2021-03-25T04:14:07Z</time>
      </trkpt>
      <trkpt lat="47.14231" lon="-0.13665">
        <ele>43</ele>
        <time>2021-03-25T04:14:51Z</time>
      </trkpt>
      <trkpt lat="47.14272" lon="-0.13603">
        <ele>43</ele>
        <time>2021-03-25T04:15:01Z</time>
      </trkpt>
      <trkpt lat="47.14315" lon="-0.13541">
        <ele>43</ele>
        <time>2021-03-25T04:15:12Z</time>
      </trkpt>
      <trkpt lat="47.14416" lon="-0.13409">
        <ele>43</ele>
        <time>2021-03-25T04:15:36Z</time>
      </trkpt>
      <trkpt lat="47.1445" lon="-0.13371">
        <ele>42</ele>
        <time>2021-03-25T04:15:44Z</time>
      </trkpt>
      <trkpt lat="47.14508" lon="-0.13317">
        <ele>39</ele>
        <time>2021-03-25T04:15:56Z</time>
      </trkpt>
      <trkpt lat="47.1456" lon="-0.13264">
        <ele>40</ele>
        <time>2021-03-25T04:16:07Z</time>
      </trkpt>
      <trkpt lat="47.14597" lon="-0.13218">
        <ele>39</ele>
        <time>2021-03-25T04:16:16Z</time>
      </trkpt>
      <trkpt lat="47.14618" lon="-0.13187">
        <ele>38</ele>
        <time>2021-03-25T04:16:21Z</time>
      </trkpt>
      <trkpt lat="47.1464" lon="-0.1315">
        <ele>37</ele>
        <time>2021-03-25T04:16:27Z</time>
      </trkpt>
      <trkpt lat="47.14691" lon="-0.13072">
        <ele>36</ele>
        <time>2021-03-25T04:16:40Z</time>
      </trkpt>
      <trkpt lat="47.14741" lon="-0.13003">
        <ele>37</ele>
        <time>2021-03-25T04:16:52Z</time>
      </trkpt>
      <trkpt lat="47.14779" lon="-0.12959">
        <ele>36</ele>
        <time>2021-03-25T04:17:01Z</time>
      </trkpt>
      <trkpt lat="47.14821" lon="-0.12915">
        <ele>35</ele>
        <time>2021-03-25T04:17:10Z</time>
      </trkpt>
      <trkpt lat="47.14852" lon="-0.12873">
        <ele>35</ele>
        <time>2021-03-25T04:17:18Z</time>
      </trkpt>
      <trkpt lat="47.14914" lon="-0.12781">
        <ele>36</ele>
        <time>2021-03-25T04:17:33Z</time>
      </trkpt>
      <trkpt lat="47.14946" lon="-0.12737">
        <ele>36</ele>
        <time>2021-03-25T04:17:41Z</time>
      </trkpt>
      <trkpt lat="47.1506" lon="-0.12606">
        <ele>35</ele>
        <time>2021-03-25T04:18:07Z</time>
      </trkpt>
      <trkpt lat="47.15085" lon="-0.12574">
        <ele>34</ele>
        <time>2021-03-25T04:18:13Z</time>
      </trkpt>
      <trkpt lat="47.15112" lon="-0.12537">
        <ele>34</ele>
        <time>2021-03-25T04:18:19Z</time>
      </trkpt>
      <trkpt lat="47.15197" lon="-0.12406">
        <ele>33</ele>
        <time>2021-03-25T04:18:41Z</time>
      </trkpt>
      <trkpt lat="47.15226" lon="-0.12357">
        <ele>34</ele>
        <time>2021-03-25T04:18:49Z</time>
      </trkpt>
      <trkpt lat="47.15242" lon="-0.12318">
        <ele>36</ele>
        <time>2021-03-25T04:18:55Z</time>
      </trkpt>
      <trkpt lat="47.15258" lon="-0.12276">
        <ele>38</ele>
        <time>2021-03-25T04:19:01Z</time>
      </trkpt>
      <trkpt lat="47.15291" lon="-0.12166">
        <ele>39</ele>
        <time>2021-03-25T04:19:15Z</time>
      </trkpt>
      <trkpt lat="47.15311" lon="-0.12113">
        <ele>40</ele>
        <time>2021-03-25T04:19:22Z</time>
      </trkpt>
      <trkpt lat="47.15365" lon="-0.11997">
        <ele>39</ele>
        <time>2021-03-25T04:19:39Z</time>
      </trkpt>
      <trkpt lat="47.15422" lon="-0.11857">
        <ele>36</ele>
        <time>2021-03-25T04:19:59Z</time>
      </trkpt>
      <trkpt lat="47.15561" lon="-0.11546">
        <ele>36</ele>
        <time>2021-03-25T04:20:44Z</time>
      </trkpt>
      <trkpt lat="47.15589" lon="-0.11501">
        <ele>36</ele>
        <time>2021-03-25T04:20:52Z</time>
      </trkpt>
      <trkpt lat="47.15618" lon="-0.11466">
        <ele>36</ele>
        <time>2021-03-25T04:20:58Z</time>
      </trkpt>
      <trkpt lat="47.15637" lon="-0.11448">
        <ele>35</ele>
        <time>2021-03-25T04:21:02Z</time>
      </trkpt>
      <trkpt lat="47.15665" lon="-0.11428">
        <ele>35</ele>
        <time>2021-03-25T04:21:08Z</time>
      </trkpt>
      <trkpt lat="47.15984" lon="-0.11267">
        <ele>34</ele>
        <time>2021-03-25T04:22:08Z</time>
      </trkpt>
      <trkpt lat="47.16049" lon="-0.11229">
        <ele>35</ele>
        <time>2021-03-25T04:22:20Z</time>
      </trkpt>
      <trkpt lat="47.16066" lon="-0.11216">
        <ele>35</ele>
        <time>2021-03-25T04:22:24Z</time>
      </trkpt>
      <trkpt lat="47.16095" lon="-0.1119">
        <ele>34</ele>
        <time>2021-03-25T04:22:30Z</time>
      </trkpt>
      <trkpt lat="47.16178" lon="-0.11103">
        <ele>33</ele>
        <time>2021-03-25T04:22:48Z</time>
      </trkpt>
      <trkpt lat="47.16209" lon="-0.11077">
        <ele>33</ele>
        <time>2021-03-25T04:22:54Z</time>
      </trkpt>
      <trkpt lat="47.16245" lon="-0.11053">
        <ele>32</ele>
        <time>2021-03-25T04:23:01Z</time>
      </trkpt>
      <trkpt lat="47.163" lon="-0.11021">
        <ele>31</ele>
        <time>2021-03-25T04:23:12Z</time>
      </trkpt>
      <trkpt lat="47.16379" lon="-0.10967">
        <ele>31</ele>
        <time>2021-03-25T04:23:27Z</time>
      </trkpt>
      <trkpt lat="47.16562" lon="-0.10808">
        <ele>31</ele>
        <time>2021-03-25T04:24:05Z</time>
      </trkpt>
      <trkpt lat="47.16596" lon="-0.10783">
        <ele>31</ele>
        <time>2021-03-25T04:24:12Z</time>
      </trkpt>
      <trkpt lat="47.16634" lon="-0.1076">
        <ele>31</ele>
        <time>2021-03-25T04:24:19Z</time>
      </trkpt>
      <trkpt lat="47.16712" lon="-0.10724">
        <ele>31</ele>
        <time>2021-03-25T04:24:34Z</time>
      </trkpt>
      <trkpt lat="47.1674" lon="-0.10707">
        <ele>31</ele>
        <time>2021-03-25T04:24:39Z</time>
      </trkpt>
      <trkpt lat="47.16765" lon="-0.10689">
        <ele>31</ele>
        <time>2021-03-25T04:24:44Z</time>
      </trkpt>
      <trkpt lat="47.16823" lon="-0.10635">
        <ele>30</ele>
        <time>2021-03-25T04:24:56Z</time>
      </trkpt>
      <trkpt lat="47.16921" lon="-0.10538">
        <ele>30</ele>
        <time>2021-03-25T04:25:17Z</time>
      </trkpt>
      <trkpt lat="47.17256" lon="-0.10154">
        <ele>33</ele>
        <time>2021-03-25T04:26:33Z</time>
      </trkpt>
      <trkpt lat="47.17255" lon="-0.10148">
        <ele>33</ele>
        <time>2021-03-25T04:26:34Z</time>
      </trkpt>
      <trkpt lat="47.17257" lon="-0.10144">
        <ele>33</ele>
        <time>2021-03-25T04:26:34Z</time>
      </trkpt>
      <trkpt lat="47.17261" lon="-0.10142">
        <ele>33</ele>
        <time>2021-03-25T04:26:35Z</time>
      </trkpt>
      <trkpt lat="47.17264" lon="-0.10145">
        <ele>33</ele>
        <time>2021-03-25T04:26:36Z</time>
      </trkpt>
      <trkpt lat="47.17274" lon="-0.10134">
        <ele>33</ele>
        <time>2021-03-25T04:26:38Z</time>
      </trkpt>
      <trkpt lat="47.17367" lon="-0.09991">
        <ele>31</ele>
        <time>2021-03-25T04:27:02Z</time>
      </trkpt>
      <trkpt lat="47.17406" lon="-0.09929">
        <ele>31</ele>
        <time>2021-03-25T04:27:12Z</time>
      </trkpt>
      <trkpt lat="47.1742" lon="-0.09903">
        <ele>31</ele>
        <time>2021-03-25T04:27:16Z</time>
      </trkpt>
      <trkpt lat="47.17435" lon="-0.09876">
        <ele>31</ele>
        <time>2021-03-25T04:27:20Z</time>
      </trkpt>
      <trkpt lat="47.17481" lon="-0.09771">
        <ele>31</ele>
        <time>2021-03-25T04:27:35Z</time>
      </trkpt>
      <trkpt lat="47.17528" lon="-0.09656">
        <ele>29</ele>
        <time>2021-03-25T04:27:52Z</time>
      </trkpt>
      <trkpt lat="47.17547" lon="-0.09616">
        <ele>30</ele>
        <time>2021-03-25T04:27:57Z</time>
      </trkpt>
      <trkpt lat="47.17571" lon="-0.09576">
        <ele>31</ele>
        <time>2021-03-25T04:28:04Z</time>
      </trkpt>
      <trkpt lat="47.17605" lon="-0.09523">
        <ele>30</ele>
        <time>2021-03-25T04:28:13Z</time>
      </trkpt>
      <trkpt lat="47.17727" lon="-0.09374">
        <ele>29</ele>
        <time>2021-03-25T04:28:41Z</time>
      </trkpt>
      <trkpt lat="47.17915" lon="-0.0912">
        <ele>29</ele>
        <time>2021-03-25T04:29:26Z</time>
      </trkpt>
      <trkpt lat="47.17941" lon="-0.09093">
        <ele>29</ele>
        <time>2021-03-25T04:29:32Z</time>
      </trkpt>
      <trkpt lat="47.17962" lon="-0.09082">
        <ele>30</ele>
        <time>2021-03-25T04:29:36Z</time>
      </trkpt>
      <trkpt lat="47.17981" lon="-0.09076">
        <ele>30</ele>
        <time>2021-03-25T04:29:39Z</time>
      </trkpt>
      <trkpt lat="47.18026" lon="-0.09068">
        <ele>30</ele>
        <time>2021-03-25T04:29:47Z</time>
      </trkpt>
      <trkpt lat="47.18085" lon="-0.09066">
        <ele>29</ele>
        <time>2021-03-25T04:29:58Z</time>
      </trkpt>
      <trkpt lat="47.18151" lon="-0.09055">
        <ele>28</ele>
        <time>2021-03-25T04:30:10Z</time>
      </trkpt>
      <trkpt lat="47.1835" lon="-0.09037">
        <ele>27</ele>
        <time>2021-03-25T04:30:45Z</time>
      </trkpt>
      <trkpt lat="47.18373" lon="-0.09031">
        <ele>27</ele>
        <time>2021-03-25T04:30:49Z</time>
      </trkpt>
      <trkpt lat="47.18354" lon="-0.08832">
        <ele>28</ele>
        <time>2021-03-25T04:31:14Z</time>
      </trkpt>
      <trkpt lat="47.18352" lon="-0.08711">
        <ele>28</ele>
        <time>2021-03-25T04:31:28Z</time>
      </trkpt>
      <trkpt lat="47.18342" lon="-0.08593">
        <ele>31</ele>
        <time>2021-03-25T04:31:43Z</time>
      </trkpt>
      <trkpt lat="47.18321" lon="-0.08402">
        <ele>29</ele>
        <time>2021-03-25T04:32:06Z</time>
      </trkpt>
      <trkpt lat="47.18312" lon="-0.08284">
        <ele>31</ele>
        <time>2021-03-25T04:32:20Z</time>
      </trkpt>
      <trkpt lat="47.1831" lon="-0.08202">
        <ele>34</ele>
        <time>2021-03-25T04:32:30Z</time>
      </trkpt>
      <trkpt lat="47.18315" lon="-0.08108">
        <ele>38</ele>
        <time>2021-03-25T04:32:42Z</time>
      </trkpt>
      <trkpt lat="47.1834" lon="-0.0791">
        <ele>41</ele>
        <time>2021-03-25T04:33:06Z</time>
      </trkpt>
      <trkpt lat="47.18356" lon="-0.07814">
        <ele>40</ele>
        <time>2021-03-25T04:33:18Z</time>
      </trkpt>
      <trkpt lat="47.18388" lon="-0.0765">
        <ele>39</ele>
        <time>2021-03-25T04:33:39Z</time>
      </trkpt>
      <trkpt lat="47.18436" lon="-0.0734">
        <ele>37</ele>
        <time>2021-03-25T04:34:17Z</time>
      </trkpt>
      <trkpt lat="47.18457" lon="-0.07215">
        <ele>35</ele>
        <time>2021-03-25T04:34:33Z</time>
      </trkpt>
      <trkpt lat="47.18516" lon="-0.0689">
        <ele>38</ele>
        <time>2021-03-25T04:35:13Z</time>
      </trkpt>
      <trkpt lat="47.18565" lon="-0.06627">
        <ele>41</ele>
        <time>2021-03-25T04:35:46Z</time>
      </trkpt>
      <trkpt lat="47.18599" lon="-0.06432">
        <ele>44</ele>
        <time>2021-03-25T04:36:11Z</time>
      </trkpt>
      <trkpt lat="47.18613" lon="-0.0633">
        <ele>44</ele>
        <time>2021-03-25T04:36:23Z</time>
      </trkpt>
      <trkpt lat="47.1864" lon="-0.06175">
        <ele>45</ele>
        <time>2021-03-25T04:36:43Z</time>
      </trkpt>
      <trkpt lat="47.1865" lon="-0.06109">
        <ele>46</ele>
        <time>2021-03-25T04:36:51Z</time>
      </trkpt>
      <trkpt lat="47.18667" lon="-0.05969">
        <ele>46</ele>
        <time>2021-03-25T04:37:08Z</time>
      </trkpt>
      <trkpt lat="47.18703" lon="-0.05766">
        <ele>45</ele>
        <time>2021-03-25T04:37:33Z</time>
      </trkpt>
      <trkpt lat="47.18704" lon="-0.05751">
        <ele>45</ele>
        <time>2021-03-25T04:37:35Z</time>
      </trkpt>
      <trkpt lat="47.18702" lon="-0.05734">
        <ele>46</ele>
        <time>2021-03-25T04:37:37Z</time>
      </trkpt>
      <trkpt lat="47.18695" lon="-0.05709">
        <ele>46</ele>
        <time>2021-03-25T04:37:41Z</time>
      </trkpt>
      <trkpt lat="47.18695" lon="-0.05694">
        <ele>46</ele>
        <time>2021-03-25T04:37:42Z</time>
      </trkpt>
      <trkpt lat="47.18701" lon="-0.05677">
        <ele>47</ele>
        <time>2021-03-25T04:37:45Z</time>
      </trkpt>
      <trkpt lat="47.1872" lon="-0.0565">
        <ele>47</ele>
        <time>2021-03-25T04:37:49Z</time>
      </trkpt>
      <trkpt lat="47.18727" lon="-0.0563">
        <ele>48</ele>
        <time>2021-03-25T04:37:52Z</time>
      </trkpt>
      <trkpt lat="47.18756" lon="-0.05453">
        <ele>48</ele>
        <time>2021-03-25T04:38:14Z</time>
      </trkpt>
      <trkpt lat="47.18774" lon="-0.05318">
        <ele>47</ele>
        <time>2021-03-25T04:38:31Z</time>
      </trkpt>
      <trkpt lat="47.18804" lon="-0.05136">
        <ele>46</ele>
        <time>2021-03-25T04:38:53Z</time>
      </trkpt>
      <trkpt lat="47.18808" lon="-0.05093">
        <ele>45</ele>
        <time>2021-03-25T04:38:59Z</time>
      </trkpt>
      <trkpt lat="47.18809" lon="-0.05033">
        <ele>45</ele>
        <time>2021-03-25T04:39:06Z</time>
      </trkpt>
      <trkpt lat="47.18809" lon="-0.04946">
        <ele>43</ele>
        <time>2021-03-25T04:39:17Z</time>
      </trkpt>
      <trkpt lat="47.18813" lon="-0.04846">
        <ele>43</ele>
        <time>2021-03-25T04:39:29Z</time>
      </trkpt>
      <trkpt lat="47.18826" lon="-0.04721">
        <ele>41</ele>
        <time>2021-03-25T04:39:44Z</time>
      </trkpt>
      <trkpt lat="47.18827" lon="-0.04685">
        <ele>40</ele>
        <time>2021-03-25T04:39:48Z</time>
      </trkpt>
      <trkpt lat="47.18823" lon="-0.04612">
        <ele>41</ele>
        <time>2021-03-25T04:39:57Z</time>
      </trkpt>
      <trkpt lat="47.1882" lon="-0.04603">
        <ele>41</ele>
        <time>2021-03-25T04:39:58Z</time>
      </trkpt>
      <trkpt lat="47.18817" lon="-0.04581">
        <ele>42</ele>
        <time>2021-03-25T04:40:01Z</time>
      </trkpt>
      <trkpt lat="47.18813" lon="-0.04508">
        <ele>41</ele>
        <time>2021-03-25T04:40:10Z</time>
      </trkpt>
      <trkpt lat="47.18807" lon="-0.04272">
        <ele>42</ele>
        <time>2021-03-25T04:40:38Z</time>
      </trkpt>
      <trkpt lat="47.188" lon="-0.04136">
        <ele>46</ele>
        <time>2021-03-25T04:40:55Z</time>
      </trkpt>
      <trkpt lat="47.18804" lon="-0.04016">
        <ele>48</ele>
        <time>2021-03-25T04:41:09Z</time>
      </trkpt>
      <trkpt lat="47.188" lon="-0.03952">
        <ele>51</ele>
        <time>2021-03-25T04:41:17Z</time>
      </trkpt>
      <trkpt lat="47.18796" lon="-0.03929">
        <ele>53</ele>
        <time>2021-03-25T04:41:20Z</time>
      </trkpt>
      <trkpt lat="47.18793" lon="-0.03889">
        <ele>54</ele>
        <time>2021-03-25T04:41:25Z</time>
      </trkpt>
      <trkpt lat="47.18796" lon="-0.03718">
        <ele>58</ele>
        <time>2021-03-25T04:41:46Z</time>
      </trkpt>
      <trkpt lat="47.18794" lon="-0.03635">
        <ele>60</ele>
        <time>2021-03-25T04:41:56Z</time>
      </trkpt>
      <trkpt lat="47.18795" lon="-0.03596">
        <ele>61</ele>
        <time>2021-03-25T04:42:00Z</time>
      </trkpt>
      <trkpt lat="47.18798" lon="-0.03572">
        <ele>61</ele>
        <time>2021-03-25T04:42:03Z</time>
      </trkpt>
      <trkpt lat="47.18809" lon="-0.03537">
        <ele>62</ele>
        <time>2021-03-25T04:42:08Z</time>
      </trkpt>
      <trkpt lat="47.18812" lon="-0.03511">
        <ele>63</ele>
        <time>2021-03-25T04:42:11Z</time>
      </trkpt>
      <trkpt lat="47.18828" lon="-0.03079">
        <ele>76</ele>
        <time>2021-03-25T04:43:04Z</time>
      </trkpt>
      <trkpt lat="47.18837" lon="-0.02987">
        <ele>79</ele>
        <time>2021-03-25T04:43:15Z</time>
      </trkpt>
      <trkpt lat="47.18869" lon="-0.02769">
        <ele>84</ele>
        <time>2021-03-25T04:43:42Z</time>
      </trkpt>
      <trkpt lat="47.18876" lon="-0.02734">
        <ele>85</ele>
        <time>2021-03-25T04:43:46Z</time>
      </trkpt>
      <trkpt lat="47.189" lon="-0.02664">
        <ele>84</ele>
        <time>2021-03-25T04:43:56Z</time>
      </trkpt>
      <trkpt lat="47.18904" lon="-0.02625">
        <ele>83</ele>
        <time>2021-03-25T04:44:00Z</time>
      </trkpt>
      <trkpt lat="47.18907" lon="-0.02452">
        <ele>76</ele>
        <time>2021-03-25T04:44:21Z</time>
      </trkpt>
      <trkpt lat="47.18904" lon="-0.02414">
        <ele>74</ele>
        <time>2021-03-25T04:44:26Z</time>
      </trkpt>
      <trkpt lat="47.18883" lon="-0.02307">
        <ele>74</ele>
        <time>2021-03-25T04:44:39Z</time>
      </trkpt>
      <trkpt lat="47.18855" lon="-0.02063">
        <ele>69</ele>
        <time>2021-03-25T04:45:09Z</time>
      </trkpt>
      <trkpt lat="47.18854" lon="-0.02026">
        <ele>69</ele>
        <time>2021-03-25T04:45:14Z</time>
      </trkpt>
      <trkpt lat="47.18857" lon="-0.01993">
        <ele>70</ele>
        <time>2021-03-25T04:45:18Z</time>
      </trkpt>
      <trkpt lat="47.18867" lon="-0.01947">
        <ele>69</ele>
        <time>2021-03-25T04:45:24Z</time>
      </trkpt>
      <trkpt lat="47.18933" lon="-0.01726">
        <ele>69</ele>
        <time>2021-03-25T04:45:53Z</time>
      </trkpt>
      <trkpt lat="47.18939" lon="-0.01683">
        <ele>69</ele>
        <time>2021-03-25T04:45:58Z</time>
      </trkpt>
      <trkpt lat="47.1894" lon="-0.0164">
        <ele>69</ele>
        <time>2021-03-25T04:46:03Z</time>
      </trkpt>
      <trkpt lat="47.18935" lon="-0.01598">
        <ele>69</ele>
        <time>2021-03-25T04:46:09Z</time>
      </trkpt>
      <trkpt lat="47.18892" lon="-0.01334">
        <ele>73</ele>
        <time>2021-03-25T04:46:41Z</time>
      </trkpt>
      <trkpt lat="47.18881" lon="-0.01291">
        <ele>74</ele>
        <time>2021-03-25T04:46:47Z</time>
      </trkpt>
      <trkpt lat="47.1882" lon="-0.0111">
        <ele>80</ele>
        <time>2021-03-25T04:47:11Z</time>
      </trkpt>
      <trkpt lat="47.18801" lon="-0.01062">
        <ele>81</ele>
        <time>2021-03-25T04:47:18Z</time>
      </trkpt>
      <trkpt lat="47.1864" lon="-0.00789">
        <ele>91</ele>
        <time>2021-03-25T04:48:02Z</time>
      </trkpt>
      <trkpt lat="47.18629" lon="-0.00763">
        <ele>92</ele>
        <time>2021-03-25T04:48:05Z</time>
      </trkpt>
      <trkpt lat="47.18622" lon="-0.00735">
        <ele>93</ele>
        <time>2021-03-25T04:48:09Z</time>
      </trkpt>
      <trkpt lat="47.1862" lon="-0.00697">
        <ele>93</ele>
        <time>2021-03-25T04:48:14Z</time>
      </trkpt>
      <trkpt lat="47.18622" lon="-0.00107">
        <ele>103</ele>
        <time>2021-03-25T04:49:25Z</time>
      </trkpt>
      <trkpt lat="47.18621" lon="-0.00069">
        <ele>103</ele>
        <time>2021-03-25T04:49:30Z</time>
      </trkpt>
      <trkpt lat="47.18615" lon="-0.00036">
        <ele>103</ele>
        <time>2021-03-25T04:49:34Z</time>
      </trkpt>
      <trkpt lat="47.186" lon="0.00021">
        <ele>103</ele>
        <time>2021-03-25T04:49:41Z</time>
      </trkpt>
      <trkpt lat="47.18404" lon="0.00531">
        <ele>101</ele>
        <time>2021-03-25T04:50:52Z</time>
      </trkpt>
      <trkpt lat="47.1839" lon="0.00576">
        <ele>101</ele>
        <time>2021-03-25T04:50:58Z</time>
      </trkpt>
      <trkpt lat="47.1838" lon="0.00627">
        <ele>101</ele>
        <time>2021-03-25T04:51:04Z</time>
      </trkpt>
      <trkpt lat="47.18377" lon="0.00682">
        <ele>101</ele>
        <time>2021-03-25T04:51:11Z</time>
      </trkpt>
      <trkpt lat="47.18365" lon="0.01028">
        <ele>105</ele>
        <time>2021-03-25T04:51:53Z</time>
      </trkpt>
      <trkpt lat="47.18342" lon="0.01588">
        <ele>106</ele>
        <time>2021-03-25T04:53:01Z</time>
      </trkpt>
      <trkpt lat="47.18338" lon="0.01636">
        <ele>107</ele>
        <time>2021-03-25T04:53:07Z</time>
      </trkpt>
      <trkpt lat="47.18331" lon="0.01677">
        <ele>107</ele>
        <time>2021-03-25T04:53:12Z</time>
      </trkpt>
      <trkpt lat="47.1829" lon="0.01817">
        <ele>106</ele>
        <time>2021-03-25T04:53:30Z</time>
      </trkpt>
      <trkpt lat="47.18283" lon="0.0185">
        <ele>106</ele>
        <time>2021-03-25T04:53:34Z</time>
      </trkpt>
      <trkpt lat="47.18278" lon="0.01884">
        <ele>105</ele>
        <time>2021-03-25T04:53:39Z</time>
      </trkpt>
      <trkpt lat="47.18234" lon="0.02422">
        <ele>106</ele>
        <time>2021-03-25T04:54:44Z</time>
      </trkpt>
      <trkpt lat="47.1823" lon="0.02449">
        <ele>107</ele>
        <time>2021-03-25T04:54:47Z</time>
      </trkpt>
      <trkpt lat="47.1822" lon="0.02494">
        <ele>108</ele>
        <time>2021-03-25T04:54:53Z</time>
      </trkpt>
      <trkpt lat="47.18207" lon="0.02537">
        <ele>107</ele>
        <time>2021-03-25T04:54:59Z</time>
      </trkpt>
      <trkpt lat="47.18178" lon="0.02619">
        <ele>107</ele>
        <time>2021-03-25T04:55:10Z</time>
      </trkpt>
      <trkpt lat="47.18115" lon="0.02787">
        <ele>107</ele>
        <time>2021-03-25T04:55:33Z</time>
      </trkpt>
      <trkpt lat="47.18099" lon="0.02834">
        <ele>108</ele>
        <time>2021-03-25T04:55:40Z</time>
      </trkpt>
      <trkpt lat="47.18096" lon="0.02853">
        <ele>108</ele>
        <time>2021-03-25T04:55:42Z</time>
      </trkpt>
      <trkpt lat="47.18082" lon="0.02963">
        <ele>108</ele>
        <time>2021-03-25T04:55:56Z</time>
      </trkpt>
      <trkpt lat="47.18066" lon="0.03052">
        <ele>107</ele>
        <time>2021-03-25T04:56:07Z</time>
      </trkpt>
      <trkpt lat="47.18037" lon="0.03178">
        <ele>108</ele>
        <time>2021-03-25T04:56:23Z</time>
      </trkpt>
      <trkpt lat="47.18035" lon="0.03207">
        <ele>108</ele>
        <time>2021-03-25T04:56:26Z</time>
      </trkpt>
      <trkpt lat="47.18034" lon="0.03239">
        <ele>108</ele>
        <time>2021-03-25T04:56:30Z</time>
      </trkpt>
      <trkpt lat="47.18043" lon="0.03383">
        <ele>107</ele>
        <time>2021-03-25T04:56:48Z</time>
      </trkpt>
      <trkpt lat="47.18059" lon="0.03482">
        <ele>108</ele>
        <time>2021-03-25T04:57:00Z</time>
      </trkpt>
      <trkpt lat="47.18078" lon="0.03579">
        <ele>104</ele>
        <time>2021-03-25T04:57:12Z</time>
      </trkpt>
      <trkpt lat="47.1808" lon="0.03594">
        <ele>103</ele>
        <time>2021-03-25T04:57:14Z</time>
      </trkpt>
      <trkpt lat="47.18079" lon="0.03608">
        <ele>102</ele>
        <time>2021-03-25T04:57:16Z</time>
      </trkpt>
      <trkpt lat="47.18072" lon="0.03635">
        <ele>101</ele>
        <time>2021-03-25T04:57:19Z</time>
      </trkpt>
      <trkpt lat="47.18051" lon="0.03672">
        <ele>99</ele>
        <time>2021-03-25T04:57:25Z</time>
      </trkpt>
      <trkpt lat="47.18041" lon="0.03695">
        <ele>98</ele>
        <time>2021-03-25T04:57:28Z</time>
      </trkpt>
      <trkpt lat="47.18031" lon="0.03733">
        <ele>97</ele>
        <time>2021-03-25T04:57:33Z</time>
      </trkpt>
      <trkpt lat="47.18025" lon="0.03769">
        <ele>97</ele>
        <time>2021-03-25T04:57:38Z</time>
      </trkpt>
      <trkpt lat="47.18022" lon="0.03808">
        <ele>97</ele>
        <time>2021-03-25T04:57:43Z</time>
      </trkpt>
      <trkpt lat="47.18026" lon="0.03842">
        <ele>98</ele>
        <time>2021-03-25T04:57:47Z</time>
      </trkpt>
      <trkpt lat="47.18048" lon="0.0396">
        <ele>101</ele>
        <time>2021-03-25T04:58:01Z</time>
      </trkpt>
      <trkpt lat="47.18073" lon="0.04075">
        <ele>101</ele>
        <time>2021-03-25T04:58:16Z</time>
      </trkpt>
      <trkpt lat="47.18078" lon="0.04107">
        <ele>101</ele>
        <time>2021-03-25T04:58:20Z</time>
      </trkpt>
      <trkpt lat="47.18082" lon="0.04162">
        <ele>101</ele>
        <time>2021-03-25T04:58:27Z</time>
      </trkpt>
      <trkpt lat="47.18087" lon="0.04292">
        <ele>96</ele>
        <time>2021-03-25T04:58:42Z</time>
      </trkpt>
      <trkpt lat="47.18096" lon="0.04372">
        <ele>91</ele>
        <time>2021-03-25T04:58:52Z</time>
      </trkpt>
      <trkpt lat="47.18104" lon="0.04422">
        <ele>88</ele>
        <time>2021-03-25T04:58:59Z</time>
      </trkpt>
      <trkpt lat="47.18063" lon="0.04433">
        <ele>89</ele>
        <time>2021-03-25T04:59:06Z</time>
      </trkpt>
      <trkpt lat="47.18056" lon="0.04437">
        <ele>89</ele>
        <time>2021-03-25T04:59:07Z</time>
      </trkpt>
      <trkpt lat="47.18049" lon="0.04444">
        <ele>89</ele>
        <time>2021-03-25T04:59:09Z</time>
      </trkpt>
      <trkpt lat="47.18044" lon="0.04454">
        <ele>89</ele>
        <time>2021-03-25T04:59:10Z</time>
      </trkpt>
      <trkpt lat="47.18041" lon="0.04467">
        <ele>89</ele>
        <time>2021-03-25T04:59:12Z</time>
      </trkpt>
      <trkpt lat="47.18035" lon="0.04463">
        <ele>89</ele>
        <time>2021-03-25T04:59:13Z</time>
      </trkpt>
      <trkpt lat="47.18028" lon="0.04464">
        <ele>89</ele>
        <time>2021-03-25T04:59:14Z</time>
      </trkpt>
      <trkpt lat="47.18021" lon="0.04468">
        <ele>89</ele>
        <time>2021-03-25T04:59:16Z</time>
      </trkpt>
      <trkpt lat="47.18017" lon="0.04473">
        <ele>89</ele>
        <time>2021-03-25T04:59:17Z</time>
      </trkpt>
      <trkpt lat="47.18012" lon="0.04488">
        <ele>88</ele>
        <time>2021-03-25T04:59:19Z</time>
      </trkpt>
      <trkpt lat="47.18012" lon="0.04498">
        <ele>88</ele>
        <time>2021-03-25T04:59:20Z</time>
      </trkpt>
      <trkpt lat="47.18015" lon="0.04507">
        <ele>88</ele>
        <time>2021-03-25T04:59:21Z</time>
      </trkpt>
      <trkpt lat="47.18019" lon="0.04513">
        <ele>88</ele>
        <time>2021-03-25T04:59:22Z</time>
      </trkpt>
      <trkpt lat="47.18024" lon="0.04518">
        <ele>88</ele>
        <time>2021-03-25T04:59:23Z</time>
      </trkpt>
      <trkpt lat="47.18035" lon="0.0452">
        <ele>88</ele>
        <time>2021-03-25T04:59:25Z</time>
      </trkpt>
      <trkpt lat="47.18042" lon="0.04517">
        <ele>88</ele>
        <time>2021-03-25T04:59:26Z</time>
      </trkpt>
      <trkpt lat="47.18047" lon="0.0451">
        <ele>88</ele>
        <time>2021-03-25T04:59:28Z</time>
      </trkpt>
      <trkpt lat="47.1805" lon="0.04501">
        <ele>88</ele>
        <time>2021-03-25T04:59:29Z</time>
      </trkpt>
      <trkpt lat="47.18051" lon="0.04491">
        <ele>88</ele>
        <time>2021-03-25T04:59:30Z</time>
      </trkpt>
      <trkpt lat="47.18066" lon="0.04485">
        <ele>88</ele>
        <time>2021-03-25T04:59:33Z</time>
      </trkpt>
      <trkpt lat="47.18137" lon="0.04435">
        <ele>88</ele>
        <time>2021-03-25T04:59:47Z</time>
      </trkpt>
      <trkpt lat="47.18177" lon="0.04413">
        <ele>86</ele>
        <time>2021-03-25T04:59:54Z</time>
      </trkpt>
      <trkpt lat="47.18203" lon="0.04402">
        <ele>84</ele>
        <time>2021-03-25T04:59:59Z</time>
      </trkpt>
      <trkpt lat="47.18254" lon="0.04391">
        <ele>80</ele>
        <time>2021-03-25T05:00:08Z</time>
      </trkpt>
      <trkpt lat="47.18299" lon="0.04388">
        <ele>76</ele>
        <time>2021-03-25T05:00:16Z</time>
      </trkpt>
      <trkpt lat="47.18355" lon="0.04394">
        <ele>73</ele>
        <time>2021-03-25T05:00:26Z</time>
      </trkpt>
      <trkpt lat="47.18478" lon="0.04424">
        <ele>69</ele>
        <time>2021-03-25T05:00:49Z</time>
      </trkpt>
      <trkpt lat="47.18538" lon="0.04444">
        <ele>68</ele>
        <time>2021-03-25T05:01:00Z</time>
      </trkpt>
      <trkpt lat="47.18584" lon="0.04469">
        <ele>67</ele>
        <time>2021-03-25T05:01:08Z</time>
      </trkpt>
      <trkpt lat="47.1862" lon="0.04495">
        <ele>67</ele>
        <time>2021-03-25T05:01:15Z</time>
      </trkpt>
      <trkpt lat="47.18651" lon="0.04524">
        <ele>66</ele>
        <time>2021-03-25T05:01:22Z</time>
      </trkpt>
      <trkpt lat="47.18682" lon="0.04557">
        <ele>64</ele>
        <time>2021-03-25T05:01:29Z</time>
      </trkpt>
      <trkpt lat="47.18836" lon="0.04713">
        <ele>54</ele>
        <time>2021-03-25T05:02:02Z</time>
      </trkpt>
      <trkpt lat="47.18859" lon="0.04737">
        <ele>53</ele>
        <time>2021-03-25T05:02:07Z</time>
      </trkpt>
      <trkpt lat="47.18861" lon="0.04745">
        <ele>53</ele>
        <time>2021-03-25T05:02:08Z</time>
      </trkpt>
      <trkpt lat="47.1888" lon="0.04771">
        <ele>53</ele>
        <time>2021-03-25T05:02:13Z</time>
      </trkpt>
      <trkpt lat="47.18884" lon="0.04781">
        <ele>53</ele>
        <time>2021-03-25T05:02:14Z</time>
      </trkpt>
      <trkpt lat="47.1889" lon="0.04805">
        <ele>54</ele>
        <time>2021-03-25T05:02:17Z</time>
      </trkpt>
      <trkpt lat="47.18899" lon="0.04814">
        <ele>54</ele>
        <time>2021-03-25T05:02:19Z</time>
      </trkpt>
      <trkpt lat="47.18909" lon="0.04813">
        <ele>55</ele>
        <time>2021-03-25T05:02:21Z</time>
      </trkpt>
      <trkpt lat="47.18919" lon="0.04818">
        <ele>55</ele>
        <time>2021-03-25T05:02:23Z</time>
      </trkpt>
      <trkpt lat="47.1893" lon="0.0482">
        <ele>55</ele>
        <time>2021-03-25T05:02:25Z</time>
      </trkpt>
      <trkpt lat="47.18936" lon="0.04818">
        <ele>55</ele>
        <time>2021-03-25T05:02:26Z</time>
      </trkpt>
      <trkpt lat="47.18987" lon="0.04826">
        <ele>54</ele>
        <time>2021-03-25T05:02:35Z</time>
      </trkpt>
      <trkpt lat="47.19045" lon="0.04841">
        <ele>53</ele>
        <time>2021-03-25T05:02:45Z</time>
      </trkpt>
      <trkpt lat="47.19072" lon="0.04853">
        <ele>52</ele>
        <time>2021-03-25T05:02:50Z</time>
      </trkpt>
      <trkpt lat="47.19112" lon="0.04876">
        <ele>51</ele>
        <time>2021-03-25T05:02:58Z</time>
      </trkpt>
      <trkpt lat="47.19136" lon="0.04896">
        <ele>50</ele>
        <time>2021-03-25T05:03:03Z</time>
      </trkpt>
      <trkpt lat="47.19287" lon="0.05009">
        <ele>47</ele>
        <time>2021-03-25T05:03:33Z</time>
      </trkpt>
      <trkpt lat="47.19385" lon="0.05076">
        <ele>49</ele>
        <time>2021-03-25T05:03:52Z</time>
      </trkpt>
      <trkpt lat="47.19431" lon="0.05103">
        <ele>49</ele>
        <time>2021-03-25T05:04:01Z</time>
      </trkpt>
      <trkpt lat="47.19496" lon="0.0515">
        <ele>47</ele>
        <time>2021-03-25T05:04:14Z</time>
      </trkpt>
      <trkpt lat="47.19553" lon="0.05195">
        <ele>46</ele>
        <time>2021-03-25T05:04:26Z</time>
      </trkpt>
      <trkpt lat="47.19605" lon="0.05229">
        <ele>46</ele>
        <time>2021-03-25T05:04:36Z</time>
      </trkpt>
      <trkpt lat="47.19714" lon="0.05309">
        <ele>48</ele>
        <time>2021-03-25T05:04:57Z</time>
      </trkpt>
      <trkpt lat="47.19746" lon="0.05328">
        <ele>47</ele>
        <time>2021-03-25T05:05:04Z</time>
      </trkpt>
      <trkpt lat="47.19784" lon="0.05358">
        <ele>47</ele>
        <time>2021-03-25T05:05:11Z</time>
      </trkpt>
      <trkpt lat="47.19817" lon="0.05377">
        <ele>47</ele>
        <time>2021-03-25T05:05:18Z</time>
      </trkpt>
      <trkpt lat="47.19838" lon="0.05385">
        <ele>47</ele>
        <time>2021-03-25T05:05:21Z</time>
      </trkpt>
      <trkpt lat="47.19884" lon="0.05383">
        <ele>46</ele>
        <time>2021-03-25T05:05:30Z</time>
      </trkpt>
      <trkpt lat="47.1991" lon="0.05378">
        <ele>45</ele>
        <time>2021-03-25T05:05:34Z</time>
      </trkpt>
      <trkpt lat="47.19925" lon="0.0537">
        <ele>46</ele>
        <time>2021-03-25T05:05:37Z</time>
      </trkpt>
      <trkpt lat="47.19963" lon="0.05344">
        <ele>47</ele>
        <time>2021-03-25T05:05:45Z</time>
      </trkpt>
      <trkpt lat="47.2001" lon="0.05302">
        <ele>46</ele>
        <time>2021-03-25T05:05:54Z</time>
      </trkpt>
      <trkpt lat="47.20039" lon="0.05267">
        <ele>45</ele>
        <time>2021-03-25T05:06:01Z</time>
      </trkpt>
      <trkpt lat="47.20117" lon="0.05194">
        <ele>46</ele>
        <time>2021-03-25T05:06:17Z</time>
      </trkpt>
      <trkpt lat="47.20183" lon="0.05139">
        <ele>45</ele>
        <time>2021-03-25T05:06:31Z</time>
      </trkpt>
      <trkpt lat="47.20206" lon="0.05122">
        <ele>45</ele>
        <time>2021-03-25T05:06:36Z</time>
      </trkpt>
      <trkpt lat="47.20262" lon="0.05105">
        <ele>44</ele>
        <time>2021-03-25T05:06:46Z</time>
      </trkpt>
      <trkpt lat="47.20299" lon="0.05099">
        <ele>44</ele>
        <time>2021-03-25T05:06:52Z</time>
      </trkpt>
      <trkpt lat="47.20363" lon="0.05102">
        <ele>45</ele>
        <time>2021-03-25T05:07:04Z</time>
      </trkpt>
      <trkpt lat="47.20525" lon="0.05125">
        <ele>41</ele>
        <time>2021-03-25T05:07:33Z</time>
      </trkpt>
      <trkpt lat="47.20975" lon="0.05195">
        <ele>39</ele>
        <time>2021-03-25T05:08:53Z</time>
      </trkpt>
      <trkpt lat="47.21122" lon="0.0522">
        <ele>42</ele>
        <time>2021-03-25T05:09:20Z</time>
      </trkpt>
      <trkpt lat="47.21139" lon="0.05225">
        <ele>42</ele>
        <time>2021-03-25T05:09:23Z</time>
      </trkpt>
      <trkpt lat="47.21162" lon="0.05239">
        <ele>41</ele>
        <time>2021-03-25T05:09:27Z</time>
      </trkpt>
      <trkpt lat="47.21347" lon="0.05384">
        <ele>38</ele>
        <time>2021-03-25T05:10:04Z</time>
      </trkpt>
      <trkpt lat="47.21361" lon="0.05391">
        <ele>38</ele>
        <time>2021-03-25T05:10:07Z</time>
      </trkpt>
      <trkpt lat="47.21361" lon="0.05397">
        <ele>38</ele>
        <time>2021-03-25T05:10:08Z</time>
      </trkpt>
      <trkpt lat="47.21363" lon="0.05402">
        <ele>39</ele>
        <time>2021-03-25T05:10:08Z</time>
      </trkpt>
      <trkpt lat="47.21366" lon="0.05404">
        <ele>38</ele>
        <time>2021-03-25T05:10:09Z</time>
      </trkpt>
      <trkpt lat="47.21372" lon="0.054">
        <ele>38</ele>
        <time>2021-03-25T05:10:10Z</time>
      </trkpt>
      <trkpt lat="47.21382" lon="0.05413">
        <ele>38</ele>
        <time>2021-03-25T05:10:13Z</time>
      </trkpt>
      <trkpt lat="47.21433" lon="0.05457">
        <ele>36</ele>
        <time>2021-03-25T05:10:23Z</time>
      </trkpt>
      <trkpt lat="47.21501" lon="0.05537">
        <ele>34</ele>
        <time>2021-03-25T05:10:39Z</time>
      </trkpt>
      <trkpt lat="47.21492" lon="0.05551">
        <ele>35</ele>
        <time>2021-03-25T05:10:41Z</time>
      </trkpt>
      <trkpt lat="47.21492" lon="0.05558">
        <ele>35</ele>
        <time>2021-03-25T05:10:42Z</time>
      </trkpt>
      <trkpt lat="47.21494" lon="0.05565">
        <ele>35</ele>
        <time>2021-03-25T05:10:43Z</time>
      </trkpt>
    </trkseg>
      <trkpt lat="47.21665" lon="0.05676">
        <ele>33</ele>
        <time>2021-03-24T19:28:58Z</time>
      </trkpt>
      <trkpt lat="47.21674" lon="0.05677">
        <ele>32</ele>
        <time>2021-03-24T19:29:00Z</time>
      </trkpt>
      <trkpt lat="47.21677" lon="0.05664">
        <ele>32</ele>
        <time>2021-03-24T19:29:01Z</time>
      </trkpt>
      <trkpt lat="47.21681" lon="0.05652">
        <ele>32</ele>
        <time>2021-03-24T19:29:03Z</time>
      </trkpt>
      <trkpt lat="47.21684" lon="0.0564">
        <ele>32</ele>
        <time>2021-03-24T19:29:04Z</time>
      </trkpt>
      <trkpt lat="47.21685" lon="0.05637">
        <ele>32</ele>
        <time>2021-03-24T19:29:05Z</time>
      </trkpt>
      <trkpt lat="47.21707" lon="0.05566">
        <ele>32</ele>
        <time>2021-03-24T19:29:14Z</time>
      </trkpt>
      <trkpt lat="47.21708" lon="0.05562">
        <ele>32</ele>
        <time>2021-03-24T19:29:15Z</time>
      </trkpt>
      <trkpt lat="47.2171" lon="0.05558">
        <ele>32</ele>
        <time>2021-03-24T19:29:15Z</time>
      </trkpt>
      <trkpt lat="47.21746" lon="0.05447">
        <ele>33</ele>
        <time>2021-03-24T19:29:30Z</time>
      </trkpt>
      <trkpt lat="47.21785" lon="0.05322">
        <ele>36</ele>
        <time>2021-03-24T19:29:47Z</time>
      </trkpt>
      <trkpt lat="47.21803" lon="0.05267">
        <ele>38</ele>
        <time>2021-03-24T19:29:54Z</time>
      </trkpt>
      <trkpt lat="47.21812" lon="0.05236">
        <ele>38</ele>
        <time>2021-03-24T19:29:58Z</time>
      </trkpt>
      <trkpt lat="47.21825" lon="0.05193">
        <ele>39</ele>
        <time>2021-03-24T19:30:04Z</time>
      </trkpt>
      <trkpt lat="47.21829" lon="0.0518">
        <ele>38</ele>
        <time>2021-03-24T19:30:06Z</time>
      </trkpt>
      <trkpt lat="47.21863" lon="0.05072">
        <ele>43</ele>
        <time>2021-03-24T19:30:20Z</time>
      </trkpt>
      <trkpt lat="47.21866" lon="0.05062">
        <ele>43</ele>
        <time>2021-03-24T19:30:21Z</time>
      </trkpt>
      <trkpt lat="47.21869" lon="0.05052">
        <ele>43</ele>
        <time>2021-03-24T19:30:23Z</time>
      </trkpt>
      <trkpt lat="47.21875" lon="0.05034">
        <ele>43</ele>
        <time>2021-03-24T19:30:25Z</time>
      </trkpt>
      <trkpt lat="47.21897" lon="0.04964">
        <ele>40</ele>
        <time>2021-03-24T19:30:35Z</time>
      </trkpt>
      <trkpt lat="47.21905" lon="0.04938">
        <ele>39</ele>
        <time>2021-03-24T19:30:38Z</time>
      </trkpt>
      <trkpt lat="47.21913" lon="0.04911">
        <ele>38</ele>
        <time>2021-03-24T19:30:42Z</time>
      </trkpt>
      <trkpt lat="47.2192" lon="0.04889">
        <ele>39</ele>
        <time>2021-03-24T19:30:44Z</time>
      </trkpt>
      <trkpt lat="47.21938" lon="0.04833">
        <ele>42</ele>
        <time>2021-03-24T19:30:52Z</time>
      </trkpt>
      <trkpt lat="47.21959" lon="0.04767">
        <ele>41</ele>
        <time>2021-03-24T19:31:01Z</time>
      </trkpt>
      <trkpt lat="47.2197" lon="0.04733">
        <ele>40</ele>
        <time>2021-03-24T19:31:05Z</time>
      </trkpt>
      <trkpt lat="47.21974" lon="0.04728">
        <ele>39</ele>
        <time>2021-03-24T19:31:06Z</time>
      </trkpt>
      <trkpt lat="47.21975" lon="0.04727">
        <ele>39</ele>
        <time>2021-03-24T19:31:06Z</time>
      </trkpt>
      <trkpt lat="47.21976" lon="0.04725">
        <ele>39</ele>
        <time>2021-03-24T19:31:07Z</time>
      </trkpt>
      <trkpt lat="47.21977" lon="0.04722">
        <ele>38</ele>
        <time>2021-03-24T19:31:07Z</time>
      </trkpt>
      <trkpt lat="47.21979" lon="0.04714">
        <ele>38</ele>
        <time>2021-03-24T19:31:08Z</time>
      </trkpt>
      <trkpt lat="47.21984" lon="0.04701">
        <ele>37</ele>
        <time>2021-03-24T19:31:10Z</time>
      </trkpt>
      <trkpt lat="47.21998" lon="0.04659">
        <ele>33</ele>
        <time>2021-03-24T19:31:16Z</time>
      </trkpt>
      <trkpt lat="47.22021" lon="0.04585">
        <ele>34</ele>
        <time>2021-03-24T19:31:25Z</time>
      </trkpt>
      <trkpt lat="47.22026" lon="0.04568">
        <ele>34</ele>
        <time>2021-03-24T19:31:28Z</time>
      </trkpt>
      <trkpt lat="47.22028" lon="0.04564">
        <ele>34</ele>
        <time>2021-03-24T19:31:28Z</time>
      </trkpt>
      <trkpt lat="47.2203" lon="0.0456">
        <ele>34</ele>
        <time>2021-03-24T19:31:29Z</time>
      </trkpt>
      <trkpt lat="47.22034" lon="0.04554">
        <ele>34</ele>
        <time>2021-03-24T19:31:30Z</time>
      </trkpt>
      <trkpt lat="47.22034" lon="0.04554">
        <ele>34</ele>
        <time>2021-03-24T19:31:30Z</time>
      </trkpt>
      <trkpt lat="47.22035" lon="0.04554">
        <ele>34</ele>
        <time>2021-03-24T19:31:30Z</time>
      </trkpt>
      <trkpt lat="47.22036" lon="0.04554">
        <ele>34</ele>
        <time>2021-03-24T19:31:30Z</time>
      </trkpt>
      <trkpt lat="47.22037" lon="0.04553">
        <ele>34</ele>
        <time>2021-03-24T19:31:31Z</time>
      </trkpt>
      <trkpt lat="47.22038" lon="0.04553">
        <ele>34</ele>
        <time>2021-03-24T19:31:31Z</time>
      </trkpt>
      <trkpt lat="47.22039" lon="0.04552">
        <ele>33</ele>
        <time>2021-03-24T19:31:31Z</time>
      </trkpt>
      <trkpt lat="47.22046" lon="0.04553">
        <ele>33</ele>
        <time>2021-03-24T19:31:32Z</time>
      </trkpt>
      <trkpt lat="47.22053" lon="0.04556">
        <ele>32</ele>
        <time>2021-03-24T19:31:33Z</time>
      </trkpt>
      <trkpt lat="47.22065" lon="0.04563">
        <ele>31</ele>
        <time>2021-03-24T19:31:36Z</time>
      </trkpt>
      <trkpt lat="47.2207" lon="0.04566">
        <ele>31</ele>
        <time>2021-03-24T19:31:37Z</time>
      </trkpt>
      <trkpt lat="47.22104" lon="0.04591">
        <ele>31</ele>
        <time>2021-03-24T19:31:43Z</time>
      </trkpt>
      <trkpt lat="47.22154" lon="0.04624">
        <ele>33</ele>
        <time>2021-03-24T19:31:53Z</time>
      </trkpt>
      <trkpt lat="47.22243" lon="0.0468">
        <ele>32</ele>
        <time>2021-03-24T19:32:10Z</time>
      </trkpt>
      <trkpt lat="47.22258" lon="0.0469">
        <ele>31</ele>
        <time>2021-03-24T19:32:13Z</time>
      </trkpt>
      <trkpt lat="47.22263" lon="0.04694">
        <ele>30</ele>
        <time>2021-03-24T19:32:14Z</time>
      </trkpt>
      <trkpt lat="47.22445" lon="0.04812">
        <ele>27</ele>
        <time>2021-03-24T19:32:50Z</time>
      </trkpt>
      <trkpt lat="47.2246" lon="0.04821">
        <ele>27</ele>
        <time>2021-03-24T19:32:53Z</time>
      </trkpt>
      <trkpt lat="47.22725" lon="0.04994">
        <ele>28</ele>
        <time>2021-03-24T19:33:44Z</time>
      </trkpt>
      <trkpt lat="47.22732" lon="0.04998">
        <ele>29</ele>
        <time>2021-03-24T19:33:46Z</time>
      </trkpt>
      <trkpt lat="47.22738" lon="0.05003">
        <ele>29</ele>
        <time>2021-03-24T19:33:47Z</time>
      </trkpt>
      <trkpt lat="47.22752" lon="0.05016">
        <ele>29</ele>
        <time>2021-03-24T19:33:50Z</time>
      </trkpt>
      <trkpt lat="47.22752" lon="0.05016">
        <ele>29</ele>
        <time>2021-03-24T19:33:50Z</time>
      </trkpt>
      <trkpt lat="47.22752" lon="0.05017">
        <ele>29</ele>
        <time>2021-03-24T19:33:50Z</time>
      </trkpt>
      <trkpt lat="47.22752" lon="0.05018">
        <ele>29</ele>
        <time>2021-03-24T19:33:50Z</time>
      </trkpt>
      <trkpt lat="47.22752" lon="0.05019">
        <ele>29</ele>
        <time>2021-03-24T19:33:50Z</time>
      </trkpt>
      <trkpt lat="47.22753" lon="0.05019">
        <ele>29</ele>
        <time>2021-03-24T19:33:50Z</time>
      </trkpt>
      <trkpt lat="47.22753" lon="0.0502">
        <ele>29</ele>
        <time>2021-03-24T19:33:50Z</time>
      </trkpt>
      <trkpt lat="47.22753" lon="0.05021">
        <ele>29</ele>
        <time>2021-03-24T19:33:51Z</time>
      </trkpt>
      <trkpt lat="47.22754" lon="0.05021">
        <ele>29</ele>
        <time>2021-03-24T19:33:51Z</time>
      </trkpt>
      <trkpt lat="47.22754" lon="0.05022">
        <ele>29</ele>
        <time>2021-03-24T19:33:51Z</time>
      </trkpt>
      <trkpt lat="47.22754" lon="0.05023">
        <ele>29</ele>
        <time>2021-03-24T19:33:51Z</time>
      </trkpt>
      <trkpt lat="47.22755" lon="0.05023">
        <ele>29</ele>
        <time>2021-03-24T19:33:51Z</time>
      </trkpt>
      <trkpt lat="47.22755" lon="0.05024">
        <ele>29</ele>
        <time>2021-03-24T19:33:51Z</time>
      </trkpt>
      <trkpt lat="47.22756" lon="0.05024">
        <ele>29</ele>
        <time>2021-03-24T19:33:51Z</time>
      </trkpt>
      <trkpt lat="47.22757" lon="0.05024">
        <ele>29</ele>
        <time>2021-03-24T19:33:52Z</time>
      </trkpt>
      <trkpt lat="47.22757" lon="0.05025">
        <ele>29</ele>
        <time>2021-03-24T19:33:52Z</time>
      </trkpt>
      <trkpt lat="47.22758" lon="0.05025">
        <ele>29</ele>
        <time>2021-03-24T19:33:52Z</time>
      </trkpt>
      <trkpt lat="47.22759" lon="0.05025">
        <ele>29</ele>
        <time>2021-03-24T19:33:52Z</time>
      </trkpt>
      <trkpt lat="47.2276" lon="0.05025">
        <ele>29</ele>
        <time>2021-03-24T19:33:52Z</time>
      </trkpt>
      <trkpt lat="47.22761" lon="0.05025">
        <ele>29</ele>
        <time>2021-03-24T19:33:52Z</time>
      </trkpt>
      <trkpt lat="47.22762" lon="0.05025">
        <ele>29</ele>
        <time>2021-03-24T19:33:53Z</time>
      </trkpt>
      <trkpt lat="47.22762" lon="0.05024">
        <ele>29</ele>
        <time>2021-03-24T19:33:53Z</time>
      </trkpt>
      <trkpt lat="47.22771" lon="0.05029">
        <ele>29</ele>
        <time>2021-03-24T19:33:54Z</time>
      </trkpt>
      <trkpt lat="47.22793" lon="0.0504">
        <ele>28</ele>
        <time>2021-03-24T19:33:59Z</time>
      </trkpt>
      <trkpt lat="47.22803" lon="0.05044">
        <ele>28</ele>
        <time>2021-03-24T19:34:00Z</time>
      </trkpt>
      <trkpt lat="47.22805" lon="0.05045">
        <ele>28</ele>
        <time>2021-03-24T19:34:01Z</time>
      </trkpt>
      <trkpt lat="47.22814" lon="0.05049">
        <ele>28</ele>
        <time>2021-03-24T19:34:02Z</time>
      </trkpt>
      <trkpt lat="47.22816" lon="0.0505">
        <ele>28</ele>
        <time>2021-03-24T19:34:03Z</time>
      </trkpt>
      <trkpt lat="47.22832" lon="0.05056">
        <ele>28</ele>
        <time>2021-03-24T19:34:06Z</time>
      </trkpt>
      <trkpt lat="47.22851" lon="0.05063">
        <ele>28</ele>
        <time>2021-03-24T19:34:09Z</time>
      </trkpt>
      <trkpt lat="47.22893" lon="0.05072">
        <ele>29</ele>
        <time>2021-03-24T19:34:17Z</time>
      </trkpt>
      <trkpt lat="47.22936" lon="0.05084">
        <ele>29</ele>
        <time>2021-03-24T19:34:25Z</time>
      </trkpt>
      <trkpt lat="47.23016" lon="0.05102">
        <ele>28</ele>
        <time>2021-03-24T19:34:39Z</time>
      </trkpt>
      <trkpt lat="47.23028" lon="0.05105">
        <ele>28</ele>
        <time>2021-03-24T19:34:41Z</time>
      </trkpt>
      <trkpt lat="47.23077" lon="0.05115">
        <ele>27</ele>
        <time>2021-03-24T19:34:50Z</time>
      </trkpt>
      <trkpt lat="47.2315" lon="0.0513">
        <ele>27</ele>
        <time>2021-03-24T19:35:03Z</time>
      </trkpt>
      <trkpt lat="47.23179" lon="0.05134">
        <ele>26</ele>
        <time>2021-03-24T19:35:08Z</time>
      </trkpt>
      <trkpt lat="47.23234" lon="0.05145">
        <ele>27</ele>
        <time>2021-03-24T19:35:18Z</time>
      </trkpt>
      <trkpt lat="47.23237" lon="0.05145">
        <ele>27</ele>
        <time>2021-03-24T19:35:19Z</time>
      </trkpt>
      <trkpt lat="47.23251" lon="0.05147">
        <ele>27</ele>
        <time>2021-03-24T19:35:21Z</time>
      </trkpt>
      <trkpt lat="47.23265" lon="0.05151">
        <ele>26</ele>
        <time>2021-03-24T19:35:24Z</time>
      </trkpt>
      <trkpt lat="47.23273" lon="0.05153">
        <ele>26</ele>
        <time>2021-03-24T19:35:25Z</time>
      </trkpt>
      <trkpt lat="47.23286" lon="0.05156">
        <ele>26</ele>
        <time>2021-03-24T19:35:27Z</time>
      </trkpt>
      <trkpt lat="47.23305" lon="0.05161">
        <ele>25</ele>
        <time>2021-03-24T19:35:31Z</time>
      </trkpt>
      <trkpt lat="47.23377" lon="0.05184">
        <ele>25</ele>
        <time>2021-03-24T19:35:44Z</time>
      </trkpt>
      <trkpt lat="47.23387" lon="0.05187">
        <ele>25</ele>
        <time>2021-03-24T19:35:46Z</time>
      </trkpt>
      <trkpt lat="47.234" lon="0.0519">
        <ele>26</ele>
        <time>2021-03-24T19:35:48Z</time>
      </trkpt>
      <trkpt lat="47.2341" lon="0.05192">
        <ele>26</ele>
        <time>2021-03-24T19:35:50Z</time>
      </trkpt>
      <trkpt lat="47.23424" lon="0.05193">
        <ele>26</ele>
        <time>2021-03-24T19:35:52Z</time>
      </trkpt>
      <trkpt lat="47.23436" lon="0.05193">
        <ele>26</ele>
        <time>2021-03-24T19:35:55Z</time>
      </trkpt>
      <trkpt lat="47.23447" lon="0.05193">
        <ele>26</ele>
        <time>2021-03-24T19:35:57Z</time>
      </trkpt>
      <trkpt lat="47.23459" lon="0.05192">
        <ele>27</ele>
        <time>2021-03-24T19:35:59Z</time>
      </trkpt>
      <trkpt lat="47.23466" lon="0.05191">
        <ele>27</ele>
        <time>2021-03-24T19:36:00Z</time>
      </trkpt>
      <trkpt lat="47.23479" lon="0.05188">
        <ele>27</ele>
        <time>2021-03-24T19:36:02Z</time>
      </trkpt>
      <trkpt lat="47.23487" lon="0.05185">
        <ele>27</ele>
        <time>2021-03-24T19:36:04Z</time>
      </trkpt>
      <trkpt lat="47.23496" lon="0.05182">
        <ele>27</ele>
        <time>2021-03-24T19:36:05Z</time>
      </trkpt>
      <trkpt lat="47.23507" lon="0.05177">
        <ele>27</ele>
        <time>2021-03-24T19:36:07Z</time>
      </trkpt>
      <trkpt lat="47.23509" lon="0.05176">
        <ele>27</ele>
        <time>2021-03-24T19:36:08Z</time>
      </trkpt>
      <trkpt lat="47.23514" lon="0.05174">
        <ele>27</ele>
        <time>2021-03-24T19:36:09Z</time>
      </trkpt>
      <trkpt lat="47.23519" lon="0.05172">
        <ele>27</ele>
        <time>2021-03-24T19:36:10Z</time>
      </trkpt>
      <trkpt lat="47.23524" lon="0.0517">
        <ele>27</ele>
        <time>2021-03-24T19:36:11Z</time>
      </trkpt>
      <trkpt lat="47.2353" lon="0.05168">
        <ele>27</ele>
        <time>2021-03-24T19:36:12Z</time>
      </trkpt>
      <trkpt lat="47.23541" lon="0.05166">
        <ele>27</ele>
        <time>2021-03-24T19:36:14Z</time>
      </trkpt>
      <trkpt lat="47.23556" lon="0.05165">
        <ele>27</ele>
        <time>2021-03-24T19:36:16Z</time>
      </trkpt>
      <trkpt lat="47.23567" lon="0.05166">
        <ele>27</ele>
        <time>2021-03-24T19:36:18Z</time>
      </trkpt>
      <trkpt lat="47.23579" lon="0.05169">
        <ele>27</ele>
        <time>2021-03-24T19:36:20Z</time>
      </trkpt>
      <trkpt lat="47.23587" lon="0.05172">
        <ele>27</ele>
        <time>2021-03-24T19:36:22Z</time>
      </trkpt>
      <trkpt lat="47.23603" lon="0.0518">
        <ele>27</ele>
        <time>2021-03-24T19:36:25Z</time>
      </trkpt>
      <trkpt lat="47.23615" lon="0.05186">
        <ele>28</ele>
        <time>2021-03-24T19:36:27Z</time>
      </trkpt>
      <trkpt lat="47.23629" lon="0.05195">
        <ele>28</ele>
        <time>2021-03-24T19:36:30Z</time>
      </trkpt>
      <trkpt lat="47.23642" lon="0.05205">
        <ele>28</ele>
        <time>2021-03-24T19:36:33Z</time>
      </trkpt>
      <trkpt lat="47.23665" lon="0.05226">
        <ele>29</ele>
        <time>2021-03-24T19:36:37Z</time>
      </trkpt>
      <trkpt lat="47.23676" lon="0.05237">
        <ele>29</ele>
        <time>2021-03-24T19:36:40Z</time>
      </trkpt>
      <trkpt lat="47.23699" lon="0.05265">
        <ele>29</ele>
        <time>2021-03-24T19:36:45Z</time>
      </trkpt>
      <trkpt lat="47.23752" lon="0.05338">
        <ele>30</ele>
        <time>2021-03-24T19:36:58Z</time>
      </trkpt>
      <trkpt lat="47.23773" lon="0.05363">
        <ele>30</ele>
        <time>2021-03-24T19:37:03Z</time>
      </trkpt>
      <trkpt lat="47.23789" lon="0.0538">
        <ele>30</ele>
        <time>2021-03-24T19:37:06Z</time>
      </trkpt>
      <trkpt lat="47.23802" lon="0.05393">
        <ele>30</ele>
        <time>2021-03-24T19:37:09Z</time>
      </trkpt>
      <trkpt lat="47.23812" lon="0.05401">
        <ele>30</ele>
        <time>2021-03-24T19:37:11Z</time>
      </trkpt>
      <trkpt lat="47.23825" lon="0.05411">
        <ele>30</ele>
        <time>2021-03-24T19:37:14Z</time>
      </trkpt>
      <trkpt lat="47.23832" lon="0.05417">
        <ele>30</ele>
        <time>2021-03-24T19:37:15Z</time>
      </trkpt>
      <trkpt lat="47.23842" lon="0.05424">
        <ele>30</ele>
        <time>2021-03-24T19:37:17Z</time>
      </trkpt>
      <trkpt lat="47.23855" lon="0.0543">
        <ele>30</ele>
        <time>2021-03-24T19:37:20Z</time>
      </trkpt>
      <trkpt lat="47.23862" lon="0.05434">
        <ele>30</ele>
        <time>2021-03-24T19:37:21Z</time>
      </trkpt>
      <trkpt lat="47.23874" lon="0.05442">
        <ele>30</ele>
        <time>2021-03-24T19:37:23Z</time>
      </trkpt>
      <trkpt lat="47.23908" lon="0.05456">
        <ele>29</ele>
        <time>2021-03-24T19:37:29Z</time>
      </trkpt>
      <trkpt lat="47.23959" lon="0.05479">
        <ele>29</ele>
        <time>2021-03-24T19:37:39Z</time>
      </trkpt>
      <trkpt lat="47.23982" lon="0.05489">
        <ele>29</ele>
        <time>2021-03-24T19:37:43Z</time>
      </trkpt>
      <trkpt lat="47.24058" lon="0.05524">
        <ele>28</ele>
        <time>2021-03-24T19:37:57Z</time>
      </trkpt>
      <trkpt lat="47.24066" lon="0.05527">
        <ele>28</ele>
        <time>2021-03-24T19:37:59Z</time>
      </trkpt>
      <trkpt lat="47.24073" lon="0.05529">
        <ele>27</ele>
        <time>2021-03-24T19:38:00Z</time>
      </trkpt>
      <trkpt lat="47.24078" lon="0.05531">
        <ele>27</ele>
        <time>2021-03-24T19:38:01Z</time>
      </trkpt>
      <trkpt lat="47.24084" lon="0.05533">
        <ele>27</ele>
        <time>2021-03-24T19:38:02Z</time>
      </trkpt>
      <trkpt lat="47.24089" lon="0.05534">
        <ele>27</ele>
        <time>2021-03-24T19:38:03Z</time>
      </trkpt>
      <trkpt lat="47.24095" lon="0.05536">
        <ele>27</ele>
        <time>2021-03-24T19:38:04Z</time>
      </trkpt>
      <trkpt lat="47.241" lon="0.05537">
        <ele>27</ele>
        <time>2021-03-24T19:38:05Z</time>
      </trkpt>
      <trkpt lat="47.24108" lon="0.05537">
        <ele>27</ele>
        <time>2021-03-24T19:38:06Z</time>
      </trkpt>
      <trkpt lat="47.24117" lon="0.05536">
        <ele>27</ele>
        <time>2021-03-24T19:38:08Z</time>
      </trkpt>
      <trkpt lat="47.24127" lon="0.05535">
        <ele>27</ele>
        <time>2021-03-24T19:38:10Z</time>
      </trkpt>
      <trkpt lat="47.24139" lon="0.05533">
        <ele>26</ele>
        <time>2021-03-24T19:38:12Z</time>
      </trkpt>
      <trkpt lat="47.24178" lon="0.05524">
        <ele>26</ele>
        <time>2021-03-24T19:38:19Z</time>
      </trkpt>
      <trkpt lat="47.24211" lon="0.05514">
        <ele>26</ele>
        <time>2021-03-24T19:38:25Z</time>
      </trkpt>
      <trkpt lat="47.2422" lon="0.05511">
        <ele>26</ele>
        <time>2021-03-24T19:38:27Z</time>
      </trkpt>
      <trkpt lat="47.24229" lon="0.05507">
        <ele>26</ele>
        <time>2021-03-24T19:38:28Z</time>
      </trkpt>
      <trkpt lat="47.24239" lon="0.055">
        <ele>26</ele>
        <time>2021-03-24T19:38:30Z</time>
      </trkpt>
      <trkpt lat="47.24269" lon="0.0548">
        <ele>26</ele>
        <time>2021-03-24T19:38:36Z</time>
      </trkpt>
      <trkpt lat="47.24275" lon="0.05476">
        <ele>26</ele>
        <time>2021-03-24T19:38:37Z</time>
      </trkpt>
      <trkpt lat="47.24295" lon="0.0546">
        <ele>26</ele>
        <time>2021-03-24T19:38:41Z</time>
      </trkpt>
      <trkpt lat="47.24348" lon="0.05419">
        <ele>26</ele>
        <time>2021-03-24T19:38:52Z</time>
      </trkpt>
      <trkpt lat="47.24361" lon="0.05409">
        <ele>26</ele>
        <time>2021-03-24T19:38:55Z</time>
      </trkpt>
      <trkpt lat="47.24371" lon="0.05401">
        <ele>26</ele>
        <time>2021-03-24T19:38:57Z</time>
      </trkpt>
      <trkpt lat="47.24395" lon="0.05383">
        <ele>27</ele>
        <time>2021-03-24T19:39:01Z</time>
      </trkpt>
      <trkpt lat="47.24412" lon="0.05372">
        <ele>27</ele>
        <time>2021-03-24T19:39:05Z</time>
      </trkpt>
      <trkpt lat="47.2442" lon="0.05367">
        <ele>27</ele>
        <time>2021-03-24T19:39:06Z</time>
      </trkpt>
      <trkpt lat="47.24426" lon="0.05365">
        <ele>27</ele>
        <time>2021-03-24T19:39:07Z</time>
      </trkpt>
      <trkpt lat="47.24437" lon="0.05361">
        <ele>27</ele>
        <time>2021-03-24T19:39:09Z</time>
      </trkpt>
      <trkpt lat="47.24449" lon="0.05357">
        <ele>27</ele>
        <time>2021-03-24T19:39:12Z</time>
      </trkpt>
      <trkpt lat="47.24487" lon="0.05348">
        <ele>26</ele>
        <time>2021-03-24T19:39:18Z</time>
      </trkpt>
      <trkpt lat="47.24515" lon="0.05342">
        <ele>26</ele>
        <time>2021-03-24T19:39:24Z</time>
      </trkpt>
      <trkpt lat="47.24528" lon="0.05337">
        <ele>26</ele>
        <time>2021-03-24T19:39:26Z</time>
      </trkpt>
      <trkpt lat="47.24551" lon="0.0533">
        <ele>26</ele>
        <time>2021-03-24T19:39:30Z</time>
      </trkpt>
      <trkpt lat="47.24583" lon="0.05317">
        <ele>26</ele>
        <time>2021-03-24T19:39:36Z</time>
      </trkpt>
      <trkpt lat="47.24647" lon="0.05285">
        <ele>25</ele>
        <time>2021-03-24T19:39:48Z</time>
      </trkpt>
      <trkpt lat="47.24667" lon="0.05275">
        <ele>25</ele>
        <time>2021-03-24T19:39:52Z</time>
      </trkpt>
      <trkpt lat="47.247" lon="0.05262">
        <ele>25</ele>
        <time>2021-03-24T19:39:58Z</time>
      </trkpt>
      <trkpt lat="47.24726" lon="0.05252">
        <ele>26</ele>
        <time>2021-03-24T19:40:03Z</time>
      </trkpt>
      <trkpt lat="47.24744" lon="0.05245">
        <ele>26</ele>
        <time>2021-03-24T19:40:06Z</time>
      </trkpt>
      <trkpt lat="47.24769" lon="0.05232">
        <ele>26</ele>
        <time>2021-03-24T19:40:11Z</time>
      </trkpt>
      <trkpt lat="47.24781" lon="0.05223">
        <ele>26</ele>
        <time>2021-03-24T19:40:13Z</time>
      </trkpt>
      <trkpt lat="47.24792" lon="0.05216">
        <ele>26</ele>
        <time>2021-03-24T19:40:15Z</time>
      </trkpt>
      <trkpt lat="47.24818" lon="0.05197">
        <ele>25</ele>
        <time>2021-03-24T19:40:20Z</time>
      </trkpt>
      <trkpt lat="47.24867" lon="0.0516">
        <ele>25</ele>
        <time>2021-03-24T19:40:30Z</time>
      </trkpt>
      <trkpt lat="47.24898" lon="0.0514">
        <ele>26</ele>
        <time>2021-03-24T19:40:36Z</time>
      </trkpt>
      <trkpt lat="47.24929" lon="0.05119">
        <ele>26</ele>
        <time>2021-03-24T19:40:42Z</time>
      </trkpt>
      <trkpt lat="47.24948" lon="0.05108">
        <ele>27</ele>
        <time>2021-03-24T19:40:46Z</time>
      </trkpt>
      <trkpt lat="47.25024" lon="0.05068">
        <ele>27</ele>
        <time>2021-03-24T19:41:00Z</time>
      </trkpt>
      <trkpt lat="47.25032" lon="0.05065">
        <ele>27</ele>
        <time>2021-03-24T19:41:02Z</time>
      </trkpt>
      <trkpt lat="47.25071" lon="0.05045">
        <ele>27</ele>
        <time>2021-03-24T19:41:09Z</time>
      </trkpt>
      <trkpt lat="47.25113" lon="0.05024">
        <ele>27</ele>
        <time>2021-03-24T19:41:17Z</time>
      </trkpt>
      <trkpt lat="47.25148" lon="0.05007">
        <ele>28</ele>
        <time>2021-03-24T19:41:23Z</time>
      </trkpt>
      <trkpt lat="47.25165" lon="0.05004">
        <ele>28</ele>
        <time>2021-03-24T19:41:27Z</time>
      </trkpt>
      <trkpt lat="47.25171" lon="0.05004">
        <ele>28</ele>
        <time>2021-03-24T19:41:28Z</time>
      </trkpt>
      <trkpt lat="47.25178" lon="0.05004">
        <ele>28</ele>
        <time>2021-03-24T19:41:29Z</time>
      </trkpt>
      <trkpt lat="47.2519" lon="0.05007">
        <ele>27</ele>
        <time>2021-03-24T19:41:31Z</time>
      </trkpt>
      <trkpt lat="47.25207" lon="0.05016">
        <ele>27</ele>
        <time>2021-03-24T19:41:34Z</time>
      </trkpt>
      <trkpt lat="47.25217" lon="0.05021">
        <ele>27</ele>
        <time>2021-03-24T19:41:36Z</time>
      </trkpt>
      <trkpt lat="47.25236" lon="0.05035">
        <ele>27</ele>
        <time>2021-03-24T19:41:40Z</time>
      </trkpt>
      <trkpt lat="47.25239" lon="0.05037">
        <ele>27</ele>
        <time>2021-03-24T19:41:40Z</time>
      </trkpt>
      <trkpt lat="47.25241" lon="0.05038">
        <ele>27</ele>
        <time>2021-03-24T19:41:41Z</time>
      </trkpt>
      <trkpt lat="47.25254" lon="0.05049">
        <ele>27</ele>
        <time>2021-03-24T19:41:44Z</time>
      </trkpt>
      <trkpt lat="47.25262" lon="0.05055">
        <ele>27</ele>
        <time>2021-03-24T19:41:45Z</time>
      </trkpt>
      <trkpt lat="47.25289" lon="0.05073">
        <ele>27</ele>
        <time>2021-03-24T19:41:50Z</time>
      </trkpt>
      <trkpt lat="47.25295" lon="0.05076">
        <ele>27</ele>
        <time>2021-03-24T19:41:52Z</time>
      </trkpt>
      <trkpt lat="47.25313" lon="0.05084">
        <ele>27</ele>
        <time>2021-03-24T19:41:55Z</time>
      </trkpt>
      <trkpt lat="47.25321" lon="0.05087">
        <ele>27</ele>
        <time>2021-03-24T19:41:56Z</time>
      </trkpt>
      <trkpt lat="47.25339" lon="0.05093">
        <ele>27</ele>
        <time>2021-03-24T19:42:00Z</time>
      </trkpt>
      <trkpt lat="47.25342" lon="0.05095">
        <ele>27</ele>
        <time>2021-03-24T19:42:00Z</time>
      </trkpt>
      <trkpt lat="47.25363" lon="0.051">
        <ele>27</ele>
        <time>2021-03-24T19:42:04Z</time>
      </trkpt>
      <trkpt lat="47.25392" lon="0.05107">
        <ele>26</ele>
        <time>2021-03-24T19:42:09Z</time>
      </trkpt>
      <trkpt lat="47.25404" lon="0.05111">
        <ele>26</ele>
        <time>2021-03-24T19:42:11Z</time>
      </trkpt>
      <trkpt lat="47.25445" lon="0.05126">
        <ele>27</ele>
        <time>2021-03-24T19:42:19Z</time>
      </trkpt>
      <trkpt lat="47.25455" lon="0.05131">
        <ele>27</ele>
        <time>2021-03-24T19:42:21Z</time>
      </trkpt>
      <trkpt lat="47.25467" lon="0.05136">
        <ele>27</ele>
        <time>2021-03-24T19:42:23Z</time>
      </trkpt>
      <trkpt lat="47.25481" lon="0.05141">
        <ele>28</ele>
        <time>2021-03-24T19:42:26Z</time>
      </trkpt>
      <trkpt lat="47.25488" lon="0.05142">
        <ele>28</ele>
        <time>2021-03-24T19:42:27Z</time>
      </trkpt>
      <trkpt lat="47.25495" lon="0.05143">
        <ele>28</ele>
        <time>2021-03-24T19:42:28Z</time>
      </trkpt>
      <trkpt lat="47.25503" lon="0.05144">
        <ele>28</ele>
        <time>2021-03-24T19:42:30Z</time>
      </trkpt>
      <trkpt lat="47.25521" lon="0.05148">
        <ele>28</ele>
        <time>2021-03-24T19:42:33Z</time>
      </trkpt>
      <trkpt lat="47.25539" lon="0.05153">
        <ele>28</ele>
        <time>2021-03-24T19:42:36Z</time>
      </trkpt>
      <trkpt lat="47.25546" lon="0.05155">
        <ele>28</ele>
        <time>2021-03-24T19:42:37Z</time>
      </trkpt>
      <trkpt lat="47.25574" lon="0.05165">
        <ele>28</ele>
        <time>2021-03-24T19:42:42Z</time>
      </trkpt>
      <trkpt lat="47.2563" lon="0.05186">
        <ele>26</ele>
        <time>2021-03-24T19:42:53Z</time>
      </trkpt>
      <trkpt lat="47.25653" lon="0.05195">
        <ele>26</ele>
        <time>2021-03-24T19:42:57Z</time>
      </trkpt>
      <trkpt lat="47.25662" lon="0.05198">
        <ele>26</ele>
        <time>2021-03-24T19:42:59Z</time>
      </trkpt>
      <trkpt lat="47.25707" lon="0.0521">
        <ele>26</ele>
        <time>2021-03-24T19:43:07Z</time>
      </trkpt>
      <trkpt lat="47.2577" lon="0.05227">
        <ele>26</ele>
        <time>2021-03-24T19:43:18Z</time>
      </trkpt>
      <trkpt lat="47.25792" lon="0.05234">
        <ele>26</ele>
        <time>2021-03-24T19:43:22Z</time>
      </trkpt>
      <trkpt lat="47.25803" lon="0.05238">
        <ele>26</ele>
        <time>2021-03-24T19:43:24Z</time>
      </trkpt>
      <trkpt lat="47.25818" lon="0.05246">
        <ele>26</ele>
        <time>2021-03-24T19:43:27Z</time>
      </trkpt>
      <trkpt lat="47.25842" lon="0.05261">
        <ele>26</ele>
        <time>2021-03-24T19:43:32Z</time>
      </trkpt>
      <trkpt lat="47.25852" lon="0.05268">
        <ele>26</ele>
        <time>2021-03-24T19:43:34Z</time>
      </trkpt>
      <trkpt lat="47.25861" lon="0.05274">
        <ele>26</ele>
        <time>2021-03-24T19:43:35Z</time>
      </trkpt>
      <trkpt lat="47.25871" lon="0.05282">
        <ele>26</ele>
        <time>2021-03-24T19:43:37Z</time>
      </trkpt>
      <trkpt lat="47.25881" lon="0.05289">
        <ele>26</ele>
        <time>2021-03-24T19:43:39Z</time>
      </trkpt>
      <trkpt lat="47.25888" lon="0.05294">
        <ele>26</ele>
        <time>2021-03-24T19:43:41Z</time>
      </trkpt>
      <trkpt lat="47.25895" lon="0.053">
        <ele>26</ele>
        <time>2021-03-24T19:43:42Z</time>
      </trkpt>
      <trkpt lat="47.25918" lon="0.05316">
        <ele>27</ele>
        <time>2021-03-24T19:43:47Z</time>
      </trkpt>
      <trkpt lat="47.25926" lon="0.05323">
        <ele>27</ele>
        <time>2021-03-24T19:43:48Z</time>
      </trkpt>
      <trkpt lat="47.25938" lon="0.05331">
        <ele>26</ele>
        <time>2021-03-24T19:43:51Z</time>
      </trkpt>
      <trkpt lat="47.25947" lon="0.05338">
        <ele>26</ele>
        <time>2021-03-24T19:43:52Z</time>
      </trkpt>
      <trkpt lat="47.25959" lon="0.05346">
        <ele>25</ele>
        <time>2021-03-24T19:43:55Z</time>
      </trkpt>
      <trkpt lat="47.25969" lon="0.05353">
        <ele>25</ele>
        <time>2021-03-24T19:43:57Z</time>
      </trkpt>
      <trkpt lat="47.25981" lon="0.05359">
        <ele>24</ele>
        <time>2021-03-24T19:43:59Z</time>
      </trkpt>
      <trkpt lat="47.25989" lon="0.05362">
        <ele>24</ele>
        <time>2021-03-24T19:44:01Z</time>
      </trkpt>
      <trkpt lat="47.26" lon="0.05366">
        <ele>24</ele>
        <time>2021-03-24T19:44:03Z</time>
      </trkpt>
      <trkpt lat="47.2601" lon="0.05368">
        <ele>24</ele>
        <time>2021-03-24T19:44:04Z</time>
      </trkpt>
      <trkpt lat="47.26021" lon="0.05369">
        <ele>24</ele>
        <time>2021-03-24T19:44:06Z</time>
      </trkpt>
      <trkpt lat="47.2603" lon="0.05369">
        <ele>24</ele>
        <time>2021-03-24T19:44:08Z</time>
      </trkpt>
      <trkpt lat="47.26045" lon="0.05369">
        <ele>24</ele>
        <time>2021-03-24T19:44:11Z</time>
      </trkpt>
      <trkpt lat="47.26058" lon="0.05369">
        <ele>24</ele>
        <time>2021-03-24T19:44:13Z</time>
      </trkpt>
      <trkpt lat="47.26097" lon="0.05365">
        <ele>25</ele>
        <time>2021-03-24T19:44:20Z</time>
      </trkpt>
      <trkpt lat="47.26134" lon="0.05363">
        <ele>26</ele>
        <time>2021-03-24T19:44:26Z</time>
      </trkpt>
      <trkpt lat="47.26145" lon="0.05363">
        <ele>26</ele>
        <time>2021-03-24T19:44:28Z</time>
      </trkpt>
      <trkpt lat="47.26157" lon="0.05365">
        <ele>27</ele>
        <time>2021-03-24T19:44:31Z</time>
      </trkpt>
      <trkpt lat="47.26169" lon="0.05369">
        <ele>27</ele>
        <time>2021-03-24T19:44:33Z</time>
      </trkpt>
      <trkpt lat="47.26178" lon="0.05373">
        <ele>27</ele>
        <time>2021-03-24T19:44:34Z</time>
      </trkpt>
      <trkpt lat="47.26187" lon="0.05377">
        <ele>27</ele>
        <time>2021-03-24T19:44:36Z</time>
      </trkpt>
      <trkpt lat="47.26199" lon="0.05384">
        <ele>27</ele>
        <time>2021-03-24T19:44:38Z</time>
      </trkpt>
      <trkpt lat="47.26211" lon="0.05391">
        <ele>28</ele>
        <time>2021-03-24T19:44:41Z</time>
      </trkpt>
      <trkpt lat="47.26232" lon="0.05405">
        <ele>28</ele>
        <time>2021-03-24T19:44:45Z</time>
      </trkpt>
      <trkpt lat="47.26261" lon="0.05424">
        <ele>28</ele>
        <time>2021-03-24T19:44:50Z</time>
      </trkpt>
      <trkpt lat="47.26276" lon="0.05433">
        <ele>27</ele>
        <time>2021-03-24T19:44:53Z</time>
      </trkpt>
      <trkpt lat="47.26292" lon="0.05441">
        <ele>27</ele>
        <time>2021-03-24T19:44:56Z</time>
      </trkpt>
      <trkpt lat="47.263" lon="0.05443">
        <ele>27</ele>
        <time>2021-03-24T19:44:58Z</time>
      </trkpt>
      <trkpt lat="47.26308" lon="0.05446">
        <ele>27</ele>
        <time>2021-03-24T19:44:59Z</time>
      </trkpt>
      <trkpt lat="47.26317" lon="0.05447">
        <ele>27</ele>
        <time>2021-03-24T19:45:01Z</time>
      </trkpt>
      <trkpt lat="47.26333" lon="0.05448">
        <ele>26</ele>
        <time>2021-03-24T19:45:04Z</time>
      </trkpt>
      <trkpt lat="47.26386" lon="0.05448">
        <ele>26</ele>
        <time>2021-03-24T19:45:13Z</time>
      </trkpt>
      <trkpt lat="47.26458" lon="0.05448">
        <ele>25</ele>
        <time>2021-03-24T19:45:26Z</time>
      </trkpt>
      <trkpt lat="47.26504" lon="0.05447">
        <ele>24</ele>
        <time>2021-03-24T19:45:34Z</time>
      </trkpt>
      <trkpt lat="47.26514" lon="0.05447">
        <ele>24</ele>
        <time>2021-03-24T19:45:36Z</time>
      </trkpt>
      <trkpt lat="47.26517" lon="0.05447">
        <ele>24</ele>
        <time>2021-03-24T19:45:36Z</time>
      </trkpt>
      <trkpt lat="47.2652" lon="0.05447">
        <ele>24</ele>
        <time>2021-03-24T19:45:37Z</time>
      </trkpt>
      <trkpt lat="47.26527" lon="0.05447">
        <ele>24</ele>
        <time>2021-03-24T19:45:38Z</time>
      </trkpt>
      <trkpt lat="47.2653" lon="0.05447">
        <ele>24</ele>
        <time>2021-03-24T19:45:39Z</time>
      </trkpt>
      <trkpt lat="47.26536" lon="0.05448">
        <ele>24</ele>
        <time>2021-03-24T19:45:40Z</time>
      </trkpt>
      <trkpt lat="47.26548" lon="0.05448">
        <ele>24</ele>
        <time>2021-03-24T19:45:42Z</time>
      </trkpt>
      <trkpt lat="47.26563" lon="0.05448">
        <ele>24</ele>
        <time>2021-03-24T19:45:45Z</time>
      </trkpt>
      <trkpt lat="47.26573" lon="0.05449">
        <ele>24</ele>
        <time>2021-03-24T19:45:46Z</time>
      </trkpt>
      <trkpt lat="47.26581" lon="0.05449">
        <ele>24</ele>
        <time>2021-03-24T19:45:48Z</time>
      </trkpt>
      <trkpt lat="47.26589" lon="0.05451">
        <ele>24</ele>
        <time>2021-03-24T19:45:49Z</time>
      </trkpt>
      <trkpt lat="47.26597" lon="0.05452">
        <ele>24</ele>
        <time>2021-03-24T19:45:51Z</time>
      </trkpt>
      <trkpt lat="47.26611" lon="0.05455">
        <ele>24</ele>
        <time>2021-03-24T19:45:53Z</time>
      </trkpt>
      <trkpt lat="47.26622" lon="0.05457">
        <ele>24</ele>
        <time>2021-03-24T19:45:55Z</time>
      </trkpt>
      <trkpt lat="47.26638" lon="0.0546">
        <ele>24</ele>
        <time>2021-03-24T19:45:58Z</time>
      </trkpt>
      <trkpt lat="47.26645" lon="0.05461">
        <ele>24</ele>
        <time>2021-03-24T19:45:59Z</time>
      </trkpt>
      <trkpt lat="47.26656" lon="0.05464">
        <ele>24</ele>
        <time>2021-03-24T19:46:01Z</time>
      </trkpt>
      <trkpt lat="47.26768" lon="0.0549">
        <ele>24</ele>
        <time>2021-03-24T19:46:21Z</time>
      </trkpt>
      <trkpt lat="47.26839" lon="0.05508">
        <ele>24</ele>
        <time>2021-03-24T19:46:34Z</time>
      </trkpt>
      <trkpt lat="47.26949" lon="0.05535">
        <ele>26</ele>
        <time>2021-03-24T19:46:54Z</time>
      </trkpt>
      <trkpt lat="47.26964" lon="0.05538">
        <ele>26</ele>
        <time>2021-03-24T19:46:57Z</time>
      </trkpt>
      <trkpt lat="47.27066" lon="0.0556">
        <ele>25</ele>
        <time>2021-03-24T19:47:15Z</time>
      </trkpt>
      <trkpt lat="47.27158" lon="0.05578">
        <ele>26</ele>
        <time>2021-03-24T19:47:32Z</time>
      </trkpt>
      <trkpt lat="47.27207" lon="0.05587">
        <ele>25</ele>
        <time>2021-03-24T19:47:40Z</time>
      </trkpt>
      <trkpt lat="47.2722" lon="0.0559">
        <ele>25</ele>
        <time>2021-03-24T19:47:43Z</time>
      </trkpt>
      <trkpt lat="47.27253" lon="0.05597">
        <ele>25</ele>
        <time>2021-03-24T19:47:49Z</time>
      </trkpt>
      <trkpt lat="47.27274" lon="0.05603">
        <ele>25</ele>
        <time>2021-03-24T19:47:53Z</time>
      </trkpt>
      <trkpt lat="47.27291" lon="0.05609">
        <ele>26</ele>
        <time>2021-03-24T19:47:56Z</time>
      </trkpt>
      <trkpt lat="47.27307" lon="0.05615">
        <ele>26</ele>
        <time>2021-03-24T19:47:59Z</time>
      </trkpt>
      <trkpt lat="47.27314" lon="0.05617">
        <ele>26</ele>
        <time>2021-03-24T19:48:00Z</time>
      </trkpt>
      <trkpt lat="47.27325" lon="0.05622">
        <ele>27</ele>
        <time>2021-03-24T19:48:02Z</time>
      </trkpt>
      <trkpt lat="47.2734" lon="0.05628">
        <ele>27</ele>
        <time>2021-03-24T19:48:05Z</time>
      </trkpt>
      <trkpt lat="47.27356" lon="0.05635">
        <ele>27</ele>
        <time>2021-03-24T19:48:08Z</time>
      </trkpt>
      <trkpt lat="47.27364" lon="0.0564">
        <ele>27</ele>
        <time>2021-03-24T19:48:09Z</time>
      </trkpt>
      <trkpt lat="47.27376" lon="0.05646">
        <ele>27</ele>
        <time>2021-03-24T19:48:11Z</time>
      </trkpt>
      <trkpt lat="47.27411" lon="0.05664">
        <ele>27</ele>
        <time>2021-03-24T19:48:18Z</time>
      </trkpt>
      <trkpt lat="47.27415" lon="0.05665">
        <ele>27</ele>
        <time>2021-03-24T19:48:19Z</time>
      </trkpt>
      <trkpt lat="47.27418" lon="0.05667">
        <ele>27</ele>
        <time>2021-03-24T19:48:19Z</time>
      </trkpt>
      <trkpt lat="47.27437" lon="0.05676">
        <ele>27</ele>
        <time>2021-03-24T19:48:23Z</time>
      </trkpt>
      <trkpt lat="47.27457" lon="0.05684">
        <ele>26</ele>
        <time>2021-03-24T19:48:27Z</time>
      </trkpt>
      <trkpt lat="47.27466" lon="0.05688">
        <ele>26</ele>
        <time>2021-03-24T19:48:28Z</time>
      </trkpt>
      <trkpt lat="47.2748" lon="0.05693">
        <ele>26</ele>
        <time>2021-03-24T19:48:31Z</time>
      </trkpt>
      <trkpt lat="47.27493" lon="0.05697">
        <ele>26</ele>
        <time>2021-03-24T19:48:33Z</time>
      </trkpt>
      <trkpt lat="47.27505" lon="0.05701">
        <ele>26</ele>
        <time>2021-03-24T19:48:35Z</time>
      </trkpt>
      <trkpt lat="47.2752" lon="0.05705">
        <ele>26</ele>
        <time>2021-03-24T19:48:38Z</time>
      </trkpt>
      <trkpt lat="47.27552" lon="0.05713">
        <ele>25</ele>
        <time>2021-03-24T19:48:44Z</time>
      </trkpt>
      <trkpt lat="47.27568" lon="0.05717">
        <ele>25</ele>
        <time>2021-03-24T19:48:47Z</time>
      </trkpt>
      <trkpt lat="47.27584" lon="0.0572">
        <ele>25</ele>
        <time>2021-03-24T19:48:50Z</time>
      </trkpt>
      <trkpt lat="47.27588" lon="0.05721">
        <ele>25</ele>
        <time>2021-03-24T19:48:50Z</time>
      </trkpt>
      <trkpt lat="47.27593" lon="0.05722">
        <ele>25</ele>
        <time>2021-03-24T19:48:51Z</time>
      </trkpt>
      <trkpt lat="47.27608" lon="0.05726">
        <ele>25</ele>
        <time>2021-03-24T19:48:54Z</time>
      </trkpt>
      <trkpt lat="47.2763" lon="0.0573">
        <ele>26</ele>
        <time>2021-03-24T19:48:58Z</time>
      </trkpt>
      <trkpt lat="47.27654" lon="0.05734">
        <ele>26</ele>
        <time>2021-03-24T19:49:02Z</time>
      </trkpt>
      <trkpt lat="47.27667" lon="0.05736">
        <ele>26</ele>
        <time>2021-03-24T19:49:04Z</time>
      </trkpt>
      <trkpt lat="47.2769" lon="0.05737">
        <ele>26</ele>
        <time>2021-03-24T19:49:09Z</time>
      </trkpt>
      <trkpt lat="47.27708" lon="0.05738">
        <ele>27</ele>
        <time>2021-03-24T19:49:12Z</time>
      </trkpt>
      <trkpt lat="47.27725" lon="0.05739">
        <ele>27</ele>
        <time>2021-03-24T19:49:15Z</time>
      </trkpt>
      <trkpt lat="47.27737" lon="0.05739">
        <ele>27</ele>
        <time>2021-03-24T19:49:17Z</time>
      </trkpt>
      <trkpt lat="47.27752" lon="0.05739">
        <ele>27</ele>
        <time>2021-03-24T19:49:20Z</time>
      </trkpt>
      <trkpt lat="47.27766" lon="0.05738">
        <ele>27</ele>
        <time>2021-03-24T19:49:22Z</time>
      </trkpt>
      <trkpt lat="47.27815" lon="0.05738">
        <ele>27</ele>
        <time>2021-03-24T19:49:31Z</time>
      </trkpt>
      <trkpt lat="47.27839" lon="0.0574">
        <ele>26</ele>
        <time>2021-03-24T19:49:35Z</time>
      </trkpt>
      <trkpt lat="47.27867" lon="0.05744">
        <ele>26</ele>
        <time>2021-03-24T19:49:40Z</time>
      </trkpt>
      <trkpt lat="47.2789" lon="0.05749">
        <ele>26</ele>
        <time>2021-03-24T19:49:44Z</time>
      </trkpt>
      <trkpt lat="47.27911" lon="0.05756">
        <ele>26</ele>
        <time>2021-03-24T19:49:48Z</time>
      </trkpt>
      <trkpt lat="47.27937" lon="0.05767">
        <ele>26</ele>
        <time>2021-03-24T19:49:53Z</time>
      </trkpt>
      <trkpt lat="47.27953" lon="0.05774">
        <ele>26</ele>
        <time>2021-03-24T19:49:56Z</time>
      </trkpt>
      <trkpt lat="47.2798" lon="0.05787">
        <ele>26</ele>
        <time>2021-03-24T19:50:01Z</time>
      </trkpt>
      <trkpt lat="47.2799" lon="0.05792">
        <ele>26</ele>
        <time>2021-03-24T19:50:03Z</time>
      </trkpt>
      <trkpt lat="47.28008" lon="0.05803">
        <ele>26</ele>
        <time>2021-03-24T19:50:06Z</time>
      </trkpt>
      <trkpt lat="47.28042" lon="0.05827">
        <ele>26</ele>
        <time>2021-03-24T19:50:13Z</time>
      </trkpt>
      <trkpt lat="47.28054" lon="0.05835">
        <ele>26</ele>
        <time>2021-03-24T19:50:15Z</time>
      </trkpt>
      <trkpt lat="47.28082" lon="0.05853">
        <ele>26</ele>
        <time>2021-03-24T19:50:21Z</time>
      </trkpt>
      <trkpt lat="47.28103" lon="0.05864">
        <ele>27</ele>
        <time>2021-03-24T19:50:25Z</time>
      </trkpt>
      <trkpt lat="47.28144" lon="0.05885">
        <ele>27</ele>
        <time>2021-03-24T19:50:32Z</time>
      </trkpt>
      <trkpt lat="47.28186" lon="0.05905">
        <ele>27</ele>
        <time>2021-03-24T19:50:40Z</time>
      </trkpt>
      <trkpt lat="47.282" lon="0.05912">
        <ele>26</ele>
        <time>2021-03-24T19:50:43Z</time>
      </trkpt>
      <trkpt lat="47.2822" lon="0.0592">
        <ele>26</ele>
        <time>2021-03-24T19:50:47Z</time>
      </trkpt>
      <trkpt lat="47.28244" lon="0.05928">
        <ele>25</ele>
        <time>2021-03-24T19:50:51Z</time>
      </trkpt>
      <trkpt lat="47.2827" lon="0.05935">
        <ele>25</ele>
        <time>2021-03-24T19:50:56Z</time>
      </trkpt>
      <trkpt lat="47.28302" lon="0.05944">
        <ele>26</ele>
        <time>2021-03-24T19:51:01Z</time>
      </trkpt>
      <trkpt lat="47.28356" lon="0.05961">
        <ele>26</ele>
        <time>2021-03-24T19:51:11Z</time>
      </trkpt>
      <trkpt lat="47.28433" lon="0.05979">
        <ele>26</ele>
        <time>2021-03-24T19:51:25Z</time>
      </trkpt>
      <trkpt lat="47.28439" lon="0.0598">
        <ele>26</ele>
        <time>2021-03-24T19:51:26Z</time>
      </trkpt>
      <trkpt lat="47.28451" lon="0.05982">
        <ele>26</ele>
        <time>2021-03-24T19:51:28Z</time>
      </trkpt>
      <trkpt lat="47.28468" lon="0.05982">
        <ele>26</ele>
        <time>2021-03-24T19:51:31Z</time>
      </trkpt>
      <trkpt lat="47.2848" lon="0.05981">
        <ele>27</ele>
        <time>2021-03-24T19:51:34Z</time>
      </trkpt>
      <trkpt lat="47.28493" lon="0.0598">
        <ele>27</ele>
        <time>2021-03-24T19:51:36Z</time>
      </trkpt>
      <trkpt lat="47.28506" lon="0.05977">
        <ele>27</ele>
        <time>2021-03-24T19:51:38Z</time>
      </trkpt>
      <trkpt lat="47.28518" lon="0.05974">
        <ele>27</ele>
        <time>2021-03-24T19:51:40Z</time>
      </trkpt>
      <trkpt lat="47.28527" lon="0.0597">
        <ele>27</ele>
        <time>2021-03-24T19:51:42Z</time>
      </trkpt>
      <trkpt lat="47.28535" lon="0.05966">
        <ele>27</ele>
        <time>2021-03-24T19:51:44Z</time>
      </trkpt>
      <trkpt lat="47.28546" lon="0.05961">
        <ele>27</ele>
        <time>2021-03-24T19:51:46Z</time>
      </trkpt>
      <trkpt lat="47.28565" lon="0.05958">
        <ele>27</ele>
        <time>2021-03-24T19:51:49Z</time>
      </trkpt>
      <trkpt lat="47.2857" lon="0.05958">
        <ele>27</ele>
        <time>2021-03-24T19:51:50Z</time>
      </trkpt>
      <trkpt lat="47.28574" lon="0.05958">
        <ele>27</ele>
        <time>2021-03-24T19:51:51Z</time>
      </trkpt>
      <trkpt lat="47.28579" lon="0.05959">
        <ele>27</ele>
        <time>2021-03-24T19:51:52Z</time>
      </trkpt>
      <trkpt lat="47.28583" lon="0.0596">
        <ele>28</ele>
        <time>2021-03-24T19:51:52Z</time>
      </trkpt>
      <trkpt lat="47.2859" lon="0.05962">
        <ele>28</ele>
        <time>2021-03-24T19:51:53Z</time>
      </trkpt>
      <trkpt lat="47.2859" lon="0.05962">
        <ele>28</ele>
        <time>2021-03-24T19:51:53Z</time>
      </trkpt>
      <trkpt lat="47.28593" lon="0.05963">
        <ele>28</ele>
        <time>2021-03-24T19:51:54Z</time>
      </trkpt>
      <trkpt lat="47.28595" lon="0.05952">
        <ele>28</ele>
        <time>2021-03-24T19:51:55Z</time>
      </trkpt>
      <trkpt lat="47.28599" lon="0.05931">
        <ele>28</ele>
        <time>2021-03-24T19:51:58Z</time>
      </trkpt>
      <trkpt lat="47.28603" lon="0.05909">
        <ele>28</ele>
        <time>2021-03-24T19:52:01Z</time>
      </trkpt>
      <trkpt lat="47.28603" lon="0.05909">
        <ele>28</ele>
        <time>2021-03-24T19:52:01Z</time>
      </trkpt>
      <trkpt lat="47.2861" lon="0.05912">
        <ele>28</ele>
        <time>2021-03-24T19:52:02Z</time>
      </trkpt>
      <trkpt lat="47.28617" lon="0.05914">
        <ele>28</ele>
        <time>2021-03-24T19:52:03Z</time>
      </trkpt>
      <trkpt lat="47.28623" lon="0.05913">
        <ele>28</ele>
        <time>2021-03-24T19:52:04Z</time>
      </trkpt>
      <trkpt lat="47.28629" lon="0.0591">
        <ele>29</ele>
        <time>2021-03-24T19:52:06Z</time>
      </trkpt>
      <trkpt lat="47.28634" lon="0.05908">
        <ele>29</ele>
        <time>2021-03-24T19:52:06Z</time>
      </trkpt>
      <trkpt lat="47.28638" lon="0.05905">
        <ele>29</ele>
        <time>2021-03-24T19:52:07Z</time>
      </trkpt>
      <trkpt lat="47.28654" lon="0.05894">
        <ele>30</ele>
        <time>2021-03-24T19:52:10Z</time>
      </trkpt>
      <trkpt lat="47.28681" lon="0.05875">
        <ele>31</ele>
        <time>2021-03-24T19:52:16Z</time>
      </trkpt>
      <trkpt lat="47.28698" lon="0.05864">
        <ele>31</ele>
        <time>2021-03-24T19:52:19Z</time>
      </trkpt>
      <trkpt lat="47.28716" lon="0.05854">
        <ele>32</ele>
        <time>2021-03-24T19:52:22Z</time>
      </trkpt>
      <trkpt lat="47.28737" lon="0.05845">
        <ele>33</ele>
        <time>2021-03-24T19:52:26Z</time>
      </trkpt>
      <trkpt lat="47.28759" lon="0.05839">
        <ele>33</ele>
        <time>2021-03-24T19:52:30Z</time>
      </trkpt>
      <trkpt lat="47.28774" lon="0.05836">
        <ele>34</ele>
        <time>2021-03-24T19:52:33Z</time>
      </trkpt>
      <trkpt lat="47.28792" lon="0.05833">
        <ele>34</ele>
        <time>2021-03-24T19:52:36Z</time>
      </trkpt>
      <trkpt lat="47.2881" lon="0.05832">
        <ele>34</ele>
        <time>2021-03-24T19:52:39Z</time>
      </trkpt>
      <trkpt lat="47.28826" lon="0.05832">
        <ele>35</ele>
        <time>2021-03-24T19:52:42Z</time>
      </trkpt>
      <trkpt lat="47.28841" lon="0.05834">
        <ele>35</ele>
        <time>2021-03-24T19:52:45Z</time>
      </trkpt>
      <trkpt lat="47.28862" lon="0.05836">
        <ele>36</ele>
        <time>2021-03-24T19:52:49Z</time>
      </trkpt>
      <trkpt lat="47.28907" lon="0.05842">
        <ele>38</ele>
        <time>2021-03-24T19:52:57Z</time>
      </trkpt>
      <trkpt lat="47.28942" lon="0.05847">
        <ele>38</ele>
        <time>2021-03-24T19:53:03Z</time>
      </trkpt>
      <trkpt lat="47.28954" lon="0.05849">
        <ele>38</ele>
        <time>2021-03-24T19:53:05Z</time>
      </trkpt>
      <trkpt lat="47.28964" lon="0.0585">
        <ele>39</ele>
        <time>2021-03-24T19:53:07Z</time>
      </trkpt>
      <trkpt lat="47.28992" lon="0.05854">
        <ele>39</ele>
        <time>2021-03-24T19:53:12Z</time>
      </trkpt>
      <trkpt lat="47.29006" lon="0.05856">
        <ele>39</ele>
        <time>2021-03-24T19:53:14Z</time>
      </trkpt>
      <trkpt lat="47.2902" lon="0.05857">
        <ele>40</ele>
        <time>2021-03-24T19:53:17Z</time>
      </trkpt>
      <trkpt lat="47.29032" lon="0.05858">
        <ele>40</ele>
        <time>2021-03-24T19:53:19Z</time>
      </trkpt>
      <trkpt lat="47.29044" lon="0.05857">
        <ele>40</ele>
        <time>2021-03-24T19:53:21Z</time>
      </trkpt>
      <trkpt lat="47.29054" lon="0.05855">
        <ele>40</ele>
        <time>2021-03-24T19:53:23Z</time>
      </trkpt>
      <trkpt lat="47.29067" lon="0.05853">
        <ele>41</ele>
        <time>2021-03-24T19:53:25Z</time>
      </trkpt>
      <trkpt lat="47.29091" lon="0.05848">
        <ele>41</ele>
        <time>2021-03-24T19:53:30Z</time>
      </trkpt>
      <trkpt lat="47.29108" lon="0.05846">
        <ele>41</ele>
        <time>2021-03-24T19:53:33Z</time>
      </trkpt>
      <trkpt lat="47.2912" lon="0.05845">
        <ele>42</ele>
        <time>2021-03-24T19:53:35Z</time>
      </trkpt>
      <trkpt lat="47.29131" lon="0.05845">
        <ele>42</ele>
        <time>2021-03-24T19:53:37Z</time>
      </trkpt>
      <trkpt lat="47.29138" lon="0.05846">
        <ele>42</ele>
        <time>2021-03-24T19:53:38Z</time>
      </trkpt>
      <trkpt lat="47.29144" lon="0.05848">
        <ele>42</ele>
        <time>2021-03-24T19:53:39Z</time>
      </trkpt>
      <trkpt lat="47.29156" lon="0.05852">
        <ele>42</ele>
        <time>2021-03-24T19:53:41Z</time>
      </trkpt>
      <trkpt lat="47.29168" lon="0.05856">
        <ele>43</ele>
        <time>2021-03-24T19:53:44Z</time>
      </trkpt>
      <trkpt lat="47.29176" lon="0.05859">
        <ele>43</ele>
        <time>2021-03-24T19:53:45Z</time>
      </trkpt>
      <trkpt lat="47.29189" lon="0.05866">
        <ele>43</ele>
        <time>2021-03-24T19:53:47Z</time>
      </trkpt>
      <trkpt lat="47.29204" lon="0.05874">
        <ele>43</ele>
        <time>2021-03-24T19:53:50Z</time>
      </trkpt>
      <trkpt lat="47.29239" lon="0.05892">
        <ele>42</ele>
        <time>2021-03-24T19:53:57Z</time>
      </trkpt>
      <trkpt lat="47.29371" lon="0.05966">
        <ele>42</ele>
        <time>2021-03-24T19:54:22Z</time>
      </trkpt>
      <trkpt lat="47.29377" lon="0.05969">
        <ele>42</ele>
        <time>2021-03-24T19:54:23Z</time>
      </trkpt>
      <trkpt lat="47.29485" lon="0.06026">
        <ele>44</ele>
        <time>2021-03-24T19:54:44Z</time>
      </trkpt>
      <trkpt lat="47.29581" lon="0.06079">
        <ele>47</ele>
        <time>2021-03-24T19:55:02Z</time>
      </trkpt>
      <trkpt lat="47.29718" lon="0.06151">
        <ele>43</ele>
        <time>2021-03-24T19:55:28Z</time>
      </trkpt>
      <trkpt lat="47.29727" lon="0.06158">
        <ele>44</ele>
        <time>2021-03-24T19:55:29Z</time>
      </trkpt>
      <trkpt lat="47.29728" lon="0.0616">
        <ele>44</ele>
        <time>2021-03-24T19:55:30Z</time>
      </trkpt>
      <trkpt lat="47.29744" lon="0.06167">
        <ele>44</ele>
        <time>2021-03-24T19:55:33Z</time>
      </trkpt>
      <trkpt lat="47.2976" lon="0.06176">
        <ele>44</ele>
        <time>2021-03-24T19:55:36Z</time>
      </trkpt>
      <trkpt lat="47.29831" lon="0.06215">
        <ele>42</ele>
        <time>2021-03-24T19:55:49Z</time>
      </trkpt>
      <trkpt lat="47.29893" lon="0.06248">
        <ele>43</ele>
        <time>2021-03-24T19:56:01Z</time>
      </trkpt>
      <trkpt lat="47.29962" lon="0.06284">
        <ele>44</ele>
        <time>2021-03-24T19:56:14Z</time>
      </trkpt>
      <trkpt lat="47.29971" lon="0.0629">
        <ele>44</ele>
        <time>2021-03-24T19:56:16Z</time>
      </trkpt>
      <trkpt lat="47.30058" lon="0.06337">
        <ele>44</ele>
        <time>2021-03-24T19:56:32Z</time>
      </trkpt>
      <trkpt lat="47.30122" lon="0.0637">
        <ele>43</ele>
        <time>2021-03-24T19:56:44Z</time>
      </trkpt>
      <trkpt lat="47.30125" lon="0.06371">
        <ele>43</ele>
        <time>2021-03-24T19:56:45Z</time>
      </trkpt>
      <trkpt lat="47.30139" lon="0.06378">
        <ele>43</ele>
        <time>2021-03-24T19:56:48Z</time>
      </trkpt>
      <trkpt lat="47.30146" lon="0.06382">
        <ele>43</ele>
        <time>2021-03-24T19:56:49Z</time>
      </trkpt>
      <trkpt lat="47.30152" lon="0.06386">
        <ele>43</ele>
        <time>2021-03-24T19:56:50Z</time>
      </trkpt>
      <trkpt lat="47.30163" lon="0.06395">
        <ele>43</ele>
        <time>2021-03-24T19:56:52Z</time>
      </trkpt>
      <trkpt lat="47.30179" lon="0.06412">
        <ele>43</ele>
        <time>2021-03-24T19:56:56Z</time>
      </trkpt>
      <trkpt lat="47.30191" lon="0.0643">
        <ele>43</ele>
        <time>2021-03-24T19:56:59Z</time>
      </trkpt>
      <trkpt lat="47.30196" lon="0.06438">
        <ele>43</ele>
        <time>2021-03-24T19:57:00Z</time>
      </trkpt>
      <trkpt lat="47.30201" lon="0.06449">
        <ele>44</ele>
        <time>2021-03-24T19:57:02Z</time>
      </trkpt>
      <trkpt lat="47.30207" lon="0.06459">
        <ele>44</ele>
        <time>2021-03-24T19:57:03Z</time>
      </trkpt>
      <trkpt lat="47.30212" lon="0.06471">
        <ele>44</ele>
        <time>2021-03-24T19:57:05Z</time>
      </trkpt>
      <trkpt lat="47.30218" lon="0.06483">
        <ele>44</ele>
        <time>2021-03-24T19:57:07Z</time>
      </trkpt>
      <trkpt lat="47.30222" lon="0.06494">
        <ele>44</ele>
        <time>2021-03-24T19:57:08Z</time>
      </trkpt>
      <trkpt lat="47.30229" lon="0.0651">
        <ele>44</ele>
        <time>2021-03-24T19:57:11Z</time>
      </trkpt>
      <trkpt lat="47.30233" lon="0.0652">
        <ele>44</ele>
        <time>2021-03-24T19:57:12Z</time>
      </trkpt>
      <trkpt lat="47.30234" lon="0.06524">
        <ele>44</ele>
        <time>2021-03-24T19:57:13Z</time>
      </trkpt>
      <trkpt lat="47.30236" lon="0.06532">
        <ele>44</ele>
        <time>2021-03-24T19:57:14Z</time>
      </trkpt>
      <trkpt lat="47.3024" lon="0.06545">
        <ele>45</ele>
        <time>2021-03-24T19:57:15Z</time>
      </trkpt>
      <trkpt lat="47.30243" lon="0.06557">
        <ele>45</ele>
        <time>2021-03-24T19:57:17Z</time>
      </trkpt>
      <trkpt lat="47.30243" lon="0.06557">
        <ele>45</ele>
        <time>2021-03-24T19:57:17Z</time>
      </trkpt>
      <trkpt lat="47.30249" lon="0.06563">
        <ele>45</ele>
        <time>2021-03-24T19:57:18Z</time>
      </trkpt>
      <trkpt lat="47.30255" lon="0.06565">
        <ele>45</ele>
        <time>2021-03-24T19:57:19Z</time>
      </trkpt>
      <trkpt lat="47.30268" lon="0.0657">
        <ele>45</ele>
        <time>2021-03-24T19:57:22Z</time>
      </trkpt>
      <trkpt lat="47.30274" lon="0.0657">
        <ele>45</ele>
        <time>2021-03-24T19:57:23Z</time>
      </trkpt>
      <trkpt lat="47.30326" lon="0.06584">
        <ele>45</ele>
        <time>2021-03-24T19:57:32Z</time>
      </trkpt>
      <trkpt lat="47.30334" lon="0.06586">
        <ele>45</ele>
        <time>2021-03-24T19:57:34Z</time>
      </trkpt>
      <trkpt lat="47.3036" lon="0.06592">
        <ele>45</ele>
        <time>2021-03-24T19:57:38Z</time>
      </trkpt>
      <trkpt lat="47.30397" lon="0.06602">
        <ele>45</ele>
        <time>2021-03-24T19:57:45Z</time>
      </trkpt>
      <trkpt lat="47.30466" lon="0.06618">
        <ele>46</ele>
        <time>2021-03-24T19:57:57Z</time>
      </trkpt>
      <trkpt lat="47.30517" lon="0.06631">
        <ele>46</ele>
        <time>2021-03-24T19:58:07Z</time>
      </trkpt>
      <trkpt lat="47.30531" lon="0.06634">
        <ele>46</ele>
        <time>2021-03-24T19:58:09Z</time>
      </trkpt>
      <trkpt lat="47.30546" lon="0.06637">
        <ele>46</ele>
        <time>2021-03-24T19:58:12Z</time>
      </trkpt>
      <trkpt lat="47.30559" lon="0.06641">
        <ele>46</ele>
        <time>2021-03-24T19:58:14Z</time>
      </trkpt>
      <trkpt lat="47.30572" lon="0.06646">
        <ele>46</ele>
        <time>2021-03-24T19:58:17Z</time>
      </trkpt>
      <trkpt lat="47.30603" lon="0.06662">
        <ele>46</ele>
        <time>2021-03-24T19:58:22Z</time>
      </trkpt>
      <trkpt lat="47.30605" lon="0.06663">
        <ele>46</ele>
        <time>2021-03-24T19:58:23Z</time>
      </trkpt>
      <trkpt lat="47.30628" lon="0.0668">
        <ele>46</ele>
        <time>2021-03-24T19:58:27Z</time>
      </trkpt>
      <trkpt lat="47.30643" lon="0.06693">
        <ele>46</ele>
        <time>2021-03-24T19:58:30Z</time>
      </trkpt>
      <trkpt lat="47.30656" lon="0.06705">
        <ele>46</ele>
        <time>2021-03-24T19:58:33Z</time>
      </trkpt>
      <trkpt lat="47.30677" lon="0.06726">
        <ele>45</ele>
        <time>2021-03-24T19:58:38Z</time>
      </trkpt>
      <trkpt lat="47.30734" lon="0.0679">
        <ele>43</ele>
        <time>2021-03-24T19:58:50Z</time>
      </trkpt>
      <trkpt lat="47.30739" lon="0.06795">
        <ele>43</ele>
        <time>2021-03-24T19:58:51Z</time>
      </trkpt>
      <trkpt lat="47.30768" lon="0.06827">
        <ele>43</ele>
        <time>2021-03-24T19:58:58Z</time>
      </trkpt>
      <trkpt lat="47.30778" lon="0.06837">
        <ele>44</ele>
        <time>2021-03-24T19:59:00Z</time>
      </trkpt>
      <trkpt lat="47.30799" lon="0.0686">
        <ele>44</ele>
        <time>2021-03-24T19:59:05Z</time>
      </trkpt>
      <trkpt lat="47.30821" lon="0.06884">
        <ele>45</ele>
        <time>2021-03-24T19:59:10Z</time>
      </trkpt>
      <trkpt lat="47.30825" lon="0.06888">
        <ele>45</ele>
        <time>2021-03-24T19:59:10Z</time>
      </trkpt>
      <trkpt lat="47.30839" lon="0.06904">
        <ele>46</ele>
        <time>2021-03-24T19:59:14Z</time>
      </trkpt>
      <trkpt lat="47.30866" lon="0.06937">
        <ele>46</ele>
        <time>2021-03-24T19:59:20Z</time>
      </trkpt>
      <trkpt lat="47.30889" lon="0.06965">
        <ele>47</ele>
        <time>2021-03-24T19:59:25Z</time>
      </trkpt>
      <trkpt lat="47.30908" lon="0.06993">
        <ele>47</ele>
        <time>2021-03-24T19:59:30Z</time>
      </trkpt>
      <trkpt lat="47.30909" lon="0.06994">
        <ele>47</ele>
        <time>2021-03-24T19:59:30Z</time>
      </trkpt>
      <trkpt lat="47.3095" lon="0.07052">
        <ele>46</ele>
        <time>2021-03-24T19:59:40Z</time>
      </trkpt>
      <trkpt lat="47.30997" lon="0.07115">
        <ele>46</ele>
        <time>2021-03-24T19:59:52Z</time>
      </trkpt>
      <trkpt lat="47.31005" lon="0.07126">
        <ele>46</ele>
        <time>2021-03-24T19:59:54Z</time>
      </trkpt>
      <trkpt lat="47.31041" lon="0.07174">
        <ele>46</ele>
        <time>2021-03-24T20:00:02Z</time>
      </trkpt>
      <trkpt lat="47.3105" lon="0.07184">
        <ele>46</ele>
        <time>2021-03-24T20:00:04Z</time>
      </trkpt>
      <trkpt lat="47.31077" lon="0.07208">
        <ele>47</ele>
        <time>2021-03-24T20:00:10Z</time>
      </trkpt>
      <trkpt lat="47.31132" lon="0.07254">
        <ele>48</ele>
        <time>2021-03-24T20:00:21Z</time>
      </trkpt>
      <trkpt lat="47.31168" lon="0.07283">
        <ele>48</ele>
        <time>2021-03-24T20:00:28Z</time>
      </trkpt>
      <trkpt lat="47.3131" lon="0.07396">
        <ele>54</ele>
        <time>2021-03-24T20:00:57Z</time>
      </trkpt>
      <trkpt lat="47.31375" lon="0.07448">
        <ele>55</ele>
        <time>2021-03-24T20:01:10Z</time>
      </trkpt>
      <trkpt lat="47.31452" lon="0.0751">
        <ele>56</ele>
        <time>2021-03-24T20:01:26Z</time>
      </trkpt>
      <trkpt lat="47.31576" lon="0.0761">
        <ele>56</ele>
        <time>2021-03-24T20:01:51Z</time>
      </trkpt>
      <trkpt lat="47.31606" lon="0.07634">
        <ele>57</ele>
        <time>2021-03-24T20:01:57Z</time>
      </trkpt>
      <trkpt lat="47.31633" lon="0.07654">
        <ele>58</ele>
        <time>2021-03-24T20:02:02Z</time>
      </trkpt>
      <trkpt lat="47.3173" lon="0.07713">
        <ele>60</ele>
        <time>2021-03-24T20:02:21Z</time>
      </trkpt>
      <trkpt lat="47.31777" lon="0.07736">
        <ele>62</ele>
        <time>2021-03-24T20:02:30Z</time>
      </trkpt>
      <trkpt lat="47.31849" lon="0.07764">
        <ele>64</ele>
        <time>2021-03-24T20:02:43Z</time>
      </trkpt>
      <trkpt lat="47.31866" lon="0.0777">
        <ele>65</ele>
        <time>2021-03-24T20:02:46Z</time>
      </trkpt>
      <trkpt lat="47.31891" lon="0.07775">
        <ele>66</ele>
        <time>2021-03-24T20:02:51Z</time>
      </trkpt>
      <trkpt lat="47.31923" lon="0.07779">
        <ele>68</ele>
        <time>2021-03-24T20:02:56Z</time>
      </trkpt>
      <trkpt lat="47.31942" lon="0.07779">
        <ele>68</ele>
        <time>2021-03-24T20:03:00Z</time>
      </trkpt>
      <trkpt lat="47.31962" lon="0.07777">
        <ele>69</ele>
        <time>2021-03-24T20:03:03Z</time>
      </trkpt>
      <trkpt lat="47.31979" lon="0.07776">
        <ele>69</ele>
        <time>2021-03-24T20:03:06Z</time>
      </trkpt>
      <trkpt lat="47.31995" lon="0.07775">
        <ele>70</ele>
        <time>2021-03-24T20:03:09Z</time>
      </trkpt>
      <trkpt lat="47.3201" lon="0.07771">
        <ele>70</ele>
        <time>2021-03-24T20:03:12Z</time>
      </trkpt>
      <trkpt lat="47.32023" lon="0.07768">
        <ele>70</ele>
        <time>2021-03-24T20:03:14Z</time>
      </trkpt>
      <trkpt lat="47.32032" lon="0.07766">
        <ele>70</ele>
        <time>2021-03-24T20:03:16Z</time>
      </trkpt>
      <trkpt lat="47.32036" lon="0.07765">
        <ele>70</ele>
        <time>2021-03-24T20:03:17Z</time>
      </trkpt>
      <trkpt lat="47.32048" lon="0.07762">
        <ele>71</ele>
        <time>2021-03-24T20:03:19Z</time>
      </trkpt>
      <trkpt lat="47.32061" lon="0.07758">
        <ele>71</ele>
        <time>2021-03-24T20:03:21Z</time>
      </trkpt>
      <trkpt lat="47.32074" lon="0.07753">
        <ele>72</ele>
        <time>2021-03-24T20:03:24Z</time>
      </trkpt>
      <trkpt lat="47.32088" lon="0.07747">
        <ele>72</ele>
        <time>2021-03-24T20:03:26Z</time>
      </trkpt>
      <trkpt lat="47.32102" lon="0.07741">
        <ele>72</ele>
        <time>2021-03-24T20:03:29Z</time>
      </trkpt>
      <trkpt lat="47.32127" lon="0.07729">
        <ele>72</ele>
        <time>2021-03-24T20:03:33Z</time>
      </trkpt>
      <trkpt lat="47.32151" lon="0.07709">
        <ele>72</ele>
        <time>2021-03-24T20:03:38Z</time>
      </trkpt>
      <trkpt lat="47.32205" lon="0.07667">
        <ele>72</ele>
        <time>2021-03-24T20:03:49Z</time>
      </trkpt>
      <trkpt lat="47.3224" lon="0.07638">
        <ele>74</ele>
        <time>2021-03-24T20:03:56Z</time>
      </trkpt>
      <trkpt lat="47.32273" lon="0.07606">
        <ele>75</ele>
        <time>2021-03-24T20:04:03Z</time>
      </trkpt>
      <trkpt lat="47.32334" lon="0.07531">
        <ele>72</ele>
        <time>2021-03-24T20:04:17Z</time>
      </trkpt>
      <trkpt lat="47.32419" lon="0.07415">
        <ele>74</ele>
        <time>2021-03-24T20:04:38Z</time>
      </trkpt>
      <trkpt lat="47.32421" lon="0.07412">
        <ele>74</ele>
        <time>2021-03-24T20:04:39Z</time>
      </trkpt>
      <trkpt lat="47.32456" lon="0.07363">
        <ele>77</ele>
        <time>2021-03-24T20:04:47Z</time>
      </trkpt>
      <trkpt lat="47.32497" lon="0.07315">
        <ele>79</ele>
        <time>2021-03-24T20:04:56Z</time>
      </trkpt>
      <trkpt lat="47.32509" lon="0.07302">
        <ele>79</ele>
        <time>2021-03-24T20:04:59Z</time>
      </trkpt>
      <trkpt lat="47.32517" lon="0.07294">
        <ele>80</ele>
        <time>2021-03-24T20:05:01Z</time>
      </trkpt>
      <trkpt lat="47.32527" lon="0.07287">
        <ele>81</ele>
        <time>2021-03-24T20:05:03Z</time>
      </trkpt>
      <trkpt lat="47.32537" lon="0.0728">
        <ele>81</ele>
        <time>2021-03-24T20:05:05Z</time>
      </trkpt>
      <trkpt lat="47.32546" lon="0.07274">
        <ele>82</ele>
        <time>2021-03-24T20:05:07Z</time>
      </trkpt>
      <trkpt lat="47.32558" lon="0.07268">
        <ele>82</ele>
        <time>2021-03-24T20:05:09Z</time>
      </trkpt>
      <trkpt lat="47.32607" lon="0.07248">
        <ele>83</ele>
        <time>2021-03-24T20:05:18Z</time>
      </trkpt>
      <trkpt lat="47.32619" lon="0.07244">
        <ele>83</ele>
        <time>2021-03-24T20:05:20Z</time>
      </trkpt>
      <trkpt lat="47.32704" lon="0.07214">
        <ele>81</ele>
        <time>2021-03-24T20:05:36Z</time>
      </trkpt>
      <trkpt lat="47.32709" lon="0.07213">
        <ele>81</ele>
        <time>2021-03-24T20:05:36Z</time>
      </trkpt>
      <trkpt lat="47.32769" lon="0.07189">
        <ele>80</ele>
        <time>2021-03-24T20:05:48Z</time>
      </trkpt>
      <trkpt lat="47.32828" lon="0.07174">
        <ele>79</ele>
        <time>2021-03-24T20:05:58Z</time>
      </trkpt>
      <trkpt lat="47.32835" lon="0.07172">
        <ele>79</ele>
        <time>2021-03-24T20:05:59Z</time>
      </trkpt>
      <trkpt lat="47.32856" lon="0.07168">
        <ele>80</ele>
        <time>2021-03-24T20:06:03Z</time>
      </trkpt>
      <trkpt lat="47.32884" lon="0.07163">
        <ele>81</ele>
        <time>2021-03-24T20:06:08Z</time>
      </trkpt>
      <trkpt lat="47.32891" lon="0.07162">
        <ele>81</ele>
        <time>2021-03-24T20:06:10Z</time>
      </trkpt>
      <trkpt lat="47.32957" lon="0.07155">
        <ele>85</ele>
        <time>2021-03-24T20:06:21Z</time>
      </trkpt>
      <trkpt lat="47.32966" lon="0.07153">
        <ele>85</ele>
        <time>2021-03-24T20:06:23Z</time>
      </trkpt>
      <trkpt lat="47.32977" lon="0.07151">
        <ele>86</ele>
        <time>2021-03-24T20:06:25Z</time>
      </trkpt>
      <trkpt lat="47.32988" lon="0.0715">
        <ele>86</ele>
        <time>2021-03-24T20:06:27Z</time>
      </trkpt>
      <trkpt lat="47.32998" lon="0.07149">
        <ele>87</ele>
        <time>2021-03-24T20:06:29Z</time>
      </trkpt>
      <trkpt lat="47.33007" lon="0.07148">
        <ele>87</ele>
        <time>2021-03-24T20:06:30Z</time>
      </trkpt>
      <trkpt lat="47.33016" lon="0.07147">
        <ele>88</ele>
        <time>2021-03-24T20:06:32Z</time>
      </trkpt>
      <trkpt lat="47.33037" lon="0.07148">
        <ele>88</ele>
        <time>2021-03-24T20:06:36Z</time>
      </trkpt>
      <trkpt lat="47.33045" lon="0.07148">
        <ele>89</ele>
        <time>2021-03-24T20:06:37Z</time>
      </trkpt>
      <trkpt lat="47.33056" lon="0.07149">
        <ele>89</ele>
        <time>2021-03-24T20:06:39Z</time>
      </trkpt>
      <trkpt lat="47.33066" lon="0.07151">
        <ele>89</ele>
        <time>2021-03-24T20:06:41Z</time>
      </trkpt>
      <trkpt lat="47.3307" lon="0.07152">
        <ele>89</ele>
        <time>2021-03-24T20:06:41Z</time>
      </trkpt>
      <trkpt lat="47.33075" lon="0.07153">
        <ele>89</ele>
        <time>2021-03-24T20:06:42Z</time>
      </trkpt>
      <trkpt lat="47.33085" lon="0.07157">
        <ele>89</ele>
        <time>2021-03-24T20:06:44Z</time>
      </trkpt>
      <trkpt lat="47.33095" lon="0.0716">
        <ele>89</ele>
        <time>2021-03-24T20:06:46Z</time>
      </trkpt>
      <trkpt lat="47.33107" lon="0.07164">
        <ele>89</ele>
        <time>2021-03-24T20:06:48Z</time>
      </trkpt>
      <trkpt lat="47.33117" lon="0.07167">
        <ele>89</ele>
        <time>2021-03-24T20:06:50Z</time>
      </trkpt>
      <trkpt lat="47.33119" lon="0.07168">
        <ele>89</ele>
        <time>2021-03-24T20:06:50Z</time>
      </trkpt>
      <trkpt lat="47.33127" lon="0.07171">
        <ele>89</ele>
        <time>2021-03-24T20:06:52Z</time>
      </trkpt>
      <trkpt lat="47.33139" lon="0.07175">
        <ele>89</ele>
        <time>2021-03-24T20:06:54Z</time>
      </trkpt>
      <trkpt lat="47.3315" lon="0.07179">
        <ele>89</ele>
        <time>2021-03-24T20:06:56Z</time>
      </trkpt>
      <trkpt lat="47.3316" lon="0.07182">
        <ele>89</ele>
        <time>2021-03-24T20:06:58Z</time>
      </trkpt>
      <trkpt lat="47.3318" lon="0.0719">
        <ele>90</ele>
        <time>2021-03-24T20:07:02Z</time>
      </trkpt>
      <trkpt lat="47.33184" lon="0.07192">
        <ele>90</ele>
        <time>2021-03-24T20:07:02Z</time>
      </trkpt>
      <trkpt lat="47.33187" lon="0.07193">
        <ele>90</ele>
        <time>2021-03-24T20:07:03Z</time>
      </trkpt>
      <trkpt lat="47.3319" lon="0.07194">
        <ele>90</ele>
        <time>2021-03-24T20:07:03Z</time>
      </trkpt>
      <trkpt lat="47.33194" lon="0.07196">
        <ele>90</ele>
        <time>2021-03-24T20:07:04Z</time>
      </trkpt>
      <trkpt lat="47.33197" lon="0.07197">
        <ele>91</ele>
        <time>2021-03-24T20:07:05Z</time>
      </trkpt>
      <trkpt lat="47.332" lon="0.07199">
        <ele>91</ele>
        <time>2021-03-24T20:07:05Z</time>
      </trkpt>
      <trkpt lat="47.33204" lon="0.07201">
        <ele>91</ele>
        <time>2021-03-24T20:07:06Z</time>
      </trkpt>
      <trkpt lat="47.33208" lon="0.07204">
        <ele>91</ele>
        <time>2021-03-24T20:07:07Z</time>
      </trkpt>
      <trkpt lat="47.33212" lon="0.07207">
        <ele>91</ele>
        <time>2021-03-24T20:07:08Z</time>
      </trkpt>
      <trkpt lat="47.33216" lon="0.0721">
        <ele>92</ele>
        <time>2021-03-24T20:07:08Z</time>
      </trkpt>
      <trkpt lat="47.3322" lon="0.07214">
        <ele>92</ele>
        <time>2021-03-24T20:07:09Z</time>
      </trkpt>
      <trkpt lat="47.33224" lon="0.07218">
        <ele>92</ele>
        <time>2021-03-24T20:07:10Z</time>
      </trkpt>
      <trkpt lat="47.33228" lon="0.07222">
        <ele>92</ele>
        <time>2021-03-24T20:07:11Z</time>
      </trkpt>
      <trkpt lat="47.33231" lon="0.07226">
        <ele>92</ele>
        <time>2021-03-24T20:07:12Z</time>
      </trkpt>
      <trkpt lat="47.33236" lon="0.07232">
        <ele>92</ele>
        <time>2021-03-24T20:07:13Z</time>
      </trkpt>
      <trkpt lat="47.33243" lon="0.07242">
        <ele>92</ele>
        <time>2021-03-24T20:07:15Z</time>
      </trkpt>
      <trkpt lat="47.33249" lon="0.07252">
        <ele>92</ele>
        <time>2021-03-24T20:07:16Z</time>
      </trkpt>
      <trkpt lat="47.33255" lon="0.07265">
        <ele>92</ele>
        <time>2021-03-24T20:07:18Z</time>
      </trkpt>
      <trkpt lat="47.33262" lon="0.07278">
        <ele>93</ele>
        <time>2021-03-24T20:07:20Z</time>
      </trkpt>
      <trkpt lat="47.33267" lon="0.0729">
        <ele>93</ele>
        <time>2021-03-24T20:07:22Z</time>
      </trkpt>
      <trkpt lat="47.33279" lon="0.07314">
        <ele>93</ele>
        <time>2021-03-24T20:07:25Z</time>
      </trkpt>
      <trkpt lat="47.33288" lon="0.07332">
        <ele>92</ele>
        <time>2021-03-24T20:07:28Z</time>
      </trkpt>
      <trkpt lat="47.33299" lon="0.07357">
        <ele>93</ele>
        <time>2021-03-24T20:07:32Z</time>
      </trkpt>
      <trkpt lat="47.3331" lon="0.0738">
        <ele>93</ele>
        <time>2021-03-24T20:07:35Z</time>
      </trkpt>
      <trkpt lat="47.33317" lon="0.07393">
        <ele>93</ele>
        <time>2021-03-24T20:07:37Z</time>
      </trkpt>
      <trkpt lat="47.33323" lon="0.07405">
        <ele>92</ele>
        <time>2021-03-24T20:07:39Z</time>
      </trkpt>
      <trkpt lat="47.33329" lon="0.07417">
        <ele>92</ele>
        <time>2021-03-24T20:07:41Z</time>
      </trkpt>
      <trkpt lat="47.33336" lon="0.07428">
        <ele>92</ele>
        <time>2021-03-24T20:07:43Z</time>
      </trkpt>
      <trkpt lat="47.33344" lon="0.07439">
        <ele>93</ele>
        <time>2021-03-24T20:07:45Z</time>
      </trkpt>
      <trkpt lat="47.33352" lon="0.07448">
        <ele>93</ele>
        <time>2021-03-24T20:07:46Z</time>
      </trkpt>
      <trkpt lat="47.3336" lon="0.07457">
        <ele>93</ele>
        <time>2021-03-24T20:07:48Z</time>
      </trkpt>
      <trkpt lat="47.33369" lon="0.07465">
        <ele>93</ele>
        <time>2021-03-24T20:07:50Z</time>
      </trkpt>
      <trkpt lat="47.33378" lon="0.07472">
        <ele>93</ele>
        <time>2021-03-24T20:07:52Z</time>
      </trkpt>
      <trkpt lat="47.33387" lon="0.07478">
        <ele>93</ele>
        <time>2021-03-24T20:07:54Z</time>
      </trkpt>
      <trkpt lat="47.33406" lon="0.07489">
        <ele>93</ele>
        <time>2021-03-24T20:07:57Z</time>
      </trkpt>
      <trkpt lat="47.33413" lon="0.07492">
        <ele>93</ele>
        <time>2021-03-24T20:07:58Z</time>
      </trkpt>
      <trkpt lat="47.33444" lon="0.07505">
        <ele>94</ele>
        <time>2021-03-24T20:08:04Z</time>
      </trkpt>
      <trkpt lat="47.33485" lon="0.07522">
        <ele>96</ele>
        <time>2021-03-24T20:08:12Z</time>
      </trkpt>
      <trkpt lat="47.33488" lon="0.07524">
        <ele>96</ele>
        <time>2021-03-24T20:08:12Z</time>
      </trkpt>
      <trkpt lat="47.335" lon="0.07529">
        <ele>97</ele>
        <time>2021-03-24T20:08:15Z</time>
      </trkpt>
      <trkpt lat="47.33515" lon="0.07534">
        <ele>97</ele>
        <time>2021-03-24T20:08:17Z</time>
      </trkpt>
      <trkpt lat="47.33533" lon="0.07542">
        <ele>98</ele>
        <time>2021-03-24T20:08:21Z</time>
      </trkpt>
      <trkpt lat="47.33556" lon="0.07552">
        <ele>98</ele>
        <time>2021-03-24T20:08:25Z</time>
      </trkpt>
      <trkpt lat="47.33572" lon="0.07559">
        <ele>98</ele>
        <time>2021-03-24T20:08:28Z</time>
      </trkpt>
      <trkpt lat="47.3359" lon="0.07567">
        <ele>99</ele>
        <time>2021-03-24T20:08:31Z</time>
      </trkpt>
      <trkpt lat="47.33607" lon="0.07574">
        <ele>99</ele>
        <time>2021-03-24T20:08:34Z</time>
      </trkpt>
      <trkpt lat="47.33623" lon="0.07581">
        <ele>99</ele>
        <time>2021-03-24T20:08:37Z</time>
      </trkpt>
      <trkpt lat="47.33636" lon="0.07587">
        <ele>99</ele>
        <time>2021-03-24T20:08:40Z</time>
      </trkpt>
      <trkpt lat="47.33665" lon="0.076">
        <ele>99</ele>
        <time>2021-03-24T20:08:45Z</time>
      </trkpt>
      <trkpt lat="47.33676" lon="0.07605">
        <ele>100</ele>
        <time>2021-03-24T20:08:47Z</time>
      </trkpt>
      <trkpt lat="47.3369" lon="0.07612">
        <ele>102</ele>
        <time>2021-03-24T20:08:50Z</time>
      </trkpt>
      <trkpt lat="47.33701" lon="0.07617">
        <ele>103</ele>
        <time>2021-03-24T20:08:52Z</time>
      </trkpt>
      <trkpt lat="47.3371" lon="0.07622">
        <ele>103</ele>
        <time>2021-03-24T20:08:54Z</time>
      </trkpt>
      <trkpt lat="47.33731" lon="0.07633">
        <ele>105</ele>
        <time>2021-03-24T20:08:58Z</time>
      </trkpt>
      <trkpt lat="47.33741" lon="0.07639">
        <ele>106</ele>
        <time>2021-03-24T20:08:59Z</time>
      </trkpt>
      <trkpt lat="47.33766" lon="0.07652">
        <ele>107</ele>
        <time>2021-03-24T20:09:04Z</time>
      </trkpt>
      <trkpt lat="47.33787" lon="0.07662">
        <ele>107</ele>
        <time>2021-03-24T20:09:08Z</time>
      </trkpt>
      <trkpt lat="47.33795" lon="0.07667">
        <ele>108</ele>
        <time>2021-03-24T20:09:10Z</time>
      </trkpt>
      <trkpt lat="47.338" lon="0.07669">
        <ele>108</ele>
        <time>2021-03-24T20:09:11Z</time>
      </trkpt>
      <trkpt lat="47.33809" lon="0.07674">
        <ele>108</ele>
        <time>2021-03-24T20:09:12Z</time>
      </trkpt>
      <trkpt lat="47.33826" lon="0.07681">
        <ele>108</ele>
        <time>2021-03-24T20:09:15Z</time>
      </trkpt>
      <trkpt lat="47.33857" lon="0.07694">
        <ele>107</ele>
        <time>2021-03-24T20:09:21Z</time>
      </trkpt>
      <trkpt lat="47.33868" lon="0.07698">
        <ele>107</ele>
        <time>2021-03-24T20:09:23Z</time>
      </trkpt>
      <trkpt lat="47.33879" lon="0.07701">
        <ele>107</ele>
        <time>2021-03-24T20:09:25Z</time>
      </trkpt>
      <trkpt lat="47.33887" lon="0.07704">
        <ele>107</ele>
        <time>2021-03-24T20:09:27Z</time>
      </trkpt>
      <trkpt lat="47.33896" lon="0.07707">
        <ele>107</ele>
        <time>2021-03-24T20:09:28Z</time>
      </trkpt>
      <trkpt lat="47.33906" lon="0.0771">
        <ele>107</ele>
        <time>2021-03-24T20:09:30Z</time>
      </trkpt>
      <trkpt lat="47.33912" lon="0.07712">
        <ele>106</ele>
        <time>2021-03-24T20:09:31Z</time>
      </trkpt>
      <trkpt lat="47.3392" lon="0.07714">
        <ele>106</ele>
        <time>2021-03-24T20:09:33Z</time>
      </trkpt>
      <trkpt lat="47.33926" lon="0.07716">
        <ele>106</ele>
        <time>2021-03-24T20:09:34Z</time>
      </trkpt>
      <trkpt lat="47.33939" lon="0.07721">
        <ele>106</ele>
        <time>2021-03-24T20:09:36Z</time>
      </trkpt>
      <trkpt lat="47.33946" lon="0.07723">
        <ele>106</ele>
        <time>2021-03-24T20:09:37Z</time>
      </trkpt>
      <trkpt lat="47.3395" lon="0.07725">
        <ele>106</ele>
        <time>2021-03-24T20:09:38Z</time>
      </trkpt>
      <trkpt lat="47.33959" lon="0.07727">
        <ele>107</ele>
        <time>2021-03-24T20:09:40Z</time>
      </trkpt>
      <trkpt lat="47.33972" lon="0.07731">
        <ele>107</ele>
        <time>2021-03-24T20:09:42Z</time>
      </trkpt>
      <trkpt lat="47.33981" lon="0.07733">
        <ele>107</ele>
        <time>2021-03-24T20:09:44Z</time>
      </trkpt>
      <trkpt lat="47.33986" lon="0.07734">
        <ele>107</ele>
        <time>2021-03-24T20:09:45Z</time>
      </trkpt>
      <trkpt lat="47.33991" lon="0.07733">
        <ele>107</ele>
        <time>2021-03-24T20:09:46Z</time>
      </trkpt>
      <trkpt lat="47.33995" lon="0.07732">
        <ele>107</ele>
        <time>2021-03-24T20:09:46Z</time>
      </trkpt>
      <trkpt lat="47.33998" lon="0.07731">
        <ele>107</ele>
        <time>2021-03-24T20:09:47Z</time>
      </trkpt>
      <trkpt lat="47.34001" lon="0.0773">
        <ele>107</ele>
        <time>2021-03-24T20:09:47Z</time>
      </trkpt>
      <trkpt lat="47.34005" lon="0.07727">
        <ele>107</ele>
        <time>2021-03-24T20:09:48Z</time>
      </trkpt>
      <trkpt lat="47.34009" lon="0.07724">
        <ele>107</ele>
        <time>2021-03-24T20:09:49Z</time>
      </trkpt>
      <trkpt lat="47.34017" lon="0.07719">
        <ele>107</ele>
        <time>2021-03-24T20:09:51Z</time>
      </trkpt>
      <trkpt lat="47.34022" lon="0.07714">
        <ele>107</ele>
        <time>2021-03-24T20:09:52Z</time>
      </trkpt>
      <trkpt lat="47.34026" lon="0.0771">
        <ele>107</ele>
        <time>2021-03-24T20:09:52Z</time>
      </trkpt>
      <trkpt lat="47.34031" lon="0.07706">
        <ele>107</ele>
        <time>2021-03-24T20:09:53Z</time>
      </trkpt>
      <trkpt lat="47.34036" lon="0.077">
        <ele>107</ele>
        <time>2021-03-24T20:09:55Z</time>
      </trkpt>
      <trkpt lat="47.34044" lon="0.07691">
        <ele>106</ele>
        <time>2021-03-24T20:09:56Z</time>
      </trkpt>
      <trkpt lat="47.34049" lon="0.07686">
        <ele>106</ele>
        <time>2021-03-24T20:09:57Z</time>
      </trkpt>
      <trkpt lat="47.34052" lon="0.07683">
        <ele>106</ele>
        <time>2021-03-24T20:09:58Z</time>
      </trkpt>
      <trkpt lat="47.34053" lon="0.07682">
        <ele>106</ele>
        <time>2021-03-24T20:09:58Z</time>
      </trkpt>
      <trkpt lat="47.34065" lon="0.07667">
        <ele>106</ele>
        <time>2021-03-24T20:10:01Z</time>
      </trkpt>
      <trkpt lat="47.34112" lon="0.07598">
        <ele>104</ele>
        <time>2021-03-24T20:10:13Z</time>
      </trkpt>
      <trkpt lat="47.34113" lon="0.07597">
        <ele>104</ele>
        <time>2021-03-24T20:10:13Z</time>
      </trkpt>
      <trkpt lat="47.3414" lon="0.0756">
        <ele>103</ele>
        <time>2021-03-24T20:10:20Z</time>
      </trkpt>
      <trkpt lat="47.34169" lon="0.0752">
        <ele>103</ele>
        <time>2021-03-24T20:10:27Z</time>
      </trkpt>
      <trkpt lat="47.34181" lon="0.07506">
        <ele>104</ele>
        <time>2021-03-24T20:10:29Z</time>
      </trkpt>
      <trkpt lat="47.34195" lon="0.07494">
        <ele>104</ele>
        <time>2021-03-24T20:10:32Z</time>
      </trkpt>
      <trkpt lat="47.34207" lon="0.07484">
        <ele>105</ele>
        <time>2021-03-24T20:10:35Z</time>
      </trkpt>
      <trkpt lat="47.34213" lon="0.0748">
        <ele>105</ele>
        <time>2021-03-24T20:10:36Z</time>
      </trkpt>
      <trkpt lat="47.34219" lon="0.07477">
        <ele>105</ele>
        <time>2021-03-24T20:10:37Z</time>
      </trkpt>
      <trkpt lat="47.34227" lon="0.07474">
        <ele>106</ele>
        <time>2021-03-24T20:10:39Z</time>
      </trkpt>
      <trkpt lat="47.34238" lon="0.07472">
        <ele>106</ele>
        <time>2021-03-24T20:10:41Z</time>
      </trkpt>
      <trkpt lat="47.34246" lon="0.07471">
        <ele>106</ele>
        <time>2021-03-24T20:10:42Z</time>
      </trkpt>
      <trkpt lat="47.34252" lon="0.07471">
        <ele>107</ele>
        <time>2021-03-24T20:10:43Z</time>
      </trkpt>
      <trkpt lat="47.34254" lon="0.0747">
        <ele>107</ele>
        <time>2021-03-24T20:10:43Z</time>
      </trkpt>
      <trkpt lat="47.34258" lon="0.07469">
        <ele>107</ele>
        <time>2021-03-24T20:10:44Z</time>
      </trkpt>
      <trkpt lat="47.34264" lon="0.0747">
        <ele>106</ele>
        <time>2021-03-24T20:10:45Z</time>
      </trkpt>
      <trkpt lat="47.34271" lon="0.07471">
        <ele>106</ele>
        <time>2021-03-24T20:10:46Z</time>
      </trkpt>
      <trkpt lat="47.34306" lon="0.0748">
        <ele>106</ele>
        <time>2021-03-24T20:10:53Z</time>
      </trkpt>
      <trkpt lat="47.34363" lon="0.07497">
        <ele>107</ele>
        <time>2021-03-24T20:11:03Z</time>
      </trkpt>
      <trkpt lat="47.3438" lon="0.07502">
        <ele>106</ele>
        <time>2021-03-24T20:11:06Z</time>
      </trkpt>
      <trkpt lat="47.34389" lon="0.07503">
        <ele>106</ele>
        <time>2021-03-24T20:11:08Z</time>
      </trkpt>
      <trkpt lat="47.34397" lon="0.07505">
        <ele>106</ele>
        <time>2021-03-24T20:11:09Z</time>
      </trkpt>
      <trkpt lat="47.34406" lon="0.07505">
        <ele>106</ele>
        <time>2021-03-24T20:11:11Z</time>
      </trkpt>
      <trkpt lat="47.34414" lon="0.07504">
        <ele>106</ele>
        <time>2021-03-24T20:11:12Z</time>
      </trkpt>
      <trkpt lat="47.34423" lon="0.07504">
        <ele>106</ele>
        <time>2021-03-24T20:11:14Z</time>
      </trkpt>
      <trkpt lat="47.34433" lon="0.07502">
        <ele>106</ele>
        <time>2021-03-24T20:11:16Z</time>
      </trkpt>
      <trkpt lat="47.34444" lon="0.075">
        <ele>107</ele>
        <time>2021-03-24T20:11:18Z</time>
      </trkpt>
      <trkpt lat="47.34506" lon="0.07488">
        <ele>108</ele>
        <time>2021-03-24T20:11:29Z</time>
      </trkpt>
      <trkpt lat="47.34604" lon="0.07466">
        <ele>112</ele>
        <time>2021-03-24T20:11:46Z</time>
      </trkpt>
      <trkpt lat="47.34694" lon="0.07447">
        <ele>110</ele>
        <time>2021-03-24T20:12:03Z</time>
      </trkpt>
      <trkpt lat="47.34696" lon="0.07446">
        <ele>110</ele>
        <time>2021-03-24T20:12:03Z</time>
      </trkpt>
      <trkpt lat="47.34701" lon="0.07445">
        <ele>110</ele>
        <time>2021-03-24T20:12:04Z</time>
      </trkpt>
      <trkpt lat="47.34818" lon="0.07422">
        <ele>107</ele>
        <time>2021-03-24T20:12:25Z</time>
      </trkpt>
      <trkpt lat="47.34929" lon="0.07398">
        <ele>105</ele>
        <time>2021-03-24T20:12:45Z</time>
      </trkpt>
      <trkpt lat="47.34948" lon="0.07395">
        <ele>105</ele>
        <time>2021-03-24T20:12:48Z</time>
      </trkpt>
      <trkpt lat="47.34956" lon="0.07394">
        <ele>104</ele>
        <time>2021-03-24T20:12:50Z</time>
      </trkpt>
      <trkpt lat="47.34965" lon="0.07395">
        <ele>104</ele>
        <time>2021-03-24T20:12:51Z</time>
      </trkpt>
      <trkpt lat="47.34973" lon="0.07396">
        <ele>103</ele>
        <time>2021-03-24T20:12:53Z</time>
      </trkpt>
      <trkpt lat="47.34979" lon="0.07396">
        <ele>103</ele>
        <time>2021-03-24T20:12:54Z</time>
      </trkpt>
      <trkpt lat="47.34988" lon="0.07399">
        <ele>103</ele>
        <time>2021-03-24T20:12:55Z</time>
      </trkpt>
      <trkpt lat="47.34998" lon="0.07402">
        <ele>103</ele>
        <time>2021-03-24T20:12:57Z</time>
      </trkpt>
      <trkpt lat="47.35007" lon="0.07406">
        <ele>103</ele>
        <time>2021-03-24T20:12:59Z</time>
      </trkpt>
      <trkpt lat="47.35018" lon="0.07411">
        <ele>103</ele>
        <time>2021-03-24T20:13:01Z</time>
      </trkpt>
      <trkpt lat="47.35047" lon="0.07426">
        <ele>104</ele>
        <time>2021-03-24T20:13:06Z</time>
      </trkpt>
      <trkpt lat="47.35089" lon="0.07448">
        <ele>105</ele>
        <time>2021-03-24T20:13:14Z</time>
      </trkpt>
      <trkpt lat="47.35122" lon="0.07465">
        <ele>108</ele>
        <time>2021-03-24T20:13:21Z</time>
      </trkpt>
      <trkpt lat="47.35162" lon="0.07486">
        <ele>111</ele>
        <time>2021-03-24T20:13:28Z</time>
      </trkpt>
      <trkpt lat="47.35217" lon="0.07516">
        <ele>111</ele>
        <time>2021-03-24T20:13:39Z</time>
      </trkpt>
      <trkpt lat="47.35266" lon="0.07539">
        <ele>109</ele>
        <time>2021-03-24T20:13:48Z</time>
      </trkpt>
      <trkpt lat="47.35339" lon="0.07574">
        <ele>102</ele>
        <time>2021-03-24T20:14:01Z</time>
      </trkpt>
      <trkpt lat="47.35388" lon="0.07599">
        <ele>98</ele>
        <time>2021-03-24T20:14:11Z</time>
      </trkpt>
      <trkpt lat="47.35463" lon="0.07637">
        <ele>93</ele>
        <time>2021-03-24T20:14:25Z</time>
      </trkpt>
      <trkpt lat="47.35555" lon="0.07683">
        <ele>91</ele>
        <time>2021-03-24T20:14:42Z</time>
      </trkpt>
      <trkpt lat="47.35639" lon="0.07725">
        <ele>91</ele>
        <time>2021-03-24T20:14:58Z</time>
      </trkpt>
      <trkpt lat="47.35698" lon="0.07754">
        <ele>90</ele>
        <time>2021-03-24T20:15:09Z</time>
      </trkpt>
      <trkpt lat="47.35727" lon="0.07769">
        <ele>90</ele>
        <time>2021-03-24T20:15:14Z</time>
      </trkpt>
      <trkpt lat="47.35746" lon="0.07779">
        <ele>90</ele>
        <time>2021-03-24T20:15:18Z</time>
      </trkpt>
      <trkpt lat="47.35782" lon="0.07798">
        <ele>90</ele>
        <time>2021-03-24T20:15:25Z</time>
      </trkpt>
      <trkpt lat="47.35815" lon="0.07815">
        <ele>89</ele>
        <time>2021-03-24T20:15:31Z</time>
      </trkpt>
      <trkpt lat="47.3584" lon="0.07828">
        <ele>89</ele>
        <time>2021-03-24T20:15:36Z</time>
      </trkpt>
      <trkpt lat="47.35876" lon="0.07847">
        <ele>93</ele>
        <time>2021-03-24T20:15:42Z</time>
      </trkpt>
      <trkpt lat="47.35901" lon="0.0786">
        <ele>94</ele>
        <time>2021-03-24T20:15:47Z</time>
      </trkpt>
      <trkpt lat="47.35918" lon="0.07867">
        <ele>96</ele>
        <time>2021-03-24T20:15:50Z</time>
      </trkpt>
      <trkpt lat="47.3594" lon="0.07879">
        <ele>97</ele>
        <time>2021-03-24T20:15:54Z</time>
      </trkpt>
      <trkpt lat="47.35988" lon="0.07902">
        <ele>98</ele>
        <time>2021-03-24T20:16:03Z</time>
      </trkpt>
      <trkpt lat="47.36018" lon="0.07912">
        <ele>98</ele>
        <time>2021-03-24T20:16:09Z</time>
      </trkpt>
      <trkpt lat="47.36036" lon="0.07917">
        <ele>99</ele>
        <time>2021-03-24T20:16:12Z</time>
      </trkpt>
      <trkpt lat="47.36074" lon="0.07925">
        <ele>101</ele>
        <time>2021-03-24T20:16:19Z</time>
      </trkpt>
      <trkpt lat="47.36077" lon="0.07925">
        <ele>102</ele>
        <time>2021-03-24T20:16:20Z</time>
      </trkpt>
      <trkpt lat="47.36122" lon="0.07938">
        <ele>105</ele>
        <time>2021-03-24T20:16:28Z</time>
      </trkpt>
      <trkpt lat="47.36189" lon="0.07954">
        <ele>108</ele>
        <time>2021-03-24T20:16:40Z</time>
      </trkpt>
      <trkpt lat="47.36231" lon="0.0796">
        <ele>105</ele>
        <time>2021-03-24T20:16:47Z</time>
      </trkpt>
      <trkpt lat="47.36271" lon="0.07969">
        <ele>104</ele>
        <time>2021-03-24T20:16:54Z</time>
      </trkpt>
      <trkpt lat="47.36333" lon="0.07982">
        <ele>105</ele>
        <time>2021-03-24T20:17:06Z</time>
      </trkpt>
      <trkpt lat="47.36406" lon="0.07998">
        <ele>106</ele>
        <time>2021-03-24T20:17:19Z</time>
      </trkpt>
      <trkpt lat="47.36529" lon="0.08027">
        <ele>106</ele>
        <time>2021-03-24T20:17:41Z</time>
      </trkpt>
      <trkpt lat="47.3658" lon="0.08039">
        <ele>108</ele>
        <time>2021-03-24T20:17:50Z</time>
      </trkpt>
      <trkpt lat="47.36626" lon="0.0805">
        <ele>109</ele>
        <time>2021-03-24T20:17:58Z</time>
      </trkpt>
      <trkpt lat="47.36668" lon="0.08058">
        <ele>109</ele>
        <time>2021-03-24T20:18:06Z</time>
      </trkpt>
      <trkpt lat="47.36671" lon="0.08058">
        <ele>109</ele>
        <time>2021-03-24T20:18:06Z</time>
      </trkpt>
      <trkpt lat="47.36694" lon="0.08063">
        <ele>110</ele>
        <time>2021-03-24T20:18:11Z</time>
      </trkpt>
      <trkpt lat="47.36727" lon="0.0807">
        <ele>111</ele>
        <time>2021-03-24T20:18:17Z</time>
      </trkpt>
      <trkpt lat="47.36775" lon="0.08075">
        <ele>111</ele>
        <time>2021-03-24T20:18:25Z</time>
      </trkpt>
      <trkpt lat="47.36784" lon="0.08076">
        <ele>111</ele>
        <time>2021-03-24T20:18:27Z</time>
      </trkpt>
      <trkpt lat="47.36819" lon="0.0808">
        <ele>111</ele>
        <time>2021-03-24T20:18:33Z</time>
      </trkpt>
      <trkpt lat="47.36894" lon="0.08088">
        <ele>111</ele>
        <time>2021-03-24T20:18:46Z</time>
      </trkpt>
      <trkpt lat="47.36994" lon="0.081">
        <ele>108</ele>
        <time>2021-03-24T20:19:04Z</time>
      </trkpt>
      <trkpt lat="47.37088" lon="0.0811">
        <ele>106</ele>
        <time>2021-03-24T20:19:21Z</time>
      </trkpt>
      <trkpt lat="47.37105" lon="0.08111">
        <ele>105</ele>
        <time>2021-03-24T20:19:24Z</time>
      </trkpt>
      <trkpt lat="47.37164" lon="0.08116">
        <ele>103</ele>
        <time>2021-03-24T20:19:34Z</time>
      </trkpt>
      <trkpt lat="47.37184" lon="0.08118">
        <ele>103</ele>
        <time>2021-03-24T20:19:38Z</time>
      </trkpt>
      <trkpt lat="47.37195" lon="0.08119">
        <ele>103</ele>
        <time>2021-03-24T20:19:40Z</time>
      </trkpt>
      <trkpt lat="47.37203" lon="0.08119">
        <ele>102</ele>
        <time>2021-03-24T20:19:41Z</time>
      </trkpt>
      <trkpt lat="47.3721" lon="0.08119">
        <ele>102</ele>
        <time>2021-03-24T20:19:43Z</time>
      </trkpt>
      <trkpt lat="47.37213" lon="0.0812">
        <ele>102</ele>
        <time>2021-03-24T20:19:43Z</time>
      </trkpt>
      <trkpt lat="47.3722" lon="0.08119">
        <ele>102</ele>
        <time>2021-03-24T20:19:44Z</time>
      </trkpt>
      <trkpt lat="47.37227" lon="0.08119">
        <ele>102</ele>
        <time>2021-03-24T20:19:46Z</time>
      </trkpt>
      <trkpt lat="47.37234" lon="0.08119">
        <ele>102</ele>
        <time>2021-03-24T20:19:47Z</time>
      </trkpt>
      <trkpt lat="47.37241" lon="0.08118">
        <ele>102</ele>
        <time>2021-03-24T20:19:48Z</time>
      </trkpt>
      <trkpt lat="47.37251" lon="0.08116">
        <ele>102</ele>
        <time>2021-03-24T20:19:50Z</time>
      </trkpt>
      <trkpt lat="47.37269" lon="0.08112">
        <ele>102</ele>
        <time>2021-03-24T20:19:53Z</time>
      </trkpt>
      <trkpt lat="47.3732" lon="0.08094">
        <ele>102</ele>
        <time>2021-03-24T20:20:03Z</time>
      </trkpt>
      <trkpt lat="47.3736" lon="0.0808">
        <ele>102</ele>
        <time>2021-03-24T20:20:10Z</time>
      </trkpt>
      <trkpt lat="47.37458" lon="0.08043">
        <ele>105</ele>
        <time>2021-03-24T20:20:28Z</time>
      </trkpt>
      <trkpt lat="47.37482" lon="0.08036">
        <ele>106</ele>
        <time>2021-03-24T20:20:32Z</time>
      </trkpt>
      <trkpt lat="47.37491" lon="0.08033">
        <ele>107</ele>
        <time>2021-03-24T20:20:34Z</time>
      </trkpt>
      <trkpt lat="47.37512" lon="0.08028">
        <ele>107</ele>
        <time>2021-03-24T20:20:38Z</time>
      </trkpt>
      <trkpt lat="47.37545" lon="0.08021">
        <ele>108</ele>
        <time>2021-03-24T20:20:44Z</time>
      </trkpt>
      <trkpt lat="47.376" lon="0.08018">
        <ele>108</ele>
        <time>2021-03-24T20:20:53Z</time>
      </trkpt>
      <trkpt lat="47.37616" lon="0.08018">
        <ele>108</ele>
        <time>2021-03-24T20:20:56Z</time>
      </trkpt>
      <trkpt lat="47.37705" lon="0.08018">
        <ele>107</ele>
        <time>2021-03-24T20:21:12Z</time>
      </trkpt>
      <trkpt lat="47.37838" lon="0.08015">
        <ele>110</ele>
        <time>2021-03-24T20:21:36Z</time>
      </trkpt>
      <trkpt lat="47.37988" lon="0.08014">
        <ele>103</ele>
        <time>2021-03-24T20:22:02Z</time>
      </trkpt>
      <trkpt lat="47.38055" lon="0.08013">
        <ele>102</ele>
        <time>2021-03-24T20:22:14Z</time>
      </trkpt>
      <trkpt lat="47.38079" lon="0.08013">
        <ele>102</ele>
        <time>2021-03-24T20:22:19Z</time>
      </trkpt>
      <trkpt lat="47.38115" lon="0.08011">
        <ele>100</ele>
        <time>2021-03-24T20:22:25Z</time>
      </trkpt>
      <trkpt lat="47.38127" lon="0.0801">
        <ele>99</ele>
        <time>2021-03-24T20:22:27Z</time>
      </trkpt>
      <trkpt lat="47.38148" lon="0.08007">
        <ele>97</ele>
        <time>2021-03-24T20:22:31Z</time>
      </trkpt>
      <trkpt lat="47.38182" lon="0.08001">
        <ele>95</ele>
        <time>2021-03-24T20:22:37Z</time>
      </trkpt>
      <trkpt lat="47.38299" lon="0.0798">
        <ele>89</ele>
        <time>2021-03-24T20:22:58Z</time>
      </trkpt>
      <trkpt lat="47.38301" lon="0.0798">
        <ele>89</ele>
        <time>2021-03-24T20:22:58Z</time>
      </trkpt>
      <trkpt lat="47.3841" lon="0.07962">
        <ele>79</ele>
        <time>2021-03-24T20:23:18Z</time>
      </trkpt>
      <trkpt lat="47.3842" lon="0.0796">
        <ele>78</ele>
        <time>2021-03-24T20:23:20Z</time>
      </trkpt>
      <trkpt lat="47.3843" lon="0.07958">
        <ele>78</ele>
        <time>2021-03-24T20:23:21Z</time>
      </trkpt>
      <trkpt lat="47.38438" lon="0.07957">
        <ele>77</ele>
        <time>2021-03-24T20:23:23Z</time>
      </trkpt>
      <trkpt lat="47.3844" lon="0.07957">
        <ele>77</ele>
        <time>2021-03-24T20:23:23Z</time>
      </trkpt>
      <trkpt lat="47.38449" lon="0.07956">
        <ele>77</ele>
        <time>2021-03-24T20:23:25Z</time>
      </trkpt>
      <trkpt lat="47.38458" lon="0.07956">
        <ele>76</ele>
        <time>2021-03-24T20:23:26Z</time>
      </trkpt>
      <trkpt lat="47.3847" lon="0.07956">
        <ele>75</ele>
        <time>2021-03-24T20:23:29Z</time>
      </trkpt>
      <trkpt lat="47.38482" lon="0.07956">
        <ele>75</ele>
        <time>2021-03-24T20:23:31Z</time>
      </trkpt>
      <trkpt lat="47.38493" lon="0.07957">
        <ele>74</ele>
        <time>2021-03-24T20:23:33Z</time>
      </trkpt>
      <trkpt lat="47.38506" lon="0.07958">
        <ele>73</ele>
        <time>2021-03-24T20:23:35Z</time>
      </trkpt>
      <trkpt lat="47.38517" lon="0.07958">
        <ele>73</ele>
        <time>2021-03-24T20:23:37Z</time>
      </trkpt>
      <trkpt lat="47.3853" lon="0.07958">
        <ele>72</ele>
        <time>2021-03-24T20:23:39Z</time>
      </trkpt>
      <trkpt lat="47.38575" lon="0.07961">
        <ele>70</ele>
        <time>2021-03-24T20:23:47Z</time>
      </trkpt>
      <trkpt lat="47.38575" lon="0.07961">
        <ele>70</ele>
        <time>2021-03-24T20:23:47Z</time>
      </trkpt>
      <trkpt lat="47.38574" lon="0.0799">
        <ele>70</ele>
        <time>2021-03-24T20:23:51Z</time>
      </trkpt>
      <trkpt lat="47.38572" lon="0.08046">
        <ele>70</ele>
        <time>2021-03-24T20:23:58Z</time>
      </trkpt>
      <trkpt lat="47.3857" lon="0.08156">
        <ele>68</ele>
        <time>2021-03-24T20:24:11Z</time>
      </trkpt>
      <trkpt lat="47.3857" lon="0.08156">
        <ele>68</ele>
        <time>2021-03-24T20:24:11Z</time>
      </trkpt>
      <trkpt lat="47.38618" lon="0.08108">
        <ele>68</ele>
        <time>2021-03-24T20:24:21Z</time>
      </trkpt>
      <trkpt lat="47.38675" lon="0.08052">
        <ele>67</ele>
        <time>2021-03-24T20:24:33Z</time>
      </trkpt>
      <trkpt lat="47.38711" lon="0.0802">
        <ele>67</ele>
        <time>2021-03-24T20:24:41Z</time>
      </trkpt>
      <trkpt lat="47.38722" lon="0.08014">
        <ele>67</ele>
        <time>2021-03-24T20:24:43Z</time>
      </trkpt>
      <trkpt lat="47.38722" lon="0.08014">
        <ele>67</ele>
        <time>2021-03-24T20:24:43Z</time>
      </trkpt>
      <trkpt lat="47.38721" lon="0.07997">
        <ele>67</ele>
        <time>2021-03-24T20:24:45Z</time>
      </trkpt>
      <trkpt lat="47.38721" lon="0.07997">
        <ele>67</ele>
        <time>2021-03-24T20:24:45Z</time>
      </trkpt>
      <trkpt lat="47.38737" lon="0.0801">
        <ele>66</ele>
        <time>2021-03-24T20:24:48Z</time>
      </trkpt>
      <trkpt lat="47.38754" lon="0.08021">
        <ele>66</ele>
        <time>2021-03-24T20:24:51Z</time>
      </trkpt>
      <trkpt lat="47.38758" lon="0.08024">
        <ele>66</ele>
        <time>2021-03-24T20:24:52Z</time>
      </trkpt>
      <trkpt lat="47.38762" lon="0.08026">
        <ele>66</ele>
        <time>2021-03-24T20:24:53Z</time>
      </trkpt>
      <trkpt lat="47.38777" lon="0.08038">
        <ele>66</ele>
        <time>2021-03-24T20:24:56Z</time>
      </trkpt>
      <trkpt lat="47.38806" lon="0.08061">
        <ele>65</ele>
        <time>2021-03-24T20:25:02Z</time>
      </trkpt>
      <trkpt lat="47.38813" lon="0.08068">
        <ele>65</ele>
        <time>2021-03-24T20:25:03Z</time>
      </trkpt>
      <trkpt lat="47.3882" lon="0.08075">
        <ele>64</ele>
        <time>2021-03-24T20:25:05Z</time>
      </trkpt>
      <trkpt lat="47.38827" lon="0.08083">
        <ele>64</ele>
        <time>2021-03-24T20:25:06Z</time>
      </trkpt>
      <trkpt lat="47.38833" lon="0.08089">
        <ele>64</ele>
        <time>2021-03-24T20:25:08Z</time>
      </trkpt>
      <trkpt lat="47.3884" lon="0.08097">
        <ele>64</ele>
        <time>2021-03-24T20:25:09Z</time>
      </trkpt>
      <trkpt lat="47.38847" lon="0.08105">
        <ele>64</ele>
        <time>2021-03-24T20:25:11Z</time>
      </trkpt>
      <trkpt lat="47.38854" lon="0.08112">
        <ele>64</ele>
        <time>2021-03-24T20:25:12Z</time>
      </trkpt>
      <trkpt lat="47.3886" lon="0.08118">
        <ele>64</ele>
        <time>2021-03-24T20:25:14Z</time>
      </trkpt>
      <trkpt lat="47.38865" lon="0.08123">
        <ele>64</ele>
        <time>2021-03-24T20:25:15Z</time>
      </trkpt>
      <trkpt lat="47.38871" lon="0.08128">
        <ele>64</ele>
        <time>2021-03-24T20:25:16Z</time>
      </trkpt>
      <trkpt lat="47.38877" lon="0.08133">
        <ele>64</ele>
        <time>2021-03-24T20:25:17Z</time>
      </trkpt>
      <trkpt lat="47.38881" lon="0.08137">
        <ele>64</ele>
        <time>2021-03-24T20:25:18Z</time>
      </trkpt>
      <trkpt lat="47.38885" lon="0.0814">
        <ele>64</ele>
        <time>2021-03-24T20:25:19Z</time>
      </trkpt>
      <trkpt lat="47.38887" lon="0.08143">
        <ele>64</ele>
        <time>2021-03-24T20:25:19Z</time>
      </trkpt>
      <trkpt lat="47.38889" lon="0.08146">
        <ele>64</ele>
        <time>2021-03-24T20:25:20Z</time>
      </trkpt>
      <trkpt lat="47.38889" lon="0.08146">
        <ele>64</ele>
        <time>2021-03-24T20:25:20Z</time>
      </trkpt>
      <trkpt lat="47.38905" lon="0.08146">
        <ele>64</ele>
        <time>2021-03-24T20:25:23Z</time>
      </trkpt>
      <trkpt lat="47.38915" lon="0.08148">
        <ele>64</ele>
        <time>2021-03-24T20:25:25Z</time>
      </trkpt>
      <trkpt lat="47.38922" lon="0.08148">
        <ele>63</ele>
        <time>2021-03-24T20:25:26Z</time>
      </trkpt>
      <trkpt lat="47.3893" lon="0.08149">
        <ele>63</ele>
        <time>2021-03-24T20:25:27Z</time>
      </trkpt>
      <trkpt lat="47.38937" lon="0.08149">
        <ele>63</ele>
        <time>2021-03-24T20:25:28Z</time>
      </trkpt>
      <trkpt lat="47.38942" lon="0.08149">
        <ele>63</ele>
        <time>2021-03-24T20:25:29Z</time>
      </trkpt>
      <trkpt lat="47.38946" lon="0.08148">
        <ele>62</ele>
        <time>2021-03-24T20:25:30Z</time>
      </trkpt>
      <trkpt lat="47.38954" lon="0.08146">
        <ele>62</ele>
        <time>2021-03-24T20:25:32Z</time>
      </trkpt>
      <trkpt lat="47.38963" lon="0.08142">
        <ele>62</ele>
        <time>2021-03-24T20:25:33Z</time>
      </trkpt>
      <trkpt lat="47.38972" lon="0.08139">
        <ele>61</ele>
        <time>2021-03-24T20:25:35Z</time>
      </trkpt>
      <trkpt lat="47.38975" lon="0.08138">
        <ele>61</ele>
        <time>2021-03-24T20:25:35Z</time>
      </trkpt>
      <trkpt lat="47.38979" lon="0.08138">
        <ele>61</ele>
        <time>2021-03-24T20:25:36Z</time>
      </trkpt>
      <trkpt lat="47.38995" lon="0.08136">
        <ele>60</ele>
        <time>2021-03-24T20:25:39Z</time>
      </trkpt>
      <trkpt lat="47.39004" lon="0.08134">
        <ele>60</ele>
        <time>2021-03-24T20:25:41Z</time>
      </trkpt>
      <trkpt lat="47.39005" lon="0.08134">
        <ele>60</ele>
        <time>2021-03-24T20:25:41Z</time>
      </trkpt>
      <trkpt lat="47.39009" lon="0.08133">
        <ele>60</ele>
        <time>2021-03-24T20:25:41Z</time>
      </trkpt>
      <trkpt lat="47.39016" lon="0.0813">
        <ele>60</ele>
        <time>2021-03-24T20:25:43Z</time>
      </trkpt>
      <trkpt lat="47.39022" lon="0.08128">
        <ele>60</ele>
        <time>2021-03-24T20:25:44Z</time>
      </trkpt>
      <trkpt lat="47.39023" lon="0.08127">
        <ele>60</ele>
        <time>2021-03-24T20:25:44Z</time>
      </trkpt>
      <trkpt lat="47.39028" lon="0.08124">
        <ele>60</ele>
        <time>2021-03-24T20:25:45Z</time>
      </trkpt>
      <trkpt lat="47.39036" lon="0.08119">
        <ele>60</ele>
        <time>2021-03-24T20:25:47Z</time>
      </trkpt>
      <trkpt lat="47.39043" lon="0.08114">
        <ele>60</ele>
        <time>2021-03-24T20:25:48Z</time>
      </trkpt>
      <trkpt lat="47.39052" lon="0.08108">
        <ele>60</ele>
        <time>2021-03-24T20:25:50Z</time>
      </trkpt>
      <trkpt lat="47.39061" lon="0.08102">
        <ele>60</ele>
        <time>2021-03-24T20:25:51Z</time>
      </trkpt>
      <trkpt lat="47.3907" lon="0.08095">
        <ele>60</ele>
        <time>2021-03-24T20:25:53Z</time>
      </trkpt>
      <trkpt lat="47.39103" lon="0.0807">
        <ele>60</ele>
        <time>2021-03-24T20:26:00Z</time>
      </trkpt>
      <trkpt lat="47.39156" lon="0.08028">
        <ele>60</ele>
        <time>2021-03-24T20:26:11Z</time>
      </trkpt>
      <trkpt lat="47.39158" lon="0.08026">
        <ele>60</ele>
        <time>2021-03-24T20:26:11Z</time>
      </trkpt>
      <trkpt lat="47.39197" lon="0.07997">
        <ele>60</ele>
        <time>2021-03-24T20:26:19Z</time>
      </trkpt>
      <trkpt lat="47.39231" lon="0.07973">
        <ele>60</ele>
        <time>2021-03-24T20:26:25Z</time>
      </trkpt>
      <trkpt lat="47.39244" lon="0.07964">
        <ele>60</ele>
        <time>2021-03-24T20:26:28Z</time>
      </trkpt>
      <trkpt lat="47.39247" lon="0.07962">
        <ele>60</ele>
        <time>2021-03-24T20:26:29Z</time>
      </trkpt>
      <trkpt lat="47.39252" lon="0.07959">
        <ele>59</ele>
        <time>2021-03-24T20:26:30Z</time>
      </trkpt>
      <trkpt lat="47.39261" lon="0.07954">
        <ele>59</ele>
        <time>2021-03-24T20:26:31Z</time>
      </trkpt>
      <trkpt lat="47.39269" lon="0.07951">
        <ele>59</ele>
        <time>2021-03-24T20:26:33Z</time>
      </trkpt>
      <trkpt lat="47.39279" lon="0.07947">
        <ele>59</ele>
        <time>2021-03-24T20:26:35Z</time>
      </trkpt>
      <trkpt lat="47.39287" lon="0.07944">
        <ele>59</ele>
        <time>2021-03-24T20:26:36Z</time>
      </trkpt>
      <trkpt lat="47.39298" lon="0.07941">
        <ele>59</ele>
        <time>2021-03-24T20:26:38Z</time>
      </trkpt>
      <trkpt lat="47.39307" lon="0.07939">
        <ele>59</ele>
        <time>2021-03-24T20:26:40Z</time>
      </trkpt>
      <trkpt lat="47.39317" lon="0.07937">
        <ele>59</ele>
        <time>2021-03-24T20:26:41Z</time>
      </trkpt>
      <trkpt lat="47.39331" lon="0.07935">
        <ele>59</ele>
        <time>2021-03-24T20:26:44Z</time>
      </trkpt>
      <trkpt lat="47.3936" lon="0.07933">
        <ele>58</ele>
        <time>2021-03-24T20:26:49Z</time>
      </trkpt>
      <trkpt lat="47.39411" lon="0.0793">
        <ele>57</ele>
        <time>2021-03-24T20:26:58Z</time>
      </trkpt>
      <trkpt lat="47.39508" lon="0.07923">
        <ele>57</ele>
        <time>2021-03-24T20:27:16Z</time>
      </trkpt>
      <trkpt lat="47.39576" lon="0.07918">
        <ele>58</ele>
        <time>2021-03-24T20:27:28Z</time>
      </trkpt>
      <trkpt lat="47.39657" lon="0.07912">
        <ele>58</ele>
        <time>2021-03-24T20:27:42Z</time>
      </trkpt>
      <trkpt lat="47.39745" lon="0.07904">
        <ele>57</ele>
        <time>2021-03-24T20:27:58Z</time>
      </trkpt>
      <trkpt lat="47.39807" lon="0.07898">
        <ele>58</ele>
        <time>2021-03-24T20:28:09Z</time>
      </trkpt>
      <trkpt lat="47.39843" lon="0.07895">
        <ele>59</ele>
        <time>2021-03-24T20:28:15Z</time>
      </trkpt>
      <trkpt lat="47.39856" lon="0.07893">
        <ele>59</ele>
        <time>2021-03-24T20:28:18Z</time>
      </trkpt>
      <trkpt lat="47.39867" lon="0.07892">
        <ele>60</ele>
        <time>2021-03-24T20:28:20Z</time>
      </trkpt>
      <trkpt lat="47.39876" lon="0.0789">
        <ele>60</ele>
        <time>2021-03-24T20:28:21Z</time>
      </trkpt>
      <trkpt lat="47.39886" lon="0.07889">
        <ele>60</ele>
        <time>2021-03-24T20:28:23Z</time>
      </trkpt>
      <trkpt lat="47.39893" lon="0.07887">
        <ele>60</ele>
        <time>2021-03-24T20:28:24Z</time>
      </trkpt>
      <trkpt lat="47.399" lon="0.07885">
        <ele>60</ele>
        <time>2021-03-24T20:28:25Z</time>
      </trkpt>
      <trkpt lat="47.39908" lon="0.07881">
        <ele>60</ele>
        <time>2021-03-24T20:28:27Z</time>
      </trkpt>
      <trkpt lat="47.39916" lon="0.07876">
        <ele>61</ele>
        <time>2021-03-24T20:28:28Z</time>
      </trkpt>
      <trkpt lat="47.39929" lon="0.07867">
        <ele>61</ele>
        <time>2021-03-24T20:28:31Z</time>
      </trkpt>
      <trkpt lat="47.39982" lon="0.07824">
        <ele>64</ele>
        <time>2021-03-24T20:28:42Z</time>
      </trkpt>
      <trkpt lat="47.4004" lon="0.07777">
        <ele>67</ele>
        <time>2021-03-24T20:28:54Z</time>
      </trkpt>
      <trkpt lat="47.40103" lon="0.07724">
        <ele>70</ele>
        <time>2021-03-24T20:29:06Z</time>
      </trkpt>
      <trkpt lat="47.40108" lon="0.07719">
        <ele>69</ele>
        <time>2021-03-24T20:29:08Z</time>
      </trkpt>
      <trkpt lat="47.40112" lon="0.07715">
        <ele>69</ele>
        <time>2021-03-24T20:29:08Z</time>
      </trkpt>
      <trkpt lat="47.40117" lon="0.07713">
        <ele>69</ele>
        <time>2021-03-24T20:29:09Z</time>
      </trkpt>
      <trkpt lat="47.4012" lon="0.07712">
        <ele>69</ele>
        <time>2021-03-24T20:29:10Z</time>
      </trkpt>
      <trkpt lat="47.40123" lon="0.07711">
        <ele>69</ele>
        <time>2021-03-24T20:29:10Z</time>
      </trkpt>
      <trkpt lat="47.40126" lon="0.0771">
        <ele>69</ele>
        <time>2021-03-24T20:29:11Z</time>
      </trkpt>
      <trkpt lat="47.40128" lon="0.07709">
        <ele>69</ele>
        <time>2021-03-24T20:29:11Z</time>
      </trkpt>
      <trkpt lat="47.40131" lon="0.07709">
        <ele>69</ele>
        <time>2021-03-24T20:29:12Z</time>
      </trkpt>
      <trkpt lat="47.40139" lon="0.07708">
        <ele>69</ele>
        <time>2021-03-24T20:29:13Z</time>
      </trkpt>
      <trkpt lat="47.40146" lon="0.07707">
        <ele>69</ele>
        <time>2021-03-24T20:29:15Z</time>
      </trkpt>
      <trkpt lat="47.40153" lon="0.07707">
        <ele>68</ele>
        <time>2021-03-24T20:29:16Z</time>
      </trkpt>
      <trkpt lat="47.40162" lon="0.07706">
        <ele>68</ele>
        <time>2021-03-24T20:29:17Z</time>
      </trkpt>
      <trkpt lat="47.40168" lon="0.07706">
        <ele>68</ele>
        <time>2021-03-24T20:29:18Z</time>
      </trkpt>
      <trkpt lat="47.40178" lon="0.07706">
        <ele>68</ele>
        <time>2021-03-24T20:29:20Z</time>
      </trkpt>
      <trkpt lat="47.40186" lon="0.07705">
        <ele>68</ele>
        <time>2021-03-24T20:29:22Z</time>
      </trkpt>
      <trkpt lat="47.40194" lon="0.07705">
        <ele>68</ele>
        <time>2021-03-24T20:29:23Z</time>
      </trkpt>
      <trkpt lat="47.40206" lon="0.07704">
        <ele>68</ele>
        <time>2021-03-24T20:29:25Z</time>
      </trkpt>
      <trkpt lat="47.40223" lon="0.07703">
        <ele>68</ele>
        <time>2021-03-24T20:29:28Z</time>
      </trkpt>
      <trkpt lat="47.40263" lon="0.07702">
        <ele>66</ele>
        <time>2021-03-24T20:29:35Z</time>
      </trkpt>
      <trkpt lat="47.40306" lon="0.07699">
        <ele>61</ele>
        <time>2021-03-24T20:29:43Z</time>
      </trkpt>
      <trkpt lat="47.40336" lon="0.07698">
        <ele>58</ele>
        <time>2021-03-24T20:29:48Z</time>
      </trkpt>
      <trkpt lat="47.40357" lon="0.07698">
        <ele>57</ele>
        <time>2021-03-24T20:29:52Z</time>
      </trkpt>
      <trkpt lat="47.40365" lon="0.07699">
        <ele>56</ele>
        <time>2021-03-24T20:29:54Z</time>
      </trkpt>
      <trkpt lat="47.40378" lon="0.077">
        <ele>56</ele>
        <time>2021-03-24T20:29:56Z</time>
      </trkpt>
      <trkpt lat="47.40398" lon="0.07704">
        <ele>55</ele>
        <time>2021-03-24T20:29:59Z</time>
      </trkpt>
      <trkpt lat="47.40441" lon="0.07714">
        <ele>53</ele>
        <time>2021-03-24T20:30:07Z</time>
      </trkpt>
      <trkpt lat="47.40503" lon="0.07729">
        <ele>54</ele>
        <time>2021-03-24T20:30:18Z</time>
      </trkpt>
      <trkpt lat="47.40544" lon="0.07739">
        <ele>52</ele>
        <time>2021-03-24T20:30:26Z</time>
      </trkpt>
      <trkpt lat="47.40554" lon="0.07741">
        <ele>52</ele>
        <time>2021-03-24T20:30:28Z</time>
      </trkpt>
      <trkpt lat="47.40556" lon="0.07742">
        <ele>52</ele>
        <time>2021-03-24T20:30:28Z</time>
      </trkpt>
      <trkpt lat="47.40568" lon="0.07744">
        <ele>51</ele>
        <time>2021-03-24T20:30:30Z</time>
      </trkpt>
      <trkpt lat="47.40574" lon="0.07744">
        <ele>51</ele>
        <time>2021-03-24T20:30:31Z</time>
      </trkpt>
      <trkpt lat="47.40578" lon="0.07744">
        <ele>51</ele>
        <time>2021-03-24T20:30:32Z</time>
      </trkpt>
      <trkpt lat="47.40582" lon="0.07744">
        <ele>51</ele>
        <time>2021-03-24T20:30:33Z</time>
      </trkpt>
      <trkpt lat="47.40588" lon="0.07744">
        <ele>51</ele>
        <time>2021-03-24T20:30:34Z</time>
      </trkpt>
      <trkpt lat="47.40595" lon="0.07744">
        <ele>51</ele>
        <time>2021-03-24T20:30:35Z</time>
      </trkpt>
      <trkpt lat="47.40607" lon="0.07743">
        <ele>51</ele>
        <time>2021-03-24T20:30:37Z</time>
      </trkpt>
      <trkpt lat="47.40617" lon="0.07742">
        <ele>52</ele>
        <time>2021-03-24T20:30:39Z</time>
      </trkpt>
      <trkpt lat="47.40631" lon="0.07741">
        <ele>52</ele>
        <time>2021-03-24T20:30:41Z</time>
      </trkpt>
      <trkpt lat="47.40642" lon="0.0774">
        <ele>52</ele>
        <time>2021-03-24T20:30:43Z</time>
      </trkpt>
      <trkpt lat="47.40657" lon="0.07739">
        <ele>53</ele>
        <time>2021-03-24T20:30:46Z</time>
      </trkpt>
      <trkpt lat="47.40672" lon="0.07739">
        <ele>53</ele>
        <time>2021-03-24T20:30:49Z</time>
      </trkpt>
      <trkpt lat="47.40681" lon="0.07738">
        <ele>53</ele>
        <time>2021-03-24T20:30:50Z</time>
      </trkpt>
      <trkpt lat="47.40689" lon="0.07738">
        <ele>53</ele>
        <time>2021-03-24T20:30:52Z</time>
      </trkpt>
      <trkpt lat="47.40694" lon="0.07738">
        <ele>53</ele>
        <time>2021-03-24T20:30:53Z</time>
      </trkpt>
      <trkpt lat="47.407" lon="0.07738">
        <ele>53</ele>
        <time>2021-03-24T20:30:54Z</time>
      </trkpt>
      <trkpt lat="47.40703" lon="0.07738">
        <ele>53</ele>
        <time>2021-03-24T20:30:54Z</time>
      </trkpt>
      <trkpt lat="47.40707" lon="0.07738">
        <ele>53</ele>
        <time>2021-03-24T20:30:55Z</time>
      </trkpt>
      <trkpt lat="47.40712" lon="0.07738">
        <ele>53</ele>
        <time>2021-03-24T20:30:56Z</time>
      </trkpt>
      <trkpt lat="47.40715" lon="0.07738">
        <ele>53</ele>
        <time>2021-03-24T20:30:56Z</time>
      </trkpt>
      <trkpt lat="47.40718" lon="0.07739">
        <ele>53</ele>
        <time>2021-03-24T20:30:57Z</time>
      </trkpt>
      <trkpt lat="47.40722" lon="0.0774">
        <ele>53</ele>
        <time>2021-03-24T20:30:58Z</time>
      </trkpt>
      <trkpt lat="47.40726" lon="0.07741">
        <ele>53</ele>
        <time>2021-03-24T20:30:58Z</time>
      </trkpt>
      <trkpt lat="47.40731" lon="0.07743">
        <ele>53</ele>
        <time>2021-03-24T20:30:59Z</time>
      </trkpt>
      <trkpt lat="47.40735" lon="0.07745">
        <ele>53</ele>
        <time>2021-03-24T20:31:00Z</time>
      </trkpt>
      <trkpt lat="47.40739" lon="0.07747">
        <ele>53</ele>
        <time>2021-03-24T20:31:01Z</time>
      </trkpt>
      <trkpt lat="47.40744" lon="0.0775">
        <ele>53</ele>
        <time>2021-03-24T20:31:02Z</time>
      </trkpt>
      <trkpt lat="47.40748" lon="0.07753">
        <ele>53</ele>
        <time>2021-03-24T20:31:02Z</time>
      </trkpt>
      <trkpt lat="47.40753" lon="0.07757">
        <ele>53</ele>
        <time>2021-03-24T20:31:03Z</time>
      </trkpt>
      <trkpt lat="47.4076" lon="0.07764">
        <ele>54</ele>
        <time>2021-03-24T20:31:05Z</time>
      </trkpt>
      <trkpt lat="47.4077" lon="0.07776">
        <ele>54</ele>
        <time>2021-03-24T20:31:07Z</time>
      </trkpt>
      <trkpt lat="47.40783" lon="0.07792">
        <ele>54</ele>
        <time>2021-03-24T20:31:10Z</time>
      </trkpt>
      <trkpt lat="47.40799" lon="0.0781">
        <ele>55</ele>
        <time>2021-03-24T20:31:14Z</time>
      </trkpt>
      <trkpt lat="47.40803" lon="0.07814">
        <ele>55</ele>
        <time>2021-03-24T20:31:15Z</time>
      </trkpt>
      <trkpt lat="47.40809" lon="0.0782">
        <ele>55</ele>
        <time>2021-03-24T20:31:16Z</time>
      </trkpt>
      <trkpt lat="47.40814" lon="0.07826">
        <ele>55</ele>
        <time>2021-03-24T20:31:17Z</time>
      </trkpt>
      <trkpt lat="47.40817" lon="0.07828">
        <ele>55</ele>
        <time>2021-03-24T20:31:18Z</time>
      </trkpt>
      <trkpt lat="47.40822" lon="0.0783">
        <ele>54</ele>
        <time>2021-03-24T20:31:19Z</time>
      </trkpt>
      <trkpt lat="47.40828" lon="0.07833">
        <ele>54</ele>
        <time>2021-03-24T20:31:20Z</time>
      </trkpt>
      <trkpt lat="47.40831" lon="0.07833">
        <ele>54</ele>
        <time>2021-03-24T20:31:20Z</time>
      </trkpt>
      <trkpt lat="47.40832" lon="0.07833">
        <ele>54</ele>
        <time>2021-03-24T20:31:20Z</time>
      </trkpt>
      <trkpt lat="47.4084" lon="0.07834">
        <ele>54</ele>
        <time>2021-03-24T20:31:22Z</time>
      </trkpt>
      <trkpt lat="47.40858" lon="0.07833">
        <ele>53</ele>
        <time>2021-03-24T20:31:25Z</time>
      </trkpt>
      <trkpt lat="47.40877" lon="0.07833">
        <ele>52</ele>
        <time>2021-03-24T20:31:28Z</time>
      </trkpt>
      <trkpt lat="47.40886" lon="0.07834">
        <ele>52</ele>
        <time>2021-03-24T20:31:30Z</time>
      </trkpt>
      <trkpt lat="47.40896" lon="0.07835">
        <ele>52</ele>
        <time>2021-03-24T20:31:32Z</time>
      </trkpt>
      <trkpt lat="47.40909" lon="0.07835">
        <ele>51</ele>
        <time>2021-03-24T20:31:34Z</time>
      </trkpt>
      <trkpt lat="47.40915" lon="0.07835">
        <ele>51</ele>
        <time>2021-03-24T20:31:35Z</time>
      </trkpt>
      <trkpt lat="47.4092" lon="0.07835">
        <ele>51</ele>
        <time>2021-03-24T20:31:36Z</time>
      </trkpt>
      <trkpt lat="47.40924" lon="0.07835">
        <ele>51</ele>
        <time>2021-03-24T20:31:37Z</time>
      </trkpt>
      <trkpt lat="47.40929" lon="0.07835">
        <ele>51</ele>
        <time>2021-03-24T20:31:38Z</time>
      </trkpt>
      <trkpt lat="47.40935" lon="0.07834">
        <ele>51</ele>
        <time>2021-03-24T20:31:39Z</time>
      </trkpt>
      <trkpt lat="47.40944" lon="0.07832">
        <ele>51</ele>
        <time>2021-03-24T20:31:40Z</time>
      </trkpt>
      <trkpt lat="47.40959" lon="0.07826">
        <ele>51</ele>
        <time>2021-03-24T20:31:43Z</time>
      </trkpt>
      <trkpt lat="47.40977" lon="0.07817">
        <ele>51</ele>
        <time>2021-03-24T20:31:47Z</time>
      </trkpt>
      <trkpt lat="47.40989" lon="0.07813">
        <ele>51</ele>
        <time>2021-03-24T20:31:49Z</time>
      </trkpt>
      <trkpt lat="47.40993" lon="0.07812">
        <ele>51</ele>
        <time>2021-03-24T20:31:50Z</time>
      </trkpt>
      <trkpt lat="47.40997" lon="0.07811">
        <ele>51</ele>
        <time>2021-03-24T20:31:50Z</time>
      </trkpt>
      <trkpt lat="47.41004" lon="0.07811">
        <ele>51</ele>
        <time>2021-03-24T20:31:51Z</time>
      </trkpt>
      <trkpt lat="47.41017" lon="0.0781">
        <ele>51</ele>
        <time>2021-03-24T20:31:54Z</time>
      </trkpt>
      <trkpt lat="47.41033" lon="0.07812">
        <ele>51</ele>
        <time>2021-03-24T20:31:57Z</time>
      </trkpt>
      <trkpt lat="47.4107" lon="0.07818">
        <ele>52</ele>
        <time>2021-03-24T20:32:03Z</time>
      </trkpt>
      <trkpt lat="47.41096" lon="0.07823">
        <ele>51</ele>
        <time>2021-03-24T20:32:08Z</time>
      </trkpt>
      <trkpt lat="47.41112" lon="0.07826">
        <ele>51</ele>
        <time>2021-03-24T20:32:11Z</time>
      </trkpt>
      <trkpt lat="47.41131" lon="0.07829">
        <ele>51</ele>
        <time>2021-03-24T20:32:14Z</time>
      </trkpt>
      <trkpt lat="47.41153" lon="0.0783">
        <ele>50</ele>
        <time>2021-03-24T20:32:18Z</time>
      </trkpt>
      <trkpt lat="47.41177" lon="0.07832">
        <ele>50</ele>
        <time>2021-03-24T20:32:22Z</time>
      </trkpt>
      <trkpt lat="47.41272" lon="0.07837">
        <ele>49</ele>
        <time>2021-03-24T20:32:39Z</time>
      </trkpt>
      <trkpt lat="47.4131" lon="0.07838">
        <ele>50</ele>
        <time>2021-03-24T20:32:46Z</time>
      </trkpt>
      <trkpt lat="47.41339" lon="0.07837">
        <ele>50</ele>
        <time>2021-03-24T20:32:51Z</time>
      </trkpt>
      <trkpt lat="47.41389" lon="0.07836">
        <ele>50</ele>
        <time>2021-03-24T20:33:00Z</time>
      </trkpt>
      <trkpt lat="47.41426" lon="0.07835">
        <ele>50</ele>
        <time>2021-03-24T20:33:07Z</time>
      </trkpt>
      <trkpt lat="47.4149" lon="0.07833">
        <ele>50</ele>
        <time>2021-03-24T20:33:18Z</time>
      </trkpt>
      <trkpt lat="47.41558" lon="0.07832">
        <ele>49</ele>
        <time>2021-03-24T20:33:30Z</time>
      </trkpt>
      <trkpt lat="47.41631" lon="0.07831">
        <ele>49</ele>
        <time>2021-03-24T20:33:43Z</time>
      </trkpt>
      <trkpt lat="47.41707" lon="0.0783">
        <ele>49</ele>
        <time>2021-03-24T20:33:57Z</time>
      </trkpt>
      <trkpt lat="47.41766" lon="0.07828">
        <ele>48</ele>
        <time>2021-03-24T20:34:07Z</time>
      </trkpt>
      <trkpt lat="47.41776" lon="0.07828">
        <ele>48</ele>
        <time>2021-03-24T20:34:09Z</time>
      </trkpt>
      <trkpt lat="47.41811" lon="0.07827">
        <ele>48</ele>
        <time>2021-03-24T20:34:15Z</time>
      </trkpt>
      <trkpt lat="47.41918" lon="0.07825">
        <ele>50</ele>
        <time>2021-03-24T20:34:34Z</time>
      </trkpt>
      <trkpt lat="47.41974" lon="0.07825">
        <ele>52</ele>
        <time>2021-03-24T20:34:44Z</time>
      </trkpt>
      <trkpt lat="47.42064" lon="0.07824">
        <ele>51</ele>
        <time>2021-03-24T20:35:00Z</time>
      </trkpt>
      <trkpt lat="47.42088" lon="0.07823">
        <ele>51</ele>
        <time>2021-03-24T20:35:05Z</time>
      </trkpt>
      <trkpt lat="47.42141" lon="0.07823">
        <ele>52</ele>
        <time>2021-03-24T20:35:14Z</time>
      </trkpt>
      <trkpt lat="47.42227" lon="0.07821">
        <ele>53</ele>
        <time>2021-03-24T20:35:29Z</time>
      </trkpt>
      <trkpt lat="47.42289" lon="0.0782">
        <ele>52</ele>
        <time>2021-03-24T20:35:40Z</time>
      </trkpt>
      <trkpt lat="47.42347" lon="0.07819">
        <ele>51</ele>
        <time>2021-03-24T20:35:51Z</time>
      </trkpt>
      <trkpt lat="47.42419" lon="0.07818">
        <ele>51</ele>
        <time>2021-03-24T20:36:03Z</time>
      </trkpt>
      <trkpt lat="47.42457" lon="0.07818">
        <ele>51</ele>
        <time>2021-03-24T20:36:10Z</time>
      </trkpt>
      <trkpt lat="47.4251" lon="0.07817">
        <ele>52</ele>
        <time>2021-03-24T20:36:20Z</time>
      </trkpt>
      <trkpt lat="47.42548" lon="0.07816">
        <ele>54</ele>
        <time>2021-03-24T20:36:26Z</time>
      </trkpt>
      <trkpt lat="47.42605" lon="0.07815">
        <ele>55</ele>
        <time>2021-03-24T20:36:37Z</time>
      </trkpt>
      <trkpt lat="47.42662" lon="0.07815">
        <ele>56</ele>
        <time>2021-03-24T20:36:47Z</time>
      </trkpt>
      <trkpt lat="47.42706" lon="0.07815">
        <ele>57</ele>
        <time>2021-03-24T20:36:54Z</time>
      </trkpt>
      <trkpt lat="47.42746" lon="0.07814">
        <ele>58</ele>
        <time>2021-03-24T20:37:02Z</time>
      </trkpt>
      <trkpt lat="47.42795" lon="0.07814">
        <ele>58</ele>
        <time>2021-03-24T20:37:10Z</time>
      </trkpt>
      <trkpt lat="47.42853" lon="0.07814">
        <ele>59</ele>
        <time>2021-03-24T20:37:21Z</time>
      </trkpt>
      <trkpt lat="47.42912" lon="0.07814">
        <ele>59</ele>
        <time>2021-03-24T20:37:31Z</time>
      </trkpt>
      <trkpt lat="47.42982" lon="0.07813">
        <ele>59</ele>
        <time>2021-03-24T20:37:44Z</time>
      </trkpt>
      <trkpt lat="47.43041" lon="0.07812">
        <ele>60</ele>
        <time>2021-03-24T20:37:54Z</time>
      </trkpt>
      <trkpt lat="47.43078" lon="0.07811">
        <ele>61</ele>
        <time>2021-03-24T20:38:01Z</time>
      </trkpt>
      <trkpt lat="47.43084" lon="0.07811">
        <ele>61</ele>
        <time>2021-03-24T20:38:02Z</time>
      </trkpt>
      <trkpt lat="47.43133" lon="0.0781">
        <ele>58</ele>
        <time>2021-03-24T20:38:10Z</time>
      </trkpt>
      <trkpt lat="47.43192" lon="0.0781">
        <ele>55</ele>
        <time>2021-03-24T20:38:21Z</time>
      </trkpt>
      <trkpt lat="47.43258" lon="0.07808">
        <ele>53</ele>
        <time>2021-03-24T20:38:33Z</time>
      </trkpt>
      <trkpt lat="47.43393" lon="0.07806">
        <ele>58</ele>
        <time>2021-03-24T20:38:57Z</time>
      </trkpt>
      <trkpt lat="47.43654" lon="0.07803">
        <ele>51</ele>
        <time>2021-03-24T20:39:43Z</time>
      </trkpt>
      <trkpt lat="47.43665" lon="0.07803">
        <ele>50</ele>
        <time>2021-03-24T20:39:45Z</time>
      </trkpt>
      <trkpt lat="47.43676" lon="0.07803">
        <ele>51</ele>
        <time>2021-03-24T20:39:47Z</time>
      </trkpt>
      <trkpt lat="47.43719" lon="0.07802">
        <ele>53</ele>
        <time>2021-03-24T20:39:55Z</time>
      </trkpt>
      <trkpt lat="47.43731" lon="0.07802">
        <ele>53</ele>
        <time>2021-03-24T20:39:57Z</time>
      </trkpt>
      <trkpt lat="47.43801" lon="0.078">
        <ele>54</ele>
        <time>2021-03-24T20:40:09Z</time>
      </trkpt>
      <trkpt lat="47.43852" lon="0.078">
        <ele>54</ele>
        <time>2021-03-24T20:40:18Z</time>
      </trkpt>
      <trkpt lat="47.43863" lon="0.07799">
        <ele>54</ele>
        <time>2021-03-24T20:40:20Z</time>
      </trkpt>
      <trkpt lat="47.43891" lon="0.07799">
        <ele>54</ele>
        <time>2021-03-24T20:40:25Z</time>
      </trkpt>
      <trkpt lat="47.43961" lon="0.07798">
        <ele>54</ele>
        <time>2021-03-24T20:40:38Z</time>
      </trkpt>
      <trkpt lat="47.44003" lon="0.07798">
        <ele>54</ele>
        <time>2021-03-24T20:40:45Z</time>
      </trkpt>
      <trkpt lat="47.44778" lon="0.07792">
        <ele>58</ele>
        <time>2021-03-24T20:43:03Z</time>
      </trkpt>
      <trkpt lat="47.44827" lon="0.07791">
        <ele>56</ele>
        <time>2021-03-24T20:43:12Z</time>
      </trkpt>
      <trkpt lat="47.44832" lon="0.07791">
        <ele>56</ele>
        <time>2021-03-24T20:43:13Z</time>
      </trkpt>
      <trkpt lat="47.44837" lon="0.0779">
        <ele>56</ele>
        <time>2021-03-24T20:43:14Z</time>
      </trkpt>
      <trkpt lat="47.44841" lon="0.0779">
        <ele>56</ele>
        <time>2021-03-24T20:43:14Z</time>
      </trkpt>
      <trkpt lat="47.44856" lon="0.07785">
        <ele>56</ele>
        <time>2021-03-24T20:43:17Z</time>
      </trkpt>
      <trkpt lat="47.44862" lon="0.07789">
        <ele>56</ele>
        <time>2021-03-24T20:43:18Z</time>
      </trkpt>
      <trkpt lat="47.44889" lon="0.07784">
        <ele>56</ele>
        <time>2021-03-24T20:43:23Z</time>
      </trkpt>
      <trkpt lat="47.44905" lon="0.07784">
        <ele>56</ele>
        <time>2021-03-24T20:43:26Z</time>
      </trkpt>
      <trkpt lat="47.44917" lon="0.07785">
        <ele>56</ele>
        <time>2021-03-24T20:43:28Z</time>
      </trkpt>
      <trkpt lat="47.44929" lon="0.07785">
        <ele>56</ele>
        <time>2021-03-24T20:43:30Z</time>
      </trkpt>
      <trkpt lat="47.44941" lon="0.07785">
        <ele>56</ele>
        <time>2021-03-24T20:43:32Z</time>
      </trkpt>
      <trkpt lat="47.44962" lon="0.07783">
        <ele>56</ele>
        <time>2021-03-24T20:43:36Z</time>
      </trkpt>
      <trkpt lat="47.44975" lon="0.07782">
        <ele>55</ele>
        <time>2021-03-24T20:43:38Z</time>
      </trkpt>
      <trkpt lat="47.44982" lon="0.07781">
        <ele>55</ele>
        <time>2021-03-24T20:43:40Z</time>
      </trkpt>
      <trkpt lat="47.44989" lon="0.0778">
        <ele>55</ele>
        <time>2021-03-24T20:43:41Z</time>
      </trkpt>
      <trkpt lat="47.44996" lon="0.07779">
        <ele>55</ele>
        <time>2021-03-24T20:43:42Z</time>
      </trkpt>
      <trkpt lat="47.45003" lon="0.07778">
        <ele>55</ele>
        <time>2021-03-24T20:43:43Z</time>
      </trkpt>
      <trkpt lat="47.4501" lon="0.07778">
        <ele>56</ele>
        <time>2021-03-24T20:43:45Z</time>
      </trkpt>
      <trkpt lat="47.45017" lon="0.07778">
        <ele>56</ele>
        <time>2021-03-24T20:43:46Z</time>
      </trkpt>
      <trkpt lat="47.45024" lon="0.07779">
        <ele>56</ele>
        <time>2021-03-24T20:43:47Z</time>
      </trkpt>
      <trkpt lat="47.45032" lon="0.07779">
        <ele>56</ele>
        <time>2021-03-24T20:43:49Z</time>
      </trkpt>
      <trkpt lat="47.45039" lon="0.0778">
        <ele>57</ele>
        <time>2021-03-24T20:43:50Z</time>
      </trkpt>
      <trkpt lat="47.45047" lon="0.07781">
        <ele>57</ele>
        <time>2021-03-24T20:43:51Z</time>
      </trkpt>
      <trkpt lat="47.45054" lon="0.07782">
        <ele>57</ele>
        <time>2021-03-24T20:43:53Z</time>
      </trkpt>
      <trkpt lat="47.45062" lon="0.07783">
        <ele>57</ele>
        <time>2021-03-24T20:43:54Z</time>
      </trkpt>
      <trkpt lat="47.4507" lon="0.07783">
        <ele>57</ele>
        <time>2021-03-24T20:43:55Z</time>
      </trkpt>
      <trkpt lat="47.45077" lon="0.07784">
        <ele>58</ele>
        <time>2021-03-24T20:43:57Z</time>
      </trkpt>
      <trkpt lat="47.45085" lon="0.07784">
        <ele>58</ele>
        <time>2021-03-24T20:43:58Z</time>
      </trkpt>
      <trkpt lat="47.45094" lon="0.07784">
        <ele>58</ele>
        <time>2021-03-24T20:44:00Z</time>
      </trkpt>
      <trkpt lat="47.45101" lon="0.07784">
        <ele>58</ele>
        <time>2021-03-24T20:44:01Z</time>
      </trkpt>
      <trkpt lat="47.4511" lon="0.07785">
        <ele>58</ele>
        <time>2021-03-24T20:44:03Z</time>
      </trkpt>
      <trkpt lat="47.45118" lon="0.07785">
        <ele>58</ele>
        <time>2021-03-24T20:44:04Z</time>
      </trkpt>
      <trkpt lat="47.45126" lon="0.07785">
        <ele>57</ele>
        <time>2021-03-24T20:44:05Z</time>
      </trkpt>
      <trkpt lat="47.45134" lon="0.07785">
        <ele>57</ele>
        <time>2021-03-24T20:44:07Z</time>
      </trkpt>
      <trkpt lat="47.45134" lon="0.07785">
        <ele>57</ele>
        <time>2021-03-24T20:44:07Z</time>
      </trkpt>
      <trkpt lat="47.45177" lon="0.07784">
        <ele>57</ele>
        <time>2021-03-24T20:44:14Z</time>
      </trkpt>
      <trkpt lat="47.45192" lon="0.07783">
        <ele>57</ele>
        <time>2021-03-24T20:44:17Z</time>
      </trkpt>
      <trkpt lat="47.45208" lon="0.07783">
        <ele>56</ele>
        <time>2021-03-24T20:44:20Z</time>
      </trkpt>
      <trkpt lat="47.45216" lon="0.07783">
        <ele>56</ele>
        <time>2021-03-24T20:44:21Z</time>
      </trkpt>
      <trkpt lat="47.45225" lon="0.07782">
        <ele>56</ele>
        <time>2021-03-24T20:44:23Z</time>
      </trkpt>
      <trkpt lat="47.4525" lon="0.07782">
        <ele>55</ele>
        <time>2021-03-24T20:44:27Z</time>
      </trkpt>
      <trkpt lat="47.45266" lon="0.07781">
        <ele>55</ele>
        <time>2021-03-24T20:44:30Z</time>
      </trkpt>
      <trkpt lat="47.45282" lon="0.07781">
        <ele>55</ele>
        <time>2021-03-24T20:44:33Z</time>
      </trkpt>
      <trkpt lat="47.45299" lon="0.0778">
        <ele>55</ele>
        <time>2021-03-24T20:44:36Z</time>
      </trkpt>
      <trkpt lat="47.45316" lon="0.0778">
        <ele>55</ele>
        <time>2021-03-24T20:44:39Z</time>
      </trkpt>
      <trkpt lat="47.45324" lon="0.0778">
        <ele>55</ele>
        <time>2021-03-24T20:44:41Z</time>
      </trkpt>
      <trkpt lat="47.4534" lon="0.0778">
        <ele>55</ele>
        <time>2021-03-24T20:44:43Z</time>
      </trkpt>
      <trkpt lat="47.45348" lon="0.0778">
        <ele>55</ele>
        <time>2021-03-24T20:44:45Z</time>
      </trkpt>
      <trkpt lat="47.45356" lon="0.0778">
        <ele>55</ele>
        <time>2021-03-24T20:44:46Z</time>
      </trkpt>
      <trkpt lat="47.45364" lon="0.0778">
        <ele>55</ele>
        <time>2021-03-24T20:44:48Z</time>
      </trkpt>
      <trkpt lat="47.45372" lon="0.0778">
        <ele>55</ele>
        <time>2021-03-24T20:44:49Z</time>
      </trkpt>
      <trkpt lat="47.4538" lon="0.07779">
        <ele>55</ele>
        <time>2021-03-24T20:44:51Z</time>
      </trkpt>
      <trkpt lat="47.45388" lon="0.0778">
        <ele>55</ele>
        <time>2021-03-24T20:44:52Z</time>
      </trkpt>
      <trkpt lat="47.45396" lon="0.07779">
        <ele>54</ele>
        <time>2021-03-24T20:44:53Z</time>
      </trkpt>
      <trkpt lat="47.45404" lon="0.07779">
        <ele>54</ele>
        <time>2021-03-24T20:44:55Z</time>
      </trkpt>
      <trkpt lat="47.45411" lon="0.07779">
        <ele>54</ele>
        <time>2021-03-24T20:44:56Z</time>
      </trkpt>
      <trkpt lat="47.45419" lon="0.07779">
        <ele>54</ele>
        <time>2021-03-24T20:44:58Z</time>
      </trkpt>
      <trkpt lat="47.45427" lon="0.07779">
        <ele>55</ele>
        <time>2021-03-24T20:44:59Z</time>
      </trkpt>
      <trkpt lat="47.45434" lon="0.07779">
        <ele>55</ele>
        <time>2021-03-24T20:45:00Z</time>
      </trkpt>
      <trkpt lat="47.45441" lon="0.07778">
        <ele>55</ele>
        <time>2021-03-24T20:45:01Z</time>
      </trkpt>
      <trkpt lat="47.45448" lon="0.07778">
        <ele>56</ele>
        <time>2021-03-24T20:45:03Z</time>
      </trkpt>
      <trkpt lat="47.45456" lon="0.07777">
        <ele>56</ele>
        <time>2021-03-24T20:45:04Z</time>
      </trkpt>
      <trkpt lat="47.45463" lon="0.07775">
        <ele>56</ele>
        <time>2021-03-24T20:45:05Z</time>
      </trkpt>
      <trkpt lat="47.45469" lon="0.07773">
        <ele>56</ele>
        <time>2021-03-24T20:45:07Z</time>
      </trkpt>
      <trkpt lat="47.45476" lon="0.0777">
        <ele>57</ele>
        <time>2021-03-24T20:45:08Z</time>
      </trkpt>
      <trkpt lat="47.4549" lon="0.07762">
        <ele>57</ele>
        <time>2021-03-24T20:45:10Z</time>
      </trkpt>
      <trkpt lat="47.45502" lon="0.07755">
        <ele>57</ele>
        <time>2021-03-24T20:45:13Z</time>
      </trkpt>
      <trkpt lat="47.4551" lon="0.0775">
        <ele>57</ele>
        <time>2021-03-24T20:45:14Z</time>
      </trkpt>
      <trkpt lat="47.45517" lon="0.07746">
        <ele>57</ele>
        <time>2021-03-24T20:45:16Z</time>
      </trkpt>
      <trkpt lat="47.45524" lon="0.07742">
        <ele>57</ele>
        <time>2021-03-24T20:45:17Z</time>
      </trkpt>
      <trkpt lat="47.45531" lon="0.07737">
        <ele>57</ele>
        <time>2021-03-24T20:45:18Z</time>
      </trkpt>
      <trkpt lat="47.45538" lon="0.07733">
        <ele>57</ele>
        <time>2021-03-24T20:45:20Z</time>
      </trkpt>
      <trkpt lat="47.45545" lon="0.07729">
        <ele>57</ele>
        <time>2021-03-24T20:45:21Z</time>
      </trkpt>
      <trkpt lat="47.45552" lon="0.07724">
        <ele>56</ele>
        <time>2021-03-24T20:45:22Z</time>
      </trkpt>
      <trkpt lat="47.4556" lon="0.0772">
        <ele>56</ele>
        <time>2021-03-24T20:45:24Z</time>
      </trkpt>
      <trkpt lat="47.45567" lon="0.07715">
        <ele>56</ele>
        <time>2021-03-24T20:45:25Z</time>
      </trkpt>
      <trkpt lat="47.45574" lon="0.07711">
        <ele>56</ele>
        <time>2021-03-24T20:45:27Z</time>
      </trkpt>
      <trkpt lat="47.45581" lon="0.07706">
        <ele>56</ele>
        <time>2021-03-24T20:45:28Z</time>
      </trkpt>
      <trkpt lat="47.45589" lon="0.07701">
        <ele>56</ele>
        <time>2021-03-24T20:45:30Z</time>
      </trkpt>
      <trkpt lat="47.45596" lon="0.07697">
        <ele>56</ele>
        <time>2021-03-24T20:45:31Z</time>
      </trkpt>
      <trkpt lat="47.45603" lon="0.07693">
        <ele>56</ele>
        <time>2021-03-24T20:45:32Z</time>
      </trkpt>
      <trkpt lat="47.4561" lon="0.07688">
        <ele>56</ele>
        <time>2021-03-24T20:45:34Z</time>
      </trkpt>
      <trkpt lat="47.45617" lon="0.07684">
        <ele>56</ele>
        <time>2021-03-24T20:45:35Z</time>
      </trkpt>
      <trkpt lat="47.45625" lon="0.0768">
        <ele>56</ele>
        <time>2021-03-24T20:45:36Z</time>
      </trkpt>
      <trkpt lat="47.45632" lon="0.07676">
        <ele>56</ele>
        <time>2021-03-24T20:45:38Z</time>
      </trkpt>
      <trkpt lat="47.4564" lon="0.07672">
        <ele>56</ele>
        <time>2021-03-24T20:45:39Z</time>
      </trkpt>
      <trkpt lat="47.45647" lon="0.07669">
        <ele>56</ele>
        <time>2021-03-24T20:45:41Z</time>
      </trkpt>
      <trkpt lat="47.45655" lon="0.07667">
        <ele>56</ele>
        <time>2021-03-24T20:45:42Z</time>
      </trkpt>
      <trkpt lat="47.45663" lon="0.07665">
        <ele>57</ele>
        <time>2021-03-24T20:45:43Z</time>
      </trkpt>
      <trkpt lat="47.4567" lon="0.07664">
        <ele>57</ele>
        <time>2021-03-24T20:45:45Z</time>
      </trkpt>
      <trkpt lat="47.45678" lon="0.07663">
        <ele>57</ele>
        <time>2021-03-24T20:45:46Z</time>
      </trkpt>
      <trkpt lat="47.45686" lon="0.07663">
        <ele>57</ele>
        <time>2021-03-24T20:45:48Z</time>
      </trkpt>
      <trkpt lat="47.45694" lon="0.07663">
        <ele>56</ele>
        <time>2021-03-24T20:45:49Z</time>
      </trkpt>
      <trkpt lat="47.45701" lon="0.07663">
        <ele>56</ele>
        <time>2021-03-24T20:45:50Z</time>
      </trkpt>
      <trkpt lat="47.45709" lon="0.07663">
        <ele>56</ele>
        <time>2021-03-24T20:45:52Z</time>
      </trkpt>
      <trkpt lat="47.45717" lon="0.07663">
        <ele>56</ele>
        <time>2021-03-24T20:45:53Z</time>
      </trkpt>
      <trkpt lat="47.45725" lon="0.07664">
        <ele>56</ele>
        <time>2021-03-24T20:45:55Z</time>
      </trkpt>
      <trkpt lat="47.45742" lon="0.07666">
        <ele>56</ele>
        <time>2021-03-24T20:45:58Z</time>
      </trkpt>
      <trkpt lat="47.4575" lon="0.07667">
        <ele>56</ele>
        <time>2021-03-24T20:45:59Z</time>
      </trkpt>
      <trkpt lat="47.45774" lon="0.07669">
        <ele>56</ele>
        <time>2021-03-24T20:46:03Z</time>
      </trkpt>
      <trkpt lat="47.45779" lon="0.0767">
        <ele>57</ele>
        <time>2021-03-24T20:46:04Z</time>
      </trkpt>
      <trkpt lat="47.45789" lon="0.07671">
        <ele>57</ele>
        <time>2021-03-24T20:46:06Z</time>
      </trkpt>
      <trkpt lat="47.45805" lon="0.07672">
        <ele>57</ele>
        <time>2021-03-24T20:46:09Z</time>
      </trkpt>
      <trkpt lat="47.45818" lon="0.07674">
        <ele>57</ele>
        <time>2021-03-24T20:46:11Z</time>
      </trkpt>
      <trkpt lat="47.45829" lon="0.07675">
        <ele>58</ele>
        <time>2021-03-24T20:46:13Z</time>
      </trkpt>
      <trkpt lat="47.45841" lon="0.07676">
        <ele>58</ele>
        <time>2021-03-24T20:46:15Z</time>
      </trkpt>
      <trkpt lat="47.45856" lon="0.07677">
        <ele>57</ele>
        <time>2021-03-24T20:46:18Z</time>
      </trkpt>
      <trkpt lat="47.45866" lon="0.07679">
        <ele>57</ele>
        <time>2021-03-24T20:46:20Z</time>
      </trkpt>
      <trkpt lat="47.45878" lon="0.0768">
        <ele>57</ele>
        <time>2021-03-24T20:46:22Z</time>
      </trkpt>
      <trkpt lat="47.45922" lon="0.07685">
        <ele>56</ele>
        <time>2021-03-24T20:46:30Z</time>
      </trkpt>
      <trkpt lat="47.45941" lon="0.07687">
        <ele>56</ele>
        <time>2021-03-24T20:46:33Z</time>
      </trkpt>
      <trkpt lat="47.45952" lon="0.07688">
        <ele>56</ele>
        <time>2021-03-24T20:46:35Z</time>
      </trkpt>
      <trkpt lat="47.45968" lon="0.0769">
        <ele>56</ele>
        <time>2021-03-24T20:46:38Z</time>
      </trkpt>
      <trkpt lat="47.45978" lon="0.07692">
        <ele>56</ele>
        <time>2021-03-24T20:46:40Z</time>
      </trkpt>
      <trkpt lat="47.45992" lon="0.07694">
        <ele>56</ele>
        <time>2021-03-24T20:46:42Z</time>
      </trkpt>
      <trkpt lat="47.45992" lon="0.07694">
        <ele>56</ele>
        <time>2021-03-24T20:46:42Z</time>
      </trkpt>
      <trkpt lat="47.46006" lon="0.07607">
        <ele>56</ele>
        <time>2021-03-24T20:46:53Z</time>
      </trkpt>
      <trkpt lat="47.46021" lon="0.07516">
        <ele>55</ele>
        <time>2021-03-24T20:47:04Z</time>
      </trkpt>
      <trkpt lat="47.46023" lon="0.07499">
        <ele>54</ele>
        <time>2021-03-24T20:47:06Z</time>
      </trkpt>
      <trkpt lat="47.46043" lon="0.07367">
        <ele>51</ele>
        <time>2021-03-24T20:47:23Z</time>
      </trkpt>
      <trkpt lat="47.46045" lon="0.07355">
        <ele>51</ele>
        <time>2021-03-24T20:47:24Z</time>
      </trkpt>
      <trkpt lat="47.46047" lon="0.07346">
        <ele>51</ele>
        <time>2021-03-24T20:47:25Z</time>
      </trkpt>
      <trkpt lat="47.46066" lon="0.07215">
        <ele>51</ele>
        <time>2021-03-24T20:47:41Z</time>
      </trkpt>
      <trkpt lat="47.46071" lon="0.07182">
        <ele>51</ele>
        <time>2021-03-24T20:47:45Z</time>
      </trkpt>
      <trkpt lat="47.46075" lon="0.07156">
        <ele>51</ele>
        <time>2021-03-24T20:47:49Z</time>
      </trkpt>
      <trkpt lat="47.46083" lon="0.07101">
        <ele>51</ele>
        <time>2021-03-24T20:47:55Z</time>
      </trkpt>
      <trkpt lat="47.46084" lon="0.07093">
        <ele>51</ele>
        <time>2021-03-24T20:47:56Z</time>
      </trkpt>
      <trkpt lat="47.46086" lon="0.07084">
        <ele>51</ele>
        <time>2021-03-24T20:47:57Z</time>
      </trkpt>
      <trkpt lat="47.46089" lon="0.07064">
        <ele>51</ele>
        <time>2021-03-24T20:48:00Z</time>
      </trkpt>
      <trkpt lat="47.46092" lon="0.07047">
        <ele>52</ele>
        <time>2021-03-24T20:48:02Z</time>
      </trkpt>
      <trkpt lat="47.46097" lon="0.07019">
        <ele>52</ele>
        <time>2021-03-24T20:48:06Z</time>
      </trkpt>
      <trkpt lat="47.46108" lon="0.06951">
        <ele>53</ele>
        <time>2021-03-24T20:48:14Z</time>
      </trkpt>
      <trkpt lat="47.46116" lon="0.06911">
        <ele>54</ele>
        <time>2021-03-24T20:48:19Z</time>
      </trkpt>
      <trkpt lat="47.46124" lon="0.0687">
        <ele>54</ele>
        <time>2021-03-24T20:48:24Z</time>
      </trkpt>
      <trkpt lat="47.46129" lon="0.06843">
        <ele>55</ele>
        <time>2021-03-24T20:48:27Z</time>
      </trkpt>
      <trkpt lat="47.46131" lon="0.06829">
        <ele>55</ele>
        <time>2021-03-24T20:48:29Z</time>
      </trkpt>
      <trkpt lat="47.46134" lon="0.06816">
        <ele>55</ele>
        <time>2021-03-24T20:48:31Z</time>
      </trkpt>
      <trkpt lat="47.46135" lon="0.0681">
        <ele>55</ele>
        <time>2021-03-24T20:48:32Z</time>
      </trkpt>
      <trkpt lat="47.46137" lon="0.06802">
        <ele>55</ele>
        <time>2021-03-24T20:48:33Z</time>
      </trkpt>
      <trkpt lat="47.46138" lon="0.06792">
        <ele>56</ele>
        <time>2021-03-24T20:48:34Z</time>
      </trkpt>
      <trkpt lat="47.4614" lon="0.06777">
        <ele>56</ele>
        <time>2021-03-24T20:48:36Z</time>
      </trkpt>
      <trkpt lat="47.46143" lon="0.06763">
        <ele>56</ele>
        <time>2021-03-24T20:48:37Z</time>
      </trkpt>
      <trkpt lat="47.46145" lon="0.0675">
        <ele>56</ele>
        <time>2021-03-24T20:48:39Z</time>
      </trkpt>
      <trkpt lat="47.46148" lon="0.06735">
        <ele>57</ele>
        <time>2021-03-24T20:48:41Z</time>
      </trkpt>
      <trkpt lat="47.46151" lon="0.06721">
        <ele>57</ele>
        <time>2021-03-24T20:48:43Z</time>
      </trkpt>
      <trkpt lat="47.46154" lon="0.06707">
        <ele>57</ele>
        <time>2021-03-24T20:48:44Z</time>
      </trkpt>
      <trkpt lat="47.46157" lon="0.06693">
        <ele>58</ele>
        <time>2021-03-24T20:48:46Z</time>
      </trkpt>
      <trkpt lat="47.4616" lon="0.06676">
        <ele>59</ele>
        <time>2021-03-24T20:48:48Z</time>
      </trkpt>
      <trkpt lat="47.46178" lon="0.06612">
        <ele>60</ele>
        <time>2021-03-24T20:48:57Z</time>
      </trkpt>
      <trkpt lat="47.46189" lon="0.06572">
        <ele>61</ele>
        <time>2021-03-24T20:49:02Z</time>
      </trkpt>
      <trkpt lat="47.46197" lon="0.06546">
        <ele>61</ele>
        <time>2021-03-24T20:49:05Z</time>
      </trkpt>
      <trkpt lat="47.462" lon="0.06532">
        <ele>61</ele>
        <time>2021-03-24T20:49:07Z</time>
      </trkpt>
      <trkpt lat="47.46204" lon="0.06519">
        <ele>61</ele>
        <time>2021-03-24T20:49:09Z</time>
      </trkpt>
      <trkpt lat="47.46207" lon="0.06506">
        <ele>61</ele>
        <time>2021-03-24T20:49:10Z</time>
      </trkpt>
      <trkpt lat="47.46225" lon="0.0644">
        <ele>62</ele>
        <time>2021-03-24T20:49:19Z</time>
      </trkpt>
      <trkpt lat="47.4625" lon="0.06349">
        <ele>63</ele>
        <time>2021-03-24T20:49:31Z</time>
      </trkpt>
      <trkpt lat="47.46261" lon="0.06311">
        <ele>63</ele>
        <time>2021-03-24T20:49:36Z</time>
      </trkpt>
      <trkpt lat="47.46268" lon="0.06286">
        <ele>64</ele>
        <time>2021-03-24T20:49:39Z</time>
      </trkpt>
      <trkpt lat="47.46275" lon="0.0626">
        <ele>64</ele>
        <time>2021-03-24T20:49:42Z</time>
      </trkpt>
      <trkpt lat="47.46284" lon="0.06224">
        <ele>66</ele>
        <time>2021-03-24T20:49:47Z</time>
      </trkpt>
      <trkpt lat="47.46303" lon="0.06149">
        <ele>68</ele>
        <time>2021-03-24T20:49:57Z</time>
      </trkpt>
      <trkpt lat="47.46313" lon="0.06112">
        <ele>69</ele>
        <time>2021-03-24T20:50:01Z</time>
      </trkpt>
      <trkpt lat="47.46328" lon="0.06057">
        <ele>70</ele>
        <time>2021-03-24T20:50:09Z</time>
      </trkpt>
      <trkpt lat="47.46346" lon="0.05986">
        <ele>70</ele>
        <time>2021-03-24T20:50:18Z</time>
      </trkpt>
      <trkpt lat="47.46356" lon="0.05947">
        <ele>70</ele>
        <time>2021-03-24T20:50:23Z</time>
      </trkpt>
      <trkpt lat="47.46363" lon="0.05921">
        <ele>70</ele>
        <time>2021-03-24T20:50:26Z</time>
      </trkpt>
      <trkpt lat="47.46373" lon="0.05882">
        <ele>70</ele>
        <time>2021-03-24T20:50:31Z</time>
      </trkpt>
      <trkpt lat="47.46383" lon="0.05843">
        <ele>70</ele>
        <time>2021-03-24T20:50:36Z</time>
      </trkpt>
      <trkpt lat="47.46384" lon="0.05839">
        <ele>70</ele>
        <time>2021-03-24T20:50:37Z</time>
      </trkpt>
      <trkpt lat="47.4639" lon="0.0582">
        <ele>70</ele>
        <time>2021-03-24T20:50:39Z</time>
      </trkpt>
      <trkpt lat="47.46414" lon="0.0572">
        <ele>71</ele>
        <time>2021-03-24T20:50:52Z</time>
      </trkpt>
      <trkpt lat="47.46432" lon="0.05651">
        <ele>71</ele>
        <time>2021-03-24T20:51:01Z</time>
      </trkpt>
      <trkpt lat="47.46443" lon="0.05609">
        <ele>72</ele>
        <time>2021-03-24T20:51:06Z</time>
      </trkpt>
      <trkpt lat="47.46458" lon="0.05555">
        <ele>72</ele>
        <time>2021-03-24T20:51:13Z</time>
      </trkpt>
      <trkpt lat="47.46469" lon="0.05514">
        <ele>73</ele>
        <time>2021-03-24T20:51:19Z</time>
      </trkpt>
      <trkpt lat="47.46484" lon="0.05461">
        <ele>75</ele>
        <time>2021-03-24T20:51:25Z</time>
      </trkpt>
      <trkpt lat="47.46498" lon="0.05408">
        <ele>76</ele>
        <time>2021-03-24T20:51:32Z</time>
      </trkpt>
      <trkpt lat="47.46507" lon="0.05375">
        <ele>75</ele>
        <time>2021-03-24T20:51:37Z</time>
      </trkpt>
      <trkpt lat="47.46508" lon="0.05369">
        <ele>75</ele>
        <time>2021-03-24T20:51:37Z</time>
      </trkpt>
      <trkpt lat="47.46511" lon="0.05357">
        <ele>75</ele>
        <time>2021-03-24T20:51:39Z</time>
      </trkpt>
      <trkpt lat="47.46514" lon="0.05344">
        <ele>75</ele>
        <time>2021-03-24T20:51:41Z</time>
      </trkpt>
      <trkpt lat="47.46516" lon="0.05331">
        <ele>75</ele>
        <time>2021-03-24T20:51:42Z</time>
      </trkpt>
      <trkpt lat="47.46518" lon="0.05318">
        <ele>75</ele>
        <time>2021-03-24T20:51:44Z</time>
      </trkpt>
      <trkpt lat="47.4652" lon="0.05304">
        <ele>76</ele>
        <time>2021-03-24T20:51:45Z</time>
      </trkpt>
      <trkpt lat="47.46522" lon="0.05291">
        <ele>76</ele>
        <time>2021-03-24T20:51:47Z</time>
      </trkpt>
      <trkpt lat="47.46523" lon="0.05278">
        <ele>76</ele>
        <time>2021-03-24T20:51:49Z</time>
      </trkpt>
      <trkpt lat="47.46524" lon="0.05265">
        <ele>76</ele>
        <time>2021-03-24T20:51:50Z</time>
      </trkpt>
      <trkpt lat="47.46524" lon="0.05252">
        <ele>76</ele>
        <time>2021-03-24T20:51:52Z</time>
      </trkpt>
      <trkpt lat="47.46525" lon="0.05238">
        <ele>76</ele>
        <time>2021-03-24T20:51:53Z</time>
      </trkpt>
      <trkpt lat="47.46525" lon="0.05225">
        <ele>77</ele>
        <time>2021-03-24T20:51:55Z</time>
      </trkpt>
      <trkpt lat="47.46524" lon="0.05212">
        <ele>76</ele>
        <time>2021-03-24T20:51:57Z</time>
      </trkpt>
      <trkpt lat="47.46524" lon="0.05199">
        <ele>77</ele>
        <time>2021-03-24T20:51:58Z</time>
      </trkpt>
      <trkpt lat="47.46524" lon="0.05185">
        <ele>77</ele>
        <time>2021-03-24T20:52:00Z</time>
      </trkpt>
      <trkpt lat="47.46524" lon="0.05172">
        <ele>77</ele>
        <time>2021-03-24T20:52:01Z</time>
      </trkpt>
      <trkpt lat="47.46523" lon="0.05159">
        <ele>77</ele>
        <time>2021-03-24T20:52:03Z</time>
      </trkpt>
      <trkpt lat="47.46523" lon="0.05145">
        <ele>77</ele>
        <time>2021-03-24T20:52:05Z</time>
      </trkpt>
      <trkpt lat="47.46523" lon="0.05132">
        <ele>78</ele>
        <time>2021-03-24T20:52:06Z</time>
      </trkpt>
      <trkpt lat="47.46523" lon="0.05119">
        <ele>78</ele>
        <time>2021-03-24T20:52:08Z</time>
      </trkpt>
      <trkpt lat="47.46522" lon="0.05105">
        <ele>78</ele>
        <time>2021-03-24T20:52:09Z</time>
      </trkpt>
      <trkpt lat="47.46522" lon="0.05092">
        <ele>79</ele>
        <time>2021-03-24T20:52:11Z</time>
      </trkpt>
      <trkpt lat="47.46522" lon="0.05078">
        <ele>79</ele>
        <time>2021-03-24T20:52:13Z</time>
      </trkpt>
      <trkpt lat="47.46521" lon="0.05065">
        <ele>79</ele>
        <time>2021-03-24T20:52:14Z</time>
      </trkpt>
      <trkpt lat="47.46521" lon="0.05051">
        <ele>79</ele>
        <time>2021-03-24T20:52:16Z</time>
      </trkpt>
      <trkpt lat="47.4652" lon="0.05039">
        <ele>79</ele>
        <time>2021-03-24T20:52:17Z</time>
      </trkpt>
      <trkpt lat="47.4652" lon="0.05024">
        <ele>79</ele>
        <time>2021-03-24T20:52:19Z</time>
      </trkpt>
      <trkpt lat="47.4652" lon="0.05011">
        <ele>79</ele>
        <time>2021-03-24T20:52:21Z</time>
      </trkpt>
      <trkpt lat="47.4652" lon="0.04971">
        <ele>80</ele>
        <time>2021-03-24T20:52:26Z</time>
      </trkpt>
      <trkpt lat="47.4652" lon="0.04958">
        <ele>81</ele>
        <time>2021-03-24T20:52:27Z</time>
      </trkpt>
      <trkpt lat="47.4652" lon="0.04945">
        <ele>81</ele>
        <time>2021-03-24T20:52:29Z</time>
      </trkpt>
      <trkpt lat="47.46519" lon="0.04931">
        <ele>82</ele>
        <time>2021-03-24T20:52:30Z</time>
      </trkpt>
      <trkpt lat="47.46519" lon="0.04891">
        <ele>82</ele>
        <time>2021-03-24T20:52:35Z</time>
      </trkpt>
      <trkpt lat="47.46519" lon="0.04877">
        <ele>81</ele>
        <time>2021-03-24T20:52:37Z</time>
      </trkpt>
      <trkpt lat="47.46519" lon="0.04864">
        <ele>81</ele>
        <time>2021-03-24T20:52:39Z</time>
      </trkpt>
      <trkpt lat="47.46518" lon="0.04851">
        <ele>81</ele>
        <time>2021-03-24T20:52:40Z</time>
      </trkpt>
      <trkpt lat="47.46518" lon="0.04837">
        <ele>81</ele>
        <time>2021-03-24T20:52:42Z</time>
      </trkpt>
      <trkpt lat="47.46518" lon="0.04824">
        <ele>81</ele>
        <time>2021-03-24T20:52:43Z</time>
      </trkpt>
      <trkpt lat="47.46518" lon="0.04797">
        <ele>80</ele>
        <time>2021-03-24T20:52:47Z</time>
      </trkpt>
      <trkpt lat="47.46518" lon="0.04784">
        <ele>80</ele>
        <time>2021-03-24T20:52:48Z</time>
      </trkpt>
      <trkpt lat="47.46518" lon="0.04769">
        <ele>80</ele>
        <time>2021-03-24T20:52:50Z</time>
      </trkpt>
      <trkpt lat="47.46518" lon="0.04754">
        <ele>80</ele>
        <time>2021-03-24T20:52:52Z</time>
      </trkpt>
      <trkpt lat="47.46518" lon="0.04739">
        <ele>80</ele>
        <time>2021-03-24T20:52:54Z</time>
      </trkpt>
      <trkpt lat="47.46517" lon="0.0471">
        <ele>80</ele>
        <time>2021-03-24T20:52:57Z</time>
      </trkpt>
      <trkpt lat="47.46517" lon="0.04665">
        <ele>79</ele>
        <time>2021-03-24T20:53:02Z</time>
      </trkpt>
      <trkpt lat="47.46516" lon="0.04614">
        <ele>79</ele>
        <time>2021-03-24T20:53:09Z</time>
      </trkpt>
      <trkpt lat="47.46516" lon="0.0455">
        <ele>80</ele>
        <time>2021-03-24T20:53:16Z</time>
      </trkpt>
      <trkpt lat="47.46516" lon="0.04532">
        <ele>80</ele>
        <time>2021-03-24T20:53:18Z</time>
      </trkpt>
      <trkpt lat="47.46515" lon="0.04508">
        <ele>80</ele>
        <time>2021-03-24T20:53:21Z</time>
      </trkpt>
      <trkpt lat="47.46515" lon="0.0448">
        <ele>80</ele>
        <time>2021-03-24T20:53:25Z</time>
      </trkpt>
      <trkpt lat="47.46516" lon="0.04437">
        <ele>81</ele>
        <time>2021-03-24T20:53:30Z</time>
      </trkpt>
      <trkpt lat="47.46515" lon="0.04408">
        <ele>81</ele>
        <time>2021-03-24T20:53:33Z</time>
      </trkpt>
      <trkpt lat="47.46516" lon="0.0438">
        <ele>81</ele>
        <time>2021-03-24T20:53:37Z</time>
      </trkpt>
      <trkpt lat="47.46516" lon="0.04351">
        <ele>81</ele>
        <time>2021-03-24T20:53:40Z</time>
      </trkpt>
      <trkpt lat="47.46516" lon="0.04294">
        <ele>81</ele>
        <time>2021-03-24T20:53:47Z</time>
      </trkpt>
      <trkpt lat="47.46516" lon="0.04252">
        <ele>81</ele>
        <time>2021-03-24T20:53:52Z</time>
      </trkpt>
      <trkpt lat="47.46516" lon="0.04224">
        <ele>81</ele>
        <time>2021-03-24T20:53:56Z</time>
      </trkpt>
      <trkpt lat="47.46516" lon="0.04195">
        <ele>81</ele>
        <time>2021-03-24T20:53:59Z</time>
      </trkpt>
      <trkpt lat="47.46515" lon="0.04018">
        <ele>83</ele>
        <time>2021-03-24T20:54:20Z</time>
      </trkpt>
      <trkpt lat="47.46514" lon="0.0379">
        <ele>86</ele>
        <time>2021-03-24T20:54:48Z</time>
      </trkpt>
      <trkpt lat="47.46512" lon="0.03694">
        <ele>87</ele>
        <time>2021-03-24T20:54:59Z</time>
      </trkpt>
      <trkpt lat="47.46511" lon="0.03661">
        <ele>87</ele>
        <time>2021-03-24T20:55:03Z</time>
      </trkpt>
      <trkpt lat="47.46507" lon="0.03438">
        <ele>90</ele>
        <time>2021-03-24T20:55:30Z</time>
      </trkpt>
      <trkpt lat="47.46506" lon="0.03285">
        <ele>90</ele>
        <time>2021-03-24T20:55:49Z</time>
      </trkpt>
      <trkpt lat="47.46506" lon="0.03235">
        <ele>89</ele>
        <time>2021-03-24T20:55:55Z</time>
      </trkpt>
      <trkpt lat="47.46507" lon="0.03138">
        <ele>88</ele>
        <time>2021-03-24T20:56:06Z</time>
      </trkpt>
      <trkpt lat="47.46508" lon="0.03055">
        <ele>87</ele>
        <time>2021-03-24T20:56:16Z</time>
      </trkpt>
      <trkpt lat="47.46509" lon="0.03003">
        <ele>86</ele>
        <time>2021-03-24T20:56:22Z</time>
      </trkpt>
      <trkpt lat="47.4651" lon="0.02974">
        <ele>87</ele>
        <time>2021-03-24T20:56:26Z</time>
      </trkpt>
      <trkpt lat="47.46511" lon="0.02946">
        <ele>88</ele>
        <time>2021-03-24T20:56:29Z</time>
      </trkpt>
      <trkpt lat="47.46515" lon="0.02914">
        <ele>90</ele>
        <time>2021-03-24T20:56:33Z</time>
      </trkpt>
      <trkpt lat="47.46527" lon="0.02844">
        <ele>90</ele>
        <time>2021-03-24T20:56:42Z</time>
      </trkpt>
      <trkpt lat="47.46541" lon="0.02756">
        <ele>91</ele>
        <time>2021-03-24T20:56:53Z</time>
      </trkpt>
      <trkpt lat="47.46557" lon="0.02652">
        <ele>90</ele>
        <time>2021-03-24T20:57:06Z</time>
      </trkpt>
      <trkpt lat="47.46572" lon="0.02551">
        <ele>89</ele>
        <time>2021-03-24T20:57:18Z</time>
      </trkpt>
      <trkpt lat="47.46577" lon="0.02515">
        <ele>89</ele>
        <time>2021-03-24T20:57:22Z</time>
      </trkpt>
      <trkpt lat="47.46588" lon="0.02448">
        <ele>90</ele>
        <time>2021-03-24T20:57:31Z</time>
      </trkpt>
      <trkpt lat="47.46606" lon="0.02343">
        <ele>90</ele>
        <time>2021-03-24T20:57:44Z</time>
      </trkpt>
      <trkpt lat="47.46615" lon="0.02281">
        <ele>90</ele>
        <time>2021-03-24T20:57:51Z</time>
      </trkpt>
      <trkpt lat="47.46617" lon="0.02265">
        <ele>90</ele>
        <time>2021-03-24T20:57:53Z</time>
      </trkpt>
      <trkpt lat="47.46618" lon="0.0225">
        <ele>90</ele>
        <time>2021-03-24T20:57:55Z</time>
      </trkpt>
      <trkpt lat="47.46618" lon="0.02234">
        <ele>90</ele>
        <time>2021-03-24T20:57:57Z</time>
      </trkpt>
      <trkpt lat="47.46619" lon="0.02217">
        <ele>90</ele>
        <time>2021-03-24T20:57:59Z</time>
      </trkpt>
      <trkpt lat="47.46618" lon="0.02208">
        <ele>90</ele>
        <time>2021-03-24T20:58:00Z</time>
      </trkpt>
      <trkpt lat="47.46613" lon="0.02179">
        <ele>90</ele>
        <time>2021-03-24T20:58:04Z</time>
      </trkpt>
      <trkpt lat="47.46603" lon="0.02144">
        <ele>89</ele>
        <time>2021-03-24T20:58:08Z</time>
      </trkpt>
      <trkpt lat="47.46589" lon="0.02104">
        <ele>88</ele>
        <time>2021-03-24T20:58:14Z</time>
      </trkpt>
      <trkpt lat="47.46575" lon="0.02068">
        <ele>87</ele>
        <time>2021-03-24T20:58:19Z</time>
      </trkpt>
      <trkpt lat="47.46551" lon="0.02034">
        <ele>87</ele>
        <time>2021-03-24T20:58:25Z</time>
      </trkpt>
      <trkpt lat="47.4652" lon="0.02">
        <ele>87</ele>
        <time>2021-03-24T20:58:32Z</time>
      </trkpt>
      <trkpt lat="47.46515" lon="0.01994">
        <ele>86</ele>
        <time>2021-03-24T20:58:33Z</time>
      </trkpt>
      <trkpt lat="47.46489" lon="0.01965">
        <ele>86</ele>
        <time>2021-03-24T20:58:39Z</time>
      </trkpt>
      <trkpt lat="47.4647" lon="0.01946">
        <ele>86</ele>
        <time>2021-03-24T20:58:43Z</time>
      </trkpt>
      <trkpt lat="47.46436" lon="0.0191">
        <ele>85</ele>
        <time>2021-03-24T20:58:50Z</time>
      </trkpt>
      <trkpt lat="47.4643" lon="0.01904">
        <ele>84</ele>
        <time>2021-03-24T20:58:51Z</time>
      </trkpt>
      <trkpt lat="47.46426" lon="0.01898">
        <ele>84</ele>
        <time>2021-03-24T20:58:52Z</time>
      </trkpt>
      <trkpt lat="47.46421" lon="0.01891">
        <ele>84</ele>
        <time>2021-03-24T20:58:54Z</time>
      </trkpt>
      <trkpt lat="47.46418" lon="0.01887">
        <ele>84</ele>
        <time>2021-03-24T20:58:54Z</time>
      </trkpt>
      <trkpt lat="47.46413" lon="0.01879">
        <ele>83</ele>
        <time>2021-03-24T20:58:56Z</time>
      </trkpt>
      <trkpt lat="47.46411" lon="0.01874">
        <ele>83</ele>
        <time>2021-03-24T20:58:56Z</time>
      </trkpt>
      <trkpt lat="47.46408" lon="0.01865">
        <ele>83</ele>
        <time>2021-03-24T20:58:58Z</time>
      </trkpt>
      <trkpt lat="47.46406" lon="0.01855">
        <ele>82</ele>
        <time>2021-03-24T20:58:59Z</time>
      </trkpt>
      <trkpt lat="47.46402" lon="0.0184">
        <ele>82</ele>
        <time>2021-03-24T20:59:01Z</time>
      </trkpt>
      <trkpt lat="47.464" lon="0.01828">
        <ele>81</ele>
        <time>2021-03-24T20:59:02Z</time>
      </trkpt>
      <trkpt lat="47.46396" lon="0.01809">
        <ele>80</ele>
        <time>2021-03-24T20:59:05Z</time>
      </trkpt>
      <trkpt lat="47.46396" lon="0.01806">
        <ele>80</ele>
        <time>2021-03-24T20:59:05Z</time>
      </trkpt>
      <trkpt lat="47.46392" lon="0.01766">
        <ele>77</ele>
        <time>2021-03-24T20:59:10Z</time>
      </trkpt>
      <trkpt lat="47.46391" lon="0.01739">
        <ele>75</ele>
        <time>2021-03-24T20:59:13Z</time>
      </trkpt>
      <trkpt lat="47.46391" lon="0.0173">
        <ele>75</ele>
        <time>2021-03-24T20:59:14Z</time>
      </trkpt>
      <trkpt lat="47.46392" lon="0.01721">
        <ele>74</ele>
        <time>2021-03-24T20:59:15Z</time>
      </trkpt>
      <trkpt lat="47.46393" lon="0.01716">
        <ele>73</ele>
        <time>2021-03-24T20:59:16Z</time>
      </trkpt>
      <trkpt lat="47.46396" lon="0.0171">
        <ele>73</ele>
        <time>2021-03-24T20:59:17Z</time>
      </trkpt>
      <trkpt lat="47.46398" lon="0.01705">
        <ele>72</ele>
        <time>2021-03-24T20:59:17Z</time>
      </trkpt>
      <trkpt lat="47.46401" lon="0.01701">
        <ele>71</ele>
        <time>2021-03-24T20:59:18Z</time>
      </trkpt>
      <trkpt lat="47.46404" lon="0.01698">
        <ele>71</ele>
        <time>2021-03-24T20:59:19Z</time>
      </trkpt>
      <trkpt lat="47.46408" lon="0.01695">
        <ele>70</ele>
        <time>2021-03-24T20:59:20Z</time>
      </trkpt>
      <trkpt lat="47.46408" lon="0.01695">
        <ele>70</ele>
        <time>2021-03-24T20:59:20Z</time>
      </trkpt>
      <trkpt lat="47.46422" lon="0.0169">
        <ele>69</ele>
        <time>2021-03-24T20:59:22Z</time>
      </trkpt>
      <trkpt lat="47.46443" lon="0.01689">
        <ele>68</ele>
        <time>2021-03-24T20:59:26Z</time>
      </trkpt>
      <trkpt lat="47.46469" lon="0.01688">
        <ele>66</ele>
        <time>2021-03-24T20:59:31Z</time>
      </trkpt>
      <trkpt lat="47.46492" lon="0.01685">
        <ele>65</ele>
        <time>2021-03-24T20:59:35Z</time>
      </trkpt>
      <trkpt lat="47.46494" lon="0.01685">
        <ele>65</ele>
        <time>2021-03-24T20:59:35Z</time>
      </trkpt>
      <trkpt lat="47.46509" lon="0.01681">
        <ele>64</ele>
        <time>2021-03-24T20:59:38Z</time>
      </trkpt>
      <trkpt lat="47.4652" lon="0.01676">
        <ele>63</ele>
        <time>2021-03-24T20:59:40Z</time>
      </trkpt>
      <trkpt lat="47.46525" lon="0.01672">
        <ele>62</ele>
        <time>2021-03-24T20:59:41Z</time>
      </trkpt>
      <trkpt lat="47.46528" lon="0.01669">
        <ele>62</ele>
        <time>2021-03-24T20:59:41Z</time>
      </trkpt>
      <trkpt lat="47.46533" lon="0.01665">
        <ele>62</ele>
        <time>2021-03-24T20:59:42Z</time>
      </trkpt>
      <trkpt lat="47.46537" lon="0.01661">
        <ele>62</ele>
        <time>2021-03-24T20:59:43Z</time>
      </trkpt>
      <trkpt lat="47.46548" lon="0.01649">
        <ele>62</ele>
        <time>2021-03-24T20:59:46Z</time>
      </trkpt>
      <trkpt lat="47.46558" lon="0.01636">
        <ele>62</ele>
        <time>2021-03-24T20:59:48Z</time>
      </trkpt>
      <trkpt lat="47.46574" lon="0.01607">
        <ele>62</ele>
        <time>2021-03-24T20:59:53Z</time>
      </trkpt>
      <trkpt lat="47.46592" lon="0.0157">
        <ele>64</ele>
        <time>2021-03-24T20:59:58Z</time>
      </trkpt>
      <trkpt lat="47.46613" lon="0.01527">
        <ele>65</ele>
        <time>2021-03-24T21:00:05Z</time>
      </trkpt>
      <trkpt lat="47.46613" lon="0.01527">
        <ele>65</ele>
        <time>2021-03-24T21:00:05Z</time>
      </trkpt>
      <trkpt lat="47.46638" lon="0.0156">
        <ele>65</ele>
        <time>2021-03-24T21:00:10Z</time>
      </trkpt>
      <trkpt lat="47.46644" lon="0.01567">
        <ele>65</ele>
        <time>2021-03-24T21:00:12Z</time>
      </trkpt>
      <trkpt lat="47.46651" lon="0.01576">
        <ele>65</ele>
        <time>2021-03-24T21:00:13Z</time>
      </trkpt>
      <trkpt lat="47.46658" lon="0.01584">
        <ele>65</ele>
        <time>2021-03-24T21:00:15Z</time>
      </trkpt>
      <trkpt lat="47.4667" lon="0.01596">
        <ele>65</ele>
        <time>2021-03-24T21:00:18Z</time>
      </trkpt>
      <trkpt lat="47.46674" lon="0.016">
        <ele>65</ele>
        <time>2021-03-24T21:00:18Z</time>
      </trkpt>
      <trkpt lat="47.46682" lon="0.01607">
        <ele>66</ele>
        <time>2021-03-24T21:00:20Z</time>
      </trkpt>
      <trkpt lat="47.46694" lon="0.01615">
        <ele>66</ele>
        <time>2021-03-24T21:00:22Z</time>
      </trkpt>
      <trkpt lat="47.46697" lon="0.01618">
        <ele>66</ele>
        <time>2021-03-24T21:00:23Z</time>
      </trkpt>
      <trkpt lat="47.46706" lon="0.01625">
        <ele>67</ele>
        <time>2021-03-24T21:00:25Z</time>
      </trkpt>
      <trkpt lat="47.46712" lon="0.01628">
        <ele>67</ele>
        <time>2021-03-24T21:00:26Z</time>
      </trkpt>
      <trkpt lat="47.46718" lon="0.01632">
        <ele>68</ele>
        <time>2021-03-24T21:00:27Z</time>
      </trkpt>
      <trkpt lat="47.46726" lon="0.01636">
        <ele>68</ele>
        <time>2021-03-24T21:00:29Z</time>
      </trkpt>
      <trkpt lat="47.46727" lon="0.01634">
        <ele>68</ele>
        <time>2021-03-24T21:00:29Z</time>
      </trkpt>
      <trkpt lat="47.46728" lon="0.01633">
        <ele>68</ele>
        <time>2021-03-24T21:00:29Z</time>
      </trkpt>
      <trkpt lat="47.46728" lon="0.01632">
        <ele>68</ele>
        <time>2021-03-24T21:00:29Z</time>
      </trkpt>
      <trkpt lat="47.46729" lon="0.01631">
        <ele>68</ele>
        <time>2021-03-24T21:00:30Z</time>
      </trkpt>
      <trkpt lat="47.4673" lon="0.0163">
        <ele>68</ele>
        <time>2021-03-24T21:00:30Z</time>
      </trkpt>
      <trkpt lat="47.46732" lon="0.01629">
        <ele>68</ele>
        <time>2021-03-24T21:00:30Z</time>
      </trkpt>
      <trkpt lat="47.46737" lon="0.01626">
        <ele>68</ele>
        <time>2021-03-24T21:00:31Z</time>
      </trkpt>
      <trkpt lat="47.46755" lon="0.01613">
        <ele>69</ele>
        <time>2021-03-24T21:00:35Z</time>
      </trkpt>
      <trkpt lat="47.46779" lon="0.01596">
        <ele>70</ele>
        <time>2021-03-24T21:00:39Z</time>
      </trkpt>
      <trkpt lat="47.46779" lon="0.01596">
        <ele>70</ele>
        <time>2021-03-24T21:00:39Z</time>
      </trkpt>
      <trkpt lat="47.46792" lon="0.01552">
        <ele>70</ele>
        <time>2021-03-24T21:00:45Z</time>
      </trkpt>
      <trkpt lat="47.468" lon="0.01526">
        <ele>71</ele>
        <time>2021-03-24T21:00:49Z</time>
      </trkpt>
      <trkpt lat="47.46804" lon="0.01517">
        <ele>71</ele>
        <time>2021-03-24T21:00:50Z</time>
      </trkpt>
      <trkpt lat="47.46808" lon="0.01509">
        <ele>71</ele>
        <time>2021-03-24T21:00:51Z</time>
      </trkpt>
      <trkpt lat="47.46812" lon="0.01502">
        <ele>71</ele>
        <time>2021-03-24T21:00:52Z</time>
      </trkpt>
      <trkpt lat="47.46816" lon="0.01497">
        <ele>71</ele>
        <time>2021-03-24T21:00:53Z</time>
      </trkpt>
      <trkpt lat="47.46823" lon="0.01489">
        <ele>71</ele>
        <time>2021-03-24T21:00:55Z</time>
      </trkpt>
      <trkpt lat="47.46828" lon="0.01486">
        <ele>72</ele>
        <time>2021-03-24T21:00:56Z</time>
      </trkpt>
      <trkpt lat="47.46832" lon="0.01483">
        <ele>72</ele>
        <time>2021-03-24T21:00:57Z</time>
      </trkpt>
      <trkpt lat="47.46854" lon="0.01471">
        <ele>74</ele>
        <time>2021-03-24T21:01:01Z</time>
      </trkpt>
      <trkpt lat="47.46879" lon="0.01458">
        <ele>75</ele>
        <time>2021-03-24T21:01:05Z</time>
      </trkpt>
      <trkpt lat="47.46889" lon="0.01452">
        <ele>76</ele>
        <time>2021-03-24T21:01:07Z</time>
      </trkpt>
      <trkpt lat="47.46893" lon="0.01448">
        <ele>77</ele>
        <time>2021-03-24T21:01:08Z</time>
      </trkpt>
      <trkpt lat="47.46897" lon="0.01444">
        <ele>77</ele>
        <time>2021-03-24T21:01:09Z</time>
      </trkpt>
      <trkpt lat="47.46901" lon="0.01438">
        <ele>77</ele>
        <time>2021-03-24T21:01:10Z</time>
      </trkpt>
      <trkpt lat="47.46904" lon="0.01433">
        <ele>78</ele>
        <time>2021-03-24T21:01:11Z</time>
      </trkpt>
      <trkpt lat="47.46907" lon="0.01425">
        <ele>78</ele>
        <time>2021-03-24T21:01:12Z</time>
      </trkpt>
      <trkpt lat="47.46908" lon="0.01419">
        <ele>79</ele>
        <time>2021-03-24T21:01:13Z</time>
      </trkpt>
      <trkpt lat="47.4691" lon="0.01412">
        <ele>79</ele>
        <time>2021-03-24T21:01:14Z</time>
      </trkpt>
      <trkpt lat="47.46912" lon="0.01407">
        <ele>79</ele>
        <time>2021-03-24T21:01:14Z</time>
      </trkpt>
      <trkpt lat="47.46912" lon="0.01395">
        <ele>80</ele>
        <time>2021-03-24T21:01:16Z</time>
      </trkpt>
      <trkpt lat="47.46912" lon="0.01357">
        <ele>82</ele>
        <time>2021-03-24T21:01:20Z</time>
      </trkpt>
      <trkpt lat="47.46913" lon="0.01333">
        <ele>83</ele>
        <time>2021-03-24T21:01:23Z</time>
      </trkpt>
      <trkpt lat="47.46915" lon="0.01322">
        <ele>83</ele>
        <time>2021-03-24T21:01:25Z</time>
      </trkpt>
      <trkpt lat="47.46916" lon="0.01311">
        <ele>84</ele>
        <time>2021-03-24T21:01:26Z</time>
      </trkpt>
      <trkpt lat="47.46919" lon="0.01298">
        <ele>84</ele>
        <time>2021-03-24T21:01:28Z</time>
      </trkpt>
      <trkpt lat="47.46922" lon="0.01286">
        <ele>84</ele>
        <time>2021-03-24T21:01:29Z</time>
      </trkpt>
      <trkpt lat="47.46927" lon="0.01269">
        <ele>84</ele>
        <time>2021-03-24T21:01:31Z</time>
      </trkpt>
      <trkpt lat="47.46941" lon="0.01219">
        <ele>86</ele>
        <time>2021-03-24T21:01:38Z</time>
      </trkpt>
      <trkpt lat="47.46956" lon="0.01168">
        <ele>87</ele>
        <time>2021-03-24T21:01:45Z</time>
      </trkpt>
      <trkpt lat="47.46973" lon="0.01118">
        <ele>88</ele>
        <time>2021-03-24T21:01:51Z</time>
      </trkpt>
      <trkpt lat="47.4698" lon="0.01098">
        <ele>88</ele>
        <time>2021-03-24T21:01:54Z</time>
      </trkpt>
      <trkpt lat="47.46984" lon="0.01087">
        <ele>88</ele>
        <time>2021-03-24T21:01:55Z</time>
      </trkpt>
      <trkpt lat="47.47002" lon="0.01029">
        <ele>89</ele>
        <time>2021-03-24T21:02:03Z</time>
      </trkpt>
      <trkpt lat="47.47017" lon="0.00983">
        <ele>89</ele>
        <time>2021-03-24T21:02:09Z</time>
      </trkpt>
      <trkpt lat="47.47022" lon="0.00968">
        <ele>89</ele>
        <time>2021-03-24T21:02:11Z</time>
      </trkpt>
      <trkpt lat="47.47026" lon="0.00957">
        <ele>89</ele>
        <time>2021-03-24T21:02:13Z</time>
      </trkpt>
      <trkpt lat="47.47032" lon="0.0094">
        <ele>89</ele>
        <time>2021-03-24T21:02:15Z</time>
      </trkpt>
      <trkpt lat="47.47042" lon="0.00921">
        <ele>89</ele>
        <time>2021-03-24T21:02:18Z</time>
      </trkpt>
      <trkpt lat="47.47072" lon="0.00859">
        <ele>91</ele>
        <time>2021-03-24T21:02:27Z</time>
      </trkpt>
      <trkpt lat="47.47122" lon="0.00761">
        <ele>92</ele>
        <time>2021-03-24T21:02:42Z</time>
      </trkpt>
      <trkpt lat="47.47133" lon="0.00738">
        <ele>92</ele>
        <time>2021-03-24T21:02:45Z</time>
      </trkpt>
      <trkpt lat="47.4717" lon="0.00663">
        <ele>95</ele>
        <time>2021-03-24T21:02:57Z</time>
      </trkpt>
      <trkpt lat="47.47186" lon="0.00633">
        <ele>95</ele>
        <time>2021-03-24T21:03:01Z</time>
      </trkpt>
      <trkpt lat="47.47199" lon="0.00605">
        <ele>95</ele>
        <time>2021-03-24T21:03:05Z</time>
      </trkpt>
      <trkpt lat="47.47236" lon="0.00532">
        <ele>95</ele>
        <time>2021-03-24T21:03:16Z</time>
      </trkpt>
      <trkpt lat="47.47271" lon="0.00461">
        <ele>95</ele>
        <time>2021-03-24T21:03:27Z</time>
      </trkpt>
      <trkpt lat="47.47291" lon="0.0042">
        <ele>96</ele>
        <time>2021-03-24T21:03:33Z</time>
      </trkpt>
      <trkpt lat="47.47313" lon="0.00375">
        <ele>96</ele>
        <time>2021-03-24T21:03:40Z</time>
      </trkpt>
      <trkpt lat="47.47378" lon="0.00243">
        <ele>96</ele>
        <time>2021-03-24T21:03:59Z</time>
      </trkpt>
      <trkpt lat="47.47403" lon="0.00193">
        <ele>96</ele>
        <time>2021-03-24T21:04:07Z</time>
      </trkpt>
      <trkpt lat="47.47408" lon="0.00183">
        <ele>95</ele>
        <time>2021-03-24T21:04:08Z</time>
      </trkpt>
      <trkpt lat="47.47408" lon="0.00182">
        <ele>95</ele>
        <time>2021-03-24T21:04:08Z</time>
      </trkpt>
      <trkpt lat="47.47468" lon="0.00063">
        <ele>96</ele>
        <time>2021-03-24T21:04:26Z</time>
      </trkpt>
      <trkpt lat="47.47508" lon="-0.00018">
        <ele>95</ele>
        <time>2021-03-24T21:04:38Z</time>
      </trkpt>
      <trkpt lat="47.47521" lon="-0.00043">
        <ele>96</ele>
        <time>2021-03-24T21:04:42Z</time>
      </trkpt>
      <trkpt lat="47.47526" lon="-0.00055">
        <ele>96</ele>
        <time>2021-03-24T21:04:44Z</time>
      </trkpt>
      <trkpt lat="47.47532" lon="-0.00066">
        <ele>96</ele>
        <time>2021-03-24T21:04:45Z</time>
      </trkpt>
      <trkpt lat="47.47537" lon="-0.00077">
        <ele>96</ele>
        <time>2021-03-24T21:04:47Z</time>
      </trkpt>
      <trkpt lat="47.47542" lon="-0.0009">
        <ele>97</ele>
        <time>2021-03-24T21:04:49Z</time>
      </trkpt>
      <trkpt lat="47.47546" lon="-0.00101">
        <ele>97</ele>
        <time>2021-03-24T21:04:50Z</time>
      </trkpt>
      <trkpt lat="47.47558" lon="-0.00131">
        <ele>97</ele>
        <time>2021-03-24T21:04:54Z</time>
      </trkpt>
      <trkpt lat="47.47576" lon="-0.00178">
        <ele>98</ele>
        <time>2021-03-24T21:05:01Z</time>
      </trkpt>
      <trkpt lat="47.47594" lon="-0.00225">
        <ele>98</ele>
        <time>2021-03-24T21:05:07Z</time>
      </trkpt>
      <trkpt lat="47.4762" lon="-0.00293">
        <ele>99</ele>
        <time>2021-03-24T21:05:17Z</time>
      </trkpt>
      <trkpt lat="47.47645" lon="-0.00357">
        <ele>99</ele>
        <time>2021-03-24T21:05:26Z</time>
      </trkpt>
      <trkpt lat="47.4765" lon="-0.00368">
        <ele>99</ele>
        <time>2021-03-24T21:05:27Z</time>
      </trkpt>
      <trkpt lat="47.47656" lon="-0.00384">
        <ele>99</ele>
        <time>2021-03-24T21:05:30Z</time>
      </trkpt>
      <trkpt lat="47.47662" lon="-0.004">
        <ele>99</ele>
        <time>2021-03-24T21:05:32Z</time>
      </trkpt>
      <trkpt lat="47.47673" lon="-0.00428">
        <ele>99</ele>
        <time>2021-03-24T21:05:36Z</time>
      </trkpt>
      <trkpt lat="47.4768" lon="-0.00447">
        <ele>99</ele>
        <time>2021-03-24T21:05:38Z</time>
      </trkpt>
      <trkpt lat="47.47701" lon="-0.005">
        <ele>99</ele>
        <time>2021-03-24T21:05:46Z</time>
      </trkpt>
      <trkpt lat="47.47728" lon="-0.00569">
        <ele>101</ele>
        <time>2021-03-24T21:05:55Z</time>
      </trkpt>
      <trkpt lat="47.47735" lon="-0.00586">
        <ele>101</ele>
        <time>2021-03-24T21:05:58Z</time>
      </trkpt>
      <trkpt lat="47.47761" lon="-0.00653">
        <ele>101</ele>
        <time>2021-03-24T21:06:07Z</time>
      </trkpt>
      <trkpt lat="47.47777" lon="-0.00692">
        <ele>101</ele>
        <time>2021-03-24T21:06:12Z</time>
      </trkpt>
      <trkpt lat="47.47802" lon="-0.00754">
        <ele>100</ele>
        <time>2021-03-24T21:06:21Z</time>
      </trkpt>
      <trkpt lat="47.47804" lon="-0.00761">
        <ele>100</ele>
        <time>2021-03-24T21:06:22Z</time>
      </trkpt>
      <trkpt lat="47.47812" lon="-0.0078">
        <ele>99</ele>
        <time>2021-03-24T21:06:25Z</time>
      </trkpt>
      <trkpt lat="47.47837" lon="-0.00844">
        <ele>98</ele>
        <time>2021-03-24T21:06:34Z</time>
      </trkpt>
      <trkpt lat="47.47879" lon="-0.0095">
        <ele>96</ele>
        <time>2021-03-24T21:06:48Z</time>
      </trkpt>
      <trkpt lat="47.47896" lon="-0.00996">
        <ele>94</ele>
        <time>2021-03-24T21:06:55Z</time>
      </trkpt>
      <trkpt lat="47.47916" lon="-0.01043">
        <ele>94</ele>
        <time>2021-03-24T21:07:01Z</time>
      </trkpt>
      <trkpt lat="47.4792" lon="-0.01054">
        <ele>94</ele>
        <time>2021-03-24T21:07:03Z</time>
      </trkpt>
      <trkpt lat="47.47934" lon="-0.01088">
        <ele>95</ele>
        <time>2021-03-24T21:07:08Z</time>
      </trkpt>
      <trkpt lat="47.47949" lon="-0.01126">
        <ele>95</ele>
        <time>2021-03-24T21:07:13Z</time>
      </trkpt>
      <trkpt lat="47.47953" lon="-0.01138">
        <ele>95</ele>
        <time>2021-03-24T21:07:14Z</time>
      </trkpt>
      <trkpt lat="47.47964" lon="-0.01167">
        <ele>95</ele>
        <time>2021-03-24T21:07:18Z</time>
      </trkpt>
      <trkpt lat="47.47973" lon="-0.0119">
        <ele>95</ele>
        <time>2021-03-24T21:07:22Z</time>
      </trkpt>
      <trkpt lat="47.4799" lon="-0.01234">
        <ele>95</ele>
        <time>2021-03-24T21:07:28Z</time>
      </trkpt>
      <trkpt lat="47.47997" lon="-0.01252">
        <ele>95</ele>
        <time>2021-03-24T21:07:30Z</time>
      </trkpt>
      <trkpt lat="47.48" lon="-0.01258">
        <ele>95</ele>
        <time>2021-03-24T21:07:31Z</time>
      </trkpt>
      <trkpt lat="47.48012" lon="-0.01286">
        <ele>95</ele>
        <time>2021-03-24T21:07:35Z</time>
      </trkpt>
      <trkpt lat="47.48041" lon="-0.01363">
        <ele>95</ele>
        <time>2021-03-24T21:07:46Z</time>
      </trkpt>
      <trkpt lat="47.48079" lon="-0.01458">
        <ele>95</ele>
        <time>2021-03-24T21:07:59Z</time>
      </trkpt>
      <trkpt lat="47.48103" lon="-0.0152">
        <ele>96</ele>
        <time>2021-03-24T21:08:08Z</time>
      </trkpt>
      <trkpt lat="47.48105" lon="-0.01525">
        <ele>96</ele>
        <time>2021-03-24T21:08:08Z</time>
      </trkpt>
      <trkpt lat="47.48112" lon="-0.01544">
        <ele>97</ele>
        <time>2021-03-24T21:08:11Z</time>
      </trkpt>
      <trkpt lat="47.48147" lon="-0.01632">
        <ele>99</ele>
        <time>2021-03-24T21:08:23Z</time>
      </trkpt>
      <trkpt lat="47.48181" lon="-0.01719">
        <ele>101</ele>
        <time>2021-03-24T21:08:35Z</time>
      </trkpt>
      <trkpt lat="47.48213" lon="-0.01798">
        <ele>103</ele>
        <time>2021-03-24T21:08:46Z</time>
      </trkpt>
      <trkpt lat="47.48216" lon="-0.01806">
        <ele>103</ele>
        <time>2021-03-24T21:08:47Z</time>
      </trkpt>
      <trkpt lat="47.48227" lon="-0.01833">
        <ele>104</ele>
        <time>2021-03-24T21:08:51Z</time>
      </trkpt>
      <trkpt lat="47.48276" lon="-0.01961">
        <ele>108</ele>
        <time>2021-03-24T21:09:09Z</time>
      </trkpt>
      <trkpt lat="47.4833" lon="-0.02097">
        <ele>110</ele>
        <time>2021-03-24T21:09:28Z</time>
      </trkpt>
      <trkpt lat="47.48355" lon="-0.02161">
        <ele>109</ele>
        <time>2021-03-24T21:09:37Z</time>
      </trkpt>
      <trkpt lat="47.48362" lon="-0.02179">
        <ele>108</ele>
        <time>2021-03-24T21:09:39Z</time>
      </trkpt>
      <trkpt lat="47.48379" lon="-0.02223">
        <ele>107</ele>
        <time>2021-03-24T21:09:45Z</time>
      </trkpt>
      <trkpt lat="47.48391" lon="-0.02252">
        <ele>105</ele>
        <time>2021-03-24T21:09:49Z</time>
      </trkpt>
      <trkpt lat="47.48419" lon="-0.02323">
        <ele>106</ele>
        <time>2021-03-24T21:09:59Z</time>
      </trkpt>
      <trkpt lat="47.48453" lon="-0.02407">
        <ele>106</ele>
        <time>2021-03-24T21:10:11Z</time>
      </trkpt>
      <trkpt lat="47.48466" lon="-0.0244">
        <ele>105</ele>
        <time>2021-03-24T21:10:16Z</time>
      </trkpt>
      <trkpt lat="47.48476" lon="-0.02464">
        <ele>104</ele>
        <time>2021-03-24T21:10:19Z</time>
      </trkpt>
      <trkpt lat="47.48507" lon="-0.02536">
        <ele>102</ele>
        <time>2021-03-24T21:10:29Z</time>
      </trkpt>
      <trkpt lat="47.48546" lon="-0.02628">
        <ele>101</ele>
        <time>2021-03-24T21:10:42Z</time>
      </trkpt>
      <trkpt lat="47.48547" lon="-0.02632">
        <ele>101</ele>
        <time>2021-03-24T21:10:43Z</time>
      </trkpt>
      <trkpt lat="47.48558" lon="-0.02659">
        <ele>100</ele>
        <time>2021-03-24T21:10:47Z</time>
      </trkpt>
      <trkpt lat="47.48568" lon="-0.02683">
        <ele>99</ele>
        <time>2021-03-24T21:10:50Z</time>
      </trkpt>
      <trkpt lat="47.48573" lon="-0.02695">
        <ele>99</ele>
        <time>2021-03-24T21:10:52Z</time>
      </trkpt>
      <trkpt lat="47.48585" lon="-0.02724">
        <ele>99</ele>
        <time>2021-03-24T21:10:56Z</time>
      </trkpt>
      <trkpt lat="47.48604" lon="-0.02772">
        <ele>99</ele>
        <time>2021-03-24T21:11:03Z</time>
      </trkpt>
      <trkpt lat="47.48609" lon="-0.02784">
        <ele>99</ele>
        <time>2021-03-24T21:11:04Z</time>
      </trkpt>
      <trkpt lat="47.4882" lon="-0.0329">
        <ele>81</ele>
        <time>2021-03-24T21:12:16Z</time>
      </trkpt>
      <trkpt lat="47.4883" lon="-0.03315">
        <ele>79</ele>
        <time>2021-03-24T21:12:19Z</time>
      </trkpt>
      <trkpt lat="47.48834" lon="-0.03325">
        <ele>79</ele>
        <time>2021-03-24T21:12:21Z</time>
      </trkpt>
      <trkpt lat="47.48841" lon="-0.03341">
        <ele>79</ele>
        <time>2021-03-24T21:12:23Z</time>
      </trkpt>
      <trkpt lat="47.48851" lon="-0.03367">
        <ele>80</ele>
        <time>2021-03-24T21:12:27Z</time>
      </trkpt>
      <trkpt lat="47.48862" lon="-0.03392">
        <ele>81</ele>
        <time>2021-03-24T21:12:30Z</time>
      </trkpt>
      <trkpt lat="47.48868" lon="-0.03408">
        <ele>82</ele>
        <time>2021-03-24T21:12:32Z</time>
      </trkpt>
      <trkpt lat="47.48881" lon="-0.03438">
        <ele>81</ele>
        <time>2021-03-24T21:12:37Z</time>
      </trkpt>
      <trkpt lat="47.48887" lon="-0.03453">
        <ele>81</ele>
        <time>2021-03-24T21:12:39Z</time>
      </trkpt>
      <trkpt lat="47.48894" lon="-0.03471">
        <ele>80</ele>
        <time>2021-03-24T21:12:41Z</time>
      </trkpt>
      <trkpt lat="47.48902" lon="-0.03491">
        <ele>79</ele>
        <time>2021-03-24T21:12:44Z</time>
      </trkpt>
      <trkpt lat="47.48914" lon="-0.0352">
        <ele>79</ele>
        <time>2021-03-24T21:12:48Z</time>
      </trkpt>
      <trkpt lat="47.48924" lon="-0.03544">
        <ele>79</ele>
        <time>2021-03-24T21:12:52Z</time>
      </trkpt>
      <trkpt lat="47.48934" lon="-0.03568">
        <ele>79</ele>
        <time>2021-03-24T21:12:55Z</time>
      </trkpt>
      <trkpt lat="47.48945" lon="-0.03596">
        <ele>79</ele>
        <time>2021-03-24T21:12:59Z</time>
      </trkpt>
      <trkpt lat="47.48961" lon="-0.03634">
        <ele>78</ele>
        <time>2021-03-24T21:13:04Z</time>
      </trkpt>
      <trkpt lat="47.48973" lon="-0.03664">
        <ele>78</ele>
        <time>2021-03-24T21:13:08Z</time>
      </trkpt>
      <trkpt lat="47.48995" lon="-0.03718">
        <ele>77</ele>
        <time>2021-03-24T21:13:16Z</time>
      </trkpt>
      <trkpt lat="47.49007" lon="-0.03749">
        <ele>77</ele>
        <time>2021-03-24T21:13:20Z</time>
      </trkpt>
      <trkpt lat="47.49022" lon="-0.03784">
        <ele>76</ele>
        <time>2021-03-24T21:13:25Z</time>
      </trkpt>
      <trkpt lat="47.49034" lon="-0.03814">
        <ele>75</ele>
        <time>2021-03-24T21:13:29Z</time>
      </trkpt>
      <trkpt lat="47.49051" lon="-0.03855">
        <ele>73</ele>
        <time>2021-03-24T21:13:35Z</time>
      </trkpt>
      <trkpt lat="47.49054" lon="-0.03861">
        <ele>72</ele>
        <time>2021-03-24T21:13:36Z</time>
      </trkpt>
      <trkpt lat="47.49057" lon="-0.0387">
        <ele>72</ele>
        <time>2021-03-24T21:13:37Z</time>
      </trkpt>
      <trkpt lat="47.49074" lon="-0.03911">
        <ele>69</ele>
        <time>2021-03-24T21:13:43Z</time>
      </trkpt>
      <trkpt lat="47.4909" lon="-0.0395">
        <ele>68</ele>
        <time>2021-03-24T21:13:49Z</time>
      </trkpt>
      <trkpt lat="47.49126" lon="-0.04036">
        <ele>68</ele>
        <time>2021-03-24T21:14:01Z</time>
      </trkpt>
      <trkpt lat="47.49136" lon="-0.0406">
        <ele>68</ele>
        <time>2021-03-24T21:14:04Z</time>
      </trkpt>
      <trkpt lat="47.49144" lon="-0.0408">
        <ele>68</ele>
        <time>2021-03-24T21:14:07Z</time>
      </trkpt>
      <trkpt lat="47.49158" lon="-0.04114">
        <ele>68</ele>
        <time>2021-03-24T21:14:12Z</time>
      </trkpt>
      <trkpt lat="47.49167" lon="-0.04135">
        <ele>67</ele>
        <time>2021-03-24T21:14:15Z</time>
      </trkpt>
      <trkpt lat="47.4919" lon="-0.04192">
        <ele>68</ele>
        <time>2021-03-24T21:14:23Z</time>
      </trkpt>
      <trkpt lat="47.49217" lon="-0.04255">
        <ele>68</ele>
        <time>2021-03-24T21:14:32Z</time>
      </trkpt>
      <trkpt lat="47.49242" lon="-0.04317">
        <ele>67</ele>
        <time>2021-03-24T21:14:40Z</time>
      </trkpt>
      <trkpt lat="47.49269" lon="-0.04382">
        <ele>66</ele>
        <time>2021-03-24T21:14:50Z</time>
      </trkpt>
      <trkpt lat="47.493" lon="-0.04456">
        <ele>65</ele>
        <time>2021-03-24T21:15:00Z</time>
      </trkpt>
      <trkpt lat="47.49307" lon="-0.04475">
        <ele>65</ele>
        <time>2021-03-24T21:15:03Z</time>
      </trkpt>
      <trkpt lat="47.49326" lon="-0.04519">
        <ele>64</ele>
        <time>2021-03-24T21:15:09Z</time>
      </trkpt>
      <trkpt lat="47.49342" lon="-0.04554">
        <ele>63</ele>
        <time>2021-03-24T21:15:14Z</time>
      </trkpt>
      <trkpt lat="47.49351" lon="-0.04572">
        <ele>63</ele>
        <time>2021-03-24T21:15:17Z</time>
      </trkpt>
      <trkpt lat="47.49357" lon="-0.0458">
        <ele>62</ele>
        <time>2021-03-24T21:15:18Z</time>
      </trkpt>
      <trkpt lat="47.49361" lon="-0.04584">
        <ele>62</ele>
        <time>2021-03-24T21:15:19Z</time>
      </trkpt>
      <trkpt lat="47.4937" lon="-0.04593">
        <ele>62</ele>
        <time>2021-03-24T21:15:21Z</time>
      </trkpt>
      <trkpt lat="47.49387" lon="-0.04607">
        <ele>61</ele>
        <time>2021-03-24T21:15:24Z</time>
      </trkpt>
      <trkpt lat="47.4939" lon="-0.0461">
        <ele>61</ele>
        <time>2021-03-24T21:15:25Z</time>
      </trkpt>
      <trkpt lat="47.49398" lon="-0.04616">
        <ele>61</ele>
        <time>2021-03-24T21:15:27Z</time>
      </trkpt>
      <trkpt lat="47.49406" lon="-0.04624">
        <ele>61</ele>
        <time>2021-03-24T21:15:28Z</time>
      </trkpt>
      <trkpt lat="47.49409" lon="-0.04626">
        <ele>61</ele>
        <time>2021-03-24T21:15:29Z</time>
      </trkpt>
      <trkpt lat="47.49417" lon="-0.04634">
        <ele>60</ele>
        <time>2021-03-24T21:15:31Z</time>
      </trkpt>
      <trkpt lat="47.49434" lon="-0.04649">
        <ele>61</ele>
        <time>2021-03-24T21:15:34Z</time>
      </trkpt>
      <trkpt lat="47.49458" lon="-0.04671">
        <ele>62</ele>
        <time>2021-03-24T21:15:39Z</time>
      </trkpt>
      <trkpt lat="47.49468" lon="-0.04679">
        <ele>62</ele>
        <time>2021-03-24T21:15:41Z</time>
      </trkpt>
      <trkpt lat="47.49475" lon="-0.04685">
        <ele>62</ele>
        <time>2021-03-24T21:15:43Z</time>
      </trkpt>
      <trkpt lat="47.49494" lon="-0.04702">
        <ele>63</ele>
        <time>2021-03-24T21:15:47Z</time>
      </trkpt>
      <trkpt lat="47.49503" lon="-0.0471">
        <ele>63</ele>
        <time>2021-03-24T21:15:48Z</time>
      </trkpt>
      <trkpt lat="47.49527" lon="-0.04732">
        <ele>65</ele>
        <time>2021-03-24T21:15:53Z</time>
      </trkpt>
      <trkpt lat="47.49539" lon="-0.04743">
        <ele>66</ele>
        <time>2021-03-24T21:15:56Z</time>
      </trkpt>
      <trkpt lat="47.49546" lon="-0.0475">
        <ele>66</ele>
        <time>2021-03-24T21:15:57Z</time>
      </trkpt>
      <trkpt lat="47.49555" lon="-0.04757">
        <ele>67</ele>
        <time>2021-03-24T21:15:59Z</time>
      </trkpt>
      <trkpt lat="47.4956" lon="-0.04762">
        <ele>67</ele>
        <time>2021-03-24T21:16:00Z</time>
      </trkpt>
      <trkpt lat="47.49563" lon="-0.04764">
        <ele>67</ele>
        <time>2021-03-24T21:16:01Z</time>
      </trkpt>
      <trkpt lat="47.49566" lon="-0.04767">
        <ele>68</ele>
        <time>2021-03-24T21:16:02Z</time>
      </trkpt>
      <trkpt lat="47.49569" lon="-0.04769">
        <ele>68</ele>
        <time>2021-03-24T21:16:02Z</time>
      </trkpt>
      <trkpt lat="47.49573" lon="-0.04772">
        <ele>68</ele>
        <time>2021-03-24T21:16:03Z</time>
      </trkpt>
      <trkpt lat="47.49576" lon="-0.04774">
        <ele>68</ele>
        <time>2021-03-24T21:16:04Z</time>
      </trkpt>
      <trkpt lat="47.4958" lon="-0.04778">
        <ele>68</ele>
        <time>2021-03-24T21:16:04Z</time>
      </trkpt>
      <trkpt lat="47.49586" lon="-0.04781">
        <ele>69</ele>
        <time>2021-03-24T21:16:06Z</time>
      </trkpt>
      <trkpt lat="47.49595" lon="-0.04786">
        <ele>69</ele>
        <time>2021-03-24T21:16:07Z</time>
      </trkpt>
      <trkpt lat="47.4961" lon="-0.04796">
        <ele>70</ele>
        <time>2021-03-24T21:16:10Z</time>
      </trkpt>
      <trkpt lat="47.49648" lon="-0.04818">
        <ele>72</ele>
        <time>2021-03-24T21:16:17Z</time>
      </trkpt>
      <trkpt lat="47.4967" lon="-0.0483">
        <ele>73</ele>
        <time>2021-03-24T21:16:22Z</time>
      </trkpt>
      <trkpt lat="47.49686" lon="-0.04839">
        <ele>73</ele>
        <time>2021-03-24T21:16:25Z</time>
      </trkpt>
      <trkpt lat="47.49712" lon="-0.04854">
        <ele>74</ele>
        <time>2021-03-24T21:16:30Z</time>
      </trkpt>
      <trkpt lat="47.49734" lon="-0.04865">
        <ele>75</ele>
        <time>2021-03-24T21:16:34Z</time>
      </trkpt>
      <trkpt lat="47.49776" lon="-0.04888">
        <ele>75</ele>
        <time>2021-03-24T21:16:42Z</time>
      </trkpt>
      <trkpt lat="47.49821" lon="-0.04912">
        <ele>75</ele>
        <time>2021-03-24T21:16:50Z</time>
      </trkpt>
      <trkpt lat="47.49822" lon="-0.04912">
        <ele>75</ele>
        <time>2021-03-24T21:16:50Z</time>
      </trkpt>
      <trkpt lat="47.49832" lon="-0.04917">
        <ele>75</ele>
        <time>2021-03-24T21:16:52Z</time>
      </trkpt>
      <trkpt lat="47.49839" lon="-0.04921">
        <ele>75</ele>
        <time>2021-03-24T21:16:54Z</time>
      </trkpt>
      <trkpt lat="47.49871" lon="-0.04939">
        <ele>75</ele>
        <time>2021-03-24T21:17:00Z</time>
      </trkpt>
      <trkpt lat="47.499" lon="-0.04955">
        <ele>76</ele>
        <time>2021-03-24T21:17:05Z</time>
      </trkpt>
      <trkpt lat="47.49914" lon="-0.04964">
        <ele>77</ele>
        <time>2021-03-24T21:17:08Z</time>
      </trkpt>
      <trkpt lat="47.49923" lon="-0.0497">
        <ele>77</ele>
        <time>2021-03-24T21:17:10Z</time>
      </trkpt>
      <trkpt lat="47.49941" lon="-0.04981">
        <ele>77</ele>
        <time>2021-03-24T21:17:13Z</time>
      </trkpt>
      <trkpt lat="47.49952" lon="-0.04988">
        <ele>77</ele>
        <time>2021-03-24T21:17:15Z</time>
      </trkpt>
      <trkpt lat="47.49973" lon="-0.05">
        <ele>77</ele>
        <time>2021-03-24T21:17:19Z</time>
      </trkpt>
      <trkpt lat="47.49982" lon="-0.05006">
        <ele>77</ele>
        <time>2021-03-24T21:17:21Z</time>
      </trkpt>
      <trkpt lat="47.49993" lon="-0.05015">
        <ele>77</ele>
        <time>2021-03-24T21:17:23Z</time>
      </trkpt>
      <trkpt lat="47.50023" lon="-0.0504">
        <ele>77</ele>
        <time>2021-03-24T21:17:29Z</time>
      </trkpt>
      <trkpt lat="47.50028" lon="-0.05044">
        <ele>77</ele>
        <time>2021-03-24T21:17:30Z</time>
      </trkpt>
      <trkpt lat="47.50048" lon="-0.0506">
        <ele>76</ele>
        <time>2021-03-24T21:17:34Z</time>
      </trkpt>
      <trkpt lat="47.50058" lon="-0.05068">
        <ele>76</ele>
        <time>2021-03-24T21:17:36Z</time>
      </trkpt>
      <trkpt lat="47.50068" lon="-0.05077">
        <ele>76</ele>
        <time>2021-03-24T21:17:39Z</time>
      </trkpt>
      <trkpt lat="47.50077" lon="-0.05084">
        <ele>76</ele>
        <time>2021-03-24T21:17:40Z</time>
      </trkpt>
      <trkpt lat="47.50084" lon="-0.0509">
        <ele>76</ele>
        <time>2021-03-24T21:17:42Z</time>
      </trkpt>
      <trkpt lat="47.50092" lon="-0.05097">
        <ele>76</ele>
        <time>2021-03-24T21:17:43Z</time>
      </trkpt>
      <trkpt lat="47.50097" lon="-0.05102">
        <ele>76</ele>
        <time>2021-03-24T21:17:45Z</time>
      </trkpt>
      <trkpt lat="47.50104" lon="-0.05108">
        <ele>76</ele>
        <time>2021-03-24T21:17:46Z</time>
      </trkpt>
      <trkpt lat="47.5011" lon="-0.05114">
        <ele>76</ele>
        <time>2021-03-24T21:17:47Z</time>
      </trkpt>
      <trkpt lat="47.50117" lon="-0.05122">
        <ele>76</ele>
        <time>2021-03-24T21:17:49Z</time>
      </trkpt>
      <trkpt lat="47.50125" lon="-0.05131">
        <ele>76</ele>
        <time>2021-03-24T21:17:51Z</time>
      </trkpt>
      <trkpt lat="47.50134" lon="-0.0514">
        <ele>76</ele>
        <time>2021-03-24T21:17:53Z</time>
      </trkpt>
      <trkpt lat="47.50142" lon="-0.0515">
        <ele>77</ele>
        <time>2021-03-24T21:17:54Z</time>
      </trkpt>
      <trkpt lat="47.50161" lon="-0.05171">
        <ele>77</ele>
        <time>2021-03-24T21:17:59Z</time>
      </trkpt>
      <trkpt lat="47.50175" lon="-0.05189">
        <ele>77</ele>
        <time>2021-03-24T21:18:02Z</time>
      </trkpt>
      <trkpt lat="47.50182" lon="-0.05196">
        <ele>77</ele>
        <time>2021-03-24T21:18:03Z</time>
      </trkpt>
      <trkpt lat="47.50196" lon="-0.05211">
        <ele>77</ele>
        <time>2021-03-24T21:18:06Z</time>
      </trkpt>
      <trkpt lat="47.50208" lon="-0.05223">
        <ele>78</ele>
        <time>2021-03-24T21:18:09Z</time>
      </trkpt>
      <trkpt lat="47.50214" lon="-0.0523">
        <ele>78</ele>
        <time>2021-03-24T21:18:10Z</time>
      </trkpt>
      <trkpt lat="47.50218" lon="-0.05232">
        <ele>78</ele>
        <time>2021-03-24T21:18:11Z</time>
      </trkpt>
      <trkpt lat="47.50221" lon="-0.05236">
        <ele>78</ele>
        <time>2021-03-24T21:18:12Z</time>
      </trkpt>
      <trkpt lat="47.50224" lon="-0.05237">
        <ele>78</ele>
        <time>2021-03-24T21:18:12Z</time>
      </trkpt>
      <trkpt lat="47.50226" lon="-0.05239">
        <ele>78</ele>
        <time>2021-03-24T21:18:13Z</time>
      </trkpt>
      <trkpt lat="47.5023" lon="-0.05241">
        <ele>78</ele>
        <time>2021-03-24T21:18:14Z</time>
      </trkpt>
      <trkpt lat="47.50234" lon="-0.05244">
        <ele>78</ele>
        <time>2021-03-24T21:18:14Z</time>
      </trkpt>
      <trkpt lat="47.50237" lon="-0.05247">
        <ele>78</ele>
        <time>2021-03-24T21:18:15Z</time>
      </trkpt>
      <trkpt lat="47.50243" lon="-0.0525">
        <ele>78</ele>
        <time>2021-03-24T21:18:16Z</time>
      </trkpt>
      <trkpt lat="47.50247" lon="-0.05252">
        <ele>78</ele>
        <time>2021-03-24T21:18:17Z</time>
      </trkpt>
      <trkpt lat="47.50253" lon="-0.05255">
        <ele>78</ele>
        <time>2021-03-24T21:18:18Z</time>
      </trkpt>
      <trkpt lat="47.50261" lon="-0.0526">
        <ele>78</ele>
        <time>2021-03-24T21:18:20Z</time>
      </trkpt>
      <trkpt lat="47.50316" lon="-0.05284">
        <ele>78</ele>
        <time>2021-03-24T21:18:30Z</time>
      </trkpt>
      <trkpt lat="47.50327" lon="-0.05289">
        <ele>78</ele>
        <time>2021-03-24T21:18:32Z</time>
      </trkpt>
      <trkpt lat="47.50342" lon="-0.05296">
        <ele>78</ele>
        <time>2021-03-24T21:18:35Z</time>
      </trkpt>
      <trkpt lat="47.50356" lon="-0.05304">
        <ele>78</ele>
        <time>2021-03-24T21:18:37Z</time>
      </trkpt>
      <trkpt lat="47.50378" lon="-0.05314">
        <ele>78</ele>
        <time>2021-03-24T21:18:41Z</time>
      </trkpt>
      <trkpt lat="47.50379" lon="-0.05315">
        <ele>78</ele>
        <time>2021-03-24T21:18:42Z</time>
      </trkpt>
      <trkpt lat="47.50394" lon="-0.05322">
        <ele>78</ele>
        <time>2021-03-24T21:18:44Z</time>
      </trkpt>
      <trkpt lat="47.50411" lon="-0.05331">
        <ele>78</ele>
        <time>2021-03-24T21:18:48Z</time>
      </trkpt>
      <trkpt lat="47.50427" lon="-0.05338">
        <ele>78</ele>
        <time>2021-03-24T21:18:51Z</time>
      </trkpt>
      <trkpt lat="47.50452" lon="-0.05351">
        <ele>79</ele>
        <time>2021-03-24T21:18:55Z</time>
      </trkpt>
      <trkpt lat="47.50464" lon="-0.05357">
        <ele>80</ele>
        <time>2021-03-24T21:18:58Z</time>
      </trkpt>
      <trkpt lat="47.50482" lon="-0.05364">
        <ele>80</ele>
        <time>2021-03-24T21:19:01Z</time>
      </trkpt>
      <trkpt lat="47.50502" lon="-0.05374">
        <ele>80</ele>
        <time>2021-03-24T21:19:05Z</time>
      </trkpt>
      <trkpt lat="47.50516" lon="-0.0538">
        <ele>80</ele>
        <time>2021-03-24T21:19:07Z</time>
      </trkpt>
      <trkpt lat="47.50527" lon="-0.05385">
        <ele>80</ele>
        <time>2021-03-24T21:19:09Z</time>
      </trkpt>
      <trkpt lat="47.50544" lon="-0.05393">
        <ele>80</ele>
        <time>2021-03-24T21:19:12Z</time>
      </trkpt>
      <trkpt lat="47.50564" lon="-0.05403">
        <ele>80</ele>
        <time>2021-03-24T21:19:16Z</time>
      </trkpt>
      <trkpt lat="47.50604" lon="-0.05416">
        <ele>81</ele>
        <time>2021-03-24T21:19:24Z</time>
      </trkpt>
      <trkpt lat="47.50643" lon="-0.05427">
        <ele>82</ele>
        <time>2021-03-24T21:19:31Z</time>
      </trkpt>
      <trkpt lat="47.50665" lon="-0.05431">
        <ele>82</ele>
        <time>2021-03-24T21:19:35Z</time>
      </trkpt>
      <trkpt lat="47.50698" lon="-0.05435">
        <ele>84</ele>
        <time>2021-03-24T21:19:40Z</time>
      </trkpt>
      <trkpt lat="47.50724" lon="-0.05439">
        <ele>85</ele>
        <time>2021-03-24T21:19:45Z</time>
      </trkpt>
      <trkpt lat="47.50732" lon="-0.0544">
        <ele>86</ele>
        <time>2021-03-24T21:19:47Z</time>
      </trkpt>
      <trkpt lat="47.50739" lon="-0.0544">
        <ele>86</ele>
        <time>2021-03-24T21:19:48Z</time>
      </trkpt>
      <trkpt lat="47.50745" lon="-0.05441">
        <ele>86</ele>
        <time>2021-03-24T21:19:49Z</time>
      </trkpt>
      <trkpt lat="47.50751" lon="-0.05441">
        <ele>86</ele>
        <time>2021-03-24T21:19:50Z</time>
      </trkpt>
      <trkpt lat="47.50761" lon="-0.05441">
        <ele>87</ele>
        <time>2021-03-24T21:19:52Z</time>
      </trkpt>
      <trkpt lat="47.5077" lon="-0.05441">
        <ele>87</ele>
        <time>2021-03-24T21:19:53Z</time>
      </trkpt>
      <trkpt lat="47.50782" lon="-0.05442">
        <ele>88</ele>
        <time>2021-03-24T21:19:55Z</time>
      </trkpt>
      <trkpt lat="47.50785" lon="-0.05441">
        <ele>88</ele>
        <time>2021-03-24T21:19:56Z</time>
      </trkpt>
      <trkpt lat="47.5079" lon="-0.05441">
        <ele>88</ele>
        <time>2021-03-24T21:19:57Z</time>
      </trkpt>
      <trkpt lat="47.50793" lon="-0.0544">
        <ele>89</ele>
        <time>2021-03-24T21:19:57Z</time>
      </trkpt>
      <trkpt lat="47.50796" lon="-0.0544">
        <ele>89</ele>
        <time>2021-03-24T21:19:58Z</time>
      </trkpt>
      <trkpt lat="47.50824" lon="-0.05439">
        <ele>91</ele>
        <time>2021-03-24T21:20:03Z</time>
      </trkpt>
      <trkpt lat="47.50859" lon="-0.05438">
        <ele>91</ele>
        <time>2021-03-24T21:20:09Z</time>
      </trkpt>
      <trkpt lat="47.50891" lon="-0.05437">
        <ele>91</ele>
        <time>2021-03-24T21:20:15Z</time>
      </trkpt>
      <trkpt lat="47.50909" lon="-0.05436">
        <ele>91</ele>
        <time>2021-03-24T21:20:18Z</time>
      </trkpt>
      <trkpt lat="47.50918" lon="-0.05436">
        <ele>91</ele>
        <time>2021-03-24T21:20:20Z</time>
      </trkpt>
      <trkpt lat="47.50927" lon="-0.05436">
        <ele>91</ele>
        <time>2021-03-24T21:20:21Z</time>
      </trkpt>
      <trkpt lat="47.50954" lon="-0.05433">
        <ele>91</ele>
        <time>2021-03-24T21:20:26Z</time>
      </trkpt>
      <trkpt lat="47.50978" lon="-0.05432">
        <ele>91</ele>
        <time>2021-03-24T21:20:30Z</time>
      </trkpt>
      <trkpt lat="47.50998" lon="-0.05431">
        <ele>91</ele>
        <time>2021-03-24T21:20:34Z</time>
      </trkpt>
      <trkpt lat="47.51029" lon="-0.05429">
        <ele>91</ele>
        <time>2021-03-24T21:20:39Z</time>
      </trkpt>
      <trkpt lat="47.51056" lon="-0.05427">
        <ele>91</ele>
        <time>2021-03-24T21:20:44Z</time>
      </trkpt>
      <trkpt lat="47.51085" lon="-0.05424">
        <ele>91</ele>
        <time>2021-03-24T21:20:49Z</time>
      </trkpt>
      <trkpt lat="47.51106" lon="-0.05421">
        <ele>90</ele>
        <time>2021-03-24T21:20:53Z</time>
      </trkpt>
      <trkpt lat="47.5112" lon="-0.05418">
        <ele>89</ele>
        <time>2021-03-24T21:20:56Z</time>
      </trkpt>
      <trkpt lat="47.51125" lon="-0.05417">
        <ele>88</ele>
        <time>2021-03-24T21:20:57Z</time>
      </trkpt>
      <trkpt lat="47.51131" lon="-0.05416">
        <ele>88</ele>
        <time>2021-03-24T21:20:58Z</time>
      </trkpt>
      <trkpt lat="47.51137" lon="-0.05414">
        <ele>88</ele>
        <time>2021-03-24T21:20:59Z</time>
      </trkpt>
      <trkpt lat="47.51145" lon="-0.05411">
        <ele>88</ele>
        <time>2021-03-24T21:21:00Z</time>
      </trkpt>
      <trkpt lat="47.51151" lon="-0.05409">
        <ele>88</ele>
        <time>2021-03-24T21:21:01Z</time>
      </trkpt>
      <trkpt lat="47.51159" lon="-0.05404">
        <ele>88</ele>
        <time>2021-03-24T21:21:03Z</time>
      </trkpt>
      <trkpt lat="47.51168" lon="-0.054">
        <ele>88</ele>
        <time>2021-03-24T21:21:05Z</time>
      </trkpt>
      <trkpt lat="47.51178" lon="-0.05394">
        <ele>88</ele>
        <time>2021-03-24T21:21:06Z</time>
      </trkpt>
      <trkpt lat="47.51183" lon="-0.0539">
        <ele>89</ele>
        <time>2021-03-24T21:21:07Z</time>
      </trkpt>
      <trkpt lat="47.51191" lon="-0.05385">
        <ele>89</ele>
        <time>2021-03-24T21:21:09Z</time>
      </trkpt>
      <trkpt lat="47.51196" lon="-0.05382">
        <ele>89</ele>
        <time>2021-03-24T21:21:10Z</time>
      </trkpt>
      <trkpt lat="47.51201" lon="-0.05379">
        <ele>90</ele>
        <time>2021-03-24T21:21:11Z</time>
      </trkpt>
      <trkpt lat="47.5121" lon="-0.05373">
        <ele>90</ele>
        <time>2021-03-24T21:21:13Z</time>
      </trkpt>
      <trkpt lat="47.51215" lon="-0.05369">
        <ele>90</ele>
        <time>2021-03-24T21:21:14Z</time>
      </trkpt>
      <trkpt lat="47.51219" lon="-0.05367">
        <ele>90</ele>
        <time>2021-03-24T21:21:14Z</time>
      </trkpt>
      <trkpt lat="47.51229" lon="-0.0536">
        <ele>90</ele>
        <time>2021-03-24T21:21:16Z</time>
      </trkpt>
      <trkpt lat="47.51237" lon="-0.05354">
        <ele>90</ele>
        <time>2021-03-24T21:21:18Z</time>
      </trkpt>
      <trkpt lat="47.51255" lon="-0.05342">
        <ele>90</ele>
        <time>2021-03-24T21:21:22Z</time>
      </trkpt>
      <trkpt lat="47.51342" lon="-0.05286">
        <ele>93</ele>
        <time>2021-03-24T21:21:38Z</time>
      </trkpt>
      <trkpt lat="47.51369" lon="-0.05275">
        <ele>94</ele>
        <time>2021-03-24T21:21:43Z</time>
      </trkpt>
      <trkpt lat="47.51382" lon="-0.0527">
        <ele>94</ele>
        <time>2021-03-24T21:21:46Z</time>
      </trkpt>
      <trkpt lat="47.5139" lon="-0.05268">
        <ele>94</ele>
        <time>2021-03-24T21:21:47Z</time>
      </trkpt>
      <trkpt lat="47.51402" lon="-0.05266">
        <ele>94</ele>
        <time>2021-03-24T21:21:49Z</time>
      </trkpt>
      <trkpt lat="47.51411" lon="-0.05265">
        <ele>94</ele>
        <time>2021-03-24T21:21:51Z</time>
      </trkpt>
      <trkpt lat="47.51418" lon="-0.05265">
        <ele>94</ele>
        <time>2021-03-24T21:21:52Z</time>
      </trkpt>
      <trkpt lat="47.51429" lon="-0.05264">
        <ele>94</ele>
        <time>2021-03-24T21:21:54Z</time>
      </trkpt>
      <trkpt lat="47.51444" lon="-0.05265">
        <ele>94</ele>
        <time>2021-03-24T21:21:57Z</time>
      </trkpt>
      <trkpt lat="47.51458" lon="-0.05265">
        <ele>93</ele>
        <time>2021-03-24T21:21:59Z</time>
      </trkpt>
      <trkpt lat="47.5147" lon="-0.05265">
        <ele>93</ele>
        <time>2021-03-24T21:22:01Z</time>
      </trkpt>
      <trkpt lat="47.51477" lon="-0.05265">
        <ele>93</ele>
        <time>2021-03-24T21:22:03Z</time>
      </trkpt>
      <trkpt lat="47.51486" lon="-0.05263">
        <ele>93</ele>
        <time>2021-03-24T21:22:04Z</time>
      </trkpt>
      <trkpt lat="47.51496" lon="-0.05261">
        <ele>94</ele>
        <time>2021-03-24T21:22:06Z</time>
      </trkpt>
      <trkpt lat="47.51506" lon="-0.05258">
        <ele>93</ele>
        <time>2021-03-24T21:22:08Z</time>
      </trkpt>
      <trkpt lat="47.51516" lon="-0.05255">
        <ele>93</ele>
        <time>2021-03-24T21:22:10Z</time>
      </trkpt>
      <trkpt lat="47.51538" lon="-0.05248">
        <ele>92</ele>
        <time>2021-03-24T21:22:14Z</time>
      </trkpt>
      <trkpt lat="47.51562" lon="-0.05241">
        <ele>90</ele>
        <time>2021-03-24T21:22:18Z</time>
      </trkpt>
      <trkpt lat="47.51594" lon="-0.05229">
        <ele>90</ele>
        <time>2021-03-24T21:22:24Z</time>
      </trkpt>
      <trkpt lat="47.51678" lon="-0.05202">
        <ele>93</ele>
        <time>2021-03-24T21:22:39Z</time>
      </trkpt>
      <trkpt lat="47.51697" lon="-0.05197">
        <ele>94</ele>
        <time>2021-03-24T21:22:43Z</time>
      </trkpt>
      <trkpt lat="47.51713" lon="-0.05191">
        <ele>94</ele>
        <time>2021-03-24T21:22:46Z</time>
      </trkpt>
      <trkpt lat="47.518" lon="-0.05163">
        <ele>98</ele>
        <time>2021-03-24T21:23:01Z</time>
      </trkpt>
      <trkpt lat="47.51811" lon="-0.0516">
        <ele>98</ele>
        <time>2021-03-24T21:23:03Z</time>
      </trkpt>
      <trkpt lat="47.51823" lon="-0.05158">
        <ele>99</ele>
        <time>2021-03-24T21:23:06Z</time>
      </trkpt>
      <trkpt lat="47.51832" lon="-0.05156">
        <ele>99</ele>
        <time>2021-03-24T21:23:07Z</time>
      </trkpt>
      <trkpt lat="47.5184" lon="-0.05156">
        <ele>100</ele>
        <time>2021-03-24T21:23:09Z</time>
      </trkpt>
      <trkpt lat="47.51847" lon="-0.05156">
        <ele>101</ele>
        <time>2021-03-24T21:23:10Z</time>
      </trkpt>
      <trkpt lat="47.51853" lon="-0.05157">
        <ele>101</ele>
        <time>2021-03-24T21:23:11Z</time>
      </trkpt>
      <trkpt lat="47.51858" lon="-0.05159">
        <ele>102</ele>
        <time>2021-03-24T21:23:12Z</time>
      </trkpt>
      <trkpt lat="47.51863" lon="-0.05161">
        <ele>102</ele>
        <time>2021-03-24T21:23:13Z</time>
      </trkpt>
      <trkpt lat="47.51869" lon="-0.05164">
        <ele>103</ele>
        <time>2021-03-24T21:23:14Z</time>
      </trkpt>
      <trkpt lat="47.51875" lon="-0.05168">
        <ele>103</ele>
        <time>2021-03-24T21:23:15Z</time>
      </trkpt>
      <trkpt lat="47.51879" lon="-0.05171">
        <ele>103</ele>
        <time>2021-03-24T21:23:16Z</time>
      </trkpt>
      <trkpt lat="47.51887" lon="-0.05177">
        <ele>104</ele>
        <time>2021-03-24T21:23:18Z</time>
      </trkpt>
      <trkpt lat="47.51896" lon="-0.05185">
        <ele>104</ele>
        <time>2021-03-24T21:23:19Z</time>
      </trkpt>
      <trkpt lat="47.51905" lon="-0.05194">
        <ele>104</ele>
        <time>2021-03-24T21:23:21Z</time>
      </trkpt>
      <trkpt lat="47.51949" lon="-0.05231">
        <ele>105</ele>
        <time>2021-03-24T21:23:30Z</time>
      </trkpt>
      <trkpt lat="47.51993" lon="-0.05269">
        <ele>105</ele>
        <time>2021-03-24T21:23:39Z</time>
      </trkpt>
      <trkpt lat="47.52134" lon="-0.05388">
        <ele>111</ele>
        <time>2021-03-24T21:24:08Z</time>
      </trkpt>
      <trkpt lat="47.52172" lon="-0.05421">
        <ele>112</ele>
        <time>2021-03-24T21:24:16Z</time>
      </trkpt>
      <trkpt lat="47.52188" lon="-0.05434">
        <ele>112</ele>
        <time>2021-03-24T21:24:19Z</time>
      </trkpt>
      <trkpt lat="47.52199" lon="-0.05444">
        <ele>112</ele>
        <time>2021-03-24T21:24:22Z</time>
      </trkpt>
      <trkpt lat="47.52208" lon="-0.05451">
        <ele>112</ele>
        <time>2021-03-24T21:24:23Z</time>
      </trkpt>
      <trkpt lat="47.52215" lon="-0.05458">
        <ele>112</ele>
        <time>2021-03-24T21:24:25Z</time>
      </trkpt>
      <trkpt lat="47.52224" lon="-0.05467">
        <ele>113</ele>
        <time>2021-03-24T21:24:27Z</time>
      </trkpt>
      <trkpt lat="47.52235" lon="-0.05479">
        <ele>113</ele>
        <time>2021-03-24T21:24:29Z</time>
      </trkpt>
      <trkpt lat="47.52254" lon="-0.05501">
        <ele>113</ele>
        <time>2021-03-24T21:24:34Z</time>
      </trkpt>
      <trkpt lat="47.5226" lon="-0.05513">
        <ele>113</ele>
        <time>2021-03-24T21:24:35Z</time>
      </trkpt>
      <trkpt lat="47.5227" lon="-0.05531">
        <ele>113</ele>
        <time>2021-03-24T21:24:38Z</time>
      </trkpt>
      <trkpt lat="47.52287" lon="-0.05577">
        <ele>114</ele>
        <time>2021-03-24T21:24:45Z</time>
      </trkpt>
      <trkpt lat="47.52494" lon="-0.06284">
        <ele>108</ele>
        <time>2021-03-24T21:26:17Z</time>
      </trkpt>
      <trkpt lat="47.52553" lon="-0.06473">
        <ele>106</ele>
        <time>2021-03-24T21:26:42Z</time>
      </trkpt>
      <trkpt lat="47.52586" lon="-0.06579">
        <ele>105</ele>
        <time>2021-03-24T21:26:56Z</time>
      </trkpt>
      <trkpt lat="47.52729" lon="-0.07052">
        <ele>107</ele>
        <time>2021-03-24T21:27:58Z</time>
      </trkpt>
      <trkpt lat="47.52869" lon="-0.07506">
        <ele>94</ele>
        <time>2021-03-24T21:28:58Z</time>
      </trkpt>
      <trkpt lat="47.52887" lon="-0.07549">
        <ele>91</ele>
        <time>2021-03-24T21:29:04Z</time>
      </trkpt>
      <trkpt lat="47.52899" lon="-0.0758">
        <ele>89</ele>
        <time>2021-03-24T21:29:09Z</time>
      </trkpt>
      <trkpt lat="47.52915" lon="-0.07619">
        <ele>88</ele>
        <time>2021-03-24T21:29:14Z</time>
      </trkpt>
      <trkpt lat="47.5292" lon="-0.07634">
        <ele>87</ele>
        <time>2021-03-24T21:29:16Z</time>
      </trkpt>
      <trkpt lat="47.52925" lon="-0.07648">
        <ele>87</ele>
        <time>2021-03-24T21:29:18Z</time>
      </trkpt>
      <trkpt lat="47.5293" lon="-0.07666">
        <ele>86</ele>
        <time>2021-03-24T21:29:20Z</time>
      </trkpt>
      <trkpt lat="47.52934" lon="-0.07679">
        <ele>85</ele>
        <time>2021-03-24T21:29:22Z</time>
      </trkpt>
      <trkpt lat="47.52938" lon="-0.07694">
        <ele>84</ele>
        <time>2021-03-24T21:29:24Z</time>
      </trkpt>
      <trkpt lat="47.52942" lon="-0.07708">
        <ele>83</ele>
        <time>2021-03-24T21:29:26Z</time>
      </trkpt>
      <trkpt lat="47.52946" lon="-0.07724">
        <ele>83</ele>
        <time>2021-03-24T21:29:28Z</time>
      </trkpt>
      <trkpt lat="47.5295" lon="-0.07741">
        <ele>82</ele>
        <time>2021-03-24T21:29:30Z</time>
      </trkpt>
      <trkpt lat="47.5297" lon="-0.07828">
        <ele>80</ele>
        <time>2021-03-24T21:29:41Z</time>
      </trkpt>
      <trkpt lat="47.52996" lon="-0.07943">
        <ele>76</ele>
        <time>2021-03-24T21:29:56Z</time>
      </trkpt>
      <trkpt lat="47.53004" lon="-0.07978">
        <ele>74</ele>
        <time>2021-03-24T21:30:00Z</time>
      </trkpt>
      <trkpt lat="47.53018" lon="-0.08042">
        <ele>73</ele>
        <time>2021-03-24T21:30:08Z</time>
      </trkpt>
      <trkpt lat="47.53022" lon="-0.0806">
        <ele>73</ele>
        <time>2021-03-24T21:30:11Z</time>
      </trkpt>
      <trkpt lat="47.53031" lon="-0.081">
        <ele>72</ele>
        <time>2021-03-24T21:30:16Z</time>
      </trkpt>
      <trkpt lat="47.53051" lon="-0.0819">
        <ele>71</ele>
        <time>2021-03-24T21:30:27Z</time>
      </trkpt>
      <trkpt lat="47.5306" lon="-0.0823">
        <ele>71</ele>
        <time>2021-03-24T21:30:32Z</time>
      </trkpt>
      <trkpt lat="47.53064" lon="-0.08245">
        <ele>71</ele>
        <time>2021-03-24T21:30:34Z</time>
      </trkpt>
      <trkpt lat="47.53068" lon="-0.08259">
        <ele>71</ele>
        <time>2021-03-24T21:30:36Z</time>
      </trkpt>
      <trkpt lat="47.53071" lon="-0.08273">
        <ele>71</ele>
        <time>2021-03-24T21:30:38Z</time>
      </trkpt>
      <trkpt lat="47.53074" lon="-0.08285">
        <ele>71</ele>
        <time>2021-03-24T21:30:39Z</time>
      </trkpt>
      <trkpt lat="47.53079" lon="-0.08298">
        <ele>71</ele>
        <time>2021-03-24T21:30:41Z</time>
      </trkpt>
      <trkpt lat="47.53083" lon="-0.0831">
        <ele>71</ele>
        <time>2021-03-24T21:30:43Z</time>
      </trkpt>
      <trkpt lat="47.53087" lon="-0.08321">
        <ele>72</ele>
        <time>2021-03-24T21:30:44Z</time>
      </trkpt>
      <trkpt lat="47.53091" lon="-0.08332">
        <ele>72</ele>
        <time>2021-03-24T21:30:46Z</time>
      </trkpt>
      <trkpt lat="47.53096" lon="-0.08341">
        <ele>72</ele>
        <time>2021-03-24T21:30:47Z</time>
      </trkpt>
      <trkpt lat="47.53102" lon="-0.08351">
        <ele>72</ele>
        <time>2021-03-24T21:30:49Z</time>
      </trkpt>
      <trkpt lat="47.53106" lon="-0.08359">
        <ele>72</ele>
        <time>2021-03-24T21:30:50Z</time>
      </trkpt>
      <trkpt lat="47.53126" lon="-0.08394">
        <ele>72</ele>
        <time>2021-03-24T21:30:55Z</time>
      </trkpt>
      <trkpt lat="47.53145" lon="-0.08423">
        <ele>73</ele>
        <time>2021-03-24T21:31:00Z</time>
      </trkpt>
      <trkpt lat="47.53157" lon="-0.08438">
        <ele>73</ele>
        <time>2021-03-24T21:31:03Z</time>
      </trkpt>
      <trkpt lat="47.53162" lon="-0.08444">
        <ele>73</ele>
        <time>2021-03-24T21:31:04Z</time>
      </trkpt>
      <trkpt lat="47.53167" lon="-0.0845">
        <ele>73</ele>
        <time>2021-03-24T21:31:05Z</time>
      </trkpt>
      <trkpt lat="47.53173" lon="-0.08455">
        <ele>73</ele>
        <time>2021-03-24T21:31:06Z</time>
      </trkpt>
      <trkpt lat="47.5318" lon="-0.08462">
        <ele>72</ele>
        <time>2021-03-24T21:31:08Z</time>
      </trkpt>
      <trkpt lat="47.53187" lon="-0.08469">
        <ele>72</ele>
        <time>2021-03-24T21:31:09Z</time>
      </trkpt>
      <trkpt lat="47.53195" lon="-0.08474">
        <ele>72</ele>
        <time>2021-03-24T21:31:11Z</time>
      </trkpt>
      <trkpt lat="47.53202" lon="-0.08479">
        <ele>72</ele>
        <time>2021-03-24T21:31:12Z</time>
      </trkpt>
      <trkpt lat="47.5321" lon="-0.08485">
        <ele>71</ele>
        <time>2021-03-24T21:31:14Z</time>
      </trkpt>
      <trkpt lat="47.53218" lon="-0.0849">
        <ele>71</ele>
        <time>2021-03-24T21:31:16Z</time>
      </trkpt>
      <trkpt lat="47.53227" lon="-0.08495">
        <ele>70</ele>
        <time>2021-03-24T21:31:17Z</time>
      </trkpt>
      <trkpt lat="47.53234" lon="-0.08499">
        <ele>70</ele>
        <time>2021-03-24T21:31:19Z</time>
      </trkpt>
      <trkpt lat="47.53243" lon="-0.08502">
        <ele>69</ele>
        <time>2021-03-24T21:31:20Z</time>
      </trkpt>
      <trkpt lat="47.53252" lon="-0.08505">
        <ele>69</ele>
        <time>2021-03-24T21:31:22Z</time>
      </trkpt>
      <trkpt lat="47.5326" lon="-0.08507">
        <ele>69</ele>
        <time>2021-03-24T21:31:23Z</time>
      </trkpt>
      <trkpt lat="47.53268" lon="-0.0851">
        <ele>69</ele>
        <time>2021-03-24T21:31:25Z</time>
      </trkpt>
      <trkpt lat="47.53276" lon="-0.08513">
        <ele>69</ele>
        <time>2021-03-24T21:31:26Z</time>
      </trkpt>
      <trkpt lat="47.53284" lon="-0.08516">
        <ele>69</ele>
        <time>2021-03-24T21:31:28Z</time>
      </trkpt>
      <trkpt lat="47.53291" lon="-0.08519">
        <ele>69</ele>
        <time>2021-03-24T21:31:29Z</time>
      </trkpt>
      <trkpt lat="47.53298" lon="-0.08522">
        <ele>69</ele>
        <time>2021-03-24T21:31:30Z</time>
      </trkpt>
      <trkpt lat="47.53306" lon="-0.08525">
        <ele>69</ele>
        <time>2021-03-24T21:31:32Z</time>
      </trkpt>
      <trkpt lat="47.53311" lon="-0.08528">
        <ele>69</ele>
        <time>2021-03-24T21:31:33Z</time>
      </trkpt>
      <trkpt lat="47.53317" lon="-0.08532">
        <ele>69</ele>
        <time>2021-03-24T21:31:34Z</time>
      </trkpt>
      <trkpt lat="47.53322" lon="-0.08537">
        <ele>69</ele>
        <time>2021-03-24T21:31:35Z</time>
      </trkpt>
      <trkpt lat="47.53327" lon="-0.08542">
        <ele>69</ele>
        <time>2021-03-24T21:31:36Z</time>
      </trkpt>
      <trkpt lat="47.53333" lon="-0.08548">
        <ele>70</ele>
        <time>2021-03-24T21:31:37Z</time>
      </trkpt>
      <trkpt lat="47.53338" lon="-0.08553">
        <ele>70</ele>
        <time>2021-03-24T21:31:38Z</time>
      </trkpt>
      <trkpt lat="47.53345" lon="-0.08561">
        <ele>71</ele>
        <time>2021-03-24T21:31:40Z</time>
      </trkpt>
      <trkpt lat="47.53355" lon="-0.08577">
        <ele>72</ele>
        <time>2021-03-24T21:31:43Z</time>
      </trkpt>
      <trkpt lat="47.53359" lon="-0.08583">
        <ele>72</ele>
        <time>2021-03-24T21:31:44Z</time>
      </trkpt>
      <trkpt lat="47.53367" lon="-0.08597">
        <ele>72</ele>
        <time>2021-03-24T21:31:46Z</time>
      </trkpt>
      <trkpt lat="47.53378" lon="-0.08618">
        <ele>73</ele>
        <time>2021-03-24T21:31:49Z</time>
      </trkpt>
      <trkpt lat="47.53383" lon="-0.08629">
        <ele>73</ele>
        <time>2021-03-24T21:31:51Z</time>
      </trkpt>
      <trkpt lat="47.53388" lon="-0.08642">
        <ele>74</ele>
        <time>2021-03-24T21:31:52Z</time>
      </trkpt>
      <trkpt lat="47.53392" lon="-0.08652">
        <ele>74</ele>
        <time>2021-03-24T21:31:54Z</time>
      </trkpt>
      <trkpt lat="47.53396" lon="-0.08666">
        <ele>74</ele>
        <time>2021-03-24T21:31:56Z</time>
      </trkpt>
      <trkpt lat="47.534" lon="-0.08679">
        <ele>75</ele>
        <time>2021-03-24T21:31:57Z</time>
      </trkpt>
      <trkpt lat="47.53404" lon="-0.08696">
        <ele>75</ele>
        <time>2021-03-24T21:31:59Z</time>
      </trkpt>
      <trkpt lat="47.53406" lon="-0.08708">
        <ele>75</ele>
        <time>2021-03-24T21:32:01Z</time>
      </trkpt>
      <trkpt lat="47.5341" lon="-0.08722">
        <ele>76</ele>
        <time>2021-03-24T21:32:03Z</time>
      </trkpt>
      <trkpt lat="47.53413" lon="-0.08735">
        <ele>76</ele>
        <time>2021-03-24T21:32:04Z</time>
      </trkpt>
      <trkpt lat="47.53415" lon="-0.08745">
        <ele>76</ele>
        <time>2021-03-24T21:32:06Z</time>
      </trkpt>
      <trkpt lat="47.53417" lon="-0.08757">
        <ele>76</ele>
        <time>2021-03-24T21:32:07Z</time>
      </trkpt>
      <trkpt lat="47.53419" lon="-0.08769">
        <ele>76</ele>
        <time>2021-03-24T21:32:09Z</time>
      </trkpt>
      <trkpt lat="47.53421" lon="-0.08782">
        <ele>76</ele>
        <time>2021-03-24T21:32:10Z</time>
      </trkpt>
      <trkpt lat="47.53422" lon="-0.08795">
        <ele>76</ele>
        <time>2021-03-24T21:32:12Z</time>
      </trkpt>
      <trkpt lat="47.53423" lon="-0.08809">
        <ele>76</ele>
        <time>2021-03-24T21:32:14Z</time>
      </trkpt>
      <trkpt lat="47.53423" lon="-0.08824">
        <ele>76</ele>
        <time>2021-03-24T21:32:15Z</time>
      </trkpt>
      <trkpt lat="47.53425" lon="-0.08839">
        <ele>76</ele>
        <time>2021-03-24T21:32:17Z</time>
      </trkpt>
      <trkpt lat="47.53425" lon="-0.08843">
        <ele>76</ele>
        <time>2021-03-24T21:32:18Z</time>
      </trkpt>
      <trkpt lat="47.53426" lon="-0.08854">
        <ele>76</ele>
        <time>2021-03-24T21:32:19Z</time>
      </trkpt>
      <trkpt lat="47.53427" lon="-0.08866">
        <ele>76</ele>
        <time>2021-03-24T21:32:20Z</time>
      </trkpt>
      <trkpt lat="47.53428" lon="-0.08879">
        <ele>75</ele>
        <time>2021-03-24T21:32:22Z</time>
      </trkpt>
      <trkpt lat="47.53429" lon="-0.08891">
        <ele>75</ele>
        <time>2021-03-24T21:32:23Z</time>
      </trkpt>
      <trkpt lat="47.5343" lon="-0.089">
        <ele>75</ele>
        <time>2021-03-24T21:32:25Z</time>
      </trkpt>
      <trkpt lat="47.53432" lon="-0.08911">
        <ele>75</ele>
        <time>2021-03-24T21:32:26Z</time>
      </trkpt>
      <trkpt lat="47.53435" lon="-0.08921">
        <ele>75</ele>
        <time>2021-03-24T21:32:27Z</time>
      </trkpt>
      <trkpt lat="47.53437" lon="-0.0893">
        <ele>75</ele>
        <time>2021-03-24T21:32:28Z</time>
      </trkpt>
      <trkpt lat="47.53441" lon="-0.0894">
        <ele>74</ele>
        <time>2021-03-24T21:32:30Z</time>
      </trkpt>
      <trkpt lat="47.53447" lon="-0.08954">
        <ele>74</ele>
        <time>2021-03-24T21:32:32Z</time>
      </trkpt>
      <trkpt lat="47.53462" lon="-0.08988">
        <ele>73</ele>
        <time>2021-03-24T21:32:37Z</time>
      </trkpt>
      <trkpt lat="47.53491" lon="-0.09049">
        <ele>71</ele>
        <time>2021-03-24T21:32:46Z</time>
      </trkpt>
      <trkpt lat="47.53515" lon="-0.09102">
        <ele>69</ele>
        <time>2021-03-24T21:32:53Z</time>
      </trkpt>
      <trkpt lat="47.53566" lon="-0.09215">
        <ele>65</ele>
        <time>2021-03-24T21:33:10Z</time>
      </trkpt>
      <trkpt lat="47.53584" lon="-0.09254">
        <ele>64</ele>
        <time>2021-03-24T21:33:15Z</time>
      </trkpt>
      <trkpt lat="47.53592" lon="-0.09271">
        <ele>63</ele>
        <time>2021-03-24T21:33:18Z</time>
      </trkpt>
      <trkpt lat="47.53598" lon="-0.09282">
        <ele>63</ele>
        <time>2021-03-24T21:33:19Z</time>
      </trkpt>
      <trkpt lat="47.5361" lon="-0.09303">
        <ele>62</ele>
        <time>2021-03-24T21:33:23Z</time>
      </trkpt>
      <trkpt lat="47.53639" lon="-0.09358">
        <ele>60</ele>
        <time>2021-03-24T21:33:31Z</time>
      </trkpt>
      <trkpt lat="47.53652" lon="-0.09381">
        <ele>60</ele>
        <time>2021-03-24T21:33:35Z</time>
      </trkpt>
      <trkpt lat="47.53658" lon="-0.09385">
        <ele>59</ele>
        <time>2021-03-24T21:33:36Z</time>
      </trkpt>
      <trkpt lat="47.53672" lon="-0.09396">
        <ele>59</ele>
        <time>2021-03-24T21:33:39Z</time>
      </trkpt>
      <trkpt lat="47.53678" lon="-0.0941">
        <ele>58</ele>
        <time>2021-03-24T21:33:41Z</time>
      </trkpt>
      <trkpt lat="47.53678" lon="-0.0941">
        <ele>58</ele>
        <time>2021-03-24T21:33:41Z</time>
      </trkpt>
      <trkpt lat="47.53679" lon="-0.0942">
        <ele>58</ele>
        <time>2021-03-24T21:33:42Z</time>
      </trkpt>
      <trkpt lat="47.5368" lon="-0.09427">
        <ele>58</ele>
        <time>2021-03-24T21:33:43Z</time>
      </trkpt>
      <trkpt lat="47.53683" lon="-0.09436">
        <ele>58</ele>
        <time>2021-03-24T21:33:44Z</time>
      </trkpt>
      <trkpt lat="47.53684" lon="-0.09436">
        <ele>58</ele>
        <time>2021-03-24T21:33:44Z</time>
      </trkpt>
      <trkpt lat="47.53684" lon="-0.09437">
        <ele>58</ele>
        <time>2021-03-24T21:33:44Z</time>
      </trkpt>
      <trkpt lat="47.53685" lon="-0.09437">
        <ele>58</ele>
        <time>2021-03-24T21:33:44Z</time>
      </trkpt>
      <trkpt lat="47.53685" lon="-0.09438">
        <ele>58</ele>
        <time>2021-03-24T21:33:45Z</time>
      </trkpt>
      <trkpt lat="47.53686" lon="-0.09439">
        <ele>58</ele>
        <time>2021-03-24T21:33:45Z</time>
      </trkpt>
      <trkpt lat="47.53686" lon="-0.0944">
        <ele>58</ele>
        <time>2021-03-24T21:33:45Z</time>
      </trkpt>
      <trkpt lat="47.53687" lon="-0.09441">
        <ele>58</ele>
        <time>2021-03-24T21:33:45Z</time>
      </trkpt>
      <trkpt lat="47.53687" lon="-0.09442">
        <ele>58</ele>
        <time>2021-03-24T21:33:45Z</time>
      </trkpt>
      <trkpt lat="47.53688" lon="-0.09443">
        <ele>58</ele>
        <time>2021-03-24T21:33:45Z</time>
      </trkpt>
      <trkpt lat="47.53688" lon="-0.09444">
        <ele>58</ele>
        <time>2021-03-24T21:33:46Z</time>
      </trkpt>
      <trkpt lat="47.53688" lon="-0.09445">
        <ele>58</ele>
        <time>2021-03-24T21:33:46Z</time>
      </trkpt>
      <trkpt lat="47.53689" lon="-0.09445">
        <ele>58</ele>
        <time>2021-03-24T21:33:46Z</time>
      </trkpt>
      <trkpt lat="47.53689" lon="-0.09446">
        <ele>58</ele>
        <time>2021-03-24T21:33:46Z</time>
      </trkpt>
      <trkpt lat="47.53689" lon="-0.09447">
        <ele>58</ele>
        <time>2021-03-24T21:33:46Z</time>
      </trkpt>
      <trkpt lat="47.53689" lon="-0.09448">
        <ele>58</ele>
        <time>2021-03-24T21:33:46Z</time>
      </trkpt>
      <trkpt lat="47.53689" lon="-0.09449">
        <ele>58</ele>
        <time>2021-03-24T21:33:46Z</time>
      </trkpt>
      <trkpt lat="47.53689" lon="-0.0945">
        <ele>58</ele>
        <time>2021-03-24T21:33:47Z</time>
      </trkpt>
      <trkpt lat="47.53689" lon="-0.09451">
        <ele>58</ele>
        <time>2021-03-24T21:33:47Z</time>
      </trkpt>
      <trkpt lat="47.53689" lon="-0.09452">
        <ele>58</ele>
        <time>2021-03-24T21:33:47Z</time>
      </trkpt>
      <trkpt lat="47.53689" lon="-0.09453">
        <ele>58</ele>
        <time>2021-03-24T21:33:47Z</time>
      </trkpt>
      <trkpt lat="47.53689" lon="-0.09454">
        <ele>58</ele>
        <time>2021-03-24T21:33:47Z</time>
      </trkpt>
      <trkpt lat="47.53689" lon="-0.09455">
        <ele>58</ele>
        <time>2021-03-24T21:33:47Z</time>
      </trkpt>
      <trkpt lat="47.53688" lon="-0.09456">
        <ele>58</ele>
        <time>2021-03-24T21:33:47Z</time>
      </trkpt>
      <trkpt lat="47.53688" lon="-0.09457">
        <ele>58</ele>
        <time>2021-03-24T21:33:47Z</time>
      </trkpt>
      <trkpt lat="47.53688" lon="-0.09458">
        <ele>58</ele>
        <time>2021-03-24T21:33:48Z</time>
      </trkpt>
      <trkpt lat="47.53688" lon="-0.09459">
        <ele>58</ele>
        <time>2021-03-24T21:33:48Z</time>
      </trkpt>
      <trkpt lat="47.53687" lon="-0.09459">
        <ele>58</ele>
        <time>2021-03-24T21:33:48Z</time>
      </trkpt>
      <trkpt lat="47.53687" lon="-0.0946">
        <ele>58</ele>
        <time>2021-03-24T21:33:48Z</time>
      </trkpt>
      <trkpt lat="47.53686" lon="-0.09461">
        <ele>58</ele>
        <time>2021-03-24T21:33:48Z</time>
      </trkpt>
      <trkpt lat="47.53692" lon="-0.09491">
        <ele>58</ele>
        <time>2021-03-24T21:33:52Z</time>
      </trkpt>
      <trkpt lat="47.53693" lon="-0.09499">
        <ele>58</ele>
        <time>2021-03-24T21:33:53Z</time>
      </trkpt>
      <trkpt lat="47.53697" lon="-0.09533">
        <ele>58</ele>
        <time>2021-03-24T21:33:57Z</time>
      </trkpt>
      <trkpt lat="47.537" lon="-0.09548">
        <ele>58</ele>
        <time>2021-03-24T21:33:59Z</time>
      </trkpt>
      <trkpt lat="47.53707" lon="-0.09591">
        <ele>58</ele>
        <time>2021-03-24T21:34:04Z</time>
      </trkpt>
      <trkpt lat="47.53711" lon="-0.09644">
        <ele>59</ele>
        <time>2021-03-24T21:34:11Z</time>
      </trkpt>
      <trkpt lat="47.53716" lon="-0.09681">
        <ele>59</ele>
        <time>2021-03-24T21:34:15Z</time>
      </trkpt>
      <trkpt lat="47.53723" lon="-0.09731">
        <ele>58</ele>
        <time>2021-03-24T21:34:21Z</time>
      </trkpt>
      <trkpt lat="47.53727" lon="-0.09758">
        <ele>57</ele>
        <time>2021-03-24T21:34:25Z</time>
      </trkpt>
      <trkpt lat="47.53727" lon="-0.0978">
        <ele>57</ele>
        <time>2021-03-24T21:34:27Z</time>
      </trkpt>
      <trkpt lat="47.5373" lon="-0.09806">
        <ele>56</ele>
        <time>2021-03-24T21:34:30Z</time>
      </trkpt>
      <trkpt lat="47.53732" lon="-0.09819">
        <ele>56</ele>
        <time>2021-03-24T21:34:32Z</time>
      </trkpt>
      <trkpt lat="47.53733" lon="-0.09824">
        <ele>56</ele>
        <time>2021-03-24T21:34:33Z</time>
      </trkpt>
      <trkpt lat="47.53734" lon="-0.0983">
        <ele>56</ele>
        <time>2021-03-24T21:34:33Z</time>
      </trkpt>
      <trkpt lat="47.53736" lon="-0.09837">
        <ele>56</ele>
        <time>2021-03-24T21:34:34Z</time>
      </trkpt>
      <trkpt lat="47.53738" lon="-0.0985">
        <ele>56</ele>
        <time>2021-03-24T21:34:36Z</time>
      </trkpt>
      <trkpt lat="47.5374" lon="-0.09862">
        <ele>55</ele>
        <time>2021-03-24T21:34:37Z</time>
      </trkpt>
      <trkpt lat="47.53742" lon="-0.09875">
        <ele>55</ele>
        <time>2021-03-24T21:34:39Z</time>
      </trkpt>
      <trkpt lat="47.53744" lon="-0.09893">
        <ele>55</ele>
        <time>2021-03-24T21:34:41Z</time>
      </trkpt>
      <trkpt lat="47.53748" lon="-0.09928">
        <ele>54</ele>
        <time>2021-03-24T21:34:45Z</time>
      </trkpt>
      <trkpt lat="47.53749" lon="-0.09948">
        <ele>54</ele>
        <time>2021-03-24T21:34:48Z</time>
      </trkpt>
      <trkpt lat="47.53751" lon="-0.09971">
        <ele>54</ele>
        <time>2021-03-24T21:34:51Z</time>
      </trkpt>
      <trkpt lat="47.53756" lon="-0.1001">
        <ele>54</ele>
        <time>2021-03-24T21:34:55Z</time>
      </trkpt>
      <trkpt lat="47.53759" lon="-0.10029">
        <ele>54</ele>
        <time>2021-03-24T21:34:58Z</time>
      </trkpt>
      <trkpt lat="47.53762" lon="-0.10043">
        <ele>54</ele>
        <time>2021-03-24T21:35:00Z</time>
      </trkpt>
      <trkpt lat="47.53767" lon="-0.10064">
        <ele>55</ele>
        <time>2021-03-24T21:35:02Z</time>
      </trkpt>
      <trkpt lat="47.53772" lon="-0.10074">
        <ele>54</ele>
        <time>2021-03-24T21:35:04Z</time>
      </trkpt>
      <trkpt lat="47.53777" lon="-0.10082">
        <ele>54</ele>
        <time>2021-03-24T21:35:05Z</time>
      </trkpt>
      <trkpt lat="47.53786" lon="-0.10096">
        <ele>54</ele>
        <time>2021-03-24T21:35:07Z</time>
      </trkpt>
      <trkpt lat="47.53786" lon="-0.10096">
        <ele>54</ele>
        <time>2021-03-24T21:35:07Z</time>
      </trkpt>
      <trkpt lat="47.53789" lon="-0.10097">
        <ele>54</ele>
        <time>2021-03-24T21:35:08Z</time>
      </trkpt>
      <trkpt lat="47.5379" lon="-0.10097">
        <ele>54</ele>
        <time>2021-03-24T21:35:08Z</time>
      </trkpt>
      <trkpt lat="47.53791" lon="-0.10098">
        <ele>54</ele>
        <time>2021-03-24T21:35:08Z</time>
      </trkpt>
      <trkpt lat="47.53793" lon="-0.10098">
        <ele>54</ele>
        <time>2021-03-24T21:35:09Z</time>
      </trkpt>
      <trkpt lat="47.53794" lon="-0.10099">
        <ele>54</ele>
        <time>2021-03-24T21:35:09Z</time>
      </trkpt>
      <trkpt lat="47.53795" lon="-0.101">
        <ele>54</ele>
        <time>2021-03-24T21:35:09Z</time>
      </trkpt>
      <trkpt lat="47.53796" lon="-0.10101">
        <ele>54</ele>
        <time>2021-03-24T21:35:09Z</time>
      </trkpt>
      <trkpt lat="47.53797" lon="-0.10102">
        <ele>54</ele>
        <time>2021-03-24T21:35:10Z</time>
      </trkpt>
      <trkpt lat="47.53809" lon="-0.10108">
        <ele>53</ele>
        <time>2021-03-24T21:35:12Z</time>
      </trkpt>
      <trkpt lat="47.53819" lon="-0.10116">
        <ele>53</ele>
        <time>2021-03-24T21:35:14Z</time>
      </trkpt>
      <trkpt lat="47.53837" lon="-0.1013">
        <ele>52</ele>
        <time>2021-03-24T21:35:17Z</time>
      </trkpt>
      <trkpt lat="47.53854" lon="-0.10143">
        <ele>51</ele>
        <time>2021-03-24T21:35:21Z</time>
      </trkpt>
      <trkpt lat="47.53875" lon="-0.10161">
        <ele>51</ele>
        <time>2021-03-24T21:35:25Z</time>
      </trkpt>
      <trkpt lat="47.53883" lon="-0.10168">
        <ele>50</ele>
        <time>2021-03-24T21:35:27Z</time>
      </trkpt>
      <trkpt lat="47.53891" lon="-0.10175">
        <ele>50</ele>
        <time>2021-03-24T21:35:28Z</time>
      </trkpt>
      <trkpt lat="47.53933" lon="-0.10209">
        <ele>50</ele>
        <time>2021-03-24T21:35:37Z</time>
      </trkpt>
      <trkpt lat="47.53975" lon="-0.10242">
        <ele>51</ele>
        <time>2021-03-24T21:35:45Z</time>
      </trkpt>
      <trkpt lat="47.53994" lon="-0.10257">
        <ele>52</ele>
        <time>2021-03-24T21:35:49Z</time>
      </trkpt>
      <trkpt lat="47.53994" lon="-0.10257">
        <ele>52</ele>
        <time>2021-03-24T21:35:49Z</time>
      </trkpt>
      <trkpt lat="47.53997" lon="-0.10256">
        <ele>52</ele>
        <time>2021-03-24T21:35:50Z</time>
      </trkpt>
      <trkpt lat="47.54001" lon="-0.10258">
        <ele>52</ele>
        <time>2021-03-24T21:35:51Z</time>
      </trkpt>
      <trkpt lat="47.54002" lon="-0.10259">
        <ele>52</ele>
        <time>2021-03-24T21:35:51Z</time>
      </trkpt>
      <trkpt lat="47.54008" lon="-0.10262">
        <ele>52</ele>
        <time>2021-03-24T21:35:52Z</time>
      </trkpt>
      <trkpt lat="47.54009" lon="-0.10263">
        <ele>52</ele>
        <time>2021-03-24T21:35:52Z</time>
      </trkpt>
      <trkpt lat="47.5401" lon="-0.10264">
        <ele>52</ele>
        <time>2021-03-24T21:35:52Z</time>
      </trkpt>
      <trkpt lat="47.54048" lon="-0.10292">
        <ele>52</ele>
        <time>2021-03-24T21:36:00Z</time>
      </trkpt>
      <trkpt lat="47.54074" lon="-0.10315">
        <ele>51</ele>
        <time>2021-03-24T21:36:05Z</time>
      </trkpt>
      <trkpt lat="47.54084" lon="-0.10324">
        <ele>51</ele>
        <time>2021-03-24T21:36:07Z</time>
      </trkpt>
      <trkpt lat="47.54092" lon="-0.10332">
        <ele>51</ele>
        <time>2021-03-24T21:36:09Z</time>
      </trkpt>
      <trkpt lat="47.54093" lon="-0.10334">
        <ele>51</ele>
        <time>2021-03-24T21:36:09Z</time>
      </trkpt>
      <trkpt lat="47.54093" lon="-0.10337">
        <ele>51</ele>
        <time>2021-03-24T21:36:10Z</time>
      </trkpt>
      <trkpt lat="47.54162" lon="-0.10398">
        <ele>55</ele>
        <time>2021-03-24T21:36:24Z</time>
      </trkpt>
      <trkpt lat="47.54188" lon="-0.10422">
        <ele>57</ele>
        <time>2021-03-24T21:36:29Z</time>
      </trkpt>
      <trkpt lat="47.54193" lon="-0.10426">
        <ele>57</ele>
        <time>2021-03-24T21:36:30Z</time>
      </trkpt>
      <trkpt lat="47.54193" lon="-0.10426">
        <ele>57</ele>
        <time>2021-03-24T21:36:30Z</time>
      </trkpt>
      <trkpt lat="47.54205" lon="-0.10435">
        <ele>57</ele>
        <time>2021-03-24T21:36:33Z</time>
      </trkpt>
      <trkpt lat="47.5421" lon="-0.10429">
        <ele>57</ele>
        <time>2021-03-24T21:36:34Z</time>
      </trkpt>
      <trkpt lat="47.54215" lon="-0.10423">
        <ele>57</ele>
        <time>2021-03-24T21:36:35Z</time>
      </trkpt>
      <trkpt lat="47.54219" lon="-0.10414">
        <ele>57</ele>
        <time>2021-03-24T21:36:36Z</time>
      </trkpt>
      <trkpt lat="47.54235" lon="-0.10372">
        <ele>57</ele>
        <time>2021-03-24T21:36:42Z</time>
      </trkpt>
      <trkpt lat="47.54244" lon="-0.10349">
        <ele>56</ele>
        <time>2021-03-24T21:36:45Z</time>
      </trkpt>
      <trkpt lat="47.54245" lon="-0.10349">
        <ele>56</ele>
        <time>2021-03-24T21:36:46Z</time>
      </trkpt>
      <trkpt lat="47.54245" lon="-0.10349">
        <ele>56</ele>
        <time>2021-03-24T21:36:46Z</time>
      </trkpt>
      <trkpt lat="47.5425" lon="-0.10336">
        <ele>56</ele>
        <time>2021-03-24T21:36:47Z</time>
      </trkpt>
      <trkpt lat="47.54254" lon="-0.10325">
        <ele>56</ele>
        <time>2021-03-24T21:36:49Z</time>
      </trkpt>
      <trkpt lat="47.54259" lon="-0.10307">
        <ele>56</ele>
        <time>2021-03-24T21:36:51Z</time>
      </trkpt>
      <trkpt lat="47.54265" lon="-0.10281">
        <ele>56</ele>
        <time>2021-03-24T21:36:55Z</time>
      </trkpt>
      <trkpt lat="47.54273" lon="-0.10253">
        <ele>57</ele>
        <time>2021-03-24T21:36:58Z</time>
      </trkpt>
      <trkpt lat="47.5428" lon="-0.1023">
        <ele>57</ele>
        <time>2021-03-24T21:37:01Z</time>
      </trkpt>
      <trkpt lat="47.54283" lon="-0.10219">
        <ele>56</ele>
        <time>2021-03-24T21:37:03Z</time>
      </trkpt>
      <trkpt lat="47.54286" lon="-0.10211">
        <ele>56</ele>
        <time>2021-03-24T21:37:04Z</time>
      </trkpt>
      <trkpt lat="47.54289" lon="-0.10202">
        <ele>56</ele>
        <time>2021-03-24T21:37:05Z</time>
      </trkpt>
      <trkpt lat="47.54295" lon="-0.10187">
        <ele>56</ele>
        <time>2021-03-24T21:37:07Z</time>
      </trkpt>
      <trkpt lat="47.54301" lon="-0.10171">
        <ele>56</ele>
        <time>2021-03-24T21:37:09Z</time>
      </trkpt>
      <trkpt lat="47.54309" lon="-0.10152">
        <ele>56</ele>
        <time>2021-03-24T21:37:12Z</time>
      </trkpt>
      <trkpt lat="47.54311" lon="-0.10149">
        <ele>56</ele>
        <time>2021-03-24T21:37:12Z</time>
      </trkpt>
      <trkpt lat="47.54315" lon="-0.10137">
        <ele>56</ele>
        <time>2021-03-24T21:37:14Z</time>
      </trkpt>
      <trkpt lat="47.54323" lon="-0.10116">
        <ele>56</ele>
        <time>2021-03-24T21:37:17Z</time>
      </trkpt>
      <trkpt lat="47.54337" lon="-0.10083">
        <ele>56</ele>
        <time>2021-03-24T21:37:22Z</time>
      </trkpt>
      <trkpt lat="47.54347" lon="-0.10057">
        <ele>56</ele>
        <time>2021-03-24T21:37:25Z</time>
      </trkpt>
      <trkpt lat="47.54352" lon="-0.10045">
        <ele>56</ele>
        <time>2021-03-24T21:37:27Z</time>
      </trkpt>
      <trkpt lat="47.54352" lon="-0.10045">
        <ele>56</ele>
        <time>2021-03-24T21:37:27Z</time>
      </trkpt>
      <trkpt lat="47.54357" lon="-0.1003">
        <ele>56</ele>
        <time>2021-03-24T21:37:29Z</time>
      </trkpt>
      <trkpt lat="47.54359" lon="-0.10022">
        <ele>56</ele>
        <time>2021-03-24T21:37:30Z</time>
      </trkpt>
      <trkpt lat="47.54363" lon="-0.10008">
        <ele>56</ele>
        <time>2021-03-24T21:37:32Z</time>
      </trkpt>
      <trkpt lat="47.5437" lon="-0.09983">
        <ele>57</ele>
        <time>2021-03-24T21:37:35Z</time>
      </trkpt>
      <trkpt lat="47.54377" lon="-0.09957">
        <ele>58</ele>
        <time>2021-03-24T21:37:38Z</time>
      </trkpt>
      <trkpt lat="47.54385" lon="-0.09928">
        <ele>58</ele>
        <time>2021-03-24T21:37:42Z</time>
      </trkpt>
      <trkpt lat="47.54396" lon="-0.09891">
        <ele>59</ele>
        <time>2021-03-24T21:37:47Z</time>
      </trkpt>
      <trkpt lat="47.54406" lon="-0.09855">
        <ele>59</ele>
        <time>2021-03-24T21:37:52Z</time>
      </trkpt>
      <trkpt lat="47.54412" lon="-0.09828">
        <ele>60</ele>
        <time>2021-03-24T21:37:55Z</time>
      </trkpt>
      <trkpt lat="47.54414" lon="-0.0982">
        <ele>60</ele>
        <time>2021-03-24T21:37:56Z</time>
      </trkpt>
      <trkpt lat="47.54415" lon="-0.09816">
        <ele>60</ele>
        <time>2021-03-24T21:37:57Z</time>
      </trkpt>
      <trkpt lat="47.54418" lon="-0.09805">
        <ele>59</ele>
        <time>2021-03-24T21:37:58Z</time>
      </trkpt>
      <trkpt lat="47.54423" lon="-0.0979">
        <ele>59</ele>
        <time>2021-03-24T21:38:00Z</time>
      </trkpt>
      <trkpt lat="47.54427" lon="-0.09778">
        <ele>59</ele>
        <time>2021-03-24T21:38:02Z</time>
      </trkpt>
      <trkpt lat="47.54454" lon="-0.09705">
        <ele>60</ele>
        <time>2021-03-24T21:38:12Z</time>
      </trkpt>
      <trkpt lat="47.54454" lon="-0.09703">
        <ele>60</ele>
        <time>2021-03-24T21:38:12Z</time>
      </trkpt>
      <trkpt lat="47.54477" lon="-0.09644">
        <ele>61</ele>
        <time>2021-03-24T21:38:20Z</time>
      </trkpt>
      <trkpt lat="47.54485" lon="-0.09623">
        <ele>61</ele>
        <time>2021-03-24T21:38:23Z</time>
      </trkpt>
      <trkpt lat="47.54494" lon="-0.096">
        <ele>61</ele>
        <time>2021-03-24T21:38:26Z</time>
      </trkpt>
      <trkpt lat="47.54508" lon="-0.09569">
        <ele>61</ele>
        <time>2021-03-24T21:38:31Z</time>
      </trkpt>
      <trkpt lat="47.54514" lon="-0.09556">
        <ele>61</ele>
        <time>2021-03-24T21:38:33Z</time>
      </trkpt>
      <trkpt lat="47.54524" lon="-0.09533">
        <ele>60</ele>
        <time>2021-03-24T21:38:36Z</time>
      </trkpt>
      <trkpt lat="47.54534" lon="-0.09511">
        <ele>60</ele>
        <time>2021-03-24T21:38:39Z</time>
      </trkpt>
      <trkpt lat="47.54539" lon="-0.09495">
        <ele>60</ele>
        <time>2021-03-24T21:38:41Z</time>
      </trkpt>
      <trkpt lat="47.54542" lon="-0.09482">
        <ele>60</ele>
        <time>2021-03-24T21:38:43Z</time>
      </trkpt>
      <trkpt lat="47.54545" lon="-0.09469">
        <ele>60</ele>
        <time>2021-03-24T21:38:44Z</time>
      </trkpt>
      <trkpt lat="47.54548" lon="-0.09455">
        <ele>60</ele>
        <time>2021-03-24T21:38:46Z</time>
      </trkpt>
      <trkpt lat="47.54552" lon="-0.09426">
        <ele>60</ele>
        <time>2021-03-24T21:38:50Z</time>
      </trkpt>
      <trkpt lat="47.54555" lon="-0.09408">
        <ele>60</ele>
        <time>2021-03-24T21:38:52Z</time>
      </trkpt>
      <trkpt lat="47.54557" lon="-0.0939">
        <ele>60</ele>
        <time>2021-03-24T21:38:54Z</time>
      </trkpt>
      <trkpt lat="47.5456" lon="-0.09372">
        <ele>60</ele>
        <time>2021-03-24T21:38:56Z</time>
      </trkpt>
      <trkpt lat="47.54562" lon="-0.09357">
        <ele>60</ele>
        <time>2021-03-24T21:38:58Z</time>
      </trkpt>
      <trkpt lat="47.54565" lon="-0.09341">
        <ele>60</ele>
        <time>2021-03-24T21:39:00Z</time>
      </trkpt>
      <trkpt lat="47.54568" lon="-0.09329">
        <ele>61</ele>
        <time>2021-03-24T21:39:02Z</time>
      </trkpt>
      <trkpt lat="47.54572" lon="-0.09316">
        <ele>61</ele>
        <time>2021-03-24T21:39:03Z</time>
      </trkpt>
      <trkpt lat="47.54573" lon="-0.09314">
        <ele>61</ele>
        <time>2021-03-24T21:39:04Z</time>
      </trkpt>
      <trkpt lat="47.54577" lon="-0.09303">
        <ele>61</ele>
        <time>2021-03-24T21:39:05Z</time>
      </trkpt>
      <trkpt lat="47.54587" lon="-0.09281">
        <ele>61</ele>
        <time>2021-03-24T21:39:08Z</time>
      </trkpt>
      <trkpt lat="47.54595" lon="-0.09264">
        <ele>61</ele>
        <time>2021-03-24T21:39:11Z</time>
      </trkpt>
      <trkpt lat="47.54606" lon="-0.09247">
        <ele>61</ele>
        <time>2021-03-24T21:39:14Z</time>
      </trkpt>
      <trkpt lat="47.54618" lon="-0.09229">
        <ele>61</ele>
        <time>2021-03-24T21:39:17Z</time>
      </trkpt>
      <trkpt lat="47.54635" lon="-0.09205">
        <ele>61</ele>
        <time>2021-03-24T21:39:21Z</time>
      </trkpt>
      <trkpt lat="47.54641" lon="-0.09197">
        <ele>61</ele>
        <time>2021-03-24T21:39:22Z</time>
      </trkpt>
      <trkpt lat="47.54661" lon="-0.09169">
        <ele>62</ele>
        <time>2021-03-24T21:39:27Z</time>
      </trkpt>
      <trkpt lat="47.54687" lon="-0.09133">
        <ele>62</ele>
        <time>2021-03-24T21:39:34Z</time>
      </trkpt>
      <trkpt lat="47.54705" lon="-0.0911">
        <ele>62</ele>
        <time>2021-03-24T21:39:38Z</time>
      </trkpt>
      <trkpt lat="47.54713" lon="-0.091">
        <ele>62</ele>
        <time>2021-03-24T21:39:40Z</time>
      </trkpt>
      <trkpt lat="47.5472" lon="-0.09092">
        <ele>62</ele>
        <time>2021-03-24T21:39:41Z</time>
      </trkpt>
      <trkpt lat="47.54736" lon="-0.09072">
        <ele>63</ele>
        <time>2021-03-24T21:39:45Z</time>
      </trkpt>
      <trkpt lat="47.54753" lon="-0.09053">
        <ele>63</ele>
        <time>2021-03-24T21:39:49Z</time>
      </trkpt>
      <trkpt lat="47.54766" lon="-0.09041">
        <ele>63</ele>
        <time>2021-03-24T21:39:52Z</time>
      </trkpt>
      <trkpt lat="47.54782" lon="-0.09027">
        <ele>63</ele>
        <time>2021-03-24T21:39:55Z</time>
      </trkpt>
      <trkpt lat="47.54799" lon="-0.09013">
        <ele>63</ele>
        <time>2021-03-24T21:39:58Z</time>
      </trkpt>
      <trkpt lat="47.5481" lon="-0.09006">
        <ele>62</ele>
        <time>2021-03-24T21:40:00Z</time>
      </trkpt>
      <trkpt lat="47.54823" lon="-0.08997">
        <ele>62</ele>
        <time>2021-03-24T21:40:03Z</time>
      </trkpt>
      <trkpt lat="47.54837" lon="-0.08989">
        <ele>61</ele>
        <time>2021-03-24T21:40:06Z</time>
      </trkpt>
      <trkpt lat="47.54873" lon="-0.08968">
        <ele>61</ele>
        <time>2021-03-24T21:40:13Z</time>
      </trkpt>
      <trkpt lat="47.54917" lon="-0.0894">
        <ele>60</ele>
        <time>2021-03-24T21:40:21Z</time>
      </trkpt>
      <trkpt lat="47.5497" lon="-0.08909">
        <ele>60</ele>
        <time>2021-03-24T21:40:31Z</time>
      </trkpt>
      <trkpt lat="47.55005" lon="-0.08889">
        <ele>61</ele>
        <time>2021-03-24T21:40:38Z</time>
      </trkpt>
      <trkpt lat="47.55016" lon="-0.08881">
        <ele>61</ele>
        <time>2021-03-24T21:40:40Z</time>
      </trkpt>
      <trkpt lat="47.55032" lon="-0.0887">
        <ele>60</ele>
        <time>2021-03-24T21:40:43Z</time>
      </trkpt>
      <trkpt lat="47.55046" lon="-0.08861">
        <ele>60</ele>
        <time>2021-03-24T21:40:46Z</time>
      </trkpt>
      <trkpt lat="47.55057" lon="-0.08852">
        <ele>60</ele>
        <time>2021-03-24T21:40:48Z</time>
      </trkpt>
      <trkpt lat="47.55067" lon="-0.08842">
        <ele>59</ele>
        <time>2021-03-24T21:40:50Z</time>
      </trkpt>
      <trkpt lat="47.55078" lon="-0.0883">
        <ele>59</ele>
        <time>2021-03-24T21:40:53Z</time>
      </trkpt>
      <trkpt lat="47.5509" lon="-0.08818">
        <ele>59</ele>
        <time>2021-03-24T21:40:55Z</time>
      </trkpt>
      <trkpt lat="47.55102" lon="-0.08803">
        <ele>60</ele>
        <time>2021-03-24T21:40:58Z</time>
      </trkpt>
      <trkpt lat="47.55113" lon="-0.08786">
        <ele>61</ele>
        <time>2021-03-24T21:41:01Z</time>
      </trkpt>
      <trkpt lat="47.55119" lon="-0.08776">
        <ele>61</ele>
        <time>2021-03-24T21:41:03Z</time>
      </trkpt>
      <trkpt lat="47.55147" lon="-0.08723">
        <ele>62</ele>
        <time>2021-03-24T21:41:11Z</time>
      </trkpt>
      <trkpt lat="47.55163" lon="-0.08689">
        <ele>62</ele>
        <time>2021-03-24T21:41:16Z</time>
      </trkpt>
      <trkpt lat="47.55169" lon="-0.08676">
        <ele>62</ele>
        <time>2021-03-24T21:41:18Z</time>
      </trkpt>
      <trkpt lat="47.55177" lon="-0.08664">
        <ele>62</ele>
        <time>2021-03-24T21:41:20Z</time>
      </trkpt>
      <trkpt lat="47.55184" lon="-0.0865">
        <ele>62</ele>
        <time>2021-03-24T21:41:22Z</time>
      </trkpt>
      <trkpt lat="47.55189" lon="-0.08642">
        <ele>62</ele>
        <time>2021-03-24T21:41:23Z</time>
      </trkpt>
      <trkpt lat="47.55196" lon="-0.08632">
        <ele>62</ele>
        <time>2021-03-24T21:41:25Z</time>
      </trkpt>
      <trkpt lat="47.55203" lon="-0.08623">
        <ele>62</ele>
        <time>2021-03-24T21:41:26Z</time>
      </trkpt>
      <trkpt lat="47.55212" lon="-0.08612">
        <ele>62</ele>
        <time>2021-03-24T21:41:28Z</time>
      </trkpt>
      <trkpt lat="47.55224" lon="-0.08599">
        <ele>62</ele>
        <time>2021-03-24T21:41:31Z</time>
      </trkpt>
      <trkpt lat="47.55238" lon="-0.08585">
        <ele>62</ele>
        <time>2021-03-24T21:41:34Z</time>
      </trkpt>
      <trkpt lat="47.5525" lon="-0.08574">
        <ele>63</ele>
        <time>2021-03-24T21:41:37Z</time>
      </trkpt>
      <trkpt lat="47.55261" lon="-0.08566">
        <ele>64</ele>
        <time>2021-03-24T21:41:39Z</time>
      </trkpt>
      <trkpt lat="47.55272" lon="-0.08557">
        <ele>64</ele>
        <time>2021-03-24T21:41:41Z</time>
      </trkpt>
      <trkpt lat="47.55285" lon="-0.08545">
        <ele>65</ele>
        <time>2021-03-24T21:41:44Z</time>
      </trkpt>
      <trkpt lat="47.55304" lon="-0.0853">
        <ele>66</ele>
        <time>2021-03-24T21:41:48Z</time>
      </trkpt>
      <trkpt lat="47.55318" lon="-0.08516">
        <ele>66</ele>
        <time>2021-03-24T21:41:51Z</time>
      </trkpt>
      <trkpt lat="47.55335" lon="-0.08499">
        <ele>66</ele>
        <time>2021-03-24T21:41:54Z</time>
      </trkpt>
      <trkpt lat="47.55348" lon="-0.08484">
        <ele>66</ele>
        <time>2021-03-24T21:41:57Z</time>
      </trkpt>
      <trkpt lat="47.55359" lon="-0.08467">
        <ele>65</ele>
        <time>2021-03-24T21:42:00Z</time>
      </trkpt>
      <trkpt lat="47.55369" lon="-0.0845">
        <ele>64</ele>
        <time>2021-03-24T21:42:03Z</time>
      </trkpt>
      <trkpt lat="47.55382" lon="-0.08423">
        <ele>62</ele>
        <time>2021-03-24T21:42:07Z</time>
      </trkpt>
      <trkpt lat="47.55394" lon="-0.08394">
        <ele>63</ele>
        <time>2021-03-24T21:42:11Z</time>
      </trkpt>
      <trkpt lat="47.55405" lon="-0.08364">
        <ele>64</ele>
        <time>2021-03-24T21:42:15Z</time>
      </trkpt>
      <trkpt lat="47.55413" lon="-0.08343">
        <ele>64</ele>
        <time>2021-03-24T21:42:18Z</time>
      </trkpt>
      <trkpt lat="47.55417" lon="-0.08328">
        <ele>65</ele>
        <time>2021-03-24T21:42:20Z</time>
      </trkpt>
      <trkpt lat="47.55422" lon="-0.08308">
        <ele>66</ele>
        <time>2021-03-24T21:42:22Z</time>
      </trkpt>
      <trkpt lat="47.55422" lon="-0.08308">
        <ele>66</ele>
        <time>2021-03-24T21:42:22Z</time>
      </trkpt>
      <trkpt lat="47.55426" lon="-0.08304">
        <ele>66</ele>
        <time>2021-03-24T21:42:23Z</time>
      </trkpt>
      <trkpt lat="47.5543" lon="-0.083">
        <ele>66</ele>
        <time>2021-03-24T21:42:24Z</time>
      </trkpt>
      <trkpt lat="47.55435" lon="-0.08295">
        <ele>66</ele>
        <time>2021-03-24T21:42:25Z</time>
      </trkpt>
      <trkpt lat="47.55443" lon="-0.08288">
        <ele>66</ele>
        <time>2021-03-24T21:42:27Z</time>
      </trkpt>
      <trkpt lat="47.55449" lon="-0.08285">
        <ele>66</ele>
        <time>2021-03-24T21:42:28Z</time>
      </trkpt>
      <trkpt lat="47.55453" lon="-0.08283">
        <ele>66</ele>
        <time>2021-03-24T21:42:29Z</time>
      </trkpt>
      <trkpt lat="47.55458" lon="-0.08281">
        <ele>66</ele>
        <time>2021-03-24T21:42:29Z</time>
      </trkpt>
      <trkpt lat="47.55464" lon="-0.0828">
        <ele>66</ele>
        <time>2021-03-24T21:42:31Z</time>
      </trkpt>
      <trkpt lat="47.55471" lon="-0.08279">
        <ele>67</ele>
        <time>2021-03-24T21:42:32Z</time>
      </trkpt>
      <trkpt lat="47.55478" lon="-0.08279">
        <ele>67</ele>
        <time>2021-03-24T21:42:33Z</time>
      </trkpt>
      <trkpt lat="47.55484" lon="-0.08279">
        <ele>67</ele>
        <time>2021-03-24T21:42:34Z</time>
      </trkpt>
      <trkpt lat="47.55511" lon="-0.08284">
        <ele>67</ele>
        <time>2021-03-24T21:42:39Z</time>
      </trkpt>
      <trkpt lat="47.55531" lon="-0.08288">
        <ele>67</ele>
        <time>2021-03-24T21:42:43Z</time>
      </trkpt>
      <trkpt lat="47.55546" lon="-0.0829">
        <ele>67</ele>
        <time>2021-03-24T21:42:45Z</time>
      </trkpt>
      <trkpt lat="47.55554" lon="-0.08291">
        <ele>68</ele>
        <time>2021-03-24T21:42:47Z</time>
      </trkpt>
      <trkpt lat="47.5556" lon="-0.08292">
        <ele>68</ele>
        <time>2021-03-24T21:42:48Z</time>
      </trkpt>
      <trkpt lat="47.55568" lon="-0.08292">
        <ele>68</ele>
        <time>2021-03-24T21:42:49Z</time>
      </trkpt>
      <trkpt lat="47.55574" lon="-0.08292">
        <ele>68</ele>
        <time>2021-03-24T21:42:50Z</time>
      </trkpt>
      <trkpt lat="47.55581" lon="-0.08291">
        <ele>68</ele>
        <time>2021-03-24T21:42:51Z</time>
      </trkpt>
      <trkpt lat="47.5559" lon="-0.08289">
        <ele>69</ele>
        <time>2021-03-24T21:42:53Z</time>
      </trkpt>
      <trkpt lat="47.55601" lon="-0.08286">
        <ele>69</ele>
        <time>2021-03-24T21:42:55Z</time>
      </trkpt>
      <trkpt lat="47.55637" lon="-0.08273">
        <ele>71</ele>
        <time>2021-03-24T21:43:02Z</time>
      </trkpt>
      <trkpt lat="47.55664" lon="-0.08262">
        <ele>72</ele>
        <time>2021-03-24T21:43:07Z</time>
      </trkpt>
      <trkpt lat="47.55697" lon="-0.08249">
        <ele>73</ele>
        <time>2021-03-24T21:43:13Z</time>
      </trkpt>
      <trkpt lat="47.55709" lon="-0.08244">
        <ele>73</ele>
        <time>2021-03-24T21:43:15Z</time>
      </trkpt>
      <trkpt lat="47.55715" lon="-0.08242">
        <ele>73</ele>
        <time>2021-03-24T21:43:16Z</time>
      </trkpt>
      <trkpt lat="47.55721" lon="-0.0824">
        <ele>73</ele>
        <time>2021-03-24T21:43:17Z</time>
      </trkpt>
      <trkpt lat="47.55728" lon="-0.08236">
        <ele>73</ele>
        <time>2021-03-24T21:43:18Z</time>
      </trkpt>
      <trkpt lat="47.55735" lon="-0.08233">
        <ele>73</ele>
        <time>2021-03-24T21:43:20Z</time>
      </trkpt>
      <trkpt lat="47.55745" lon="-0.08226">
        <ele>73</ele>
        <time>2021-03-24T21:43:22Z</time>
      </trkpt>
      <trkpt lat="47.55753" lon="-0.0822">
        <ele>73</ele>
        <time>2021-03-24T21:43:23Z</time>
      </trkpt>
      <trkpt lat="47.55762" lon="-0.08214">
        <ele>73</ele>
        <time>2021-03-24T21:43:25Z</time>
      </trkpt>
      <trkpt lat="47.5577" lon="-0.08207">
        <ele>73</ele>
        <time>2021-03-24T21:43:27Z</time>
      </trkpt>
      <trkpt lat="47.55779" lon="-0.082">
        <ele>73</ele>
        <time>2021-03-24T21:43:29Z</time>
      </trkpt>
      <trkpt lat="47.55787" lon="-0.08192">
        <ele>74</ele>
        <time>2021-03-24T21:43:30Z</time>
      </trkpt>
      <trkpt lat="47.55796" lon="-0.08184">
        <ele>74</ele>
        <time>2021-03-24T21:43:32Z</time>
      </trkpt>
      <trkpt lat="47.55823" lon="-0.08164">
        <ele>74</ele>
        <time>2021-03-24T21:43:37Z</time>
      </trkpt>
      <trkpt lat="47.55827" lon="-0.08159">
        <ele>74</ele>
        <time>2021-03-24T21:43:38Z</time>
      </trkpt>
      <trkpt lat="47.55831" lon="-0.08155">
        <ele>74</ele>
        <time>2021-03-24T21:43:39Z</time>
      </trkpt>
      <trkpt lat="47.5584" lon="-0.08147">
        <ele>74</ele>
        <time>2021-03-24T21:43:41Z</time>
      </trkpt>
      <trkpt lat="47.55846" lon="-0.08142">
        <ele>74</ele>
        <time>2021-03-24T21:43:42Z</time>
      </trkpt>
      <trkpt lat="47.55854" lon="-0.08132">
        <ele>75</ele>
        <time>2021-03-24T21:43:44Z</time>
      </trkpt>
      <trkpt lat="47.55859" lon="-0.08125">
        <ele>75</ele>
        <time>2021-03-24T21:43:45Z</time>
      </trkpt>
      <trkpt lat="47.55866" lon="-0.08113">
        <ele>75</ele>
        <time>2021-03-24T21:43:47Z</time>
      </trkpt>
      <trkpt lat="47.5587" lon="-0.08103">
        <ele>75</ele>
        <time>2021-03-24T21:43:49Z</time>
      </trkpt>
      <trkpt lat="47.55874" lon="-0.08093">
        <ele>76</ele>
        <time>2021-03-24T21:43:50Z</time>
      </trkpt>
      <trkpt lat="47.55876" lon="-0.08082">
        <ele>76</ele>
        <time>2021-03-24T21:43:52Z</time>
      </trkpt>
      <trkpt lat="47.5588" lon="-0.08069">
        <ele>76</ele>
        <time>2021-03-24T21:43:53Z</time>
      </trkpt>
      <trkpt lat="47.55883" lon="-0.08054">
        <ele>77</ele>
        <time>2021-03-24T21:43:55Z</time>
      </trkpt>
      <trkpt lat="47.55886" lon="-0.08041">
        <ele>77</ele>
        <time>2021-03-24T21:43:57Z</time>
      </trkpt>
      <trkpt lat="47.55889" lon="-0.08027">
        <ele>77</ele>
        <time>2021-03-24T21:43:59Z</time>
      </trkpt>
      <trkpt lat="47.5589" lon="-0.08021">
        <ele>78</ele>
        <time>2021-03-24T21:43:59Z</time>
      </trkpt>
      <trkpt lat="47.55895" lon="-0.08005">
        <ele>78</ele>
        <time>2021-03-24T21:44:01Z</time>
      </trkpt>
      <trkpt lat="47.55897" lon="-0.08">
        <ele>78</ele>
        <time>2021-03-24T21:44:02Z</time>
      </trkpt>
      <trkpt lat="47.55898" lon="-0.07994">
        <ele>78</ele>
        <time>2021-03-24T21:44:03Z</time>
      </trkpt>
      <trkpt lat="47.55902" lon="-0.07985">
        <ele>78</ele>
        <time>2021-03-24T21:44:04Z</time>
      </trkpt>
      <trkpt lat="47.55906" lon="-0.07979">
        <ele>78</ele>
        <time>2021-03-24T21:44:05Z</time>
      </trkpt>
      <trkpt lat="47.5591" lon="-0.07972">
        <ele>78</ele>
        <time>2021-03-24T21:44:06Z</time>
      </trkpt>
      <trkpt lat="47.55915" lon="-0.07967">
        <ele>79</ele>
        <time>2021-03-24T21:44:07Z</time>
      </trkpt>
      <trkpt lat="47.55921" lon="-0.07962">
        <ele>79</ele>
        <time>2021-03-24T21:44:09Z</time>
      </trkpt>
      <trkpt lat="47.55928" lon="-0.07957">
        <ele>78</ele>
        <time>2021-03-24T21:44:10Z</time>
      </trkpt>
      <trkpt lat="47.55937" lon="-0.07952">
        <ele>78</ele>
        <time>2021-03-24T21:44:12Z</time>
      </trkpt>
      <trkpt lat="47.55949" lon="-0.07946">
        <ele>78</ele>
        <time>2021-03-24T21:44:14Z</time>
      </trkpt>
      <trkpt lat="47.55976" lon="-0.07936">
        <ele>78</ele>
        <time>2021-03-24T21:44:19Z</time>
      </trkpt>
      <trkpt lat="47.56016" lon="-0.07919">
        <ele>78</ele>
        <time>2021-03-24T21:44:26Z</time>
      </trkpt>
      <trkpt lat="47.56077" lon="-0.07894">
        <ele>79</ele>
        <time>2021-03-24T21:44:38Z</time>
      </trkpt>
      <trkpt lat="47.56118" lon="-0.07878">
        <ele>79</ele>
        <time>2021-03-24T21:44:45Z</time>
      </trkpt>
      <trkpt lat="47.56127" lon="-0.07875">
        <ele>79</ele>
        <time>2021-03-24T21:44:47Z</time>
      </trkpt>
      <trkpt lat="47.56135" lon="-0.07873">
        <ele>79</ele>
        <time>2021-03-24T21:44:48Z</time>
      </trkpt>
      <trkpt lat="47.56143" lon="-0.07871">
        <ele>79</ele>
        <time>2021-03-24T21:44:50Z</time>
      </trkpt>
      <trkpt lat="47.56151" lon="-0.0787">
        <ele>79</ele>
        <time>2021-03-24T21:44:51Z</time>
      </trkpt>
      <trkpt lat="47.56158" lon="-0.0787">
        <ele>79</ele>
        <time>2021-03-24T21:44:52Z</time>
      </trkpt>
      <trkpt lat="47.56165" lon="-0.0787">
        <ele>80</ele>
        <time>2021-03-24T21:44:53Z</time>
      </trkpt>
      <trkpt lat="47.56171" lon="-0.07872">
        <ele>80</ele>
        <time>2021-03-24T21:44:55Z</time>
      </trkpt>
      <trkpt lat="47.56179" lon="-0.07874">
        <ele>80</ele>
        <time>2021-03-24T21:44:56Z</time>
      </trkpt>
      <trkpt lat="47.56187" lon="-0.07875">
        <ele>80</ele>
        <time>2021-03-24T21:44:57Z</time>
      </trkpt>
      <trkpt lat="47.56208" lon="-0.07883">
        <ele>80</ele>
        <time>2021-03-24T21:45:01Z</time>
      </trkpt>
      <trkpt lat="47.56247" lon="-0.07896">
        <ele>81</ele>
        <time>2021-03-24T21:45:08Z</time>
      </trkpt>
      <trkpt lat="47.56276" lon="-0.07908">
        <ele>81</ele>
        <time>2021-03-24T21:45:14Z</time>
      </trkpt>
      <trkpt lat="47.56297" lon="-0.07914">
        <ele>80</ele>
        <time>2021-03-24T21:45:18Z</time>
      </trkpt>
      <trkpt lat="47.56308" lon="-0.07917">
        <ele>80</ele>
        <time>2021-03-24T21:45:20Z</time>
      </trkpt>
      <trkpt lat="47.56321" lon="-0.07921">
        <ele>80</ele>
        <time>2021-03-24T21:45:22Z</time>
      </trkpt>
      <trkpt lat="47.5633" lon="-0.07923">
        <ele>80</ele>
        <time>2021-03-24T21:45:24Z</time>
      </trkpt>
      <trkpt lat="47.56339" lon="-0.07924">
        <ele>80</ele>
        <time>2021-03-24T21:45:25Z</time>
      </trkpt>
      <trkpt lat="47.56347" lon="-0.07925">
        <ele>80</ele>
        <time>2021-03-24T21:45:27Z</time>
      </trkpt>
      <trkpt lat="47.56357" lon="-0.07925">
        <ele>80</ele>
        <time>2021-03-24T21:45:28Z</time>
      </trkpt>
      <trkpt lat="47.56364" lon="-0.07926">
        <ele>80</ele>
        <time>2021-03-24T21:45:30Z</time>
      </trkpt>
      <trkpt lat="47.56376" lon="-0.07925">
        <ele>80</ele>
        <time>2021-03-24T21:45:32Z</time>
      </trkpt>
      <trkpt lat="47.56387" lon="-0.07924">
        <ele>80</ele>
        <time>2021-03-24T21:45:34Z</time>
      </trkpt>
      <trkpt lat="47.56405" lon="-0.07923">
        <ele>80</ele>
        <time>2021-03-24T21:45:37Z</time>
      </trkpt>
      <trkpt lat="47.5643" lon="-0.07922">
        <ele>80</ele>
        <time>2021-03-24T21:45:41Z</time>
      </trkpt>
      <trkpt lat="47.56455" lon="-0.0792">
        <ele>80</ele>
        <time>2021-03-24T21:45:46Z</time>
      </trkpt>
      <trkpt lat="47.56476" lon="-0.07919">
        <ele>81</ele>
        <time>2021-03-24T21:45:50Z</time>
      </trkpt>
      <trkpt lat="47.56503" lon="-0.07917">
        <ele>81</ele>
        <time>2021-03-24T21:45:54Z</time>
      </trkpt>
      <trkpt lat="47.56527" lon="-0.07916">
        <ele>81</ele>
        <time>2021-03-24T21:45:59Z</time>
      </trkpt>
      <trkpt lat="47.5655" lon="-0.07914">
        <ele>81</ele>
        <time>2021-03-24T21:46:03Z</time>
      </trkpt>
      <trkpt lat="47.56574" lon="-0.07913">
        <ele>81</ele>
        <time>2021-03-24T21:46:07Z</time>
      </trkpt>
      <trkpt lat="47.56601" lon="-0.07911">
        <ele>81</ele>
        <time>2021-03-24T21:46:12Z</time>
      </trkpt>
      <trkpt lat="47.56622" lon="-0.0791">
        <ele>81</ele>
        <time>2021-03-24T21:46:16Z</time>
      </trkpt>
      <trkpt lat="47.56641" lon="-0.07909">
        <ele>81</ele>
        <time>2021-03-24T21:46:19Z</time>
      </trkpt>
      <trkpt lat="47.56657" lon="-0.07908">
        <ele>81</ele>
        <time>2021-03-24T21:46:22Z</time>
      </trkpt>
      <trkpt lat="47.56669" lon="-0.07907">
        <ele>81</ele>
        <time>2021-03-24T21:46:24Z</time>
      </trkpt>
      <trkpt lat="47.56676" lon="-0.07905">
        <ele>81</ele>
        <time>2021-03-24T21:46:25Z</time>
      </trkpt>
      <trkpt lat="47.56684" lon="-0.079">
        <ele>80</ele>
        <time>2021-03-24T21:46:27Z</time>
      </trkpt>
      <trkpt lat="47.56695" lon="-0.07891">
        <ele>80</ele>
        <time>2021-03-24T21:46:29Z</time>
      </trkpt>
      <trkpt lat="47.56711" lon="-0.07871">
        <ele>79</ele>
        <time>2021-03-24T21:46:33Z</time>
      </trkpt>
      <trkpt lat="47.56743" lon="-0.07828">
        <ele>78</ele>
        <time>2021-03-24T21:46:40Z</time>
      </trkpt>
      <trkpt lat="47.56766" lon="-0.07797">
        <ele>77</ele>
        <time>2021-03-24T21:46:46Z</time>
      </trkpt>
      <trkpt lat="47.56811" lon="-0.07737">
        <ele>77</ele>
        <time>2021-03-24T21:46:57Z</time>
      </trkpt>
      <trkpt lat="47.5682" lon="-0.07725">
        <ele>77</ele>
        <time>2021-03-24T21:46:59Z</time>
      </trkpt>
      <trkpt lat="47.56851" lon="-0.07685">
        <ele>78</ele>
        <time>2021-03-24T21:47:06Z</time>
      </trkpt>
      <trkpt lat="47.56896" lon="-0.07627">
        <ele>81</ele>
        <time>2021-03-24T21:47:17Z</time>
      </trkpt>
      <trkpt lat="47.5692" lon="-0.07596">
        <ele>81</ele>
        <time>2021-03-24T21:47:22Z</time>
      </trkpt>
      <trkpt lat="47.56954" lon="-0.07551">
        <ele>81</ele>
        <time>2021-03-24T21:47:31Z</time>
      </trkpt>
      <trkpt lat="47.56974" lon="-0.07527">
        <ele>82</ele>
        <time>2021-03-24T21:47:35Z</time>
      </trkpt>
      <trkpt lat="47.56987" lon="-0.07515">
        <ele>82</ele>
        <time>2021-03-24T21:47:38Z</time>
      </trkpt>
      <trkpt lat="47.56993" lon="-0.07511">
        <ele>82</ele>
        <time>2021-03-24T21:47:39Z</time>
      </trkpt>
      <trkpt lat="47.57001" lon="-0.07507">
        <ele>82</ele>
        <time>2021-03-24T21:47:41Z</time>
      </trkpt>
      <trkpt lat="47.57013" lon="-0.07502">
        <ele>82</ele>
        <time>2021-03-24T21:47:43Z</time>
      </trkpt>
      <trkpt lat="47.57021" lon="-0.07497">
        <ele>82</ele>
        <time>2021-03-24T21:47:44Z</time>
      </trkpt>
      <trkpt lat="47.57031" lon="-0.07488">
        <ele>83</ele>
        <time>2021-03-24T21:47:46Z</time>
      </trkpt>
      <trkpt lat="47.57038" lon="-0.07482">
        <ele>83</ele>
        <time>2021-03-24T21:47:48Z</time>
      </trkpt>
      <trkpt lat="47.57045" lon="-0.07473">
        <ele>83</ele>
        <time>2021-03-24T21:47:49Z</time>
      </trkpt>
      <trkpt lat="47.57054" lon="-0.07458">
        <ele>83</ele>
        <time>2021-03-24T21:47:52Z</time>
      </trkpt>
      <trkpt lat="47.57076" lon="-0.07416">
        <ele>83</ele>
        <time>2021-03-24T21:47:58Z</time>
      </trkpt>
      <trkpt lat="47.57086" lon="-0.07397">
        <ele>83</ele>
        <time>2021-03-24T21:48:01Z</time>
      </trkpt>
      <trkpt lat="47.57093" lon="-0.07386">
        <ele>84</ele>
        <time>2021-03-24T21:48:03Z</time>
      </trkpt>
      <trkpt lat="47.57103" lon="-0.07373">
        <ele>84</ele>
        <time>2021-03-24T21:48:05Z</time>
      </trkpt>
      <trkpt lat="47.57112" lon="-0.07362">
        <ele>84</ele>
        <time>2021-03-24T21:48:07Z</time>
      </trkpt>
      <trkpt lat="47.57127" lon="-0.07344">
        <ele>85</ele>
        <time>2021-03-24T21:48:11Z</time>
      </trkpt>
      <trkpt lat="47.57139" lon="-0.0733">
        <ele>85</ele>
        <time>2021-03-24T21:48:14Z</time>
      </trkpt>
      <trkpt lat="47.57145" lon="-0.0732">
        <ele>85</ele>
        <time>2021-03-24T21:48:15Z</time>
      </trkpt>
      <trkpt lat="47.57164" lon="-0.07296">
        <ele>84</ele>
        <time>2021-03-24T21:48:20Z</time>
      </trkpt>
      <trkpt lat="47.572" lon="-0.07237">
        <ele>83</ele>
        <time>2021-03-24T21:48:29Z</time>
      </trkpt>
      <trkpt lat="47.57239" lon="-0.07174">
        <ele>83</ele>
        <time>2021-03-24T21:48:39Z</time>
      </trkpt>
      <trkpt lat="47.57268" lon="-0.07127">
        <ele>83</ele>
        <time>2021-03-24T21:48:47Z</time>
      </trkpt>
      <trkpt lat="47.57294" lon="-0.07089">
        <ele>84</ele>
        <time>2021-03-24T21:48:54Z</time>
      </trkpt>
      <trkpt lat="47.57303" lon="-0.0708">
        <ele>84</ele>
        <time>2021-03-24T21:48:56Z</time>
      </trkpt>
      <trkpt lat="47.57312" lon="-0.07069">
        <ele>85</ele>
        <time>2021-03-24T21:48:58Z</time>
      </trkpt>
      <trkpt lat="47.57325" lon="-0.0706">
        <ele>85</ele>
        <time>2021-03-24T21:49:00Z</time>
      </trkpt>
      <trkpt lat="47.57348" lon="-0.07046">
        <ele>86</ele>
        <time>2021-03-24T21:49:05Z</time>
      </trkpt>
      <trkpt lat="47.57374" lon="-0.07035">
        <ele>87</ele>
        <time>2021-03-24T21:49:09Z</time>
      </trkpt>
      <trkpt lat="47.5739" lon="-0.07027">
        <ele>88</ele>
        <time>2021-03-24T21:49:12Z</time>
      </trkpt>
      <trkpt lat="47.57429" lon="-0.0701">
        <ele>89</ele>
        <time>2021-03-24T21:49:20Z</time>
      </trkpt>
      <trkpt lat="47.57437" lon="-0.07006">
        <ele>89</ele>
        <time>2021-03-24T21:49:21Z</time>
      </trkpt>
      <trkpt lat="47.57445" lon="-0.07003">
        <ele>89</ele>
        <time>2021-03-24T21:49:23Z</time>
      </trkpt>
      <trkpt lat="47.57456" lon="-0.06999">
        <ele>89</ele>
        <time>2021-03-24T21:49:25Z</time>
      </trkpt>
      <trkpt lat="47.57464" lon="-0.06996">
        <ele>88</ele>
        <time>2021-03-24T21:49:26Z</time>
      </trkpt>
      <trkpt lat="47.57471" lon="-0.06995">
        <ele>88</ele>
        <time>2021-03-24T21:49:27Z</time>
      </trkpt>
      <trkpt lat="47.57476" lon="-0.06994">
        <ele>88</ele>
        <time>2021-03-24T21:49:28Z</time>
      </trkpt>
      <trkpt lat="47.5748" lon="-0.06993">
        <ele>88</ele>
        <time>2021-03-24T21:49:29Z</time>
      </trkpt>
      <trkpt lat="47.57485" lon="-0.06993">
        <ele>88</ele>
        <time>2021-03-24T21:49:30Z</time>
      </trkpt>
      <trkpt lat="47.5749" lon="-0.06991">
        <ele>88</ele>
        <time>2021-03-24T21:49:31Z</time>
      </trkpt>
      <trkpt lat="47.57495" lon="-0.06991">
        <ele>88</ele>
        <time>2021-03-24T21:49:32Z</time>
      </trkpt>
      <trkpt lat="47.575" lon="-0.0699">
        <ele>87</ele>
        <time>2021-03-24T21:49:33Z</time>
      </trkpt>
      <trkpt lat="47.57503" lon="-0.0699">
        <ele>87</ele>
        <time>2021-03-24T21:49:33Z</time>
      </trkpt>
      <trkpt lat="47.57507" lon="-0.06989">
        <ele>87</ele>
        <time>2021-03-24T21:49:34Z</time>
      </trkpt>
      <trkpt lat="47.57511" lon="-0.06988">
        <ele>87</ele>
        <time>2021-03-24T21:49:35Z</time>
      </trkpt>
      <trkpt lat="47.57514" lon="-0.06987">
        <ele>87</ele>
        <time>2021-03-24T21:49:35Z</time>
      </trkpt>
      <trkpt lat="47.57519" lon="-0.06985">
        <ele>87</ele>
        <time>2021-03-24T21:49:36Z</time>
      </trkpt>
      <trkpt lat="47.57527" lon="-0.06984">
        <ele>86</ele>
        <time>2021-03-24T21:49:37Z</time>
      </trkpt>
      <trkpt lat="47.57528" lon="-0.06983">
        <ele>86</ele>
        <time>2021-03-24T21:49:38Z</time>
      </trkpt>
      <trkpt lat="47.57567" lon="-0.06955">
        <ele>85</ele>
        <time>2021-03-24T21:49:45Z</time>
      </trkpt>
      <trkpt lat="47.5763" lon="-0.06908">
        <ele>83</ele>
        <time>2021-03-24T21:49:58Z</time>
      </trkpt>
      <trkpt lat="47.57648" lon="-0.06896">
        <ele>83</ele>
        <time>2021-03-24T21:50:01Z</time>
      </trkpt>
      <trkpt lat="47.57659" lon="-0.0689">
        <ele>83</ele>
        <time>2021-03-24T21:50:03Z</time>
      </trkpt>
      <trkpt lat="47.57668" lon="-0.06885">
        <ele>83</ele>
        <time>2021-03-24T21:50:05Z</time>
      </trkpt>
      <trkpt lat="47.57674" lon="-0.0688">
        <ele>83</ele>
        <time>2021-03-24T21:50:06Z</time>
      </trkpt>
      <trkpt lat="47.57678" lon="-0.06878">
        <ele>83</ele>
        <time>2021-03-24T21:50:07Z</time>
      </trkpt>
      <trkpt lat="47.57683" lon="-0.06874">
        <ele>83</ele>
        <time>2021-03-24T21:50:08Z</time>
      </trkpt>
      <trkpt lat="47.57689" lon="-0.06868">
        <ele>83</ele>
        <time>2021-03-24T21:50:09Z</time>
      </trkpt>
      <trkpt lat="47.57695" lon="-0.06861">
        <ele>83</ele>
        <time>2021-03-24T21:50:11Z</time>
      </trkpt>
      <trkpt lat="47.57701" lon="-0.06852">
        <ele>83</ele>
        <time>2021-03-24T21:50:12Z</time>
      </trkpt>
      <trkpt lat="47.57706" lon="-0.06844">
        <ele>83</ele>
        <time>2021-03-24T21:50:14Z</time>
      </trkpt>
      <trkpt lat="47.57716" lon="-0.06826">
        <ele>83</ele>
        <time>2021-03-24T21:50:16Z</time>
      </trkpt>
      <trkpt lat="47.57732" lon="-0.06793">
        <ele>83</ele>
        <time>2021-03-24T21:50:21Z</time>
      </trkpt>
      <trkpt lat="47.57736" lon="-0.06784">
        <ele>83</ele>
        <time>2021-03-24T21:50:23Z</time>
      </trkpt>
      <trkpt lat="47.57741" lon="-0.06773">
        <ele>82</ele>
        <time>2021-03-24T21:50:24Z</time>
      </trkpt>
      <trkpt lat="47.57744" lon="-0.06763">
        <ele>82</ele>
        <time>2021-03-24T21:50:26Z</time>
      </trkpt>
      <trkpt lat="47.57748" lon="-0.06748">
        <ele>82</ele>
        <time>2021-03-24T21:50:27Z</time>
      </trkpt>
      <trkpt lat="47.57752" lon="-0.06733">
        <ele>82</ele>
        <time>2021-03-24T21:50:29Z</time>
      </trkpt>
      <trkpt lat="47.57756" lon="-0.06719">
        <ele>82</ele>
        <time>2021-03-24T21:50:31Z</time>
      </trkpt>
      <trkpt lat="47.57761" lon="-0.06703">
        <ele>82</ele>
        <time>2021-03-24T21:50:33Z</time>
      </trkpt>
      <trkpt lat="47.57765" lon="-0.0669">
        <ele>81</ele>
        <time>2021-03-24T21:50:35Z</time>
      </trkpt>
      <trkpt lat="47.57776" lon="-0.06663">
        <ele>81</ele>
        <time>2021-03-24T21:50:39Z</time>
      </trkpt>
      <trkpt lat="47.57787" lon="-0.0664">
        <ele>81</ele>
        <time>2021-03-24T21:50:42Z</time>
      </trkpt>
      <trkpt lat="47.578" lon="-0.06618">
        <ele>82</ele>
        <time>2021-03-24T21:50:46Z</time>
      </trkpt>
      <trkpt lat="47.57811" lon="-0.06601">
        <ele>82</ele>
        <time>2021-03-24T21:50:49Z</time>
      </trkpt>
      <trkpt lat="47.57823" lon="-0.06586">
        <ele>82</ele>
        <time>2021-03-24T21:50:51Z</time>
      </trkpt>
      <trkpt lat="47.57857" lon="-0.06546">
        <ele>82</ele>
        <time>2021-03-24T21:50:59Z</time>
      </trkpt>
      <trkpt lat="47.57872" lon="-0.0653">
        <ele>82</ele>
        <time>2021-03-24T21:51:02Z</time>
      </trkpt>
      <trkpt lat="47.57881" lon="-0.0652">
        <ele>82</ele>
        <time>2021-03-24T21:51:04Z</time>
      </trkpt>
      <trkpt lat="47.57889" lon="-0.06512">
        <ele>82</ele>
        <time>2021-03-24T21:51:06Z</time>
      </trkpt>
      <trkpt lat="47.57897" lon="-0.06507">
        <ele>82</ele>
        <time>2021-03-24T21:51:08Z</time>
      </trkpt>
      <trkpt lat="47.57905" lon="-0.06502">
        <ele>82</ele>
        <time>2021-03-24T21:51:09Z</time>
      </trkpt>
      <trkpt lat="47.57918" lon="-0.06497">
        <ele>82</ele>
        <time>2021-03-24T21:51:12Z</time>
      </trkpt>
      <trkpt lat="47.57927" lon="-0.06492">
        <ele>82</ele>
        <time>2021-03-24T21:51:13Z</time>
      </trkpt>
      <trkpt lat="47.57936" lon="-0.06487">
        <ele>82</ele>
        <time>2021-03-24T21:51:15Z</time>
      </trkpt>
      <trkpt lat="47.57943" lon="-0.06482">
        <ele>82</ele>
        <time>2021-03-24T21:51:16Z</time>
      </trkpt>
      <trkpt lat="47.5795" lon="-0.06478">
        <ele>81</ele>
        <time>2021-03-24T21:51:18Z</time>
      </trkpt>
      <trkpt lat="47.57957" lon="-0.06471">
        <ele>81</ele>
        <time>2021-03-24T21:51:19Z</time>
      </trkpt>
      <trkpt lat="47.57966" lon="-0.06464">
        <ele>81</ele>
        <time>2021-03-24T21:51:21Z</time>
      </trkpt>
      <trkpt lat="47.57974" lon="-0.06456">
        <ele>81</ele>
        <time>2021-03-24T21:51:23Z</time>
      </trkpt>
      <trkpt lat="47.57983" lon="-0.06446">
        <ele>81</ele>
        <time>2021-03-24T21:51:25Z</time>
      </trkpt>
      <trkpt lat="47.57991" lon="-0.06435">
        <ele>80</ele>
        <time>2021-03-24T21:51:27Z</time>
      </trkpt>
      <trkpt lat="47.58001" lon="-0.06421">
        <ele>80</ele>
        <time>2021-03-24T21:51:29Z</time>
      </trkpt>
      <trkpt lat="47.58026" lon="-0.06383">
        <ele>80</ele>
        <time>2021-03-24T21:51:35Z</time>
      </trkpt>
      <trkpt lat="47.58043" lon="-0.06359">
        <ele>80</ele>
        <time>2021-03-24T21:51:40Z</time>
      </trkpt>
      <trkpt lat="47.58055" lon="-0.06344">
        <ele>80</ele>
        <time>2021-03-24T21:51:42Z</time>
      </trkpt>
      <trkpt lat="47.58062" lon="-0.06335">
        <ele>79</ele>
        <time>2021-03-24T21:51:44Z</time>
      </trkpt>
      <trkpt lat="47.58076" lon="-0.06321">
        <ele>79</ele>
        <time>2021-03-24T21:51:47Z</time>
      </trkpt>
      <trkpt lat="47.58134" lon="-0.06267">
        <ele>78</ele>
        <time>2021-03-24T21:51:59Z</time>
      </trkpt>
      <trkpt lat="47.58162" lon="-0.06241">
        <ele>77</ele>
        <time>2021-03-24T21:52:05Z</time>
      </trkpt>
      <trkpt lat="47.58176" lon="-0.06226">
        <ele>78</ele>
        <time>2021-03-24T21:52:08Z</time>
      </trkpt>
      <trkpt lat="47.58193" lon="-0.06206">
        <ele>79</ele>
        <time>2021-03-24T21:52:12Z</time>
      </trkpt>
      <trkpt lat="47.58229" lon="-0.06154">
        <ele>82</ele>
        <time>2021-03-24T21:52:21Z</time>
      </trkpt>
      <trkpt lat="47.5825" lon="-0.06124">
        <ele>82</ele>
        <time>2021-03-24T21:52:26Z</time>
      </trkpt>
      <trkpt lat="47.5826" lon="-0.06109">
        <ele>82</ele>
        <time>2021-03-24T21:52:29Z</time>
      </trkpt>
      <trkpt lat="47.58294" lon="-0.06057">
        <ele>81</ele>
        <time>2021-03-24T21:52:37Z</time>
      </trkpt>
      <trkpt lat="47.58305" lon="-0.06038">
        <ele>80</ele>
        <time>2021-03-24T21:52:40Z</time>
      </trkpt>
      <trkpt lat="47.58314" lon="-0.06019">
        <ele>80</ele>
        <time>2021-03-24T21:52:43Z</time>
      </trkpt>
      <trkpt lat="47.58322" lon="-0.06">
        <ele>80</ele>
        <time>2021-03-24T21:52:46Z</time>
      </trkpt>
      <trkpt lat="47.58327" lon="-0.05984">
        <ele>79</ele>
        <time>2021-03-24T21:52:48Z</time>
      </trkpt>
      <trkpt lat="47.58337" lon="-0.05956">
        <ele>78</ele>
        <time>2021-03-24T21:52:52Z</time>
      </trkpt>
      <trkpt lat="47.5836" lon="-0.05883">
        <ele>77</ele>
        <time>2021-03-24T21:53:02Z</time>
      </trkpt>
      <trkpt lat="47.58372" lon="-0.05849">
        <ele>77</ele>
        <time>2021-03-24T21:53:06Z</time>
      </trkpt>
      <trkpt lat="47.58377" lon="-0.05836">
        <ele>77</ele>
        <time>2021-03-24T21:53:08Z</time>
      </trkpt>
      <trkpt lat="47.58382" lon="-0.05825">
        <ele>77</ele>
        <time>2021-03-24T21:53:10Z</time>
      </trkpt>
      <trkpt lat="47.58389" lon="-0.0581">
        <ele>77</ele>
        <time>2021-03-24T21:53:12Z</time>
      </trkpt>
      <trkpt lat="47.58399" lon="-0.05794">
        <ele>77</ele>
        <time>2021-03-24T21:53:14Z</time>
      </trkpt>
      <trkpt lat="47.58417" lon="-0.05767">
        <ele>76</ele>
        <time>2021-03-24T21:53:19Z</time>
      </trkpt>
      <trkpt lat="47.58426" lon="-0.05755">
        <ele>76</ele>
        <time>2021-03-24T21:53:21Z</time>
      </trkpt>
      <trkpt lat="47.58433" lon="-0.05743">
        <ele>76</ele>
        <time>2021-03-24T21:53:23Z</time>
      </trkpt>
      <trkpt lat="47.58442" lon="-0.05726">
        <ele>75</ele>
        <time>2021-03-24T21:53:26Z</time>
      </trkpt>
      <trkpt lat="47.58454" lon="-0.05691">
        <ele>75</ele>
        <time>2021-03-24T21:53:30Z</time>
      </trkpt>
      <trkpt lat="47.58459" lon="-0.05676">
        <ele>75</ele>
        <time>2021-03-24T21:53:32Z</time>
      </trkpt>
      <trkpt lat="47.5846" lon="-0.05674">
        <ele>75</ele>
        <time>2021-03-24T21:53:33Z</time>
      </trkpt>
      <trkpt lat="47.58462" lon="-0.05667">
        <ele>74</ele>
        <time>2021-03-24T21:53:33Z</time>
      </trkpt>
      <trkpt lat="47.58466" lon="-0.05655">
        <ele>74</ele>
        <time>2021-03-24T21:53:35Z</time>
      </trkpt>
      <trkpt lat="47.5847" lon="-0.05645">
        <ele>74</ele>
        <time>2021-03-24T21:53:36Z</time>
      </trkpt>
      <trkpt lat="47.58474" lon="-0.05637">
        <ele>74</ele>
        <time>2021-03-24T21:53:38Z</time>
      </trkpt>
      <trkpt lat="47.58479" lon="-0.05628">
        <ele>74</ele>
        <time>2021-03-24T21:53:39Z</time>
      </trkpt>
      <trkpt lat="47.58484" lon="-0.0562">
        <ele>74</ele>
        <time>2021-03-24T21:53:40Z</time>
      </trkpt>
      <trkpt lat="47.58491" lon="-0.05611">
        <ele>74</ele>
        <time>2021-03-24T21:53:42Z</time>
      </trkpt>
      <trkpt lat="47.58493" lon="-0.05608">
        <ele>73</ele>
        <time>2021-03-24T21:53:43Z</time>
      </trkpt>
      <trkpt lat="47.58503" lon="-0.05599">
        <ele>73</ele>
        <time>2021-03-24T21:53:45Z</time>
      </trkpt>
      <trkpt lat="47.58513" lon="-0.05591">
        <ele>73</ele>
        <time>2021-03-24T21:53:47Z</time>
      </trkpt>
      <trkpt lat="47.58522" lon="-0.05585">
        <ele>74</ele>
        <time>2021-03-24T21:53:48Z</time>
      </trkpt>
      <trkpt lat="47.58551" lon="-0.05567">
        <ele>74</ele>
        <time>2021-03-24T21:53:54Z</time>
      </trkpt>
      <trkpt lat="47.5857" lon="-0.05554">
        <ele>75</ele>
        <time>2021-03-24T21:53:58Z</time>
      </trkpt>
      <trkpt lat="47.58584" lon="-0.05547">
        <ele>75</ele>
        <time>2021-03-24T21:54:00Z</time>
      </trkpt>
      <trkpt lat="47.58589" lon="-0.05544">
        <ele>75</ele>
        <time>2021-03-24T21:54:01Z</time>
      </trkpt>
      <trkpt lat="47.58596" lon="-0.05542">
        <ele>75</ele>
        <time>2021-03-24T21:54:03Z</time>
      </trkpt>
      <trkpt lat="47.58603" lon="-0.05539">
        <ele>75</ele>
        <time>2021-03-24T21:54:04Z</time>
      </trkpt>
      <trkpt lat="47.58608" lon="-0.05538">
        <ele>75</ele>
        <time>2021-03-24T21:54:05Z</time>
      </trkpt>
      <trkpt lat="47.58612" lon="-0.05537">
        <ele>75</ele>
        <time>2021-03-24T21:54:05Z</time>
      </trkpt>
      <trkpt lat="47.58618" lon="-0.05535">
        <ele>75</ele>
        <time>2021-03-24T21:54:07Z</time>
      </trkpt>
      <trkpt lat="47.58625" lon="-0.05534">
        <ele>75</ele>
        <time>2021-03-24T21:54:08Z</time>
      </trkpt>
      <trkpt lat="47.58632" lon="-0.05532">
        <ele>75</ele>
        <time>2021-03-24T21:54:09Z</time>
      </trkpt>
      <trkpt lat="47.58642" lon="-0.0553">
        <ele>75</ele>
        <time>2021-03-24T21:54:11Z</time>
      </trkpt>
      <trkpt lat="47.5865" lon="-0.05529">
        <ele>75</ele>
        <time>2021-03-24T21:54:12Z</time>
      </trkpt>
      <trkpt lat="47.58655" lon="-0.05528">
        <ele>75</ele>
        <time>2021-03-24T21:54:13Z</time>
      </trkpt>
      <trkpt lat="47.58663" lon="-0.05526">
        <ele>75</ele>
        <time>2021-03-24T21:54:15Z</time>
      </trkpt>
      <trkpt lat="47.5867" lon="-0.05525">
        <ele>75</ele>
        <time>2021-03-24T21:54:16Z</time>
      </trkpt>
      <trkpt lat="47.5868" lon="-0.05523">
        <ele>75</ele>
        <time>2021-03-24T21:54:18Z</time>
      </trkpt>
      <trkpt lat="47.58688" lon="-0.05522">
        <ele>75</ele>
        <time>2021-03-24T21:54:19Z</time>
      </trkpt>
      <trkpt lat="47.58692" lon="-0.0552">
        <ele>75</ele>
        <time>2021-03-24T21:54:20Z</time>
      </trkpt>
      <trkpt lat="47.58697" lon="-0.05519">
        <ele>75</ele>
        <time>2021-03-24T21:54:21Z</time>
      </trkpt>
      <trkpt lat="47.58703" lon="-0.05517">
        <ele>75</ele>
        <time>2021-03-24T21:54:22Z</time>
      </trkpt>
      <trkpt lat="47.58707" lon="-0.05516">
        <ele>75</ele>
        <time>2021-03-24T21:54:23Z</time>
      </trkpt>
      <trkpt lat="47.58711" lon="-0.05514">
        <ele>75</ele>
        <time>2021-03-24T21:54:23Z</time>
      </trkpt>
      <trkpt lat="47.58718" lon="-0.0551">
        <ele>76</ele>
        <time>2021-03-24T21:54:25Z</time>
      </trkpt>
      <trkpt lat="47.58722" lon="-0.05507">
        <ele>76</ele>
        <time>2021-03-24T21:54:25Z</time>
      </trkpt>
      <trkpt lat="47.58732" lon="-0.055">
        <ele>76</ele>
        <time>2021-03-24T21:54:27Z</time>
      </trkpt>
      <trkpt lat="47.58749" lon="-0.05484">
        <ele>77</ele>
        <time>2021-03-24T21:54:31Z</time>
      </trkpt>
      <trkpt lat="47.58774" lon="-0.05457">
        <ele>78</ele>
        <time>2021-03-24T21:54:37Z</time>
      </trkpt>
      <trkpt lat="47.58813" lon="-0.05414">
        <ele>79</ele>
        <time>2021-03-24T21:54:45Z</time>
      </trkpt>
      <trkpt lat="47.58818" lon="-0.05409">
        <ele>79</ele>
        <time>2021-03-24T21:54:46Z</time>
      </trkpt>
      <trkpt lat="47.58853" lon="-0.05369">
        <ele>80</ele>
        <time>2021-03-24T21:54:54Z</time>
      </trkpt>
      <trkpt lat="47.58875" lon="-0.05343">
        <ele>80</ele>
        <time>2021-03-24T21:54:59Z</time>
      </trkpt>
      <trkpt lat="47.58902" lon="-0.05304">
        <ele>81</ele>
        <time>2021-03-24T21:55:06Z</time>
      </trkpt>
      <trkpt lat="47.58963" lon="-0.05213">
        <ele>81</ele>
        <time>2021-03-24T21:55:21Z</time>
      </trkpt>
      <trkpt lat="47.59011" lon="-0.05141">
        <ele>81</ele>
        <time>2021-03-24T21:55:33Z</time>
      </trkpt>
      <trkpt lat="47.5902" lon="-0.05127">
        <ele>81</ele>
        <time>2021-03-24T21:55:36Z</time>
      </trkpt>
      <trkpt lat="47.59042" lon="-0.05095">
        <ele>81</ele>
        <time>2021-03-24T21:55:41Z</time>
      </trkpt>
      <trkpt lat="47.59045" lon="-0.05091">
        <ele>81</ele>
        <time>2021-03-24T21:55:42Z</time>
      </trkpt>
      <trkpt lat="47.59048" lon="-0.05088">
        <ele>82</ele>
        <time>2021-03-24T21:55:43Z</time>
      </trkpt>
      <trkpt lat="47.59054" lon="-0.0508">
        <ele>82</ele>
        <time>2021-03-24T21:55:44Z</time>
      </trkpt>
      <trkpt lat="47.59064" lon="-0.05069">
        <ele>82</ele>
        <time>2021-03-24T21:55:46Z</time>
      </trkpt>
      <trkpt lat="47.59084" lon="-0.05051">
        <ele>82</ele>
        <time>2021-03-24T21:55:50Z</time>
      </trkpt>
      <trkpt lat="47.59104" lon="-0.05035">
        <ele>81</ele>
        <time>2021-03-24T21:55:54Z</time>
      </trkpt>
      <trkpt lat="47.59136" lon="-0.05006">
        <ele>79</ele>
        <time>2021-03-24T21:56:01Z</time>
      </trkpt>
      <trkpt lat="47.59139" lon="-0.05003">
        <ele>78</ele>
        <time>2021-03-24T21:56:02Z</time>
      </trkpt>
      <trkpt lat="47.59188" lon="-0.04958">
        <ele>76</ele>
        <time>2021-03-24T21:56:12Z</time>
      </trkpt>
      <trkpt lat="47.59215" lon="-0.04934">
        <ele>75</ele>
        <time>2021-03-24T21:56:18Z</time>
      </trkpt>
      <trkpt lat="47.59236" lon="-0.04916">
        <ele>74</ele>
        <time>2021-03-24T21:56:22Z</time>
      </trkpt>
      <trkpt lat="47.59249" lon="-0.04903">
        <ele>74</ele>
        <time>2021-03-24T21:56:25Z</time>
      </trkpt>
      <trkpt lat="47.59265" lon="-0.04888">
        <ele>73</ele>
        <time>2021-03-24T21:56:28Z</time>
      </trkpt>
      <trkpt lat="47.59304" lon="-0.04854">
        <ele>72</ele>
        <time>2021-03-24T21:56:36Z</time>
      </trkpt>
      <trkpt lat="47.59329" lon="-0.04831">
        <ele>71</ele>
        <time>2021-03-24T21:56:41Z</time>
      </trkpt>
      <trkpt lat="47.59342" lon="-0.04819">
        <ele>71</ele>
        <time>2021-03-24T21:56:44Z</time>
      </trkpt>
      <trkpt lat="47.59353" lon="-0.04808">
        <ele>70</ele>
        <time>2021-03-24T21:56:46Z</time>
      </trkpt>
      <trkpt lat="47.59363" lon="-0.04795">
        <ele>70</ele>
        <time>2021-03-24T21:56:49Z</time>
      </trkpt>
      <trkpt lat="47.59375" lon="-0.0478">
        <ele>69</ele>
        <time>2021-03-24T21:56:52Z</time>
      </trkpt>
      <trkpt lat="47.594" lon="-0.04739">
        <ele>68</ele>
        <time>2021-03-24T21:56:58Z</time>
      </trkpt>
      <trkpt lat="47.59418" lon="-0.04707">
        <ele>68</ele>
        <time>2021-03-24T21:57:03Z</time>
      </trkpt>
      <trkpt lat="47.59433" lon="-0.04676">
        <ele>68</ele>
        <time>2021-03-24T21:57:08Z</time>
      </trkpt>
      <trkpt lat="47.59456" lon="-0.04623">
        <ele>68</ele>
        <time>2021-03-24T21:57:15Z</time>
      </trkpt>
      <trkpt lat="47.59469" lon="-0.04597">
        <ele>68</ele>
        <time>2021-03-24T21:57:19Z</time>
      </trkpt>
      <trkpt lat="47.59497" lon="-0.04544">
        <ele>69</ele>
        <time>2021-03-24T21:57:27Z</time>
      </trkpt>
      <trkpt lat="47.59515" lon="-0.0451">
        <ele>71</ele>
        <time>2021-03-24T21:57:32Z</time>
      </trkpt>
      <trkpt lat="47.59524" lon="-0.04493">
        <ele>72</ele>
        <time>2021-03-24T21:57:35Z</time>
      </trkpt>
      <trkpt lat="47.59529" lon="-0.04479">
        <ele>73</ele>
        <time>2021-03-24T21:57:37Z</time>
      </trkpt>
      <trkpt lat="47.59533" lon="-0.04466">
        <ele>73</ele>
        <time>2021-03-24T21:57:39Z</time>
      </trkpt>
      <trkpt lat="47.59536" lon="-0.04448">
        <ele>74</ele>
        <time>2021-03-24T21:57:41Z</time>
      </trkpt>
      <trkpt lat="47.59536" lon="-0.04448">
        <ele>74</ele>
        <time>2021-03-24T21:57:41Z</time>
      </trkpt>
      <trkpt lat="47.59539" lon="-0.04453">
        <ele>74</ele>
        <time>2021-03-24T21:57:42Z</time>
      </trkpt>
      <trkpt lat="47.59541" lon="-0.04455">
        <ele>74</ele>
        <time>2021-03-24T21:57:42Z</time>
      </trkpt>
      <trkpt lat="47.59543" lon="-0.04457">
        <ele>74</ele>
        <time>2021-03-24T21:57:43Z</time>
      </trkpt>
      <trkpt lat="47.59546" lon="-0.04459">
        <ele>74</ele>
        <time>2021-03-24T21:57:43Z</time>
      </trkpt>
      <trkpt lat="47.59552" lon="-0.04461">
        <ele>73</ele>
        <time>2021-03-24T21:57:44Z</time>
      </trkpt>
      <trkpt lat="47.5956" lon="-0.04463">
        <ele>73</ele>
        <time>2021-03-24T21:57:46Z</time>
      </trkpt>
      <trkpt lat="47.5957" lon="-0.04465">
        <ele>73</ele>
        <time>2021-03-24T21:57:48Z</time>
      </trkpt>
      <trkpt lat="47.59589" lon="-0.04467">
        <ele>72</ele>
        <time>2021-03-24T21:57:51Z</time>
      </trkpt>
      <trkpt lat="47.5961" lon="-0.0447">
        <ele>71</ele>
        <time>2021-03-24T21:57:55Z</time>
      </trkpt>
      <trkpt lat="47.59623" lon="-0.04471">
        <ele>70</ele>
        <time>2021-03-24T21:57:57Z</time>
      </trkpt>
      <trkpt lat="47.59632" lon="-0.04473">
        <ele>69</ele>
        <time>2021-03-24T21:57:59Z</time>
      </trkpt>
      <trkpt lat="47.59637" lon="-0.04472">
        <ele>69</ele>
        <time>2021-03-24T21:58:00Z</time>
      </trkpt>
      <trkpt lat="47.59642" lon="-0.04468">
        <ele>69</ele>
        <time>2021-03-24T21:58:01Z</time>
      </trkpt>
      <trkpt lat="47.59647" lon="-0.04459">
        <ele>68</ele>
        <time>2021-03-24T21:58:02Z</time>
      </trkpt>
      <trkpt lat="47.59657" lon="-0.04435">
        <ele>68</ele>
        <time>2021-03-24T21:58:05Z</time>
      </trkpt>
      <trkpt lat="47.5967" lon="-0.04409">
        <ele>67</ele>
        <time>2021-03-24T21:58:09Z</time>
      </trkpt>
      <trkpt lat="47.59688" lon="-0.04379">
        <ele>67</ele>
        <time>2021-03-24T21:58:14Z</time>
      </trkpt>
      <trkpt lat="47.59711" lon="-0.04334">
        <ele>68</ele>
        <time>2021-03-24T21:58:21Z</time>
      </trkpt>
      <trkpt lat="47.59721" lon="-0.04316">
        <ele>68</ele>
        <time>2021-03-24T21:58:24Z</time>
      </trkpt>
      <trkpt lat="47.59721" lon="-0.04316">
        <ele>68</ele>
        <time>2021-03-24T21:58:24Z</time>
      </trkpt>
      <trkpt lat="47.59755" lon="-0.04351">
        <ele>66</ele>
        <time>2021-03-24T21:58:31Z</time>
      </trkpt>
      <trkpt lat="47.59757" lon="-0.04355">
        <ele>66</ele>
        <time>2021-03-24T21:58:32Z</time>
      </trkpt>
      <trkpt lat="47.5976" lon="-0.04358">
        <ele>66</ele>
        <time>2021-03-24T21:58:32Z</time>
      </trkpt>
      <trkpt lat="47.59781" lon="-0.04379">
        <ele>66</ele>
        <time>2021-03-24T21:58:37Z</time>
      </trkpt>
      <trkpt lat="47.59813" lon="-0.04411">
        <ele>66</ele>
        <time>2021-03-24T21:58:44Z</time>
      </trkpt>
      <trkpt lat="47.59823" lon="-0.04422">
        <ele>67</ele>
        <time>2021-03-24T21:58:46Z</time>
      </trkpt>
      <trkpt lat="47.59834" lon="-0.04431">
        <ele>67</ele>
        <time>2021-03-24T21:58:48Z</time>
      </trkpt>
      <trkpt lat="47.59844" lon="-0.04435">
        <ele>68</ele>
        <time>2021-03-24T21:58:50Z</time>
      </trkpt>
      <trkpt lat="47.59854" lon="-0.04436">
        <ele>70</ele>
        <time>2021-03-24T21:58:52Z</time>
      </trkpt>
      <trkpt lat="47.59866" lon="-0.04433">
        <ele>71</ele>
        <time>2021-03-24T21:58:54Z</time>
      </trkpt>
      <trkpt lat="47.59877" lon="-0.04428">
        <ele>72</ele>
        <time>2021-03-24T21:58:56Z</time>
      </trkpt>
      <trkpt lat="47.59885" lon="-0.04424">
        <ele>73</ele>
        <time>2021-03-24T21:58:57Z</time>
      </trkpt>
      <trkpt lat="47.59896" lon="-0.04419">
        <ele>74</ele>
        <time>2021-03-24T21:58:59Z</time>
      </trkpt>
      <trkpt lat="47.59904" lon="-0.04416">
        <ele>75</ele>
        <time>2021-03-24T21:59:01Z</time>
      </trkpt>
      <trkpt lat="47.59913" lon="-0.04413">
        <ele>75</ele>
        <time>2021-03-24T21:59:03Z</time>
      </trkpt>
      <trkpt lat="47.59921" lon="-0.04411">
        <ele>76</ele>
        <time>2021-03-24T21:59:04Z</time>
      </trkpt>
      <trkpt lat="47.59931" lon="-0.04411">
        <ele>76</ele>
        <time>2021-03-24T21:59:06Z</time>
      </trkpt>
      <trkpt lat="47.59941" lon="-0.0441">
        <ele>77</ele>
        <time>2021-03-24T21:59:08Z</time>
      </trkpt>
      <trkpt lat="47.59952" lon="-0.0441">
        <ele>77</ele>
        <time>2021-03-24T21:59:09Z</time>
      </trkpt>
      <trkpt lat="47.59966" lon="-0.04411">
        <ele>78</ele>
        <time>2021-03-24T21:59:12Z</time>
      </trkpt>
      <trkpt lat="47.59981" lon="-0.04411">
        <ele>79</ele>
        <time>2021-03-24T21:59:15Z</time>
      </trkpt>
      <trkpt lat="47.59997" lon="-0.04411">
        <ele>80</ele>
        <time>2021-03-24T21:59:17Z</time>
      </trkpt>
      <trkpt lat="47.60007" lon="-0.04411">
        <ele>80</ele>
        <time>2021-03-24T21:59:19Z</time>
      </trkpt>
      <trkpt lat="47.60012" lon="-0.04411">
        <ele>80</ele>
        <time>2021-03-24T21:59:20Z</time>
      </trkpt>
      <trkpt lat="47.60016" lon="-0.04412">
        <ele>80</ele>
        <time>2021-03-24T21:59:21Z</time>
      </trkpt>
      <trkpt lat="47.60021" lon="-0.04413">
        <ele>80</ele>
        <time>2021-03-24T21:59:22Z</time>
      </trkpt>
      <trkpt lat="47.60028" lon="-0.04415">
        <ele>80</ele>
        <time>2021-03-24T21:59:23Z</time>
      </trkpt>
      <trkpt lat="47.60034" lon="-0.04418">
        <ele>80</ele>
        <time>2021-03-24T21:59:24Z</time>
      </trkpt>
      <trkpt lat="47.6005" lon="-0.04427">
        <ele>80</ele>
        <time>2021-03-24T21:59:27Z</time>
      </trkpt>
      <trkpt lat="47.60084" lon="-0.04448">
        <ele>80</ele>
        <time>2021-03-24T21:59:34Z</time>
      </trkpt>
      <trkpt lat="47.6011" lon="-0.04465">
        <ele>80</ele>
        <time>2021-03-24T21:59:39Z</time>
      </trkpt>
      <trkpt lat="47.60126" lon="-0.04474">
        <ele>80</ele>
        <time>2021-03-24T21:59:42Z</time>
      </trkpt>
      <trkpt lat="47.60147" lon="-0.04486">
        <ele>81</ele>
        <time>2021-03-24T21:59:46Z</time>
      </trkpt>
      <trkpt lat="47.60165" lon="-0.04494">
        <ele>81</ele>
        <time>2021-03-24T21:59:49Z</time>
      </trkpt>
      <trkpt lat="47.60195" lon="-0.04505">
        <ele>81</ele>
        <time>2021-03-24T21:59:55Z</time>
      </trkpt>
      <trkpt lat="47.60232" lon="-0.04513">
        <ele>81</ele>
        <time>2021-03-24T22:00:01Z</time>
      </trkpt>
      <trkpt lat="47.60255" lon="-0.04517">
        <ele>81</ele>
        <time>2021-03-24T22:00:05Z</time>
      </trkpt>
      <trkpt lat="47.60337" lon="-0.04531">
        <ele>82</ele>
        <time>2021-03-24T22:00:20Z</time>
      </trkpt>
      <trkpt lat="47.60381" lon="-0.04536">
        <ele>82</ele>
        <time>2021-03-24T22:00:28Z</time>
      </trkpt>
      <trkpt lat="47.60393" lon="-0.04538">
        <ele>82</ele>
        <time>2021-03-24T22:00:30Z</time>
      </trkpt>
      <trkpt lat="47.60435" lon="-0.04545">
        <ele>82</ele>
        <time>2021-03-24T22:00:38Z</time>
      </trkpt>
      <trkpt lat="47.60463" lon="-0.04548">
        <ele>82</ele>
        <time>2021-03-24T22:00:43Z</time>
      </trkpt>
      <trkpt lat="47.60518" lon="-0.04556">
        <ele>82</ele>
        <time>2021-03-24T22:00:53Z</time>
      </trkpt>
      <trkpt lat="47.60546" lon="-0.04561">
        <ele>82</ele>
        <time>2021-03-24T22:00:58Z</time>
      </trkpt>
      <trkpt lat="47.60566" lon="-0.04564">
        <ele>82</ele>
        <time>2021-03-24T22:01:01Z</time>
      </trkpt>
      <trkpt lat="47.60585" lon="-0.04569">
        <ele>82</ele>
        <time>2021-03-24T22:01:05Z</time>
      </trkpt>
      <trkpt lat="47.60603" lon="-0.04572">
        <ele>82</ele>
        <time>2021-03-24T22:01:08Z</time>
      </trkpt>
      <trkpt lat="47.60624" lon="-0.04578">
        <ele>82</ele>
        <time>2021-03-24T22:01:12Z</time>
      </trkpt>
      <trkpt lat="47.60662" lon="-0.0459">
        <ele>81</ele>
        <time>2021-03-24T22:01:18Z</time>
      </trkpt>
      <trkpt lat="47.60699" lon="-0.04602">
        <ele>80</ele>
        <time>2021-03-24T22:01:25Z</time>
      </trkpt>
      <trkpt lat="47.60719" lon="-0.04608">
        <ele>80</ele>
        <time>2021-03-24T22:01:29Z</time>
      </trkpt>
      <trkpt lat="47.60735" lon="-0.04615">
        <ele>79</ele>
        <time>2021-03-24T22:01:32Z</time>
      </trkpt>
      <trkpt lat="47.60745" lon="-0.04621">
        <ele>79</ele>
        <time>2021-03-24T22:01:34Z</time>
      </trkpt>
      <trkpt lat="47.60757" lon="-0.04629">
        <ele>78</ele>
        <time>2021-03-24T22:01:36Z</time>
      </trkpt>
      <trkpt lat="47.60772" lon="-0.04643">
        <ele>78</ele>
        <time>2021-03-24T22:01:39Z</time>
      </trkpt>
      <trkpt lat="47.60779" lon="-0.0465">
        <ele>78</ele>
        <time>2021-03-24T22:01:41Z</time>
      </trkpt>
      <trkpt lat="47.608" lon="-0.04671">
        <ele>79</ele>
        <time>2021-03-24T22:01:45Z</time>
      </trkpt>
      <trkpt lat="47.60824" lon="-0.04694">
        <ele>79</ele>
        <time>2021-03-24T22:01:50Z</time>
      </trkpt>
      <trkpt lat="47.60851" lon="-0.04721">
        <ele>80</ele>
        <time>2021-03-24T22:01:56Z</time>
      </trkpt>
      <trkpt lat="47.60899" lon="-0.04768">
        <ele>82</ele>
        <time>2021-03-24T22:02:06Z</time>
      </trkpt>
      <trkpt lat="47.60916" lon="-0.04782">
        <ele>83</ele>
        <time>2021-03-24T22:02:10Z</time>
      </trkpt>
      <trkpt lat="47.6093" lon="-0.04793">
        <ele>83</ele>
        <time>2021-03-24T22:02:13Z</time>
      </trkpt>
      <trkpt lat="47.60954" lon="-0.04813">
        <ele>84</ele>
        <time>2021-03-24T22:02:18Z</time>
      </trkpt>
      <trkpt lat="47.60993" lon="-0.04839">
        <ele>86</ele>
        <time>2021-03-24T22:02:25Z</time>
      </trkpt>
      <trkpt lat="47.61023" lon="-0.04863">
        <ele>86</ele>
        <time>2021-03-24T22:02:31Z</time>
      </trkpt>
      <trkpt lat="47.61093" lon="-0.0493">
        <ele>87</ele>
        <time>2021-03-24T22:02:46Z</time>
      </trkpt>
      <trkpt lat="47.61102" lon="-0.04938">
        <ele>87</ele>
        <time>2021-03-24T22:02:48Z</time>
      </trkpt>
      <trkpt lat="47.61117" lon="-0.04952">
        <ele>87</ele>
        <time>2021-03-24T22:02:51Z</time>
      </trkpt>
      <trkpt lat="47.61161" lon="-0.04984">
        <ele>87</ele>
        <time>2021-03-24T22:03:00Z</time>
      </trkpt>
      <trkpt lat="47.61175" lon="-0.04996">
        <ele>87</ele>
        <time>2021-03-24T22:03:03Z</time>
      </trkpt>
      <trkpt lat="47.612" lon="-0.05016">
        <ele>88</ele>
        <time>2021-03-24T22:03:08Z</time>
      </trkpt>
      <trkpt lat="47.61239" lon="-0.05044">
        <ele>88</ele>
        <time>2021-03-24T22:03:15Z</time>
      </trkpt>
      <trkpt lat="47.6129" lon="-0.05082">
        <ele>88</ele>
        <time>2021-03-24T22:03:26Z</time>
      </trkpt>
      <trkpt lat="47.61347" lon="-0.05128">
        <ele>87</ele>
        <time>2021-03-24T22:03:37Z</time>
      </trkpt>
      <trkpt lat="47.61383" lon="-0.05154">
        <ele>85</ele>
        <time>2021-03-24T22:03:44Z</time>
      </trkpt>
      <trkpt lat="47.61424" lon="-0.05189">
        <ele>85</ele>
        <time>2021-03-24T22:03:53Z</time>
      </trkpt>
      <trkpt lat="47.61461" lon="-0.05219">
        <ele>85</ele>
        <time>2021-03-24T22:04:00Z</time>
      </trkpt>
      <trkpt lat="47.61475" lon="-0.0523">
        <ele>85</ele>
        <time>2021-03-24T22:04:03Z</time>
      </trkpt>
      <trkpt lat="47.61506" lon="-0.05259">
        <ele>85</ele>
        <time>2021-03-24T22:04:09Z</time>
      </trkpt>
      <trkpt lat="47.61541" lon="-0.05289">
        <ele>86</ele>
        <time>2021-03-24T22:04:17Z</time>
      </trkpt>
      <trkpt lat="47.61577" lon="-0.0532">
        <ele>86</ele>
        <time>2021-03-24T22:04:24Z</time>
      </trkpt>
      <trkpt lat="47.61612" lon="-0.05353">
        <ele>85</ele>
        <time>2021-03-24T22:04:31Z</time>
      </trkpt>
      <trkpt lat="47.61659" lon="-0.05403">
        <ele>84</ele>
        <time>2021-03-24T22:04:42Z</time>
      </trkpt>
      <trkpt lat="47.61736" lon="-0.05483">
        <ele>84</ele>
        <time>2021-03-24T22:04:58Z</time>
      </trkpt>
      <trkpt lat="47.61828" lon="-0.05586">
        <ele>89</ele>
        <time>2021-03-24T22:05:19Z</time>
      </trkpt>
      <trkpt lat="47.6189" lon="-0.05663">
        <ele>88</ele>
        <time>2021-03-24T22:05:33Z</time>
      </trkpt>
      <trkpt lat="47.61892" lon="-0.05665">
        <ele>88</ele>
        <time>2021-03-24T22:05:34Z</time>
      </trkpt>
      <trkpt lat="47.61904" lon="-0.0568">
        <ele>88</ele>
        <time>2021-03-24T22:05:37Z</time>
      </trkpt>
      <trkpt lat="47.61917" lon="-0.05695">
        <ele>88</ele>
        <time>2021-03-24T22:05:40Z</time>
      </trkpt>
      <trkpt lat="47.61948" lon="-0.0573">
        <ele>88</ele>
        <time>2021-03-24T22:05:46Z</time>
      </trkpt>
      <trkpt lat="47.61951" lon="-0.05733">
        <ele>88</ele>
        <time>2021-03-24T22:05:47Z</time>
      </trkpt>
      <trkpt lat="47.61984" lon="-0.05774">
        <ele>86</ele>
        <time>2021-03-24T22:05:55Z</time>
      </trkpt>
      <trkpt lat="47.62031" lon="-0.05821">
        <ele>84</ele>
        <time>2021-03-24T22:06:05Z</time>
      </trkpt>
      <trkpt lat="47.62049" lon="-0.05838">
        <ele>83</ele>
        <time>2021-03-24T22:06:09Z</time>
      </trkpt>
      <trkpt lat="47.62074" lon="-0.05858">
        <ele>82</ele>
        <time>2021-03-24T22:06:14Z</time>
      </trkpt>
      <trkpt lat="47.62113" lon="-0.05886">
        <ele>81</ele>
        <time>2021-03-24T22:06:21Z</time>
      </trkpt>
      <trkpt lat="47.62155" lon="-0.05909">
        <ele>81</ele>
        <time>2021-03-24T22:06:29Z</time>
      </trkpt>
      <trkpt lat="47.62209" lon="-0.05941">
        <ele>80</ele>
        <time>2021-03-24T22:06:40Z</time>
      </trkpt>
      <trkpt lat="47.62247" lon="-0.0596">
        <ele>80</ele>
        <time>2021-03-24T22:06:47Z</time>
      </trkpt>
      <trkpt lat="47.62277" lon="-0.05972">
        <ele>79</ele>
        <time>2021-03-24T22:06:52Z</time>
      </trkpt>
      <trkpt lat="47.6235" lon="-0.05999">
        <ele>77</ele>
        <time>2021-03-24T22:07:06Z</time>
      </trkpt>
      <trkpt lat="47.62356" lon="-0.06001">
        <ele>77</ele>
        <time>2021-03-24T22:07:07Z</time>
      </trkpt>
      <trkpt lat="47.62416" lon="-0.06028">
        <ele>75</ele>
        <time>2021-03-24T22:07:18Z</time>
      </trkpt>
      <trkpt lat="47.62416" lon="-0.06028">
        <ele>75</ele>
        <time>2021-03-24T22:07:18Z</time>
      </trkpt>
      <trkpt lat="47.62416" lon="-0.06063">
        <ele>74</ele>
        <time>2021-03-24T22:07:22Z</time>
      </trkpt>
      <trkpt lat="47.62417" lon="-0.0609">
        <ele>73</ele>
        <time>2021-03-24T22:07:25Z</time>
      </trkpt>
      <trkpt lat="47.62418" lon="-0.06105">
        <ele>72</ele>
        <time>2021-03-24T22:07:27Z</time>
      </trkpt>
      <trkpt lat="47.62422" lon="-0.06158">
        <ele>71</ele>
        <time>2021-03-24T22:07:34Z</time>
      </trkpt>
      <trkpt lat="47.62427" lon="-0.06221">
        <ele>69</ele>
        <time>2021-03-24T22:07:41Z</time>
      </trkpt>
      <trkpt lat="47.62429" lon="-0.06247">
        <ele>68</ele>
        <time>2021-03-24T22:07:44Z</time>
      </trkpt>
      <trkpt lat="47.62431" lon="-0.06267">
        <ele>68</ele>
        <time>2021-03-24T22:07:47Z</time>
      </trkpt>
      <trkpt lat="47.62432" lon="-0.06281">
        <ele>67</ele>
        <time>2021-03-24T22:07:49Z</time>
      </trkpt>
      <trkpt lat="47.62435" lon="-0.06304">
        <ele>67</ele>
        <time>2021-03-24T22:07:51Z</time>
      </trkpt>
      <trkpt lat="47.62438" lon="-0.0635">
        <ele>66</ele>
        <time>2021-03-24T22:07:57Z</time>
      </trkpt>
      <trkpt lat="47.6244" lon="-0.06382">
        <ele>66</ele>
        <time>2021-03-24T22:08:01Z</time>
      </trkpt>
      <trkpt lat="47.6244" lon="-0.06414">
        <ele>65</ele>
        <time>2021-03-24T22:08:05Z</time>
      </trkpt>
      <trkpt lat="47.6244" lon="-0.06449">
        <ele>64</ele>
        <time>2021-03-24T22:08:09Z</time>
      </trkpt>
      <trkpt lat="47.6244" lon="-0.06489">
        <ele>64</ele>
        <time>2021-03-24T22:08:14Z</time>
      </trkpt>
      <trkpt lat="47.62439" lon="-0.06531">
        <ele>62</ele>
        <time>2021-03-24T22:08:19Z</time>
      </trkpt>
      <trkpt lat="47.62437" lon="-0.0656">
        <ele>61</ele>
        <time>2021-03-24T22:08:22Z</time>
      </trkpt>
      <trkpt lat="47.62436" lon="-0.06575">
        <ele>60</ele>
        <time>2021-03-24T22:08:24Z</time>
      </trkpt>
      <trkpt lat="47.62435" lon="-0.06599">
        <ele>59</ele>
        <time>2021-03-24T22:08:27Z</time>
      </trkpt>
      <trkpt lat="47.62433" lon="-0.06629">
        <ele>58</ele>
        <time>2021-03-24T22:08:30Z</time>
      </trkpt>
      <trkpt lat="47.62431" lon="-0.06659">
        <ele>57</ele>
        <time>2021-03-24T22:08:34Z</time>
      </trkpt>
      <trkpt lat="47.62429" lon="-0.06695">
        <ele>57</ele>
        <time>2021-03-24T22:08:38Z</time>
      </trkpt>
      <trkpt lat="47.62427" lon="-0.06725">
        <ele>56</ele>
        <time>2021-03-24T22:08:42Z</time>
      </trkpt>
      <trkpt lat="47.62426" lon="-0.06731">
        <ele>56</ele>
        <time>2021-03-24T22:08:43Z</time>
      </trkpt>
      <trkpt lat="47.62426" lon="-0.06741">
        <ele>56</ele>
        <time>2021-03-24T22:08:44Z</time>
      </trkpt>
      <trkpt lat="47.62426" lon="-0.06755">
        <ele>56</ele>
        <time>2021-03-24T22:08:46Z</time>
      </trkpt>
      <trkpt lat="47.62426" lon="-0.06763">
        <ele>56</ele>
        <time>2021-03-24T22:08:47Z</time>
      </trkpt>
      <trkpt lat="47.62427" lon="-0.06772">
        <ele>57</ele>
        <time>2021-03-24T22:08:48Z</time>
      </trkpt>
      <trkpt lat="47.62428" lon="-0.06779">
        <ele>57</ele>
        <time>2021-03-24T22:08:48Z</time>
      </trkpt>
      <trkpt lat="47.62429" lon="-0.06787">
        <ele>57</ele>
        <time>2021-03-24T22:08:49Z</time>
      </trkpt>
      <trkpt lat="47.62433" lon="-0.06805">
        <ele>58</ele>
        <time>2021-03-24T22:08:52Z</time>
      </trkpt>
      <trkpt lat="47.62438" lon="-0.06834">
        <ele>59</ele>
        <time>2021-03-24T22:08:55Z</time>
      </trkpt>
      <trkpt lat="47.62441" lon="-0.06848">
        <ele>59</ele>
        <time>2021-03-24T22:08:57Z</time>
      </trkpt>
      <trkpt lat="47.62442" lon="-0.06856">
        <ele>59</ele>
        <time>2021-03-24T22:08:58Z</time>
      </trkpt>
      <trkpt lat="47.62444" lon="-0.06864">
        <ele>59</ele>
        <time>2021-03-24T22:08:59Z</time>
      </trkpt>
      <trkpt lat="47.62444" lon="-0.0687">
        <ele>59</ele>
        <time>2021-03-24T22:09:00Z</time>
      </trkpt>
      <trkpt lat="47.62445" lon="-0.06878">
        <ele>59</ele>
        <time>2021-03-24T22:09:01Z</time>
      </trkpt>
      <trkpt lat="47.62445" lon="-0.06886">
        <ele>59</ele>
        <time>2021-03-24T22:09:02Z</time>
      </trkpt>
      <trkpt lat="47.62445" lon="-0.06892">
        <ele>59</ele>
        <time>2021-03-24T22:09:02Z</time>
      </trkpt>
      <trkpt lat="47.62445" lon="-0.06901">
        <ele>59</ele>
        <time>2021-03-24T22:09:04Z</time>
      </trkpt>
      <trkpt lat="47.62444" lon="-0.06911">
        <ele>59</ele>
        <time>2021-03-24T22:09:05Z</time>
      </trkpt>
      <trkpt lat="47.6244" lon="-0.06943">
        <ele>60</ele>
        <time>2021-03-24T22:09:09Z</time>
      </trkpt>
      <trkpt lat="47.62437" lon="-0.0698">
        <ele>60</ele>
        <time>2021-03-24T22:09:13Z</time>
      </trkpt>
      <trkpt lat="47.62435" lon="-0.07008">
        <ele>61</ele>
        <time>2021-03-24T22:09:17Z</time>
      </trkpt>
      <trkpt lat="47.62433" lon="-0.07034">
        <ele>62</ele>
        <time>2021-03-24T22:09:20Z</time>
      </trkpt>
      <trkpt lat="47.62432" lon="-0.07043">
        <ele>62</ele>
        <time>2021-03-24T22:09:21Z</time>
      </trkpt>
      <trkpt lat="47.62432" lon="-0.0706">
        <ele>63</ele>
        <time>2021-03-24T22:09:23Z</time>
      </trkpt>
      <trkpt lat="47.62432" lon="-0.0706">
        <ele>63</ele>
        <time>2021-03-24T22:09:23Z</time>
      </trkpt>
      <trkpt lat="47.62443" lon="-0.07058">
        <ele>62</ele>
        <time>2021-03-24T22:09:25Z</time>
      </trkpt>
      <trkpt lat="47.62463" lon="-0.07054">
        <ele>61</ele>
        <time>2021-03-24T22:09:28Z</time>
      </trkpt>
      <trkpt lat="47.62486" lon="-0.07049">
        <ele>60</ele>
        <time>2021-03-24T22:09:32Z</time>
      </trkpt>
      <trkpt lat="47.625" lon="-0.07047">
        <ele>60</ele>
        <time>2021-03-24T22:09:35Z</time>
      </trkpt>
      <trkpt lat="47.62505" lon="-0.07046">
        <ele>60</ele>
        <time>2021-03-24T22:09:36Z</time>
      </trkpt>
      <trkpt lat="47.62511" lon="-0.07044">
        <ele>59</ele>
        <time>2021-03-24T22:09:37Z</time>
      </trkpt>
      <trkpt lat="47.62522" lon="-0.07043">
        <ele>59</ele>
        <time>2021-03-24T22:09:39Z</time>
      </trkpt>
      <trkpt lat="47.62536" lon="-0.07042">
        <ele>58</ele>
        <time>2021-03-24T22:09:41Z</time>
      </trkpt>
      <trkpt lat="47.62554" lon="-0.07041">
        <ele>56</ele>
        <time>2021-03-24T22:09:45Z</time>
      </trkpt>
      <trkpt lat="47.62569" lon="-0.07042">
        <ele>55</ele>
        <time>2021-03-24T22:09:47Z</time>
      </trkpt>
      <trkpt lat="47.62569" lon="-0.07042">
        <ele>55</ele>
        <time>2021-03-24T22:09:47Z</time>
      </trkpt>
      <trkpt lat="47.62569" lon="-0.07052">
        <ele>55</ele>
        <time>2021-03-24T22:09:48Z</time>
      </trkpt>
      <trkpt lat="47.62569" lon="-0.07065">
        <ele>55</ele>
        <time>2021-03-24T22:09:50Z</time>
      </trkpt>
      <trkpt lat="47.62568" lon="-0.07091">
        <ele>55</ele>
        <time>2021-03-24T22:09:53Z</time>
      </trkpt>
      <trkpt lat="47.62562" lon="-0.07161">
        <ele>54</ele>
        <time>2021-03-24T22:10:02Z</time>
      </trkpt>
      <trkpt lat="47.62556" lon="-0.0721">
        <ele>53</ele>
        <time>2021-03-24T22:10:08Z</time>
      </trkpt>
      <trkpt lat="47.62552" lon="-0.07248">
        <ele>53</ele>
        <time>2021-03-24T22:10:12Z</time>
      </trkpt>
      <trkpt lat="47.6255" lon="-0.07265">
        <ele>53</ele>
        <time>2021-03-24T22:10:14Z</time>
      </trkpt>
      <trkpt lat="47.62548" lon="-0.07275">
        <ele>53</ele>
        <time>2021-03-24T22:10:16Z</time>
      </trkpt>
      <trkpt lat="47.62545" lon="-0.07288">
        <ele>52</ele>
        <time>2021-03-24T22:10:17Z</time>
      </trkpt>
      <trkpt lat="47.62539" lon="-0.07309">
        <ele>52</ele>
        <time>2021-03-24T22:10:20Z</time>
      </trkpt>
      <trkpt lat="47.6253" lon="-0.07338">
        <ele>52</ele>
        <time>2021-03-24T22:10:24Z</time>
      </trkpt>
      <trkpt lat="47.62524" lon="-0.07363">
        <ele>53</ele>
        <time>2021-03-24T22:10:27Z</time>
      </trkpt>
      <trkpt lat="47.62518" lon="-0.07389">
        <ele>53</ele>
        <time>2021-03-24T22:10:30Z</time>
      </trkpt>
      <trkpt lat="47.62517" lon="-0.07393">
        <ele>53</ele>
        <time>2021-03-24T22:10:31Z</time>
      </trkpt>
      <trkpt lat="47.62515" lon="-0.07406">
        <ele>53</ele>
        <time>2021-03-24T22:10:32Z</time>
      </trkpt>
      <trkpt lat="47.62514" lon="-0.07414">
        <ele>53</ele>
        <time>2021-03-24T22:10:33Z</time>
      </trkpt>
      <trkpt lat="47.62511" lon="-0.07444">
        <ele>53</ele>
        <time>2021-03-24T22:10:37Z</time>
      </trkpt>
      <trkpt lat="47.62509" lon="-0.07464">
        <ele>53</ele>
        <time>2021-03-24T22:10:39Z</time>
      </trkpt>
      <trkpt lat="47.62508" lon="-0.07478">
        <ele>53</ele>
        <time>2021-03-24T22:10:41Z</time>
      </trkpt>
      <trkpt lat="47.62505" lon="-0.07493">
        <ele>53</ele>
        <time>2021-03-24T22:10:43Z</time>
      </trkpt>
      <trkpt lat="47.62502" lon="-0.07506">
        <ele>53</ele>
        <time>2021-03-24T22:10:45Z</time>
      </trkpt>
      <trkpt lat="47.625" lon="-0.07514">
        <ele>53</ele>
        <time>2021-03-24T22:10:46Z</time>
      </trkpt>
      <trkpt lat="47.62496" lon="-0.07523">
        <ele>53</ele>
        <time>2021-03-24T22:10:47Z</time>
      </trkpt>
      <trkpt lat="47.62495" lon="-0.07536">
        <ele>53</ele>
        <time>2021-03-24T22:10:48Z</time>
      </trkpt>
      <trkpt lat="47.62494" lon="-0.07551">
        <ele>53</ele>
        <time>2021-03-24T22:10:50Z</time>
      </trkpt>
      <trkpt lat="47.62495" lon="-0.07564">
        <ele>52</ele>
        <time>2021-03-24T22:10:52Z</time>
      </trkpt>
      <trkpt lat="47.62495" lon="-0.07569">
        <ele>52</ele>
        <time>2021-03-24T22:10:52Z</time>
      </trkpt>
      <trkpt lat="47.62497" lon="-0.07573">
        <ele>52</ele>
        <time>2021-03-24T22:10:53Z</time>
      </trkpt>
      <trkpt lat="47.62504" lon="-0.07589">
        <ele>52</ele>
        <time>2021-03-24T22:10:55Z</time>
      </trkpt>
      <trkpt lat="47.62504" lon="-0.07589">
        <ele>52</ele>
        <time>2021-03-24T22:10:55Z</time>
      </trkpt>
      <trkpt lat="47.62504" lon="-0.0759">
        <ele>52</ele>
        <time>2021-03-24T22:10:55Z</time>
      </trkpt>
      <trkpt lat="47.62505" lon="-0.07591">
        <ele>52</ele>
        <time>2021-03-24T22:10:56Z</time>
      </trkpt>
      <trkpt lat="47.62506" lon="-0.07592">
        <ele>52</ele>
        <time>2021-03-24T22:10:56Z</time>
      </trkpt>
      <trkpt lat="47.62506" lon="-0.07593">
        <ele>52</ele>
        <time>2021-03-24T22:10:56Z</time>
      </trkpt>
      <trkpt lat="47.62507" lon="-0.07595">
        <ele>52</ele>
        <time>2021-03-24T22:10:56Z</time>
      </trkpt>
      <trkpt lat="47.62508" lon="-0.07596">
        <ele>52</ele>
        <time>2021-03-24T22:10:57Z</time>
      </trkpt>
      <trkpt lat="47.62508" lon="-0.07597">
        <ele>52</ele>
        <time>2021-03-24T22:10:57Z</time>
      </trkpt>
      <trkpt lat="47.62509" lon="-0.07599">
        <ele>52</ele>
        <time>2021-03-24T22:10:57Z</time>
      </trkpt>
      <trkpt lat="47.6251" lon="-0.07601">
        <ele>52</ele>
        <time>2021-03-24T22:10:57Z</time>
      </trkpt>
      <trkpt lat="47.6251" lon="-0.07604">
        <ele>52</ele>
        <time>2021-03-24T22:10:58Z</time>
      </trkpt>
      <trkpt lat="47.62511" lon="-0.07607">
        <ele>52</ele>
        <time>2021-03-24T22:10:58Z</time>
      </trkpt>
      <trkpt lat="47.62512" lon="-0.0761">
        <ele>52</ele>
        <time>2021-03-24T22:10:58Z</time>
      </trkpt>
      <trkpt lat="47.62512" lon="-0.07613">
        <ele>52</ele>
        <time>2021-03-24T22:10:59Z</time>
      </trkpt>
      <trkpt lat="47.62512" lon="-0.07616">
        <ele>52</ele>
        <time>2021-03-24T22:10:59Z</time>
      </trkpt>
      <trkpt lat="47.62512" lon="-0.07619">
        <ele>52</ele>
        <time>2021-03-24T22:10:59Z</time>
      </trkpt>
      <trkpt lat="47.62511" lon="-0.07622">
        <ele>52</ele>
        <time>2021-03-24T22:11:00Z</time>
      </trkpt>
      <trkpt lat="47.62511" lon="-0.07625">
        <ele>52</ele>
        <time>2021-03-24T22:11:00Z</time>
      </trkpt>
      <trkpt lat="47.6251" lon="-0.0763">
        <ele>52</ele>
        <time>2021-03-24T22:11:01Z</time>
      </trkpt>
      <trkpt lat="47.62509" lon="-0.07631">
        <ele>52</ele>
        <time>2021-03-24T22:11:01Z</time>
      </trkpt>
      <trkpt lat="47.62508" lon="-0.07632">
        <ele>52</ele>
        <time>2021-03-24T22:11:01Z</time>
      </trkpt>
      <trkpt lat="47.62508" lon="-0.07633">
        <ele>52</ele>
        <time>2021-03-24T22:11:01Z</time>
      </trkpt>
      <trkpt lat="47.62507" lon="-0.07634">
        <ele>52</ele>
        <time>2021-03-24T22:11:02Z</time>
      </trkpt>
      <trkpt lat="47.62507" lon="-0.07636">
        <ele>52</ele>
        <time>2021-03-24T22:11:02Z</time>
      </trkpt>
      <trkpt lat="47.62506" lon="-0.07637">
        <ele>52</ele>
        <time>2021-03-24T22:11:02Z</time>
      </trkpt>
      <trkpt lat="47.62505" lon="-0.07638">
        <ele>52</ele>
        <time>2021-03-24T22:11:02Z</time>
      </trkpt>
      <trkpt lat="47.62505" lon="-0.07639">
        <ele>52</ele>
        <time>2021-03-24T22:11:02Z</time>
      </trkpt>
      <trkpt lat="47.62503" lon="-0.07649">
        <ele>52</ele>
        <time>2021-03-24T22:11:04Z</time>
      </trkpt>
      <trkpt lat="47.62501" lon="-0.07655">
        <ele>52</ele>
        <time>2021-03-24T22:11:04Z</time>
      </trkpt>
      <trkpt lat="47.62499" lon="-0.07663">
        <ele>52</ele>
        <time>2021-03-24T22:11:06Z</time>
      </trkpt>
      <trkpt lat="47.62498" lon="-0.07673">
        <ele>52</ele>
        <time>2021-03-24T22:11:07Z</time>
      </trkpt>
      <trkpt lat="47.62497" lon="-0.07685">
        <ele>52</ele>
        <time>2021-03-24T22:11:08Z</time>
      </trkpt>
      <trkpt lat="47.62496" lon="-0.07694">
        <ele>52</ele>
        <time>2021-03-24T22:11:09Z</time>
      </trkpt>
      <trkpt lat="47.62495" lon="-0.07703">
        <ele>52</ele>
        <time>2021-03-24T22:11:10Z</time>
      </trkpt>
      <trkpt lat="47.62494" lon="-0.07712">
        <ele>52</ele>
        <time>2021-03-24T22:11:11Z</time>
      </trkpt>
      <trkpt lat="47.62493" lon="-0.07717">
        <ele>52</ele>
        <time>2021-03-24T22:11:12Z</time>
      </trkpt>
      <trkpt lat="47.62488" lon="-0.07733">
        <ele>52</ele>
        <time>2021-03-24T22:11:14Z</time>
      </trkpt>
      <trkpt lat="47.62483" lon="-0.07749">
        <ele>52</ele>
        <time>2021-03-24T22:11:16Z</time>
      </trkpt>
      <trkpt lat="47.62474" lon="-0.0777">
        <ele>52</ele>
        <time>2021-03-24T22:11:19Z</time>
      </trkpt>
      <trkpt lat="47.62468" lon="-0.07785">
        <ele>52</ele>
        <time>2021-03-24T22:11:21Z</time>
      </trkpt>
      <trkpt lat="47.62461" lon="-0.07801">
        <ele>52</ele>
        <time>2021-03-24T22:11:24Z</time>
      </trkpt>
      <trkpt lat="47.62458" lon="-0.07811">
        <ele>52</ele>
        <time>2021-03-24T22:11:25Z</time>
      </trkpt>
      <trkpt lat="47.62452" lon="-0.07829">
        <ele>53</ele>
        <time>2021-03-24T22:11:27Z</time>
      </trkpt>
      <trkpt lat="47.62448" lon="-0.07843">
        <ele>53</ele>
        <time>2021-03-24T22:11:29Z</time>
      </trkpt>
      <trkpt lat="47.62443" lon="-0.07857">
        <ele>53</ele>
        <time>2021-03-24T22:11:31Z</time>
      </trkpt>
      <trkpt lat="47.62436" lon="-0.07882">
        <ele>53</ele>
        <time>2021-03-24T22:11:34Z</time>
      </trkpt>
      <trkpt lat="47.62427" lon="-0.07907">
        <ele>53</ele>
        <time>2021-03-24T22:11:38Z</time>
      </trkpt>
      <trkpt lat="47.62414" lon="-0.0795">
        <ele>54</ele>
        <time>2021-03-24T22:11:43Z</time>
      </trkpt>
      <trkpt lat="47.62412" lon="-0.07956">
        <ele>54</ele>
        <time>2021-03-24T22:11:44Z</time>
      </trkpt>
      <trkpt lat="47.62404" lon="-0.07987">
        <ele>54</ele>
        <time>2021-03-24T22:11:48Z</time>
      </trkpt>
      <trkpt lat="47.62399" lon="-0.08011">
        <ele>54</ele>
        <time>2021-03-24T22:11:51Z</time>
      </trkpt>
      <trkpt lat="47.62396" lon="-0.0803">
        <ele>54</ele>
        <time>2021-03-24T22:11:54Z</time>
      </trkpt>
      <trkpt lat="47.62396" lon="-0.08036">
        <ele>54</ele>
        <time>2021-03-24T22:11:54Z</time>
      </trkpt>
      <trkpt lat="47.62394" lon="-0.08054">
        <ele>53</ele>
        <time>2021-03-24T22:11:56Z</time>
      </trkpt>
      <trkpt lat="47.62394" lon="-0.08068">
        <ele>53</ele>
        <time>2021-03-24T22:11:58Z</time>
      </trkpt>
      <trkpt lat="47.62394" lon="-0.0809">
        <ele>53</ele>
        <time>2021-03-24T22:12:01Z</time>
      </trkpt>
      <trkpt lat="47.62395" lon="-0.08108">
        <ele>52</ele>
        <time>2021-03-24T22:12:03Z</time>
      </trkpt>
      <trkpt lat="47.62399" lon="-0.08137">
        <ele>50</ele>
        <time>2021-03-24T22:12:06Z</time>
      </trkpt>
      <trkpt lat="47.62404" lon="-0.08164">
        <ele>49</ele>
        <time>2021-03-24T22:12:10Z</time>
      </trkpt>
      <trkpt lat="47.62408" lon="-0.08186">
        <ele>48</ele>
        <time>2021-03-24T22:12:13Z</time>
      </trkpt>
      <trkpt lat="47.6241" lon="-0.08201">
        <ele>48</ele>
        <time>2021-03-24T22:12:14Z</time>
      </trkpt>
      <trkpt lat="47.62411" lon="-0.08226">
        <ele>48</ele>
        <time>2021-03-24T22:12:17Z</time>
      </trkpt>
      <trkpt lat="47.62411" lon="-0.08262">
        <ele>48</ele>
        <time>2021-03-24T22:12:22Z</time>
      </trkpt>
      <trkpt lat="47.62413" lon="-0.08296">
        <ele>49</ele>
        <time>2021-03-24T22:12:26Z</time>
      </trkpt>
      <trkpt lat="47.62416" lon="-0.08315">
        <ele>49</ele>
        <time>2021-03-24T22:12:28Z</time>
      </trkpt>
      <trkpt lat="47.6242" lon="-0.08341">
        <ele>49</ele>
        <time>2021-03-24T22:12:31Z</time>
      </trkpt>
      <trkpt lat="47.62431" lon="-0.08403">
        <ele>48</ele>
        <time>2021-03-24T22:12:39Z</time>
      </trkpt>
      <trkpt lat="47.62442" lon="-0.08468">
        <ele>47</ele>
        <time>2021-03-24T22:12:47Z</time>
      </trkpt>
      <trkpt lat="47.62446" lon="-0.08492">
        <ele>47</ele>
        <time>2021-03-24T22:12:50Z</time>
      </trkpt>
      <trkpt lat="47.62449" lon="-0.08507">
        <ele>47</ele>
        <time>2021-03-24T22:12:52Z</time>
      </trkpt>
      <trkpt lat="47.62451" lon="-0.0852">
        <ele>48</ele>
        <time>2021-03-24T22:12:54Z</time>
      </trkpt>
      <trkpt lat="47.62453" lon="-0.08531">
        <ele>48</ele>
        <time>2021-03-24T22:12:55Z</time>
      </trkpt>
      <trkpt lat="47.62455" lon="-0.08551">
        <ele>48</ele>
        <time>2021-03-24T22:12:57Z</time>
      </trkpt>
      <trkpt lat="47.62456" lon="-0.08574">
        <ele>48</ele>
        <time>2021-03-24T22:13:00Z</time>
      </trkpt>
      <trkpt lat="47.62455" lon="-0.08588">
        <ele>48</ele>
        <time>2021-03-24T22:13:02Z</time>
      </trkpt>
      <trkpt lat="47.62454" lon="-0.086">
        <ele>48</ele>
        <time>2021-03-24T22:13:03Z</time>
      </trkpt>
      <trkpt lat="47.62453" lon="-0.08613">
        <ele>48</ele>
        <time>2021-03-24T22:13:05Z</time>
      </trkpt>
      <trkpt lat="47.6245" lon="-0.08625">
        <ele>48</ele>
        <time>2021-03-24T22:13:06Z</time>
      </trkpt>
      <trkpt lat="47.62448" lon="-0.08638">
        <ele>48</ele>
        <time>2021-03-24T22:13:08Z</time>
      </trkpt>
      <trkpt lat="47.62444" lon="-0.08654">
        <ele>49</ele>
        <time>2021-03-24T22:13:10Z</time>
      </trkpt>
      <trkpt lat="47.6244" lon="-0.08672">
        <ele>49</ele>
        <time>2021-03-24T22:13:12Z</time>
      </trkpt>
      <trkpt lat="47.62435" lon="-0.08698">
        <ele>49</ele>
        <time>2021-03-24T22:13:15Z</time>
      </trkpt>
      <trkpt lat="47.62433" lon="-0.08718">
        <ele>49</ele>
        <time>2021-03-24T22:13:18Z</time>
      </trkpt>
      <trkpt lat="47.62432" lon="-0.08734">
        <ele>49</ele>
        <time>2021-03-24T22:13:20Z</time>
      </trkpt>
      <trkpt lat="47.62431" lon="-0.08745">
        <ele>49</ele>
        <time>2021-03-24T22:13:21Z</time>
      </trkpt>
      <trkpt lat="47.62432" lon="-0.08759">
        <ele>49</ele>
        <time>2021-03-24T22:13:23Z</time>
      </trkpt>
      <trkpt lat="47.62433" lon="-0.08779">
        <ele>49</ele>
        <time>2021-03-24T22:13:25Z</time>
      </trkpt>
      <trkpt lat="47.62436" lon="-0.088">
        <ele>49</ele>
        <time>2021-03-24T22:13:28Z</time>
      </trkpt>
      <trkpt lat="47.62441" lon="-0.08829">
        <ele>50</ele>
        <time>2021-03-24T22:13:31Z</time>
      </trkpt>
      <trkpt lat="47.62445" lon="-0.08855">
        <ele>49</ele>
        <time>2021-03-24T22:13:35Z</time>
      </trkpt>
      <trkpt lat="47.62446" lon="-0.08861">
        <ele>49</ele>
        <time>2021-03-24T22:13:35Z</time>
      </trkpt>
      <trkpt lat="47.62447" lon="-0.08866">
        <ele>49</ele>
        <time>2021-03-24T22:13:36Z</time>
      </trkpt>
      <trkpt lat="47.62448" lon="-0.08871">
        <ele>49</ele>
        <time>2021-03-24T22:13:37Z</time>
      </trkpt>
      <trkpt lat="47.62453" lon="-0.08896">
        <ele>49</ele>
        <time>2021-03-24T22:13:40Z</time>
      </trkpt>
      <trkpt lat="47.62464" lon="-0.08952">
        <ele>47</ele>
        <time>2021-03-24T22:13:47Z</time>
      </trkpt>
      <trkpt lat="47.62467" lon="-0.08967">
        <ele>47</ele>
        <time>2021-03-24T22:13:49Z</time>
      </trkpt>
      <trkpt lat="47.6248" lon="-0.09037">
        <ele>46</ele>
        <time>2021-03-24T22:13:57Z</time>
      </trkpt>
      <trkpt lat="47.62485" lon="-0.09062">
        <ele>46</ele>
        <time>2021-03-24T22:14:00Z</time>
      </trkpt>
      <trkpt lat="47.62488" lon="-0.09076">
        <ele>46</ele>
        <time>2021-03-24T22:14:02Z</time>
      </trkpt>
      <trkpt lat="47.6249" lon="-0.09088">
        <ele>46</ele>
        <time>2021-03-24T22:14:04Z</time>
      </trkpt>
      <trkpt lat="47.62492" lon="-0.09108">
        <ele>46</ele>
        <time>2021-03-24T22:14:06Z</time>
      </trkpt>
      <trkpt lat="47.62493" lon="-0.09127">
        <ele>45</ele>
        <time>2021-03-24T22:14:08Z</time>
      </trkpt>
      <trkpt lat="47.62493" lon="-0.09147">
        <ele>45</ele>
        <time>2021-03-24T22:14:11Z</time>
      </trkpt>
      <trkpt lat="47.62491" lon="-0.09164">
        <ele>45</ele>
        <time>2021-03-24T22:14:13Z</time>
      </trkpt>
      <trkpt lat="47.62486" lon="-0.09194">
        <ele>45</ele>
        <time>2021-03-24T22:14:17Z</time>
      </trkpt>
      <trkpt lat="47.62479" lon="-0.09236">
        <ele>45</ele>
        <time>2021-03-24T22:14:22Z</time>
      </trkpt>
      <trkpt lat="47.62473" lon="-0.09272">
        <ele>44</ele>
        <time>2021-03-24T22:14:26Z</time>
      </trkpt>
      <trkpt lat="47.62471" lon="-0.09285">
        <ele>44</ele>
        <time>2021-03-24T22:14:28Z</time>
      </trkpt>
      <trkpt lat="47.62467" lon="-0.09314">
        <ele>44</ele>
        <time>2021-03-24T22:14:31Z</time>
      </trkpt>
      <trkpt lat="47.62467" lon="-0.09336">
        <ele>44</ele>
        <time>2021-03-24T22:14:34Z</time>
      </trkpt>
      <trkpt lat="47.62468" lon="-0.0936">
        <ele>44</ele>
        <time>2021-03-24T22:14:37Z</time>
      </trkpt>
      <trkpt lat="47.62473" lon="-0.0939">
        <ele>44</ele>
        <time>2021-03-24T22:14:41Z</time>
      </trkpt>
      <trkpt lat="47.62479" lon="-0.09414">
        <ele>44</ele>
        <time>2021-03-24T22:14:44Z</time>
      </trkpt>
      <trkpt lat="47.6249" lon="-0.09445">
        <ele>44</ele>
        <time>2021-03-24T22:14:48Z</time>
      </trkpt>
      <trkpt lat="47.62491" lon="-0.09448">
        <ele>44</ele>
        <time>2021-03-24T22:14:48Z</time>
      </trkpt>
      <trkpt lat="47.62501" lon="-0.09467">
        <ele>44</ele>
        <time>2021-03-24T22:14:51Z</time>
      </trkpt>
      <trkpt lat="47.62515" lon="-0.09489">
        <ele>44</ele>
        <time>2021-03-24T22:14:55Z</time>
      </trkpt>
      <trkpt lat="47.62522" lon="-0.09497">
        <ele>44</ele>
        <time>2021-03-24T22:14:56Z</time>
      </trkpt>
      <trkpt lat="47.62532" lon="-0.09505">
        <ele>44</ele>
        <time>2021-03-24T22:14:58Z</time>
      </trkpt>
      <trkpt lat="47.62545" lon="-0.09517">
        <ele>44</ele>
        <time>2021-03-24T22:15:01Z</time>
      </trkpt>
      <trkpt lat="47.62575" lon="-0.09538">
        <ele>44</ele>
        <time>2021-03-24T22:15:07Z</time>
      </trkpt>
      <trkpt lat="47.626" lon="-0.09558">
        <ele>44</ele>
        <time>2021-03-24T22:15:12Z</time>
      </trkpt>
      <trkpt lat="47.62614" lon="-0.09569">
        <ele>44</ele>
        <time>2021-03-24T22:15:15Z</time>
      </trkpt>
      <trkpt lat="47.62621" lon="-0.09575">
        <ele>44</ele>
        <time>2021-03-24T22:15:16Z</time>
      </trkpt>
      <trkpt lat="47.62625" lon="-0.0958">
        <ele>44</ele>
        <time>2021-03-24T22:15:17Z</time>
      </trkpt>
      <trkpt lat="47.62629" lon="-0.09585">
        <ele>44</ele>
        <time>2021-03-24T22:15:18Z</time>
      </trkpt>
      <trkpt lat="47.62635" lon="-0.09592">
        <ele>44</ele>
        <time>2021-03-24T22:15:20Z</time>
      </trkpt>
      <trkpt lat="47.62639" lon="-0.09596">
        <ele>44</ele>
        <time>2021-03-24T22:15:20Z</time>
      </trkpt>
      <trkpt lat="47.62656" lon="-0.0962">
        <ele>44</ele>
        <time>2021-03-24T22:15:25Z</time>
      </trkpt>
      <trkpt lat="47.62671" lon="-0.09647">
        <ele>44</ele>
        <time>2021-03-24T22:15:29Z</time>
      </trkpt>
      <trkpt lat="47.62682" lon="-0.09674">
        <ele>44</ele>
        <time>2021-03-24T22:15:33Z</time>
      </trkpt>
      <trkpt lat="47.62691" lon="-0.097">
        <ele>44</ele>
        <time>2021-03-24T22:15:36Z</time>
      </trkpt>
      <trkpt lat="47.62696" lon="-0.09726">
        <ele>44</ele>
        <time>2021-03-24T22:15:39Z</time>
      </trkpt>
      <trkpt lat="47.62701" lon="-0.09754">
        <ele>44</ele>
        <time>2021-03-24T22:15:43Z</time>
      </trkpt>
      <trkpt lat="47.62703" lon="-0.09786">
        <ele>43</ele>
        <time>2021-03-24T22:15:47Z</time>
      </trkpt>
      <trkpt lat="47.62705" lon="-0.09818">
        <ele>43</ele>
        <time>2021-03-24T22:15:50Z</time>
      </trkpt>
      <trkpt lat="47.62706" lon="-0.09846">
        <ele>43</ele>
        <time>2021-03-24T22:15:54Z</time>
      </trkpt>
      <trkpt lat="47.62708" lon="-0.09899">
        <ele>42</ele>
        <time>2021-03-24T22:16:00Z</time>
      </trkpt>
      <trkpt lat="47.62711" lon="-0.09938">
        <ele>42</ele>
        <time>2021-03-24T22:16:05Z</time>
      </trkpt>
      <trkpt lat="47.62712" lon="-0.09962">
        <ele>42</ele>
        <time>2021-03-24T22:16:08Z</time>
      </trkpt>
      <trkpt lat="47.62714" lon="-0.09977">
        <ele>42</ele>
        <time>2021-03-24T22:16:10Z</time>
      </trkpt>
      <trkpt lat="47.62717" lon="-0.09991">
        <ele>42</ele>
        <time>2021-03-24T22:16:11Z</time>
      </trkpt>
      <trkpt lat="47.62726" lon="-0.10032">
        <ele>42</ele>
        <time>2021-03-24T22:16:17Z</time>
      </trkpt>
      <trkpt lat="47.62736" lon="-0.10072">
        <ele>42</ele>
        <time>2021-03-24T22:16:22Z</time>
      </trkpt>
      <trkpt lat="47.62745" lon="-0.1011">
        <ele>42</ele>
        <time>2021-03-24T22:16:26Z</time>
      </trkpt>
      <trkpt lat="47.62748" lon="-0.10126">
        <ele>42</ele>
        <time>2021-03-24T22:16:28Z</time>
      </trkpt>
      <trkpt lat="47.62749" lon="-0.10129">
        <ele>42</ele>
        <time>2021-03-24T22:16:29Z</time>
      </trkpt>
      <trkpt lat="47.6275" lon="-0.10136">
        <ele>42</ele>
        <time>2021-03-24T22:16:30Z</time>
      </trkpt>
      <trkpt lat="47.62751" lon="-0.10143">
        <ele>42</ele>
        <time>2021-03-24T22:16:31Z</time>
      </trkpt>
      <trkpt lat="47.62752" lon="-0.10157">
        <ele>42</ele>
        <time>2021-03-24T22:16:32Z</time>
      </trkpt>
      <trkpt lat="47.62753" lon="-0.10183">
        <ele>42</ele>
        <time>2021-03-24T22:16:35Z</time>
      </trkpt>
      <trkpt lat="47.62752" lon="-0.10225">
        <ele>43</ele>
        <time>2021-03-24T22:16:40Z</time>
      </trkpt>
      <trkpt lat="47.62749" lon="-0.10265">
        <ele>43</ele>
        <time>2021-03-24T22:16:45Z</time>
      </trkpt>
      <trkpt lat="47.62744" lon="-0.10304">
        <ele>43</ele>
        <time>2021-03-24T22:16:50Z</time>
      </trkpt>
      <trkpt lat="47.62739" lon="-0.1036">
        <ele>43</ele>
        <time>2021-03-24T22:16:57Z</time>
      </trkpt>
      <trkpt lat="47.62731" lon="-0.10434">
        <ele>42</ele>
        <time>2021-03-24T22:17:06Z</time>
      </trkpt>
      <trkpt lat="47.62724" lon="-0.10489">
        <ele>43</ele>
        <time>2021-03-24T22:17:13Z</time>
      </trkpt>
      <trkpt lat="47.62719" lon="-0.10533">
        <ele>42</ele>
        <time>2021-03-24T22:17:18Z</time>
      </trkpt>
      <trkpt lat="47.62715" lon="-0.10566">
        <ele>42</ele>
        <time>2021-03-24T22:17:22Z</time>
      </trkpt>
      <trkpt lat="47.62714" lon="-0.10597">
        <ele>42</ele>
        <time>2021-03-24T22:17:26Z</time>
      </trkpt>
      <trkpt lat="47.62716" lon="-0.10629">
        <ele>42</ele>
        <time>2021-03-24T22:17:29Z</time>
      </trkpt>
      <trkpt lat="47.6272" lon="-0.10662">
        <ele>42</ele>
        <time>2021-03-24T22:17:33Z</time>
      </trkpt>
      <trkpt lat="47.62727" lon="-0.10695">
        <ele>41</ele>
        <time>2021-03-24T22:17:38Z</time>
      </trkpt>
      <trkpt lat="47.62735" lon="-0.10727">
        <ele>41</ele>
        <time>2021-03-24T22:17:42Z</time>
      </trkpt>
      <trkpt lat="47.62745" lon="-0.1076">
        <ele>41</ele>
        <time>2021-03-24T22:17:46Z</time>
      </trkpt>
      <trkpt lat="47.62753" lon="-0.10792">
        <ele>40</ele>
        <time>2021-03-24T22:17:50Z</time>
      </trkpt>
      <trkpt lat="47.6276" lon="-0.10817">
        <ele>40</ele>
        <time>2021-03-24T22:17:53Z</time>
      </trkpt>
      <trkpt lat="47.62765" lon="-0.10842">
        <ele>40</ele>
        <time>2021-03-24T22:17:57Z</time>
      </trkpt>
      <trkpt lat="47.62766" lon="-0.10852">
        <ele>40</ele>
        <time>2021-03-24T22:17:58Z</time>
      </trkpt>
      <trkpt lat="47.62766" lon="-0.10852">
        <ele>40</ele>
        <time>2021-03-24T22:17:58Z</time>
      </trkpt>
      <trkpt lat="47.62747" lon="-0.10853">
        <ele>39</ele>
        <time>2021-03-24T22:18:01Z</time>
      </trkpt>
      <trkpt lat="47.62705" lon="-0.10855">
        <ele>39</ele>
        <time>2021-03-24T22:18:09Z</time>
      </trkpt>
      <trkpt lat="47.62701" lon="-0.10855">
        <ele>39</ele>
        <time>2021-03-24T22:18:09Z</time>
      </trkpt>
      <trkpt lat="47.62697" lon="-0.10855">
        <ele>39</ele>
        <time>2021-03-24T22:18:10Z</time>
      </trkpt>
      <trkpt lat="47.62684" lon="-0.10857">
        <ele>39</ele>
        <time>2021-03-24T22:18:12Z</time>
      </trkpt>
      <trkpt lat="47.6267" lon="-0.10857">
        <ele>39</ele>
        <time>2021-03-24T22:18:15Z</time>
      </trkpt>
      <trkpt lat="47.62664" lon="-0.10857">
        <ele>39</ele>
        <time>2021-03-24T22:18:16Z</time>
      </trkpt>
      <trkpt lat="47.6266" lon="-0.10856">
        <ele>39</ele>
        <time>2021-03-24T22:18:17Z</time>
      </trkpt>
      <trkpt lat="47.62655" lon="-0.10854">
        <ele>39</ele>
        <time>2021-03-24T22:18:18Z</time>
      </trkpt>
      <trkpt lat="47.62649" lon="-0.10848">
        <ele>39</ele>
        <time>2021-03-24T22:18:19Z</time>
      </trkpt>
      <trkpt lat="47.62642" lon="-0.1084">
        <ele>39</ele>
        <time>2021-03-24T22:18:20Z</time>
      </trkpt>
      <trkpt lat="47.6262" lon="-0.10817">
        <ele>40</ele>
        <time>2021-03-24T22:18:25Z</time>
      </trkpt>
      <trkpt lat="47.62603" lon="-0.108">
        <ele>41</ele>
        <time>2021-03-24T22:18:29Z</time>
      </trkpt>
      <trkpt lat="47.62576" lon="-0.10769">
        <ele>42</ele>
        <time>2021-03-24T22:18:35Z</time>
      </trkpt>
      <trkpt lat="47.62576" lon="-0.10769">
        <ele>42</ele>
        <time>2021-03-24T22:18:35Z</time>
      </trkpt>
      <trkpt lat="47.6256" lon="-0.10793">
        <ele>41</ele>
        <time>2021-03-24T22:18:39Z</time>
      </trkpt>
      <trkpt lat="47.62534" lon="-0.10838">
        <ele>41</ele>
        <time>2021-03-24T22:18:46Z</time>
      </trkpt>
      <trkpt lat="47.62519" lon="-0.10865">
        <ele>40</ele>
        <time>2021-03-24T22:18:50Z</time>
      </trkpt>
      <trkpt lat="47.6251" lon="-0.10887">
        <ele>40</ele>
        <time>2021-03-24T22:18:53Z</time>
      </trkpt>
      <trkpt lat="47.62508" lon="-0.10895">
        <ele>40</ele>
        <time>2021-03-24T22:18:54Z</time>
      </trkpt>
      <trkpt lat="47.62506" lon="-0.10911">
        <ele>39</ele>
        <time>2021-03-24T22:18:56Z</time>
      </trkpt>
      <trkpt lat="47.62506" lon="-0.10922">
        <ele>39</ele>
        <time>2021-03-24T22:18:58Z</time>
      </trkpt>
      <trkpt lat="47.62507" lon="-0.10933">
        <ele>39</ele>
        <time>2021-03-24T22:18:59Z</time>
      </trkpt>
      <trkpt lat="47.62512" lon="-0.10967">
        <ele>40</ele>
        <time>2021-03-24T22:19:03Z</time>
      </trkpt>
      <trkpt lat="47.6252" lon="-0.11012">
        <ele>40</ele>
        <time>2021-03-24T22:19:09Z</time>
      </trkpt>
      <trkpt lat="47.62525" lon="-0.11044">
        <ele>39</ele>
        <time>2021-03-24T22:19:13Z</time>
      </trkpt>
      <trkpt lat="47.62529" lon="-0.11065">
        <ele>39</ele>
        <time>2021-03-24T22:19:15Z</time>
      </trkpt>
      <trkpt lat="47.62534" lon="-0.11086">
        <ele>39</ele>
        <time>2021-03-24T22:19:18Z</time>
      </trkpt>
      <trkpt lat="47.62552" lon="-0.11136">
        <ele>40</ele>
        <time>2021-03-24T22:19:25Z</time>
      </trkpt>
      <trkpt lat="47.62566" lon="-0.11172">
        <ele>40</ele>
        <time>2021-03-24T22:19:30Z</time>
      </trkpt>
      <trkpt lat="47.6258" lon="-0.1121">
        <ele>42</ele>
        <time>2021-03-24T22:19:35Z</time>
      </trkpt>
      <trkpt lat="47.62595" lon="-0.11247">
        <ele>43</ele>
        <time>2021-03-24T22:19:40Z</time>
      </trkpt>
      <trkpt lat="47.62605" lon="-0.11274">
        <ele>44</ele>
        <time>2021-03-24T22:19:44Z</time>
      </trkpt>
      <trkpt lat="47.6262" lon="-0.11315">
        <ele>46</ele>
        <time>2021-03-24T22:19:49Z</time>
      </trkpt>
      <trkpt lat="47.62637" lon="-0.11361">
        <ele>46</ele>
        <time>2021-03-24T22:19:56Z</time>
      </trkpt>
      <trkpt lat="47.62645" lon="-0.11398">
        <ele>45</ele>
        <time>2021-03-24T22:20:00Z</time>
      </trkpt>
      <trkpt lat="47.62648" lon="-0.11414">
        <ele>45</ele>
        <time>2021-03-24T22:20:02Z</time>
      </trkpt>
      <trkpt lat="47.6265" lon="-0.11438">
        <ele>44</ele>
        <time>2021-03-24T22:20:05Z</time>
      </trkpt>
      <trkpt lat="47.62652" lon="-0.11475">
        <ele>44</ele>
        <time>2021-03-24T22:20:10Z</time>
      </trkpt>
      <trkpt lat="47.62654" lon="-0.11552">
        <ele>44</ele>
        <time>2021-03-24T22:20:19Z</time>
      </trkpt>
      <trkpt lat="47.62653" lon="-0.11619">
        <ele>44</ele>
        <time>2021-03-24T22:20:27Z</time>
      </trkpt>
      <trkpt lat="47.62653" lon="-0.11634">
        <ele>44</ele>
        <time>2021-03-24T22:20:29Z</time>
      </trkpt>
      <trkpt lat="47.62651" lon="-0.11664">
        <ele>44</ele>
        <time>2021-03-24T22:20:32Z</time>
      </trkpt>
      <trkpt lat="47.62649" lon="-0.11679">
        <ele>45</ele>
        <time>2021-03-24T22:20:34Z</time>
      </trkpt>
      <trkpt lat="47.62645" lon="-0.11707">
        <ele>46</ele>
        <time>2021-03-24T22:20:38Z</time>
      </trkpt>
      <trkpt lat="47.62636" lon="-0.11755">
        <ele>49</ele>
        <time>2021-03-24T22:20:44Z</time>
      </trkpt>
      <trkpt lat="47.62624" lon="-0.11808">
        <ele>47</ele>
        <time>2021-03-24T22:20:50Z</time>
      </trkpt>
      <trkpt lat="47.62605" lon="-0.11859">
        <ele>45</ele>
        <time>2021-03-24T22:20:57Z</time>
      </trkpt>
      <trkpt lat="47.62579" lon="-0.11917">
        <ele>42</ele>
        <time>2021-03-24T22:21:06Z</time>
      </trkpt>
      <trkpt lat="47.62558" lon="-0.11961">
        <ele>42</ele>
        <time>2021-03-24T22:21:12Z</time>
      </trkpt>
      <trkpt lat="47.6254" lon="-0.11998">
        <ele>42</ele>
        <time>2021-03-24T22:21:18Z</time>
      </trkpt>
      <trkpt lat="47.62524" lon="-0.12031">
        <ele>42</ele>
        <time>2021-03-24T22:21:22Z</time>
      </trkpt>
      <trkpt lat="47.62508" lon="-0.12061">
        <ele>41</ele>
        <time>2021-03-24T22:21:27Z</time>
      </trkpt>
      <trkpt lat="47.62493" lon="-0.12096">
        <ele>41</ele>
        <time>2021-03-24T22:21:32Z</time>
      </trkpt>
      <trkpt lat="47.62488" lon="-0.12113">
        <ele>41</ele>
        <time>2021-03-24T22:21:34Z</time>
      </trkpt>
      <trkpt lat="47.62485" lon="-0.12131">
        <ele>41</ele>
        <time>2021-03-24T22:21:37Z</time>
      </trkpt>
      <trkpt lat="47.62484" lon="-0.12141">
        <ele>41</ele>
        <time>2021-03-24T22:21:38Z</time>
      </trkpt>
      <trkpt lat="47.62485" lon="-0.12159">
        <ele>41</ele>
        <time>2021-03-24T22:21:40Z</time>
      </trkpt>
      <trkpt lat="47.62487" lon="-0.12182">
        <ele>41</ele>
        <time>2021-03-24T22:21:43Z</time>
      </trkpt>
      <trkpt lat="47.62494" lon="-0.12226">
        <ele>41</ele>
        <time>2021-03-24T22:21:48Z</time>
      </trkpt>
      <trkpt lat="47.62497" lon="-0.12259">
        <ele>41</ele>
        <time>2021-03-24T22:21:52Z</time>
      </trkpt>
      <trkpt lat="47.625" lon="-0.1229">
        <ele>40</ele>
        <time>2021-03-24T22:21:56Z</time>
      </trkpt>
      <trkpt lat="47.62503" lon="-0.12349">
        <ele>39</ele>
        <time>2021-03-24T22:22:03Z</time>
      </trkpt>
      <trkpt lat="47.62506" lon="-0.12405">
        <ele>37</ele>
        <time>2021-03-24T22:22:10Z</time>
      </trkpt>
      <trkpt lat="47.62507" lon="-0.12416">
        <ele>37</ele>
        <time>2021-03-24T22:22:11Z</time>
      </trkpt>
      <trkpt lat="47.62507" lon="-0.12426">
        <ele>37</ele>
        <time>2021-03-24T22:22:12Z</time>
      </trkpt>
      <trkpt lat="47.62507" lon="-0.12428">
        <ele>37</ele>
        <time>2021-03-24T22:22:12Z</time>
      </trkpt>
      <trkpt lat="47.62508" lon="-0.12432">
        <ele>37</ele>
        <time>2021-03-24T22:22:13Z</time>
      </trkpt>
      <trkpt lat="47.62513" lon="-0.12518">
        <ele>39</ele>
        <time>2021-03-24T22:22:23Z</time>
      </trkpt>
      <trkpt lat="47.62514" lon="-0.12551">
        <ele>39</ele>
        <time>2021-03-24T22:22:27Z</time>
      </trkpt>
      <trkpt lat="47.62518" lon="-0.12617">
        <ele>39</ele>
        <time>2021-03-24T22:22:35Z</time>
      </trkpt>
      <trkpt lat="47.62523" lon="-0.12706">
        <ele>40</ele>
        <time>2021-03-24T22:22:46Z</time>
      </trkpt>
      <trkpt lat="47.62527" lon="-0.12795">
        <ele>42</ele>
        <time>2021-03-24T22:22:57Z</time>
      </trkpt>
      <trkpt lat="47.62532" lon="-0.12886">
        <ele>45</ele>
        <time>2021-03-24T22:23:08Z</time>
      </trkpt>
      <trkpt lat="47.62539" lon="-0.1302">
        <ele>48</ele>
        <time>2021-03-24T22:23:24Z</time>
      </trkpt>
      <trkpt lat="47.62544" lon="-0.13116">
        <ele>46</ele>
        <time>2021-03-24T22:23:35Z</time>
      </trkpt>
      <trkpt lat="47.62546" lon="-0.13143">
        <ele>46</ele>
        <time>2021-03-24T22:23:38Z</time>
      </trkpt>
      <trkpt lat="47.6255" lon="-0.13176">
        <ele>46</ele>
        <time>2021-03-24T22:23:43Z</time>
      </trkpt>
      <trkpt lat="47.62555" lon="-0.13196">
        <ele>46</ele>
        <time>2021-03-24T22:23:45Z</time>
      </trkpt>
      <trkpt lat="47.62556" lon="-0.13205">
        <ele>46</ele>
        <time>2021-03-24T22:23:46Z</time>
      </trkpt>
      <trkpt lat="47.62575" lon="-0.13276">
        <ele>46</ele>
        <time>2021-03-24T22:23:55Z</time>
      </trkpt>
      <trkpt lat="47.62582" lon="-0.13309">
        <ele>45</ele>
        <time>2021-03-24T22:23:59Z</time>
      </trkpt>
      <trkpt lat="47.62587" lon="-0.13343">
        <ele>45</ele>
        <time>2021-03-24T22:24:04Z</time>
      </trkpt>
      <trkpt lat="47.6259" lon="-0.13373">
        <ele>44</ele>
        <time>2021-03-24T22:24:07Z</time>
      </trkpt>
      <trkpt lat="47.62595" lon="-0.13423">
        <ele>44</ele>
        <time>2021-03-24T22:24:13Z</time>
      </trkpt>
      <trkpt lat="47.62599" lon="-0.13462">
        <ele>43</ele>
        <time>2021-03-24T22:24:18Z</time>
      </trkpt>
      <trkpt lat="47.62604" lon="-0.13486">
        <ele>43</ele>
        <time>2021-03-24T22:24:21Z</time>
      </trkpt>
      <trkpt lat="47.62611" lon="-0.13514">
        <ele>43</ele>
        <time>2021-03-24T22:24:25Z</time>
      </trkpt>
      <trkpt lat="47.62633" lon="-0.13576">
        <ele>41</ele>
        <time>2021-03-24T22:24:33Z</time>
      </trkpt>
      <trkpt lat="47.62659" lon="-0.13645">
        <ele>39</ele>
        <time>2021-03-24T22:24:43Z</time>
      </trkpt>
      <trkpt lat="47.62668" lon="-0.13673">
        <ele>38</ele>
        <time>2021-03-24T22:24:46Z</time>
      </trkpt>
      <trkpt lat="47.62674" lon="-0.13686">
        <ele>38</ele>
        <time>2021-03-24T22:24:48Z</time>
      </trkpt>
      <trkpt lat="47.62698" lon="-0.13745">
        <ele>39</ele>
        <time>2021-03-24T22:24:56Z</time>
      </trkpt>
      <trkpt lat="47.62703" lon="-0.13757">
        <ele>39</ele>
        <time>2021-03-24T22:24:58Z</time>
      </trkpt>
      <trkpt lat="47.62707" lon="-0.1377">
        <ele>39</ele>
        <time>2021-03-24T22:25:00Z</time>
      </trkpt>
      <trkpt lat="47.62709" lon="-0.13782">
        <ele>39</ele>
        <time>2021-03-24T22:25:01Z</time>
      </trkpt>
      <trkpt lat="47.62712" lon="-0.13794">
        <ele>39</ele>
        <time>2021-03-24T22:25:03Z</time>
      </trkpt>
      <trkpt lat="47.62715" lon="-0.13816">
        <ele>39</ele>
        <time>2021-03-24T22:25:06Z</time>
      </trkpt>
      <trkpt lat="47.62719" lon="-0.13856">
        <ele>38</ele>
        <time>2021-03-24T22:25:10Z</time>
      </trkpt>
      <trkpt lat="47.6272" lon="-0.13871">
        <ele>38</ele>
        <time>2021-03-24T22:25:12Z</time>
      </trkpt>
      <trkpt lat="47.62722" lon="-0.13903">
        <ele>38</ele>
        <time>2021-03-24T22:25:16Z</time>
      </trkpt>
      <trkpt lat="47.62725" lon="-0.13936">
        <ele>38</ele>
        <time>2021-03-24T22:25:20Z</time>
      </trkpt>
      <trkpt lat="47.62726" lon="-0.13945">
        <ele>38</ele>
        <time>2021-03-24T22:25:21Z</time>
      </trkpt>
      <trkpt lat="47.62729" lon="-0.13994">
        <ele>37</ele>
        <time>2021-03-24T22:25:27Z</time>
      </trkpt>
      <trkpt lat="47.62731" lon="-0.14021">
        <ele>36</ele>
        <time>2021-03-24T22:25:30Z</time>
      </trkpt>
      <trkpt lat="47.62737" lon="-0.14098">
        <ele>36</ele>
        <time>2021-03-24T22:25:40Z</time>
      </trkpt>
      <trkpt lat="47.62742" lon="-0.14174">
        <ele>35</ele>
        <time>2021-03-24T22:25:49Z</time>
      </trkpt>
      <trkpt lat="47.6275" lon="-0.14264">
        <ele>34</ele>
        <time>2021-03-24T22:26:00Z</time>
      </trkpt>
      <trkpt lat="47.6275" lon="-0.14271">
        <ele>34</ele>
        <time>2021-03-24T22:26:00Z</time>
      </trkpt>
      <trkpt lat="47.62751" lon="-0.14279">
        <ele>34</ele>
        <time>2021-03-24T22:26:01Z</time>
      </trkpt>
      <trkpt lat="47.62751" lon="-0.1428">
        <ele>34</ele>
        <time>2021-03-24T22:26:02Z</time>
      </trkpt>
      <trkpt lat="47.62758" lon="-0.14364">
        <ele>34</ele>
        <time>2021-03-24T22:26:12Z</time>
      </trkpt>
      <trkpt lat="47.62766" lon="-0.14457">
        <ele>34</ele>
        <time>2021-03-24T22:26:23Z</time>
      </trkpt>
      <trkpt lat="47.62774" lon="-0.1455">
        <ele>33</ele>
        <time>2021-03-24T22:26:34Z</time>
      </trkpt>
      <trkpt lat="47.62775" lon="-0.14557">
        <ele>33</ele>
        <time>2021-03-24T22:26:35Z</time>
      </trkpt>
      <trkpt lat="47.62779" lon="-0.14604">
        <ele>32</ele>
        <time>2021-03-24T22:26:41Z</time>
      </trkpt>
      <trkpt lat="47.62781" lon="-0.14638">
        <ele>32</ele>
        <time>2021-03-24T22:26:45Z</time>
      </trkpt>
      <trkpt lat="47.62785" lon="-0.14681">
        <ele>32</ele>
        <time>2021-03-24T22:26:50Z</time>
      </trkpt>
      <trkpt lat="47.62788" lon="-0.1471">
        <ele>32</ele>
        <time>2021-03-24T22:26:54Z</time>
      </trkpt>
      <trkpt lat="47.62791" lon="-0.14745">
        <ele>32</ele>
        <time>2021-03-24T22:26:58Z</time>
      </trkpt>
      <trkpt lat="47.62796" lon="-0.1477">
        <ele>33</ele>
        <time>2021-03-24T22:27:01Z</time>
      </trkpt>
      <trkpt lat="47.62796" lon="-0.1477">
        <ele>33</ele>
        <time>2021-03-24T22:27:01Z</time>
      </trkpt>
      <trkpt lat="47.62795" lon="-0.14781">
        <ele>33</ele>
        <time>2021-03-24T22:27:02Z</time>
      </trkpt>
      <trkpt lat="47.62795" lon="-0.14795">
        <ele>33</ele>
        <time>2021-03-24T22:27:04Z</time>
      </trkpt>
      <trkpt lat="47.62794" lon="-0.14802">
        <ele>33</ele>
        <time>2021-03-24T22:27:05Z</time>
      </trkpt>
      <trkpt lat="47.62796" lon="-0.14838">
        <ele>34</ele>
        <time>2021-03-24T22:27:09Z</time>
      </trkpt>
      <trkpt lat="47.628" lon="-0.14873">
        <ele>34</ele>
        <time>2021-03-24T22:27:13Z</time>
      </trkpt>
      <trkpt lat="47.62801" lon="-0.14896">
        <ele>34</ele>
        <time>2021-03-24T22:27:16Z</time>
      </trkpt>
      <trkpt lat="47.62801" lon="-0.14909">
        <ele>34</ele>
        <time>2021-03-24T22:27:18Z</time>
      </trkpt>
      <trkpt lat="47.62801" lon="-0.14909">
        <ele>34</ele>
        <time>2021-03-24T22:27:18Z</time>
      </trkpt>
      <trkpt lat="47.62804" lon="-0.14911">
        <ele>34</ele>
        <time>2021-03-24T22:27:18Z</time>
      </trkpt>
      <trkpt lat="47.62815" lon="-0.1492">
        <ele>34</ele>
        <time>2021-03-24T22:27:21Z</time>
      </trkpt>
      <trkpt lat="47.62834" lon="-0.14933">
        <ele>34</ele>
        <time>2021-03-24T22:27:24Z</time>
      </trkpt>
      <trkpt lat="47.62849" lon="-0.14944">
        <ele>33</ele>
        <time>2021-03-24T22:27:27Z</time>
      </trkpt>
      <trkpt lat="47.62851" lon="-0.14945">
        <ele>33</ele>
        <time>2021-03-24T22:27:28Z</time>
      </trkpt>
      <trkpt lat="47.62857" lon="-0.14951">
        <ele>33</ele>
        <time>2021-03-24T22:27:29Z</time>
      </trkpt>
      <trkpt lat="47.6286" lon="-0.14956">
        <ele>33</ele>
        <time>2021-03-24T22:27:30Z</time>
      </trkpt>
      <trkpt lat="47.62865" lon="-0.14968">
        <ele>32</ele>
        <time>2021-03-24T22:27:31Z</time>
      </trkpt>
      <trkpt lat="47.62872" lon="-0.14986">
        <ele>32</ele>
        <time>2021-03-24T22:27:34Z</time>
      </trkpt>
      <trkpt lat="47.6288" lon="-0.15008">
        <ele>31</ele>
        <time>2021-03-24T22:27:37Z</time>
      </trkpt>
      <trkpt lat="47.62886" lon="-0.15024">
        <ele>31</ele>
        <time>2021-03-24T22:27:39Z</time>
      </trkpt>
      <trkpt lat="47.62892" lon="-0.15038">
        <ele>31</ele>
        <time>2021-03-24T22:27:41Z</time>
      </trkpt>
      <trkpt lat="47.62895" lon="-0.15044">
        <ele>31</ele>
        <time>2021-03-24T22:27:42Z</time>
      </trkpt>
      <trkpt lat="47.62898" lon="-0.15049">
        <ele>31</ele>
        <time>2021-03-24T22:27:43Z</time>
      </trkpt>
      <trkpt lat="47.62902" lon="-0.15055">
        <ele>31</ele>
        <time>2021-03-24T22:27:44Z</time>
      </trkpt>
      <trkpt lat="47.62907" lon="-0.1506">
        <ele>31</ele>
        <time>2021-03-24T22:27:45Z</time>
      </trkpt>
      <trkpt lat="47.62912" lon="-0.15065">
        <ele>31</ele>
        <time>2021-03-24T22:27:46Z</time>
      </trkpt>
      <trkpt lat="47.62918" lon="-0.15069">
        <ele>31</ele>
        <time>2021-03-24T22:27:47Z</time>
      </trkpt>
      <trkpt lat="47.62925" lon="-0.15072">
        <ele>31</ele>
        <time>2021-03-24T22:27:48Z</time>
      </trkpt>
      <trkpt lat="47.62942" lon="-0.15075">
        <ele>31</ele>
        <time>2021-03-24T22:27:51Z</time>
      </trkpt>
      <trkpt lat="47.62954" lon="-0.15076">
        <ele>31</ele>
        <time>2021-03-24T22:27:54Z</time>
      </trkpt>
      <trkpt lat="47.62976" lon="-0.15079">
        <ele>32</ele>
        <time>2021-03-24T22:27:57Z</time>
      </trkpt>
      <trkpt lat="47.62981" lon="-0.15079">
        <ele>32</ele>
        <time>2021-03-24T22:27:58Z</time>
      </trkpt>
      <trkpt lat="47.63017" lon="-0.15085">
        <ele>32</ele>
        <time>2021-03-24T22:28:05Z</time>
      </trkpt>
      <trkpt lat="47.63023" lon="-0.15086">
        <ele>32</ele>
        <time>2021-03-24T22:28:06Z</time>
      </trkpt>
      <trkpt lat="47.6304" lon="-0.15088">
        <ele>32</ele>
        <time>2021-03-24T22:28:09Z</time>
      </trkpt>
      <trkpt lat="47.6307" lon="-0.15094">
        <ele>32</ele>
        <time>2021-03-24T22:28:14Z</time>
      </trkpt>
      <trkpt lat="47.63105" lon="-0.15099">
        <ele>33</ele>
        <time>2021-03-24T22:28:21Z</time>
      </trkpt>
      <trkpt lat="47.6314" lon="-0.15105">
        <ele>34</ele>
        <time>2021-03-24T22:28:27Z</time>
      </trkpt>
      <trkpt lat="47.63159" lon="-0.15111">
        <ele>35</ele>
        <time>2021-03-24T22:28:30Z</time>
      </trkpt>
      <trkpt lat="47.63182" lon="-0.15122">
        <ele>35</ele>
        <time>2021-03-24T22:28:35Z</time>
      </trkpt>
      <trkpt lat="47.63201" lon="-0.1513">
        <ele>34</ele>
        <time>2021-03-24T22:28:38Z</time>
      </trkpt>
      <trkpt lat="47.63218" lon="-0.15138">
        <ele>33</ele>
        <time>2021-03-24T22:28:41Z</time>
      </trkpt>
      <trkpt lat="47.63246" lon="-0.15148">
        <ele>32</ele>
        <time>2021-03-24T22:28:46Z</time>
      </trkpt>
      <trkpt lat="47.63259" lon="-0.15153">
        <ele>32</ele>
        <time>2021-03-24T22:28:49Z</time>
      </trkpt>
      <trkpt lat="47.63277" lon="-0.1516">
        <ele>32</ele>
        <time>2021-03-24T22:28:52Z</time>
      </trkpt>
      <trkpt lat="47.63289" lon="-0.15165">
        <ele>32</ele>
        <time>2021-03-24T22:28:54Z</time>
      </trkpt>
      <trkpt lat="47.63308" lon="-0.15176">
        <ele>32</ele>
        <time>2021-03-24T22:28:58Z</time>
      </trkpt>
      <trkpt lat="47.63327" lon="-0.15186">
        <ele>32</ele>
        <time>2021-03-24T22:29:02Z</time>
      </trkpt>
      <trkpt lat="47.63345" lon="-0.15199">
        <ele>32</ele>
        <time>2021-03-24T22:29:05Z</time>
      </trkpt>
      <trkpt lat="47.63354" lon="-0.15206">
        <ele>31</ele>
        <time>2021-03-24T22:29:07Z</time>
      </trkpt>
      <trkpt lat="47.63394" lon="-0.15238">
        <ele>31</ele>
        <time>2021-03-24T22:29:15Z</time>
      </trkpt>
      <trkpt lat="47.63427" lon="-0.15265">
        <ele>32</ele>
        <time>2021-03-24T22:29:22Z</time>
      </trkpt>
      <trkpt lat="47.63471" lon="-0.15303">
        <ele>33</ele>
        <time>2021-03-24T22:29:31Z</time>
      </trkpt>
      <trkpt lat="47.63511" lon="-0.15344">
        <ele>35</ele>
        <time>2021-03-24T22:29:39Z</time>
      </trkpt>
      <trkpt lat="47.63551" lon="-0.15391">
        <ele>34</ele>
        <time>2021-03-24T22:29:48Z</time>
      </trkpt>
      <trkpt lat="47.63552" lon="-0.15392">
        <ele>33</ele>
        <time>2021-03-24T22:29:49Z</time>
      </trkpt>
      <trkpt lat="47.63597" lon="-0.15445">
        <ele>32</ele>
        <time>2021-03-24T22:29:59Z</time>
      </trkpt>
      <trkpt lat="47.63612" lon="-0.15465">
        <ele>31</ele>
        <time>2021-03-24T22:30:03Z</time>
      </trkpt>
      <trkpt lat="47.63673" lon="-0.15532">
        <ele>29</ele>
        <time>2021-03-24T22:30:16Z</time>
      </trkpt>
      <trkpt lat="47.63721" lon="-0.15588">
        <ele>29</ele>
        <time>2021-03-24T22:30:27Z</time>
      </trkpt>
      <trkpt lat="47.63798" lon="-0.15676">
        <ele>29</ele>
        <time>2021-03-24T22:30:44Z</time>
      </trkpt>
      <trkpt lat="47.63831" lon="-0.15715">
        <ele>29</ele>
        <time>2021-03-24T22:30:52Z</time>
      </trkpt>
      <trkpt lat="47.63856" lon="-0.15745">
        <ele>29</ele>
        <time>2021-03-24T22:30:57Z</time>
      </trkpt>
      <trkpt lat="47.63892" lon="-0.15787">
        <ele>29</ele>
        <time>2021-03-24T22:31:06Z</time>
      </trkpt>
      <trkpt lat="47.63958" lon="-0.1586">
        <ele>29</ele>
        <time>2021-03-24T22:31:20Z</time>
      </trkpt>
      <trkpt lat="47.6398" lon="-0.15888">
        <ele>29</ele>
        <time>2021-03-24T22:31:25Z</time>
      </trkpt>
      <trkpt lat="47.63988" lon="-0.159">
        <ele>29</ele>
        <time>2021-03-24T22:31:27Z</time>
      </trkpt>
      <trkpt lat="47.63998" lon="-0.15919">
        <ele>29</ele>
        <time>2021-03-24T22:31:30Z</time>
      </trkpt>
      <trkpt lat="47.64017" lon="-0.15961">
        <ele>29</ele>
        <time>2021-03-24T22:31:36Z</time>
      </trkpt>
      <trkpt lat="47.64052" lon="-0.16039">
        <ele>29</ele>
        <time>2021-03-24T22:31:48Z</time>
      </trkpt>
      <trkpt lat="47.64063" lon="-0.16066">
        <ele>30</ele>
        <time>2021-03-24T22:31:51Z</time>
      </trkpt>
      <trkpt lat="47.64067" lon="-0.16083">
        <ele>30</ele>
        <time>2021-03-24T22:31:53Z</time>
      </trkpt>
      <trkpt lat="47.64074" lon="-0.16114">
        <ele>30</ele>
        <time>2021-03-24T22:31:57Z</time>
      </trkpt>
      <trkpt lat="47.64082" lon="-0.1618">
        <ele>30</ele>
        <time>2021-03-24T22:32:05Z</time>
      </trkpt>
      <trkpt lat="47.64084" lon="-0.16192">
        <ele>31</ele>
        <time>2021-03-24T22:32:07Z</time>
      </trkpt>
      <trkpt lat="47.64091" lon="-0.16253">
        <ele>32</ele>
        <time>2021-03-24T22:32:14Z</time>
      </trkpt>
      <trkpt lat="47.64103" lon="-0.16357">
        <ele>36</ele>
        <time>2021-03-24T22:32:27Z</time>
      </trkpt>
      <trkpt lat="47.64114" lon="-0.1645">
        <ele>40</ele>
        <time>2021-03-24T22:32:38Z</time>
      </trkpt>
      <trkpt lat="47.64126" lon="-0.16544">
        <ele>41</ele>
        <time>2021-03-24T22:32:50Z</time>
      </trkpt>
      <trkpt lat="47.64135" lon="-0.16625">
        <ele>40</ele>
        <time>2021-03-24T22:33:00Z</time>
      </trkpt>
      <trkpt lat="47.64137" lon="-0.16638">
        <ele>40</ele>
        <time>2021-03-24T22:33:01Z</time>
      </trkpt>
      <trkpt lat="47.64146" lon="-0.16707">
        <ele>40</ele>
        <time>2021-03-24T22:33:10Z</time>
      </trkpt>
      <trkpt lat="47.64147" lon="-0.16716">
        <ele>40</ele>
        <time>2021-03-24T22:33:11Z</time>
      </trkpt>
      <trkpt lat="47.64151" lon="-0.16747">
        <ele>41</ele>
        <time>2021-03-24T22:33:15Z</time>
      </trkpt>
      <trkpt lat="47.64156" lon="-0.16789">
        <ele>40</ele>
        <time>2021-03-24T22:33:20Z</time>
      </trkpt>
      <trkpt lat="47.64169" lon="-0.16894">
        <ele>38</ele>
        <time>2021-03-24T22:33:32Z</time>
      </trkpt>
      <trkpt lat="47.64182" lon="-0.17">
        <ele>38</ele>
        <time>2021-03-24T22:33:45Z</time>
      </trkpt>
      <trkpt lat="47.64184" lon="-0.17015">
        <ele>39</ele>
        <time>2021-03-24T22:33:47Z</time>
      </trkpt>
      <trkpt lat="47.64185" lon="-0.17025">
        <ele>39</ele>
        <time>2021-03-24T22:33:48Z</time>
      </trkpt>
      <trkpt lat="47.64186" lon="-0.17036">
        <ele>40</ele>
        <time>2021-03-24T22:33:50Z</time>
      </trkpt>
      <trkpt lat="47.64194" lon="-0.17096">
        <ele>41</ele>
        <time>2021-03-24T22:33:57Z</time>
      </trkpt>
      <trkpt lat="47.64203" lon="-0.17185">
        <ele>38</ele>
        <time>2021-03-24T22:34:08Z</time>
      </trkpt>
      <trkpt lat="47.6421" lon="-0.17251">
        <ele>33</ele>
        <time>2021-03-24T22:34:16Z</time>
      </trkpt>
      <trkpt lat="47.64213" lon="-0.17278">
        <ele>33</ele>
        <time>2021-03-24T22:34:19Z</time>
      </trkpt>
      <trkpt lat="47.64222" lon="-0.17367">
        <ele>30</ele>
        <time>2021-03-24T22:34:30Z</time>
      </trkpt>
      <trkpt lat="47.64223" lon="-0.17374">
        <ele>30</ele>
        <time>2021-03-24T22:34:31Z</time>
      </trkpt>
      <trkpt lat="47.64225" lon="-0.17381">
        <ele>30</ele>
        <time>2021-03-24T22:34:32Z</time>
      </trkpt>
      <trkpt lat="47.64227" lon="-0.17388">
        <ele>30</ele>
        <time>2021-03-24T22:34:33Z</time>
      </trkpt>
      <trkpt lat="47.64232" lon="-0.17408">
        <ele>29</ele>
        <time>2021-03-24T22:34:35Z</time>
      </trkpt>
      <trkpt lat="47.64246" lon="-0.17461">
        <ele>29</ele>
        <time>2021-03-24T22:34:42Z</time>
      </trkpt>
      <trkpt lat="47.64271" lon="-0.17551">
        <ele>29</ele>
        <time>2021-03-24T22:34:54Z</time>
      </trkpt>
      <trkpt lat="47.64293" lon="-0.17625">
        <ele>30</ele>
        <time>2021-03-24T22:35:03Z</time>
      </trkpt>
      <trkpt lat="47.64293" lon="-0.17625">
        <ele>30</ele>
        <time>2021-03-24T22:35:03Z</time>
      </trkpt>
      <trkpt lat="47.64275" lon="-0.17628">
        <ele>30</ele>
        <time>2021-03-24T22:35:07Z</time>
      </trkpt>
      <trkpt lat="47.64259" lon="-0.17626">
        <ele>30</ele>
        <time>2021-03-24T22:35:09Z</time>
      </trkpt>
      <trkpt lat="47.64243" lon="-0.17625">
        <ele>31</ele>
        <time>2021-03-24T22:35:12Z</time>
      </trkpt>
      <trkpt lat="47.64233" lon="-0.17625">
        <ele>31</ele>
        <time>2021-03-24T22:35:14Z</time>
      </trkpt>
      <trkpt lat="47.64231" lon="-0.17625">
        <ele>31</ele>
        <time>2021-03-24T22:35:14Z</time>
      </trkpt>
      <trkpt lat="47.64229" lon="-0.17627">
        <ele>31</ele>
        <time>2021-03-24T22:35:15Z</time>
      </trkpt>
      <trkpt lat="47.64227" lon="-0.17628">
        <ele>31</ele>
        <time>2021-03-24T22:35:15Z</time>
      </trkpt>
      <trkpt lat="47.64225" lon="-0.17631">
        <ele>31</ele>
        <time>2021-03-24T22:35:16Z</time>
      </trkpt>
      <trkpt lat="47.64218" lon="-0.17639">
        <ele>31</ele>
        <time>2021-03-24T22:35:17Z</time>
      </trkpt>
      <trkpt lat="47.64214" lon="-0.17644">
        <ele>31</ele>
        <time>2021-03-24T22:35:18Z</time>
      </trkpt>
      <trkpt lat="47.64211" lon="-0.17651">
        <ele>31</ele>
        <time>2021-03-24T22:35:19Z</time>
      </trkpt>
      <trkpt lat="47.64207" lon="-0.17659">
        <ele>31</ele>
        <time>2021-03-24T22:35:20Z</time>
      </trkpt>
      <trkpt lat="47.64207" lon="-0.17659">
        <ele>31</ele>
        <time>2021-03-24T22:35:20Z</time>
      </trkpt>
      <trkpt lat="47.64211" lon="-0.17651">
        <ele>31</ele>
        <time>2021-03-24T22:35:22Z</time>
      </trkpt>
      <trkpt lat="47.64214" lon="-0.17644">
        <ele>31</ele>
        <time>2021-03-24T22:35:23Z</time>
      </trkpt>
      <trkpt lat="47.64218" lon="-0.17639">
        <ele>31</ele>
        <time>2021-03-24T22:35:24Z</time>
      </trkpt>
      <trkpt lat="47.64225" lon="-0.17631">
        <ele>31</ele>
        <time>2021-03-24T22:35:25Z</time>
      </trkpt>
      <trkpt lat="47.64227" lon="-0.17628">
        <ele>31</ele>
        <time>2021-03-24T22:35:26Z</time>
      </trkpt>
      <trkpt lat="47.64229" lon="-0.17627">
        <ele>31</ele>
        <time>2021-03-24T22:35:26Z</time>
      </trkpt>
      <trkpt lat="47.64231" lon="-0.17625">
        <ele>31</ele>
        <time>2021-03-24T22:35:26Z</time>
      </trkpt>
      <trkpt lat="47.64233" lon="-0.17625">
        <ele>31</ele>
        <time>2021-03-24T22:35:27Z</time>
      </trkpt>
      <trkpt lat="47.64243" lon="-0.17625">
        <ele>31</ele>
        <time>2021-03-24T22:35:29Z</time>
      </trkpt>
      <trkpt lat="47.64259" lon="-0.17626">
        <ele>30</ele>
        <time>2021-03-24T22:35:31Z</time>
      </trkpt>
      <trkpt lat="47.64275" lon="-0.17628">
        <ele>30</ele>
        <time>2021-03-24T22:35:34Z</time>
      </trkpt>
      <trkpt lat="47.64293" lon="-0.17625">
        <ele>30</ele>
        <time>2021-03-24T22:35:37Z</time>
      </trkpt>
      <trkpt lat="47.64293" lon="-0.17625">
        <ele>30</ele>
        <time>2021-03-24T22:35:37Z</time>
      </trkpt>
      <trkpt lat="47.64304" lon="-0.17667">
        <ele>30</ele>
        <time>2021-03-24T22:35:43Z</time>
      </trkpt>
      <trkpt lat="47.64326" lon="-0.17744">
        <ele>32</ele>
        <time>2021-03-24T22:35:53Z</time>
      </trkpt>
      <trkpt lat="47.64347" lon="-0.17819">
        <ele>34</ele>
        <time>2021-03-24T22:36:03Z</time>
      </trkpt>
      <trkpt lat="47.64359" lon="-0.17863">
        <ele>34</ele>
        <time>2021-03-24T22:36:08Z</time>
      </trkpt>
      <trkpt lat="47.64362" lon="-0.17872">
        <ele>33</ele>
        <time>2021-03-24T22:36:10Z</time>
      </trkpt>
      <trkpt lat="47.64371" lon="-0.17905">
        <ele>32</ele>
        <time>2021-03-24T22:36:14Z</time>
      </trkpt>
      <trkpt lat="47.64376" lon="-0.1792">
        <ele>31</ele>
        <time>2021-03-24T22:36:16Z</time>
      </trkpt>
      <trkpt lat="47.64396" lon="-0.17989">
        <ele>31</ele>
        <time>2021-03-24T22:36:25Z</time>
      </trkpt>
      <trkpt lat="47.64425" lon="-0.1809">
        <ele>31</ele>
        <time>2021-03-24T22:36:38Z</time>
      </trkpt>
      <trkpt lat="47.64439" lon="-0.18141">
        <ele>32</ele>
        <time>2021-03-24T22:36:45Z</time>
      </trkpt>
      <trkpt lat="47.64467" lon="-0.18242">
        <ele>31</ele>
        <time>2021-03-24T22:36:58Z</time>
      </trkpt>
      <trkpt lat="47.64501" lon="-0.18359">
        <ele>29</ele>
        <time>2021-03-24T22:37:13Z</time>
      </trkpt>
      <trkpt lat="47.64513" lon="-0.18399">
        <ele>29</ele>
        <time>2021-03-24T22:37:18Z</time>
      </trkpt>
      <trkpt lat="47.64528" lon="-0.18451">
        <ele>28</ele>
        <time>2021-03-24T22:37:25Z</time>
      </trkpt>
      <trkpt lat="47.64544" lon="-0.18512">
        <ele>29</ele>
        <time>2021-03-24T22:37:33Z</time>
      </trkpt>
      <trkpt lat="47.64562" lon="-0.18574">
        <ele>32</ele>
        <time>2021-03-24T22:37:41Z</time>
      </trkpt>
      <trkpt lat="47.6458" lon="-0.18632">
        <ele>33</ele>
        <time>2021-03-24T22:37:49Z</time>
      </trkpt>
      <trkpt lat="47.64602" lon="-0.18702">
        <ele>34</ele>
        <time>2021-03-24T22:37:58Z</time>
      </trkpt>
      <trkpt lat="47.64629" lon="-0.18792">
        <ele>36</ele>
        <time>2021-03-24T22:38:10Z</time>
      </trkpt>
      <trkpt lat="47.64656" lon="-0.18878">
        <ele>37</ele>
        <time>2021-03-24T22:38:21Z</time>
      </trkpt>
      <trkpt lat="47.64657" lon="-0.18881">
        <ele>37</ele>
        <time>2021-03-24T22:38:21Z</time>
      </trkpt>
      <trkpt lat="47.64674" lon="-0.18933">
        <ele>37</ele>
        <time>2021-03-24T22:38:28Z</time>
      </trkpt>
      <trkpt lat="47.64694" lon="-0.18995">
        <ele>35</ele>
        <time>2021-03-24T22:38:37Z</time>
      </trkpt>
      <trkpt lat="47.6471" lon="-0.19045">
        <ele>35</ele>
        <time>2021-03-24T22:38:43Z</time>
      </trkpt>
      <trkpt lat="47.64724" lon="-0.19093">
        <ele>34</ele>
        <time>2021-03-24T22:38:50Z</time>
      </trkpt>
      <trkpt lat="47.64746" lon="-0.1916">
        <ele>33</ele>
        <time>2021-03-24T22:38:58Z</time>
      </trkpt>
      <trkpt lat="47.64774" lon="-0.19248">
        <ele>33</ele>
        <time>2021-03-24T22:39:10Z</time>
      </trkpt>
      <trkpt lat="47.64791" lon="-0.19297">
        <ele>31</ele>
        <time>2021-03-24T22:39:17Z</time>
      </trkpt>
      <trkpt lat="47.64794" lon="-0.19305">
        <ele>30</ele>
        <time>2021-03-24T22:39:18Z</time>
      </trkpt>
      <trkpt lat="47.648" lon="-0.19318">
        <ele>30</ele>
        <time>2021-03-24T22:39:20Z</time>
      </trkpt>
      <trkpt lat="47.64819" lon="-0.19369">
        <ele>30</ele>
        <time>2021-03-24T22:39:27Z</time>
      </trkpt>
      <trkpt lat="47.64839" lon="-0.19433">
        <ele>33</ele>
        <time>2021-03-24T22:39:35Z</time>
      </trkpt>
      <trkpt lat="47.64859" lon="-0.19509">
        <ele>37</ele>
        <time>2021-03-24T22:39:45Z</time>
      </trkpt>
      <trkpt lat="47.64873" lon="-0.19567">
        <ele>39</ele>
        <time>2021-03-24T22:39:52Z</time>
      </trkpt>
      <trkpt lat="47.64891" lon="-0.19637">
        <ele>38</ele>
        <time>2021-03-24T22:40:01Z</time>
      </trkpt>
      <trkpt lat="47.64899" lon="-0.19664">
        <ele>37</ele>
        <time>2021-03-24T22:40:05Z</time>
      </trkpt>
      <trkpt lat="47.64901" lon="-0.1967">
        <ele>36</ele>
        <time>2021-03-24T22:40:06Z</time>
      </trkpt>
      <trkpt lat="47.64904" lon="-0.19678">
        <ele>36</ele>
        <time>2021-03-24T22:40:07Z</time>
      </trkpt>
      <trkpt lat="47.64915" lon="-0.197">
        <ele>36</ele>
        <time>2021-03-24T22:40:10Z</time>
      </trkpt>
      <trkpt lat="47.6494" lon="-0.19737">
        <ele>36</ele>
        <time>2021-03-24T22:40:16Z</time>
      </trkpt>
      <trkpt lat="47.64955" lon="-0.19762">
        <ele>35</ele>
        <time>2021-03-24T22:40:20Z</time>
      </trkpt>
      <trkpt lat="47.64964" lon="-0.19776">
        <ele>35</ele>
        <time>2021-03-24T22:40:23Z</time>
      </trkpt>
      <trkpt lat="47.64983" lon="-0.19808">
        <ele>36</ele>
        <time>2021-03-24T22:40:28Z</time>
      </trkpt>
      <trkpt lat="47.64994" lon="-0.19835">
        <ele>36</ele>
        <time>2021-03-24T22:40:32Z</time>
      </trkpt>
      <trkpt lat="47.65002" lon="-0.19864">
        <ele>35</ele>
        <time>2021-03-24T22:40:35Z</time>
      </trkpt>
      <trkpt lat="47.65008" lon="-0.199">
        <ele>34</ele>
        <time>2021-03-24T22:40:40Z</time>
      </trkpt>
      <trkpt lat="47.6501" lon="-0.19906">
        <ele>34</ele>
        <time>2021-03-24T22:40:41Z</time>
      </trkpt>
      <trkpt lat="47.65015" lon="-0.1994">
        <ele>33</ele>
        <time>2021-03-24T22:40:45Z</time>
      </trkpt>
      <trkpt lat="47.6502" lon="-0.19992">
        <ele>31</ele>
        <time>2021-03-24T22:40:51Z</time>
      </trkpt>
      <trkpt lat="47.65023" lon="-0.20031">
        <ele>31</ele>
        <time>2021-03-24T22:40:56Z</time>
      </trkpt>
      <trkpt lat="47.65029" lon="-0.20062">
        <ele>30</ele>
        <time>2021-03-24T22:41:00Z</time>
      </trkpt>
      <trkpt lat="47.65036" lon="-0.20095">
        <ele>30</ele>
        <time>2021-03-24T22:41:04Z</time>
      </trkpt>
      <trkpt lat="47.65043" lon="-0.20129">
        <ele>31</ele>
        <time>2021-03-24T22:41:08Z</time>
      </trkpt>
      <trkpt lat="47.65058" lon="-0.20197">
        <ele>31</ele>
        <time>2021-03-24T22:41:17Z</time>
      </trkpt>
      <trkpt lat="47.65065" lon="-0.20218">
        <ele>31</ele>
        <time>2021-03-24T22:41:19Z</time>
      </trkpt>
      <trkpt lat="47.65079" lon="-0.20249">
        <ele>31</ele>
        <time>2021-03-24T22:41:24Z</time>
      </trkpt>
      <trkpt lat="47.65095" lon="-0.20283">
        <ele>32</ele>
        <time>2021-03-24T22:41:29Z</time>
      </trkpt>
      <trkpt lat="47.65101" lon="-0.20299">
        <ele>32</ele>
        <time>2021-03-24T22:41:31Z</time>
      </trkpt>
      <trkpt lat="47.65107" lon="-0.20325">
        <ele>33</ele>
        <time>2021-03-24T22:41:34Z</time>
      </trkpt>
      <trkpt lat="47.6511" lon="-0.20344">
        <ele>33</ele>
        <time>2021-03-24T22:41:37Z</time>
      </trkpt>
      <trkpt lat="47.65112" lon="-0.20382">
        <ele>34</ele>
        <time>2021-03-24T22:41:41Z</time>
      </trkpt>
      <trkpt lat="47.65112" lon="-0.20462">
        <ele>36</ele>
        <time>2021-03-24T22:41:51Z</time>
      </trkpt>
      <trkpt lat="47.65113" lon="-0.20465">
        <ele>36</ele>
        <time>2021-03-24T22:41:51Z</time>
      </trkpt>
      <trkpt lat="47.65112" lon="-0.20513">
        <ele>36</ele>
        <time>2021-03-24T22:41:57Z</time>
      </trkpt>
      <trkpt lat="47.6511" lon="-0.20543">
        <ele>37</ele>
        <time>2021-03-24T22:42:01Z</time>
      </trkpt>
      <trkpt lat="47.65111" lon="-0.20549">
        <ele>37</ele>
        <time>2021-03-24T22:42:01Z</time>
      </trkpt>
      <trkpt lat="47.65111" lon="-0.20554">
        <ele>37</ele>
        <time>2021-03-24T22:42:02Z</time>
      </trkpt>
      <trkpt lat="47.65113" lon="-0.20559">
        <ele>37</ele>
        <time>2021-03-24T22:42:03Z</time>
      </trkpt>
      <trkpt lat="47.65114" lon="-0.20563">
        <ele>37</ele>
        <time>2021-03-24T22:42:03Z</time>
      </trkpt>
      <trkpt lat="47.65116" lon="-0.20568">
        <ele>37</ele>
        <time>2021-03-24T22:42:04Z</time>
      </trkpt>
      <trkpt lat="47.65121" lon="-0.20577">
        <ele>37</ele>
        <time>2021-03-24T22:42:05Z</time>
      </trkpt>
      <trkpt lat="47.65134" lon="-0.20599">
        <ele>38</ele>
        <time>2021-03-24T22:42:09Z</time>
      </trkpt>
      <trkpt lat="47.65141" lon="-0.20612">
        <ele>38</ele>
        <time>2021-03-24T22:42:11Z</time>
      </trkpt>
      <trkpt lat="47.65155" lon="-0.20635">
        <ele>38</ele>
        <time>2021-03-24T22:42:14Z</time>
      </trkpt>
      <trkpt lat="47.65169" lon="-0.20656">
        <ele>38</ele>
        <time>2021-03-24T22:42:18Z</time>
      </trkpt>
      <trkpt lat="47.65184" lon="-0.20674">
        <ele>37</ele>
        <time>2021-03-24T22:42:21Z</time>
      </trkpt>
      <trkpt lat="47.65196" lon="-0.20687">
        <ele>37</ele>
        <time>2021-03-24T22:42:24Z</time>
      </trkpt>
      <trkpt lat="47.65204" lon="-0.20698">
        <ele>36</ele>
        <time>2021-03-24T22:42:26Z</time>
      </trkpt>
      <trkpt lat="47.6521" lon="-0.20707">
        <ele>36</ele>
        <time>2021-03-24T22:42:27Z</time>
      </trkpt>
      <trkpt lat="47.65216" lon="-0.20717">
        <ele>36</ele>
        <time>2021-03-24T22:42:29Z</time>
      </trkpt>
      <trkpt lat="47.65221" lon="-0.20729">
        <ele>35</ele>
        <time>2021-03-24T22:42:31Z</time>
      </trkpt>
      <trkpt lat="47.6523" lon="-0.20752">
        <ele>34</ele>
        <time>2021-03-24T22:42:34Z</time>
      </trkpt>
      <trkpt lat="47.6526" lon="-0.20821">
        <ele>34</ele>
        <time>2021-03-24T22:42:44Z</time>
      </trkpt>
      <trkpt lat="47.65262" lon="-0.20829">
        <ele>34</ele>
        <time>2021-03-24T22:42:45Z</time>
      </trkpt>
      <trkpt lat="47.65263" lon="-0.20832">
        <ele>34</ele>
        <time>2021-03-24T22:42:45Z</time>
      </trkpt>
      <trkpt lat="47.65264" lon="-0.20836">
        <ele>34</ele>
        <time>2021-03-24T22:42:46Z</time>
      </trkpt>
      <trkpt lat="47.65265" lon="-0.20841">
        <ele>34</ele>
        <time>2021-03-24T22:42:46Z</time>
      </trkpt>
      <trkpt lat="47.65266" lon="-0.20845">
        <ele>34</ele>
        <time>2021-03-24T22:42:47Z</time>
      </trkpt>
      <trkpt lat="47.65266" lon="-0.20857">
        <ele>34</ele>
        <time>2021-03-24T22:42:48Z</time>
      </trkpt>
      <trkpt lat="47.65263" lon="-0.20874">
        <ele>34</ele>
        <time>2021-03-24T22:42:50Z</time>
      </trkpt>
      <trkpt lat="47.65255" lon="-0.20902">
        <ele>35</ele>
        <time>2021-03-24T22:42:54Z</time>
      </trkpt>
      <trkpt lat="47.65254" lon="-0.20906">
        <ele>35</ele>
        <time>2021-03-24T22:42:55Z</time>
      </trkpt>
      <trkpt lat="47.65252" lon="-0.20912">
        <ele>35</ele>
        <time>2021-03-24T22:42:55Z</time>
      </trkpt>
      <trkpt lat="47.65251" lon="-0.20915">
        <ele>35</ele>
        <time>2021-03-24T22:42:56Z</time>
      </trkpt>
      <trkpt lat="47.65251" lon="-0.20919">
        <ele>35</ele>
        <time>2021-03-24T22:42:56Z</time>
      </trkpt>
      <trkpt lat="47.6525" lon="-0.20922">
        <ele>35</ele>
        <time>2021-03-24T22:42:57Z</time>
      </trkpt>
      <trkpt lat="47.6525" lon="-0.20926">
        <ele>35</ele>
        <time>2021-03-24T22:42:57Z</time>
      </trkpt>
      <trkpt lat="47.6525" lon="-0.2093">
        <ele>35</ele>
        <time>2021-03-24T22:42:58Z</time>
      </trkpt>
      <trkpt lat="47.6525" lon="-0.20936">
        <ele>35</ele>
        <time>2021-03-24T22:42:58Z</time>
      </trkpt>
      <trkpt lat="47.65251" lon="-0.20943">
        <ele>35</ele>
        <time>2021-03-24T22:42:59Z</time>
      </trkpt>
      <trkpt lat="47.65252" lon="-0.20947">
        <ele>35</ele>
        <time>2021-03-24T22:43:00Z</time>
      </trkpt>
      <trkpt lat="47.65253" lon="-0.20953">
        <ele>35</ele>
        <time>2021-03-24T22:43:00Z</time>
      </trkpt>
      <trkpt lat="47.65253" lon="-0.20955">
        <ele>35</ele>
        <time>2021-03-24T22:43:01Z</time>
      </trkpt>
      <trkpt lat="47.65254" lon="-0.20958">
        <ele>35</ele>
        <time>2021-03-24T22:43:01Z</time>
      </trkpt>
      <trkpt lat="47.65271" lon="-0.21007">
        <ele>34</ele>
        <time>2021-03-24T22:43:08Z</time>
      </trkpt>
      <trkpt lat="47.65277" lon="-0.21027">
        <ele>34</ele>
        <time>2021-03-24T22:43:10Z</time>
      </trkpt>
      <trkpt lat="47.65298" lon="-0.21126">
        <ele>34</ele>
        <time>2021-03-24T22:43:23Z</time>
      </trkpt>
      <trkpt lat="47.6531" lon="-0.21182">
        <ele>34</ele>
        <time>2021-03-24T22:43:30Z</time>
      </trkpt>
      <trkpt lat="47.65318" lon="-0.21218">
        <ele>34</ele>
        <time>2021-03-24T22:43:34Z</time>
      </trkpt>
      <trkpt lat="47.65324" lon="-0.2124">
        <ele>33</ele>
        <time>2021-03-24T22:43:37Z</time>
      </trkpt>
      <trkpt lat="47.65329" lon="-0.21259">
        <ele>33</ele>
        <time>2021-03-24T22:43:40Z</time>
      </trkpt>
      <trkpt lat="47.65353" lon="-0.21316">
        <ele>33</ele>
        <time>2021-03-24T22:43:48Z</time>
      </trkpt>
      <trkpt lat="47.6538" lon="-0.21369">
        <ele>32</ele>
        <time>2021-03-24T22:43:56Z</time>
      </trkpt>
      <trkpt lat="47.65413" lon="-0.21429">
        <ele>33</ele>
        <time>2021-03-24T22:44:05Z</time>
      </trkpt>
      <trkpt lat="47.65435" lon="-0.21468">
        <ele>33</ele>
        <time>2021-03-24T22:44:11Z</time>
      </trkpt>
      <trkpt lat="47.65453" lon="-0.21504">
        <ele>33</ele>
        <time>2021-03-24T22:44:16Z</time>
      </trkpt>
      <trkpt lat="47.65457" lon="-0.21517">
        <ele>33</ele>
        <time>2021-03-24T22:44:18Z</time>
      </trkpt>
      <trkpt lat="47.65461" lon="-0.2153">
        <ele>33</ele>
        <time>2021-03-24T22:44:20Z</time>
      </trkpt>
      <trkpt lat="47.65463" lon="-0.21554">
        <ele>33</ele>
        <time>2021-03-24T22:44:23Z</time>
      </trkpt>
      <trkpt lat="47.65462" lon="-0.21589">
        <ele>33</ele>
        <time>2021-03-24T22:44:27Z</time>
      </trkpt>
      <trkpt lat="47.65461" lon="-0.21613">
        <ele>33</ele>
        <time>2021-03-24T22:44:30Z</time>
      </trkpt>
      <trkpt lat="47.65458" lon="-0.21656">
        <ele>33</ele>
        <time>2021-03-24T22:44:35Z</time>
      </trkpt>
      <trkpt lat="47.65456" lon="-0.21705">
        <ele>33</ele>
        <time>2021-03-24T22:44:41Z</time>
      </trkpt>
      <trkpt lat="47.65455" lon="-0.21721">
        <ele>32</ele>
        <time>2021-03-24T22:44:43Z</time>
      </trkpt>
      <trkpt lat="47.65455" lon="-0.21741">
        <ele>32</ele>
        <time>2021-03-24T22:44:45Z</time>
      </trkpt>
      <trkpt lat="47.65456" lon="-0.21752">
        <ele>32</ele>
        <time>2021-03-24T22:44:47Z</time>
      </trkpt>
      <trkpt lat="47.65457" lon="-0.21763">
        <ele>32</ele>
        <time>2021-03-24T22:44:48Z</time>
      </trkpt>
      <trkpt lat="47.6546" lon="-0.21786">
        <ele>32</ele>
        <time>2021-03-24T22:44:51Z</time>
      </trkpt>
      <trkpt lat="47.65466" lon="-0.21802">
        <ele>33</ele>
        <time>2021-03-24T22:44:53Z</time>
      </trkpt>
      <trkpt lat="47.65472" lon="-0.21813">
        <ele>33</ele>
        <time>2021-03-24T22:44:55Z</time>
      </trkpt>
      <trkpt lat="47.65479" lon="-0.21826">
        <ele>33</ele>
        <time>2021-03-24T22:44:57Z</time>
      </trkpt>
      <trkpt lat="47.65489" lon="-0.21841">
        <ele>34</ele>
        <time>2021-03-24T22:44:59Z</time>
      </trkpt>
      <trkpt lat="47.65511" lon="-0.21874">
        <ele>34</ele>
        <time>2021-03-24T22:45:05Z</time>
      </trkpt>
      <trkpt lat="47.65532" lon="-0.2191">
        <ele>34</ele>
        <time>2021-03-24T22:45:10Z</time>
      </trkpt>
      <trkpt lat="47.65547" lon="-0.21938">
        <ele>35</ele>
        <time>2021-03-24T22:45:15Z</time>
      </trkpt>
      <trkpt lat="47.65563" lon="-0.21973">
        <ele>35</ele>
        <time>2021-03-24T22:45:20Z</time>
      </trkpt>
      <trkpt lat="47.6559" lon="-0.22042">
        <ele>37</ele>
        <time>2021-03-24T22:45:29Z</time>
      </trkpt>
      <trkpt lat="47.65605" lon="-0.22084">
        <ele>39</ele>
        <time>2021-03-24T22:45:35Z</time>
      </trkpt>
      <trkpt lat="47.65621" lon="-0.22131">
        <ele>39</ele>
        <time>2021-03-24T22:45:41Z</time>
      </trkpt>
      <trkpt lat="47.65648" lon="-0.2222">
        <ele>37</ele>
        <time>2021-03-24T22:45:53Z</time>
      </trkpt>
      <trkpt lat="47.65694" lon="-0.22379">
        <ele>39</ele>
        <time>2021-03-24T22:46:14Z</time>
      </trkpt>
      <trkpt lat="47.6573" lon="-0.22509">
        <ele>37</ele>
        <time>2021-03-24T22:46:31Z</time>
      </trkpt>
      <trkpt lat="47.65734" lon="-0.22528">
        <ele>37</ele>
        <time>2021-03-24T22:46:33Z</time>
      </trkpt>
      <trkpt lat="47.65738" lon="-0.22549">
        <ele>37</ele>
        <time>2021-03-24T22:46:36Z</time>
      </trkpt>
      <trkpt lat="47.65742" lon="-0.22586">
        <ele>37</ele>
        <time>2021-03-24T22:46:40Z</time>
      </trkpt>
      <trkpt lat="47.65743" lon="-0.22614">
        <ele>37</ele>
        <time>2021-03-24T22:46:43Z</time>
      </trkpt>
      <trkpt lat="47.65743" lon="-0.22642">
        <ele>37</ele>
        <time>2021-03-24T22:46:47Z</time>
      </trkpt>
      <trkpt lat="47.6574" lon="-0.2268">
        <ele>37</ele>
        <time>2021-03-24T22:46:51Z</time>
      </trkpt>
      <trkpt lat="47.65736" lon="-0.22705">
        <ele>37</ele>
        <time>2021-03-24T22:46:54Z</time>
      </trkpt>
      <trkpt lat="47.65732" lon="-0.22722">
        <ele>37</ele>
        <time>2021-03-24T22:46:57Z</time>
      </trkpt>
      <trkpt lat="47.65718" lon="-0.22767">
        <ele>36</ele>
        <time>2021-03-24T22:47:03Z</time>
      </trkpt>
      <trkpt lat="47.65695" lon="-0.22833">
        <ele>34</ele>
        <time>2021-03-24T22:47:11Z</time>
      </trkpt>
      <trkpt lat="47.65686" lon="-0.22859">
        <ele>34</ele>
        <time>2021-03-24T22:47:15Z</time>
      </trkpt>
      <trkpt lat="47.65669" lon="-0.22908">
        <ele>32</ele>
        <time>2021-03-24T22:47:22Z</time>
      </trkpt>
      <trkpt lat="47.6561" lon="-0.23074">
        <ele>33</ele>
        <time>2021-03-24T22:47:44Z</time>
      </trkpt>
      <trkpt lat="47.65582" lon="-0.23154">
        <ele>33</ele>
        <time>2021-03-24T22:47:55Z</time>
      </trkpt>
      <trkpt lat="47.65575" lon="-0.23174">
        <ele>33</ele>
        <time>2021-03-24T22:47:58Z</time>
      </trkpt>
      <trkpt lat="47.65575" lon="-0.23174">
        <ele>33</ele>
        <time>2021-03-24T22:47:58Z</time>
      </trkpt>
      <trkpt lat="47.65608" lon="-0.23232">
        <ele>33</ele>
        <time>2021-03-24T22:48:07Z</time>
      </trkpt>
      <trkpt lat="47.65644" lon="-0.23296">
        <ele>32</ele>
        <time>2021-03-24T22:48:17Z</time>
      </trkpt>
      <trkpt lat="47.65652" lon="-0.23309">
        <ele>33</ele>
        <time>2021-03-24T22:48:19Z</time>
      </trkpt>
      <trkpt lat="47.65669" lon="-0.23335">
        <ele>33</ele>
        <time>2021-03-24T22:48:23Z</time>
      </trkpt>
      <trkpt lat="47.65683" lon="-0.23352">
        <ele>32</ele>
        <time>2021-03-24T22:48:26Z</time>
      </trkpt>
      <trkpt lat="47.6569" lon="-0.2336">
        <ele>32</ele>
        <time>2021-03-24T22:48:28Z</time>
      </trkpt>
      <trkpt lat="47.65706" lon="-0.23378">
        <ele>32</ele>
        <time>2021-03-24T22:48:31Z</time>
      </trkpt>
      <trkpt lat="47.65749" lon="-0.23426">
        <ele>32</ele>
        <time>2021-03-24T22:48:41Z</time>
      </trkpt>
      <trkpt lat="47.65765" lon="-0.23444">
        <ele>33</ele>
        <time>2021-03-24T22:48:45Z</time>
      </trkpt>
      <trkpt lat="47.65805" lon="-0.23487">
        <ele>33</ele>
        <time>2021-03-24T22:48:53Z</time>
      </trkpt>
      <trkpt lat="47.65819" lon="-0.23498">
        <ele>32</ele>
        <time>2021-03-24T22:48:56Z</time>
      </trkpt>
      <trkpt lat="47.65835" lon="-0.23517">
        <ele>32</ele>
        <time>2021-03-24T22:49:00Z</time>
      </trkpt>
      <trkpt lat="47.6589" lon="-0.23569">
        <ele>31</ele>
        <time>2021-03-24T22:49:11Z</time>
      </trkpt>
      <trkpt lat="47.65905" lon="-0.23584">
        <ele>31</ele>
        <time>2021-03-24T22:49:15Z</time>
      </trkpt>
      <trkpt lat="47.65985" lon="-0.23666">
        <ele>32</ele>
        <time>2021-03-24T22:49:32Z</time>
      </trkpt>
      <trkpt lat="47.66017" lon="-0.23699">
        <ele>32</ele>
        <time>2021-03-24T22:49:39Z</time>
      </trkpt>
      <trkpt lat="47.66028" lon="-0.23711">
        <ele>32</ele>
        <time>2021-03-24T22:49:41Z</time>
      </trkpt>
      <trkpt lat="47.66145" lon="-0.23832">
        <ele>32</ele>
        <time>2021-03-24T22:50:07Z</time>
      </trkpt>
      <trkpt lat="47.66185" lon="-0.23874">
        <ele>33</ele>
        <time>2021-03-24T22:50:15Z</time>
      </trkpt>
      <trkpt lat="47.66194" lon="-0.23881">
        <ele>33</ele>
        <time>2021-03-24T22:50:17Z</time>
      </trkpt>
      <trkpt lat="47.66235" lon="-0.23924">
        <ele>34</ele>
        <time>2021-03-24T22:50:26Z</time>
      </trkpt>
      <trkpt lat="47.66256" lon="-0.23946">
        <ele>34</ele>
        <time>2021-03-24T22:50:31Z</time>
      </trkpt>
      <trkpt lat="47.66265" lon="-0.23956">
        <ele>34</ele>
        <time>2021-03-24T22:50:33Z</time>
      </trkpt>
      <trkpt lat="47.66276" lon="-0.23966">
        <ele>34</ele>
        <time>2021-03-24T22:50:35Z</time>
      </trkpt>
      <trkpt lat="47.66284" lon="-0.23979">
        <ele>33</ele>
        <time>2021-03-24T22:50:37Z</time>
      </trkpt>
      <trkpt lat="47.66327" lon="-0.24022">
        <ele>32</ele>
        <time>2021-03-24T22:50:46Z</time>
      </trkpt>
      <trkpt lat="47.66361" lon="-0.24057">
        <ele>32</ele>
        <time>2021-03-24T22:50:54Z</time>
      </trkpt>
      <trkpt lat="47.66403" lon="-0.241">
        <ele>33</ele>
        <time>2021-03-24T22:51:03Z</time>
      </trkpt>
      <trkpt lat="47.66444" lon="-0.24142">
        <ele>31</ele>
        <time>2021-03-24T22:51:12Z</time>
      </trkpt>
      <trkpt lat="47.66463" lon="-0.24163">
        <ele>30</ele>
        <time>2021-03-24T22:51:16Z</time>
      </trkpt>
      <trkpt lat="47.66469" lon="-0.24168">
        <ele>30</ele>
        <time>2021-03-24T22:51:17Z</time>
      </trkpt>
      <trkpt lat="47.66494" lon="-0.24195">
        <ele>29</ele>
        <time>2021-03-24T22:51:23Z</time>
      </trkpt>
      <trkpt lat="47.66506" lon="-0.24206">
        <ele>29</ele>
        <time>2021-03-24T22:51:25Z</time>
      </trkpt>
      <trkpt lat="47.66522" lon="-0.24224">
        <ele>29</ele>
        <time>2021-03-24T22:51:29Z</time>
      </trkpt>
      <trkpt lat="47.66534" lon="-0.24245">
        <ele>29</ele>
        <time>2021-03-24T22:51:32Z</time>
      </trkpt>
      <trkpt lat="47.66534" lon="-0.24245">
        <ele>29</ele>
        <time>2021-03-24T22:51:32Z</time>
      </trkpt>
      <trkpt lat="47.66535" lon="-0.24245">
        <ele>29</ele>
        <time>2021-03-24T22:51:32Z</time>
      </trkpt>
      <trkpt lat="47.66536" lon="-0.24245">
        <ele>29</ele>
        <time>2021-03-24T22:51:32Z</time>
      </trkpt>
      <trkpt lat="47.66537" lon="-0.24245">
        <ele>29</ele>
        <time>2021-03-24T22:51:33Z</time>
      </trkpt>
      <trkpt lat="47.66538" lon="-0.24245">
        <ele>29</ele>
        <time>2021-03-24T22:51:33Z</time>
      </trkpt>
      <trkpt lat="47.66539" lon="-0.24245">
        <ele>29</ele>
        <time>2021-03-24T22:51:33Z</time>
      </trkpt>
      <trkpt lat="47.66539" lon="-0.24246">
        <ele>29</ele>
        <time>2021-03-24T22:51:33Z</time>
      </trkpt>
      <trkpt lat="47.6654" lon="-0.24246">
        <ele>29</ele>
        <time>2021-03-24T22:51:33Z</time>
      </trkpt>
      <trkpt lat="47.66541" lon="-0.24247">
        <ele>29</ele>
        <time>2021-03-24T22:51:33Z</time>
      </trkpt>
      <trkpt lat="47.66542" lon="-0.24248">
        <ele>29</ele>
        <time>2021-03-24T22:51:34Z</time>
      </trkpt>
      <trkpt lat="47.66543" lon="-0.24249">
        <ele>28</ele>
        <time>2021-03-24T22:51:34Z</time>
      </trkpt>
      <trkpt lat="47.66543" lon="-0.2425">
        <ele>28</ele>
        <time>2021-03-24T22:51:34Z</time>
      </trkpt>
      <trkpt lat="47.66544" lon="-0.24251">
        <ele>28</ele>
        <time>2021-03-24T22:51:34Z</time>
      </trkpt>
      <trkpt lat="47.66544" lon="-0.24252">
        <ele>28</ele>
        <time>2021-03-24T22:51:34Z</time>
      </trkpt>
      <trkpt lat="47.66544" lon="-0.24253">
        <ele>28</ele>
        <time>2021-03-24T22:51:34Z</time>
      </trkpt>
      <trkpt lat="47.66545" lon="-0.24253">
        <ele>28</ele>
        <time>2021-03-24T22:51:35Z</time>
      </trkpt>
      <trkpt lat="47.66545" lon="-0.24254">
        <ele>28</ele>
        <time>2021-03-24T22:51:35Z</time>
      </trkpt>
      <trkpt lat="47.66545" lon="-0.24255">
        <ele>28</ele>
        <time>2021-03-24T22:51:35Z</time>
      </trkpt>
      <trkpt lat="47.66545" lon="-0.24256">
        <ele>28</ele>
        <time>2021-03-24T22:51:35Z</time>
      </trkpt>
      <trkpt lat="47.66545" lon="-0.24257">
        <ele>28</ele>
        <time>2021-03-24T22:51:35Z</time>
      </trkpt>
      <trkpt lat="47.66555" lon="-0.24259">
        <ele>28</ele>
        <time>2021-03-24T22:51:37Z</time>
      </trkpt>
      <trkpt lat="47.66556" lon="-0.2426">
        <ele>28</ele>
        <time>2021-03-24T22:51:37Z</time>
      </trkpt>
      <trkpt lat="47.66561" lon="-0.24266">
        <ele>28</ele>
        <time>2021-03-24T22:51:38Z</time>
      </trkpt>
      <trkpt lat="47.66587" lon="-0.24274">
        <ele>28</ele>
        <time>2021-03-24T22:51:43Z</time>
      </trkpt>
      <trkpt lat="47.66601" lon="-0.24279">
        <ele>27</ele>
        <time>2021-03-24T22:51:46Z</time>
      </trkpt>
      <trkpt lat="47.66613" lon="-0.24284">
        <ele>27</ele>
        <time>2021-03-24T22:51:48Z</time>
      </trkpt>
      <trkpt lat="47.66624" lon="-0.2429">
        <ele>26</ele>
        <time>2021-03-24T22:51:50Z</time>
      </trkpt>
      <trkpt lat="47.6668" lon="-0.24317">
        <ele>25</ele>
        <time>2021-03-24T22:52:00Z</time>
      </trkpt>
      <trkpt lat="47.66756" lon="-0.24354">
        <ele>26</ele>
        <time>2021-03-24T22:52:15Z</time>
      </trkpt>
      <trkpt lat="47.66763" lon="-0.24357">
        <ele>25</ele>
        <time>2021-03-24T22:52:16Z</time>
      </trkpt>
      <trkpt lat="47.66771" lon="-0.24361">
        <ele>25</ele>
        <time>2021-03-24T22:52:17Z</time>
      </trkpt>
      <trkpt lat="47.66793" lon="-0.24372">
        <ele>24</ele>
        <time>2021-03-24T22:52:21Z</time>
      </trkpt>
      <trkpt lat="47.66815" lon="-0.24382">
        <ele>24</ele>
        <time>2021-03-24T22:52:26Z</time>
      </trkpt>
      <trkpt lat="47.66844" lon="-0.24398">
        <ele>24</ele>
        <time>2021-03-24T22:52:31Z</time>
      </trkpt>
      <trkpt lat="47.66881" lon="-0.24415">
        <ele>25</ele>
        <time>2021-03-24T22:52:38Z</time>
      </trkpt>
      <trkpt lat="47.66918" lon="-0.24433">
        <ele>25</ele>
        <time>2021-03-24T22:52:45Z</time>
      </trkpt>
      <trkpt lat="47.6696" lon="-0.24454">
        <ele>29</ele>
        <time>2021-03-24T22:52:53Z</time>
      </trkpt>
      <trkpt lat="47.66962" lon="-0.24454">
        <ele>29</ele>
        <time>2021-03-24T22:52:53Z</time>
      </trkpt>
      <trkpt lat="47.66965" lon="-0.24454">
        <ele>30</ele>
        <time>2021-03-24T22:52:54Z</time>
      </trkpt>
      <trkpt lat="47.66967" lon="-0.24454">
        <ele>30</ele>
        <time>2021-03-24T22:52:54Z</time>
      </trkpt>
      <trkpt lat="47.6697" lon="-0.24453">
        <ele>30</ele>
        <time>2021-03-24T22:52:55Z</time>
      </trkpt>
      <trkpt lat="47.66971" lon="-0.24452">
        <ele>30</ele>
        <time>2021-03-24T22:52:55Z</time>
      </trkpt>
      <trkpt lat="47.66973" lon="-0.2445">
        <ele>30</ele>
        <time>2021-03-24T22:52:55Z</time>
      </trkpt>
      <trkpt lat="47.66974" lon="-0.24449">
        <ele>30</ele>
        <time>2021-03-24T22:52:55Z</time>
      </trkpt>
      <trkpt lat="47.66979" lon="-0.24439">
        <ele>31</ele>
        <time>2021-03-24T22:52:57Z</time>
      </trkpt>
      <trkpt lat="47.66994" lon="-0.2441">
        <ele>31</ele>
        <time>2021-03-24T22:53:01Z</time>
      </trkpt>
      <trkpt lat="47.66998" lon="-0.24406">
        <ele>31</ele>
        <time>2021-03-24T22:53:02Z</time>
      </trkpt>
      <trkpt lat="47.67013" lon="-0.24386">
        <ele>31</ele>
        <time>2021-03-24T22:53:06Z</time>
      </trkpt>
      <trkpt lat="47.67025" lon="-0.24372">
        <ele>30</ele>
        <time>2021-03-24T22:53:08Z</time>
      </trkpt>
      <trkpt lat="47.67041" lon="-0.24353">
        <ele>30</ele>
        <time>2021-03-24T22:53:12Z</time>
      </trkpt>
      <trkpt lat="47.67056" lon="-0.24334">
        <ele>29</ele>
        <time>2021-03-24T22:53:16Z</time>
      </trkpt>
      <trkpt lat="47.6706" lon="-0.24329">
        <ele>29</ele>
        <time>2021-03-24T22:53:17Z</time>
      </trkpt>
      <trkpt lat="47.6706" lon="-0.24329">
        <ele>29</ele>
        <time>2021-03-24T22:53:17Z</time>
      </trkpt>
      <trkpt lat="47.67067" lon="-0.24337">
        <ele>29</ele>
        <time>2021-03-24T22:53:18Z</time>
      </trkpt>
      <trkpt lat="47.67078" lon="-0.24347">
        <ele>30</ele>
        <time>2021-03-24T22:53:20Z</time>
      </trkpt>
      <trkpt lat="47.67092" lon="-0.24361">
        <ele>30</ele>
        <time>2021-03-24T22:53:23Z</time>
      </trkpt>
      <trkpt lat="47.67112" lon="-0.24378">
        <ele>30</ele>
        <time>2021-03-24T22:53:28Z</time>
      </trkpt>
      <trkpt lat="47.67112" lon="-0.24378">
        <ele>30</ele>
        <time>2021-03-24T22:53:28Z</time>
      </trkpt>
      <trkpt lat="47.67117" lon="-0.24387">
        <ele>30</ele>
        <time>2021-03-24T22:53:29Z</time>
      </trkpt>
      <trkpt lat="47.67122" lon="-0.244">
        <ele>30</ele>
        <time>2021-03-24T22:53:31Z</time>
      </trkpt>
      <trkpt lat="47.67126" lon="-0.24421">
        <ele>31</ele>
        <time>2021-03-24T22:53:33Z</time>
      </trkpt>
      <trkpt lat="47.67131" lon="-0.24452">
        <ele>33</ele>
        <time>2021-03-24T22:53:37Z</time>
      </trkpt>
      <trkpt lat="47.67136" lon="-0.24476">
        <ele>34</ele>
        <time>2021-03-24T22:53:40Z</time>
      </trkpt>
      <trkpt lat="47.6714" lon="-0.24493">
        <ele>35</ele>
        <time>2021-03-24T22:53:42Z</time>
      </trkpt>
      <trkpt lat="47.67144" lon="-0.24501">
        <ele>35</ele>
        <time>2021-03-24T22:53:43Z</time>
      </trkpt>
      <trkpt lat="47.67148" lon="-0.24514">
        <ele>35</ele>
        <time>2021-03-24T22:53:45Z</time>
      </trkpt>
      <trkpt lat="47.6715" lon="-0.2453">
        <ele>36</ele>
        <time>2021-03-24T22:53:47Z</time>
      </trkpt>
      <trkpt lat="47.67151" lon="-0.24545">
        <ele>36</ele>
        <time>2021-03-24T22:53:49Z</time>
      </trkpt>
      <trkpt lat="47.67151" lon="-0.24548">
        <ele>36</ele>
        <time>2021-03-24T22:53:49Z</time>
      </trkpt>
      <trkpt lat="47.6715" lon="-0.24568">
        <ele>37</ele>
        <time>2021-03-24T22:53:52Z</time>
      </trkpt>
      <trkpt lat="47.67148" lon="-0.24599">
        <ele>38</ele>
        <time>2021-03-24T22:53:55Z</time>
      </trkpt>
      <trkpt lat="47.67146" lon="-0.24623">
        <ele>38</ele>
        <time>2021-03-24T22:53:58Z</time>
      </trkpt>
      <trkpt lat="47.67145" lon="-0.24642">
        <ele>39</ele>
        <time>2021-03-24T22:54:01Z</time>
      </trkpt>
      <trkpt lat="47.67146" lon="-0.24659">
        <ele>39</ele>
        <time>2021-03-24T22:54:03Z</time>
      </trkpt>
      <trkpt lat="47.67148" lon="-0.24676">
        <ele>39</ele>
        <time>2021-03-24T22:54:05Z</time>
      </trkpt>
      <trkpt lat="47.6715" lon="-0.24693">
        <ele>39</ele>
        <time>2021-03-24T22:54:07Z</time>
      </trkpt>
      <trkpt lat="47.67151" lon="-0.247">
        <ele>39</ele>
        <time>2021-03-24T22:54:08Z</time>
      </trkpt>
      <trkpt lat="47.67151" lon="-0.24704">
        <ele>39</ele>
        <time>2021-03-24T22:54:08Z</time>
      </trkpt>
      <trkpt lat="47.67151" lon="-0.24708">
        <ele>39</ele>
        <time>2021-03-24T22:54:09Z</time>
      </trkpt>
      <trkpt lat="47.67151" lon="-0.24711">
        <ele>39</ele>
        <time>2021-03-24T22:54:09Z</time>
      </trkpt>
      <trkpt lat="47.6715" lon="-0.24716">
        <ele>39</ele>
        <time>2021-03-24T22:54:10Z</time>
      </trkpt>
      <trkpt lat="47.67139" lon="-0.24746">
        <ele>40</ele>
        <time>2021-03-24T22:54:14Z</time>
      </trkpt>
      <trkpt lat="47.67123" lon="-0.24784">
        <ele>42</ele>
        <time>2021-03-24T22:54:19Z</time>
      </trkpt>
      <trkpt lat="47.67108" lon="-0.2482">
        <ele>42</ele>
        <time>2021-03-24T22:54:24Z</time>
      </trkpt>
      <trkpt lat="47.67093" lon="-0.2486">
        <ele>43</ele>
        <time>2021-03-24T22:54:30Z</time>
      </trkpt>
      <trkpt lat="47.67084" lon="-0.24883">
        <ele>43</ele>
        <time>2021-03-24T22:54:33Z</time>
      </trkpt>
      <trkpt lat="47.67082" lon="-0.24886">
        <ele>43</ele>
        <time>2021-03-24T22:54:33Z</time>
      </trkpt>
      <trkpt lat="47.67074" lon="-0.24906">
        <ele>43</ele>
        <time>2021-03-24T22:54:36Z</time>
      </trkpt>
      <trkpt lat="47.67066" lon="-0.2493">
        <ele>43</ele>
        <time>2021-03-24T22:54:39Z</time>
      </trkpt>
      <trkpt lat="47.67062" lon="-0.24942">
        <ele>43</ele>
        <time>2021-03-24T22:54:41Z</time>
      </trkpt>
      <trkpt lat="47.67055" lon="-0.24964">
        <ele>43</ele>
        <time>2021-03-24T22:54:44Z</time>
      </trkpt>
      <trkpt lat="47.67046" lon="-0.24992">
        <ele>43</ele>
        <time>2021-03-24T22:54:48Z</time>
      </trkpt>
      <trkpt lat="47.67043" lon="-0.25001">
        <ele>42</ele>
        <time>2021-03-24T22:54:49Z</time>
      </trkpt>
      <trkpt lat="47.67017" lon="-0.25083">
        <ele>44</ele>
        <time>2021-03-24T22:55:00Z</time>
      </trkpt>
      <trkpt lat="47.66964" lon="-0.2526">
        <ele>48</ele>
        <time>2021-03-24T22:55:23Z</time>
      </trkpt>
      <trkpt lat="47.66954" lon="-0.253">
        <ele>47</ele>
        <time>2021-03-24T22:55:28Z</time>
      </trkpt>
      <trkpt lat="47.66951" lon="-0.2532">
        <ele>47</ele>
        <time>2021-03-24T22:55:30Z</time>
      </trkpt>
      <trkpt lat="47.66951" lon="-0.25339">
        <ele>46</ele>
        <time>2021-03-24T22:55:33Z</time>
      </trkpt>
      <trkpt lat="47.66951" lon="-0.25366">
        <ele>46</ele>
        <time>2021-03-24T22:55:36Z</time>
      </trkpt>
      <trkpt lat="47.66951" lon="-0.25366">
        <ele>46</ele>
        <time>2021-03-24T22:55:36Z</time>
      </trkpt>
      <trkpt lat="47.66952" lon="-0.25378">
        <ele>46</ele>
        <time>2021-03-24T22:55:37Z</time>
      </trkpt>
      <trkpt lat="47.66954" lon="-0.2539">
        <ele>46</ele>
        <time>2021-03-24T22:55:39Z</time>
      </trkpt>
      <trkpt lat="47.66944" lon="-0.25393">
        <ele>46</ele>
        <time>2021-03-24T22:55:41Z</time>
      </trkpt>
      <trkpt lat="47.6694" lon="-0.25395">
        <ele>46</ele>
        <time>2021-03-24T22:55:41Z</time>
      </trkpt>
      <trkpt lat="47.66938" lon="-0.25397">
        <ele>46</ele>
        <time>2021-03-24T22:55:42Z</time>
      </trkpt>
      <trkpt lat="47.66936" lon="-0.254">
        <ele>46</ele>
        <time>2021-03-24T22:55:42Z</time>
      </trkpt>
      <trkpt lat="47.66934" lon="-0.25404">
        <ele>46</ele>
        <time>2021-03-24T22:55:43Z</time>
      </trkpt>
      <trkpt lat="47.66933" lon="-0.25413">
        <ele>45</ele>
        <time>2021-03-24T22:55:44Z</time>
      </trkpt>
      <trkpt lat="47.66931" lon="-0.25454">
        <ele>45</ele>
        <time>2021-03-24T22:55:49Z</time>
      </trkpt>
      <trkpt lat="47.66928" lon="-0.25484">
        <ele>45</ele>
        <time>2021-03-24T22:55:53Z</time>
      </trkpt>
      <trkpt lat="47.66925" lon="-0.2554">
        <ele>45</ele>
        <time>2021-03-24T22:55:59Z</time>
      </trkpt>
      <trkpt lat="47.66924" lon="-0.25567">
        <ele>45</ele>
        <time>2021-03-24T22:56:03Z</time>
      </trkpt>
      <trkpt lat="47.66923" lon="-0.25581">
        <ele>45</ele>
        <time>2021-03-24T22:56:04Z</time>
      </trkpt>
      <trkpt lat="47.66919" lon="-0.25613">
        <ele>45</ele>
        <time>2021-03-24T22:56:08Z</time>
      </trkpt>
      <trkpt lat="47.66912" lon="-0.25646">
        <ele>45</ele>
        <time>2021-03-24T22:56:12Z</time>
      </trkpt>
      <trkpt lat="47.66901" lon="-0.25674">
        <ele>45</ele>
        <time>2021-03-24T22:56:16Z</time>
      </trkpt>
      <trkpt lat="47.66888" lon="-0.25702">
        <ele>45</ele>
        <time>2021-03-24T22:56:20Z</time>
      </trkpt>
      <trkpt lat="47.66876" lon="-0.25723">
        <ele>44</ele>
        <time>2021-03-24T22:56:24Z</time>
      </trkpt>
      <trkpt lat="47.66859" lon="-0.25748">
        <ele>44</ele>
        <time>2021-03-24T22:56:28Z</time>
      </trkpt>
      <trkpt lat="47.66843" lon="-0.25778">
        <ele>44</ele>
        <time>2021-03-24T22:56:32Z</time>
      </trkpt>
      <trkpt lat="47.6683" lon="-0.25802">
        <ele>45</ele>
        <time>2021-03-24T22:56:36Z</time>
      </trkpt>
      <trkpt lat="47.66821" lon="-0.25821">
        <ele>45</ele>
        <time>2021-03-24T22:56:39Z</time>
      </trkpt>
      <trkpt lat="47.66808" lon="-0.25838">
        <ele>45</ele>
        <time>2021-03-24T22:56:42Z</time>
      </trkpt>
      <trkpt lat="47.66789" lon="-0.25857">
        <ele>45</ele>
        <time>2021-03-24T22:56:46Z</time>
      </trkpt>
      <trkpt lat="47.66767" lon="-0.25878">
        <ele>46</ele>
        <time>2021-03-24T22:56:51Z</time>
      </trkpt>
      <trkpt lat="47.66752" lon="-0.25897">
        <ele>47</ele>
        <time>2021-03-24T22:56:54Z</time>
      </trkpt>
      <trkpt lat="47.66743" lon="-0.25911">
        <ele>48</ele>
        <time>2021-03-24T22:56:57Z</time>
      </trkpt>
      <trkpt lat="47.66735" lon="-0.25922">
        <ele>48</ele>
        <time>2021-03-24T22:56:58Z</time>
      </trkpt>
      <trkpt lat="47.66721" lon="-0.25947">
        <ele>49</ele>
        <time>2021-03-24T22:57:02Z</time>
      </trkpt>
      <trkpt lat="47.66717" lon="-0.25952">
        <ele>49</ele>
        <time>2021-03-24T22:57:03Z</time>
      </trkpt>
      <trkpt lat="47.66713" lon="-0.25957">
        <ele>49</ele>
        <time>2021-03-24T22:57:04Z</time>
      </trkpt>
      <trkpt lat="47.66706" lon="-0.25964">
        <ele>49</ele>
        <time>2021-03-24T22:57:06Z</time>
      </trkpt>
      <trkpt lat="47.66698" lon="-0.25971">
        <ele>49</ele>
        <time>2021-03-24T22:57:07Z</time>
      </trkpt>
      <trkpt lat="47.66677" lon="-0.25986">
        <ele>49</ele>
        <time>2021-03-24T22:57:12Z</time>
      </trkpt>
      <trkpt lat="47.66668" lon="-0.25992">
        <ele>49</ele>
        <time>2021-03-24T22:57:13Z</time>
      </trkpt>
      <trkpt lat="47.66662" lon="-0.25997">
        <ele>49</ele>
        <time>2021-03-24T22:57:14Z</time>
      </trkpt>
      <trkpt lat="47.66657" lon="-0.26003">
        <ele>49</ele>
        <time>2021-03-24T22:57:16Z</time>
      </trkpt>
      <trkpt lat="47.66648" lon="-0.26016">
        <ele>49</ele>
        <time>2021-03-24T22:57:18Z</time>
      </trkpt>
      <trkpt lat="47.66636" lon="-0.2604">
        <ele>49</ele>
        <time>2021-03-24T22:57:21Z</time>
      </trkpt>
      <trkpt lat="47.66625" lon="-0.26058">
        <ele>50</ele>
        <time>2021-03-24T22:57:24Z</time>
      </trkpt>
      <trkpt lat="47.66621" lon="-0.26063">
        <ele>50</ele>
        <time>2021-03-24T22:57:25Z</time>
      </trkpt>
      <trkpt lat="47.6661" lon="-0.26079">
        <ele>51</ele>
        <time>2021-03-24T22:57:28Z</time>
      </trkpt>
      <trkpt lat="47.66589" lon="-0.26104">
        <ele>53</ele>
        <time>2021-03-24T22:57:33Z</time>
      </trkpt>
      <trkpt lat="47.66572" lon="-0.26129">
        <ele>53</ele>
        <time>2021-03-24T22:57:37Z</time>
      </trkpt>
      <trkpt lat="47.66553" lon="-0.26162">
        <ele>54</ele>
        <time>2021-03-24T22:57:42Z</time>
      </trkpt>
      <trkpt lat="47.66538" lon="-0.26194">
        <ele>55</ele>
        <time>2021-03-24T22:57:47Z</time>
      </trkpt>
      <trkpt lat="47.66527" lon="-0.26213">
        <ele>55</ele>
        <time>2021-03-24T22:57:50Z</time>
      </trkpt>
      <trkpt lat="47.66519" lon="-0.26224">
        <ele>55</ele>
        <time>2021-03-24T22:57:52Z</time>
      </trkpt>
      <trkpt lat="47.66506" lon="-0.26243">
        <ele>55</ele>
        <time>2021-03-24T22:57:55Z</time>
      </trkpt>
      <trkpt lat="47.66493" lon="-0.26266">
        <ele>55</ele>
        <time>2021-03-24T22:57:59Z</time>
      </trkpt>
      <trkpt lat="47.66479" lon="-0.26292">
        <ele>55</ele>
        <time>2021-03-24T22:58:03Z</time>
      </trkpt>
      <trkpt lat="47.6647" lon="-0.26309">
        <ele>55</ele>
        <time>2021-03-24T22:58:05Z</time>
      </trkpt>
      <trkpt lat="47.6647" lon="-0.26309">
        <ele>55</ele>
        <time>2021-03-24T22:58:05Z</time>
      </trkpt>
      <trkpt lat="47.66448" lon="-0.26351">
        <ele>56</ele>
        <time>2021-03-24T22:58:12Z</time>
      </trkpt>
      <trkpt lat="47.66428" lon="-0.26387">
        <ele>57</ele>
        <time>2021-03-24T22:58:17Z</time>
      </trkpt>
      <trkpt lat="47.66419" lon="-0.26418">
        <ele>57</ele>
        <time>2021-03-24T22:58:21Z</time>
      </trkpt>
      <trkpt lat="47.66415" lon="-0.26437">
        <ele>56</ele>
        <time>2021-03-24T22:58:24Z</time>
      </trkpt>
      <trkpt lat="47.66411" lon="-0.26474">
        <ele>55</ele>
        <time>2021-03-24T22:58:28Z</time>
      </trkpt>
      <trkpt lat="47.66408" lon="-0.26518">
        <ele>54</ele>
        <time>2021-03-24T22:58:34Z</time>
      </trkpt>
      <trkpt lat="47.66407" lon="-0.26546">
        <ele>53</ele>
        <time>2021-03-24T22:58:37Z</time>
      </trkpt>
      <trkpt lat="47.66407" lon="-0.26546">
        <ele>53</ele>
        <time>2021-03-24T22:58:37Z</time>
      </trkpt>
      <trkpt lat="47.66405" lon="-0.26575">
        <ele>52</ele>
        <time>2021-03-24T22:58:40Z</time>
      </trkpt>
      <trkpt lat="47.66404" lon="-0.26593">
        <ele>52</ele>
        <time>2021-03-24T22:58:43Z</time>
      </trkpt>
      <trkpt lat="47.66394" lon="-0.26753">
        <ele>51</ele>
        <time>2021-03-24T22:59:02Z</time>
      </trkpt>
      <trkpt lat="47.66393" lon="-0.26758">
        <ele>51</ele>
        <time>2021-03-24T22:59:02Z</time>
      </trkpt>
      <trkpt lat="47.66393" lon="-0.26773">
        <ele>51</ele>
        <time>2021-03-24T22:59:04Z</time>
      </trkpt>
      <trkpt lat="47.66392" lon="-0.26789">
        <ele>52</ele>
        <time>2021-03-24T22:59:06Z</time>
      </trkpt>
      <trkpt lat="47.6639" lon="-0.26809">
        <ele>52</ele>
        <time>2021-03-24T22:59:09Z</time>
      </trkpt>
      <trkpt lat="47.66388" lon="-0.26844">
        <ele>53</ele>
        <time>2021-03-24T22:59:13Z</time>
      </trkpt>
      <trkpt lat="47.66387" lon="-0.26858">
        <ele>54</ele>
        <time>2021-03-24T22:59:14Z</time>
      </trkpt>
      <trkpt lat="47.66386" lon="-0.26879">
        <ele>55</ele>
        <time>2021-03-24T22:59:17Z</time>
      </trkpt>
      <trkpt lat="47.66383" lon="-0.26894">
        <ele>55</ele>
        <time>2021-03-24T22:59:19Z</time>
      </trkpt>
      <trkpt lat="47.66378" lon="-0.26909">
        <ele>55</ele>
        <time>2021-03-24T22:59:21Z</time>
      </trkpt>
      <trkpt lat="47.66374" lon="-0.26921">
        <ele>56</ele>
        <time>2021-03-24T22:59:22Z</time>
      </trkpt>
      <trkpt lat="47.66364" lon="-0.2694">
        <ele>56</ele>
        <time>2021-03-24T22:59:25Z</time>
      </trkpt>
      <trkpt lat="47.66359" lon="-0.2695">
        <ele>56</ele>
        <time>2021-03-24T22:59:27Z</time>
      </trkpt>
      <trkpt lat="47.66352" lon="-0.2696">
        <ele>56</ele>
        <time>2021-03-24T22:59:29Z</time>
      </trkpt>
      <trkpt lat="47.66342" lon="-0.26971">
        <ele>56</ele>
        <time>2021-03-24T22:59:31Z</time>
      </trkpt>
      <trkpt lat="47.66333" lon="-0.26981">
        <ele>56</ele>
        <time>2021-03-24T22:59:33Z</time>
      </trkpt>
      <trkpt lat="47.66313" lon="-0.27002">
        <ele>57</ele>
        <time>2021-03-24T22:59:37Z</time>
      </trkpt>
      <trkpt lat="47.66306" lon="-0.2701">
        <ele>57</ele>
        <time>2021-03-24T22:59:39Z</time>
      </trkpt>
      <trkpt lat="47.66297" lon="-0.2702">
        <ele>57</ele>
        <time>2021-03-24T22:59:41Z</time>
      </trkpt>
      <trkpt lat="47.6629" lon="-0.27031">
        <ele>57</ele>
        <time>2021-03-24T22:59:43Z</time>
      </trkpt>
      <trkpt lat="47.66282" lon="-0.27042">
        <ele>58</ele>
        <time>2021-03-24T22:59:44Z</time>
      </trkpt>
      <trkpt lat="47.66272" lon="-0.27058">
        <ele>58</ele>
        <time>2021-03-24T22:59:47Z</time>
      </trkpt>
      <trkpt lat="47.66264" lon="-0.27073">
        <ele>59</ele>
        <time>2021-03-24T22:59:49Z</time>
      </trkpt>
      <trkpt lat="47.66257" lon="-0.27086">
        <ele>59</ele>
        <time>2021-03-24T22:59:51Z</time>
      </trkpt>
      <trkpt lat="47.6625" lon="-0.27103">
        <ele>59</ele>
        <time>2021-03-24T22:59:54Z</time>
      </trkpt>
      <trkpt lat="47.66237" lon="-0.2714">
        <ele>59</ele>
        <time>2021-03-24T22:59:59Z</time>
      </trkpt>
      <trkpt lat="47.6622" lon="-0.27193">
        <ele>60</ele>
        <time>2021-03-24T23:00:06Z</time>
      </trkpt>
      <trkpt lat="47.6622" lon="-0.27193">
        <ele>60</ele>
        <time>2021-03-24T23:00:06Z</time>
      </trkpt>
      <trkpt lat="47.66198" lon="-0.27255">
        <ele>61</ele>
        <time>2021-03-24T23:00:14Z</time>
      </trkpt>
      <trkpt lat="47.66183" lon="-0.27293">
        <ele>62</ele>
        <time>2021-03-24T23:00:19Z</time>
      </trkpt>
      <trkpt lat="47.66174" lon="-0.27317">
        <ele>62</ele>
        <time>2021-03-24T23:00:23Z</time>
      </trkpt>
      <trkpt lat="47.66166" lon="-0.27336">
        <ele>62</ele>
        <time>2021-03-24T23:00:25Z</time>
      </trkpt>
      <trkpt lat="47.66156" lon="-0.27355">
        <ele>61</ele>
        <time>2021-03-24T23:00:28Z</time>
      </trkpt>
      <trkpt lat="47.66142" lon="-0.27378">
        <ele>60</ele>
        <time>2021-03-24T23:00:32Z</time>
      </trkpt>
      <trkpt lat="47.66108" lon="-0.27431">
        <ele>57</ele>
        <time>2021-03-24T23:00:41Z</time>
      </trkpt>
      <trkpt lat="47.66065" lon="-0.27499">
        <ele>52</ele>
        <time>2021-03-24T23:00:52Z</time>
      </trkpt>
      <trkpt lat="47.66043" lon="-0.27536">
        <ele>50</ele>
        <time>2021-03-24T23:00:58Z</time>
      </trkpt>
      <trkpt lat="47.66037" lon="-0.27546">
        <ele>50</ele>
        <time>2021-03-24T23:01:00Z</time>
      </trkpt>
      <trkpt lat="47.66027" lon="-0.27561">
        <ele>49</ele>
        <time>2021-03-24T23:01:02Z</time>
      </trkpt>
      <trkpt lat="47.6602" lon="-0.27571">
        <ele>49</ele>
        <time>2021-03-24T23:01:04Z</time>
      </trkpt>
      <trkpt lat="47.66011" lon="-0.27584">
        <ele>49</ele>
        <time>2021-03-24T23:01:06Z</time>
      </trkpt>
      <trkpt lat="47.65999" lon="-0.27601">
        <ele>48</ele>
        <time>2021-03-24T23:01:09Z</time>
      </trkpt>
      <trkpt lat="47.65986" lon="-0.27615">
        <ele>49</ele>
        <time>2021-03-24T23:01:12Z</time>
      </trkpt>
      <trkpt lat="47.65954" lon="-0.27649">
        <ele>52</ele>
        <time>2021-03-24T23:01:19Z</time>
      </trkpt>
      <trkpt lat="47.65927" lon="-0.27675">
        <ele>55</ele>
        <time>2021-03-24T23:01:25Z</time>
      </trkpt>
      <trkpt lat="47.65898" lon="-0.27705">
        <ele>57</ele>
        <time>2021-03-24T23:01:31Z</time>
      </trkpt>
      <trkpt lat="47.65885" lon="-0.27718">
        <ele>57</ele>
        <time>2021-03-24T23:01:34Z</time>
      </trkpt>
      <trkpt lat="47.65876" lon="-0.2773">
        <ele>57</ele>
        <time>2021-03-24T23:01:36Z</time>
      </trkpt>
      <trkpt lat="47.65868" lon="-0.27743">
        <ele>58</ele>
        <time>2021-03-24T23:01:38Z</time>
      </trkpt>
      <trkpt lat="47.65861" lon="-0.27755">
        <ele>58</ele>
        <time>2021-03-24T23:01:40Z</time>
      </trkpt>
      <trkpt lat="47.6586" lon="-0.27757">
        <ele>58</ele>
        <time>2021-03-24T23:01:40Z</time>
      </trkpt>
      <trkpt lat="47.65857" lon="-0.27764">
        <ele>58</ele>
        <time>2021-03-24T23:01:41Z</time>
      </trkpt>
      <trkpt lat="47.65854" lon="-0.27771">
        <ele>58</ele>
        <time>2021-03-24T23:01:42Z</time>
      </trkpt>
      <trkpt lat="47.65847" lon="-0.27794">
        <ele>58</ele>
        <time>2021-03-24T23:01:45Z</time>
      </trkpt>
      <trkpt lat="47.65829" lon="-0.27855">
        <ele>59</ele>
        <time>2021-03-24T23:01:53Z</time>
      </trkpt>
      <trkpt lat="47.65815" lon="-0.27903">
        <ele>59</ele>
        <time>2021-03-24T23:01:59Z</time>
      </trkpt>
      <trkpt lat="47.65803" lon="-0.27952">
        <ele>59</ele>
        <time>2021-03-24T23:02:06Z</time>
      </trkpt>
      <trkpt lat="47.65795" lon="-0.27991">
        <ele>60</ele>
        <time>2021-03-24T23:02:10Z</time>
      </trkpt>
      <trkpt lat="47.65784" lon="-0.28051">
        <ele>61</ele>
        <time>2021-03-24T23:02:18Z</time>
      </trkpt>
      <trkpt lat="47.65767" lon="-0.28142">
        <ele>60</ele>
        <time>2021-03-24T23:02:29Z</time>
      </trkpt>
      <trkpt lat="47.65758" lon="-0.28187">
        <ele>60</ele>
        <time>2021-03-24T23:02:35Z</time>
      </trkpt>
      <trkpt lat="47.65755" lon="-0.2821">
        <ele>60</ele>
        <time>2021-03-24T23:02:38Z</time>
      </trkpt>
      <trkpt lat="47.65755" lon="-0.28212">
        <ele>60</ele>
        <time>2021-03-24T23:02:38Z</time>
      </trkpt>
      <trkpt lat="47.65753" lon="-0.28239">
        <ele>60</ele>
        <time>2021-03-24T23:02:41Z</time>
      </trkpt>
      <trkpt lat="47.6575" lon="-0.28295">
        <ele>59</ele>
        <time>2021-03-24T23:02:48Z</time>
      </trkpt>
      <trkpt lat="47.65746" lon="-0.28384">
        <ele>59</ele>
        <time>2021-03-24T23:02:59Z</time>
      </trkpt>
      <trkpt lat="47.65743" lon="-0.28456">
        <ele>59</ele>
        <time>2021-03-24T23:03:07Z</time>
      </trkpt>
      <trkpt lat="47.65741" lon="-0.28483">
        <ele>59</ele>
        <time>2021-03-24T23:03:11Z</time>
      </trkpt>
      <trkpt lat="47.6574" lon="-0.28498">
        <ele>59</ele>
        <time>2021-03-24T23:03:12Z</time>
      </trkpt>
      <trkpt lat="47.65738" lon="-0.28506">
        <ele>59</ele>
        <time>2021-03-24T23:03:13Z</time>
      </trkpt>
      <trkpt lat="47.65737" lon="-0.28515">
        <ele>59</ele>
        <time>2021-03-24T23:03:14Z</time>
      </trkpt>
      <trkpt lat="47.65732" lon="-0.28531">
        <ele>59</ele>
        <time>2021-03-24T23:03:17Z</time>
      </trkpt>
      <trkpt lat="47.65723" lon="-0.28552">
        <ele>59</ele>
        <time>2021-03-24T23:03:20Z</time>
      </trkpt>
      <trkpt lat="47.65698" lon="-0.28605">
        <ele>60</ele>
        <time>2021-03-24T23:03:27Z</time>
      </trkpt>
      <trkpt lat="47.65671" lon="-0.28659">
        <ele>63</ele>
        <time>2021-03-24T23:03:35Z</time>
      </trkpt>
      <trkpt lat="47.65625" lon="-0.28752">
        <ele>67</ele>
        <time>2021-03-24T23:03:49Z</time>
      </trkpt>
      <trkpt lat="47.65581" lon="-0.28839">
        <ele>67</ele>
        <time>2021-03-24T23:04:02Z</time>
      </trkpt>
      <trkpt lat="47.65542" lon="-0.28919">
        <ele>64</ele>
        <time>2021-03-24T23:04:14Z</time>
      </trkpt>
      <trkpt lat="47.65498" lon="-0.29001">
        <ele>65</ele>
        <time>2021-03-24T23:04:27Z</time>
      </trkpt>
      <trkpt lat="47.65497" lon="-0.29005">
        <ele>65</ele>
        <time>2021-03-24T23:04:27Z</time>
      </trkpt>
      <trkpt lat="47.65443" lon="-0.29113">
        <ele>64</ele>
        <time>2021-03-24T23:04:43Z</time>
      </trkpt>
      <trkpt lat="47.65389" lon="-0.2922">
        <ele>63</ele>
        <time>2021-03-24T23:04:59Z</time>
      </trkpt>
      <trkpt lat="47.65354" lon="-0.2929">
        <ele>61</ele>
        <time>2021-03-24T23:05:10Z</time>
      </trkpt>
      <trkpt lat="47.65345" lon="-0.29309">
        <ele>61</ele>
        <time>2021-03-24T23:05:12Z</time>
      </trkpt>
      <trkpt lat="47.65338" lon="-0.29325">
        <ele>61</ele>
        <time>2021-03-24T23:05:15Z</time>
      </trkpt>
      <trkpt lat="47.6533" lon="-0.29355">
        <ele>60</ele>
        <time>2021-03-24T23:05:19Z</time>
      </trkpt>
      <trkpt lat="47.65307" lon="-0.29448">
        <ele>55</ele>
        <time>2021-03-24T23:05:31Z</time>
      </trkpt>
      <trkpt lat="47.65284" lon="-0.29536">
        <ele>48</ele>
        <time>2021-03-24T23:05:42Z</time>
      </trkpt>
      <trkpt lat="47.65283" lon="-0.29539">
        <ele>48</ele>
        <time>2021-03-24T23:05:42Z</time>
      </trkpt>
      <trkpt lat="47.65282" lon="-0.29542">
        <ele>47</ele>
        <time>2021-03-24T23:05:43Z</time>
      </trkpt>
      <trkpt lat="47.65282" lon="-0.29545">
        <ele>47</ele>
        <time>2021-03-24T23:05:43Z</time>
      </trkpt>
      <trkpt lat="47.65281" lon="-0.29548">
        <ele>47</ele>
        <time>2021-03-24T23:05:43Z</time>
      </trkpt>
      <trkpt lat="47.65281" lon="-0.29551">
        <ele>47</ele>
        <time>2021-03-24T23:05:44Z</time>
      </trkpt>
      <trkpt lat="47.65282" lon="-0.29553">
        <ele>47</ele>
        <time>2021-03-24T23:05:44Z</time>
      </trkpt>
      <trkpt lat="47.65282" lon="-0.29559">
        <ele>46</ele>
        <time>2021-03-24T23:05:45Z</time>
      </trkpt>
      <trkpt lat="47.65282" lon="-0.29559">
        <ele>46</ele>
        <time>2021-03-24T23:05:45Z</time>
      </trkpt>
      <trkpt lat="47.6528" lon="-0.29562">
        <ele>46</ele>
        <time>2021-03-24T23:05:45Z</time>
      </trkpt>
      <trkpt lat="47.65275" lon="-0.29567">
        <ele>45</ele>
        <time>2021-03-24T23:05:46Z</time>
      </trkpt>
      <trkpt lat="47.65271" lon="-0.29573">
        <ele>45</ele>
        <time>2021-03-24T23:05:47Z</time>
      </trkpt>
      <trkpt lat="47.65267" lon="-0.2958">
        <ele>44</ele>
        <time>2021-03-24T23:05:48Z</time>
      </trkpt>
      <trkpt lat="47.65263" lon="-0.29587">
        <ele>44</ele>
        <time>2021-03-24T23:05:50Z</time>
      </trkpt>
      <trkpt lat="47.65259" lon="-0.29595">
        <ele>43</ele>
        <time>2021-03-24T23:05:51Z</time>
      </trkpt>
      <trkpt lat="47.65253" lon="-0.29605">
        <ele>43</ele>
        <time>2021-03-24T23:05:52Z</time>
      </trkpt>
      <trkpt lat="47.65238" lon="-0.2963">
        <ele>43</ele>
        <time>2021-03-24T23:05:56Z</time>
      </trkpt>
      <trkpt lat="47.65217" lon="-0.29666">
        <ele>43</ele>
        <time>2021-03-24T23:06:02Z</time>
      </trkpt>
      <trkpt lat="47.6517" lon="-0.29751">
        <ele>47</ele>
        <time>2021-03-24T23:06:15Z</time>
      </trkpt>
      <trkpt lat="47.65141" lon="-0.29804">
        <ele>48</ele>
        <time>2021-03-24T23:06:23Z</time>
      </trkpt>
      <trkpt lat="47.65116" lon="-0.29851">
        <ele>51</ele>
        <time>2021-03-24T23:06:31Z</time>
      </trkpt>
      <trkpt lat="47.65079" lon="-0.29918">
        <ele>52</ele>
        <time>2021-03-24T23:06:41Z</time>
      </trkpt>
      <trkpt lat="47.65055" lon="-0.29964">
        <ele>52</ele>
        <time>2021-03-24T23:06:48Z</time>
      </trkpt>
      <trkpt lat="47.65043" lon="-0.29987">
        <ele>51</ele>
        <time>2021-03-24T23:06:51Z</time>
      </trkpt>
      <trkpt lat="47.65016" lon="-0.30059">
        <ele>52</ele>
        <time>2021-03-24T23:07:01Z</time>
      </trkpt>
      <trkpt lat="47.65006" lon="-0.3008">
        <ele>52</ele>
        <time>2021-03-24T23:07:04Z</time>
      </trkpt>
      <trkpt lat="47.64999" lon="-0.30096">
        <ele>52</ele>
        <time>2021-03-24T23:07:07Z</time>
      </trkpt>
      <trkpt lat="47.6499" lon="-0.30113">
        <ele>52</ele>
        <time>2021-03-24T23:07:09Z</time>
      </trkpt>
      <trkpt lat="47.64982" lon="-0.30128">
        <ele>52</ele>
        <time>2021-03-24T23:07:12Z</time>
      </trkpt>
      <trkpt lat="47.64969" lon="-0.30143">
        <ele>52</ele>
        <time>2021-03-24T23:07:15Z</time>
      </trkpt>
      <trkpt lat="47.64956" lon="-0.30158">
        <ele>52</ele>
        <time>2021-03-24T23:07:17Z</time>
      </trkpt>
      <trkpt lat="47.64939" lon="-0.30177">
        <ele>51</ele>
        <time>2021-03-24T23:07:21Z</time>
      </trkpt>
      <trkpt lat="47.64901" lon="-0.3022">
        <ele>50</ele>
        <time>2021-03-24T23:07:30Z</time>
      </trkpt>
      <trkpt lat="47.64845" lon="-0.30284">
        <ele>49</ele>
        <time>2021-03-24T23:07:42Z</time>
      </trkpt>
      <trkpt lat="47.64843" lon="-0.30287">
        <ele>49</ele>
        <time>2021-03-24T23:07:43Z</time>
      </trkpt>
      <trkpt lat="47.64834" lon="-0.30305">
        <ele>49</ele>
        <time>2021-03-24T23:07:46Z</time>
      </trkpt>
      <trkpt lat="47.64828" lon="-0.30324">
        <ele>49</ele>
        <time>2021-03-24T23:07:48Z</time>
      </trkpt>
      <trkpt lat="47.64823" lon="-0.30339">
        <ele>49</ele>
        <time>2021-03-24T23:07:50Z</time>
      </trkpt>
      <trkpt lat="47.64818" lon="-0.30354">
        <ele>49</ele>
        <time>2021-03-24T23:07:52Z</time>
      </trkpt>
      <trkpt lat="47.64811" lon="-0.30374">
        <ele>49</ele>
        <time>2021-03-24T23:07:55Z</time>
      </trkpt>
      <trkpt lat="47.64809" lon="-0.30384">
        <ele>49</ele>
        <time>2021-03-24T23:07:56Z</time>
      </trkpt>
      <trkpt lat="47.64807" lon="-0.30394">
        <ele>49</ele>
        <time>2021-03-24T23:07:57Z</time>
      </trkpt>
      <trkpt lat="47.64805" lon="-0.30403">
        <ele>50</ele>
        <time>2021-03-24T23:07:58Z</time>
      </trkpt>
      <trkpt lat="47.64805" lon="-0.3041">
        <ele>50</ele>
        <time>2021-03-24T23:07:59Z</time>
      </trkpt>
      <trkpt lat="47.64805" lon="-0.30418">
        <ele>50</ele>
        <time>2021-03-24T23:08:00Z</time>
      </trkpt>
      <trkpt lat="47.64807" lon="-0.30431">
        <ele>50</ele>
        <time>2021-03-24T23:08:02Z</time>
      </trkpt>
      <trkpt lat="47.64809" lon="-0.30449">
        <ele>50</ele>
        <time>2021-03-24T23:08:04Z</time>
      </trkpt>
      <trkpt lat="47.6481" lon="-0.30459">
        <ele>50</ele>
        <time>2021-03-24T23:08:05Z</time>
      </trkpt>
      <trkpt lat="47.64812" lon="-0.30474">
        <ele>50</ele>
        <time>2021-03-24T23:08:07Z</time>
      </trkpt>
      <trkpt lat="47.64813" lon="-0.30478">
        <ele>50</ele>
        <time>2021-03-24T23:08:08Z</time>
      </trkpt>
      <trkpt lat="47.64816" lon="-0.30517">
        <ele>49</ele>
        <time>2021-03-24T23:08:12Z</time>
      </trkpt>
      <trkpt lat="47.64817" lon="-0.30547">
        <ele>47</ele>
        <time>2021-03-24T23:08:16Z</time>
      </trkpt>
      <trkpt lat="47.64817" lon="-0.30547">
        <ele>47</ele>
        <time>2021-03-24T23:08:16Z</time>
      </trkpt>
      <trkpt lat="47.64829" lon="-0.30554">
        <ele>47</ele>
        <time>2021-03-24T23:08:18Z</time>
      </trkpt>
      <trkpt lat="47.64839" lon="-0.30561">
        <ele>47</ele>
        <time>2021-03-24T23:08:20Z</time>
      </trkpt>
      <trkpt lat="47.6485" lon="-0.30571">
        <ele>47</ele>
        <time>2021-03-24T23:08:22Z</time>
      </trkpt>
      <trkpt lat="47.64861" lon="-0.30582">
        <ele>47</ele>
        <time>2021-03-24T23:08:25Z</time>
      </trkpt>
      <trkpt lat="47.64871" lon="-0.3059">
        <ele>48</ele>
        <time>2021-03-24T23:08:27Z</time>
      </trkpt>
      <trkpt lat="47.64872" lon="-0.3059">
        <ele>48</ele>
        <time>2021-03-24T23:08:27Z</time>
      </trkpt>
      <trkpt lat="47.64878" lon="-0.30595">
        <ele>48</ele>
        <time>2021-03-24T23:08:28Z</time>
      </trkpt>
      <trkpt lat="47.64885" lon="-0.30598">
        <ele>48</ele>
        <time>2021-03-24T23:08:29Z</time>
      </trkpt>
      <trkpt lat="47.64893" lon="-0.306">
        <ele>49</ele>
        <time>2021-03-24T23:08:31Z</time>
      </trkpt>
      <trkpt lat="47.64906" lon="-0.30602">
        <ele>49</ele>
        <time>2021-03-24T23:08:33Z</time>
      </trkpt>
      <trkpt lat="47.64921" lon="-0.30604">
        <ele>50</ele>
        <time>2021-03-24T23:08:36Z</time>
      </trkpt>
      <trkpt lat="47.6494" lon="-0.30604">
        <ele>52</ele>
        <time>2021-03-24T23:08:39Z</time>
      </trkpt>
      <trkpt lat="47.6496" lon="-0.30604">
        <ele>53</ele>
        <time>2021-03-24T23:08:43Z</time>
      </trkpt>
      <trkpt lat="47.6497" lon="-0.30606">
        <ele>54</ele>
        <time>2021-03-24T23:08:45Z</time>
      </trkpt>
      <trkpt lat="47.64972" lon="-0.30606">
        <ele>54</ele>
        <time>2021-03-24T23:08:45Z</time>
      </trkpt>
      <trkpt lat="47.64986" lon="-0.30608">
        <ele>55</ele>
        <time>2021-03-24T23:08:48Z</time>
      </trkpt>
      <trkpt lat="47.64998" lon="-0.30609">
        <ele>56</ele>
        <time>2021-03-24T23:08:50Z</time>
      </trkpt>
      <trkpt lat="47.65008" lon="-0.30609">
        <ele>57</ele>
        <time>2021-03-24T23:08:51Z</time>
      </trkpt>
      <trkpt lat="47.65017" lon="-0.30608">
        <ele>57</ele>
        <time>2021-03-24T23:08:53Z</time>
      </trkpt>
      <trkpt lat="47.65025" lon="-0.30605">
        <ele>57</ele>
        <time>2021-03-24T23:08:55Z</time>
      </trkpt>
      <trkpt lat="47.65039" lon="-0.306">
        <ele>58</ele>
        <time>2021-03-24T23:08:57Z</time>
      </trkpt>
      <trkpt lat="47.65048" lon="-0.30595">
        <ele>58</ele>
        <time>2021-03-24T23:08:59Z</time>
      </trkpt>
      <trkpt lat="47.65051" lon="-0.30599">
        <ele>58</ele>
        <time>2021-03-24T23:08:59Z</time>
      </trkpt>
      <trkpt lat="47.65054" lon="-0.30602">
        <ele>58</ele>
        <time>2021-03-24T23:09:00Z</time>
      </trkpt>
      <trkpt lat="47.65064" lon="-0.30615">
        <ele>58</ele>
        <time>2021-03-24T23:09:02Z</time>
      </trkpt>
      <trkpt lat="47.65067" lon="-0.30618">
        <ele>58</ele>
        <time>2021-03-24T23:09:03Z</time>
      </trkpt>
      <trkpt lat="47.65071" lon="-0.30623">
        <ele>58</ele>
        <time>2021-03-24T23:09:04Z</time>
      </trkpt>
      <trkpt lat="47.65072" lon="-0.30625">
        <ele>58</ele>
        <time>2021-03-24T23:09:04Z</time>
      </trkpt>
      <trkpt lat="47.65074" lon="-0.30628">
        <ele>58</ele>
        <time>2021-03-24T23:09:05Z</time>
      </trkpt>
      <trkpt lat="47.65076" lon="-0.30631">
        <ele>58</ele>
        <time>2021-03-24T23:09:05Z</time>
      </trkpt>
      <trkpt lat="47.65078" lon="-0.30637">
        <ele>58</ele>
        <time>2021-03-24T23:09:06Z</time>
      </trkpt>
      <trkpt lat="47.6508" lon="-0.30641">
        <ele>58</ele>
        <time>2021-03-24T23:09:07Z</time>
      </trkpt>
      <trkpt lat="47.65085" lon="-0.30655">
        <ele>57</ele>
        <time>2021-03-24T23:09:09Z</time>
      </trkpt>
      <trkpt lat="47.65092" lon="-0.3067">
        <ele>57</ele>
        <time>2021-03-24T23:09:11Z</time>
      </trkpt>
      <trkpt lat="47.65098" lon="-0.30681">
        <ele>57</ele>
        <time>2021-03-24T23:09:13Z</time>
      </trkpt>
      <trkpt lat="47.65105" lon="-0.30692">
        <ele>56</ele>
        <time>2021-03-24T23:09:14Z</time>
      </trkpt>
      <trkpt lat="47.65112" lon="-0.30699">
        <ele>56</ele>
        <time>2021-03-24T23:09:16Z</time>
      </trkpt>
      <trkpt lat="47.65118" lon="-0.30705">
        <ele>56</ele>
        <time>2021-03-24T23:09:17Z</time>
      </trkpt>
      <trkpt lat="47.65125" lon="-0.3071">
        <ele>56</ele>
        <time>2021-03-24T23:09:19Z</time>
      </trkpt>
      <trkpt lat="47.65141" lon="-0.3072">
        <ele>56</ele>
        <time>2021-03-24T23:09:22Z</time>
      </trkpt>
      <trkpt lat="47.65167" lon="-0.30735">
        <ele>57</ele>
        <time>2021-03-24T23:09:27Z</time>
      </trkpt>
      <trkpt lat="47.65202" lon="-0.3076">
        <ele>58</ele>
        <time>2021-03-24T23:09:34Z</time>
      </trkpt>
      <trkpt lat="47.65218" lon="-0.30774">
        <ele>59</ele>
        <time>2021-03-24T23:09:37Z</time>
      </trkpt>
      <trkpt lat="47.6523" lon="-0.30787">
        <ele>59</ele>
        <time>2021-03-24T23:09:39Z</time>
      </trkpt>
      <trkpt lat="47.6524" lon="-0.30798">
        <ele>59</ele>
        <time>2021-03-24T23:09:42Z</time>
      </trkpt>
      <trkpt lat="47.65247" lon="-0.3081">
        <ele>59</ele>
        <time>2021-03-24T23:09:44Z</time>
      </trkpt>
      <trkpt lat="47.65258" lon="-0.30829">
        <ele>59</ele>
        <time>2021-03-24T23:09:47Z</time>
      </trkpt>
      <trkpt lat="47.65265" lon="-0.30845">
        <ele>59</ele>
        <time>2021-03-24T23:09:49Z</time>
      </trkpt>
      <trkpt lat="47.65276" lon="-0.30865">
        <ele>59</ele>
        <time>2021-03-24T23:09:52Z</time>
      </trkpt>
      <trkpt lat="47.65285" lon="-0.3088">
        <ele>60</ele>
        <time>2021-03-24T23:09:54Z</time>
      </trkpt>
      <trkpt lat="47.65295" lon="-0.30895">
        <ele>60</ele>
        <time>2021-03-24T23:09:57Z</time>
      </trkpt>
      <trkpt lat="47.65308" lon="-0.30911">
        <ele>60</ele>
        <time>2021-03-24T23:10:00Z</time>
      </trkpt>
      <trkpt lat="47.65322" lon="-0.30929">
        <ele>61</ele>
        <time>2021-03-24T23:10:03Z</time>
      </trkpt>
      <trkpt lat="47.6533" lon="-0.30938">
        <ele>61</ele>
        <time>2021-03-24T23:10:05Z</time>
      </trkpt>
      <trkpt lat="47.65338" lon="-0.30948">
        <ele>61</ele>
        <time>2021-03-24T23:10:07Z</time>
      </trkpt>
      <trkpt lat="47.65359" lon="-0.3097">
        <ele>62</ele>
        <time>2021-03-24T23:10:11Z</time>
      </trkpt>
      <trkpt lat="47.65405" lon="-0.31017">
        <ele>63</ele>
        <time>2021-03-24T23:10:21Z</time>
      </trkpt>
      <trkpt lat="47.65443" lon="-0.31054">
        <ele>62</ele>
        <time>2021-03-24T23:10:29Z</time>
      </trkpt>
      <trkpt lat="47.65458" lon="-0.31071">
        <ele>62</ele>
        <time>2021-03-24T23:10:33Z</time>
      </trkpt>
      <trkpt lat="47.65467" lon="-0.31082">
        <ele>61</ele>
        <time>2021-03-24T23:10:35Z</time>
      </trkpt>
      <trkpt lat="47.65474" lon="-0.31093">
        <ele>61</ele>
        <time>2021-03-24T23:10:37Z</time>
      </trkpt>
      <trkpt lat="47.65484" lon="-0.31111">
        <ele>61</ele>
        <time>2021-03-24T23:10:39Z</time>
      </trkpt>
      <trkpt lat="47.65494" lon="-0.31132">
        <ele>61</ele>
        <time>2021-03-24T23:10:43Z</time>
      </trkpt>
      <trkpt lat="47.65504" lon="-0.31152">
        <ele>61</ele>
        <time>2021-03-24T23:10:46Z</time>
      </trkpt>
      <trkpt lat="47.65515" lon="-0.31168">
        <ele>61</ele>
        <time>2021-03-24T23:10:48Z</time>
      </trkpt>
      <trkpt lat="47.6553" lon="-0.31193">
        <ele>61</ele>
        <time>2021-03-24T23:10:52Z</time>
      </trkpt>
      <trkpt lat="47.6554" lon="-0.31212">
        <ele>61</ele>
        <time>2021-03-24T23:10:55Z</time>
      </trkpt>
      <trkpt lat="47.65546" lon="-0.31226">
        <ele>61</ele>
        <time>2021-03-24T23:10:57Z</time>
      </trkpt>
      <trkpt lat="47.65551" lon="-0.31243">
        <ele>61</ele>
        <time>2021-03-24T23:10:59Z</time>
      </trkpt>
      <trkpt lat="47.6556" lon="-0.31273">
        <ele>61</ele>
        <time>2021-03-24T23:11:03Z</time>
      </trkpt>
      <trkpt lat="47.65577" lon="-0.31334">
        <ele>60</ele>
        <time>2021-03-24T23:11:11Z</time>
      </trkpt>
      <trkpt lat="47.65594" lon="-0.3139">
        <ele>60</ele>
        <time>2021-03-24T23:11:19Z</time>
      </trkpt>
      <trkpt lat="47.65606" lon="-0.31425">
        <ele>60</ele>
        <time>2021-03-24T23:11:23Z</time>
      </trkpt>
      <trkpt lat="47.65616" lon="-0.3145">
        <ele>60</ele>
        <time>2021-03-24T23:11:27Z</time>
      </trkpt>
      <trkpt lat="47.65626" lon="-0.31476">
        <ele>59</ele>
        <time>2021-03-24T23:11:30Z</time>
      </trkpt>
      <trkpt lat="47.65641" lon="-0.31506">
        <ele>59</ele>
        <time>2021-03-24T23:11:35Z</time>
      </trkpt>
      <trkpt lat="47.65658" lon="-0.31538">
        <ele>59</ele>
        <time>2021-03-24T23:11:40Z</time>
      </trkpt>
      <trkpt lat="47.65669" lon="-0.31556">
        <ele>60</ele>
        <time>2021-03-24T23:11:43Z</time>
      </trkpt>
      <trkpt lat="47.65669" lon="-0.31556">
        <ele>60</ele>
        <time>2021-03-24T23:11:43Z</time>
      </trkpt>
      <trkpt lat="47.65676" lon="-0.31568">
        <ele>60</ele>
        <time>2021-03-24T23:11:45Z</time>
      </trkpt>
      <trkpt lat="47.65689" lon="-0.31587">
        <ele>60</ele>
        <time>2021-03-24T23:11:48Z</time>
      </trkpt>
      <trkpt lat="47.65693" lon="-0.31593">
        <ele>60</ele>
        <time>2021-03-24T23:11:49Z</time>
      </trkpt>
      <trkpt lat="47.65708" lon="-0.31612">
        <ele>60</ele>
        <time>2021-03-24T23:11:52Z</time>
      </trkpt>
      <trkpt lat="47.65724" lon="-0.31628">
        <ele>60</ele>
        <time>2021-03-24T23:11:56Z</time>
      </trkpt>
      <trkpt lat="47.6574" lon="-0.31644">
        <ele>60</ele>
        <time>2021-03-24T23:11:59Z</time>
      </trkpt>
      <trkpt lat="47.65752" lon="-0.31653">
        <ele>60</ele>
        <time>2021-03-24T23:12:02Z</time>
      </trkpt>
      <trkpt lat="47.65764" lon="-0.31661">
        <ele>60</ele>
        <time>2021-03-24T23:12:04Z</time>
      </trkpt>
      <trkpt lat="47.65773" lon="-0.31666">
        <ele>60</ele>
        <time>2021-03-24T23:12:06Z</time>
      </trkpt>
      <trkpt lat="47.65783" lon="-0.3167">
        <ele>60</ele>
        <time>2021-03-24T23:12:07Z</time>
      </trkpt>
      <trkpt lat="47.65804" lon="-0.31678">
        <ele>61</ele>
        <time>2021-03-24T23:12:11Z</time>
      </trkpt>
      <trkpt lat="47.6584" lon="-0.31703">
        <ele>61</ele>
        <time>2021-03-24T23:12:18Z</time>
      </trkpt>
      <trkpt lat="47.65862" lon="-0.31727">
        <ele>60</ele>
        <time>2021-03-24T23:12:23Z</time>
      </trkpt>
      <trkpt lat="47.65896" lon="-0.31769">
        <ele>59</ele>
        <time>2021-03-24T23:12:31Z</time>
      </trkpt>
      <trkpt lat="47.6592" lon="-0.31821">
        <ele>59</ele>
        <time>2021-03-24T23:12:39Z</time>
      </trkpt>
      <trkpt lat="47.65928" lon="-0.31835">
        <ele>59</ele>
        <time>2021-03-24T23:12:41Z</time>
      </trkpt>
      <trkpt lat="47.65936" lon="-0.31846">
        <ele>58</ele>
        <time>2021-03-24T23:12:43Z</time>
      </trkpt>
      <trkpt lat="47.65943" lon="-0.31853">
        <ele>58</ele>
        <time>2021-03-24T23:12:44Z</time>
      </trkpt>
      <trkpt lat="47.65951" lon="-0.31859">
        <ele>58</ele>
        <time>2021-03-24T23:12:46Z</time>
      </trkpt>
      <trkpt lat="47.65959" lon="-0.31865">
        <ele>57</ele>
        <time>2021-03-24T23:12:48Z</time>
      </trkpt>
      <trkpt lat="47.65969" lon="-0.31871">
        <ele>57</ele>
        <time>2021-03-24T23:12:49Z</time>
      </trkpt>
      <trkpt lat="47.6598" lon="-0.31879">
        <ele>57</ele>
        <time>2021-03-24T23:12:52Z</time>
      </trkpt>
      <trkpt lat="47.65995" lon="-0.31888">
        <ele>56</ele>
        <time>2021-03-24T23:12:55Z</time>
      </trkpt>
      <trkpt lat="47.66006" lon="-0.31895">
        <ele>56</ele>
        <time>2021-03-24T23:12:57Z</time>
      </trkpt>
      <trkpt lat="47.66015" lon="-0.31903">
        <ele>56</ele>
        <time>2021-03-24T23:12:59Z</time>
      </trkpt>
      <trkpt lat="47.66027" lon="-0.31914">
        <ele>55</ele>
        <time>2021-03-24T23:13:01Z</time>
      </trkpt>
      <trkpt lat="47.66051" lon="-0.31937">
        <ele>55</ele>
        <time>2021-03-24T23:13:06Z</time>
      </trkpt>
      <trkpt lat="47.66094" lon="-0.31989">
        <ele>53</ele>
        <time>2021-03-24T23:13:16Z</time>
      </trkpt>
      <trkpt lat="47.66108" lon="-0.32007">
        <ele>53</ele>
        <time>2021-03-24T23:13:19Z</time>
      </trkpt>
      <trkpt lat="47.66114" lon="-0.32016">
        <ele>53</ele>
        <time>2021-03-24T23:13:21Z</time>
      </trkpt>
      <trkpt lat="47.6612" lon="-0.32026">
        <ele>53</ele>
        <time>2021-03-24T23:13:22Z</time>
      </trkpt>
      <trkpt lat="47.66124" lon="-0.32033">
        <ele>53</ele>
        <time>2021-03-24T23:13:23Z</time>
      </trkpt>
      <trkpt lat="47.66128" lon="-0.32041">
        <ele>52</ele>
        <time>2021-03-24T23:13:25Z</time>
      </trkpt>
      <trkpt lat="47.66131" lon="-0.32049">
        <ele>52</ele>
        <time>2021-03-24T23:13:26Z</time>
      </trkpt>
      <trkpt lat="47.66135" lon="-0.32064">
        <ele>52</ele>
        <time>2021-03-24T23:13:28Z</time>
      </trkpt>
      <trkpt lat="47.6614" lon="-0.3208">
        <ele>52</ele>
        <time>2021-03-24T23:13:30Z</time>
      </trkpt>
      <trkpt lat="47.66142" lon="-0.32087">
        <ele>52</ele>
        <time>2021-03-24T23:13:31Z</time>
      </trkpt>
      <trkpt lat="47.66144" lon="-0.32097">
        <ele>52</ele>
        <time>2021-03-24T23:13:32Z</time>
      </trkpt>
      <trkpt lat="47.66146" lon="-0.32113">
        <ele>52</ele>
        <time>2021-03-24T23:13:34Z</time>
      </trkpt>
      <trkpt lat="47.6615" lon="-0.32138">
        <ele>52</ele>
        <time>2021-03-24T23:13:37Z</time>
      </trkpt>
      <trkpt lat="47.66156" lon="-0.32173">
        <ele>52</ele>
        <time>2021-03-24T23:13:41Z</time>
      </trkpt>
      <trkpt lat="47.6616" lon="-0.3219">
        <ele>52</ele>
        <time>2021-03-24T23:13:43Z</time>
      </trkpt>
      <trkpt lat="47.66163" lon="-0.32204">
        <ele>52</ele>
        <time>2021-03-24T23:13:45Z</time>
      </trkpt>
      <trkpt lat="47.66167" lon="-0.32219">
        <ele>53</ele>
        <time>2021-03-24T23:13:47Z</time>
      </trkpt>
      <trkpt lat="47.66171" lon="-0.32234">
        <ele>53</ele>
        <time>2021-03-24T23:13:49Z</time>
      </trkpt>
      <trkpt lat="47.66176" lon="-0.32247">
        <ele>53</ele>
        <time>2021-03-24T23:13:51Z</time>
      </trkpt>
      <trkpt lat="47.66183" lon="-0.32262">
        <ele>53</ele>
        <time>2021-03-24T23:13:53Z</time>
      </trkpt>
      <trkpt lat="47.66191" lon="-0.32281">
        <ele>52</ele>
        <time>2021-03-24T23:13:56Z</time>
      </trkpt>
      <trkpt lat="47.66198" lon="-0.32296">
        <ele>52</ele>
        <time>2021-03-24T23:13:58Z</time>
      </trkpt>
      <trkpt lat="47.66208" lon="-0.32313">
        <ele>51</ele>
        <time>2021-03-24T23:14:01Z</time>
      </trkpt>
      <trkpt lat="47.66218" lon="-0.3233">
        <ele>51</ele>
        <time>2021-03-24T23:14:03Z</time>
      </trkpt>
      <trkpt lat="47.66228" lon="-0.32346">
        <ele>50</ele>
        <time>2021-03-24T23:14:06Z</time>
      </trkpt>
      <trkpt lat="47.66237" lon="-0.3236">
        <ele>50</ele>
        <time>2021-03-24T23:14:08Z</time>
      </trkpt>
      <trkpt lat="47.66259" lon="-0.32395">
        <ele>48</ele>
        <time>2021-03-24T23:14:14Z</time>
      </trkpt>
      <trkpt lat="47.66276" lon="-0.32423">
        <ele>48</ele>
        <time>2021-03-24T23:14:19Z</time>
      </trkpt>
      <trkpt lat="47.66311" lon="-0.32476">
        <ele>47</ele>
        <time>2021-03-24T23:14:27Z</time>
      </trkpt>
      <trkpt lat="47.66329" lon="-0.325">
        <ele>46</ele>
        <time>2021-03-24T23:14:32Z</time>
      </trkpt>
      <trkpt lat="47.66352" lon="-0.32525">
        <ele>46</ele>
        <time>2021-03-24T23:14:37Z</time>
      </trkpt>
      <trkpt lat="47.66437" lon="-0.32601">
        <ele>45</ele>
        <time>2021-03-24T23:14:54Z</time>
      </trkpt>
      <trkpt lat="47.6648" lon="-0.32643">
        <ele>46</ele>
        <time>2021-03-24T23:15:04Z</time>
      </trkpt>
      <trkpt lat="47.66528" lon="-0.32701">
        <ele>46</ele>
        <time>2021-03-24T23:15:15Z</time>
      </trkpt>
      <trkpt lat="47.66533" lon="-0.32708">
        <ele>46</ele>
        <time>2021-03-24T23:15:16Z</time>
      </trkpt>
      <trkpt lat="47.66554" lon="-0.32736">
        <ele>45</ele>
        <time>2021-03-24T23:15:21Z</time>
      </trkpt>
      <trkpt lat="47.66576" lon="-0.32774">
        <ele>45</ele>
        <time>2021-03-24T23:15:27Z</time>
      </trkpt>
      <trkpt lat="47.66619" lon="-0.32858">
        <ele>43</ele>
        <time>2021-03-24T23:15:40Z</time>
      </trkpt>
      <trkpt lat="47.66661" lon="-0.32939">
        <ele>41</ele>
        <time>2021-03-24T23:15:52Z</time>
      </trkpt>
      <trkpt lat="47.66696" lon="-0.3301">
        <ele>42</ele>
        <time>2021-03-24T23:16:02Z</time>
      </trkpt>
      <trkpt lat="47.66731" lon="-0.3308">
        <ele>41</ele>
        <time>2021-03-24T23:16:13Z</time>
      </trkpt>
      <trkpt lat="47.66796" lon="-0.33209">
        <ele>42</ele>
        <time>2021-03-24T23:16:32Z</time>
      </trkpt>
      <trkpt lat="47.66845" lon="-0.33305">
        <ele>45</ele>
        <time>2021-03-24T23:16:47Z</time>
      </trkpt>
      <trkpt lat="47.66866" lon="-0.33347">
        <ele>48</ele>
        <time>2021-03-24T23:16:53Z</time>
      </trkpt>
      <trkpt lat="47.66876" lon="-0.33376">
        <ele>49</ele>
        <time>2021-03-24T23:16:57Z</time>
      </trkpt>
      <trkpt lat="47.66883" lon="-0.33422">
        <ele>50</ele>
        <time>2021-03-24T23:17:02Z</time>
      </trkpt>
      <trkpt lat="47.66898" lon="-0.33544">
        <ele>52</ele>
        <time>2021-03-24T23:17:17Z</time>
      </trkpt>
      <trkpt lat="47.66908" lon="-0.33625">
        <ele>53</ele>
        <time>2021-03-24T23:17:27Z</time>
      </trkpt>
      <trkpt lat="47.66928" lon="-0.33781">
        <ele>55</ele>
        <time>2021-03-24T23:17:46Z</time>
      </trkpt>
      <trkpt lat="47.66929" lon="-0.33809">
        <ele>54</ele>
        <time>2021-03-24T23:17:49Z</time>
      </trkpt>
      <trkpt lat="47.6695" lon="-0.33982">
        <ele>47</ele>
        <time>2021-03-24T23:18:11Z</time>
      </trkpt>
      <trkpt lat="47.6697" lon="-0.34151">
        <ele>40</ele>
        <time>2021-03-24T23:18:31Z</time>
      </trkpt>
      <trkpt lat="47.66977" lon="-0.34216">
        <ele>40</ele>
        <time>2021-03-24T23:18:39Z</time>
      </trkpt>
      <trkpt lat="47.66986" lon="-0.3429">
        <ele>39</ele>
        <time>2021-03-24T23:18:48Z</time>
      </trkpt>
      <trkpt lat="47.66993" lon="-0.34346">
        <ele>37</ele>
        <time>2021-03-24T23:18:55Z</time>
      </trkpt>
      <trkpt lat="47.67008" lon="-0.34478">
        <ele>37</ele>
        <time>2021-03-24T23:19:11Z</time>
      </trkpt>
      <trkpt lat="47.67016" lon="-0.34513">
        <ele>36</ele>
        <time>2021-03-24T23:19:15Z</time>
      </trkpt>
      <trkpt lat="47.67026" lon="-0.34542">
        <ele>36</ele>
        <time>2021-03-24T23:19:19Z</time>
      </trkpt>
      <trkpt lat="47.6705" lon="-0.34598">
        <ele>35</ele>
        <time>2021-03-24T23:19:27Z</time>
      </trkpt>
      <trkpt lat="47.67054" lon="-0.3461">
        <ele>35</ele>
        <time>2021-03-24T23:19:29Z</time>
      </trkpt>
      <trkpt lat="47.67059" lon="-0.34621">
        <ele>35</ele>
        <time>2021-03-24T23:19:30Z</time>
      </trkpt>
      <trkpt lat="47.67104" lon="-0.3473">
        <ele>35</ele>
        <time>2021-03-24T23:19:46Z</time>
      </trkpt>
      <trkpt lat="47.67152" lon="-0.34847">
        <ele>37</ele>
        <time>2021-03-24T23:20:02Z</time>
      </trkpt>
      <trkpt lat="47.67161" lon="-0.34868">
        <ele>37</ele>
        <time>2021-03-24T23:20:05Z</time>
      </trkpt>
      <trkpt lat="47.6721" lon="-0.34981">
        <ele>37</ele>
        <time>2021-03-24T23:20:21Z</time>
      </trkpt>
      <trkpt lat="47.67211" lon="-0.34983">
        <ele>37</ele>
        <time>2021-03-24T23:20:21Z</time>
      </trkpt>
      <trkpt lat="47.67213" lon="-0.34985">
        <ele>37</ele>
        <time>2021-03-24T23:20:22Z</time>
      </trkpt>
      <trkpt lat="47.67217" lon="-0.34987">
        <ele>37</ele>
        <time>2021-03-24T23:20:23Z</time>
      </trkpt>
      <trkpt lat="47.67221" lon="-0.34987">
        <ele>37</ele>
        <time>2021-03-24T23:20:23Z</time>
      </trkpt>
      <trkpt lat="47.67224" lon="-0.34986">
        <ele>37</ele>
        <time>2021-03-24T23:20:24Z</time>
      </trkpt>
      <trkpt lat="47.67227" lon="-0.34984">
        <ele>36</ele>
        <time>2021-03-24T23:20:24Z</time>
      </trkpt>
      <trkpt lat="47.67231" lon="-0.34981">
        <ele>36</ele>
        <time>2021-03-24T23:20:25Z</time>
      </trkpt>
      <trkpt lat="47.67462" lon="-0.34766">
        <ele>33</ele>
        <time>2021-03-24T23:21:14Z</time>
      </trkpt>
      <trkpt lat="47.67477" lon="-0.34753">
        <ele>32</ele>
        <time>2021-03-24T23:21:17Z</time>
      </trkpt>
      <trkpt lat="47.67487" lon="-0.34753">
        <ele>32</ele>
        <time>2021-03-24T23:21:19Z</time>
      </trkpt>
      <trkpt lat="47.67495" lon="-0.34755">
        <ele>31</ele>
        <time>2021-03-24T23:21:20Z</time>
      </trkpt>
      <trkpt lat="47.67507" lon="-0.34764">
        <ele>31</ele>
        <time>2021-03-24T23:21:22Z</time>
      </trkpt>
      <trkpt lat="47.67558" lon="-0.34824">
        <ele>29</ele>
        <time>2021-03-24T23:21:34Z</time>
      </trkpt>
      <trkpt lat="47.67583" lon="-0.34851">
        <ele>29</ele>
        <time>2021-03-24T23:21:40Z</time>
      </trkpt>
      <trkpt lat="47.67598" lon="-0.34864">
        <ele>29</ele>
        <time>2021-03-24T23:21:43Z</time>
      </trkpt>
      <trkpt lat="47.67609" lon="-0.3487">
        <ele>29</ele>
        <time>2021-03-24T23:21:45Z</time>
      </trkpt>
      <trkpt lat="47.67618" lon="-0.34873">
        <ele>29</ele>
        <time>2021-03-24T23:21:46Z</time>
      </trkpt>
      <trkpt lat="47.67623" lon="-0.34874">
        <ele>29</ele>
        <time>2021-03-24T23:21:47Z</time>
      </trkpt>
      <trkpt lat="47.67628" lon="-0.34875">
        <ele>30</ele>
        <time>2021-03-24T23:21:48Z</time>
      </trkpt>
      <trkpt lat="47.67634" lon="-0.34876">
        <ele>30</ele>
        <time>2021-03-24T23:21:49Z</time>
      </trkpt>
      <trkpt lat="47.67642" lon="-0.34877">
        <ele>30</ele>
        <time>2021-03-24T23:21:51Z</time>
      </trkpt>
      <trkpt lat="47.67649" lon="-0.34877">
        <ele>30</ele>
        <time>2021-03-24T23:21:52Z</time>
      </trkpt>
      <trkpt lat="47.67655" lon="-0.34879">
        <ele>30</ele>
        <time>2021-03-24T23:21:53Z</time>
      </trkpt>
      <trkpt lat="47.67661" lon="-0.3488">
        <ele>30</ele>
        <time>2021-03-24T23:21:54Z</time>
      </trkpt>
      <trkpt lat="47.67663" lon="-0.3488">
        <ele>30</ele>
        <time>2021-03-24T23:21:54Z</time>
      </trkpt>
      <trkpt lat="47.67668" lon="-0.34883">
        <ele>30</ele>
        <time>2021-03-24T23:21:55Z</time>
      </trkpt>
      <trkpt lat="47.6768" lon="-0.34892">
        <ele>30</ele>
        <time>2021-03-24T23:21:58Z</time>
      </trkpt>
      <trkpt lat="47.67698" lon="-0.34911">
        <ele>30</ele>
        <time>2021-03-24T23:22:02Z</time>
      </trkpt>
      <trkpt lat="47.6771" lon="-0.34922">
        <ele>30</ele>
        <time>2021-03-24T23:22:04Z</time>
      </trkpt>
      <trkpt lat="47.67725" lon="-0.34934">
        <ele>30</ele>
        <time>2021-03-24T23:22:07Z</time>
      </trkpt>
      <trkpt lat="47.67739" lon="-0.34943">
        <ele>30</ele>
        <time>2021-03-24T23:22:10Z</time>
      </trkpt>
      <trkpt lat="47.67764" lon="-0.34954">
        <ele>31</ele>
        <time>2021-03-24T23:22:15Z</time>
      </trkpt>
      <trkpt lat="47.67793" lon="-0.34966">
        <ele>31</ele>
        <time>2021-03-24T23:22:20Z</time>
      </trkpt>
      <trkpt lat="47.67809" lon="-0.34973">
        <ele>32</ele>
        <time>2021-03-24T23:22:23Z</time>
      </trkpt>
      <trkpt lat="47.67829" lon="-0.34982">
        <ele>33</ele>
        <time>2021-03-24T23:22:27Z</time>
      </trkpt>
      <trkpt lat="47.67855" lon="-0.34995">
        <ele>33</ele>
        <time>2021-03-24T23:22:32Z</time>
      </trkpt>
      <trkpt lat="47.67882" lon="-0.35009">
        <ele>33</ele>
        <time>2021-03-24T23:22:37Z</time>
      </trkpt>
      <trkpt lat="47.6791" lon="-0.35025">
        <ele>33</ele>
        <time>2021-03-24T23:22:42Z</time>
      </trkpt>
      <trkpt lat="47.67945" lon="-0.35047">
        <ele>33</ele>
        <time>2021-03-24T23:22:49Z</time>
      </trkpt>
      <trkpt lat="47.67976" lon="-0.35064">
        <ele>33</ele>
        <time>2021-03-24T23:22:55Z</time>
      </trkpt>
      <trkpt lat="47.67995" lon="-0.3507">
        <ele>33</ele>
        <time>2021-03-24T23:22:58Z</time>
      </trkpt>
      <trkpt lat="47.6801" lon="-0.35074">
        <ele>33</ele>
        <time>2021-03-24T23:23:01Z</time>
      </trkpt>
      <trkpt lat="47.68021" lon="-0.35075">
        <ele>33</ele>
        <time>2021-03-24T23:23:03Z</time>
      </trkpt>
      <trkpt lat="47.68034" lon="-0.35073">
        <ele>33</ele>
        <time>2021-03-24T23:23:05Z</time>
      </trkpt>
      <trkpt lat="47.68056" lon="-0.35072">
        <ele>33</ele>
        <time>2021-03-24T23:23:09Z</time>
      </trkpt>
      <trkpt lat="47.68076" lon="-0.35073">
        <ele>33</ele>
        <time>2021-03-24T23:23:13Z</time>
      </trkpt>
      <trkpt lat="47.68105" lon="-0.35076">
        <ele>33</ele>
        <time>2021-03-24T23:23:18Z</time>
      </trkpt>
      <trkpt lat="47.68148" lon="-0.3508">
        <ele>34</ele>
        <time>2021-03-24T23:23:25Z</time>
      </trkpt>
      <trkpt lat="47.68178" lon="-0.35085">
        <ele>34</ele>
        <time>2021-03-24T23:23:31Z</time>
      </trkpt>
      <trkpt lat="47.68185" lon="-0.35087">
        <ele>34</ele>
        <time>2021-03-24T23:23:32Z</time>
      </trkpt>
      <trkpt lat="47.68204" lon="-0.35091">
        <ele>35</ele>
        <time>2021-03-24T23:23:35Z</time>
      </trkpt>
      <trkpt lat="47.68221" lon="-0.35097">
        <ele>35</ele>
        <time>2021-03-24T23:23:39Z</time>
      </trkpt>
      <trkpt lat="47.68227" lon="-0.351">
        <ele>35</ele>
        <time>2021-03-24T23:23:40Z</time>
      </trkpt>
      <trkpt lat="47.68236" lon="-0.35106">
        <ele>36</ele>
        <time>2021-03-24T23:23:41Z</time>
      </trkpt>
      <trkpt lat="47.68243" lon="-0.35112">
        <ele>36</ele>
        <time>2021-03-24T23:23:43Z</time>
      </trkpt>
      <trkpt lat="47.68251" lon="-0.35121">
        <ele>36</ele>
        <time>2021-03-24T23:23:45Z</time>
      </trkpt>
      <trkpt lat="47.68259" lon="-0.35131">
        <ele>36</ele>
        <time>2021-03-24T23:23:47Z</time>
      </trkpt>
      <trkpt lat="47.68276" lon="-0.35156">
        <ele>35</ele>
        <time>2021-03-24T23:23:51Z</time>
      </trkpt>
      <trkpt lat="47.68292" lon="-0.35178">
        <ele>35</ele>
        <time>2021-03-24T23:23:55Z</time>
      </trkpt>
      <trkpt lat="47.68305" lon="-0.35195">
        <ele>35</ele>
        <time>2021-03-24T23:23:58Z</time>
      </trkpt>
      <trkpt lat="47.68313" lon="-0.35204">
        <ele>35</ele>
        <time>2021-03-24T23:24:00Z</time>
      </trkpt>
      <trkpt lat="47.68321" lon="-0.35212">
        <ele>35</ele>
        <time>2021-03-24T23:24:01Z</time>
      </trkpt>
      <trkpt lat="47.68335" lon="-0.35224">
        <ele>35</ele>
        <time>2021-03-24T23:24:04Z</time>
      </trkpt>
      <trkpt lat="47.6835" lon="-0.35238">
        <ele>35</ele>
        <time>2021-03-24T23:24:07Z</time>
      </trkpt>
      <trkpt lat="47.6836" lon="-0.35249">
        <ele>35</ele>
        <time>2021-03-24T23:24:09Z</time>
      </trkpt>
      <trkpt lat="47.68375" lon="-0.35272">
        <ele>34</ele>
        <time>2021-03-24T23:24:13Z</time>
      </trkpt>
      <trkpt lat="47.68391" lon="-0.35298">
        <ele>34</ele>
        <time>2021-03-24T23:24:18Z</time>
      </trkpt>
      <trkpt lat="47.68415" lon="-0.35338">
        <ele>34</ele>
        <time>2021-03-24T23:24:24Z</time>
      </trkpt>
      <trkpt lat="47.68432" lon="-0.35368">
        <ele>34</ele>
        <time>2021-03-24T23:24:29Z</time>
      </trkpt>
      <trkpt lat="47.68445" lon="-0.35391">
        <ele>33</ele>
        <time>2021-03-24T23:24:32Z</time>
      </trkpt>
      <trkpt lat="47.68455" lon="-0.35407">
        <ele>33</ele>
        <time>2021-03-24T23:24:35Z</time>
      </trkpt>
      <trkpt lat="47.6847" lon="-0.35421">
        <ele>34</ele>
        <time>2021-03-24T23:24:38Z</time>
      </trkpt>
      <trkpt lat="47.68498" lon="-0.35443">
        <ele>34</ele>
        <time>2021-03-24T23:24:44Z</time>
      </trkpt>
      <trkpt lat="47.68509" lon="-0.35452">
        <ele>35</ele>
        <time>2021-03-24T23:24:46Z</time>
      </trkpt>
      <trkpt lat="47.6855" lon="-0.35485">
        <ele>35</ele>
        <time>2021-03-24T23:24:54Z</time>
      </trkpt>
      <trkpt lat="47.68587" lon="-0.35514">
        <ele>36</ele>
        <time>2021-03-24T23:25:02Z</time>
      </trkpt>
      <trkpt lat="47.68598" lon="-0.35523">
        <ele>36</ele>
        <time>2021-03-24T23:25:04Z</time>
      </trkpt>
      <trkpt lat="47.68609" lon="-0.3553">
        <ele>36</ele>
        <time>2021-03-24T23:25:06Z</time>
      </trkpt>
      <trkpt lat="47.6863" lon="-0.35542">
        <ele>36</ele>
        <time>2021-03-24T23:25:10Z</time>
      </trkpt>
      <trkpt lat="47.68665" lon="-0.3556">
        <ele>36</ele>
        <time>2021-03-24T23:25:17Z</time>
      </trkpt>
      <trkpt lat="47.68689" lon="-0.35573">
        <ele>36</ele>
        <time>2021-03-24T23:25:21Z</time>
      </trkpt>
      <trkpt lat="47.68709" lon="-0.35584">
        <ele>35</ele>
        <time>2021-03-24T23:25:25Z</time>
      </trkpt>
      <trkpt lat="47.68723" lon="-0.35594">
        <ele>35</ele>
        <time>2021-03-24T23:25:28Z</time>
      </trkpt>
      <trkpt lat="47.68738" lon="-0.35607">
        <ele>35</ele>
        <time>2021-03-24T23:25:31Z</time>
      </trkpt>
      <trkpt lat="47.68763" lon="-0.35631">
        <ele>36</ele>
        <time>2021-03-24T23:25:36Z</time>
      </trkpt>
      <trkpt lat="47.68794" lon="-0.35662">
        <ele>37</ele>
        <time>2021-03-24T23:25:43Z</time>
      </trkpt>
      <trkpt lat="47.68822" lon="-0.3569">
        <ele>38</ele>
        <time>2021-03-24T23:25:49Z</time>
      </trkpt>
      <trkpt lat="47.68853" lon="-0.35722">
        <ele>40</ele>
        <time>2021-03-24T23:25:55Z</time>
      </trkpt>
      <trkpt lat="47.68877" lon="-0.35747">
        <ele>42</ele>
        <time>2021-03-24T23:26:01Z</time>
      </trkpt>
      <trkpt lat="47.68891" lon="-0.35763">
        <ele>42</ele>
        <time>2021-03-24T23:26:04Z</time>
      </trkpt>
      <trkpt lat="47.68898" lon="-0.35769">
        <ele>42</ele>
        <time>2021-03-24T23:26:05Z</time>
      </trkpt>
      <trkpt lat="47.68914" lon="-0.35785">
        <ele>43</ele>
        <time>2021-03-24T23:26:09Z</time>
      </trkpt>
      <trkpt lat="47.68928" lon="-0.35795">
        <ele>42</ele>
        <time>2021-03-24T23:26:11Z</time>
      </trkpt>
      <trkpt lat="47.68954" lon="-0.3581">
        <ele>42</ele>
        <time>2021-03-24T23:26:16Z</time>
      </trkpt>
      <trkpt lat="47.68984" lon="-0.35829">
        <ele>41</ele>
        <time>2021-03-24T23:26:22Z</time>
      </trkpt>
      <trkpt lat="47.69012" lon="-0.35844">
        <ele>41</ele>
        <time>2021-03-24T23:26:27Z</time>
      </trkpt>
      <trkpt lat="47.69046" lon="-0.35865">
        <ele>42</ele>
        <time>2021-03-24T23:26:34Z</time>
      </trkpt>
      <trkpt lat="47.69064" lon="-0.35878">
        <ele>42</ele>
        <time>2021-03-24T23:26:38Z</time>
      </trkpt>
      <trkpt lat="47.69069" lon="-0.35881">
        <ele>42</ele>
        <time>2021-03-24T23:26:39Z</time>
      </trkpt>
      <trkpt lat="47.69085" lon="-0.35891">
        <ele>43</ele>
        <time>2021-03-24T23:26:42Z</time>
      </trkpt>
      <trkpt lat="47.691" lon="-0.35902">
        <ele>43</ele>
        <time>2021-03-24T23:26:45Z</time>
      </trkpt>
      <trkpt lat="47.69104" lon="-0.35904">
        <ele>43</ele>
        <time>2021-03-24T23:26:45Z</time>
      </trkpt>
      <trkpt lat="47.69109" lon="-0.35908">
        <ele>43</ele>
        <time>2021-03-24T23:26:46Z</time>
      </trkpt>
      <trkpt lat="47.69125" lon="-0.35919">
        <ele>43</ele>
        <time>2021-03-24T23:26:50Z</time>
      </trkpt>
      <trkpt lat="47.69144" lon="-0.35934">
        <ele>43</ele>
        <time>2021-03-24T23:26:53Z</time>
      </trkpt>
      <trkpt lat="47.69148" lon="-0.35937">
        <ele>43</ele>
        <time>2021-03-24T23:26:54Z</time>
      </trkpt>
      <trkpt lat="47.69168" lon="-0.35953">
        <ele>44</ele>
        <time>2021-03-24T23:26:58Z</time>
      </trkpt>
      <trkpt lat="47.69185" lon="-0.35966">
        <ele>44</ele>
        <time>2021-03-24T23:27:02Z</time>
      </trkpt>
      <trkpt lat="47.69204" lon="-0.35979">
        <ele>44</ele>
        <time>2021-03-24T23:27:05Z</time>
      </trkpt>
      <trkpt lat="47.69221" lon="-0.35988">
        <ele>45</ele>
        <time>2021-03-24T23:27:09Z</time>
      </trkpt>
      <trkpt lat="47.6924" lon="-0.35999">
        <ele>46</ele>
        <time>2021-03-24T23:27:12Z</time>
      </trkpt>
      <trkpt lat="47.69261" lon="-0.36012">
        <ele>46</ele>
        <time>2021-03-24T23:27:16Z</time>
      </trkpt>
      <trkpt lat="47.69284" lon="-0.36028">
        <ele>46</ele>
        <time>2021-03-24T23:27:21Z</time>
      </trkpt>
      <trkpt lat="47.69308" lon="-0.36048">
        <ele>46</ele>
        <time>2021-03-24T23:27:26Z</time>
      </trkpt>
      <trkpt lat="47.69334" lon="-0.3607">
        <ele>46</ele>
        <time>2021-03-24T23:27:31Z</time>
      </trkpt>
      <trkpt lat="47.6936" lon="-0.36094">
        <ele>45</ele>
        <time>2021-03-24T23:27:36Z</time>
      </trkpt>
      <trkpt lat="47.69392" lon="-0.36122">
        <ele>43</ele>
        <time>2021-03-24T23:27:43Z</time>
      </trkpt>
      <trkpt lat="47.69417" lon="-0.36142">
        <ele>41</ele>
        <time>2021-03-24T23:27:48Z</time>
      </trkpt>
      <trkpt lat="47.69427" lon="-0.3615">
        <ele>41</ele>
        <time>2021-03-24T23:27:50Z</time>
      </trkpt>
      <trkpt lat="47.69456" lon="-0.36167">
        <ele>41</ele>
        <time>2021-03-24T23:27:56Z</time>
      </trkpt>
      <trkpt lat="47.69483" lon="-0.36184">
        <ele>40</ele>
        <time>2021-03-24T23:28:01Z</time>
      </trkpt>
      <trkpt lat="47.69512" lon="-0.36202">
        <ele>40</ele>
        <time>2021-03-24T23:28:06Z</time>
      </trkpt>
      <trkpt lat="47.69519" lon="-0.36205">
        <ele>40</ele>
        <time>2021-03-24T23:28:08Z</time>
      </trkpt>
      <trkpt lat="47.69536" lon="-0.36216">
        <ele>40</ele>
        <time>2021-03-24T23:28:11Z</time>
      </trkpt>
      <trkpt lat="47.6956" lon="-0.36229">
        <ele>39</ele>
        <time>2021-03-24T23:28:16Z</time>
      </trkpt>
      <trkpt lat="47.69573" lon="-0.36236">
        <ele>39</ele>
        <time>2021-03-24T23:28:18Z</time>
      </trkpt>
      <trkpt lat="47.69577" lon="-0.36238">
        <ele>39</ele>
        <time>2021-03-24T23:28:19Z</time>
      </trkpt>
      <trkpt lat="47.69599" lon="-0.36244">
        <ele>39</ele>
        <time>2021-03-24T23:28:23Z</time>
      </trkpt>
      <trkpt lat="47.69621" lon="-0.36248">
        <ele>40</ele>
        <time>2021-03-24T23:28:27Z</time>
      </trkpt>
      <trkpt lat="47.69651" lon="-0.36253">
        <ele>41</ele>
        <time>2021-03-24T23:28:32Z</time>
      </trkpt>
      <trkpt lat="47.6968" lon="-0.36254">
        <ele>41</ele>
        <time>2021-03-24T23:28:37Z</time>
      </trkpt>
      <trkpt lat="47.69696" lon="-0.36254">
        <ele>41</ele>
        <time>2021-03-24T23:28:40Z</time>
      </trkpt>
      <trkpt lat="47.69708" lon="-0.36254">
        <ele>40</ele>
        <time>2021-03-24T23:28:42Z</time>
      </trkpt>
      <trkpt lat="47.69725" lon="-0.36249">
        <ele>40</ele>
        <time>2021-03-24T23:28:45Z</time>
      </trkpt>
      <trkpt lat="47.69734" lon="-0.36247">
        <ele>40</ele>
        <time>2021-03-24T23:28:47Z</time>
      </trkpt>
      <trkpt lat="47.69734" lon="-0.36247">
        <ele>40</ele>
        <time>2021-03-24T23:28:47Z</time>
      </trkpt>
      <trkpt lat="47.69755" lon="-0.36168">
        <ele>41</ele>
        <time>2021-03-24T23:28:57Z</time>
      </trkpt>
      <trkpt lat="47.69761" lon="-0.36148">
        <ele>41</ele>
        <time>2021-03-24T23:29:00Z</time>
      </trkpt>
      <trkpt lat="47.6977" lon="-0.36108">
        <ele>42</ele>
        <time>2021-03-24T23:29:05Z</time>
      </trkpt>
      <trkpt lat="47.69779" lon="-0.36064">
        <ele>43</ele>
        <time>2021-03-24T23:29:10Z</time>
      </trkpt>
      <trkpt lat="47.69786" lon="-0.36039">
        <ele>43</ele>
        <time>2021-03-24T23:29:14Z</time>
      </trkpt>
      <trkpt lat="47.69794" lon="-0.3602">
        <ele>43</ele>
        <time>2021-03-24T23:29:16Z</time>
      </trkpt>
      <trkpt lat="47.69795" lon="-0.36018">
        <ele>44</ele>
        <time>2021-03-24T23:29:17Z</time>
      </trkpt>
      <trkpt lat="47.69813" lon="-0.35989">
        <ele>44</ele>
        <time>2021-03-24T23:29:21Z</time>
      </trkpt>
      <trkpt lat="47.69846" lon="-0.35943">
        <ele>45</ele>
        <time>2021-03-24T23:29:29Z</time>
      </trkpt>
      <trkpt lat="47.69873" lon="-0.35903">
        <ele>45</ele>
        <time>2021-03-24T23:29:36Z</time>
      </trkpt>
      <trkpt lat="47.69873" lon="-0.35903">
        <ele>45</ele>
        <time>2021-03-24T23:29:36Z</time>
      </trkpt>
      <trkpt lat="47.69903" lon="-0.35984">
        <ele>46</ele>
        <time>2021-03-24T23:29:47Z</time>
      </trkpt>
      <trkpt lat="47.69932" lon="-0.36064">
        <ele>45</ele>
        <time>2021-03-24T23:29:58Z</time>
      </trkpt>
      <trkpt lat="47.69977" lon="-0.36189">
        <ele>44</ele>
        <time>2021-03-24T23:30:15Z</time>
      </trkpt>
      <trkpt lat="47.70022" lon="-0.36311">
        <ele>44</ele>
        <time>2021-03-24T23:30:32Z</time>
      </trkpt>
      <trkpt lat="47.7003" lon="-0.36334">
        <ele>44</ele>
        <time>2021-03-24T23:30:35Z</time>
      </trkpt>
      <trkpt lat="47.70033" lon="-0.36342">
        <ele>44</ele>
        <time>2021-03-24T23:30:36Z</time>
      </trkpt>
      <trkpt lat="47.70035" lon="-0.36348">
        <ele>44</ele>
        <time>2021-03-24T23:30:37Z</time>
      </trkpt>
      <trkpt lat="47.70036" lon="-0.36356">
        <ele>43</ele>
        <time>2021-03-24T23:30:38Z</time>
      </trkpt>
      <trkpt lat="47.70036" lon="-0.36356">
        <ele>43</ele>
        <time>2021-03-24T23:30:38Z</time>
      </trkpt>
      <trkpt lat="47.70067" lon="-0.36367">
        <ele>43</ele>
        <time>2021-03-24T23:30:43Z</time>
      </trkpt>
      <trkpt lat="47.70076" lon="-0.3637">
        <ele>43</ele>
        <time>2021-03-24T23:30:45Z</time>
      </trkpt>
      <trkpt lat="47.7008" lon="-0.36371">
        <ele>43</ele>
        <time>2021-03-24T23:30:46Z</time>
      </trkpt>
      <trkpt lat="47.70082" lon="-0.36372">
        <ele>43</ele>
        <time>2021-03-24T23:30:46Z</time>
      </trkpt>
      <trkpt lat="47.70088" lon="-0.36373">
        <ele>43</ele>
        <time>2021-03-24T23:30:47Z</time>
      </trkpt>
      <trkpt lat="47.70097" lon="-0.36375">
        <ele>43</ele>
        <time>2021-03-24T23:30:49Z</time>
      </trkpt>
      <trkpt lat="47.70103" lon="-0.36376">
        <ele>43</ele>
        <time>2021-03-24T23:30:50Z</time>
      </trkpt>
      <trkpt lat="47.70109" lon="-0.36376">
        <ele>44</ele>
        <time>2021-03-24T23:30:51Z</time>
      </trkpt>
      <trkpt lat="47.70121" lon="-0.36376">
        <ele>44</ele>
        <time>2021-03-24T23:30:53Z</time>
      </trkpt>
      <trkpt lat="47.70133" lon="-0.36374">
        <ele>44</ele>
        <time>2021-03-24T23:30:55Z</time>
      </trkpt>
      <trkpt lat="47.70151" lon="-0.36371">
        <ele>45</ele>
        <time>2021-03-24T23:30:58Z</time>
      </trkpt>
      <trkpt lat="47.70161" lon="-0.3637">
        <ele>45</ele>
        <time>2021-03-24T23:31:00Z</time>
      </trkpt>
      <trkpt lat="47.70177" lon="-0.36369">
        <ele>45</ele>
        <time>2021-03-24T23:31:03Z</time>
      </trkpt>
      <trkpt lat="47.70179" lon="-0.36369">
        <ele>45</ele>
        <time>2021-03-24T23:31:03Z</time>
      </trkpt>
      <trkpt lat="47.70187" lon="-0.36372">
        <ele>45</ele>
        <time>2021-03-24T23:31:05Z</time>
      </trkpt>
      <trkpt lat="47.70194" lon="-0.36374">
        <ele>46</ele>
        <time>2021-03-24T23:31:06Z</time>
      </trkpt>
      <trkpt lat="47.70199" lon="-0.36376">
        <ele>46</ele>
        <time>2021-03-24T23:31:07Z</time>
      </trkpt>
      <trkpt lat="47.70208" lon="-0.36383">
        <ele>46</ele>
        <time>2021-03-24T23:31:09Z</time>
      </trkpt>
      <trkpt lat="47.70238" lon="-0.36404">
        <ele>46</ele>
        <time>2021-03-24T23:31:15Z</time>
      </trkpt>
      <trkpt lat="47.70272" lon="-0.36426">
        <ele>46</ele>
        <time>2021-03-24T23:31:21Z</time>
      </trkpt>
      <trkpt lat="47.70288" lon="-0.36437">
        <ele>47</ele>
        <time>2021-03-24T23:31:24Z</time>
      </trkpt>
      <trkpt lat="47.70297" lon="-0.36444">
        <ele>47</ele>
        <time>2021-03-24T23:31:26Z</time>
      </trkpt>
      <trkpt lat="47.70313" lon="-0.36455">
        <ele>47</ele>
        <time>2021-03-24T23:31:29Z</time>
      </trkpt>
      <trkpt lat="47.70322" lon="-0.36461">
        <ele>47</ele>
        <time>2021-03-24T23:31:31Z</time>
      </trkpt>
      <trkpt lat="47.70329" lon="-0.36466">
        <ele>48</ele>
        <time>2021-03-24T23:31:33Z</time>
      </trkpt>
      <trkpt lat="47.70336" lon="-0.36471">
        <ele>48</ele>
        <time>2021-03-24T23:31:34Z</time>
      </trkpt>
      <trkpt lat="47.7034" lon="-0.36474">
        <ele>48</ele>
        <time>2021-03-24T23:31:35Z</time>
      </trkpt>
      <trkpt lat="47.70344" lon="-0.36478">
        <ele>47</ele>
        <time>2021-03-24T23:31:36Z</time>
      </trkpt>
      <trkpt lat="47.70348" lon="-0.36481">
        <ele>47</ele>
        <time>2021-03-24T23:31:36Z</time>
      </trkpt>
      <trkpt lat="47.70351" lon="-0.36484">
        <ele>47</ele>
        <time>2021-03-24T23:31:37Z</time>
      </trkpt>
      <trkpt lat="47.70356" lon="-0.36489">
        <ele>47</ele>
        <time>2021-03-24T23:31:38Z</time>
      </trkpt>
      <trkpt lat="47.7036" lon="-0.36494">
        <ele>47</ele>
        <time>2021-03-24T23:31:39Z</time>
      </trkpt>
      <trkpt lat="47.70372" lon="-0.36506">
        <ele>46</ele>
        <time>2021-03-24T23:31:42Z</time>
      </trkpt>
      <trkpt lat="47.70381" lon="-0.36516">
        <ele>45</ele>
        <time>2021-03-24T23:31:44Z</time>
      </trkpt>
      <trkpt lat="47.704" lon="-0.36537">
        <ele>44</ele>
        <time>2021-03-24T23:31:48Z</time>
      </trkpt>
      <trkpt lat="47.70435" lon="-0.36575">
        <ele>42</ele>
        <time>2021-03-24T23:31:56Z</time>
      </trkpt>
      <trkpt lat="47.70461" lon="-0.36603">
        <ele>41</ele>
        <time>2021-03-24T23:32:01Z</time>
      </trkpt>
      <trkpt lat="47.705" lon="-0.36646">
        <ele>39</ele>
        <time>2021-03-24T23:32:10Z</time>
      </trkpt>
      <trkpt lat="47.70543" lon="-0.36692">
        <ele>39</ele>
        <time>2021-03-24T23:32:19Z</time>
      </trkpt>
      <trkpt lat="47.70589" lon="-0.36741">
        <ele>40</ele>
        <time>2021-03-24T23:32:29Z</time>
      </trkpt>
      <trkpt lat="47.70677" lon="-0.36836">
        <ele>38</ele>
        <time>2021-03-24T23:32:49Z</time>
      </trkpt>
      <trkpt lat="47.70744" lon="-0.36908">
        <ele>39</ele>
        <time>2021-03-24T23:33:03Z</time>
      </trkpt>
      <trkpt lat="47.70818" lon="-0.36988">
        <ele>40</ele>
        <time>2021-03-24T23:33:20Z</time>
      </trkpt>
      <trkpt lat="47.70822" lon="-0.36992">
        <ele>40</ele>
        <time>2021-03-24T23:33:21Z</time>
      </trkpt>
      <trkpt lat="47.70875" lon="-0.37049">
        <ele>40</ele>
        <time>2021-03-24T23:33:32Z</time>
      </trkpt>
      <trkpt lat="47.70932" lon="-0.3711">
        <ele>39</ele>
        <time>2021-03-24T23:33:45Z</time>
      </trkpt>
      <trkpt lat="47.70961" lon="-0.37141">
        <ele>38</ele>
        <time>2021-03-24T23:33:51Z</time>
      </trkpt>
      <trkpt lat="47.70968" lon="-0.37148">
        <ele>37</ele>
        <time>2021-03-24T23:33:53Z</time>
      </trkpt>
      <trkpt lat="47.70978" lon="-0.3716">
        <ele>37</ele>
        <time>2021-03-24T23:33:55Z</time>
      </trkpt>
      <trkpt lat="47.71027" lon="-0.37213">
        <ele>36</ele>
        <time>2021-03-24T23:34:06Z</time>
      </trkpt>
      <trkpt lat="47.71078" lon="-0.37268">
        <ele>37</ele>
        <time>2021-03-24T23:34:17Z</time>
      </trkpt>
      <trkpt lat="47.71082" lon="-0.37273">
        <ele>37</ele>
        <time>2021-03-24T23:34:18Z</time>
      </trkpt>
      <trkpt lat="47.71118" lon="-0.37313">
        <ele>37</ele>
        <time>2021-03-24T23:34:26Z</time>
      </trkpt>
      <trkpt lat="47.71238" lon="-0.37442">
        <ele>37</ele>
        <time>2021-03-24T23:34:52Z</time>
      </trkpt>
      <trkpt lat="47.71271" lon="-0.37478">
        <ele>39</ele>
        <time>2021-03-24T23:34:59Z</time>
      </trkpt>
      <trkpt lat="47.7131" lon="-0.37522">
        <ele>40</ele>
        <time>2021-03-24T23:35:08Z</time>
      </trkpt>
      <trkpt lat="47.71323" lon="-0.37537">
        <ele>40</ele>
        <time>2021-03-24T23:35:11Z</time>
      </trkpt>
      <trkpt lat="47.71324" lon="-0.37538">
        <ele>40</ele>
        <time>2021-03-24T23:35:11Z</time>
      </trkpt>
      <trkpt lat="47.71329" lon="-0.37543">
        <ele>39</ele>
        <time>2021-03-24T23:35:12Z</time>
      </trkpt>
      <trkpt lat="47.71333" lon="-0.37549">
        <ele>39</ele>
        <time>2021-03-24T23:35:13Z</time>
      </trkpt>
      <trkpt lat="47.71339" lon="-0.37556">
        <ele>39</ele>
        <time>2021-03-24T23:35:15Z</time>
      </trkpt>
      <trkpt lat="47.71345" lon="-0.37565">
        <ele>39</ele>
        <time>2021-03-24T23:35:16Z</time>
      </trkpt>
      <trkpt lat="47.7135" lon="-0.37573">
        <ele>39</ele>
        <time>2021-03-24T23:35:18Z</time>
      </trkpt>
      <trkpt lat="47.71354" lon="-0.3758">
        <ele>39</ele>
        <time>2021-03-24T23:35:19Z</time>
      </trkpt>
      <trkpt lat="47.7136" lon="-0.3759">
        <ele>39</ele>
        <time>2021-03-24T23:35:20Z</time>
      </trkpt>
      <trkpt lat="47.71365" lon="-0.376">
        <ele>39</ele>
        <time>2021-03-24T23:35:22Z</time>
      </trkpt>
      <trkpt lat="47.7137" lon="-0.37612">
        <ele>39</ele>
        <time>2021-03-24T23:35:23Z</time>
      </trkpt>
      <trkpt lat="47.71378" lon="-0.37632">
        <ele>39</ele>
        <time>2021-03-24T23:35:26Z</time>
      </trkpt>
      <trkpt lat="47.71398" lon="-0.37687">
        <ele>39</ele>
        <time>2021-03-24T23:35:34Z</time>
      </trkpt>
      <trkpt lat="47.71412" lon="-0.37724">
        <ele>40</ele>
        <time>2021-03-24T23:35:39Z</time>
      </trkpt>
      <trkpt lat="47.71421" lon="-0.37751">
        <ele>40</ele>
        <time>2021-03-24T23:35:42Z</time>
      </trkpt>
      <trkpt lat="47.71423" lon="-0.37758">
        <ele>40</ele>
        <time>2021-03-24T23:35:43Z</time>
      </trkpt>
      <trkpt lat="47.71456" lon="-0.37843">
        <ele>37</ele>
        <time>2021-03-24T23:35:55Z</time>
      </trkpt>
      <trkpt lat="47.71494" lon="-0.37948">
        <ele>37</ele>
        <time>2021-03-24T23:36:09Z</time>
      </trkpt>
      <trkpt lat="47.7152" lon="-0.38019">
        <ele>37</ele>
        <time>2021-03-24T23:36:19Z</time>
      </trkpt>
      <trkpt lat="47.71535" lon="-0.3806">
        <ele>36</ele>
        <time>2021-03-24T23:36:25Z</time>
      </trkpt>
      <trkpt lat="47.71546" lon="-0.38089">
        <ele>35</ele>
        <time>2021-03-24T23:36:29Z</time>
      </trkpt>
      <trkpt lat="47.71557" lon="-0.38118">
        <ele>34</ele>
        <time>2021-03-24T23:36:33Z</time>
      </trkpt>
      <trkpt lat="47.71567" lon="-0.38145">
        <ele>33</ele>
        <time>2021-03-24T23:36:36Z</time>
      </trkpt>
      <trkpt lat="47.71577" lon="-0.38173">
        <ele>32</ele>
        <time>2021-03-24T23:36:40Z</time>
      </trkpt>
      <trkpt lat="47.71585" lon="-0.38197">
        <ele>31</ele>
        <time>2021-03-24T23:36:43Z</time>
      </trkpt>
      <trkpt lat="47.71591" lon="-0.38215">
        <ele>30</ele>
        <time>2021-03-24T23:36:46Z</time>
      </trkpt>
      <trkpt lat="47.71597" lon="-0.38232">
        <ele>30</ele>
        <time>2021-03-24T23:36:48Z</time>
      </trkpt>
      <trkpt lat="47.71606" lon="-0.38265">
        <ele>29</ele>
        <time>2021-03-24T23:36:52Z</time>
      </trkpt>
      <trkpt lat="47.71607" lon="-0.38268">
        <ele>29</ele>
        <time>2021-03-24T23:36:53Z</time>
      </trkpt>
      <trkpt lat="47.71618" lon="-0.3831">
        <ele>29</ele>
        <time>2021-03-24T23:36:58Z</time>
      </trkpt>
      <trkpt lat="47.71628" lon="-0.38357">
        <ele>30</ele>
        <time>2021-03-24T23:37:04Z</time>
      </trkpt>
      <trkpt lat="47.71637" lon="-0.38395">
        <ele>30</ele>
        <time>2021-03-24T23:37:09Z</time>
      </trkpt>
      <trkpt lat="47.71653" lon="-0.38462">
        <ele>32</ele>
        <time>2021-03-24T23:37:17Z</time>
      </trkpt>
      <trkpt lat="47.71672" lon="-0.3854">
        <ele>33</ele>
        <time>2021-03-24T23:37:27Z</time>
      </trkpt>
      <trkpt lat="47.71682" lon="-0.38584">
        <ele>34</ele>
        <time>2021-03-24T23:37:33Z</time>
      </trkpt>
      <trkpt lat="47.71687" lon="-0.38605">
        <ele>34</ele>
        <time>2021-03-24T23:37:35Z</time>
      </trkpt>
      <trkpt lat="47.71692" lon="-0.38623">
        <ele>35</ele>
        <time>2021-03-24T23:37:38Z</time>
      </trkpt>
      <trkpt lat="47.71706" lon="-0.38687">
        <ele>35</ele>
        <time>2021-03-24T23:37:46Z</time>
      </trkpt>
      <trkpt lat="47.71727" lon="-0.38775">
        <ele>34</ele>
        <time>2021-03-24T23:37:57Z</time>
      </trkpt>
      <trkpt lat="47.71755" lon="-0.38889">
        <ele>35</ele>
        <time>2021-03-24T23:38:11Z</time>
      </trkpt>
      <trkpt lat="47.71779" lon="-0.3899">
        <ele>35</ele>
        <time>2021-03-24T23:38:24Z</time>
      </trkpt>
      <trkpt lat="47.71796" lon="-0.39064">
        <ele>34</ele>
        <time>2021-03-24T23:38:34Z</time>
      </trkpt>
      <trkpt lat="47.71811" lon="-0.39128">
        <ele>35</ele>
        <time>2021-03-24T23:38:42Z</time>
      </trkpt>
      <trkpt lat="47.71812" lon="-0.39131">
        <ele>35</ele>
        <time>2021-03-24T23:38:42Z</time>
      </trkpt>
      <trkpt lat="47.71816" lon="-0.39148">
        <ele>35</ele>
        <time>2021-03-24T23:38:44Z</time>
      </trkpt>
      <trkpt lat="47.71821" lon="-0.39169">
        <ele>35</ele>
        <time>2021-03-24T23:38:47Z</time>
      </trkpt>
      <trkpt lat="47.71829" lon="-0.39198">
        <ele>35</ele>
        <time>2021-03-24T23:38:51Z</time>
      </trkpt>
      <trkpt lat="47.71833" lon="-0.39214">
        <ele>35</ele>
        <time>2021-03-24T23:38:53Z</time>
      </trkpt>
      <trkpt lat="47.71837" lon="-0.39227">
        <ele>35</ele>
        <time>2021-03-24T23:38:55Z</time>
      </trkpt>
      <trkpt lat="47.71841" lon="-0.3924">
        <ele>35</ele>
        <time>2021-03-24T23:38:56Z</time>
      </trkpt>
      <trkpt lat="47.71845" lon="-0.39253">
        <ele>35</ele>
        <time>2021-03-24T23:38:58Z</time>
      </trkpt>
      <trkpt lat="47.7185" lon="-0.39267">
        <ele>35</ele>
        <time>2021-03-24T23:39:00Z</time>
      </trkpt>
      <trkpt lat="47.71855" lon="-0.39282">
        <ele>35</ele>
        <time>2021-03-24T23:39:02Z</time>
      </trkpt>
      <trkpt lat="47.71861" lon="-0.39297">
        <ele>35</ele>
        <time>2021-03-24T23:39:04Z</time>
      </trkpt>
      <trkpt lat="47.71869" lon="-0.39318">
        <ele>35</ele>
        <time>2021-03-24T23:39:07Z</time>
      </trkpt>
      <trkpt lat="47.71884" lon="-0.39358">
        <ele>34</ele>
        <time>2021-03-24T23:39:12Z</time>
      </trkpt>
      <trkpt lat="47.71891" lon="-0.39375">
        <ele>34</ele>
        <time>2021-03-24T23:39:15Z</time>
      </trkpt>
      <trkpt lat="47.71895" lon="-0.39389">
        <ele>34</ele>
        <time>2021-03-24T23:39:17Z</time>
      </trkpt>
      <trkpt lat="47.71899" lon="-0.39401">
        <ele>34</ele>
        <time>2021-03-24T23:39:18Z</time>
      </trkpt>
      <trkpt lat="47.71901" lon="-0.39406">
        <ele>34</ele>
        <time>2021-03-24T23:39:19Z</time>
      </trkpt>
      <trkpt lat="47.71904" lon="-0.39419">
        <ele>34</ele>
        <time>2021-03-24T23:39:20Z</time>
      </trkpt>
      <trkpt lat="47.71906" lon="-0.39429">
        <ele>34</ele>
        <time>2021-03-24T23:39:22Z</time>
      </trkpt>
      <trkpt lat="47.71911" lon="-0.39456">
        <ele>33</ele>
        <time>2021-03-24T23:39:25Z</time>
      </trkpt>
      <trkpt lat="47.71924" lon="-0.39543">
        <ele>34</ele>
        <time>2021-03-24T23:39:36Z</time>
      </trkpt>
      <trkpt lat="47.71935" lon="-0.39613">
        <ele>34</ele>
        <time>2021-03-24T23:39:44Z</time>
      </trkpt>
      <trkpt lat="47.71938" lon="-0.39628">
        <ele>34</ele>
        <time>2021-03-24T23:39:46Z</time>
      </trkpt>
      <trkpt lat="47.7194" lon="-0.39642">
        <ele>34</ele>
        <time>2021-03-24T23:39:48Z</time>
      </trkpt>
      <trkpt lat="47.71942" lon="-0.39653">
        <ele>34</ele>
        <time>2021-03-24T23:39:49Z</time>
      </trkpt>
      <trkpt lat="47.71945" lon="-0.39664">
        <ele>34</ele>
        <time>2021-03-24T23:39:51Z</time>
      </trkpt>
      <trkpt lat="47.71948" lon="-0.39674">
        <ele>34</ele>
        <time>2021-03-24T23:39:52Z</time>
      </trkpt>
      <trkpt lat="47.71951" lon="-0.39684">
        <ele>34</ele>
        <time>2021-03-24T23:39:53Z</time>
      </trkpt>
      <trkpt lat="47.71957" lon="-0.39698">
        <ele>34</ele>
        <time>2021-03-24T23:39:55Z</time>
      </trkpt>
      <trkpt lat="47.7196" lon="-0.39704">
        <ele>34</ele>
        <time>2021-03-24T23:39:56Z</time>
      </trkpt>
      <trkpt lat="47.71963" lon="-0.39711">
        <ele>34</ele>
        <time>2021-03-24T23:39:57Z</time>
      </trkpt>
      <trkpt lat="47.71967" lon="-0.39717">
        <ele>34</ele>
        <time>2021-03-24T23:39:58Z</time>
      </trkpt>
      <trkpt lat="47.71974" lon="-0.39727">
        <ele>34</ele>
        <time>2021-03-24T23:40:00Z</time>
      </trkpt>
      <trkpt lat="47.71982" lon="-0.39736">
        <ele>34</ele>
        <time>2021-03-24T23:40:02Z</time>
      </trkpt>
      <trkpt lat="47.7199" lon="-0.39746">
        <ele>34</ele>
        <time>2021-03-24T23:40:04Z</time>
      </trkpt>
      <trkpt lat="47.71997" lon="-0.39753">
        <ele>34</ele>
        <time>2021-03-24T23:40:05Z</time>
      </trkpt>
      <trkpt lat="47.72005" lon="-0.39762">
        <ele>34</ele>
        <time>2021-03-24T23:40:07Z</time>
      </trkpt>
      <trkpt lat="47.72014" lon="-0.39772">
        <ele>34</ele>
        <time>2021-03-24T23:40:09Z</time>
      </trkpt>
      <trkpt lat="47.72025" lon="-0.39785">
        <ele>35</ele>
        <time>2021-03-24T23:40:11Z</time>
      </trkpt>
      <trkpt lat="47.72031" lon="-0.39793">
        <ele>35</ele>
        <time>2021-03-24T23:40:13Z</time>
      </trkpt>
      <trkpt lat="47.72038" lon="-0.39802">
        <ele>35</ele>
        <time>2021-03-24T23:40:14Z</time>
      </trkpt>
      <trkpt lat="47.72038" lon="-0.39803">
        <ele>35</ele>
        <time>2021-03-24T23:40:15Z</time>
      </trkpt>
      <trkpt lat="47.72045" lon="-0.39811">
        <ele>36</ele>
        <time>2021-03-24T23:40:16Z</time>
      </trkpt>
      <trkpt lat="47.72055" lon="-0.39824">
        <ele>36</ele>
        <time>2021-03-24T23:40:18Z</time>
      </trkpt>
      <trkpt lat="47.72075" lon="-0.39854">
        <ele>37</ele>
        <time>2021-03-24T23:40:24Z</time>
      </trkpt>
      <trkpt lat="47.72101" lon="-0.39891">
        <ele>37</ele>
        <time>2021-03-24T23:40:30Z</time>
      </trkpt>
      <trkpt lat="47.72108" lon="-0.399">
        <ele>37</ele>
        <time>2021-03-24T23:40:32Z</time>
      </trkpt>
      <trkpt lat="47.72114" lon="-0.39908">
        <ele>37</ele>
        <time>2021-03-24T23:40:33Z</time>
      </trkpt>
      <trkpt lat="47.72121" lon="-0.39916">
        <ele>37</ele>
        <time>2021-03-24T23:40:35Z</time>
      </trkpt>
      <trkpt lat="47.72134" lon="-0.3993">
        <ele>37</ele>
        <time>2021-03-24T23:40:37Z</time>
      </trkpt>
      <trkpt lat="47.72167" lon="-0.39966">
        <ele>36</ele>
        <time>2021-03-24T23:40:45Z</time>
      </trkpt>
      <trkpt lat="47.72233" lon="-0.40039">
        <ele>36</ele>
        <time>2021-03-24T23:40:59Z</time>
      </trkpt>
      <trkpt lat="47.72265" lon="-0.40075">
        <ele>36</ele>
        <time>2021-03-24T23:41:07Z</time>
      </trkpt>
      <trkpt lat="47.7227" lon="-0.40082">
        <ele>36</ele>
        <time>2021-03-24T23:41:08Z</time>
      </trkpt>
      <trkpt lat="47.72275" lon="-0.40088">
        <ele>36</ele>
        <time>2021-03-24T23:41:09Z</time>
      </trkpt>
      <trkpt lat="47.7228" lon="-0.40096">
        <ele>36</ele>
        <time>2021-03-24T23:41:10Z</time>
      </trkpt>
      <trkpt lat="47.72285" lon="-0.40103">
        <ele>36</ele>
        <time>2021-03-24T23:41:11Z</time>
      </trkpt>
      <trkpt lat="47.7229" lon="-0.4011">
        <ele>36</ele>
        <time>2021-03-24T23:41:13Z</time>
      </trkpt>
      <trkpt lat="47.72295" lon="-0.40118">
        <ele>36</ele>
        <time>2021-03-24T23:41:14Z</time>
      </trkpt>
      <trkpt lat="47.723" lon="-0.40127">
        <ele>36</ele>
        <time>2021-03-24T23:41:15Z</time>
      </trkpt>
      <trkpt lat="47.72307" lon="-0.4014">
        <ele>36</ele>
        <time>2021-03-24T23:41:17Z</time>
      </trkpt>
      <trkpt lat="47.7232" lon="-0.40164">
        <ele>36</ele>
        <time>2021-03-24T23:41:21Z</time>
      </trkpt>
      <trkpt lat="47.72342" lon="-0.40204">
        <ele>35</ele>
        <time>2021-03-24T23:41:27Z</time>
      </trkpt>
      <trkpt lat="47.72348" lon="-0.40216">
        <ele>35</ele>
        <time>2021-03-24T23:41:29Z</time>
      </trkpt>
      <trkpt lat="47.72354" lon="-0.40229">
        <ele>34</ele>
        <time>2021-03-24T23:41:31Z</time>
      </trkpt>
      <trkpt lat="47.72359" lon="-0.4024">
        <ele>34</ele>
        <time>2021-03-24T23:41:32Z</time>
      </trkpt>
      <trkpt lat="47.72365" lon="-0.40253">
        <ele>34</ele>
        <time>2021-03-24T23:41:34Z</time>
      </trkpt>
      <trkpt lat="47.7237" lon="-0.40265">
        <ele>34</ele>
        <time>2021-03-24T23:41:36Z</time>
      </trkpt>
      <trkpt lat="47.72375" lon="-0.40278">
        <ele>34</ele>
        <time>2021-03-24T23:41:38Z</time>
      </trkpt>
      <trkpt lat="47.7238" lon="-0.40291">
        <ele>34</ele>
        <time>2021-03-24T23:41:40Z</time>
      </trkpt>
      <trkpt lat="47.72384" lon="-0.40304">
        <ele>34</ele>
        <time>2021-03-24T23:41:41Z</time>
      </trkpt>
      <trkpt lat="47.72389" lon="-0.40317">
        <ele>34</ele>
        <time>2021-03-24T23:41:43Z</time>
      </trkpt>
      <trkpt lat="47.72394" lon="-0.40332">
        <ele>34</ele>
        <time>2021-03-24T23:41:45Z</time>
      </trkpt>
      <trkpt lat="47.724" lon="-0.40351">
        <ele>34</ele>
        <time>2021-03-24T23:41:48Z</time>
      </trkpt>
      <trkpt lat="47.72403" lon="-0.40362">
        <ele>34</ele>
        <time>2021-03-24T23:41:49Z</time>
      </trkpt>
      <trkpt lat="47.72406" lon="-0.40372">
        <ele>34</ele>
        <time>2021-03-24T23:41:50Z</time>
      </trkpt>
      <trkpt lat="47.72411" lon="-0.40392">
        <ele>35</ele>
        <time>2021-03-24T23:41:53Z</time>
      </trkpt>
      <trkpt lat="47.72417" lon="-0.40417">
        <ele>35</ele>
        <time>2021-03-24T23:41:56Z</time>
      </trkpt>
      <trkpt lat="47.72422" lon="-0.40433">
        <ele>35</ele>
        <time>2021-03-24T23:41:58Z</time>
      </trkpt>
      <trkpt lat="47.72424" lon="-0.40445">
        <ele>35</ele>
        <time>2021-03-24T23:42:00Z</time>
      </trkpt>
      <trkpt lat="47.72428" lon="-0.40458">
        <ele>35</ele>
        <time>2021-03-24T23:42:01Z</time>
      </trkpt>
      <trkpt lat="47.72435" lon="-0.4048">
        <ele>35</ele>
        <time>2021-03-24T23:42:04Z</time>
      </trkpt>
      <trkpt lat="47.72439" lon="-0.4049">
        <ele>35</ele>
        <time>2021-03-24T23:42:06Z</time>
      </trkpt>
      <trkpt lat="47.72444" lon="-0.40503">
        <ele>35</ele>
        <time>2021-03-24T23:42:08Z</time>
      </trkpt>
      <trkpt lat="47.7245" lon="-0.40515">
        <ele>36</ele>
        <time>2021-03-24T23:42:09Z</time>
      </trkpt>
      <trkpt lat="47.72454" lon="-0.40523">
        <ele>36</ele>
        <time>2021-03-24T23:42:11Z</time>
      </trkpt>
      <trkpt lat="47.7246" lon="-0.40535">
        <ele>36</ele>
        <time>2021-03-24T23:42:12Z</time>
      </trkpt>
      <trkpt lat="47.72464" lon="-0.40543">
        <ele>36</ele>
        <time>2021-03-24T23:42:13Z</time>
      </trkpt>
      <trkpt lat="47.72469" lon="-0.40551">
        <ele>36</ele>
        <time>2021-03-24T23:42:15Z</time>
      </trkpt>
      <trkpt lat="47.72473" lon="-0.40557">
        <ele>36</ele>
        <time>2021-03-24T23:42:16Z</time>
      </trkpt>
      <trkpt lat="47.72478" lon="-0.40565">
        <ele>37</ele>
        <time>2021-03-24T23:42:17Z</time>
      </trkpt>
      <trkpt lat="47.7249" lon="-0.40585">
        <ele>37</ele>
        <time>2021-03-24T23:42:20Z</time>
      </trkpt>
      <trkpt lat="47.72508" lon="-0.40614">
        <ele>37</ele>
        <time>2021-03-24T23:42:25Z</time>
      </trkpt>
      <trkpt lat="47.72528" lon="-0.40643">
        <ele>37</ele>
        <time>2021-03-24T23:42:30Z</time>
      </trkpt>
      <trkpt lat="47.72547" lon="-0.40671">
        <ele>38</ele>
        <time>2021-03-24T23:42:35Z</time>
      </trkpt>
      <trkpt lat="47.72573" lon="-0.40708">
        <ele>38</ele>
        <time>2021-03-24T23:42:41Z</time>
      </trkpt>
      <trkpt lat="47.72599" lon="-0.40744">
        <ele>39</ele>
        <time>2021-03-24T23:42:47Z</time>
      </trkpt>
      <trkpt lat="47.72633" lon="-0.40791">
        <ele>41</ele>
        <time>2021-03-24T23:42:56Z</time>
      </trkpt>
      <trkpt lat="47.72666" lon="-0.40836">
        <ele>43</ele>
        <time>2021-03-24T23:43:04Z</time>
      </trkpt>
      <trkpt lat="47.72691" lon="-0.40874">
        <ele>42</ele>
        <time>2021-03-24T23:43:10Z</time>
      </trkpt>
      <trkpt lat="47.72706" lon="-0.40894">
        <ele>42</ele>
        <time>2021-03-24T23:43:14Z</time>
      </trkpt>
      <trkpt lat="47.72721" lon="-0.40914">
        <ele>41</ele>
        <time>2021-03-24T23:43:17Z</time>
      </trkpt>
      <trkpt lat="47.72728" lon="-0.40923">
        <ele>41</ele>
        <time>2021-03-24T23:43:19Z</time>
      </trkpt>
      <trkpt lat="47.72738" lon="-0.40936">
        <ele>41</ele>
        <time>2021-03-24T23:43:21Z</time>
      </trkpt>
      <trkpt lat="47.72758" lon="-0.40961">
        <ele>42</ele>
        <time>2021-03-24T23:43:26Z</time>
      </trkpt>
      <trkpt lat="47.72822" lon="-0.41037">
        <ele>44</ele>
        <time>2021-03-24T23:43:40Z</time>
      </trkpt>
      <trkpt lat="47.72917" lon="-0.41151">
        <ele>45</ele>
        <time>2021-03-24T23:44:02Z</time>
      </trkpt>
      <trkpt lat="47.72984" lon="-0.4123">
        <ele>46</ele>
        <time>2021-03-24T23:44:17Z</time>
      </trkpt>
      <trkpt lat="47.73021" lon="-0.41275">
        <ele>46</ele>
        <time>2021-03-24T23:44:26Z</time>
      </trkpt>
      <trkpt lat="47.73047" lon="-0.41306">
        <ele>47</ele>
        <time>2021-03-24T23:44:32Z</time>
      </trkpt>
      <trkpt lat="47.7306" lon="-0.41321">
        <ele>47</ele>
        <time>2021-03-24T23:44:35Z</time>
      </trkpt>
      <trkpt lat="47.73069" lon="-0.41331">
        <ele>48</ele>
        <time>2021-03-24T23:44:37Z</time>
      </trkpt>
      <trkpt lat="47.73072" lon="-0.41335">
        <ele>48</ele>
        <time>2021-03-24T23:44:38Z</time>
      </trkpt>
      <trkpt lat="47.73084" lon="-0.41346">
        <ele>48</ele>
        <time>2021-03-24T23:44:40Z</time>
      </trkpt>
      <trkpt lat="47.73097" lon="-0.41357">
        <ele>48</ele>
        <time>2021-03-24T23:44:43Z</time>
      </trkpt>
      <trkpt lat="47.73104" lon="-0.41362">
        <ele>48</ele>
        <time>2021-03-24T23:44:44Z</time>
      </trkpt>
      <trkpt lat="47.73112" lon="-0.41368">
        <ele>48</ele>
        <time>2021-03-24T23:44:46Z</time>
      </trkpt>
      <trkpt lat="47.73156" lon="-0.41399">
        <ele>46</ele>
        <time>2021-03-24T23:44:54Z</time>
      </trkpt>
      <trkpt lat="47.73201" lon="-0.4143">
        <ele>46</ele>
        <time>2021-03-24T23:45:03Z</time>
      </trkpt>
      <trkpt lat="47.7321" lon="-0.41437">
        <ele>47</ele>
        <time>2021-03-24T23:45:05Z</time>
      </trkpt>
      <trkpt lat="47.73236" lon="-0.41454">
        <ele>47</ele>
        <time>2021-03-24T23:45:10Z</time>
      </trkpt>
      <trkpt lat="47.73283" lon="-0.41485">
        <ele>48</ele>
        <time>2021-03-24T23:45:19Z</time>
      </trkpt>
      <trkpt lat="47.73303" lon="-0.41499">
        <ele>47</ele>
        <time>2021-03-24T23:45:23Z</time>
      </trkpt>
      <trkpt lat="47.73426" lon="-0.41584">
        <ele>45</ele>
        <time>2021-03-24T23:45:47Z</time>
      </trkpt>
      <trkpt lat="47.73443" lon="-0.41597">
        <ele>44</ele>
        <time>2021-03-24T23:45:51Z</time>
      </trkpt>
      <trkpt lat="47.73478" lon="-0.4162">
        <ele>42</ele>
        <time>2021-03-24T23:45:57Z</time>
      </trkpt>
      <trkpt lat="47.73548" lon="-0.4167">
        <ele>38</ele>
        <time>2021-03-24T23:46:11Z</time>
      </trkpt>
      <trkpt lat="47.7361" lon="-0.41714">
        <ele>35</ele>
        <time>2021-03-24T23:46:23Z</time>
      </trkpt>
      <trkpt lat="47.73621" lon="-0.41722">
        <ele>35</ele>
        <time>2021-03-24T23:46:26Z</time>
      </trkpt>
      <trkpt lat="47.73627" lon="-0.41728">
        <ele>34</ele>
        <time>2021-03-24T23:46:27Z</time>
      </trkpt>
      <trkpt lat="47.73631" lon="-0.41729">
        <ele>34</ele>
        <time>2021-03-24T23:46:28Z</time>
      </trkpt>
      <trkpt lat="47.73634" lon="-0.41731">
        <ele>34</ele>
        <time>2021-03-24T23:46:28Z</time>
      </trkpt>
      <trkpt lat="47.73638" lon="-0.41735">
        <ele>34</ele>
        <time>2021-03-24T23:46:29Z</time>
      </trkpt>
      <trkpt lat="47.73641" lon="-0.41738">
        <ele>34</ele>
        <time>2021-03-24T23:46:30Z</time>
      </trkpt>
      <trkpt lat="47.73646" lon="-0.41744">
        <ele>34</ele>
        <time>2021-03-24T23:46:31Z</time>
      </trkpt>
      <trkpt lat="47.73646" lon="-0.41744">
        <ele>34</ele>
        <time>2021-03-24T23:46:31Z</time>
      </trkpt>
      <trkpt lat="47.73649" lon="-0.41744">
        <ele>34</ele>
        <time>2021-03-24T23:46:31Z</time>
      </trkpt>
      <trkpt lat="47.73651" lon="-0.41744">
        <ele>34</ele>
        <time>2021-03-24T23:46:32Z</time>
      </trkpt>
      <trkpt lat="47.73653" lon="-0.41744">
        <ele>34</ele>
        <time>2021-03-24T23:46:32Z</time>
      </trkpt>
      <trkpt lat="47.73654" lon="-0.41745">
        <ele>34</ele>
        <time>2021-03-24T23:46:32Z</time>
      </trkpt>
      <trkpt lat="47.73656" lon="-0.41746">
        <ele>34</ele>
        <time>2021-03-24T23:46:33Z</time>
      </trkpt>
      <trkpt lat="47.73657" lon="-0.41747">
        <ele>34</ele>
        <time>2021-03-24T23:46:33Z</time>
      </trkpt>
      <trkpt lat="47.73659" lon="-0.41748">
        <ele>34</ele>
        <time>2021-03-24T23:46:33Z</time>
      </trkpt>
      <trkpt lat="47.7366" lon="-0.4175">
        <ele>34</ele>
        <time>2021-03-24T23:46:34Z</time>
      </trkpt>
      <trkpt lat="47.73661" lon="-0.4175">
        <ele>34</ele>
        <time>2021-03-24T23:46:34Z</time>
      </trkpt>
      <trkpt lat="47.73661" lon="-0.41751">
        <ele>34</ele>
        <time>2021-03-24T23:46:34Z</time>
      </trkpt>
      <trkpt lat="47.73662" lon="-0.41752">
        <ele>34</ele>
        <time>2021-03-24T23:46:34Z</time>
      </trkpt>
      <trkpt lat="47.73663" lon="-0.41753">
        <ele>34</ele>
        <time>2021-03-24T23:46:34Z</time>
      </trkpt>
      <trkpt lat="47.73663" lon="-0.41754">
        <ele>34</ele>
        <time>2021-03-24T23:46:34Z</time>
      </trkpt>
      <trkpt lat="47.73664" lon="-0.41755">
        <ele>34</ele>
        <time>2021-03-24T23:46:35Z</time>
      </trkpt>
      <trkpt lat="47.73683" lon="-0.41762">
        <ele>34</ele>
        <time>2021-03-24T23:46:38Z</time>
      </trkpt>
      <trkpt lat="47.73696" lon="-0.41764">
        <ele>34</ele>
        <time>2021-03-24T23:46:40Z</time>
      </trkpt>
      <trkpt lat="47.73711" lon="-0.41763">
        <ele>34</ele>
        <time>2021-03-24T23:46:43Z</time>
      </trkpt>
      <trkpt lat="47.73735" lon="-0.41763">
        <ele>34</ele>
        <time>2021-03-24T23:46:47Z</time>
      </trkpt>
      <trkpt lat="47.7375" lon="-0.41763">
        <ele>34</ele>
        <time>2021-03-24T23:46:50Z</time>
      </trkpt>
      <trkpt lat="47.73765" lon="-0.41763">
        <ele>34</ele>
        <time>2021-03-24T23:46:53Z</time>
      </trkpt>
      <trkpt lat="47.73777" lon="-0.41762">
        <ele>34</ele>
        <time>2021-03-24T23:46:55Z</time>
      </trkpt>
      <trkpt lat="47.73782" lon="-0.41761">
        <ele>34</ele>
        <time>2021-03-24T23:46:56Z</time>
      </trkpt>
      <trkpt lat="47.73789" lon="-0.4176">
        <ele>34</ele>
        <time>2021-03-24T23:46:57Z</time>
      </trkpt>
      <trkpt lat="47.73801" lon="-0.41757">
        <ele>34</ele>
        <time>2021-03-24T23:46:59Z</time>
      </trkpt>
      <trkpt lat="47.73811" lon="-0.41755">
        <ele>34</ele>
        <time>2021-03-24T23:47:01Z</time>
      </trkpt>
      <trkpt lat="47.73818" lon="-0.41752">
        <ele>34</ele>
        <time>2021-03-24T23:47:02Z</time>
      </trkpt>
      <trkpt lat="47.73818" lon="-0.41752">
        <ele>34</ele>
        <time>2021-03-24T23:47:02Z</time>
      </trkpt>
      <trkpt lat="47.73836" lon="-0.41746">
        <ele>34</ele>
        <time>2021-03-24T23:47:06Z</time>
      </trkpt>
      <trkpt lat="47.73848" lon="-0.41742">
        <ele>34</ele>
        <time>2021-03-24T23:47:08Z</time>
      </trkpt>
      <trkpt lat="47.73865" lon="-0.41736">
        <ele>33</ele>
        <time>2021-03-24T23:47:11Z</time>
      </trkpt>
      <trkpt lat="47.7388" lon="-0.41732">
        <ele>33</ele>
        <time>2021-03-24T23:47:14Z</time>
      </trkpt>
      <trkpt lat="47.73887" lon="-0.41731">
        <ele>33</ele>
        <time>2021-03-24T23:47:15Z</time>
      </trkpt>
      <trkpt lat="47.7389" lon="-0.41731">
        <ele>33</ele>
        <time>2021-03-24T23:47:15Z</time>
      </trkpt>
      <trkpt lat="47.73895" lon="-0.41731">
        <ele>33</ele>
        <time>2021-03-24T23:47:16Z</time>
      </trkpt>
      <trkpt lat="47.73903" lon="-0.41732">
        <ele>32</ele>
        <time>2021-03-24T23:47:18Z</time>
      </trkpt>
      <trkpt lat="47.73911" lon="-0.41734">
        <ele>32</ele>
        <time>2021-03-24T23:47:19Z</time>
      </trkpt>
      <trkpt lat="47.73922" lon="-0.41739">
        <ele>31</ele>
        <time>2021-03-24T23:47:21Z</time>
      </trkpt>
      <trkpt lat="47.73934" lon="-0.41747">
        <ele>31</ele>
        <time>2021-03-24T23:47:24Z</time>
      </trkpt>
      <trkpt lat="47.73937" lon="-0.41749">
        <ele>31</ele>
        <time>2021-03-24T23:47:24Z</time>
      </trkpt>
      <trkpt lat="47.73938" lon="-0.4175">
        <ele>31</ele>
        <time>2021-03-24T23:47:24Z</time>
      </trkpt>
      <trkpt lat="47.7394" lon="-0.41751">
        <ele>31</ele>
        <time>2021-03-24T23:47:25Z</time>
      </trkpt>
      <trkpt lat="47.73947" lon="-0.41757">
        <ele>31</ele>
        <time>2021-03-24T23:47:26Z</time>
      </trkpt>
      <trkpt lat="47.73954" lon="-0.41761">
        <ele>31</ele>
        <time>2021-03-24T23:47:27Z</time>
      </trkpt>
      <trkpt lat="47.73957" lon="-0.41763">
        <ele>31</ele>
        <time>2021-03-24T23:47:28Z</time>
      </trkpt>
      <trkpt lat="47.73966" lon="-0.41768">
        <ele>31</ele>
        <time>2021-03-24T23:47:30Z</time>
      </trkpt>
      <trkpt lat="47.73975" lon="-0.41773">
        <ele>31</ele>
        <time>2021-03-24T23:47:31Z</time>
      </trkpt>
      <trkpt lat="47.73984" lon="-0.41776">
        <ele>31</ele>
        <time>2021-03-24T23:47:33Z</time>
      </trkpt>
      <trkpt lat="47.7399" lon="-0.41777">
        <ele>31</ele>
        <time>2021-03-24T23:47:34Z</time>
      </trkpt>
      <trkpt lat="47.73997" lon="-0.41777">
        <ele>31</ele>
        <time>2021-03-24T23:47:35Z</time>
      </trkpt>
      <trkpt lat="47.74004" lon="-0.41777">
        <ele>31</ele>
        <time>2021-03-24T23:47:37Z</time>
      </trkpt>
      <trkpt lat="47.74023" lon="-0.41772">
        <ele>30</ele>
        <time>2021-03-24T23:47:40Z</time>
      </trkpt>
      <trkpt lat="47.74048" lon="-0.41764">
        <ele>30</ele>
        <time>2021-03-24T23:47:45Z</time>
      </trkpt>
      <trkpt lat="47.74059" lon="-0.41759">
        <ele>30</ele>
        <time>2021-03-24T23:47:47Z</time>
      </trkpt>
      <trkpt lat="47.74066" lon="-0.41756">
        <ele>30</ele>
        <time>2021-03-24T23:47:48Z</time>
      </trkpt>
      <trkpt lat="47.74075" lon="-0.41752">
        <ele>30</ele>
        <time>2021-03-24T23:47:50Z</time>
      </trkpt>
      <trkpt lat="47.74083" lon="-0.41749">
        <ele>30</ele>
        <time>2021-03-24T23:47:51Z</time>
      </trkpt>
      <trkpt lat="47.74093" lon="-0.41744">
        <ele>30</ele>
        <time>2021-03-24T23:47:53Z</time>
      </trkpt>
      <trkpt lat="47.74103" lon="-0.41738">
        <ele>30</ele>
        <time>2021-03-24T23:47:55Z</time>
      </trkpt>
      <trkpt lat="47.74129" lon="-0.41723">
        <ele>30</ele>
        <time>2021-03-24T23:48:00Z</time>
      </trkpt>
      <trkpt lat="47.74161" lon="-0.41705">
        <ele>30</ele>
        <time>2021-03-24T23:48:06Z</time>
      </trkpt>
      <trkpt lat="47.74164" lon="-0.41704">
        <ele>30</ele>
        <time>2021-03-24T23:48:07Z</time>
      </trkpt>
      <trkpt lat="47.74182" lon="-0.41694">
        <ele>30</ele>
        <time>2021-03-24T23:48:10Z</time>
      </trkpt>
      <trkpt lat="47.74212" lon="-0.41676">
        <ele>30</ele>
        <time>2021-03-24T23:48:16Z</time>
      </trkpt>
      <trkpt lat="47.74223" lon="-0.4167">
        <ele>30</ele>
        <time>2021-03-24T23:48:18Z</time>
      </trkpt>
      <trkpt lat="47.7423" lon="-0.41667">
        <ele>29</ele>
        <time>2021-03-24T23:48:19Z</time>
      </trkpt>
      <trkpt lat="47.74236" lon="-0.41664">
        <ele>29</ele>
        <time>2021-03-24T23:48:20Z</time>
      </trkpt>
      <trkpt lat="47.74241" lon="-0.41663">
        <ele>29</ele>
        <time>2021-03-24T23:48:21Z</time>
      </trkpt>
      <trkpt lat="47.74246" lon="-0.41661">
        <ele>29</ele>
        <time>2021-03-24T23:48:22Z</time>
      </trkpt>
      <trkpt lat="47.74256" lon="-0.41659">
        <ele>29</ele>
        <time>2021-03-24T23:48:24Z</time>
      </trkpt>
      <trkpt lat="47.74274" lon="-0.41656">
        <ele>29</ele>
        <time>2021-03-24T23:48:27Z</time>
      </trkpt>
      <trkpt lat="47.7429" lon="-0.41654">
        <ele>29</ele>
        <time>2021-03-24T23:48:30Z</time>
      </trkpt>
      <trkpt lat="47.74305" lon="-0.41651">
        <ele>28</ele>
        <time>2021-03-24T23:48:33Z</time>
      </trkpt>
      <trkpt lat="47.7432" lon="-0.41648">
        <ele>28</ele>
        <time>2021-03-24T23:48:35Z</time>
      </trkpt>
      <trkpt lat="47.74322" lon="-0.41648">
        <ele>28</ele>
        <time>2021-03-24T23:48:36Z</time>
      </trkpt>
      <trkpt lat="47.74337" lon="-0.41645">
        <ele>28</ele>
        <time>2021-03-24T23:48:38Z</time>
      </trkpt>
      <trkpt lat="47.74346" lon="-0.41644">
        <ele>28</ele>
        <time>2021-03-24T23:48:40Z</time>
      </trkpt>
      <trkpt lat="47.74351" lon="-0.41643">
        <ele>28</ele>
        <time>2021-03-24T23:48:41Z</time>
      </trkpt>
      <trkpt lat="47.74356" lon="-0.41643">
        <ele>28</ele>
        <time>2021-03-24T23:48:42Z</time>
      </trkpt>
      <trkpt lat="47.74363" lon="-0.41645">
        <ele>28</ele>
        <time>2021-03-24T23:48:43Z</time>
      </trkpt>
      <trkpt lat="47.74372" lon="-0.41647">
        <ele>28</ele>
        <time>2021-03-24T23:48:45Z</time>
      </trkpt>
      <trkpt lat="47.74376" lon="-0.41648">
        <ele>27</ele>
        <time>2021-03-24T23:48:45Z</time>
      </trkpt>
      <trkpt lat="47.74381" lon="-0.4165">
        <ele>27</ele>
        <time>2021-03-24T23:48:46Z</time>
      </trkpt>
      <trkpt lat="47.74394" lon="-0.41654">
        <ele>27</ele>
        <time>2021-03-24T23:48:49Z</time>
      </trkpt>
      <trkpt lat="47.74403" lon="-0.41658">
        <ele>27</ele>
        <time>2021-03-24T23:48:50Z</time>
      </trkpt>
      <trkpt lat="47.7441" lon="-0.4166">
        <ele>27</ele>
        <time>2021-03-24T23:48:52Z</time>
      </trkpt>
      <trkpt lat="47.74417" lon="-0.4166">
        <ele>27</ele>
        <time>2021-03-24T23:48:53Z</time>
      </trkpt>
      <trkpt lat="47.74423" lon="-0.4166">
        <ele>27</ele>
        <time>2021-03-24T23:48:54Z</time>
      </trkpt>
      <trkpt lat="47.74437" lon="-0.41658">
        <ele>27</ele>
        <time>2021-03-24T23:48:56Z</time>
      </trkpt>
      <trkpt lat="47.74449" lon="-0.41655">
        <ele>27</ele>
        <time>2021-03-24T23:48:59Z</time>
      </trkpt>
      <trkpt lat="47.74466" lon="-0.4165">
        <ele>27</ele>
        <time>2021-03-24T23:49:02Z</time>
      </trkpt>
      <trkpt lat="47.74492" lon="-0.41643">
        <ele>27</ele>
        <time>2021-03-24T23:49:06Z</time>
      </trkpt>
      <trkpt lat="47.74494" lon="-0.41643">
        <ele>27</ele>
        <time>2021-03-24T23:49:07Z</time>
      </trkpt>
      <trkpt lat="47.74539" lon="-0.41631">
        <ele>26</ele>
        <time>2021-03-24T23:49:15Z</time>
      </trkpt>
      <trkpt lat="47.74545" lon="-0.4163">
        <ele>26</ele>
        <time>2021-03-24T23:49:16Z</time>
      </trkpt>
      <trkpt lat="47.74548" lon="-0.4163">
        <ele>26</ele>
        <time>2021-03-24T23:49:16Z</time>
      </trkpt>
      <trkpt lat="47.74563" lon="-0.41629">
        <ele>25</ele>
        <time>2021-03-24T23:49:19Z</time>
      </trkpt>
      <trkpt lat="47.74577" lon="-0.41629">
        <ele>25</ele>
        <time>2021-03-24T23:49:22Z</time>
      </trkpt>
      <trkpt lat="47.74592" lon="-0.41628">
        <ele>25</ele>
        <time>2021-03-24T23:49:24Z</time>
      </trkpt>
      <trkpt lat="47.74598" lon="-0.4163">
        <ele>25</ele>
        <time>2021-03-24T23:49:25Z</time>
      </trkpt>
      <trkpt lat="47.74602" lon="-0.41631">
        <ele>25</ele>
        <time>2021-03-24T23:49:26Z</time>
      </trkpt>
      <trkpt lat="47.74605" lon="-0.41633">
        <ele>25</ele>
        <time>2021-03-24T23:49:27Z</time>
      </trkpt>
      <trkpt lat="47.74605" lon="-0.41633">
        <ele>25</ele>
        <time>2021-03-24T23:49:27Z</time>
      </trkpt>
      <trkpt lat="47.74603" lon="-0.41639">
        <ele>25</ele>
        <time>2021-03-24T23:49:27Z</time>
      </trkpt>
      <trkpt lat="47.74602" lon="-0.41643">
        <ele>25</ele>
        <time>2021-03-24T23:49:28Z</time>
      </trkpt>
      <trkpt lat="47.74602" lon="-0.41647">
        <ele>25</ele>
        <time>2021-03-24T23:49:28Z</time>
      </trkpt>
      <trkpt lat="47.74602" lon="-0.41651">
        <ele>25</ele>
        <time>2021-03-24T23:49:29Z</time>
      </trkpt>
      <trkpt lat="47.74602" lon="-0.41655">
        <ele>25</ele>
        <time>2021-03-24T23:49:29Z</time>
      </trkpt>
      <trkpt lat="47.74603" lon="-0.41658">
        <ele>25</ele>
        <time>2021-03-24T23:49:30Z</time>
      </trkpt>
      <trkpt lat="47.74604" lon="-0.41661">
        <ele>25</ele>
        <time>2021-03-24T23:49:30Z</time>
      </trkpt>
      <trkpt lat="47.74605" lon="-0.41666">
        <ele>25</ele>
        <time>2021-03-24T23:49:31Z</time>
      </trkpt>
      <trkpt lat="47.74606" lon="-0.41672">
        <ele>25</ele>
        <time>2021-03-24T23:49:32Z</time>
      </trkpt>
      <trkpt lat="47.74607" lon="-0.41677">
        <ele>25</ele>
        <time>2021-03-24T23:49:32Z</time>
      </trkpt>
      <trkpt lat="47.74608" lon="-0.41682">
        <ele>24</ele>
        <time>2021-03-24T23:49:33Z</time>
      </trkpt>
      <trkpt lat="47.74609" lon="-0.41688">
        <ele>24</ele>
        <time>2021-03-24T23:49:34Z</time>
      </trkpt>
      <trkpt lat="47.7461" lon="-0.41694">
        <ele>24</ele>
        <time>2021-03-24T23:49:34Z</time>
      </trkpt>
      <trkpt lat="47.74611" lon="-0.41714">
        <ele>24</ele>
        <time>2021-03-24T23:49:37Z</time>
      </trkpt>
      <trkpt lat="47.74611" lon="-0.41736">
        <ele>24</ele>
        <time>2021-03-24T23:49:39Z</time>
      </trkpt>
      <trkpt lat="47.74611" lon="-0.41758">
        <ele>23</ele>
        <time>2021-03-24T23:49:42Z</time>
      </trkpt>
      <trkpt lat="47.74611" lon="-0.41759">
        <ele>23</ele>
        <time>2021-03-24T23:49:42Z</time>
      </trkpt>
      <trkpt lat="47.74611" lon="-0.41813">
        <ele>23</ele>
        <time>2021-03-24T23:49:49Z</time>
      </trkpt>
      <trkpt lat="47.74612" lon="-0.41858">
        <ele>23</ele>
        <time>2021-03-24T23:49:54Z</time>
      </trkpt>
      <trkpt lat="47.74612" lon="-0.41893">
        <ele>23</ele>
        <time>2021-03-24T23:49:58Z</time>
      </trkpt>
      <trkpt lat="47.74612" lon="-0.41924">
        <ele>23</ele>
        <time>2021-03-24T23:50:02Z</time>
      </trkpt>
      <trkpt lat="47.74612" lon="-0.41992">
        <ele>22</ele>
        <time>2021-03-24T23:50:10Z</time>
      </trkpt>
      <trkpt lat="47.74612" lon="-0.41995">
        <ele>22</ele>
        <time>2021-03-24T23:50:10Z</time>
      </trkpt>
      <trkpt lat="47.74612" lon="-0.42071">
        <ele>21</ele>
        <time>2021-03-24T23:50:19Z</time>
      </trkpt>
      <trkpt lat="47.74612" lon="-0.42099">
        <ele>21</ele>
        <time>2021-03-24T23:50:23Z</time>
      </trkpt>
      <trkpt lat="47.74612" lon="-0.42106">
        <ele>21</ele>
        <time>2021-03-24T23:50:24Z</time>
      </trkpt>
      <trkpt lat="47.74612" lon="-0.42114">
        <ele>21</ele>
        <time>2021-03-24T23:50:25Z</time>
      </trkpt>
      <trkpt lat="47.74611" lon="-0.42167">
        <ele>22</ele>
        <time>2021-03-24T23:50:31Z</time>
      </trkpt>
      <trkpt lat="47.74611" lon="-0.42176">
        <ele>22</ele>
        <time>2021-03-24T23:50:32Z</time>
      </trkpt>
      <trkpt lat="47.74611" lon="-0.42215">
        <ele>22</ele>
        <time>2021-03-24T23:50:37Z</time>
      </trkpt>
      <trkpt lat="47.74611" lon="-0.42217">
        <ele>22</ele>
        <time>2021-03-24T23:50:37Z</time>
      </trkpt>
      <trkpt lat="47.74611" lon="-0.42303">
        <ele>21</ele>
        <time>2021-03-24T23:50:47Z</time>
      </trkpt>
      <trkpt lat="47.74611" lon="-0.42349">
        <ele>21</ele>
        <time>2021-03-24T23:50:53Z</time>
      </trkpt>
      <trkpt lat="47.74611" lon="-0.42352">
        <ele>21</ele>
        <time>2021-03-24T23:50:53Z</time>
      </trkpt>
      <trkpt lat="47.74611" lon="-0.42364">
        <ele>21</ele>
        <time>2021-03-24T23:50:54Z</time>
      </trkpt>
      <trkpt lat="47.74611" lon="-0.42376">
        <ele>22</ele>
        <time>2021-03-24T23:50:56Z</time>
      </trkpt>
      <trkpt lat="47.74611" lon="-0.4238">
        <ele>22</ele>
        <time>2021-03-24T23:50:56Z</time>
      </trkpt>
      <trkpt lat="47.74612" lon="-0.42388">
        <ele>22</ele>
        <time>2021-03-24T23:50:57Z</time>
      </trkpt>
      <trkpt lat="47.74614" lon="-0.424">
        <ele>22</ele>
        <time>2021-03-24T23:50:59Z</time>
      </trkpt>
      <trkpt lat="47.74616" lon="-0.42412">
        <ele>22</ele>
        <time>2021-03-24T23:51:00Z</time>
      </trkpt>
      <trkpt lat="47.74618" lon="-0.42425">
        <ele>22</ele>
        <time>2021-03-24T23:51:02Z</time>
      </trkpt>
      <trkpt lat="47.74621" lon="-0.42438">
        <ele>22</ele>
        <time>2021-03-24T23:51:04Z</time>
      </trkpt>
      <trkpt lat="47.74625" lon="-0.42451">
        <ele>23</ele>
        <time>2021-03-24T23:51:05Z</time>
      </trkpt>
      <trkpt lat="47.74629" lon="-0.42465">
        <ele>23</ele>
        <time>2021-03-24T23:51:07Z</time>
      </trkpt>
      <trkpt lat="47.74635" lon="-0.42482">
        <ele>23</ele>
        <time>2021-03-24T23:51:09Z</time>
      </trkpt>
      <trkpt lat="47.74663" lon="-0.42558">
        <ele>24</ele>
        <time>2021-03-24T23:51:20Z</time>
      </trkpt>
      <trkpt lat="47.74716" lon="-0.42705">
        <ele>23</ele>
        <time>2021-03-24T23:51:40Z</time>
      </trkpt>
      <trkpt lat="47.74717" lon="-0.42708">
        <ele>23</ele>
        <time>2021-03-24T23:51:40Z</time>
      </trkpt>
      <trkpt lat="47.74742" lon="-0.42775">
        <ele>21</ele>
        <time>2021-03-24T23:51:49Z</time>
      </trkpt>
      <trkpt lat="47.74755" lon="-0.42811">
        <ele>20</ele>
        <time>2021-03-24T23:51:54Z</time>
      </trkpt>
      <trkpt lat="47.74762" lon="-0.42831">
        <ele>20</ele>
        <time>2021-03-24T23:51:57Z</time>
      </trkpt>
      <trkpt lat="47.74772" lon="-0.42859">
        <ele>21</ele>
        <time>2021-03-24T23:52:01Z</time>
      </trkpt>
      <trkpt lat="47.74776" lon="-0.42868">
        <ele>22</ele>
        <time>2021-03-24T23:52:02Z</time>
      </trkpt>
      <trkpt lat="47.74792" lon="-0.42912">
        <ele>24</ele>
        <time>2021-03-24T23:52:08Z</time>
      </trkpt>
      <trkpt lat="47.74792" lon="-0.42915">
        <ele>24</ele>
        <time>2021-03-24T23:52:08Z</time>
      </trkpt>
      <trkpt lat="47.7481" lon="-0.42964">
        <ele>25</ele>
        <time>2021-03-24T23:52:15Z</time>
      </trkpt>
      <trkpt lat="47.7482" lon="-0.42992">
        <ele>25</ele>
        <time>2021-03-24T23:52:19Z</time>
      </trkpt>
      <trkpt lat="47.74825" lon="-0.43007">
        <ele>25</ele>
        <time>2021-03-24T23:52:21Z</time>
      </trkpt>
      <trkpt lat="47.7483" lon="-0.43022">
        <ele>25</ele>
        <time>2021-03-24T23:52:23Z</time>
      </trkpt>
      <trkpt lat="47.74836" lon="-0.43037">
        <ele>24</ele>
        <time>2021-03-24T23:52:25Z</time>
      </trkpt>
      <trkpt lat="47.74856" lon="-0.43094">
        <ele>24</ele>
        <time>2021-03-24T23:52:33Z</time>
      </trkpt>
      <trkpt lat="47.74865" lon="-0.43119">
        <ele>24</ele>
        <time>2021-03-24T23:52:36Z</time>
      </trkpt>
      <trkpt lat="47.74865" lon="-0.43119">
        <ele>24</ele>
        <time>2021-03-24T23:52:36Z</time>
      </trkpt>
      <trkpt lat="47.74869" lon="-0.43129">
        <ele>23</ele>
        <time>2021-03-24T23:52:37Z</time>
      </trkpt>
      <trkpt lat="47.74871" lon="-0.43135">
        <ele>23</ele>
        <time>2021-03-24T23:52:38Z</time>
      </trkpt>
      <trkpt lat="47.74888" lon="-0.4318">
        <ele>24</ele>
        <time>2021-03-24T23:52:44Z</time>
      </trkpt>
      <trkpt lat="47.749" lon="-0.43211">
        <ele>24</ele>
        <time>2021-03-24T23:52:49Z</time>
      </trkpt>
      <trkpt lat="47.74903" lon="-0.43218">
        <ele>24</ele>
        <time>2021-03-24T23:52:50Z</time>
      </trkpt>
      <trkpt lat="47.74906" lon="-0.43226">
        <ele>24</ele>
        <time>2021-03-24T23:52:51Z</time>
      </trkpt>
      <trkpt lat="47.74909" lon="-0.43238">
        <ele>24</ele>
        <time>2021-03-24T23:52:52Z</time>
      </trkpt>
      <trkpt lat="47.74912" lon="-0.43245">
        <ele>24</ele>
        <time>2021-03-24T23:52:53Z</time>
      </trkpt>
      <trkpt lat="47.74913" lon="-0.43247">
        <ele>24</ele>
        <time>2021-03-24T23:52:54Z</time>
      </trkpt>
      <trkpt lat="47.74915" lon="-0.43253">
        <ele>24</ele>
        <time>2021-03-24T23:52:54Z</time>
      </trkpt>
      <trkpt lat="47.74917" lon="-0.43263">
        <ele>24</ele>
        <time>2021-03-24T23:52:56Z</time>
      </trkpt>
      <trkpt lat="47.74925" lon="-0.4331">
        <ele>25</ele>
        <time>2021-03-24T23:53:01Z</time>
      </trkpt>
      <trkpt lat="47.74939" lon="-0.43389">
        <ele>25</ele>
        <time>2021-03-24T23:53:11Z</time>
      </trkpt>
      <trkpt lat="47.74952" lon="-0.43471">
        <ele>27</ele>
        <time>2021-03-24T23:53:21Z</time>
      </trkpt>
      <trkpt lat="47.74971" lon="-0.43606">
        <ele>31</ele>
        <time>2021-03-24T23:53:38Z</time>
      </trkpt>
      <trkpt lat="47.7498" lon="-0.43662">
        <ele>34</ele>
        <time>2021-03-24T23:53:45Z</time>
      </trkpt>
      <trkpt lat="47.74988" lon="-0.43711">
        <ele>37</ele>
        <time>2021-03-24T23:53:51Z</time>
      </trkpt>
      <trkpt lat="47.74997" lon="-0.43769">
        <ele>41</ele>
        <time>2021-03-24T23:53:58Z</time>
      </trkpt>
      <trkpt lat="47.75008" lon="-0.43839">
        <ele>43</ele>
        <time>2021-03-24T23:54:06Z</time>
      </trkpt>
      <trkpt lat="47.75032" lon="-0.43998">
        <ele>41</ele>
        <time>2021-03-24T23:54:26Z</time>
      </trkpt>
      <trkpt lat="47.75035" lon="-0.44016">
        <ele>40</ele>
        <time>2021-03-24T23:54:28Z</time>
      </trkpt>
      <trkpt lat="47.75047" lon="-0.44087">
        <ele>37</ele>
        <time>2021-03-24T23:54:37Z</time>
      </trkpt>
      <trkpt lat="47.75057" lon="-0.44155">
        <ele>35</ele>
        <time>2021-03-24T23:54:45Z</time>
      </trkpt>
      <trkpt lat="47.75068" lon="-0.44225">
        <ele>33</ele>
        <time>2021-03-24T23:54:54Z</time>
      </trkpt>
      <trkpt lat="47.75078" lon="-0.4429">
        <ele>33</ele>
        <time>2021-03-24T23:55:02Z</time>
      </trkpt>
      <trkpt lat="47.75085" lon="-0.44334">
        <ele>33</ele>
        <time>2021-03-24T23:55:07Z</time>
      </trkpt>
      <trkpt lat="47.75091" lon="-0.44372">
        <ele>33</ele>
        <time>2021-03-24T23:55:12Z</time>
      </trkpt>
      <trkpt lat="47.75103" lon="-0.44453">
        <ele>33</ele>
        <time>2021-03-24T23:55:22Z</time>
      </trkpt>
      <trkpt lat="47.75119" lon="-0.44559">
        <ele>34</ele>
        <time>2021-03-24T23:55:35Z</time>
      </trkpt>
      <trkpt lat="47.75145" lon="-0.44724">
        <ele>34</ele>
        <time>2021-03-24T23:55:55Z</time>
      </trkpt>
      <trkpt lat="47.75196" lon="-0.45049">
        <ele>34</ele>
        <time>2021-03-24T23:56:35Z</time>
      </trkpt>
      <trkpt lat="47.75216" lon="-0.45188">
        <ele>33</ele>
        <time>2021-03-24T23:56:52Z</time>
      </trkpt>
      <trkpt lat="47.75217" lon="-0.45189">
        <ele>33</ele>
        <time>2021-03-24T23:56:52Z</time>
      </trkpt>
      <trkpt lat="47.75221" lon="-0.45214">
        <ele>32</ele>
        <time>2021-03-24T23:56:55Z</time>
      </trkpt>
      <trkpt lat="47.75255" lon="-0.45431">
        <ele>28</ele>
        <time>2021-03-24T23:57:22Z</time>
      </trkpt>
      <trkpt lat="47.75255" lon="-0.45432">
        <ele>28</ele>
        <time>2021-03-24T23:57:22Z</time>
      </trkpt>
      <trkpt lat="47.75284" lon="-0.45621">
        <ele>29</ele>
        <time>2021-03-24T23:57:45Z</time>
      </trkpt>
      <trkpt lat="47.75314" lon="-0.45818">
        <ele>28</ele>
        <time>2021-03-24T23:58:09Z</time>
      </trkpt>
      <trkpt lat="47.75351" lon="-0.46053">
        <ele>27</ele>
        <time>2021-03-24T23:58:38Z</time>
      </trkpt>
      <trkpt lat="47.75353" lon="-0.46067">
        <ele>27</ele>
        <time>2021-03-24T23:58:40Z</time>
      </trkpt>
      <trkpt lat="47.75354" lon="-0.4607">
        <ele>27</ele>
        <time>2021-03-24T23:58:40Z</time>
      </trkpt>
      <trkpt lat="47.75354" lon="-0.46076">
        <ele>27</ele>
        <time>2021-03-24T23:58:41Z</time>
      </trkpt>
      <trkpt lat="47.75413" lon="-0.46455">
        <ele>33</ele>
        <time>2021-03-24T23:59:28Z</time>
      </trkpt>
      <trkpt lat="47.75442" lon="-0.46641">
        <ele>36</ele>
        <time>2021-03-24T23:59:50Z</time>
      </trkpt>
      <trkpt lat="47.75491" lon="-0.46954">
        <ele>38</ele>
        <time>2021-03-25T00:00:29Z</time>
      </trkpt>
      <trkpt lat="47.75518" lon="-0.47125">
        <ele>37</ele>
        <time>2021-03-25T00:00:50Z</time>
      </trkpt>
      <trkpt lat="47.75528" lon="-0.4719">
        <ele>39</ele>
        <time>2021-03-25T00:00:58Z</time>
      </trkpt>
      <trkpt lat="47.75553" lon="-0.47357">
        <ele>43</ele>
        <time>2021-03-25T00:01:18Z</time>
      </trkpt>
      <trkpt lat="47.75554" lon="-0.4736">
        <ele>43</ele>
        <time>2021-03-25T00:01:19Z</time>
      </trkpt>
      <trkpt lat="47.75588" lon="-0.47579">
        <ele>46</ele>
        <time>2021-03-25T00:01:46Z</time>
      </trkpt>
      <trkpt lat="47.75637" lon="-0.47896">
        <ele>49</ele>
        <time>2021-03-25T00:02:25Z</time>
      </trkpt>
      <trkpt lat="47.75675" lon="-0.48142">
        <ele>47</ele>
        <time>2021-03-25T00:02:55Z</time>
      </trkpt>
      <trkpt lat="47.7571" lon="-0.48373">
        <ele>49</ele>
        <time>2021-03-25T00:03:23Z</time>
      </trkpt>
      <trkpt lat="47.75719" lon="-0.48435">
        <ele>49</ele>
        <time>2021-03-25T00:03:31Z</time>
      </trkpt>
      <trkpt lat="47.75735" lon="-0.48531">
        <ele>48</ele>
        <time>2021-03-25T00:03:42Z</time>
      </trkpt>
      <trkpt lat="47.75747" lon="-0.48611">
        <ele>47</ele>
        <time>2021-03-25T00:03:52Z</time>
      </trkpt>
      <trkpt lat="47.75774" lon="-0.48781">
        <ele>46</ele>
        <time>2021-03-25T00:04:13Z</time>
      </trkpt>
      <trkpt lat="47.75774" lon="-0.48781">
        <ele>46</ele>
        <time>2021-03-25T00:04:13Z</time>
      </trkpt>
      <trkpt lat="47.75795" lon="-0.48916">
        <ele>46</ele>
        <time>2021-03-25T00:04:30Z</time>
      </trkpt>
      <trkpt lat="47.75805" lon="-0.48981">
        <ele>46</ele>
        <time>2021-03-25T00:04:38Z</time>
      </trkpt>
      <trkpt lat="47.75811" lon="-0.4902">
        <ele>46</ele>
        <time>2021-03-25T00:04:43Z</time>
      </trkpt>
      <trkpt lat="47.75817" lon="-0.49048">
        <ele>45</ele>
        <time>2021-03-25T00:04:46Z</time>
      </trkpt>
      <trkpt lat="47.75819" lon="-0.49056">
        <ele>45</ele>
        <time>2021-03-25T00:04:47Z</time>
      </trkpt>
      <trkpt lat="47.75826" lon="-0.49067">
        <ele>45</ele>
        <time>2021-03-25T00:04:49Z</time>
      </trkpt>
      <trkpt lat="47.75826" lon="-0.49067">
        <ele>45</ele>
        <time>2021-03-25T00:04:49Z</time>
      </trkpt>
      <trkpt lat="47.75815" lon="-0.49085">
        <ele>45</ele>
        <time>2021-03-25T00:04:52Z</time>
      </trkpt>
      <trkpt lat="47.75815" lon="-0.49085">
        <ele>45</ele>
        <time>2021-03-25T00:04:52Z</time>
      </trkpt>
      <trkpt lat="47.7582" lon="-0.49092">
        <ele>45</ele>
        <time>2021-03-25T00:04:53Z</time>
      </trkpt>
      <trkpt lat="47.75824" lon="-0.49098">
        <ele>44</ele>
        <time>2021-03-25T00:04:54Z</time>
      </trkpt>
      <trkpt lat="47.75827" lon="-0.49105">
        <ele>44</ele>
        <time>2021-03-25T00:04:55Z</time>
      </trkpt>
      <trkpt lat="47.7583" lon="-0.49124">
        <ele>43</ele>
        <time>2021-03-25T00:04:57Z</time>
      </trkpt>
      <trkpt lat="47.7583" lon="-0.4913">
        <ele>43</ele>
        <time>2021-03-25T00:04:58Z</time>
      </trkpt>
      <trkpt lat="47.7583" lon="-0.49142">
        <ele>43</ele>
        <time>2021-03-25T00:04:59Z</time>
      </trkpt>
      <trkpt lat="47.75829" lon="-0.49162">
        <ele>42</ele>
        <time>2021-03-25T00:05:02Z</time>
      </trkpt>
      <trkpt lat="47.75825" lon="-0.49191">
        <ele>42</ele>
        <time>2021-03-25T00:05:05Z</time>
      </trkpt>
      <trkpt lat="47.75823" lon="-0.49213">
        <ele>42</ele>
        <time>2021-03-25T00:05:08Z</time>
      </trkpt>
      <trkpt lat="47.7582" lon="-0.49232">
        <ele>41</ele>
        <time>2021-03-25T00:05:10Z</time>
      </trkpt>
      <trkpt lat="47.7582" lon="-0.49235">
        <ele>41</ele>
        <time>2021-03-25T00:05:11Z</time>
      </trkpt>
      <trkpt lat="47.7582" lon="-0.49242">
        <ele>41</ele>
        <time>2021-03-25T00:05:12Z</time>
      </trkpt>
      <trkpt lat="47.75819" lon="-0.49245">
        <ele>41</ele>
        <time>2021-03-25T00:05:12Z</time>
      </trkpt>
      <trkpt lat="47.75818" lon="-0.49258">
        <ele>41</ele>
        <time>2021-03-25T00:05:14Z</time>
      </trkpt>
      <trkpt lat="47.75818" lon="-0.49271">
        <ele>40</ele>
        <time>2021-03-25T00:05:15Z</time>
      </trkpt>
      <trkpt lat="47.75817" lon="-0.4928">
        <ele>40</ele>
        <time>2021-03-25T00:05:16Z</time>
      </trkpt>
      <trkpt lat="47.75817" lon="-0.49287">
        <ele>40</ele>
        <time>2021-03-25T00:05:17Z</time>
      </trkpt>
      <trkpt lat="47.75818" lon="-0.49289">
        <ele>40</ele>
        <time>2021-03-25T00:05:17Z</time>
      </trkpt>
      <trkpt lat="47.75818" lon="-0.49294">
        <ele>40</ele>
        <time>2021-03-25T00:05:18Z</time>
      </trkpt>
      <trkpt lat="47.75819" lon="-0.49301">
        <ele>39</ele>
        <time>2021-03-25T00:05:19Z</time>
      </trkpt>
      <trkpt lat="47.75819" lon="-0.49308">
        <ele>39</ele>
        <time>2021-03-25T00:05:20Z</time>
      </trkpt>
      <trkpt lat="47.75818" lon="-0.49315">
        <ele>39</ele>
        <time>2021-03-25T00:05:20Z</time>
      </trkpt>
      <trkpt lat="47.75817" lon="-0.49321">
        <ele>39</ele>
        <time>2021-03-25T00:05:21Z</time>
      </trkpt>
      <trkpt lat="47.75814" lon="-0.49328">
        <ele>39</ele>
        <time>2021-03-25T00:05:22Z</time>
      </trkpt>
      <trkpt lat="47.75811" lon="-0.49335">
        <ele>39</ele>
        <time>2021-03-25T00:05:23Z</time>
      </trkpt>
      <trkpt lat="47.75807" lon="-0.49342">
        <ele>39</ele>
        <time>2021-03-25T00:05:24Z</time>
      </trkpt>
      <trkpt lat="47.75804" lon="-0.49347">
        <ele>39</ele>
        <time>2021-03-25T00:05:25Z</time>
      </trkpt>
      <trkpt lat="47.75802" lon="-0.49351">
        <ele>39</ele>
        <time>2021-03-25T00:05:26Z</time>
      </trkpt>
      <trkpt lat="47.75796" lon="-0.49365">
        <ele>39</ele>
        <time>2021-03-25T00:05:28Z</time>
      </trkpt>
      <trkpt lat="47.7579" lon="-0.4938">
        <ele>39</ele>
        <time>2021-03-25T00:05:30Z</time>
      </trkpt>
      <trkpt lat="47.75786" lon="-0.49388">
        <ele>39</ele>
        <time>2021-03-25T00:05:31Z</time>
      </trkpt>
      <trkpt lat="47.75781" lon="-0.49399">
        <ele>38</ele>
        <time>2021-03-25T00:05:33Z</time>
      </trkpt>
      <trkpt lat="47.75777" lon="-0.49409">
        <ele>38</ele>
        <time>2021-03-25T00:05:34Z</time>
      </trkpt>
      <trkpt lat="47.75774" lon="-0.49417">
        <ele>38</ele>
        <time>2021-03-25T00:05:35Z</time>
      </trkpt>
      <trkpt lat="47.75766" lon="-0.4943">
        <ele>38</ele>
        <time>2021-03-25T00:05:37Z</time>
      </trkpt>
      <trkpt lat="47.75762" lon="-0.49435">
        <ele>38</ele>
        <time>2021-03-25T00:05:38Z</time>
      </trkpt>
      <trkpt lat="47.75755" lon="-0.49445">
        <ele>38</ele>
        <time>2021-03-25T00:05:40Z</time>
      </trkpt>
      <trkpt lat="47.75743" lon="-0.4946">
        <ele>38</ele>
        <time>2021-03-25T00:05:43Z</time>
      </trkpt>
      <trkpt lat="47.7574" lon="-0.49466">
        <ele>38</ele>
        <time>2021-03-25T00:05:44Z</time>
      </trkpt>
      <trkpt lat="47.75738" lon="-0.4947">
        <ele>38</ele>
        <time>2021-03-25T00:05:44Z</time>
      </trkpt>
      <trkpt lat="47.75737" lon="-0.49475">
        <ele>38</ele>
        <time>2021-03-25T00:05:45Z</time>
      </trkpt>
      <trkpt lat="47.75737" lon="-0.49475">
        <ele>38</ele>
        <time>2021-03-25T00:05:45Z</time>
      </trkpt>
      <trkpt lat="47.75737" lon="-0.49478">
        <ele>38</ele>
        <time>2021-03-25T00:05:45Z</time>
      </trkpt>
      <trkpt lat="47.75738" lon="-0.49484">
        <ele>37</ele>
        <time>2021-03-25T00:05:46Z</time>
      </trkpt>
      <trkpt lat="47.75743" lon="-0.49499">
        <ele>36</ele>
        <time>2021-03-25T00:05:48Z</time>
      </trkpt>
      <trkpt lat="47.7576" lon="-0.49548">
        <ele>36</ele>
        <time>2021-03-25T00:05:54Z</time>
      </trkpt>
      <trkpt lat="47.75768" lon="-0.49567">
        <ele>36</ele>
        <time>2021-03-25T00:05:57Z</time>
      </trkpt>
      <trkpt lat="47.75771" lon="-0.49575">
        <ele>36</ele>
        <time>2021-03-25T00:05:58Z</time>
      </trkpt>
      <trkpt lat="47.75781" lon="-0.49601">
        <ele>36</ele>
        <time>2021-03-25T00:06:02Z</time>
      </trkpt>
      <trkpt lat="47.75786" lon="-0.49613">
        <ele>36</ele>
        <time>2021-03-25T00:06:03Z</time>
      </trkpt>
      <trkpt lat="47.75795" lon="-0.49638">
        <ele>36</ele>
        <time>2021-03-25T00:06:07Z</time>
      </trkpt>
      <trkpt lat="47.758" lon="-0.49654">
        <ele>36</ele>
        <time>2021-03-25T00:06:09Z</time>
      </trkpt>
      <trkpt lat="47.75802" lon="-0.49661">
        <ele>36</ele>
        <time>2021-03-25T00:06:10Z</time>
      </trkpt>
      <trkpt lat="47.75804" lon="-0.49671">
        <ele>36</ele>
        <time>2021-03-25T00:06:11Z</time>
      </trkpt>
      <trkpt lat="47.75804" lon="-0.49674">
        <ele>36</ele>
        <time>2021-03-25T00:06:11Z</time>
      </trkpt>
      <trkpt lat="47.75806" lon="-0.49687">
        <ele>36</ele>
        <time>2021-03-25T00:06:13Z</time>
      </trkpt>
      <trkpt lat="47.75806" lon="-0.49706">
        <ele>36</ele>
        <time>2021-03-25T00:06:15Z</time>
      </trkpt>
      <trkpt lat="47.75806" lon="-0.49724">
        <ele>36</ele>
        <time>2021-03-25T00:06:18Z</time>
      </trkpt>
      <trkpt lat="47.75805" lon="-0.49741">
        <ele>35</ele>
        <time>2021-03-25T00:06:20Z</time>
      </trkpt>
      <trkpt lat="47.75802" lon="-0.49762">
        <ele>35</ele>
        <time>2021-03-25T00:06:22Z</time>
      </trkpt>
      <trkpt lat="47.75799" lon="-0.49773">
        <ele>35</ele>
        <time>2021-03-25T00:06:24Z</time>
      </trkpt>
      <trkpt lat="47.75797" lon="-0.49785">
        <ele>36</ele>
        <time>2021-03-25T00:06:25Z</time>
      </trkpt>
      <trkpt lat="47.75789" lon="-0.49825">
        <ele>36</ele>
        <time>2021-03-25T00:06:30Z</time>
      </trkpt>
      <trkpt lat="47.75788" lon="-0.49827">
        <ele>36</ele>
        <time>2021-03-25T00:06:30Z</time>
      </trkpt>
      <trkpt lat="47.75768" lon="-0.49932">
        <ele>39</ele>
        <time>2021-03-25T00:06:43Z</time>
      </trkpt>
      <trkpt lat="47.75753" lon="-0.49997">
        <ele>41</ele>
        <time>2021-03-25T00:06:52Z</time>
      </trkpt>
      <trkpt lat="47.75734" lon="-0.50087">
        <ele>43</ele>
        <time>2021-03-25T00:07:03Z</time>
      </trkpt>
      <trkpt lat="47.75718" lon="-0.50166">
        <ele>45</ele>
        <time>2021-03-25T00:07:13Z</time>
      </trkpt>
      <trkpt lat="47.75713" lon="-0.50194">
        <ele>45</ele>
        <time>2021-03-25T00:07:16Z</time>
      </trkpt>
      <trkpt lat="47.75708" lon="-0.50219">
        <ele>46</ele>
        <time>2021-03-25T00:07:19Z</time>
      </trkpt>
      <trkpt lat="47.75702" lon="-0.50243">
        <ele>47</ele>
        <time>2021-03-25T00:07:22Z</time>
      </trkpt>
      <trkpt lat="47.75697" lon="-0.50269">
        <ele>47</ele>
        <time>2021-03-25T00:07:26Z</time>
      </trkpt>
      <trkpt lat="47.75689" lon="-0.50294">
        <ele>46</ele>
        <time>2021-03-25T00:07:29Z</time>
      </trkpt>
      <trkpt lat="47.75683" lon="-0.50311">
        <ele>46</ele>
        <time>2021-03-25T00:07:31Z</time>
      </trkpt>
      <trkpt lat="47.7567" lon="-0.50338">
        <ele>45</ele>
        <time>2021-03-25T00:07:35Z</time>
      </trkpt>
      <trkpt lat="47.75656" lon="-0.50369">
        <ele>43</ele>
        <time>2021-03-25T00:07:40Z</time>
      </trkpt>
      <trkpt lat="47.75637" lon="-0.50401">
        <ele>41</ele>
        <time>2021-03-25T00:07:45Z</time>
      </trkpt>
      <trkpt lat="47.75616" lon="-0.50434">
        <ele>39</ele>
        <time>2021-03-25T00:07:50Z</time>
      </trkpt>
      <trkpt lat="47.75608" lon="-0.50448">
        <ele>39</ele>
        <time>2021-03-25T00:07:52Z</time>
      </trkpt>
      <trkpt lat="47.75599" lon="-0.50462">
        <ele>38</ele>
        <time>2021-03-25T00:07:55Z</time>
      </trkpt>
      <trkpt lat="47.75587" lon="-0.50484">
        <ele>38</ele>
        <time>2021-03-25T00:07:58Z</time>
      </trkpt>
      <trkpt lat="47.75578" lon="-0.50501">
        <ele>38</ele>
        <time>2021-03-25T00:08:01Z</time>
      </trkpt>
      <trkpt lat="47.75574" lon="-0.50509">
        <ele>38</ele>
        <time>2021-03-25T00:08:02Z</time>
      </trkpt>
      <trkpt lat="47.75569" lon="-0.50524">
        <ele>38</ele>
        <time>2021-03-25T00:08:04Z</time>
      </trkpt>
      <trkpt lat="47.7556" lon="-0.50549">
        <ele>37</ele>
        <time>2021-03-25T00:08:07Z</time>
      </trkpt>
      <trkpt lat="47.75536" lon="-0.50651">
        <ele>37</ele>
        <time>2021-03-25T00:08:20Z</time>
      </trkpt>
      <trkpt lat="47.75525" lon="-0.50705">
        <ele>37</ele>
        <time>2021-03-25T00:08:27Z</time>
      </trkpt>
      <trkpt lat="47.7552" lon="-0.50724">
        <ele>37</ele>
        <time>2021-03-25T00:08:29Z</time>
      </trkpt>
      <trkpt lat="47.75516" lon="-0.50737">
        <ele>37</ele>
        <time>2021-03-25T00:08:31Z</time>
      </trkpt>
      <trkpt lat="47.75515" lon="-0.50744">
        <ele>38</ele>
        <time>2021-03-25T00:08:32Z</time>
      </trkpt>
      <trkpt lat="47.75512" lon="-0.5075">
        <ele>38</ele>
        <time>2021-03-25T00:08:33Z</time>
      </trkpt>
      <trkpt lat="47.75511" lon="-0.50753">
        <ele>38</ele>
        <time>2021-03-25T00:08:33Z</time>
      </trkpt>
      <trkpt lat="47.75508" lon="-0.50758">
        <ele>38</ele>
        <time>2021-03-25T00:08:34Z</time>
      </trkpt>
      <trkpt lat="47.75499" lon="-0.50773">
        <ele>38</ele>
        <time>2021-03-25T00:08:36Z</time>
      </trkpt>
      <trkpt lat="47.75479" lon="-0.50807">
        <ele>38</ele>
        <time>2021-03-25T00:08:42Z</time>
      </trkpt>
      <trkpt lat="47.75457" lon="-0.50847">
        <ele>38</ele>
        <time>2021-03-25T00:08:48Z</time>
      </trkpt>
      <trkpt lat="47.75433" lon="-0.5089">
        <ele>38</ele>
        <time>2021-03-25T00:08:55Z</time>
      </trkpt>
      <trkpt lat="47.75393" lon="-0.50962">
        <ele>38</ele>
        <time>2021-03-25T00:09:06Z</time>
      </trkpt>
      <trkpt lat="47.75378" lon="-0.50987">
        <ele>37</ele>
        <time>2021-03-25T00:09:10Z</time>
      </trkpt>
      <trkpt lat="47.75335" lon="-0.51064">
        <ele>36</ele>
        <time>2021-03-25T00:09:22Z</time>
      </trkpt>
      <trkpt lat="47.75327" lon="-0.51078">
        <ele>36</ele>
        <time>2021-03-25T00:09:24Z</time>
      </trkpt>
      <trkpt lat="47.75323" lon="-0.51085">
        <ele>36</ele>
        <time>2021-03-25T00:09:25Z</time>
      </trkpt>
      <trkpt lat="47.75308" lon="-0.51113">
        <ele>36</ele>
        <time>2021-03-25T00:09:29Z</time>
      </trkpt>
      <trkpt lat="47.75287" lon="-0.51151">
        <ele>36</ele>
        <time>2021-03-25T00:09:35Z</time>
      </trkpt>
      <trkpt lat="47.75269" lon="-0.51183">
        <ele>36</ele>
        <time>2021-03-25T00:09:40Z</time>
      </trkpt>
      <trkpt lat="47.75257" lon="-0.51206">
        <ele>36</ele>
        <time>2021-03-25T00:09:44Z</time>
      </trkpt>
      <trkpt lat="47.7525" lon="-0.51218">
        <ele>36</ele>
        <time>2021-03-25T00:09:46Z</time>
      </trkpt>
      <trkpt lat="47.75234" lon="-0.51246">
        <ele>36</ele>
        <time>2021-03-25T00:09:50Z</time>
      </trkpt>
      <trkpt lat="47.75216" lon="-0.51278">
        <ele>36</ele>
        <time>2021-03-25T00:09:55Z</time>
      </trkpt>
      <trkpt lat="47.75203" lon="-0.51302">
        <ele>36</ele>
        <time>2021-03-25T00:09:59Z</time>
      </trkpt>
      <trkpt lat="47.75191" lon="-0.51329">
        <ele>36</ele>
        <time>2021-03-25T00:10:03Z</time>
      </trkpt>
      <trkpt lat="47.75182" lon="-0.51353">
        <ele>37</ele>
        <time>2021-03-25T00:10:06Z</time>
      </trkpt>
      <trkpt lat="47.75174" lon="-0.51382">
        <ele>37</ele>
        <time>2021-03-25T00:10:10Z</time>
      </trkpt>
      <trkpt lat="47.75168" lon="-0.51402">
        <ele>37</ele>
        <time>2021-03-25T00:10:12Z</time>
      </trkpt>
      <trkpt lat="47.75164" lon="-0.51428">
        <ele>37</ele>
        <time>2021-03-25T00:10:16Z</time>
      </trkpt>
      <trkpt lat="47.75162" lon="-0.51464">
        <ele>37</ele>
        <time>2021-03-25T00:10:20Z</time>
      </trkpt>
      <trkpt lat="47.75161" lon="-0.51491">
        <ele>37</ele>
        <time>2021-03-25T00:10:23Z</time>
      </trkpt>
      <trkpt lat="47.75162" lon="-0.51519">
        <ele>37</ele>
        <time>2021-03-25T00:10:26Z</time>
      </trkpt>
      <trkpt lat="47.75167" lon="-0.51552">
        <ele>37</ele>
        <time>2021-03-25T00:10:30Z</time>
      </trkpt>
      <trkpt lat="47.75175" lon="-0.51595">
        <ele>37</ele>
        <time>2021-03-25T00:10:36Z</time>
      </trkpt>
      <trkpt lat="47.75184" lon="-0.51638">
        <ele>37</ele>
        <time>2021-03-25T00:10:41Z</time>
      </trkpt>
      <trkpt lat="47.75191" lon="-0.51673">
        <ele>37</ele>
        <time>2021-03-25T00:10:46Z</time>
      </trkpt>
      <trkpt lat="47.75219" lon="-0.51816">
        <ele>37</ele>
        <time>2021-03-25T00:11:03Z</time>
      </trkpt>
      <trkpt lat="47.75251" lon="-0.51975">
        <ele>38</ele>
        <time>2021-03-25T00:11:23Z</time>
      </trkpt>
      <trkpt lat="47.75272" lon="-0.52077">
        <ele>40</ele>
        <time>2021-03-25T00:11:36Z</time>
      </trkpt>
      <trkpt lat="47.75277" lon="-0.52103">
        <ele>41</ele>
        <time>2021-03-25T00:11:39Z</time>
      </trkpt>
      <trkpt lat="47.75288" lon="-0.52158">
        <ele>43</ele>
        <time>2021-03-25T00:11:46Z</time>
      </trkpt>
      <trkpt lat="47.75301" lon="-0.52218">
        <ele>45</ele>
        <time>2021-03-25T00:11:54Z</time>
      </trkpt>
      <trkpt lat="47.75314" lon="-0.52282">
        <ele>46</ele>
        <time>2021-03-25T00:12:02Z</time>
      </trkpt>
      <trkpt lat="47.75327" lon="-0.52349">
        <ele>48</ele>
        <time>2021-03-25T00:12:10Z</time>
      </trkpt>
      <trkpt lat="47.75339" lon="-0.52406">
        <ele>50</ele>
        <time>2021-03-25T00:12:17Z</time>
      </trkpt>
      <trkpt lat="47.75351" lon="-0.52462">
        <ele>49</ele>
        <time>2021-03-25T00:12:24Z</time>
      </trkpt>
      <trkpt lat="47.7536" lon="-0.52505">
        <ele>49</ele>
        <time>2021-03-25T00:12:30Z</time>
      </trkpt>
      <trkpt lat="47.75368" lon="-0.52541">
        <ele>49</ele>
        <time>2021-03-25T00:12:34Z</time>
      </trkpt>
      <trkpt lat="47.75373" lon="-0.52576">
        <ele>49</ele>
        <time>2021-03-25T00:12:38Z</time>
      </trkpt>
      <trkpt lat="47.75379" lon="-0.52606">
        <ele>49</ele>
        <time>2021-03-25T00:12:42Z</time>
      </trkpt>
      <trkpt lat="47.75385" lon="-0.52643">
        <ele>49</ele>
        <time>2021-03-25T00:12:47Z</time>
      </trkpt>
      <trkpt lat="47.75386" lon="-0.52649">
        <ele>49</ele>
        <time>2021-03-25T00:12:47Z</time>
      </trkpt>
      <trkpt lat="47.75388" lon="-0.52663">
        <ele>48</ele>
        <time>2021-03-25T00:12:49Z</time>
      </trkpt>
      <trkpt lat="47.75389" lon="-0.52684">
        <ele>48</ele>
        <time>2021-03-25T00:12:52Z</time>
      </trkpt>
      <trkpt lat="47.75388" lon="-0.52706">
        <ele>47</ele>
        <time>2021-03-25T00:12:54Z</time>
      </trkpt>
      <trkpt lat="47.75385" lon="-0.52732">
        <ele>46</ele>
        <time>2021-03-25T00:12:57Z</time>
      </trkpt>
      <trkpt lat="47.7538" lon="-0.52757">
        <ele>45</ele>
        <time>2021-03-25T00:13:01Z</time>
      </trkpt>
      <trkpt lat="47.75371" lon="-0.52791">
        <ele>44</ele>
        <time>2021-03-25T00:13:05Z</time>
      </trkpt>
      <trkpt lat="47.75359" lon="-0.52837">
        <ele>42</ele>
        <time>2021-03-25T00:13:11Z</time>
      </trkpt>
      <trkpt lat="47.75348" lon="-0.52875">
        <ele>42</ele>
        <time>2021-03-25T00:13:16Z</time>
      </trkpt>
      <trkpt lat="47.75339" lon="-0.52908">
        <ele>42</ele>
        <time>2021-03-25T00:13:20Z</time>
      </trkpt>
      <trkpt lat="47.75332" lon="-0.52938">
        <ele>43</ele>
        <time>2021-03-25T00:13:24Z</time>
      </trkpt>
      <trkpt lat="47.75324" lon="-0.52968">
        <ele>44</ele>
        <time>2021-03-25T00:13:28Z</time>
      </trkpt>
      <trkpt lat="47.75319" lon="-0.52996">
        <ele>45</ele>
        <time>2021-03-25T00:13:31Z</time>
      </trkpt>
      <trkpt lat="47.75312" lon="-0.53043">
        <ele>46</ele>
        <time>2021-03-25T00:13:37Z</time>
      </trkpt>
      <trkpt lat="47.75312" lon="-0.53043">
        <ele>46</ele>
        <time>2021-03-25T00:13:37Z</time>
      </trkpt>
      <trkpt lat="47.7531" lon="-0.531">
        <ele>47</ele>
        <time>2021-03-25T00:13:44Z</time>
      </trkpt>
      <trkpt lat="47.7531" lon="-0.53146">
        <ele>48</ele>
        <time>2021-03-25T00:13:49Z</time>
      </trkpt>
      <trkpt lat="47.75306" lon="-0.53248">
        <ele>50</ele>
        <time>2021-03-25T00:14:01Z</time>
      </trkpt>
      <trkpt lat="47.75303" lon="-0.53292">
        <ele>50</ele>
        <time>2021-03-25T00:14:07Z</time>
      </trkpt>
      <trkpt lat="47.75301" lon="-0.53313">
        <ele>51</ele>
        <time>2021-03-25T00:14:09Z</time>
      </trkpt>
      <trkpt lat="47.75297" lon="-0.53333">
        <ele>51</ele>
        <time>2021-03-25T00:14:12Z</time>
      </trkpt>
      <trkpt lat="47.75295" lon="-0.5334">
        <ele>51</ele>
        <time>2021-03-25T00:14:13Z</time>
      </trkpt>
      <trkpt lat="47.75288" lon="-0.53366">
        <ele>51</ele>
        <time>2021-03-25T00:14:16Z</time>
      </trkpt>
      <trkpt lat="47.75284" lon="-0.53384">
        <ele>52</ele>
        <time>2021-03-25T00:14:18Z</time>
      </trkpt>
      <trkpt lat="47.75267" lon="-0.53427">
        <ele>52</ele>
        <time>2021-03-25T00:14:24Z</time>
      </trkpt>
      <trkpt lat="47.75251" lon="-0.53459">
        <ele>53</ele>
        <time>2021-03-25T00:14:29Z</time>
      </trkpt>
      <trkpt lat="47.75241" lon="-0.53474">
        <ele>53</ele>
        <time>2021-03-25T00:14:32Z</time>
      </trkpt>
      <trkpt lat="47.75201" lon="-0.53533">
        <ele>52</ele>
        <time>2021-03-25T00:14:42Z</time>
      </trkpt>
      <trkpt lat="47.7513" lon="-0.53636">
        <ele>51</ele>
        <time>2021-03-25T00:14:59Z</time>
      </trkpt>
      <trkpt lat="47.7513" lon="-0.53636">
        <ele>51</ele>
        <time>2021-03-25T00:14:59Z</time>
      </trkpt>
      <trkpt lat="47.7511" lon="-0.53668">
        <ele>51</ele>
        <time>2021-03-25T00:15:04Z</time>
      </trkpt>
      <trkpt lat="47.7505" lon="-0.53755">
        <ele>52</ele>
        <time>2021-03-25T00:15:19Z</time>
      </trkpt>
      <trkpt lat="47.7498" lon="-0.53859">
        <ele>52</ele>
        <time>2021-03-25T00:15:37Z</time>
      </trkpt>
      <trkpt lat="47.74911" lon="-0.53961">
        <ele>52</ele>
        <time>2021-03-25T00:15:54Z</time>
      </trkpt>
      <trkpt lat="47.74885" lon="-0.54">
        <ele>53</ele>
        <time>2021-03-25T00:16:01Z</time>
      </trkpt>
      <trkpt lat="47.74882" lon="-0.54004">
        <ele>53</ele>
        <time>2021-03-25T00:16:02Z</time>
      </trkpt>
      <trkpt lat="47.74854" lon="-0.54048">
        <ele>55</ele>
        <time>2021-03-25T00:16:09Z</time>
      </trkpt>
      <trkpt lat="47.74813" lon="-0.54111">
        <ele>56</ele>
        <time>2021-03-25T00:16:19Z</time>
      </trkpt>
      <trkpt lat="47.74791" lon="-0.54144">
        <ele>56</ele>
        <time>2021-03-25T00:16:25Z</time>
      </trkpt>
      <trkpt lat="47.74775" lon="-0.54168">
        <ele>56</ele>
        <time>2021-03-25T00:16:29Z</time>
      </trkpt>
      <trkpt lat="47.74763" lon="-0.54199">
        <ele>56</ele>
        <time>2021-03-25T00:16:33Z</time>
      </trkpt>
      <trkpt lat="47.74754" lon="-0.54233">
        <ele>56</ele>
        <time>2021-03-25T00:16:38Z</time>
      </trkpt>
      <trkpt lat="47.74746" lon="-0.54272">
        <ele>56</ele>
        <time>2021-03-25T00:16:42Z</time>
      </trkpt>
      <trkpt lat="47.74736" lon="-0.54308">
        <ele>57</ele>
        <time>2021-03-25T00:16:47Z</time>
      </trkpt>
      <trkpt lat="47.74724" lon="-0.54346">
        <ele>58</ele>
        <time>2021-03-25T00:16:52Z</time>
      </trkpt>
      <trkpt lat="47.7471" lon="-0.54379">
        <ele>59</ele>
        <time>2021-03-25T00:16:57Z</time>
      </trkpt>
      <trkpt lat="47.74691" lon="-0.54422">
        <ele>59</ele>
        <time>2021-03-25T00:17:03Z</time>
      </trkpt>
      <trkpt lat="47.74667" lon="-0.5447">
        <ele>60</ele>
        <time>2021-03-25T00:17:10Z</time>
      </trkpt>
      <trkpt lat="47.74644" lon="-0.54517">
        <ele>62</ele>
        <time>2021-03-25T00:17:17Z</time>
      </trkpt>
      <trkpt lat="47.74638" lon="-0.5453">
        <ele>62</ele>
        <time>2021-03-25T00:17:19Z</time>
      </trkpt>
      <trkpt lat="47.74625" lon="-0.54557">
        <ele>63</ele>
        <time>2021-03-25T00:17:23Z</time>
      </trkpt>
      <trkpt lat="47.74609" lon="-0.54591">
        <ele>64</ele>
        <time>2021-03-25T00:17:28Z</time>
      </trkpt>
      <trkpt lat="47.74596" lon="-0.54628">
        <ele>65</ele>
        <time>2021-03-25T00:17:33Z</time>
      </trkpt>
      <trkpt lat="47.74586" lon="-0.54664">
        <ele>65</ele>
        <time>2021-03-25T00:17:38Z</time>
      </trkpt>
      <trkpt lat="47.74583" lon="-0.54677">
        <ele>65</ele>
        <time>2021-03-25T00:17:39Z</time>
      </trkpt>
      <trkpt lat="47.74578" lon="-0.54698">
        <ele>65</ele>
        <time>2021-03-25T00:17:42Z</time>
      </trkpt>
      <trkpt lat="47.74575" lon="-0.54719">
        <ele>64</ele>
        <time>2021-03-25T00:17:44Z</time>
      </trkpt>
      <trkpt lat="47.7457" lon="-0.54748">
        <ele>64</ele>
        <time>2021-03-25T00:17:48Z</time>
      </trkpt>
      <trkpt lat="47.74564" lon="-0.54777">
        <ele>65</ele>
        <time>2021-03-25T00:17:52Z</time>
      </trkpt>
      <trkpt lat="47.74559" lon="-0.54793">
        <ele>65</ele>
        <time>2021-03-25T00:17:54Z</time>
      </trkpt>
      <trkpt lat="47.74552" lon="-0.54812">
        <ele>66</ele>
        <time>2021-03-25T00:17:56Z</time>
      </trkpt>
      <trkpt lat="47.74543" lon="-0.54827">
        <ele>66</ele>
        <time>2021-03-25T00:17:59Z</time>
      </trkpt>
      <trkpt lat="47.74535" lon="-0.54839">
        <ele>67</ele>
        <time>2021-03-25T00:18:01Z</time>
      </trkpt>
      <trkpt lat="47.7453" lon="-0.54844">
        <ele>67</ele>
        <time>2021-03-25T00:18:02Z</time>
      </trkpt>
      <trkpt lat="47.74524" lon="-0.5485">
        <ele>67</ele>
        <time>2021-03-25T00:18:03Z</time>
      </trkpt>
      <trkpt lat="47.74506" lon="-0.54867">
        <ele>67</ele>
        <time>2021-03-25T00:18:07Z</time>
      </trkpt>
      <trkpt lat="47.74394" lon="-0.54962">
        <ele>70</ele>
        <time>2021-03-25T00:18:30Z</time>
      </trkpt>
      <trkpt lat="47.7435" lon="-0.54997">
        <ele>71</ele>
        <time>2021-03-25T00:18:39Z</time>
      </trkpt>
      <trkpt lat="47.7433" lon="-0.55016">
        <ele>71</ele>
        <time>2021-03-25T00:18:43Z</time>
      </trkpt>
      <trkpt lat="47.74307" lon="-0.5505">
        <ele>70</ele>
        <time>2021-03-25T00:18:49Z</time>
      </trkpt>
      <trkpt lat="47.743" lon="-0.55073">
        <ele>69</ele>
        <time>2021-03-25T00:18:52Z</time>
      </trkpt>
      <trkpt lat="47.74296" lon="-0.55103">
        <ele>68</ele>
        <time>2021-03-25T00:18:55Z</time>
      </trkpt>
      <trkpt lat="47.74295" lon="-0.55129">
        <ele>67</ele>
        <time>2021-03-25T00:18:59Z</time>
      </trkpt>
      <trkpt lat="47.74297" lon="-0.55156">
        <ele>67</ele>
        <time>2021-03-25T00:19:02Z</time>
      </trkpt>
      <trkpt lat="47.74302" lon="-0.55187">
        <ele>66</ele>
        <time>2021-03-25T00:19:06Z</time>
      </trkpt>
      <trkpt lat="47.74309" lon="-0.55232">
        <ele>65</ele>
        <time>2021-03-25T00:19:11Z</time>
      </trkpt>
      <trkpt lat="47.74324" lon="-0.55307">
        <ele>64</ele>
        <time>2021-03-25T00:19:21Z</time>
      </trkpt>
      <trkpt lat="47.74327" lon="-0.55328">
        <ele>64</ele>
        <time>2021-03-25T00:19:23Z</time>
      </trkpt>
      <trkpt lat="47.74332" lon="-0.55358">
        <ele>64</ele>
        <time>2021-03-25T00:19:27Z</time>
      </trkpt>
      <trkpt lat="47.74333" lon="-0.55374">
        <ele>64</ele>
        <time>2021-03-25T00:19:29Z</time>
      </trkpt>
      <trkpt lat="47.74333" lon="-0.55391">
        <ele>64</ele>
        <time>2021-03-25T00:19:31Z</time>
      </trkpt>
      <trkpt lat="47.74334" lon="-0.55407">
        <ele>64</ele>
        <time>2021-03-25T00:19:33Z</time>
      </trkpt>
      <trkpt lat="47.74332" lon="-0.55421">
        <ele>64</ele>
        <time>2021-03-25T00:19:34Z</time>
      </trkpt>
      <trkpt lat="47.74326" lon="-0.55458">
        <ele>65</ele>
        <time>2021-03-25T00:19:39Z</time>
      </trkpt>
      <trkpt lat="47.74316" lon="-0.55502">
        <ele>65</ele>
        <time>2021-03-25T00:19:44Z</time>
      </trkpt>
      <trkpt lat="47.74305" lon="-0.55539">
        <ele>65</ele>
        <time>2021-03-25T00:19:49Z</time>
      </trkpt>
      <trkpt lat="47.743" lon="-0.55565">
        <ele>65</ele>
        <time>2021-03-25T00:19:53Z</time>
      </trkpt>
      <trkpt lat="47.74296" lon="-0.55591">
        <ele>65</ele>
        <time>2021-03-25T00:19:56Z</time>
      </trkpt>
      <trkpt lat="47.74295" lon="-0.55631">
        <ele>66</ele>
        <time>2021-03-25T00:20:01Z</time>
      </trkpt>
      <trkpt lat="47.74296" lon="-0.55665">
        <ele>66</ele>
        <time>2021-03-25T00:20:05Z</time>
      </trkpt>
      <trkpt lat="47.74301" lon="-0.55718">
        <ele>66</ele>
        <time>2021-03-25T00:20:11Z</time>
      </trkpt>
      <trkpt lat="47.74305" lon="-0.55765">
        <ele>65</ele>
        <time>2021-03-25T00:20:17Z</time>
      </trkpt>
      <trkpt lat="47.74307" lon="-0.55806">
        <ele>66</ele>
        <time>2021-03-25T00:20:22Z</time>
      </trkpt>
      <trkpt lat="47.74304" lon="-0.55849">
        <ele>66</ele>
        <time>2021-03-25T00:20:27Z</time>
      </trkpt>
      <trkpt lat="47.74299" lon="-0.55897">
        <ele>65</ele>
        <time>2021-03-25T00:20:33Z</time>
      </trkpt>
      <trkpt lat="47.74295" lon="-0.55931">
        <ele>65</ele>
        <time>2021-03-25T00:20:37Z</time>
      </trkpt>
      <trkpt lat="47.7429" lon="-0.55966">
        <ele>65</ele>
        <time>2021-03-25T00:20:41Z</time>
      </trkpt>
      <trkpt lat="47.74278" lon="-0.56058">
        <ele>65</ele>
        <time>2021-03-25T00:20:52Z</time>
      </trkpt>
      <trkpt lat="47.74267" lon="-0.56143">
        <ele>65</ele>
        <time>2021-03-25T00:21:03Z</time>
      </trkpt>
      <trkpt lat="47.74253" lon="-0.56257">
        <ele>66</ele>
        <time>2021-03-25T00:21:16Z</time>
      </trkpt>
      <trkpt lat="47.74251" lon="-0.56278">
        <ele>66</ele>
        <time>2021-03-25T00:21:19Z</time>
      </trkpt>
      <trkpt lat="47.74247" lon="-0.56294">
        <ele>67</ele>
        <time>2021-03-25T00:21:21Z</time>
      </trkpt>
      <trkpt lat="47.74243" lon="-0.56308">
        <ele>67</ele>
        <time>2021-03-25T00:21:23Z</time>
      </trkpt>
      <trkpt lat="47.74239" lon="-0.5632">
        <ele>67</ele>
        <time>2021-03-25T00:21:24Z</time>
      </trkpt>
      <trkpt lat="47.74231" lon="-0.56341">
        <ele>67</ele>
        <time>2021-03-25T00:21:27Z</time>
      </trkpt>
      <trkpt lat="47.74186" lon="-0.56456">
        <ele>68</ele>
        <time>2021-03-25T00:21:43Z</time>
      </trkpt>
      <trkpt lat="47.74142" lon="-0.56569">
        <ele>69</ele>
        <time>2021-03-25T00:21:59Z</time>
      </trkpt>
      <trkpt lat="47.7412" lon="-0.56625">
        <ele>70</ele>
        <time>2021-03-25T00:22:07Z</time>
      </trkpt>
      <trkpt lat="47.74107" lon="-0.56662">
        <ele>70</ele>
        <time>2021-03-25T00:22:12Z</time>
      </trkpt>
      <trkpt lat="47.74104" lon="-0.5667">
        <ele>70</ele>
        <time>2021-03-25T00:22:13Z</time>
      </trkpt>
      <trkpt lat="47.74097" lon="-0.56686">
        <ele>70</ele>
        <time>2021-03-25T00:22:15Z</time>
      </trkpt>
      <trkpt lat="47.74094" lon="-0.567">
        <ele>70</ele>
        <time>2021-03-25T00:22:17Z</time>
      </trkpt>
      <trkpt lat="47.74093" lon="-0.56708">
        <ele>69</ele>
        <time>2021-03-25T00:22:18Z</time>
      </trkpt>
      <trkpt lat="47.74092" lon="-0.5672">
        <ele>69</ele>
        <time>2021-03-25T00:22:19Z</time>
      </trkpt>
      <trkpt lat="47.7409" lon="-0.56732">
        <ele>69</ele>
        <time>2021-03-25T00:22:21Z</time>
      </trkpt>
      <trkpt lat="47.7409" lon="-0.56745">
        <ele>69</ele>
        <time>2021-03-25T00:22:22Z</time>
      </trkpt>
      <trkpt lat="47.74091" lon="-0.56761">
        <ele>69</ele>
        <time>2021-03-25T00:22:24Z</time>
      </trkpt>
      <trkpt lat="47.74092" lon="-0.56794">
        <ele>69</ele>
        <time>2021-03-25T00:22:28Z</time>
      </trkpt>
      <trkpt lat="47.74094" lon="-0.56835">
        <ele>70</ele>
        <time>2021-03-25T00:22:33Z</time>
      </trkpt>
      <trkpt lat="47.74095" lon="-0.56862">
        <ele>70</ele>
        <time>2021-03-25T00:22:36Z</time>
      </trkpt>
      <trkpt lat="47.74095" lon="-0.56876">
        <ele>70</ele>
        <time>2021-03-25T00:22:38Z</time>
      </trkpt>
      <trkpt lat="47.74095" lon="-0.56893">
        <ele>71</ele>
        <time>2021-03-25T00:22:40Z</time>
      </trkpt>
      <trkpt lat="47.74094" lon="-0.56905">
        <ele>71</ele>
        <time>2021-03-25T00:22:41Z</time>
      </trkpt>
      <trkpt lat="47.74092" lon="-0.56919">
        <ele>71</ele>
        <time>2021-03-25T00:22:43Z</time>
      </trkpt>
      <trkpt lat="47.7409" lon="-0.56932">
        <ele>71</ele>
        <time>2021-03-25T00:22:45Z</time>
      </trkpt>
      <trkpt lat="47.74082" lon="-0.56968">
        <ele>70</ele>
        <time>2021-03-25T00:22:49Z</time>
      </trkpt>
      <trkpt lat="47.74077" lon="-0.5698">
        <ele>70</ele>
        <time>2021-03-25T00:22:51Z</time>
      </trkpt>
      <trkpt lat="47.74076" lon="-0.56982">
        <ele>70</ele>
        <time>2021-03-25T00:22:51Z</time>
      </trkpt>
      <trkpt lat="47.74071" lon="-0.56994">
        <ele>70</ele>
        <time>2021-03-25T00:22:53Z</time>
      </trkpt>
      <trkpt lat="47.74053" lon="-0.57039">
        <ele>70</ele>
        <time>2021-03-25T00:22:59Z</time>
      </trkpt>
      <trkpt lat="47.74022" lon="-0.57117">
        <ele>71</ele>
        <time>2021-03-25T00:23:10Z</time>
      </trkpt>
      <trkpt lat="47.73992" lon="-0.57196">
        <ele>71</ele>
        <time>2021-03-25T00:23:21Z</time>
      </trkpt>
      <trkpt lat="47.73983" lon="-0.57218">
        <ele>71</ele>
        <time>2021-03-25T00:23:24Z</time>
      </trkpt>
      <trkpt lat="47.73976" lon="-0.57235">
        <ele>71</ele>
        <time>2021-03-25T00:23:26Z</time>
      </trkpt>
      <trkpt lat="47.73962" lon="-0.57267">
        <ele>71</ele>
        <time>2021-03-25T00:23:31Z</time>
      </trkpt>
      <trkpt lat="47.73953" lon="-0.57288">
        <ele>71</ele>
        <time>2021-03-25T00:23:34Z</time>
      </trkpt>
      <trkpt lat="47.73947" lon="-0.57302">
        <ele>71</ele>
        <time>2021-03-25T00:23:36Z</time>
      </trkpt>
      <trkpt lat="47.73933" lon="-0.57334">
        <ele>71</ele>
        <time>2021-03-25T00:23:40Z</time>
      </trkpt>
      <trkpt lat="47.73923" lon="-0.57354">
        <ele>71</ele>
        <time>2021-03-25T00:23:43Z</time>
      </trkpt>
      <trkpt lat="47.73915" lon="-0.57366">
        <ele>71</ele>
        <time>2021-03-25T00:23:45Z</time>
      </trkpt>
      <trkpt lat="47.73908" lon="-0.57375">
        <ele>70</ele>
        <time>2021-03-25T00:23:47Z</time>
      </trkpt>
      <trkpt lat="47.73899" lon="-0.57386">
        <ele>70</ele>
        <time>2021-03-25T00:23:49Z</time>
      </trkpt>
      <trkpt lat="47.7388" lon="-0.57408">
        <ele>70</ele>
        <time>2021-03-25T00:23:53Z</time>
      </trkpt>
      <trkpt lat="47.73862" lon="-0.57429">
        <ele>70</ele>
        <time>2021-03-25T00:23:58Z</time>
      </trkpt>
      <trkpt lat="47.73837" lon="-0.57458">
        <ele>70</ele>
        <time>2021-03-25T00:24:03Z</time>
      </trkpt>
      <trkpt lat="47.73815" lon="-0.57482">
        <ele>69</ele>
        <time>2021-03-25T00:24:08Z</time>
      </trkpt>
      <trkpt lat="47.73807" lon="-0.57492">
        <ele>68</ele>
        <time>2021-03-25T00:24:10Z</time>
      </trkpt>
      <trkpt lat="47.73787" lon="-0.5751">
        <ele>68</ele>
        <time>2021-03-25T00:24:14Z</time>
      </trkpt>
      <trkpt lat="47.7378" lon="-0.57516">
        <ele>67</ele>
        <time>2021-03-25T00:24:15Z</time>
      </trkpt>
      <trkpt lat="47.73774" lon="-0.5752">
        <ele>67</ele>
        <time>2021-03-25T00:24:17Z</time>
      </trkpt>
      <trkpt lat="47.73764" lon="-0.57529">
        <ele>67</ele>
        <time>2021-03-25T00:24:19Z</time>
      </trkpt>
      <trkpt lat="47.73753" lon="-0.5754">
        <ele>67</ele>
        <time>2021-03-25T00:24:21Z</time>
      </trkpt>
      <trkpt lat="47.73744" lon="-0.5755">
        <ele>66</ele>
        <time>2021-03-25T00:24:23Z</time>
      </trkpt>
      <trkpt lat="47.7374" lon="-0.57562">
        <ele>66</ele>
        <time>2021-03-25T00:24:25Z</time>
      </trkpt>
      <trkpt lat="47.73737" lon="-0.5757">
        <ele>66</ele>
        <time>2021-03-25T00:24:26Z</time>
      </trkpt>
      <trkpt lat="47.73735" lon="-0.57581">
        <ele>65</ele>
        <time>2021-03-25T00:24:27Z</time>
      </trkpt>
      <trkpt lat="47.73733" lon="-0.576">
        <ele>65</ele>
        <time>2021-03-25T00:24:29Z</time>
      </trkpt>
      <trkpt lat="47.7373" lon="-0.57619">
        <ele>65</ele>
        <time>2021-03-25T00:24:32Z</time>
      </trkpt>
      <trkpt lat="47.73727" lon="-0.57633">
        <ele>65</ele>
        <time>2021-03-25T00:24:34Z</time>
      </trkpt>
      <trkpt lat="47.73723" lon="-0.57644">
        <ele>64</ele>
        <time>2021-03-25T00:24:35Z</time>
      </trkpt>
      <trkpt lat="47.73718" lon="-0.57655">
        <ele>64</ele>
        <time>2021-03-25T00:24:37Z</time>
      </trkpt>
      <trkpt lat="47.73711" lon="-0.57665">
        <ele>64</ele>
        <time>2021-03-25T00:24:38Z</time>
      </trkpt>
      <trkpt lat="47.73706" lon="-0.57671">
        <ele>63</ele>
        <time>2021-03-25T00:24:40Z</time>
      </trkpt>
      <trkpt lat="47.73682" lon="-0.57692">
        <ele>63</ele>
        <time>2021-03-25T00:24:44Z</time>
      </trkpt>
      <trkpt lat="47.73677" lon="-0.57698">
        <ele>63</ele>
        <time>2021-03-25T00:24:46Z</time>
      </trkpt>
      <trkpt lat="47.73671" lon="-0.57705">
        <ele>63</ele>
        <time>2021-03-25T00:24:47Z</time>
      </trkpt>
      <trkpt lat="47.73665" lon="-0.57713">
        <ele>63</ele>
        <time>2021-03-25T00:24:48Z</time>
      </trkpt>
      <trkpt lat="47.7366" lon="-0.57722">
        <ele>63</ele>
        <time>2021-03-25T00:24:50Z</time>
      </trkpt>
      <trkpt lat="47.73655" lon="-0.57734">
        <ele>63</ele>
        <time>2021-03-25T00:24:51Z</time>
      </trkpt>
      <trkpt lat="47.73655" lon="-0.57735">
        <ele>63</ele>
        <time>2021-03-25T00:24:52Z</time>
      </trkpt>
      <trkpt lat="47.73651" lon="-0.57745">
        <ele>63</ele>
        <time>2021-03-25T00:24:53Z</time>
      </trkpt>
      <trkpt lat="47.73647" lon="-0.57761">
        <ele>63</ele>
        <time>2021-03-25T00:24:55Z</time>
      </trkpt>
      <trkpt lat="47.73631" lon="-0.57821">
        <ele>62</ele>
        <time>2021-03-25T00:25:03Z</time>
      </trkpt>
      <trkpt lat="47.73621" lon="-0.57859">
        <ele>62</ele>
        <time>2021-03-25T00:25:08Z</time>
      </trkpt>
      <trkpt lat="47.73594" lon="-0.57959">
        <ele>64</ele>
        <time>2021-03-25T00:25:21Z</time>
      </trkpt>
      <trkpt lat="47.73581" lon="-0.58005">
        <ele>64</ele>
        <time>2021-03-25T00:25:27Z</time>
      </trkpt>
      <trkpt lat="47.73568" lon="-0.58056">
        <ele>63</ele>
        <time>2021-03-25T00:25:33Z</time>
      </trkpt>
      <trkpt lat="47.73565" lon="-0.58073">
        <ele>63</ele>
        <time>2021-03-25T00:25:35Z</time>
      </trkpt>
      <trkpt lat="47.73561" lon="-0.58088">
        <ele>63</ele>
        <time>2021-03-25T00:25:37Z</time>
      </trkpt>
      <trkpt lat="47.73558" lon="-0.58104">
        <ele>63</ele>
        <time>2021-03-25T00:25:39Z</time>
      </trkpt>
      <trkpt lat="47.73556" lon="-0.58121">
        <ele>63</ele>
        <time>2021-03-25T00:25:41Z</time>
      </trkpt>
      <trkpt lat="47.73551" lon="-0.58154">
        <ele>63</ele>
        <time>2021-03-25T00:25:45Z</time>
      </trkpt>
      <trkpt lat="47.73549" lon="-0.58169">
        <ele>63</ele>
        <time>2021-03-25T00:25:47Z</time>
      </trkpt>
      <trkpt lat="47.73546" lon="-0.58185">
        <ele>63</ele>
        <time>2021-03-25T00:25:49Z</time>
      </trkpt>
      <trkpt lat="47.73544" lon="-0.58202">
        <ele>63</ele>
        <time>2021-03-25T00:25:51Z</time>
      </trkpt>
      <trkpt lat="47.73541" lon="-0.58217">
        <ele>63</ele>
        <time>2021-03-25T00:25:53Z</time>
      </trkpt>
      <trkpt lat="47.73538" lon="-0.58235">
        <ele>63</ele>
        <time>2021-03-25T00:25:55Z</time>
      </trkpt>
      <trkpt lat="47.73535" lon="-0.58251">
        <ele>64</ele>
        <time>2021-03-25T00:25:57Z</time>
      </trkpt>
      <trkpt lat="47.73532" lon="-0.58263">
        <ele>63</ele>
        <time>2021-03-25T00:25:59Z</time>
      </trkpt>
      <trkpt lat="47.73529" lon="-0.58275">
        <ele>63</ele>
        <time>2021-03-25T00:26:00Z</time>
      </trkpt>
      <trkpt lat="47.73524" lon="-0.5829">
        <ele>62</ele>
        <time>2021-03-25T00:26:02Z</time>
      </trkpt>
      <trkpt lat="47.7352" lon="-0.58303">
        <ele>62</ele>
        <time>2021-03-25T00:26:04Z</time>
      </trkpt>
      <trkpt lat="47.73512" lon="-0.5832">
        <ele>61</ele>
        <time>2021-03-25T00:26:06Z</time>
      </trkpt>
      <trkpt lat="47.73501" lon="-0.58342">
        <ele>61</ele>
        <time>2021-03-25T00:26:10Z</time>
      </trkpt>
      <trkpt lat="47.7349" lon="-0.58363">
        <ele>60</ele>
        <time>2021-03-25T00:26:13Z</time>
      </trkpt>
      <trkpt lat="47.73478" lon="-0.58386">
        <ele>60</ele>
        <time>2021-03-25T00:26:16Z</time>
      </trkpt>
      <trkpt lat="47.73471" lon="-0.58402">
        <ele>59</ele>
        <time>2021-03-25T00:26:19Z</time>
      </trkpt>
      <trkpt lat="47.73461" lon="-0.58427">
        <ele>59</ele>
        <time>2021-03-25T00:26:22Z</time>
      </trkpt>
      <trkpt lat="47.73456" lon="-0.58442">
        <ele>59</ele>
        <time>2021-03-25T00:26:24Z</time>
      </trkpt>
      <trkpt lat="47.73451" lon="-0.58461">
        <ele>59</ele>
        <time>2021-03-25T00:26:27Z</time>
      </trkpt>
      <trkpt lat="47.73448" lon="-0.58477">
        <ele>59</ele>
        <time>2021-03-25T00:26:29Z</time>
      </trkpt>
      <trkpt lat="47.73444" lon="-0.58498">
        <ele>59</ele>
        <time>2021-03-25T00:26:31Z</time>
      </trkpt>
      <trkpt lat="47.73442" lon="-0.58516">
        <ele>59</ele>
        <time>2021-03-25T00:26:33Z</time>
      </trkpt>
      <trkpt lat="47.73433" lon="-0.58587">
        <ele>58</ele>
        <time>2021-03-25T00:26:42Z</time>
      </trkpt>
      <trkpt lat="47.73423" lon="-0.58661">
        <ele>58</ele>
        <time>2021-03-25T00:26:51Z</time>
      </trkpt>
      <trkpt lat="47.73419" lon="-0.58695">
        <ele>58</ele>
        <time>2021-03-25T00:26:55Z</time>
      </trkpt>
      <trkpt lat="47.73414" lon="-0.58727">
        <ele>59</ele>
        <time>2021-03-25T00:26:59Z</time>
      </trkpt>
      <trkpt lat="47.7341" lon="-0.58755">
        <ele>59</ele>
        <time>2021-03-25T00:27:02Z</time>
      </trkpt>
      <trkpt lat="47.73407" lon="-0.58772">
        <ele>59</ele>
        <time>2021-03-25T00:27:05Z</time>
      </trkpt>
      <trkpt lat="47.73404" lon="-0.58794">
        <ele>59</ele>
        <time>2021-03-25T00:27:07Z</time>
      </trkpt>
      <trkpt lat="47.73398" lon="-0.58824">
        <ele>59</ele>
        <time>2021-03-25T00:27:11Z</time>
      </trkpt>
      <trkpt lat="47.73392" lon="-0.58853">
        <ele>59</ele>
        <time>2021-03-25T00:27:15Z</time>
      </trkpt>
      <trkpt lat="47.73382" lon="-0.58904">
        <ele>60</ele>
        <time>2021-03-25T00:27:21Z</time>
      </trkpt>
      <trkpt lat="47.7336" lon="-0.59002">
        <ele>61</ele>
        <time>2021-03-25T00:27:33Z</time>
      </trkpt>
      <trkpt lat="47.73351" lon="-0.59043">
        <ele>62</ele>
        <time>2021-03-25T00:27:39Z</time>
      </trkpt>
      <trkpt lat="47.73344" lon="-0.59077">
        <ele>63</ele>
        <time>2021-03-25T00:27:43Z</time>
      </trkpt>
      <trkpt lat="47.73338" lon="-0.59112">
        <ele>64</ele>
        <time>2021-03-25T00:27:47Z</time>
      </trkpt>
      <trkpt lat="47.7333" lon="-0.59159">
        <ele>65</ele>
        <time>2021-03-25T00:27:53Z</time>
      </trkpt>
      <trkpt lat="47.73328" lon="-0.59172">
        <ele>65</ele>
        <time>2021-03-25T00:27:55Z</time>
      </trkpt>
      <trkpt lat="47.73325" lon="-0.59186">
        <ele>65</ele>
        <time>2021-03-25T00:27:56Z</time>
      </trkpt>
      <trkpt lat="47.73323" lon="-0.59195">
        <ele>65</ele>
        <time>2021-03-25T00:27:57Z</time>
      </trkpt>
      <trkpt lat="47.73321" lon="-0.59204">
        <ele>65</ele>
        <time>2021-03-25T00:27:59Z</time>
      </trkpt>
      <trkpt lat="47.73319" lon="-0.59213">
        <ele>65</ele>
        <time>2021-03-25T00:28:00Z</time>
      </trkpt>
      <trkpt lat="47.73316" lon="-0.59222">
        <ele>64</ele>
        <time>2021-03-25T00:28:01Z</time>
      </trkpt>
      <trkpt lat="47.73312" lon="-0.59233">
        <ele>64</ele>
        <time>2021-03-25T00:28:02Z</time>
      </trkpt>
      <trkpt lat="47.73308" lon="-0.59245">
        <ele>64</ele>
        <time>2021-03-25T00:28:04Z</time>
      </trkpt>
      <trkpt lat="47.73304" lon="-0.59254">
        <ele>64</ele>
        <time>2021-03-25T00:28:05Z</time>
      </trkpt>
      <trkpt lat="47.73295" lon="-0.59268">
        <ele>65</ele>
        <time>2021-03-25T00:28:08Z</time>
      </trkpt>
      <trkpt lat="47.73291" lon="-0.59274">
        <ele>65</ele>
        <time>2021-03-25T00:28:09Z</time>
      </trkpt>
      <trkpt lat="47.73284" lon="-0.59282">
        <ele>65</ele>
        <time>2021-03-25T00:28:10Z</time>
      </trkpt>
      <trkpt lat="47.73277" lon="-0.59289">
        <ele>65</ele>
        <time>2021-03-25T00:28:12Z</time>
      </trkpt>
      <trkpt lat="47.73263" lon="-0.59303">
        <ele>65</ele>
        <time>2021-03-25T00:28:15Z</time>
      </trkpt>
      <trkpt lat="47.73261" lon="-0.59306">
        <ele>66</ele>
        <time>2021-03-25T00:28:15Z</time>
      </trkpt>
      <trkpt lat="47.73249" lon="-0.59317">
        <ele>66</ele>
        <time>2021-03-25T00:28:18Z</time>
      </trkpt>
      <trkpt lat="47.7323" lon="-0.59333">
        <ele>66</ele>
        <time>2021-03-25T00:28:22Z</time>
      </trkpt>
      <trkpt lat="47.7322" lon="-0.59342">
        <ele>67</ele>
        <time>2021-03-25T00:28:24Z</time>
      </trkpt>
      <trkpt lat="47.73202" lon="-0.59359">
        <ele>68</ele>
        <time>2021-03-25T00:28:27Z</time>
      </trkpt>
      <trkpt lat="47.732" lon="-0.5936">
        <ele>68</ele>
        <time>2021-03-25T00:28:28Z</time>
      </trkpt>
      <trkpt lat="47.73143" lon="-0.59411">
        <ele>73</ele>
        <time>2021-03-25T00:28:40Z</time>
      </trkpt>
      <trkpt lat="47.73091" lon="-0.59458">
        <ele>71</ele>
        <time>2021-03-25T00:28:50Z</time>
      </trkpt>
      <trkpt lat="47.7309" lon="-0.59459">
        <ele>71</ele>
        <time>2021-03-25T00:28:51Z</time>
      </trkpt>
      <trkpt lat="47.72986" lon="-0.59551">
        <ele>67</ele>
        <time>2021-03-25T00:29:12Z</time>
      </trkpt>
      <trkpt lat="47.72903" lon="-0.59625">
        <ele>67</ele>
        <time>2021-03-25T00:29:29Z</time>
      </trkpt>
      <trkpt lat="47.72843" lon="-0.5968">
        <ele>65</ele>
        <time>2021-03-25T00:29:42Z</time>
      </trkpt>
      <trkpt lat="47.72825" lon="-0.59694">
        <ele>64</ele>
        <time>2021-03-25T00:29:46Z</time>
      </trkpt>
      <trkpt lat="47.72798" lon="-0.59719">
        <ele>63</ele>
        <time>2021-03-25T00:29:51Z</time>
      </trkpt>
      <trkpt lat="47.72783" lon="-0.59732">
        <ele>62</ele>
        <time>2021-03-25T00:29:54Z</time>
      </trkpt>
      <trkpt lat="47.72769" lon="-0.59746">
        <ele>61</ele>
        <time>2021-03-25T00:29:57Z</time>
      </trkpt>
      <trkpt lat="47.7276" lon="-0.59755">
        <ele>61</ele>
        <time>2021-03-25T00:29:59Z</time>
      </trkpt>
      <trkpt lat="47.7276" lon="-0.59755">
        <ele>61</ele>
        <time>2021-03-25T00:29:59Z</time>
      </trkpt>
      <trkpt lat="47.72827" lon="-0.59889">
        <ele>58</ele>
        <time>2021-03-25T00:30:19Z</time>
      </trkpt>
      <trkpt lat="47.72888" lon="-0.60011">
        <ele>54</ele>
        <time>2021-03-25T00:30:37Z</time>
      </trkpt>
      <trkpt lat="47.72888" lon="-0.60011">
        <ele>54</ele>
        <time>2021-03-25T00:30:37Z</time>
      </trkpt>
      <trkpt lat="47.72887" lon="-0.60014">
        <ele>54</ele>
        <time>2021-03-25T00:30:38Z</time>
      </trkpt>
      <trkpt lat="47.72886" lon="-0.60016">
        <ele>54</ele>
        <time>2021-03-25T00:30:38Z</time>
      </trkpt>
      <trkpt lat="47.72885" lon="-0.60019">
        <ele>54</ele>
        <time>2021-03-25T00:30:39Z</time>
      </trkpt>
      <trkpt lat="47.72881" lon="-0.60045">
        <ele>53</ele>
        <time>2021-03-25T00:30:42Z</time>
      </trkpt>
      <trkpt lat="47.72877" lon="-0.60089">
        <ele>53</ele>
        <time>2021-03-25T00:30:47Z</time>
      </trkpt>
      <trkpt lat="47.72872" lon="-0.60133">
        <ele>52</ele>
        <time>2021-03-25T00:30:52Z</time>
      </trkpt>
      <trkpt lat="47.7287" lon="-0.60153">
        <ele>52</ele>
        <time>2021-03-25T00:30:55Z</time>
      </trkpt>
      <trkpt lat="47.72868" lon="-0.60165">
        <ele>52</ele>
        <time>2021-03-25T00:30:56Z</time>
      </trkpt>
      <trkpt lat="47.72867" lon="-0.60174">
        <ele>52</ele>
        <time>2021-03-25T00:30:57Z</time>
      </trkpt>
      <trkpt lat="47.72866" lon="-0.60182">
        <ele>52</ele>
        <time>2021-03-25T00:30:58Z</time>
      </trkpt>
      <trkpt lat="47.72864" lon="-0.60194">
        <ele>52</ele>
        <time>2021-03-25T00:31:00Z</time>
      </trkpt>
      <trkpt lat="47.72862" lon="-0.60205">
        <ele>52</ele>
        <time>2021-03-25T00:31:01Z</time>
      </trkpt>
      <trkpt lat="47.7286" lon="-0.60215">
        <ele>52</ele>
        <time>2021-03-25T00:31:02Z</time>
      </trkpt>
      <trkpt lat="47.72858" lon="-0.60222">
        <ele>52</ele>
        <time>2021-03-25T00:31:03Z</time>
      </trkpt>
      <trkpt lat="47.72856" lon="-0.60229">
        <ele>52</ele>
        <time>2021-03-25T00:31:04Z</time>
      </trkpt>
      <trkpt lat="47.72854" lon="-0.60235">
        <ele>52</ele>
        <time>2021-03-25T00:31:05Z</time>
      </trkpt>
      <trkpt lat="47.72853" lon="-0.60241">
        <ele>52</ele>
        <time>2021-03-25T00:31:06Z</time>
      </trkpt>
      <trkpt lat="47.7285" lon="-0.60249">
        <ele>52</ele>
        <time>2021-03-25T00:31:07Z</time>
      </trkpt>
      <trkpt lat="47.72847" lon="-0.60257">
        <ele>52</ele>
        <time>2021-03-25T00:31:08Z</time>
      </trkpt>
      <trkpt lat="47.72843" lon="-0.60266">
        <ele>52</ele>
        <time>2021-03-25T00:31:09Z</time>
      </trkpt>
      <trkpt lat="47.7284" lon="-0.60272">
        <ele>52</ele>
        <time>2021-03-25T00:31:10Z</time>
      </trkpt>
      <trkpt lat="47.72838" lon="-0.60279">
        <ele>52</ele>
        <time>2021-03-25T00:31:11Z</time>
      </trkpt>
      <trkpt lat="47.72833" lon="-0.60288">
        <ele>52</ele>
        <time>2021-03-25T00:31:13Z</time>
      </trkpt>
      <trkpt lat="47.72829" lon="-0.60295">
        <ele>52</ele>
        <time>2021-03-25T00:31:14Z</time>
      </trkpt>
      <trkpt lat="47.72826" lon="-0.60301">
        <ele>52</ele>
        <time>2021-03-25T00:31:15Z</time>
      </trkpt>
      <trkpt lat="47.72806" lon="-0.60332">
        <ele>52</ele>
        <time>2021-03-25T00:31:20Z</time>
      </trkpt>
      <trkpt lat="47.72802" lon="-0.60338">
        <ele>52</ele>
        <time>2021-03-25T00:31:21Z</time>
      </trkpt>
      <trkpt lat="47.72799" lon="-0.60343">
        <ele>52</ele>
        <time>2021-03-25T00:31:21Z</time>
      </trkpt>
      <trkpt lat="47.72795" lon="-0.60349">
        <ele>52</ele>
        <time>2021-03-25T00:31:22Z</time>
      </trkpt>
      <trkpt lat="47.72784" lon="-0.60366">
        <ele>53</ele>
        <time>2021-03-25T00:31:25Z</time>
      </trkpt>
      <trkpt lat="47.72775" lon="-0.60379">
        <ele>53</ele>
        <time>2021-03-25T00:31:28Z</time>
      </trkpt>
      <trkpt lat="47.72768" lon="-0.60389">
        <ele>53</ele>
        <time>2021-03-25T00:31:29Z</time>
      </trkpt>
      <trkpt lat="47.72763" lon="-0.60397">
        <ele>53</ele>
        <time>2021-03-25T00:31:31Z</time>
      </trkpt>
      <trkpt lat="47.7275" lon="-0.60417">
        <ele>53</ele>
        <time>2021-03-25T00:31:34Z</time>
      </trkpt>
      <trkpt lat="47.72711" lon="-0.60476">
        <ele>53</ele>
        <time>2021-03-25T00:31:44Z</time>
      </trkpt>
      <trkpt lat="47.7271" lon="-0.60477">
        <ele>53</ele>
        <time>2021-03-25T00:31:44Z</time>
      </trkpt>
      <trkpt lat="47.72705" lon="-0.60486">
        <ele>53</ele>
        <time>2021-03-25T00:31:45Z</time>
      </trkpt>
      <trkpt lat="47.72682" lon="-0.60521">
        <ele>53</ele>
        <time>2021-03-25T00:31:51Z</time>
      </trkpt>
      <trkpt lat="47.72674" lon="-0.60534">
        <ele>53</ele>
        <time>2021-03-25T00:31:53Z</time>
      </trkpt>
      <trkpt lat="47.72666" lon="-0.60546">
        <ele>53</ele>
        <time>2021-03-25T00:31:55Z</time>
      </trkpt>
      <trkpt lat="47.72661" lon="-0.60556">
        <ele>53</ele>
        <time>2021-03-25T00:31:57Z</time>
      </trkpt>
      <trkpt lat="47.72655" lon="-0.60568">
        <ele>53</ele>
        <time>2021-03-25T00:31:59Z</time>
      </trkpt>
      <trkpt lat="47.7265" lon="-0.60579">
        <ele>53</ele>
        <time>2021-03-25T00:32:00Z</time>
      </trkpt>
      <trkpt lat="47.72644" lon="-0.60593">
        <ele>53</ele>
        <time>2021-03-25T00:32:02Z</time>
      </trkpt>
      <trkpt lat="47.72636" lon="-0.60614">
        <ele>52</ele>
        <time>2021-03-25T00:32:05Z</time>
      </trkpt>
      <trkpt lat="47.72626" lon="-0.60639">
        <ele>52</ele>
        <time>2021-03-25T00:32:09Z</time>
      </trkpt>
      <trkpt lat="47.72617" lon="-0.6066">
        <ele>51</ele>
        <time>2021-03-25T00:32:12Z</time>
      </trkpt>
      <trkpt lat="47.72611" lon="-0.60676">
        <ele>51</ele>
        <time>2021-03-25T00:32:14Z</time>
      </trkpt>
      <trkpt lat="47.72604" lon="-0.60694">
        <ele>50</ele>
        <time>2021-03-25T00:32:16Z</time>
      </trkpt>
      <trkpt lat="47.72597" lon="-0.6071">
        <ele>49</ele>
        <time>2021-03-25T00:32:19Z</time>
      </trkpt>
      <trkpt lat="47.72586" lon="-0.60739">
        <ele>48</ele>
        <time>2021-03-25T00:32:23Z</time>
      </trkpt>
      <trkpt lat="47.72574" lon="-0.60769">
        <ele>47</ele>
        <time>2021-03-25T00:32:27Z</time>
      </trkpt>
      <trkpt lat="47.72562" lon="-0.60799">
        <ele>46</ele>
        <time>2021-03-25T00:32:31Z</time>
      </trkpt>
      <trkpt lat="47.72558" lon="-0.6081">
        <ele>45</ele>
        <time>2021-03-25T00:32:32Z</time>
      </trkpt>
      <trkpt lat="47.7255" lon="-0.6083">
        <ele>44</ele>
        <time>2021-03-25T00:32:35Z</time>
      </trkpt>
      <trkpt lat="47.72549" lon="-0.60832">
        <ele>44</ele>
        <time>2021-03-25T00:32:35Z</time>
      </trkpt>
      <trkpt lat="47.72536" lon="-0.60864">
        <ele>44</ele>
        <time>2021-03-25T00:32:40Z</time>
      </trkpt>
      <trkpt lat="47.72529" lon="-0.6088">
        <ele>44</ele>
        <time>2021-03-25T00:32:42Z</time>
      </trkpt>
      <trkpt lat="47.725" lon="-0.60954">
        <ele>44</ele>
        <time>2021-03-25T00:32:52Z</time>
      </trkpt>
      <trkpt lat="47.72492" lon="-0.60972">
        <ele>45</ele>
        <time>2021-03-25T00:32:55Z</time>
      </trkpt>
      <trkpt lat="47.72488" lon="-0.60984">
        <ele>45</ele>
        <time>2021-03-25T00:32:57Z</time>
      </trkpt>
      <trkpt lat="47.72484" lon="-0.60993">
        <ele>45</ele>
        <time>2021-03-25T00:32:58Z</time>
      </trkpt>
      <trkpt lat="47.72482" lon="-0.61">
        <ele>45</ele>
        <time>2021-03-25T00:32:59Z</time>
      </trkpt>
      <trkpt lat="47.72478" lon="-0.61009">
        <ele>45</ele>
        <time>2021-03-25T00:33:00Z</time>
      </trkpt>
      <trkpt lat="47.72477" lon="-0.61015">
        <ele>45</ele>
        <time>2021-03-25T00:33:01Z</time>
      </trkpt>
      <trkpt lat="47.72474" lon="-0.61023">
        <ele>45</ele>
        <time>2021-03-25T00:33:02Z</time>
      </trkpt>
      <trkpt lat="47.72472" lon="-0.61029">
        <ele>46</ele>
        <time>2021-03-25T00:33:03Z</time>
      </trkpt>
      <trkpt lat="47.72469" lon="-0.61039">
        <ele>46</ele>
        <time>2021-03-25T00:33:04Z</time>
      </trkpt>
      <trkpt lat="47.72466" lon="-0.61049">
        <ele>46</ele>
        <time>2021-03-25T00:33:05Z</time>
      </trkpt>
      <trkpt lat="47.72463" lon="-0.61063">
        <ele>46</ele>
        <time>2021-03-25T00:33:07Z</time>
      </trkpt>
      <trkpt lat="47.72457" lon="-0.61084">
        <ele>46</ele>
        <time>2021-03-25T00:33:10Z</time>
      </trkpt>
      <trkpt lat="47.72454" lon="-0.61092">
        <ele>46</ele>
        <time>2021-03-25T00:33:11Z</time>
      </trkpt>
      <trkpt lat="47.72452" lon="-0.611">
        <ele>46</ele>
        <time>2021-03-25T00:33:12Z</time>
      </trkpt>
      <trkpt lat="47.72443" lon="-0.61133">
        <ele>46</ele>
        <time>2021-03-25T00:33:16Z</time>
      </trkpt>
      <trkpt lat="47.72434" lon="-0.61168">
        <ele>46</ele>
        <time>2021-03-25T00:33:21Z</time>
      </trkpt>
      <trkpt lat="47.72423" lon="-0.61208">
        <ele>46</ele>
        <time>2021-03-25T00:33:26Z</time>
      </trkpt>
      <trkpt lat="47.72414" lon="-0.61241">
        <ele>46</ele>
        <time>2021-03-25T00:33:30Z</time>
      </trkpt>
      <trkpt lat="47.72408" lon="-0.61263">
        <ele>47</ele>
        <time>2021-03-25T00:33:33Z</time>
      </trkpt>
      <trkpt lat="47.72403" lon="-0.61282">
        <ele>47</ele>
        <time>2021-03-25T00:33:36Z</time>
      </trkpt>
      <trkpt lat="47.72395" lon="-0.61309">
        <ele>48</ele>
        <time>2021-03-25T00:33:39Z</time>
      </trkpt>
      <trkpt lat="47.72391" lon="-0.61321">
        <ele>48</ele>
        <time>2021-03-25T00:33:41Z</time>
      </trkpt>
      <trkpt lat="47.72387" lon="-0.61332">
        <ele>48</ele>
        <time>2021-03-25T00:33:42Z</time>
      </trkpt>
      <trkpt lat="47.72384" lon="-0.61339">
        <ele>48</ele>
        <time>2021-03-25T00:33:43Z</time>
      </trkpt>
      <trkpt lat="47.72379" lon="-0.61348">
        <ele>48</ele>
        <time>2021-03-25T00:33:45Z</time>
      </trkpt>
      <trkpt lat="47.72375" lon="-0.61355">
        <ele>48</ele>
        <time>2021-03-25T00:33:46Z</time>
      </trkpt>
      <trkpt lat="47.72369" lon="-0.61363">
        <ele>48</ele>
        <time>2021-03-25T00:33:47Z</time>
      </trkpt>
      <trkpt lat="47.72363" lon="-0.61371">
        <ele>48</ele>
        <time>2021-03-25T00:33:48Z</time>
      </trkpt>
      <trkpt lat="47.72355" lon="-0.61379">
        <ele>48</ele>
        <time>2021-03-25T00:33:50Z</time>
      </trkpt>
      <trkpt lat="47.72336" lon="-0.61398">
        <ele>48</ele>
        <time>2021-03-25T00:33:54Z</time>
      </trkpt>
      <trkpt lat="47.7233" lon="-0.61404">
        <ele>48</ele>
        <time>2021-03-25T00:33:56Z</time>
      </trkpt>
      <trkpt lat="47.72312" lon="-0.61423">
        <ele>49</ele>
        <time>2021-03-25T00:34:00Z</time>
      </trkpt>
      <trkpt lat="47.72292" lon="-0.61443">
        <ele>49</ele>
        <time>2021-03-25T00:34:04Z</time>
      </trkpt>
      <trkpt lat="47.72263" lon="-0.61473">
        <ele>49</ele>
        <time>2021-03-25T00:34:10Z</time>
      </trkpt>
      <trkpt lat="47.72245" lon="-0.61492">
        <ele>49</ele>
        <time>2021-03-25T00:34:14Z</time>
      </trkpt>
      <trkpt lat="47.72236" lon="-0.61502">
        <ele>49</ele>
        <time>2021-03-25T00:34:16Z</time>
      </trkpt>
      <trkpt lat="47.72229" lon="-0.61509">
        <ele>49</ele>
        <time>2021-03-25T00:34:18Z</time>
      </trkpt>
      <trkpt lat="47.72218" lon="-0.61518">
        <ele>49</ele>
        <time>2021-03-25T00:34:20Z</time>
      </trkpt>
      <trkpt lat="47.7223" lon="-0.6158">
        <ele>47</ele>
        <time>2021-03-25T00:34:27Z</time>
      </trkpt>
      <trkpt lat="47.72239" lon="-0.61621">
        <ele>47</ele>
        <time>2021-03-25T00:34:33Z</time>
      </trkpt>
      <trkpt lat="47.72249" lon="-0.61672">
        <ele>48</ele>
        <time>2021-03-25T00:34:39Z</time>
      </trkpt>
      <trkpt lat="47.7225" lon="-0.61676">
        <ele>48</ele>
        <time>2021-03-25T00:34:39Z</time>
      </trkpt>
      <trkpt lat="47.72253" lon="-0.61692">
        <ele>48</ele>
        <time>2021-03-25T00:34:41Z</time>
      </trkpt>
      <trkpt lat="47.72258" lon="-0.61715">
        <ele>49</ele>
        <time>2021-03-25T00:34:44Z</time>
      </trkpt>
      <trkpt lat="47.72269" lon="-0.61769">
        <ele>50</ele>
        <time>2021-03-25T00:34:51Z</time>
      </trkpt>
      <trkpt lat="47.72272" lon="-0.61786">
        <ele>51</ele>
        <time>2021-03-25T00:34:53Z</time>
      </trkpt>
      <trkpt lat="47.72276" lon="-0.61808">
        <ele>52</ele>
        <time>2021-03-25T00:34:56Z</time>
      </trkpt>
      <trkpt lat="47.7228" lon="-0.61828">
        <ele>52</ele>
        <time>2021-03-25T00:34:58Z</time>
      </trkpt>
      <trkpt lat="47.72286" lon="-0.61856">
        <ele>53</ele>
        <time>2021-03-25T00:35:02Z</time>
      </trkpt>
      <trkpt lat="47.7229" lon="-0.61877">
        <ele>54</ele>
        <time>2021-03-25T00:35:05Z</time>
      </trkpt>
      <trkpt lat="47.72294" lon="-0.61896">
        <ele>54</ele>
        <time>2021-03-25T00:35:07Z</time>
      </trkpt>
      <trkpt lat="47.72298" lon="-0.61913">
        <ele>54</ele>
        <time>2021-03-25T00:35:09Z</time>
      </trkpt>
      <trkpt lat="47.72302" lon="-0.61932">
        <ele>54</ele>
        <time>2021-03-25T00:35:12Z</time>
      </trkpt>
      <trkpt lat="47.72304" lon="-0.61942">
        <ele>54</ele>
        <time>2021-03-25T00:35:13Z</time>
      </trkpt>
      <trkpt lat="47.72307" lon="-0.61962">
        <ele>54</ele>
        <time>2021-03-25T00:35:15Z</time>
      </trkpt>
      <trkpt lat="47.72307" lon="-0.61962">
        <ele>54</ele>
        <time>2021-03-25T00:35:15Z</time>
      </trkpt>
      <trkpt lat="47.7229" lon="-0.61969">
        <ele>55</ele>
        <time>2021-03-25T00:35:18Z</time>
      </trkpt>
      <trkpt lat="47.72287" lon="-0.6197">
        <ele>55</ele>
        <time>2021-03-25T00:35:19Z</time>
      </trkpt>
      <trkpt lat="47.72284" lon="-0.61971">
        <ele>55</ele>
        <time>2021-03-25T00:35:19Z</time>
      </trkpt>
      <trkpt lat="47.72282" lon="-0.61973">
        <ele>55</ele>
        <time>2021-03-25T00:35:20Z</time>
      </trkpt>
      <trkpt lat="47.72278" lon="-0.61976">
        <ele>55</ele>
        <time>2021-03-25T00:35:21Z</time>
      </trkpt>
      <trkpt lat="47.72275" lon="-0.61978">
        <ele>55</ele>
        <time>2021-03-25T00:35:21Z</time>
      </trkpt>
      <trkpt lat="47.72273" lon="-0.61982">
        <ele>55</ele>
        <time>2021-03-25T00:35:22Z</time>
      </trkpt>
      <trkpt lat="47.72272" lon="-0.61983">
        <ele>55</ele>
        <time>2021-03-25T00:35:22Z</time>
      </trkpt>
      <trkpt lat="47.7227" lon="-0.61986">
        <ele>55</ele>
        <time>2021-03-25T00:35:23Z</time>
      </trkpt>
      <trkpt lat="47.72268" lon="-0.6199">
        <ele>55</ele>
        <time>2021-03-25T00:35:23Z</time>
      </trkpt>
      <trkpt lat="47.72266" lon="-0.61997">
        <ele>55</ele>
        <time>2021-03-25T00:35:24Z</time>
      </trkpt>
      <trkpt lat="47.72264" lon="-0.62002">
        <ele>56</ele>
        <time>2021-03-25T00:35:25Z</time>
      </trkpt>
      <trkpt lat="47.72262" lon="-0.62009">
        <ele>56</ele>
        <time>2021-03-25T00:35:26Z</time>
      </trkpt>
      <trkpt lat="47.7226" lon="-0.62016">
        <ele>56</ele>
        <time>2021-03-25T00:35:27Z</time>
      </trkpt>
      <trkpt lat="47.72258" lon="-0.62022">
        <ele>56</ele>
        <time>2021-03-25T00:35:27Z</time>
      </trkpt>
      <trkpt lat="47.72254" lon="-0.62034">
        <ele>56</ele>
        <time>2021-03-25T00:35:29Z</time>
      </trkpt>
      <trkpt lat="47.72252" lon="-0.62041">
        <ele>56</ele>
        <time>2021-03-25T00:35:30Z</time>
      </trkpt>
      <trkpt lat="47.72249" lon="-0.62048">
        <ele>57</ele>
        <time>2021-03-25T00:35:31Z</time>
      </trkpt>
      <trkpt lat="47.72245" lon="-0.62056">
        <ele>57</ele>
        <time>2021-03-25T00:35:32Z</time>
      </trkpt>
      <trkpt lat="47.72242" lon="-0.62064">
        <ele>57</ele>
        <time>2021-03-25T00:35:33Z</time>
      </trkpt>
      <trkpt lat="47.72238" lon="-0.6207">
        <ele>57</ele>
        <time>2021-03-25T00:35:34Z</time>
      </trkpt>
      <trkpt lat="47.72235" lon="-0.62076">
        <ele>57</ele>
        <time>2021-03-25T00:35:35Z</time>
      </trkpt>
      <trkpt lat="47.72231" lon="-0.62082">
        <ele>58</ele>
        <time>2021-03-25T00:35:36Z</time>
      </trkpt>
      <trkpt lat="47.72226" lon="-0.62088">
        <ele>58</ele>
        <time>2021-03-25T00:35:37Z</time>
      </trkpt>
      <trkpt lat="47.72222" lon="-0.62093">
        <ele>58</ele>
        <time>2021-03-25T00:35:38Z</time>
      </trkpt>
      <trkpt lat="47.72218" lon="-0.62098">
        <ele>58</ele>
        <time>2021-03-25T00:35:39Z</time>
      </trkpt>
      <trkpt lat="47.72208" lon="-0.62108">
        <ele>59</ele>
        <time>2021-03-25T00:35:41Z</time>
      </trkpt>
      <trkpt lat="47.72205" lon="-0.62112">
        <ele>59</ele>
        <time>2021-03-25T00:35:42Z</time>
      </trkpt>
      <trkpt lat="47.72178" lon="-0.62142">
        <ele>60</ele>
        <time>2021-03-25T00:35:48Z</time>
      </trkpt>
      <trkpt lat="47.72167" lon="-0.62153">
        <ele>61</ele>
        <time>2021-03-25T00:35:50Z</time>
      </trkpt>
      <trkpt lat="47.72154" lon="-0.62167">
        <ele>61</ele>
        <time>2021-03-25T00:35:53Z</time>
      </trkpt>
      <trkpt lat="47.72141" lon="-0.62182">
        <ele>62</ele>
        <time>2021-03-25T00:35:56Z</time>
      </trkpt>
      <trkpt lat="47.72134" lon="-0.62191">
        <ele>63</ele>
        <time>2021-03-25T00:35:58Z</time>
      </trkpt>
      <trkpt lat="47.72125" lon="-0.62202">
        <ele>63</ele>
        <time>2021-03-25T00:36:00Z</time>
      </trkpt>
      <trkpt lat="47.72118" lon="-0.62212">
        <ele>64</ele>
        <time>2021-03-25T00:36:02Z</time>
      </trkpt>
      <trkpt lat="47.7211" lon="-0.62223">
        <ele>64</ele>
        <time>2021-03-25T00:36:03Z</time>
      </trkpt>
      <trkpt lat="47.72104" lon="-0.62233">
        <ele>65</ele>
        <time>2021-03-25T00:36:05Z</time>
      </trkpt>
      <trkpt lat="47.72099" lon="-0.62243">
        <ele>65</ele>
        <time>2021-03-25T00:36:07Z</time>
      </trkpt>
      <trkpt lat="47.7209" lon="-0.62264">
        <ele>66</ele>
        <time>2021-03-25T00:36:10Z</time>
      </trkpt>
      <trkpt lat="47.72075" lon="-0.62297">
        <ele>68</ele>
        <time>2021-03-25T00:36:14Z</time>
      </trkpt>
      <trkpt lat="47.72069" lon="-0.62312">
        <ele>68</ele>
        <time>2021-03-25T00:36:16Z</time>
      </trkpt>
      <trkpt lat="47.72061" lon="-0.62331">
        <ele>69</ele>
        <time>2021-03-25T00:36:19Z</time>
      </trkpt>
      <trkpt lat="47.7205" lon="-0.62357">
        <ele>70</ele>
        <time>2021-03-25T00:36:23Z</time>
      </trkpt>
      <trkpt lat="47.7204" lon="-0.62379">
        <ele>71</ele>
        <time>2021-03-25T00:36:26Z</time>
      </trkpt>
      <trkpt lat="47.72028" lon="-0.62407">
        <ele>72</ele>
        <time>2021-03-25T00:36:30Z</time>
      </trkpt>
      <trkpt lat="47.72019" lon="-0.62426">
        <ele>72</ele>
        <time>2021-03-25T00:36:33Z</time>
      </trkpt>
      <trkpt lat="47.72004" lon="-0.62452">
        <ele>73</ele>
        <time>2021-03-25T00:36:37Z</time>
      </trkpt>
      <trkpt lat="47.71997" lon="-0.62466">
        <ele>73</ele>
        <time>2021-03-25T00:36:39Z</time>
      </trkpt>
      <trkpt lat="47.71995" lon="-0.62468">
        <ele>73</ele>
        <time>2021-03-25T00:36:39Z</time>
      </trkpt>
      <trkpt lat="47.71981" lon="-0.6249">
        <ele>74</ele>
        <time>2021-03-25T00:36:43Z</time>
      </trkpt>
      <trkpt lat="47.71976" lon="-0.62498">
        <ele>74</ele>
        <time>2021-03-25T00:36:44Z</time>
      </trkpt>
      <trkpt lat="47.71958" lon="-0.62519">
        <ele>75</ele>
        <time>2021-03-25T00:36:48Z</time>
      </trkpt>
      <trkpt lat="47.71941" lon="-0.62541">
        <ele>75</ele>
        <time>2021-03-25T00:36:52Z</time>
      </trkpt>
      <trkpt lat="47.7193" lon="-0.62554">
        <ele>75</ele>
        <time>2021-03-25T00:36:55Z</time>
      </trkpt>
      <trkpt lat="47.71919" lon="-0.62568">
        <ele>75</ele>
        <time>2021-03-25T00:36:57Z</time>
      </trkpt>
      <trkpt lat="47.71914" lon="-0.62575">
        <ele>75</ele>
        <time>2021-03-25T00:36:59Z</time>
      </trkpt>
      <trkpt lat="47.71909" lon="-0.62583">
        <ele>75</ele>
        <time>2021-03-25T00:37:00Z</time>
      </trkpt>
      <trkpt lat="47.71905" lon="-0.62593">
        <ele>75</ele>
        <time>2021-03-25T00:37:01Z</time>
      </trkpt>
      <trkpt lat="47.71902" lon="-0.62599">
        <ele>76</ele>
        <time>2021-03-25T00:37:02Z</time>
      </trkpt>
      <trkpt lat="47.71899" lon="-0.62607">
        <ele>76</ele>
        <time>2021-03-25T00:37:03Z</time>
      </trkpt>
      <trkpt lat="47.71896" lon="-0.62615">
        <ele>76</ele>
        <time>2021-03-25T00:37:04Z</time>
      </trkpt>
      <trkpt lat="47.71894" lon="-0.62626">
        <ele>76</ele>
        <time>2021-03-25T00:37:06Z</time>
      </trkpt>
      <trkpt lat="47.71885" lon="-0.62662">
        <ele>76</ele>
        <time>2021-03-25T00:37:10Z</time>
      </trkpt>
      <trkpt lat="47.71877" lon="-0.62697">
        <ele>76</ele>
        <time>2021-03-25T00:37:15Z</time>
      </trkpt>
      <trkpt lat="47.71816" lon="-0.62942">
        <ele>75</ele>
        <time>2021-03-25T00:37:46Z</time>
      </trkpt>
      <trkpt lat="47.71794" lon="-0.63031">
        <ele>73</ele>
        <time>2021-03-25T00:37:57Z</time>
      </trkpt>
      <trkpt lat="47.71793" lon="-0.63033">
        <ele>73</ele>
        <time>2021-03-25T00:37:58Z</time>
      </trkpt>
      <trkpt lat="47.71784" lon="-0.6307">
        <ele>73</ele>
        <time>2021-03-25T00:38:02Z</time>
      </trkpt>
      <trkpt lat="47.71779" lon="-0.63087">
        <ele>72</ele>
        <time>2021-03-25T00:38:05Z</time>
      </trkpt>
      <trkpt lat="47.71776" lon="-0.63098">
        <ele>72</ele>
        <time>2021-03-25T00:38:06Z</time>
      </trkpt>
      <trkpt lat="47.71772" lon="-0.63109">
        <ele>72</ele>
        <time>2021-03-25T00:38:08Z</time>
      </trkpt>
      <trkpt lat="47.7177" lon="-0.63116">
        <ele>72</ele>
        <time>2021-03-25T00:38:09Z</time>
      </trkpt>
      <trkpt lat="47.71765" lon="-0.63129">
        <ele>71</ele>
        <time>2021-03-25T00:38:10Z</time>
      </trkpt>
      <trkpt lat="47.7176" lon="-0.63142">
        <ele>71</ele>
        <time>2021-03-25T00:38:12Z</time>
      </trkpt>
      <trkpt lat="47.71755" lon="-0.63154">
        <ele>70</ele>
        <time>2021-03-25T00:38:14Z</time>
      </trkpt>
      <trkpt lat="47.71747" lon="-0.63173">
        <ele>70</ele>
        <time>2021-03-25T00:38:16Z</time>
      </trkpt>
      <trkpt lat="47.71734" lon="-0.63201">
        <ele>69</ele>
        <time>2021-03-25T00:38:21Z</time>
      </trkpt>
      <trkpt lat="47.71727" lon="-0.63216">
        <ele>69</ele>
        <time>2021-03-25T00:38:23Z</time>
      </trkpt>
      <trkpt lat="47.71721" lon="-0.63228">
        <ele>68</ele>
        <time>2021-03-25T00:38:25Z</time>
      </trkpt>
      <trkpt lat="47.71714" lon="-0.63241">
        <ele>68</ele>
        <time>2021-03-25T00:38:27Z</time>
      </trkpt>
      <trkpt lat="47.71711" lon="-0.63248">
        <ele>68</ele>
        <time>2021-03-25T00:38:27Z</time>
      </trkpt>
      <trkpt lat="47.71706" lon="-0.63255">
        <ele>68</ele>
        <time>2021-03-25T00:38:29Z</time>
      </trkpt>
      <trkpt lat="47.71701" lon="-0.63263">
        <ele>68</ele>
        <time>2021-03-25T00:38:30Z</time>
      </trkpt>
      <trkpt lat="47.71693" lon="-0.63275">
        <ele>68</ele>
        <time>2021-03-25T00:38:32Z</time>
      </trkpt>
      <trkpt lat="47.71686" lon="-0.63285">
        <ele>68</ele>
        <time>2021-03-25T00:38:34Z</time>
      </trkpt>
      <trkpt lat="47.71678" lon="-0.63296">
        <ele>67</ele>
        <time>2021-03-25T00:38:36Z</time>
      </trkpt>
      <trkpt lat="47.71645" lon="-0.63344">
        <ele>68</ele>
        <time>2021-03-25T00:38:44Z</time>
      </trkpt>
      <trkpt lat="47.71605" lon="-0.63402">
        <ele>70</ele>
        <time>2021-03-25T00:38:54Z</time>
      </trkpt>
      <trkpt lat="47.71593" lon="-0.6342">
        <ele>71</ele>
        <time>2021-03-25T00:38:57Z</time>
      </trkpt>
      <trkpt lat="47.71585" lon="-0.6343">
        <ele>71</ele>
        <time>2021-03-25T00:38:59Z</time>
      </trkpt>
      <trkpt lat="47.71577" lon="-0.63442">
        <ele>71</ele>
        <time>2021-03-25T00:39:01Z</time>
      </trkpt>
      <trkpt lat="47.7157" lon="-0.63452">
        <ele>71</ele>
        <time>2021-03-25T00:39:03Z</time>
      </trkpt>
      <trkpt lat="47.71565" lon="-0.63461">
        <ele>72</ele>
        <time>2021-03-25T00:39:04Z</time>
      </trkpt>
      <trkpt lat="47.71558" lon="-0.63472">
        <ele>72</ele>
        <time>2021-03-25T00:39:06Z</time>
      </trkpt>
      <trkpt lat="47.71552" lon="-0.63482">
        <ele>72</ele>
        <time>2021-03-25T00:39:07Z</time>
      </trkpt>
      <trkpt lat="47.71549" lon="-0.63489">
        <ele>73</ele>
        <time>2021-03-25T00:39:08Z</time>
      </trkpt>
      <trkpt lat="47.71546" lon="-0.63495">
        <ele>73</ele>
        <time>2021-03-25T00:39:09Z</time>
      </trkpt>
      <trkpt lat="47.7154" lon="-0.63506">
        <ele>73</ele>
        <time>2021-03-25T00:39:11Z</time>
      </trkpt>
      <trkpt lat="47.71535" lon="-0.63519">
        <ele>74</ele>
        <time>2021-03-25T00:39:13Z</time>
      </trkpt>
      <trkpt lat="47.71527" lon="-0.63538">
        <ele>75</ele>
        <time>2021-03-25T00:39:15Z</time>
      </trkpt>
      <trkpt lat="47.71512" lon="-0.63583">
        <ele>76</ele>
        <time>2021-03-25T00:39:21Z</time>
      </trkpt>
      <trkpt lat="47.71492" lon="-0.63639">
        <ele>78</ele>
        <time>2021-03-25T00:39:29Z</time>
      </trkpt>
      <trkpt lat="47.71471" lon="-0.63701">
        <ele>79</ele>
        <time>2021-03-25T00:39:37Z</time>
      </trkpt>
      <trkpt lat="47.71469" lon="-0.63706">
        <ele>79</ele>
        <time>2021-03-25T00:39:38Z</time>
      </trkpt>
      <trkpt lat="47.71467" lon="-0.6371">
        <ele>79</ele>
        <time>2021-03-25T00:39:39Z</time>
      </trkpt>
      <trkpt lat="47.71462" lon="-0.63725">
        <ele>79</ele>
        <time>2021-03-25T00:39:41Z</time>
      </trkpt>
      <trkpt lat="47.71456" lon="-0.63742">
        <ele>79</ele>
        <time>2021-03-25T00:39:43Z</time>
      </trkpt>
      <trkpt lat="47.71451" lon="-0.63756">
        <ele>79</ele>
        <time>2021-03-25T00:39:45Z</time>
      </trkpt>
      <trkpt lat="47.71447" lon="-0.63772">
        <ele>79</ele>
        <time>2021-03-25T00:39:47Z</time>
      </trkpt>
      <trkpt lat="47.71442" lon="-0.63786">
        <ele>79</ele>
        <time>2021-03-25T00:39:49Z</time>
      </trkpt>
      <trkpt lat="47.7144" lon="-0.63795">
        <ele>79</ele>
        <time>2021-03-25T00:39:50Z</time>
      </trkpt>
      <trkpt lat="47.71438" lon="-0.63802">
        <ele>79</ele>
        <time>2021-03-25T00:39:51Z</time>
      </trkpt>
      <trkpt lat="47.71436" lon="-0.63812">
        <ele>79</ele>
        <time>2021-03-25T00:39:52Z</time>
      </trkpt>
      <trkpt lat="47.71433" lon="-0.63825">
        <ele>79</ele>
        <time>2021-03-25T00:39:54Z</time>
      </trkpt>
      <trkpt lat="47.71428" lon="-0.63855">
        <ele>78</ele>
        <time>2021-03-25T00:39:57Z</time>
      </trkpt>
      <trkpt lat="47.71422" lon="-0.63894">
        <ele>77</ele>
        <time>2021-03-25T00:40:02Z</time>
      </trkpt>
      <trkpt lat="47.71394" lon="-0.64074">
        <ele>70</ele>
        <time>2021-03-25T00:40:24Z</time>
      </trkpt>
      <trkpt lat="47.7138" lon="-0.64163">
        <ele>69</ele>
        <time>2021-03-25T00:40:35Z</time>
      </trkpt>
      <trkpt lat="47.71368" lon="-0.64237">
        <ele>66</ele>
        <time>2021-03-25T00:40:44Z</time>
      </trkpt>
      <trkpt lat="47.71364" lon="-0.64256">
        <ele>66</ele>
        <time>2021-03-25T00:40:47Z</time>
      </trkpt>
      <trkpt lat="47.7136" lon="-0.64276">
        <ele>65</ele>
        <time>2021-03-25T00:40:49Z</time>
      </trkpt>
      <trkpt lat="47.71354" lon="-0.64304">
        <ele>65</ele>
        <time>2021-03-25T00:40:53Z</time>
      </trkpt>
      <trkpt lat="47.71348" lon="-0.64334">
        <ele>64</ele>
        <time>2021-03-25T00:40:56Z</time>
      </trkpt>
      <trkpt lat="47.71339" lon="-0.64369">
        <ele>63</ele>
        <time>2021-03-25T00:41:01Z</time>
      </trkpt>
      <trkpt lat="47.71333" lon="-0.64391">
        <ele>63</ele>
        <time>2021-03-25T00:41:04Z</time>
      </trkpt>
      <trkpt lat="47.71329" lon="-0.64402">
        <ele>62</ele>
        <time>2021-03-25T00:41:05Z</time>
      </trkpt>
      <trkpt lat="47.71325" lon="-0.64412">
        <ele>62</ele>
        <time>2021-03-25T00:41:07Z</time>
      </trkpt>
      <trkpt lat="47.71323" lon="-0.64416">
        <ele>62</ele>
        <time>2021-03-25T00:41:07Z</time>
      </trkpt>
      <trkpt lat="47.7132" lon="-0.64422">
        <ele>61</ele>
        <time>2021-03-25T00:41:08Z</time>
      </trkpt>
      <trkpt lat="47.71317" lon="-0.64428">
        <ele>60</ele>
        <time>2021-03-25T00:41:09Z</time>
      </trkpt>
      <trkpt lat="47.71314" lon="-0.64432">
        <ele>60</ele>
        <time>2021-03-25T00:41:10Z</time>
      </trkpt>
      <trkpt lat="47.71307" lon="-0.64442">
        <ele>59</ele>
        <time>2021-03-25T00:41:12Z</time>
      </trkpt>
      <trkpt lat="47.71297" lon="-0.64454">
        <ele>57</ele>
        <time>2021-03-25T00:41:14Z</time>
      </trkpt>
      <trkpt lat="47.71282" lon="-0.64468">
        <ele>55</ele>
        <time>2021-03-25T00:41:17Z</time>
      </trkpt>
      <trkpt lat="47.71272" lon="-0.64477">
        <ele>54</ele>
        <time>2021-03-25T00:41:19Z</time>
      </trkpt>
      <trkpt lat="47.71271" lon="-0.64478">
        <ele>54</ele>
        <time>2021-03-25T00:41:19Z</time>
      </trkpt>
      <trkpt lat="47.71213" lon="-0.64528">
        <ele>53</ele>
        <time>2021-03-25T00:41:31Z</time>
      </trkpt>
      <trkpt lat="47.7112" lon="-0.64611">
        <ele>59</ele>
        <time>2021-03-25T00:41:50Z</time>
      </trkpt>
      <trkpt lat="47.7108" lon="-0.64651">
        <ele>62</ele>
        <time>2021-03-25T00:41:59Z</time>
      </trkpt>
      <trkpt lat="47.70985" lon="-0.64754">
        <ele>69</ele>
        <time>2021-03-25T00:42:20Z</time>
      </trkpt>
      <trkpt lat="47.70935" lon="-0.6481">
        <ele>70</ele>
        <time>2021-03-25T00:42:31Z</time>
      </trkpt>
      <trkpt lat="47.70899" lon="-0.6485">
        <ele>70</ele>
        <time>2021-03-25T00:42:39Z</time>
      </trkpt>
      <trkpt lat="47.70872" lon="-0.64879">
        <ele>69</ele>
        <time>2021-03-25T00:42:45Z</time>
      </trkpt>
      <trkpt lat="47.70827" lon="-0.64926">
        <ele>68</ele>
        <time>2021-03-25T00:42:55Z</time>
      </trkpt>
      <trkpt lat="47.70812" lon="-0.64943">
        <ele>67</ele>
        <time>2021-03-25T00:42:58Z</time>
      </trkpt>
      <trkpt lat="47.70803" lon="-0.64953">
        <ele>67</ele>
        <time>2021-03-25T00:43:00Z</time>
      </trkpt>
      <trkpt lat="47.70796" lon="-0.64962">
        <ele>67</ele>
        <time>2021-03-25T00:43:02Z</time>
      </trkpt>
      <trkpt lat="47.70789" lon="-0.64971">
        <ele>67</ele>
        <time>2021-03-25T00:43:04Z</time>
      </trkpt>
      <trkpt lat="47.70781" lon="-0.64983">
        <ele>67</ele>
        <time>2021-03-25T00:43:06Z</time>
      </trkpt>
      <trkpt lat="47.70778" lon="-0.64992">
        <ele>67</ele>
        <time>2021-03-25T00:43:07Z</time>
      </trkpt>
      <trkpt lat="47.70775" lon="-0.65">
        <ele>67</ele>
        <time>2021-03-25T00:43:08Z</time>
      </trkpt>
      <trkpt lat="47.70772" lon="-0.6501">
        <ele>67</ele>
        <time>2021-03-25T00:43:09Z</time>
      </trkpt>
      <trkpt lat="47.70769" lon="-0.65021">
        <ele>66</ele>
        <time>2021-03-25T00:43:11Z</time>
      </trkpt>
      <trkpt lat="47.70767" lon="-0.65029">
        <ele>66</ele>
        <time>2021-03-25T00:43:12Z</time>
      </trkpt>
      <trkpt lat="47.70766" lon="-0.65038">
        <ele>66</ele>
        <time>2021-03-25T00:43:13Z</time>
      </trkpt>
      <trkpt lat="47.70764" lon="-0.65047">
        <ele>66</ele>
        <time>2021-03-25T00:43:14Z</time>
      </trkpt>
      <trkpt lat="47.70763" lon="-0.6506">
        <ele>66</ele>
        <time>2021-03-25T00:43:15Z</time>
      </trkpt>
      <trkpt lat="47.70761" lon="-0.65082">
        <ele>66</ele>
        <time>2021-03-25T00:43:18Z</time>
      </trkpt>
      <trkpt lat="47.70758" lon="-0.65102">
        <ele>66</ele>
        <time>2021-03-25T00:43:20Z</time>
      </trkpt>
      <trkpt lat="47.70756" lon="-0.6512">
        <ele>66</ele>
        <time>2021-03-25T00:43:23Z</time>
      </trkpt>
      <trkpt lat="47.70753" lon="-0.65139">
        <ele>67</ele>
        <time>2021-03-25T00:43:25Z</time>
      </trkpt>
      <trkpt lat="47.70751" lon="-0.65152">
        <ele>67</ele>
        <time>2021-03-25T00:43:27Z</time>
      </trkpt>
      <trkpt lat="47.70747" lon="-0.65191">
        <ele>66</ele>
        <time>2021-03-25T00:43:31Z</time>
      </trkpt>
      <trkpt lat="47.70746" lon="-0.65197">
        <ele>66</ele>
        <time>2021-03-25T00:43:32Z</time>
      </trkpt>
      <trkpt lat="47.70743" lon="-0.6521">
        <ele>66</ele>
        <time>2021-03-25T00:43:34Z</time>
      </trkpt>
      <trkpt lat="47.70741" lon="-0.65219">
        <ele>66</ele>
        <time>2021-03-25T00:43:35Z</time>
      </trkpt>
      <trkpt lat="47.7074" lon="-0.65226">
        <ele>66</ele>
        <time>2021-03-25T00:43:36Z</time>
      </trkpt>
      <trkpt lat="47.70736" lon="-0.6524">
        <ele>65</ele>
        <time>2021-03-25T00:43:38Z</time>
      </trkpt>
      <trkpt lat="47.70732" lon="-0.65253">
        <ele>65</ele>
        <time>2021-03-25T00:43:39Z</time>
      </trkpt>
      <trkpt lat="47.70727" lon="-0.65267">
        <ele>65</ele>
        <time>2021-03-25T00:43:41Z</time>
      </trkpt>
      <trkpt lat="47.70723" lon="-0.6528">
        <ele>65</ele>
        <time>2021-03-25T00:43:43Z</time>
      </trkpt>
      <trkpt lat="47.70717" lon="-0.65294">
        <ele>65</ele>
        <time>2021-03-25T00:43:45Z</time>
      </trkpt>
      <trkpt lat="47.70712" lon="-0.65306">
        <ele>66</ele>
        <time>2021-03-25T00:43:47Z</time>
      </trkpt>
      <trkpt lat="47.70707" lon="-0.6532">
        <ele>66</ele>
        <time>2021-03-25T00:43:48Z</time>
      </trkpt>
      <trkpt lat="47.70697" lon="-0.65345">
        <ele>66</ele>
        <time>2021-03-25T00:43:52Z</time>
      </trkpt>
      <trkpt lat="47.70686" lon="-0.65372">
        <ele>65</ele>
        <time>2021-03-25T00:43:56Z</time>
      </trkpt>
      <trkpt lat="47.70681" lon="-0.65385">
        <ele>65</ele>
        <time>2021-03-25T00:43:57Z</time>
      </trkpt>
      <trkpt lat="47.70667" lon="-0.65424">
        <ele>64</ele>
        <time>2021-03-25T00:44:03Z</time>
      </trkpt>
      <trkpt lat="47.70661" lon="-0.65441">
        <ele>64</ele>
        <time>2021-03-25T00:44:05Z</time>
      </trkpt>
      <trkpt lat="47.70629" lon="-0.65525">
        <ele>64</ele>
        <time>2021-03-25T00:44:17Z</time>
      </trkpt>
      <trkpt lat="47.70618" lon="-0.65555">
        <ele>64</ele>
        <time>2021-03-25T00:44:21Z</time>
      </trkpt>
      <trkpt lat="47.7057" lon="-0.65682">
        <ele>63</ele>
        <time>2021-03-25T00:44:38Z</time>
      </trkpt>
      <trkpt lat="47.70503" lon="-0.65863">
        <ele>66</ele>
        <time>2021-03-25T00:45:03Z</time>
      </trkpt>
      <trkpt lat="47.70494" lon="-0.65888">
        <ele>65</ele>
        <time>2021-03-25T00:45:06Z</time>
      </trkpt>
      <trkpt lat="47.70484" lon="-0.65912">
        <ele>65</ele>
        <time>2021-03-25T00:45:10Z</time>
      </trkpt>
      <trkpt lat="47.70472" lon="-0.65941">
        <ele>65</ele>
        <time>2021-03-25T00:45:14Z</time>
      </trkpt>
      <trkpt lat="47.70465" lon="-0.65956">
        <ele>65</ele>
        <time>2021-03-25T00:45:16Z</time>
      </trkpt>
      <trkpt lat="47.70463" lon="-0.65961">
        <ele>66</ele>
        <time>2021-03-25T00:45:17Z</time>
      </trkpt>
      <trkpt lat="47.7046" lon="-0.65967">
        <ele>66</ele>
        <time>2021-03-25T00:45:18Z</time>
      </trkpt>
      <trkpt lat="47.70455" lon="-0.65976">
        <ele>66</ele>
        <time>2021-03-25T00:45:19Z</time>
      </trkpt>
      <trkpt lat="47.70449" lon="-0.65985">
        <ele>66</ele>
        <time>2021-03-25T00:45:20Z</time>
      </trkpt>
      <trkpt lat="47.70443" lon="-0.65995">
        <ele>66</ele>
        <time>2021-03-25T00:45:22Z</time>
      </trkpt>
      <trkpt lat="47.70433" lon="-0.66011">
        <ele>66</ele>
        <time>2021-03-25T00:45:25Z</time>
      </trkpt>
      <trkpt lat="47.70424" lon="-0.66023">
        <ele>66</ele>
        <time>2021-03-25T00:45:27Z</time>
      </trkpt>
      <trkpt lat="47.70414" lon="-0.66038">
        <ele>66</ele>
        <time>2021-03-25T00:45:29Z</time>
      </trkpt>
      <trkpt lat="47.70393" lon="-0.6607">
        <ele>66</ele>
        <time>2021-03-25T00:45:35Z</time>
      </trkpt>
      <trkpt lat="47.70377" lon="-0.66094">
        <ele>65</ele>
        <time>2021-03-25T00:45:39Z</time>
      </trkpt>
      <trkpt lat="47.70337" lon="-0.66154">
        <ele>63</ele>
        <time>2021-03-25T00:45:49Z</time>
      </trkpt>
      <trkpt lat="47.70328" lon="-0.66165">
        <ele>63</ele>
        <time>2021-03-25T00:45:51Z</time>
      </trkpt>
      <trkpt lat="47.70323" lon="-0.66172">
        <ele>63</ele>
        <time>2021-03-25T00:45:52Z</time>
      </trkpt>
      <trkpt lat="47.70319" lon="-0.66177">
        <ele>63</ele>
        <time>2021-03-25T00:45:53Z</time>
      </trkpt>
      <trkpt lat="47.70314" lon="-0.66182">
        <ele>63</ele>
        <time>2021-03-25T00:45:54Z</time>
      </trkpt>
      <trkpt lat="47.70307" lon="-0.66187">
        <ele>62</ele>
        <time>2021-03-25T00:45:56Z</time>
      </trkpt>
      <trkpt lat="47.70301" lon="-0.66192">
        <ele>62</ele>
        <time>2021-03-25T00:45:57Z</time>
      </trkpt>
      <trkpt lat="47.70294" lon="-0.66196">
        <ele>62</ele>
        <time>2021-03-25T00:45:58Z</time>
      </trkpt>
      <trkpt lat="47.70288" lon="-0.66199">
        <ele>62</ele>
        <time>2021-03-25T00:45:59Z</time>
      </trkpt>
      <trkpt lat="47.70279" lon="-0.66202">
        <ele>62</ele>
        <time>2021-03-25T00:46:01Z</time>
      </trkpt>
      <trkpt lat="47.70271" lon="-0.66204">
        <ele>61</ele>
        <time>2021-03-25T00:46:02Z</time>
      </trkpt>
      <trkpt lat="47.7026" lon="-0.66205">
        <ele>61</ele>
        <time>2021-03-25T00:46:04Z</time>
      </trkpt>
      <trkpt lat="47.70258" lon="-0.66205">
        <ele>61</ele>
        <time>2021-03-25T00:46:05Z</time>
      </trkpt>
      <trkpt lat="47.70247" lon="-0.66203">
        <ele>60</ele>
        <time>2021-03-25T00:46:07Z</time>
      </trkpt>
      <trkpt lat="47.70235" lon="-0.66202">
        <ele>59</ele>
        <time>2021-03-25T00:46:09Z</time>
      </trkpt>
      <trkpt lat="47.70223" lon="-0.66201">
        <ele>57</ele>
        <time>2021-03-25T00:46:11Z</time>
      </trkpt>
      <trkpt lat="47.70212" lon="-0.662">
        <ele>56</ele>
        <time>2021-03-25T00:46:13Z</time>
      </trkpt>
      <trkpt lat="47.70205" lon="-0.66201">
        <ele>55</ele>
        <time>2021-03-25T00:46:14Z</time>
      </trkpt>
      <trkpt lat="47.70198" lon="-0.66202">
        <ele>54</ele>
        <time>2021-03-25T00:46:15Z</time>
      </trkpt>
      <trkpt lat="47.70191" lon="-0.66204">
        <ele>53</ele>
        <time>2021-03-25T00:46:17Z</time>
      </trkpt>
      <trkpt lat="47.70183" lon="-0.66208">
        <ele>52</ele>
        <time>2021-03-25T00:46:18Z</time>
      </trkpt>
      <trkpt lat="47.70176" lon="-0.66213">
        <ele>50</ele>
        <time>2021-03-25T00:46:19Z</time>
      </trkpt>
      <trkpt lat="47.70171" lon="-0.66218">
        <ele>50</ele>
        <time>2021-03-25T00:46:21Z</time>
      </trkpt>
      <trkpt lat="47.70165" lon="-0.66224">
        <ele>48</ele>
        <time>2021-03-25T00:46:22Z</time>
      </trkpt>
      <trkpt lat="47.70159" lon="-0.66232">
        <ele>46</ele>
        <time>2021-03-25T00:46:23Z</time>
      </trkpt>
      <trkpt lat="47.70152" lon="-0.66243">
        <ele>44</ele>
        <time>2021-03-25T00:46:25Z</time>
      </trkpt>
      <trkpt lat="47.70144" lon="-0.66259">
        <ele>42</ele>
        <time>2021-03-25T00:46:27Z</time>
      </trkpt>
      <trkpt lat="47.70131" lon="-0.66289">
        <ele>39</ele>
        <time>2021-03-25T00:46:32Z</time>
      </trkpt>
      <trkpt lat="47.70116" lon="-0.66328">
        <ele>39</ele>
        <time>2021-03-25T00:46:37Z</time>
      </trkpt>
      <trkpt lat="47.70103" lon="-0.66355">
        <ele>39</ele>
        <time>2021-03-25T00:46:41Z</time>
      </trkpt>
      <trkpt lat="47.70092" lon="-0.66387">
        <ele>40</ele>
        <time>2021-03-25T00:46:45Z</time>
      </trkpt>
      <trkpt lat="47.70089" lon="-0.66396">
        <ele>41</ele>
        <time>2021-03-25T00:46:47Z</time>
      </trkpt>
      <trkpt lat="47.70088" lon="-0.66402">
        <ele>41</ele>
        <time>2021-03-25T00:46:47Z</time>
      </trkpt>
      <trkpt lat="47.70088" lon="-0.66403">
        <ele>41</ele>
        <time>2021-03-25T00:46:47Z</time>
      </trkpt>
      <trkpt lat="47.70084" lon="-0.66417">
        <ele>42</ele>
        <time>2021-03-25T00:46:49Z</time>
      </trkpt>
      <trkpt lat="47.70082" lon="-0.66431">
        <ele>42</ele>
        <time>2021-03-25T00:46:51Z</time>
      </trkpt>
      <trkpt lat="47.7008" lon="-0.66444">
        <ele>43</ele>
        <time>2021-03-25T00:46:53Z</time>
      </trkpt>
      <trkpt lat="47.70079" lon="-0.6646">
        <ele>43</ele>
        <time>2021-03-25T00:46:55Z</time>
      </trkpt>
      <trkpt lat="47.70078" lon="-0.66477">
        <ele>43</ele>
        <time>2021-03-25T00:46:57Z</time>
      </trkpt>
      <trkpt lat="47.70077" lon="-0.66502">
        <ele>43</ele>
        <time>2021-03-25T00:47:00Z</time>
      </trkpt>
      <trkpt lat="47.70076" lon="-0.66528">
        <ele>41</ele>
        <time>2021-03-25T00:47:03Z</time>
      </trkpt>
      <trkpt lat="47.70075" lon="-0.66543">
        <ele>40</ele>
        <time>2021-03-25T00:47:04Z</time>
      </trkpt>
      <trkpt lat="47.70074" lon="-0.66572">
        <ele>38</ele>
        <time>2021-03-25T00:47:08Z</time>
      </trkpt>
      <trkpt lat="47.70073" lon="-0.66583">
        <ele>37</ele>
        <time>2021-03-25T00:47:09Z</time>
      </trkpt>
      <trkpt lat="47.70072" lon="-0.66591">
        <ele>36</ele>
        <time>2021-03-25T00:47:10Z</time>
      </trkpt>
      <trkpt lat="47.70069" lon="-0.666">
        <ele>35</ele>
        <time>2021-03-25T00:47:11Z</time>
      </trkpt>
      <trkpt lat="47.70066" lon="-0.66606">
        <ele>35</ele>
        <time>2021-03-25T00:47:12Z</time>
      </trkpt>
      <trkpt lat="47.70064" lon="-0.6661">
        <ele>34</ele>
        <time>2021-03-25T00:47:13Z</time>
      </trkpt>
      <trkpt lat="47.70058" lon="-0.66618">
        <ele>34</ele>
        <time>2021-03-25T00:47:14Z</time>
      </trkpt>
      <trkpt lat="47.70049" lon="-0.66623">
        <ele>34</ele>
        <time>2021-03-25T00:47:16Z</time>
      </trkpt>
      <trkpt lat="47.70035" lon="-0.6663">
        <ele>33</ele>
        <time>2021-03-25T00:47:19Z</time>
      </trkpt>
      <trkpt lat="47.70034" lon="-0.66631">
        <ele>33</ele>
        <time>2021-03-25T00:47:19Z</time>
      </trkpt>
      <trkpt lat="47.6999" lon="-0.66649">
        <ele>33</ele>
        <time>2021-03-25T00:47:27Z</time>
      </trkpt>
      <trkpt lat="47.69944" lon="-0.6667">
        <ele>31</ele>
        <time>2021-03-25T00:47:36Z</time>
      </trkpt>
      <trkpt lat="47.69923" lon="-0.66679">
        <ele>30</ele>
        <time>2021-03-25T00:47:40Z</time>
      </trkpt>
      <trkpt lat="47.69877" lon="-0.667">
        <ele>30</ele>
        <time>2021-03-25T00:47:48Z</time>
      </trkpt>
      <trkpt lat="47.69857" lon="-0.66709">
        <ele>30</ele>
        <time>2021-03-25T00:47:52Z</time>
      </trkpt>
      <trkpt lat="47.69837" lon="-0.66719">
        <ele>30</ele>
        <time>2021-03-25T00:47:56Z</time>
      </trkpt>
      <trkpt lat="47.69805" lon="-0.66733">
        <ele>30</ele>
        <time>2021-03-25T00:48:01Z</time>
      </trkpt>
      <trkpt lat="47.69746" lon="-0.66759">
        <ele>29</ele>
        <time>2021-03-25T00:48:12Z</time>
      </trkpt>
      <trkpt lat="47.69708" lon="-0.66777">
        <ele>29</ele>
        <time>2021-03-25T00:48:20Z</time>
      </trkpt>
      <trkpt lat="47.69692" lon="-0.66784">
        <ele>29</ele>
        <time>2021-03-25T00:48:22Z</time>
      </trkpt>
      <trkpt lat="47.69658" lon="-0.66799">
        <ele>29</ele>
        <time>2021-03-25T00:48:29Z</time>
      </trkpt>
      <trkpt lat="47.69627" lon="-0.66813">
        <ele>29</ele>
        <time>2021-03-25T00:48:35Z</time>
      </trkpt>
      <trkpt lat="47.69607" lon="-0.66822">
        <ele>29</ele>
        <time>2021-03-25T00:48:38Z</time>
      </trkpt>
      <trkpt lat="47.69601" lon="-0.66825">
        <ele>29</ele>
        <time>2021-03-25T00:48:39Z</time>
      </trkpt>
      <trkpt lat="47.6955" lon="-0.66851">
        <ele>29</ele>
        <time>2021-03-25T00:48:49Z</time>
      </trkpt>
      <trkpt lat="47.69498" lon="-0.66883">
        <ele>29</ele>
        <time>2021-03-25T00:48:59Z</time>
      </trkpt>
      <trkpt lat="47.6949" lon="-0.66888">
        <ele>30</ele>
        <time>2021-03-25T00:49:01Z</time>
      </trkpt>
      <trkpt lat="47.6946" lon="-0.66906">
        <ele>30</ele>
        <time>2021-03-25T00:49:06Z</time>
      </trkpt>
      <trkpt lat="47.69446" lon="-0.66917">
        <ele>30</ele>
        <time>2021-03-25T00:49:09Z</time>
      </trkpt>
      <trkpt lat="47.69421" lon="-0.66933">
        <ele>29</ele>
        <time>2021-03-25T00:49:14Z</time>
      </trkpt>
      <trkpt lat="47.694" lon="-0.66949">
        <ele>29</ele>
        <time>2021-03-25T00:49:18Z</time>
      </trkpt>
      <trkpt lat="47.69366" lon="-0.66976">
        <ele>28</ele>
        <time>2021-03-25T00:49:25Z</time>
      </trkpt>
      <trkpt lat="47.69335" lon="-0.67004">
        <ele>27</ele>
        <time>2021-03-25T00:49:31Z</time>
      </trkpt>
      <trkpt lat="47.69281" lon="-0.67053">
        <ele>30</ele>
        <time>2021-03-25T00:49:43Z</time>
      </trkpt>
      <trkpt lat="47.69265" lon="-0.67068">
        <ele>31</ele>
        <time>2021-03-25T00:49:46Z</time>
      </trkpt>
      <trkpt lat="47.69253" lon="-0.6708">
        <ele>31</ele>
        <time>2021-03-25T00:49:49Z</time>
      </trkpt>
      <trkpt lat="47.69251" lon="-0.67083">
        <ele>31</ele>
        <time>2021-03-25T00:49:49Z</time>
      </trkpt>
      <trkpt lat="47.69217" lon="-0.67117">
        <ele>28</ele>
        <time>2021-03-25T00:49:56Z</time>
      </trkpt>
      <trkpt lat="47.69203" lon="-0.6713">
        <ele>28</ele>
        <time>2021-03-25T00:49:59Z</time>
      </trkpt>
      <trkpt lat="47.69152" lon="-0.67187">
        <ele>26</ele>
        <time>2021-03-25T00:50:11Z</time>
      </trkpt>
      <trkpt lat="47.6915" lon="-0.67189">
        <ele>26</ele>
        <time>2021-03-25T00:50:11Z</time>
      </trkpt>
      <trkpt lat="47.69102" lon="-0.67242">
        <ele>26</ele>
        <time>2021-03-25T00:50:22Z</time>
      </trkpt>
      <trkpt lat="47.69055" lon="-0.67283">
        <ele>26</ele>
        <time>2021-03-25T00:50:32Z</time>
      </trkpt>
      <trkpt lat="47.68993" lon="-0.67334">
        <ele>26</ele>
        <time>2021-03-25T00:50:44Z</time>
      </trkpt>
      <trkpt lat="47.68932" lon="-0.67383">
        <ele>25</ele>
        <time>2021-03-25T00:50:57Z</time>
      </trkpt>
      <trkpt lat="47.68918" lon="-0.67395">
        <ele>25</ele>
        <time>2021-03-25T00:50:59Z</time>
      </trkpt>
      <trkpt lat="47.6891" lon="-0.67401">
        <ele>25</ele>
        <time>2021-03-25T00:51:01Z</time>
      </trkpt>
      <trkpt lat="47.68903" lon="-0.67413">
        <ele>25</ele>
        <time>2021-03-25T00:51:03Z</time>
      </trkpt>
      <trkpt lat="47.68898" lon="-0.6742">
        <ele>25</ele>
        <time>2021-03-25T00:51:04Z</time>
      </trkpt>
      <trkpt lat="47.68891" lon="-0.67427">
        <ele>25</ele>
        <time>2021-03-25T00:51:06Z</time>
      </trkpt>
      <trkpt lat="47.68885" lon="-0.67431">
        <ele>25</ele>
        <time>2021-03-25T00:51:07Z</time>
      </trkpt>
      <trkpt lat="47.68885" lon="-0.67431">
        <ele>25</ele>
        <time>2021-03-25T00:51:07Z</time>
      </trkpt>
      <trkpt lat="47.68883" lon="-0.6744">
        <ele>25</ele>
        <time>2021-03-25T00:51:08Z</time>
      </trkpt>
      <trkpt lat="47.68882" lon="-0.67445">
        <ele>25</ele>
        <time>2021-03-25T00:51:09Z</time>
      </trkpt>
      <trkpt lat="47.6888" lon="-0.67449">
        <ele>25</ele>
        <time>2021-03-25T00:51:09Z</time>
      </trkpt>
      <trkpt lat="47.68879" lon="-0.67453">
        <ele>25</ele>
        <time>2021-03-25T00:51:10Z</time>
      </trkpt>
      <trkpt lat="47.68876" lon="-0.67461">
        <ele>26</ele>
        <time>2021-03-25T00:51:11Z</time>
      </trkpt>
      <trkpt lat="47.68873" lon="-0.67467">
        <ele>25</ele>
        <time>2021-03-25T00:51:12Z</time>
      </trkpt>
      <trkpt lat="47.68888" lon="-0.67564">
        <ele>25</ele>
        <time>2021-03-25T00:51:24Z</time>
      </trkpt>
      <trkpt lat="47.68891" lon="-0.67588">
        <ele>25</ele>
        <time>2021-03-25T00:51:26Z</time>
      </trkpt>
      <trkpt lat="47.68893" lon="-0.676">
        <ele>25</ele>
        <time>2021-03-25T00:51:28Z</time>
      </trkpt>
      <trkpt lat="47.68906" lon="-0.67686">
        <ele>22</ele>
        <time>2021-03-25T00:51:39Z</time>
      </trkpt>
      <trkpt lat="47.6893" lon="-0.67826">
        <ele>22</ele>
        <time>2021-03-25T00:51:56Z</time>
      </trkpt>
      <trkpt lat="47.68932" lon="-0.67841">
        <ele>22</ele>
        <time>2021-03-25T00:51:58Z</time>
      </trkpt>
      <trkpt lat="47.68947" lon="-0.67932">
        <ele>22</ele>
        <time>2021-03-25T00:52:09Z</time>
      </trkpt>
      <trkpt lat="47.68948" lon="-0.67937">
        <ele>22</ele>
        <time>2021-03-25T00:52:09Z</time>
      </trkpt>
      <trkpt lat="47.68964" lon="-0.6803">
        <ele>23</ele>
        <time>2021-03-25T00:52:21Z</time>
      </trkpt>
      <trkpt lat="47.68967" lon="-0.68045">
        <ele>24</ele>
        <time>2021-03-25T00:52:23Z</time>
      </trkpt>
      <trkpt lat="47.68971" lon="-0.68073">
        <ele>24</ele>
        <time>2021-03-25T00:52:26Z</time>
      </trkpt>
      <trkpt lat="47.68972" lon="-0.68081">
        <ele>24</ele>
        <time>2021-03-25T00:52:27Z</time>
      </trkpt>
      <trkpt lat="47.68975" lon="-0.6811">
        <ele>25</ele>
        <time>2021-03-25T00:52:31Z</time>
      </trkpt>
      <trkpt lat="47.68982" lon="-0.68203">
        <ele>28</ele>
        <time>2021-03-25T00:52:42Z</time>
      </trkpt>
      <trkpt lat="47.68986" lon="-0.68255">
        <ele>30</ele>
        <time>2021-03-25T00:52:48Z</time>
      </trkpt>
      <trkpt lat="47.68987" lon="-0.68258">
        <ele>31</ele>
        <time>2021-03-25T00:52:49Z</time>
      </trkpt>
      <trkpt lat="47.68989" lon="-0.68292">
        <ele>32</ele>
        <time>2021-03-25T00:52:53Z</time>
      </trkpt>
      <trkpt lat="47.68991" lon="-0.68312">
        <ele>32</ele>
        <time>2021-03-25T00:52:55Z</time>
      </trkpt>
      <trkpt lat="47.68993" lon="-0.68328">
        <ele>33</ele>
        <time>2021-03-25T00:52:57Z</time>
      </trkpt>
      <trkpt lat="47.69003" lon="-0.68372">
        <ele>34</ele>
        <time>2021-03-25T00:53:03Z</time>
      </trkpt>
      <trkpt lat="47.69009" lon="-0.68403">
        <ele>35</ele>
        <time>2021-03-25T00:53:07Z</time>
      </trkpt>
      <trkpt lat="47.69011" lon="-0.6841">
        <ele>35</ele>
        <time>2021-03-25T00:53:07Z</time>
      </trkpt>
      <trkpt lat="47.69013" lon="-0.68425">
        <ele>35</ele>
        <time>2021-03-25T00:53:09Z</time>
      </trkpt>
      <trkpt lat="47.69014" lon="-0.68429">
        <ele>35</ele>
        <time>2021-03-25T00:53:10Z</time>
      </trkpt>
      <trkpt lat="47.69017" lon="-0.68449">
        <ele>36</ele>
        <time>2021-03-25T00:53:12Z</time>
      </trkpt>
      <trkpt lat="47.6902" lon="-0.68461">
        <ele>36</ele>
        <time>2021-03-25T00:53:14Z</time>
      </trkpt>
      <trkpt lat="47.69021" lon="-0.68465">
        <ele>37</ele>
        <time>2021-03-25T00:53:14Z</time>
      </trkpt>
      <trkpt lat="47.69022" lon="-0.6847">
        <ele>37</ele>
        <time>2021-03-25T00:53:15Z</time>
      </trkpt>
      <trkpt lat="47.69032" lon="-0.68494">
        <ele>38</ele>
        <time>2021-03-25T00:53:18Z</time>
      </trkpt>
      <trkpt lat="47.69034" lon="-0.685">
        <ele>38</ele>
        <time>2021-03-25T00:53:19Z</time>
      </trkpt>
      <trkpt lat="47.69054" lon="-0.68543">
        <ele>39</ele>
        <time>2021-03-25T00:53:25Z</time>
      </trkpt>
      <trkpt lat="47.69072" lon="-0.68582">
        <ele>39</ele>
        <time>2021-03-25T00:53:31Z</time>
      </trkpt>
      <trkpt lat="47.69089" lon="-0.68617">
        <ele>39</ele>
        <time>2021-03-25T00:53:36Z</time>
      </trkpt>
      <trkpt lat="47.69093" lon="-0.68627">
        <ele>38</ele>
        <time>2021-03-25T00:53:38Z</time>
      </trkpt>
      <trkpt lat="47.69096" lon="-0.68634">
        <ele>38</ele>
        <time>2021-03-25T00:53:39Z</time>
      </trkpt>
      <trkpt lat="47.69114" lon="-0.68668">
        <ele>37</ele>
        <time>2021-03-25T00:53:44Z</time>
      </trkpt>
      <trkpt lat="47.69144" lon="-0.68718">
        <ele>37</ele>
        <time>2021-03-25T00:53:52Z</time>
      </trkpt>
      <trkpt lat="47.69146" lon="-0.68721">
        <ele>37</ele>
        <time>2021-03-25T00:53:52Z</time>
      </trkpt>
      <trkpt lat="47.69185" lon="-0.68785">
        <ele>37</ele>
        <time>2021-03-25T00:54:03Z</time>
      </trkpt>
      <trkpt lat="47.69202" lon="-0.68811">
        <ele>36</ele>
        <time>2021-03-25T00:54:07Z</time>
      </trkpt>
      <trkpt lat="47.69203" lon="-0.68814">
        <ele>36</ele>
        <time>2021-03-25T00:54:07Z</time>
      </trkpt>
      <trkpt lat="47.69219" lon="-0.68842">
        <ele>35</ele>
        <time>2021-03-25T00:54:12Z</time>
      </trkpt>
      <trkpt lat="47.69226" lon="-0.68856">
        <ele>35</ele>
        <time>2021-03-25T00:54:14Z</time>
      </trkpt>
      <trkpt lat="47.69231" lon="-0.68868">
        <ele>35</ele>
        <time>2021-03-25T00:54:16Z</time>
      </trkpt>
      <trkpt lat="47.6924" lon="-0.68894">
        <ele>34</ele>
        <time>2021-03-25T00:54:19Z</time>
      </trkpt>
      <trkpt lat="47.69248" lon="-0.68919">
        <ele>34</ele>
        <time>2021-03-25T00:54:22Z</time>
      </trkpt>
      <trkpt lat="47.69268" lon="-0.68997">
        <ele>35</ele>
        <time>2021-03-25T00:54:32Z</time>
      </trkpt>
      <trkpt lat="47.69288" lon="-0.69074">
        <ele>33</ele>
        <time>2021-03-25T00:54:42Z</time>
      </trkpt>
      <trkpt lat="47.693" lon="-0.69119">
        <ele>32</ele>
        <time>2021-03-25T00:54:48Z</time>
      </trkpt>
      <trkpt lat="47.69308" lon="-0.69149">
        <ele>31</ele>
        <time>2021-03-25T00:54:52Z</time>
      </trkpt>
      <trkpt lat="47.69311" lon="-0.69163">
        <ele>31</ele>
        <time>2021-03-25T00:54:54Z</time>
      </trkpt>
      <trkpt lat="47.69312" lon="-0.69167">
        <ele>31</ele>
        <time>2021-03-25T00:54:54Z</time>
      </trkpt>
      <trkpt lat="47.69314" lon="-0.69175">
        <ele>31</ele>
        <time>2021-03-25T00:54:55Z</time>
      </trkpt>
      <trkpt lat="47.69321" lon="-0.69206">
        <ele>30</ele>
        <time>2021-03-25T00:54:59Z</time>
      </trkpt>
      <trkpt lat="47.69322" lon="-0.6921">
        <ele>30</ele>
        <time>2021-03-25T00:55:00Z</time>
      </trkpt>
      <trkpt lat="47.69382" lon="-0.69445">
        <ele>33</ele>
        <time>2021-03-25T00:55:30Z</time>
      </trkpt>
      <trkpt lat="47.69408" lon="-0.69543">
        <ele>32</ele>
        <time>2021-03-25T00:55:42Z</time>
      </trkpt>
      <trkpt lat="47.69408" lon="-0.69546">
        <ele>32</ele>
        <time>2021-03-25T00:55:43Z</time>
      </trkpt>
      <trkpt lat="47.69411" lon="-0.69557">
        <ele>32</ele>
        <time>2021-03-25T00:55:44Z</time>
      </trkpt>
      <trkpt lat="47.69413" lon="-0.69566">
        <ele>31</ele>
        <time>2021-03-25T00:55:45Z</time>
      </trkpt>
      <trkpt lat="47.69415" lon="-0.69574">
        <ele>31</ele>
        <time>2021-03-25T00:55:46Z</time>
      </trkpt>
      <trkpt lat="47.69429" lon="-0.69627">
        <ele>32</ele>
        <time>2021-03-25T00:55:53Z</time>
      </trkpt>
      <trkpt lat="47.69444" lon="-0.69688">
        <ele>33</ele>
        <time>2021-03-25T00:56:01Z</time>
      </trkpt>
      <trkpt lat="47.69455" lon="-0.69736">
        <ele>34</ele>
        <time>2021-03-25T00:56:07Z</time>
      </trkpt>
      <trkpt lat="47.69474" lon="-0.69804">
        <ele>36</ele>
        <time>2021-03-25T00:56:16Z</time>
      </trkpt>
      <trkpt lat="47.69489" lon="-0.69869">
        <ele>37</ele>
        <time>2021-03-25T00:56:24Z</time>
      </trkpt>
      <trkpt lat="47.69522" lon="-0.69988">
        <ele>37</ele>
        <time>2021-03-25T00:56:39Z</time>
      </trkpt>
      <trkpt lat="47.69536" lon="-0.70042">
        <ele>38</ele>
        <time>2021-03-25T00:56:46Z</time>
      </trkpt>
      <trkpt lat="47.69551" lon="-0.70085">
        <ele>38</ele>
        <time>2021-03-25T00:56:52Z</time>
      </trkpt>
      <trkpt lat="47.6956" lon="-0.70106">
        <ele>38</ele>
        <time>2021-03-25T00:56:55Z</time>
      </trkpt>
      <trkpt lat="47.69565" lon="-0.70119">
        <ele>38</ele>
        <time>2021-03-25T00:56:57Z</time>
      </trkpt>
      <trkpt lat="47.69571" lon="-0.70132">
        <ele>38</ele>
        <time>2021-03-25T00:56:59Z</time>
      </trkpt>
      <trkpt lat="47.69614" lon="-0.70226">
        <ele>38</ele>
        <time>2021-03-25T00:57:12Z</time>
      </trkpt>
      <trkpt lat="47.69649" lon="-0.70312">
        <ele>39</ele>
        <time>2021-03-25T00:57:24Z</time>
      </trkpt>
      <trkpt lat="47.69651" lon="-0.70314">
        <ele>39</ele>
        <time>2021-03-25T00:57:25Z</time>
      </trkpt>
      <trkpt lat="47.69682" lon="-0.70383">
        <ele>39</ele>
        <time>2021-03-25T00:57:35Z</time>
      </trkpt>
      <trkpt lat="47.69694" lon="-0.70412">
        <ele>39</ele>
        <time>2021-03-25T00:57:39Z</time>
      </trkpt>
      <trkpt lat="47.69713" lon="-0.70455">
        <ele>40</ele>
        <time>2021-03-25T00:57:45Z</time>
      </trkpt>
      <trkpt lat="47.6975" lon="-0.70542">
        <ele>42</ele>
        <time>2021-03-25T00:57:57Z</time>
      </trkpt>
      <trkpt lat="47.69757" lon="-0.70559">
        <ele>42</ele>
        <time>2021-03-25T00:58:00Z</time>
      </trkpt>
      <trkpt lat="47.69764" lon="-0.70576">
        <ele>42</ele>
        <time>2021-03-25T00:58:02Z</time>
      </trkpt>
      <trkpt lat="47.6978" lon="-0.70614">
        <ele>42</ele>
        <time>2021-03-25T00:58:08Z</time>
      </trkpt>
      <trkpt lat="47.6979" lon="-0.70647">
        <ele>43</ele>
        <time>2021-03-25T00:58:12Z</time>
      </trkpt>
      <trkpt lat="47.69795" lon="-0.70672">
        <ele>44</ele>
        <time>2021-03-25T00:58:15Z</time>
      </trkpt>
      <trkpt lat="47.69797" lon="-0.70681">
        <ele>44</ele>
        <time>2021-03-25T00:58:16Z</time>
      </trkpt>
      <trkpt lat="47.69798" lon="-0.70686">
        <ele>44</ele>
        <time>2021-03-25T00:58:17Z</time>
      </trkpt>
      <trkpt lat="47.69803" lon="-0.70719">
        <ele>44</ele>
        <time>2021-03-25T00:58:21Z</time>
      </trkpt>
      <trkpt lat="47.69807" lon="-0.70764">
        <ele>45</ele>
        <time>2021-03-25T00:58:26Z</time>
      </trkpt>
      <trkpt lat="47.6981" lon="-0.70815">
        <ele>45</ele>
        <time>2021-03-25T00:58:32Z</time>
      </trkpt>
      <trkpt lat="47.69811" lon="-0.70853">
        <ele>46</ele>
        <time>2021-03-25T00:58:37Z</time>
      </trkpt>
      <trkpt lat="47.69813" lon="-0.70868">
        <ele>46</ele>
        <time>2021-03-25T00:58:39Z</time>
      </trkpt>
      <trkpt lat="47.69813" lon="-0.70877">
        <ele>47</ele>
        <time>2021-03-25T00:58:40Z</time>
      </trkpt>
      <trkpt lat="47.69814" lon="-0.70886">
        <ele>47</ele>
        <time>2021-03-25T00:58:41Z</time>
      </trkpt>
      <trkpt lat="47.69814" lon="-0.70897">
        <ele>47</ele>
        <time>2021-03-25T00:58:42Z</time>
      </trkpt>
      <trkpt lat="47.69815" lon="-0.70913">
        <ele>47</ele>
        <time>2021-03-25T00:58:44Z</time>
      </trkpt>
      <trkpt lat="47.69815" lon="-0.70927">
        <ele>48</ele>
        <time>2021-03-25T00:58:46Z</time>
      </trkpt>
      <trkpt lat="47.69816" lon="-0.70953">
        <ele>48</ele>
        <time>2021-03-25T00:58:49Z</time>
      </trkpt>
      <trkpt lat="47.69815" lon="-0.70963">
        <ele>48</ele>
        <time>2021-03-25T00:58:50Z</time>
      </trkpt>
      <trkpt lat="47.69815" lon="-0.70975">
        <ele>48</ele>
        <time>2021-03-25T00:58:52Z</time>
      </trkpt>
      <trkpt lat="47.69815" lon="-0.70989">
        <ele>48</ele>
        <time>2021-03-25T00:58:53Z</time>
      </trkpt>
      <trkpt lat="47.69818" lon="-0.71088">
        <ele>49</ele>
        <time>2021-03-25T00:59:05Z</time>
      </trkpt>
      <trkpt lat="47.69819" lon="-0.71117">
        <ele>49</ele>
        <time>2021-03-25T00:59:09Z</time>
      </trkpt>
      <trkpt lat="47.69821" lon="-0.71141">
        <ele>50</ele>
        <time>2021-03-25T00:59:12Z</time>
      </trkpt>
      <trkpt lat="47.69823" lon="-0.71153">
        <ele>50</ele>
        <time>2021-03-25T00:59:13Z</time>
      </trkpt>
      <trkpt lat="47.69826" lon="-0.71165">
        <ele>51</ele>
        <time>2021-03-25T00:59:15Z</time>
      </trkpt>
      <trkpt lat="47.69838" lon="-0.71202">
        <ele>51</ele>
        <time>2021-03-25T00:59:19Z</time>
      </trkpt>
      <trkpt lat="47.69842" lon="-0.71213">
        <ele>52</ele>
        <time>2021-03-25T00:59:21Z</time>
      </trkpt>
      <trkpt lat="47.69868" lon="-0.71272">
        <ele>52</ele>
        <time>2021-03-25T00:59:29Z</time>
      </trkpt>
      <trkpt lat="47.6988" lon="-0.71297">
        <ele>53</ele>
        <time>2021-03-25T00:59:33Z</time>
      </trkpt>
      <trkpt lat="47.69901" lon="-0.71343">
        <ele>53</ele>
        <time>2021-03-25T00:59:40Z</time>
      </trkpt>
      <trkpt lat="47.69927" lon="-0.714">
        <ele>55</ele>
        <time>2021-03-25T00:59:48Z</time>
      </trkpt>
      <trkpt lat="47.69932" lon="-0.71409">
        <ele>55</ele>
        <time>2021-03-25T00:59:49Z</time>
      </trkpt>
      <trkpt lat="47.69969" lon="-0.71494">
        <ele>55</ele>
        <time>2021-03-25T01:00:01Z</time>
      </trkpt>
      <trkpt lat="47.69992" lon="-0.71555">
        <ele>56</ele>
        <time>2021-03-25T01:00:10Z</time>
      </trkpt>
      <trkpt lat="47.70028" lon="-0.7166">
        <ele>56</ele>
        <time>2021-03-25T01:00:24Z</time>
      </trkpt>
      <trkpt lat="47.70085" lon="-0.71819">
        <ele>58</ele>
        <time>2021-03-25T01:00:46Z</time>
      </trkpt>
      <trkpt lat="47.7009" lon="-0.71834">
        <ele>59</ele>
        <time>2021-03-25T01:00:48Z</time>
      </trkpt>
      <trkpt lat="47.70094" lon="-0.71847">
        <ele>58</ele>
        <time>2021-03-25T01:00:49Z</time>
      </trkpt>
      <trkpt lat="47.70098" lon="-0.71861">
        <ele>58</ele>
        <time>2021-03-25T01:00:51Z</time>
      </trkpt>
      <trkpt lat="47.70102" lon="-0.71873">
        <ele>58</ele>
        <time>2021-03-25T01:00:53Z</time>
      </trkpt>
      <trkpt lat="47.70106" lon="-0.71888">
        <ele>58</ele>
        <time>2021-03-25T01:00:55Z</time>
      </trkpt>
      <trkpt lat="47.70109" lon="-0.71902">
        <ele>58</ele>
        <time>2021-03-25T01:00:56Z</time>
      </trkpt>
      <trkpt lat="47.70112" lon="-0.71924">
        <ele>58</ele>
        <time>2021-03-25T01:00:59Z</time>
      </trkpt>
      <trkpt lat="47.70117" lon="-0.71955">
        <ele>57</ele>
        <time>2021-03-25T01:01:03Z</time>
      </trkpt>
      <trkpt lat="47.70124" lon="-0.72001">
        <ele>57</ele>
        <time>2021-03-25T01:01:09Z</time>
      </trkpt>
      <trkpt lat="47.70128" lon="-0.72019">
        <ele>57</ele>
        <time>2021-03-25T01:01:11Z</time>
      </trkpt>
      <trkpt lat="47.70131" lon="-0.72033">
        <ele>57</ele>
        <time>2021-03-25T01:01:13Z</time>
      </trkpt>
      <trkpt lat="47.70135" lon="-0.7205">
        <ele>57</ele>
        <time>2021-03-25T01:01:15Z</time>
      </trkpt>
      <trkpt lat="47.70139" lon="-0.7206">
        <ele>57</ele>
        <time>2021-03-25T01:01:16Z</time>
      </trkpt>
      <trkpt lat="47.70144" lon="-0.72072">
        <ele>57</ele>
        <time>2021-03-25T01:01:18Z</time>
      </trkpt>
      <trkpt lat="47.70149" lon="-0.72083">
        <ele>57</ele>
        <time>2021-03-25T01:01:19Z</time>
      </trkpt>
      <trkpt lat="47.70155" lon="-0.72094">
        <ele>57</ele>
        <time>2021-03-25T01:01:21Z</time>
      </trkpt>
      <trkpt lat="47.70168" lon="-0.72118">
        <ele>57</ele>
        <time>2021-03-25T01:01:25Z</time>
      </trkpt>
      <trkpt lat="47.70213" lon="-0.72199">
        <ele>57</ele>
        <time>2021-03-25T01:01:37Z</time>
      </trkpt>
      <trkpt lat="47.70213" lon="-0.722">
        <ele>57</ele>
        <time>2021-03-25T01:01:37Z</time>
      </trkpt>
      <trkpt lat="47.7024" lon="-0.72248">
        <ele>57</ele>
        <time>2021-03-25T01:01:45Z</time>
      </trkpt>
      <trkpt lat="47.70268" lon="-0.72299">
        <ele>57</ele>
        <time>2021-03-25T01:01:53Z</time>
      </trkpt>
      <trkpt lat="47.70276" lon="-0.72314">
        <ele>57</ele>
        <time>2021-03-25T01:01:55Z</time>
      </trkpt>
      <trkpt lat="47.70282" lon="-0.72324">
        <ele>57</ele>
        <time>2021-03-25T01:01:57Z</time>
      </trkpt>
      <trkpt lat="47.70284" lon="-0.72329">
        <ele>57</ele>
        <time>2021-03-25T01:01:57Z</time>
      </trkpt>
      <trkpt lat="47.70286" lon="-0.72334">
        <ele>57</ele>
        <time>2021-03-25T01:01:58Z</time>
      </trkpt>
      <trkpt lat="47.70291" lon="-0.72346">
        <ele>58</ele>
        <time>2021-03-25T01:02:00Z</time>
      </trkpt>
      <trkpt lat="47.70296" lon="-0.72357">
        <ele>58</ele>
        <time>2021-03-25T01:02:01Z</time>
      </trkpt>
      <trkpt lat="47.70305" lon="-0.72379">
        <ele>58</ele>
        <time>2021-03-25T01:02:04Z</time>
      </trkpt>
      <trkpt lat="47.70346" lon="-0.72492">
        <ele>58</ele>
        <time>2021-03-25T01:02:20Z</time>
      </trkpt>
      <trkpt lat="47.70365" lon="-0.72543">
        <ele>58</ele>
        <time>2021-03-25T01:02:27Z</time>
      </trkpt>
      <trkpt lat="47.70405" lon="-0.72645">
        <ele>59</ele>
        <time>2021-03-25T01:02:41Z</time>
      </trkpt>
      <trkpt lat="47.70425" lon="-0.72709">
        <ele>60</ele>
        <time>2021-03-25T01:02:49Z</time>
      </trkpt>
      <trkpt lat="47.70461" lon="-0.72835">
        <ele>59</ele>
        <time>2021-03-25T01:03:06Z</time>
      </trkpt>
      <trkpt lat="47.7048" lon="-0.72905">
        <ele>59</ele>
        <time>2021-03-25T01:03:15Z</time>
      </trkpt>
      <trkpt lat="47.70496" lon="-0.72951">
        <ele>60</ele>
        <time>2021-03-25T01:03:21Z</time>
      </trkpt>
      <trkpt lat="47.70503" lon="-0.72968">
        <ele>61</ele>
        <time>2021-03-25T01:03:23Z</time>
      </trkpt>
      <trkpt lat="47.70518" lon="-0.72996">
        <ele>61</ele>
        <time>2021-03-25T01:03:28Z</time>
      </trkpt>
      <trkpt lat="47.70554" lon="-0.73057">
        <ele>60</ele>
        <time>2021-03-25T01:03:37Z</time>
      </trkpt>
      <trkpt lat="47.70571" lon="-0.73086">
        <ele>60</ele>
        <time>2021-03-25T01:03:42Z</time>
      </trkpt>
      <trkpt lat="47.70582" lon="-0.73105">
        <ele>60</ele>
        <time>2021-03-25T01:03:45Z</time>
      </trkpt>
      <trkpt lat="47.70586" lon="-0.73114">
        <ele>60</ele>
        <time>2021-03-25T01:03:46Z</time>
      </trkpt>
      <trkpt lat="47.70592" lon="-0.7313">
        <ele>61</ele>
        <time>2021-03-25T01:03:49Z</time>
      </trkpt>
      <trkpt lat="47.70597" lon="-0.73144">
        <ele>61</ele>
        <time>2021-03-25T01:03:50Z</time>
      </trkpt>
      <trkpt lat="47.70602" lon="-0.73164">
        <ele>61</ele>
        <time>2021-03-25T01:03:53Z</time>
      </trkpt>
      <trkpt lat="47.70606" lon="-0.73183">
        <ele>61</ele>
        <time>2021-03-25T01:03:55Z</time>
      </trkpt>
      <trkpt lat="47.70609" lon="-0.73199">
        <ele>61</ele>
        <time>2021-03-25T01:03:57Z</time>
      </trkpt>
      <trkpt lat="47.70613" lon="-0.73227">
        <ele>60</ele>
        <time>2021-03-25T01:04:01Z</time>
      </trkpt>
      <trkpt lat="47.70615" lon="-0.73252">
        <ele>60</ele>
        <time>2021-03-25T01:04:04Z</time>
      </trkpt>
      <trkpt lat="47.70616" lon="-0.73265">
        <ele>60</ele>
        <time>2021-03-25T01:04:05Z</time>
      </trkpt>
      <trkpt lat="47.70616" lon="-0.73327">
        <ele>60</ele>
        <time>2021-03-25T01:04:13Z</time>
      </trkpt>
      <trkpt lat="47.70614" lon="-0.73372">
        <ele>60</ele>
        <time>2021-03-25T01:04:18Z</time>
      </trkpt>
      <trkpt lat="47.70613" lon="-0.73399">
        <ele>60</ele>
        <time>2021-03-25T01:04:21Z</time>
      </trkpt>
      <trkpt lat="47.70613" lon="-0.73441">
        <ele>60</ele>
        <time>2021-03-25T01:04:26Z</time>
      </trkpt>
      <trkpt lat="47.70613" lon="-0.73464">
        <ele>60</ele>
        <time>2021-03-25T01:04:29Z</time>
      </trkpt>
      <trkpt lat="47.70613" lon="-0.73472">
        <ele>60</ele>
        <time>2021-03-25T01:04:30Z</time>
      </trkpt>
      <trkpt lat="47.70613" lon="-0.73482">
        <ele>60</ele>
        <time>2021-03-25T01:04:31Z</time>
      </trkpt>
      <trkpt lat="47.70613" lon="-0.73495">
        <ele>60</ele>
        <time>2021-03-25T01:04:33Z</time>
      </trkpt>
      <trkpt lat="47.70612" lon="-0.73506">
        <ele>60</ele>
        <time>2021-03-25T01:04:34Z</time>
      </trkpt>
      <trkpt lat="47.70611" lon="-0.73515">
        <ele>60</ele>
        <time>2021-03-25T01:04:35Z</time>
      </trkpt>
      <trkpt lat="47.70611" lon="-0.73529">
        <ele>60</ele>
        <time>2021-03-25T01:04:37Z</time>
      </trkpt>
      <trkpt lat="47.70612" lon="-0.73529">
        <ele>60</ele>
        <time>2021-03-25T01:04:37Z</time>
      </trkpt>
      <trkpt lat="47.70612" lon="-0.7353">
        <ele>60</ele>
        <time>2021-03-25T01:04:37Z</time>
      </trkpt>
      <trkpt lat="47.70612" lon="-0.73531">
        <ele>60</ele>
        <time>2021-03-25T01:04:37Z</time>
      </trkpt>
      <trkpt lat="47.70613" lon="-0.73531">
        <ele>60</ele>
        <time>2021-03-25T01:04:38Z</time>
      </trkpt>
      <trkpt lat="47.70613" lon="-0.73532">
        <ele>60</ele>
        <time>2021-03-25T01:04:38Z</time>
      </trkpt>
      <trkpt lat="47.70613" lon="-0.73533">
        <ele>60</ele>
        <time>2021-03-25T01:04:38Z</time>
      </trkpt>
      <trkpt lat="47.70613" lon="-0.73534">
        <ele>60</ele>
        <time>2021-03-25T01:04:38Z</time>
      </trkpt>
      <trkpt lat="47.70613" lon="-0.73535">
        <ele>60</ele>
        <time>2021-03-25T01:04:38Z</time>
      </trkpt>
      <trkpt lat="47.70614" lon="-0.73535">
        <ele>60</ele>
        <time>2021-03-25T01:04:38Z</time>
      </trkpt>
      <trkpt lat="47.70614" lon="-0.73536">
        <ele>60</ele>
        <time>2021-03-25T01:04:38Z</time>
      </trkpt>
      <trkpt lat="47.70614" lon="-0.73537">
        <ele>60</ele>
        <time>2021-03-25T01:04:39Z</time>
      </trkpt>
      <trkpt lat="47.70614" lon="-0.73538">
        <ele>60</ele>
        <time>2021-03-25T01:04:39Z</time>
      </trkpt>
      <trkpt lat="47.70614" lon="-0.73539">
        <ele>60</ele>
        <time>2021-03-25T01:04:39Z</time>
      </trkpt>
      <trkpt lat="47.70614" lon="-0.7354">
        <ele>60</ele>
        <time>2021-03-25T01:04:39Z</time>
      </trkpt>
      <trkpt lat="47.70613" lon="-0.7354">
        <ele>60</ele>
        <time>2021-03-25T01:04:39Z</time>
      </trkpt>
      <trkpt lat="47.70613" lon="-0.73541">
        <ele>60</ele>
        <time>2021-03-25T01:04:39Z</time>
      </trkpt>
      <trkpt lat="47.70613" lon="-0.73542">
        <ele>59</ele>
        <time>2021-03-25T01:04:39Z</time>
      </trkpt>
      <trkpt lat="47.70613" lon="-0.73543">
        <ele>59</ele>
        <time>2021-03-25T01:04:39Z</time>
      </trkpt>
      <trkpt lat="47.70613" lon="-0.73544">
        <ele>59</ele>
        <time>2021-03-25T01:04:40Z</time>
      </trkpt>
      <trkpt lat="47.70612" lon="-0.73544">
        <ele>59</ele>
        <time>2021-03-25T01:04:40Z</time>
      </trkpt>
      <trkpt lat="47.70612" lon="-0.73545">
        <ele>59</ele>
        <time>2021-03-25T01:04:40Z</time>
      </trkpt>
      <trkpt lat="47.70612" lon="-0.73546">
        <ele>59</ele>
        <time>2021-03-25T01:04:40Z</time>
      </trkpt>
      <trkpt lat="47.70611" lon="-0.73546">
        <ele>59</ele>
        <time>2021-03-25T01:04:40Z</time>
      </trkpt>
      <trkpt lat="47.70611" lon="-0.73547">
        <ele>59</ele>
        <time>2021-03-25T01:04:40Z</time>
      </trkpt>
      <trkpt lat="47.7061" lon="-0.73548">
        <ele>59</ele>
        <time>2021-03-25T01:04:40Z</time>
      </trkpt>
      <trkpt lat="47.70607" lon="-0.73579">
        <ele>59</ele>
        <time>2021-03-25T01:04:44Z</time>
      </trkpt>
      <trkpt lat="47.70607" lon="-0.736">
        <ele>59</ele>
        <time>2021-03-25T01:04:47Z</time>
      </trkpt>
      <trkpt lat="47.70607" lon="-0.73625">
        <ele>59</ele>
        <time>2021-03-25T01:04:50Z</time>
      </trkpt>
      <trkpt lat="47.70608" lon="-0.73646">
        <ele>59</ele>
        <time>2021-03-25T01:04:52Z</time>
      </trkpt>
      <trkpt lat="47.7061" lon="-0.73666">
        <ele>59</ele>
        <time>2021-03-25T01:04:55Z</time>
      </trkpt>
      <trkpt lat="47.70613" lon="-0.73706">
        <ele>60</ele>
        <time>2021-03-25T01:04:59Z</time>
      </trkpt>
      <trkpt lat="47.70618" lon="-0.73768">
        <ele>60</ele>
        <time>2021-03-25T01:05:07Z</time>
      </trkpt>
      <trkpt lat="47.70623" lon="-0.73811">
        <ele>60</ele>
        <time>2021-03-25T01:05:12Z</time>
      </trkpt>
      <trkpt lat="47.70633" lon="-0.7391">
        <ele>60</ele>
        <time>2021-03-25T01:05:24Z</time>
      </trkpt>
      <trkpt lat="47.70645" lon="-0.74022">
        <ele>60</ele>
        <time>2021-03-25T01:05:38Z</time>
      </trkpt>
      <trkpt lat="47.70656" lon="-0.74124">
        <ele>60</ele>
        <time>2021-03-25T01:05:50Z</time>
      </trkpt>
      <trkpt lat="47.70657" lon="-0.74131">
        <ele>60</ele>
        <time>2021-03-25T01:05:51Z</time>
      </trkpt>
      <trkpt lat="47.70662" lon="-0.74168">
        <ele>60</ele>
        <time>2021-03-25T01:05:55Z</time>
      </trkpt>
      <trkpt lat="47.70662" lon="-0.74173">
        <ele>60</ele>
        <time>2021-03-25T01:05:56Z</time>
      </trkpt>
      <trkpt lat="47.70666" lon="-0.74206">
        <ele>60</ele>
        <time>2021-03-25T01:06:00Z</time>
      </trkpt>
      <trkpt lat="47.70674" lon="-0.74264">
        <ele>60</ele>
        <time>2021-03-25T01:06:07Z</time>
      </trkpt>
      <trkpt lat="47.70685" lon="-0.74339">
        <ele>60</ele>
        <time>2021-03-25T01:06:16Z</time>
      </trkpt>
      <trkpt lat="47.70686" lon="-0.74347">
        <ele>60</ele>
        <time>2021-03-25T01:06:17Z</time>
      </trkpt>
      <trkpt lat="47.70687" lon="-0.74358">
        <ele>60</ele>
        <time>2021-03-25T01:06:19Z</time>
      </trkpt>
      <trkpt lat="47.70693" lon="-0.74393">
        <ele>60</ele>
        <time>2021-03-25T01:06:23Z</time>
      </trkpt>
      <trkpt lat="47.70694" lon="-0.744">
        <ele>59</ele>
        <time>2021-03-25T01:06:24Z</time>
      </trkpt>
      <trkpt lat="47.70694" lon="-0.74407">
        <ele>59</ele>
        <time>2021-03-25T01:06:25Z</time>
      </trkpt>
      <trkpt lat="47.70694" lon="-0.74414">
        <ele>59</ele>
        <time>2021-03-25T01:06:26Z</time>
      </trkpt>
      <trkpt lat="47.70694" lon="-0.7443">
        <ele>59</ele>
        <time>2021-03-25T01:06:27Z</time>
      </trkpt>
      <trkpt lat="47.70693" lon="-0.74441">
        <ele>59</ele>
        <time>2021-03-25T01:06:29Z</time>
      </trkpt>
      <trkpt lat="47.70692" lon="-0.74448">
        <ele>59</ele>
        <time>2021-03-25T01:06:30Z</time>
      </trkpt>
      <trkpt lat="47.70685" lon="-0.74489">
        <ele>58</ele>
        <time>2021-03-25T01:06:35Z</time>
      </trkpt>
      <trkpt lat="47.70685" lon="-0.74493">
        <ele>58</ele>
        <time>2021-03-25T01:06:35Z</time>
      </trkpt>
      <trkpt lat="47.7068" lon="-0.74522">
        <ele>57</ele>
        <time>2021-03-25T01:06:39Z</time>
      </trkpt>
      <trkpt lat="47.70675" lon="-0.74566">
        <ele>56</ele>
        <time>2021-03-25T01:06:44Z</time>
      </trkpt>
      <trkpt lat="47.70671" lon="-0.74601">
        <ele>56</ele>
        <time>2021-03-25T01:06:48Z</time>
      </trkpt>
      <trkpt lat="47.7067" lon="-0.74613">
        <ele>56</ele>
        <time>2021-03-25T01:06:50Z</time>
      </trkpt>
      <trkpt lat="47.70668" lon="-0.74634">
        <ele>56</ele>
        <time>2021-03-25T01:06:52Z</time>
      </trkpt>
      <trkpt lat="47.70666" lon="-0.74667">
        <ele>56</ele>
        <time>2021-03-25T01:06:56Z</time>
      </trkpt>
      <trkpt lat="47.70665" lon="-0.74715">
        <ele>57</ele>
        <time>2021-03-25T01:07:02Z</time>
      </trkpt>
      <trkpt lat="47.70663" lon="-0.74781">
        <ele>58</ele>
        <time>2021-03-25T01:07:10Z</time>
      </trkpt>
      <trkpt lat="47.70663" lon="-0.74792">
        <ele>59</ele>
        <time>2021-03-25T01:07:11Z</time>
      </trkpt>
      <trkpt lat="47.70661" lon="-0.74855">
        <ele>58</ele>
        <time>2021-03-25T01:07:19Z</time>
      </trkpt>
      <trkpt lat="47.7066" lon="-0.74887">
        <ele>57</ele>
        <time>2021-03-25T01:07:23Z</time>
      </trkpt>
      <trkpt lat="47.70659" lon="-0.74891">
        <ele>57</ele>
        <time>2021-03-25T01:07:23Z</time>
      </trkpt>
      <trkpt lat="47.70657" lon="-0.74912">
        <ele>56</ele>
        <time>2021-03-25T01:07:26Z</time>
      </trkpt>
      <trkpt lat="47.70654" lon="-0.74936">
        <ele>56</ele>
        <time>2021-03-25T01:07:29Z</time>
      </trkpt>
      <trkpt lat="47.70646" lon="-0.74989">
        <ele>55</ele>
        <time>2021-03-25T01:07:35Z</time>
      </trkpt>
      <trkpt lat="47.7064" lon="-0.75026">
        <ele>55</ele>
        <time>2021-03-25T01:07:40Z</time>
      </trkpt>
      <trkpt lat="47.70639" lon="-0.75047">
        <ele>55</ele>
        <time>2021-03-25T01:07:42Z</time>
      </trkpt>
      <trkpt lat="47.70638" lon="-0.75063">
        <ele>55</ele>
        <time>2021-03-25T01:07:44Z</time>
      </trkpt>
      <trkpt lat="47.70638" lon="-0.75126">
        <ele>54</ele>
        <time>2021-03-25T01:07:52Z</time>
      </trkpt>
      <trkpt lat="47.70639" lon="-0.75197">
        <ele>53</ele>
        <time>2021-03-25T01:08:00Z</time>
      </trkpt>
      <trkpt lat="47.70638" lon="-0.7525">
        <ele>53</ele>
        <time>2021-03-25T01:08:07Z</time>
      </trkpt>
      <trkpt lat="47.70638" lon="-0.75254">
        <ele>53</ele>
        <time>2021-03-25T01:08:07Z</time>
      </trkpt>
      <trkpt lat="47.70638" lon="-0.75316">
        <ele>53</ele>
        <time>2021-03-25T01:08:14Z</time>
      </trkpt>
      <trkpt lat="47.70633" lon="-0.7542">
        <ele>52</ele>
        <time>2021-03-25T01:08:27Z</time>
      </trkpt>
      <trkpt lat="47.70627" lon="-0.7557">
        <ele>50</ele>
        <time>2021-03-25T01:08:45Z</time>
      </trkpt>
      <trkpt lat="47.70624" lon="-0.75653">
        <ele>49</ele>
        <time>2021-03-25T01:08:55Z</time>
      </trkpt>
      <trkpt lat="47.7062" lon="-0.75746">
        <ele>47</ele>
        <time>2021-03-25T01:09:06Z</time>
      </trkpt>
      <trkpt lat="47.7062" lon="-0.75749">
        <ele>47</ele>
        <time>2021-03-25T01:09:06Z</time>
      </trkpt>
      <trkpt lat="47.70618" lon="-0.75768">
        <ele>46</ele>
        <time>2021-03-25T01:09:09Z</time>
      </trkpt>
      <trkpt lat="47.70612" lon="-0.75809">
        <ele>45</ele>
        <time>2021-03-25T01:09:14Z</time>
      </trkpt>
      <trkpt lat="47.70602" lon="-0.75856">
        <ele>45</ele>
        <time>2021-03-25T01:09:20Z</time>
      </trkpt>
      <trkpt lat="47.70591" lon="-0.75908">
        <ele>44</ele>
        <time>2021-03-25T01:09:26Z</time>
      </trkpt>
      <trkpt lat="47.7058" lon="-0.75958">
        <ele>44</ele>
        <time>2021-03-25T01:09:32Z</time>
      </trkpt>
      <trkpt lat="47.70576" lon="-0.75973">
        <ele>44</ele>
        <time>2021-03-25T01:09:34Z</time>
      </trkpt>
      <trkpt lat="47.70573" lon="-0.75984">
        <ele>44</ele>
        <time>2021-03-25T01:09:36Z</time>
      </trkpt>
      <trkpt lat="47.70564" lon="-0.76022">
        <ele>44</ele>
        <time>2021-03-25T01:09:41Z</time>
      </trkpt>
      <trkpt lat="47.70517" lon="-0.76176">
        <ele>46</ele>
        <time>2021-03-25T01:10:01Z</time>
      </trkpt>
      <trkpt lat="47.7049" lon="-0.76267">
        <ele>46</ele>
        <time>2021-03-25T01:10:13Z</time>
      </trkpt>
      <trkpt lat="47.70453" lon="-0.76386">
        <ele>48</ele>
        <time>2021-03-25T01:10:28Z</time>
      </trkpt>
      <trkpt lat="47.70425" lon="-0.76476">
        <ele>49</ele>
        <time>2021-03-25T01:10:40Z</time>
      </trkpt>
      <trkpt lat="47.7041" lon="-0.76525">
        <ele>49</ele>
        <time>2021-03-25T01:10:47Z</time>
      </trkpt>
      <trkpt lat="47.70403" lon="-0.76555">
        <ele>49</ele>
        <time>2021-03-25T01:10:51Z</time>
      </trkpt>
      <trkpt lat="47.70403" lon="-0.76559">
        <ele>49</ele>
        <time>2021-03-25T01:10:51Z</time>
      </trkpt>
      <trkpt lat="47.70399" lon="-0.76586">
        <ele>48</ele>
        <time>2021-03-25T01:10:54Z</time>
      </trkpt>
      <trkpt lat="47.70399" lon="-0.76596">
        <ele>48</ele>
        <time>2021-03-25T01:10:56Z</time>
      </trkpt>
      <trkpt lat="47.70398" lon="-0.76643">
        <ele>48</ele>
        <time>2021-03-25T01:11:01Z</time>
      </trkpt>
      <trkpt lat="47.704" lon="-0.76724">
        <ele>49</ele>
        <time>2021-03-25T01:11:11Z</time>
      </trkpt>
      <trkpt lat="47.70403" lon="-0.76864">
        <ele>49</ele>
        <time>2021-03-25T01:11:28Z</time>
      </trkpt>
      <trkpt lat="47.70407" lon="-0.77029">
        <ele>47</ele>
        <time>2021-03-25T01:11:47Z</time>
      </trkpt>
      <trkpt lat="47.70411" lon="-0.77141">
        <ele>46</ele>
        <time>2021-03-25T01:12:01Z</time>
      </trkpt>
      <trkpt lat="47.70427" lon="-0.77356">
        <ele>44</ele>
        <time>2021-03-25T01:12:27Z</time>
      </trkpt>
      <trkpt lat="47.70435" lon="-0.77481">
        <ele>43</ele>
        <time>2021-03-25T01:12:42Z</time>
      </trkpt>
      <trkpt lat="47.70441" lon="-0.77574">
        <ele>44</ele>
        <time>2021-03-25T01:12:53Z</time>
      </trkpt>
      <trkpt lat="47.70447" lon="-0.77661">
        <ele>44</ele>
        <time>2021-03-25T01:13:03Z</time>
      </trkpt>
      <trkpt lat="47.70453" lon="-0.77769">
        <ele>44</ele>
        <time>2021-03-25T01:13:16Z</time>
      </trkpt>
      <trkpt lat="47.70456" lon="-0.77815">
        <ele>44</ele>
        <time>2021-03-25T01:13:22Z</time>
      </trkpt>
      <trkpt lat="47.70459" lon="-0.77859">
        <ele>43</ele>
        <time>2021-03-25T01:13:27Z</time>
      </trkpt>
      <trkpt lat="47.70463" lon="-0.77907">
        <ele>42</ele>
        <time>2021-03-25T01:13:33Z</time>
      </trkpt>
      <trkpt lat="47.70465" lon="-0.77922">
        <ele>42</ele>
        <time>2021-03-25T01:13:35Z</time>
      </trkpt>
      <trkpt lat="47.70466" lon="-0.77932">
        <ele>42</ele>
        <time>2021-03-25T01:13:36Z</time>
      </trkpt>
      <trkpt lat="47.70471" lon="-0.7797">
        <ele>41</ele>
        <time>2021-03-25T01:13:41Z</time>
      </trkpt>
      <trkpt lat="47.70481" lon="-0.78023">
        <ele>41</ele>
        <time>2021-03-25T01:13:47Z</time>
      </trkpt>
      <trkpt lat="47.70494" lon="-0.78079">
        <ele>41</ele>
        <time>2021-03-25T01:13:54Z</time>
      </trkpt>
      <trkpt lat="47.70503" lon="-0.7811">
        <ele>40</ele>
        <time>2021-03-25T01:13:58Z</time>
      </trkpt>
      <trkpt lat="47.70512" lon="-0.78133">
        <ele>40</ele>
        <time>2021-03-25T01:14:02Z</time>
      </trkpt>
      <trkpt lat="47.70535" lon="-0.78183">
        <ele>39</ele>
        <time>2021-03-25T01:14:09Z</time>
      </trkpt>
      <trkpt lat="47.70559" lon="-0.78233">
        <ele>39</ele>
        <time>2021-03-25T01:14:16Z</time>
      </trkpt>
      <trkpt lat="47.70571" lon="-0.78265">
        <ele>39</ele>
        <time>2021-03-25T01:14:21Z</time>
      </trkpt>
      <trkpt lat="47.7058" lon="-0.78296">
        <ele>39</ele>
        <time>2021-03-25T01:14:25Z</time>
      </trkpt>
      <trkpt lat="47.70595" lon="-0.78353">
        <ele>37</ele>
        <time>2021-03-25T01:14:32Z</time>
      </trkpt>
      <trkpt lat="47.70614" lon="-0.78431">
        <ele>34</ele>
        <time>2021-03-25T01:14:42Z</time>
      </trkpt>
      <trkpt lat="47.70631" lon="-0.78495">
        <ele>33</ele>
        <time>2021-03-25T01:14:50Z</time>
      </trkpt>
      <trkpt lat="47.70643" lon="-0.78541">
        <ele>32</ele>
        <time>2021-03-25T01:14:56Z</time>
      </trkpt>
      <trkpt lat="47.70644" lon="-0.78544">
        <ele>32</ele>
        <time>2021-03-25T01:14:57Z</time>
      </trkpt>
      <trkpt lat="47.70661" lon="-0.78596">
        <ele>31</ele>
        <time>2021-03-25T01:15:03Z</time>
      </trkpt>
      <trkpt lat="47.70703" lon="-0.78717">
        <ele>30</ele>
        <time>2021-03-25T01:15:20Z</time>
      </trkpt>
      <trkpt lat="47.70706" lon="-0.78725">
        <ele>30</ele>
        <time>2021-03-25T01:15:21Z</time>
      </trkpt>
      <trkpt lat="47.70709" lon="-0.78734">
        <ele>30</ele>
        <time>2021-03-25T01:15:22Z</time>
      </trkpt>
      <trkpt lat="47.7072" lon="-0.78766">
        <ele>31</ele>
        <time>2021-03-25T01:15:26Z</time>
      </trkpt>
      <trkpt lat="47.70733" lon="-0.788">
        <ele>31</ele>
        <time>2021-03-25T01:15:31Z</time>
      </trkpt>
      <trkpt lat="47.70738" lon="-0.78817">
        <ele>32</ele>
        <time>2021-03-25T01:15:33Z</time>
      </trkpt>
      <trkpt lat="47.70742" lon="-0.78831">
        <ele>32</ele>
        <time>2021-03-25T01:15:35Z</time>
      </trkpt>
      <trkpt lat="47.70745" lon="-0.78845">
        <ele>32</ele>
        <time>2021-03-25T01:15:37Z</time>
      </trkpt>
      <trkpt lat="47.70748" lon="-0.78858">
        <ele>33</ele>
        <time>2021-03-25T01:15:38Z</time>
      </trkpt>
      <trkpt lat="47.70749" lon="-0.78868">
        <ele>33</ele>
        <time>2021-03-25T01:15:40Z</time>
      </trkpt>
      <trkpt lat="47.70751" lon="-0.78879">
        <ele>33</ele>
        <time>2021-03-25T01:15:41Z</time>
      </trkpt>
      <trkpt lat="47.70752" lon="-0.78912">
        <ele>34</ele>
        <time>2021-03-25T01:15:45Z</time>
      </trkpt>
      <trkpt lat="47.70753" lon="-0.78942">
        <ele>34</ele>
        <time>2021-03-25T01:15:49Z</time>
      </trkpt>
      <trkpt lat="47.70752" lon="-0.78983">
        <ele>35</ele>
        <time>2021-03-25T01:15:53Z</time>
      </trkpt>
      <trkpt lat="47.70752" lon="-0.79023">
        <ele>35</ele>
        <time>2021-03-25T01:15:58Z</time>
      </trkpt>
      <trkpt lat="47.70751" lon="-0.79062">
        <ele>34</ele>
        <time>2021-03-25T01:16:03Z</time>
      </trkpt>
      <trkpt lat="47.70748" lon="-0.79103">
        <ele>34</ele>
        <time>2021-03-25T01:16:08Z</time>
      </trkpt>
      <trkpt lat="47.70745" lon="-0.79132">
        <ele>34</ele>
        <time>2021-03-25T01:16:11Z</time>
      </trkpt>
      <trkpt lat="47.70739" lon="-0.79168">
        <ele>34</ele>
        <time>2021-03-25T01:16:16Z</time>
      </trkpt>
      <trkpt lat="47.70734" lon="-0.792">
        <ele>34</ele>
        <time>2021-03-25T01:16:20Z</time>
      </trkpt>
      <trkpt lat="47.70725" lon="-0.79242">
        <ele>35</ele>
        <time>2021-03-25T01:16:25Z</time>
      </trkpt>
      <trkpt lat="47.70718" lon="-0.79275">
        <ele>35</ele>
        <time>2021-03-25T01:16:29Z</time>
      </trkpt>
      <trkpt lat="47.70717" lon="-0.7928">
        <ele>35</ele>
        <time>2021-03-25T01:16:30Z</time>
      </trkpt>
      <trkpt lat="47.70706" lon="-0.79331">
        <ele>35</ele>
        <time>2021-03-25T01:16:36Z</time>
      </trkpt>
      <trkpt lat="47.70694" lon="-0.79377">
        <ele>35</ele>
        <time>2021-03-25T01:16:42Z</time>
      </trkpt>
      <trkpt lat="47.7069" lon="-0.79388">
        <ele>35</ele>
        <time>2021-03-25T01:16:44Z</time>
      </trkpt>
      <trkpt lat="47.70677" lon="-0.79433">
        <ele>34</ele>
        <time>2021-03-25T01:16:50Z</time>
      </trkpt>
      <trkpt lat="47.70673" lon="-0.79441">
        <ele>34</ele>
        <time>2021-03-25T01:16:51Z</time>
      </trkpt>
      <trkpt lat="47.7067" lon="-0.79448">
        <ele>34</ele>
        <time>2021-03-25T01:16:52Z</time>
      </trkpt>
      <trkpt lat="47.70662" lon="-0.79465">
        <ele>34</ele>
        <time>2021-03-25T01:16:54Z</time>
      </trkpt>
      <trkpt lat="47.70651" lon="-0.79485">
        <ele>33</ele>
        <time>2021-03-25T01:16:57Z</time>
      </trkpt>
      <trkpt lat="47.70638" lon="-0.79508">
        <ele>33</ele>
        <time>2021-03-25T01:17:01Z</time>
      </trkpt>
      <trkpt lat="47.70636" lon="-0.79511">
        <ele>33</ele>
        <time>2021-03-25T01:17:01Z</time>
      </trkpt>
      <trkpt lat="47.70632" lon="-0.79519">
        <ele>32</ele>
        <time>2021-03-25T01:17:03Z</time>
      </trkpt>
      <trkpt lat="47.70629" lon="-0.79529">
        <ele>32</ele>
        <time>2021-03-25T01:17:04Z</time>
      </trkpt>
      <trkpt lat="47.70627" lon="-0.79536">
        <ele>32</ele>
        <time>2021-03-25T01:17:05Z</time>
      </trkpt>
      <trkpt lat="47.70626" lon="-0.79543">
        <ele>32</ele>
        <time>2021-03-25T01:17:06Z</time>
      </trkpt>
      <trkpt lat="47.70624" lon="-0.7955">
        <ele>32</ele>
        <time>2021-03-25T01:17:07Z</time>
      </trkpt>
      <trkpt lat="47.70624" lon="-0.79557">
        <ele>31</ele>
        <time>2021-03-25T01:17:07Z</time>
      </trkpt>
      <trkpt lat="47.70623" lon="-0.79572">
        <ele>31</ele>
        <time>2021-03-25T01:17:09Z</time>
      </trkpt>
      <trkpt lat="47.70626" lon="-0.7959">
        <ele>31</ele>
        <time>2021-03-25T01:17:11Z</time>
      </trkpt>
      <trkpt lat="47.70626" lon="-0.79597">
        <ele>31</ele>
        <time>2021-03-25T01:17:12Z</time>
      </trkpt>
      <trkpt lat="47.70626" lon="-0.796">
        <ele>31</ele>
        <time>2021-03-25T01:17:13Z</time>
      </trkpt>
      <trkpt lat="47.70626" lon="-0.79604">
        <ele>31</ele>
        <time>2021-03-25T01:17:13Z</time>
      </trkpt>
      <trkpt lat="47.70623" lon="-0.79621">
        <ele>31</ele>
        <time>2021-03-25T01:17:15Z</time>
      </trkpt>
      <trkpt lat="47.70619" lon="-0.79639">
        <ele>31</ele>
        <time>2021-03-25T01:17:17Z</time>
      </trkpt>
      <trkpt lat="47.70617" lon="-0.79647">
        <ele>30</ele>
        <time>2021-03-25T01:17:18Z</time>
      </trkpt>
      <trkpt lat="47.70614" lon="-0.79663">
        <ele>30</ele>
        <time>2021-03-25T01:17:20Z</time>
      </trkpt>
      <trkpt lat="47.70614" lon="-0.79663">
        <ele>30</ele>
        <time>2021-03-25T01:17:20Z</time>
      </trkpt>
      <trkpt lat="47.70635" lon="-0.79679">
        <ele>31</ele>
        <time>2021-03-25T01:17:25Z</time>
      </trkpt>
      <trkpt lat="47.70644" lon="-0.79684">
        <ele>31</ele>
        <time>2021-03-25T01:17:26Z</time>
      </trkpt>
      <trkpt lat="47.7065" lon="-0.79689">
        <ele>31</ele>
        <time>2021-03-25T01:17:28Z</time>
      </trkpt>
      <trkpt lat="47.70655" lon="-0.79694">
        <ele>31</ele>
        <time>2021-03-25T01:17:29Z</time>
      </trkpt>
      <trkpt lat="47.70658" lon="-0.79699">
        <ele>31</ele>
        <time>2021-03-25T01:17:29Z</time>
      </trkpt>
      <trkpt lat="47.70662" lon="-0.79704">
        <ele>31</ele>
        <time>2021-03-25T01:17:30Z</time>
      </trkpt>
      <trkpt lat="47.70665" lon="-0.7971">
        <ele>31</ele>
        <time>2021-03-25T01:17:31Z</time>
      </trkpt>
      <trkpt lat="47.70669" lon="-0.79719">
        <ele>32</ele>
        <time>2021-03-25T01:17:33Z</time>
      </trkpt>
      <trkpt lat="47.70672" lon="-0.79729">
        <ele>32</ele>
        <time>2021-03-25T01:17:34Z</time>
      </trkpt>
      <trkpt lat="47.70677" lon="-0.79744">
        <ele>32</ele>
        <time>2021-03-25T01:17:36Z</time>
      </trkpt>
      <trkpt lat="47.7068" lon="-0.79753">
        <ele>32</ele>
        <time>2021-03-25T01:17:37Z</time>
      </trkpt>
      <trkpt lat="47.70683" lon="-0.79765">
        <ele>32</ele>
        <time>2021-03-25T01:17:39Z</time>
      </trkpt>
      <trkpt lat="47.7069" lon="-0.79787">
        <ele>32</ele>
        <time>2021-03-25T01:17:42Z</time>
      </trkpt>
      <trkpt lat="47.70692" lon="-0.79794">
        <ele>32</ele>
        <time>2021-03-25T01:17:42Z</time>
      </trkpt>
      <trkpt lat="47.70694" lon="-0.79799">
        <ele>32</ele>
        <time>2021-03-25T01:17:43Z</time>
      </trkpt>
      <trkpt lat="47.70697" lon="-0.79804">
        <ele>32</ele>
        <time>2021-03-25T01:17:44Z</time>
      </trkpt>
      <trkpt lat="47.70699" lon="-0.79808">
        <ele>33</ele>
        <time>2021-03-25T01:17:45Z</time>
      </trkpt>
      <trkpt lat="47.70702" lon="-0.79812">
        <ele>33</ele>
        <time>2021-03-25T01:17:45Z</time>
      </trkpt>
      <trkpt lat="47.70706" lon="-0.79816">
        <ele>33</ele>
        <time>2021-03-25T01:17:46Z</time>
      </trkpt>
      <trkpt lat="47.70709" lon="-0.79819">
        <ele>33</ele>
        <time>2021-03-25T01:17:47Z</time>
      </trkpt>
      <trkpt lat="47.70711" lon="-0.7982">
        <ele>33</ele>
        <time>2021-03-25T01:17:47Z</time>
      </trkpt>
      <trkpt lat="47.70715" lon="-0.79823">
        <ele>33</ele>
        <time>2021-03-25T01:17:48Z</time>
      </trkpt>
      <trkpt lat="47.70723" lon="-0.79827">
        <ele>33</ele>
        <time>2021-03-25T01:17:49Z</time>
      </trkpt>
      <trkpt lat="47.70731" lon="-0.79829">
        <ele>33</ele>
        <time>2021-03-25T01:17:51Z</time>
      </trkpt>
      <trkpt lat="47.70738" lon="-0.79829">
        <ele>33</ele>
        <time>2021-03-25T01:17:52Z</time>
      </trkpt>
      <trkpt lat="47.70773" lon="-0.79826">
        <ele>34</ele>
        <time>2021-03-25T01:17:58Z</time>
      </trkpt>
      <trkpt lat="47.70801" lon="-0.79822">
        <ele>35</ele>
        <time>2021-03-25T01:18:03Z</time>
      </trkpt>
      <trkpt lat="47.70817" lon="-0.79817">
        <ele>35</ele>
        <time>2021-03-25T01:18:06Z</time>
      </trkpt>
      <trkpt lat="47.70821" lon="-0.79816">
        <ele>35</ele>
        <time>2021-03-25T01:18:07Z</time>
      </trkpt>
      <trkpt lat="47.70828" lon="-0.79816">
        <ele>36</ele>
        <time>2021-03-25T01:18:08Z</time>
      </trkpt>
      <trkpt lat="47.70837" lon="-0.79816">
        <ele>36</ele>
        <time>2021-03-25T01:18:10Z</time>
      </trkpt>
      <trkpt lat="47.70844" lon="-0.79817">
        <ele>36</ele>
        <time>2021-03-25T01:18:11Z</time>
      </trkpt>
      <trkpt lat="47.70855" lon="-0.7982">
        <ele>36</ele>
        <time>2021-03-25T01:18:13Z</time>
      </trkpt>
      <trkpt lat="47.70871" lon="-0.79827">
        <ele>37</ele>
        <time>2021-03-25T01:18:16Z</time>
      </trkpt>
      <trkpt lat="47.70925" lon="-0.79863">
        <ele>38</ele>
        <time>2021-03-25T01:18:27Z</time>
      </trkpt>
      <trkpt lat="47.7101" lon="-0.79916">
        <ele>40</ele>
        <time>2021-03-25T01:18:43Z</time>
      </trkpt>
      <trkpt lat="47.71024" lon="-0.79923">
        <ele>40</ele>
        <time>2021-03-25T01:18:46Z</time>
      </trkpt>
      <trkpt lat="47.71039" lon="-0.79929">
        <ele>41</ele>
        <time>2021-03-25T01:18:48Z</time>
      </trkpt>
      <trkpt lat="47.71075" lon="-0.79941">
        <ele>42</ele>
        <time>2021-03-25T01:18:55Z</time>
      </trkpt>
      <trkpt lat="47.71139" lon="-0.79959">
        <ele>44</ele>
        <time>2021-03-25T01:19:07Z</time>
      </trkpt>
      <trkpt lat="47.71197" lon="-0.79975">
        <ele>46</ele>
        <time>2021-03-25T01:19:17Z</time>
      </trkpt>
      <trkpt lat="47.71219" lon="-0.7998">
        <ele>47</ele>
        <time>2021-03-25T01:19:21Z</time>
      </trkpt>
      <trkpt lat="47.71231" lon="-0.7998">
        <ele>47</ele>
        <time>2021-03-25T01:19:23Z</time>
      </trkpt>
      <trkpt lat="47.71241" lon="-0.79979">
        <ele>48</ele>
        <time>2021-03-25T01:19:25Z</time>
      </trkpt>
      <trkpt lat="47.71246" lon="-0.79977">
        <ele>48</ele>
        <time>2021-03-25T01:19:26Z</time>
      </trkpt>
      <trkpt lat="47.71275" lon="-0.79964">
        <ele>48</ele>
        <time>2021-03-25T01:19:31Z</time>
      </trkpt>
      <trkpt lat="47.71303" lon="-0.79949">
        <ele>49</ele>
        <time>2021-03-25T01:19:37Z</time>
      </trkpt>
      <trkpt lat="47.71335" lon="-0.79933">
        <ele>50</ele>
        <time>2021-03-25T01:19:43Z</time>
      </trkpt>
      <trkpt lat="47.7137" lon="-0.79917">
        <ele>51</ele>
        <time>2021-03-25T01:19:49Z</time>
      </trkpt>
      <trkpt lat="47.71386" lon="-0.79912">
        <ele>51</ele>
        <time>2021-03-25T01:19:52Z</time>
      </trkpt>
      <trkpt lat="47.71393" lon="-0.79909">
        <ele>51</ele>
        <time>2021-03-25T01:19:53Z</time>
      </trkpt>
      <trkpt lat="47.71399" lon="-0.79907">
        <ele>52</ele>
        <time>2021-03-25T01:19:54Z</time>
      </trkpt>
      <trkpt lat="47.71406" lon="-0.79905">
        <ele>52</ele>
        <time>2021-03-25T01:19:56Z</time>
      </trkpt>
      <trkpt lat="47.7144" lon="-0.79887">
        <ele>52</ele>
        <time>2021-03-25T01:20:02Z</time>
      </trkpt>
      <trkpt lat="47.71474" lon="-0.7987">
        <ele>52</ele>
        <time>2021-03-25T01:20:08Z</time>
      </trkpt>
      <trkpt lat="47.71495" lon="-0.79864">
        <ele>52</ele>
        <time>2021-03-25T01:20:12Z</time>
      </trkpt>
      <trkpt lat="47.71512" lon="-0.79862">
        <ele>53</ele>
        <time>2021-03-25T01:20:15Z</time>
      </trkpt>
      <trkpt lat="47.71525" lon="-0.79863">
        <ele>53</ele>
        <time>2021-03-25T01:20:18Z</time>
      </trkpt>
      <trkpt lat="47.71541" lon="-0.79864">
        <ele>53</ele>
        <time>2021-03-25T01:20:20Z</time>
      </trkpt>
      <trkpt lat="47.7156" lon="-0.79869">
        <ele>53</ele>
        <time>2021-03-25T01:20:24Z</time>
      </trkpt>
      <trkpt lat="47.71587" lon="-0.79881">
        <ele>54</ele>
        <time>2021-03-25T01:20:29Z</time>
      </trkpt>
      <trkpt lat="47.71611" lon="-0.79896">
        <ele>54</ele>
        <time>2021-03-25T01:20:34Z</time>
      </trkpt>
      <trkpt lat="47.71626" lon="-0.79908">
        <ele>54</ele>
        <time>2021-03-25T01:20:37Z</time>
      </trkpt>
      <trkpt lat="47.71633" lon="-0.79915">
        <ele>53</ele>
        <time>2021-03-25T01:20:38Z</time>
      </trkpt>
      <trkpt lat="47.7166" lon="-0.79945">
        <ele>52</ele>
        <time>2021-03-25T01:20:44Z</time>
      </trkpt>
      <trkpt lat="47.71686" lon="-0.79974">
        <ele>52</ele>
        <time>2021-03-25T01:20:50Z</time>
      </trkpt>
      <trkpt lat="47.71694" lon="-0.79986">
        <ele>52</ele>
        <time>2021-03-25T01:20:52Z</time>
      </trkpt>
      <trkpt lat="47.717" lon="-0.79995">
        <ele>52</ele>
        <time>2021-03-25T01:20:53Z</time>
      </trkpt>
      <trkpt lat="47.71706" lon="-0.80005">
        <ele>52</ele>
        <time>2021-03-25T01:20:55Z</time>
      </trkpt>
      <trkpt lat="47.71718" lon="-0.80026">
        <ele>52</ele>
        <time>2021-03-25T01:20:58Z</time>
      </trkpt>
      <trkpt lat="47.71723" lon="-0.80037">
        <ele>51</ele>
        <time>2021-03-25T01:21:00Z</time>
      </trkpt>
      <trkpt lat="47.71727" lon="-0.80043">
        <ele>51</ele>
        <time>2021-03-25T01:21:01Z</time>
      </trkpt>
      <trkpt lat="47.71742" lon="-0.80062">
        <ele>51</ele>
        <time>2021-03-25T01:21:04Z</time>
      </trkpt>
      <trkpt lat="47.71761" lon="-0.80082">
        <ele>52</ele>
        <time>2021-03-25T01:21:09Z</time>
      </trkpt>
      <trkpt lat="47.7178" lon="-0.801">
        <ele>52</ele>
        <time>2021-03-25T01:21:13Z</time>
      </trkpt>
      <trkpt lat="47.7179" lon="-0.80115">
        <ele>53</ele>
        <time>2021-03-25T01:21:15Z</time>
      </trkpt>
      <trkpt lat="47.71803" lon="-0.80139">
        <ele>53</ele>
        <time>2021-03-25T01:21:19Z</time>
      </trkpt>
      <trkpt lat="47.71812" lon="-0.80157">
        <ele>53</ele>
        <time>2021-03-25T01:21:21Z</time>
      </trkpt>
      <trkpt lat="47.71822" lon="-0.80179">
        <ele>53</ele>
        <time>2021-03-25T01:21:25Z</time>
      </trkpt>
      <trkpt lat="47.71833" lon="-0.80204">
        <ele>53</ele>
        <time>2021-03-25T01:21:28Z</time>
      </trkpt>
      <trkpt lat="47.71838" lon="-0.80218">
        <ele>53</ele>
        <time>2021-03-25T01:21:30Z</time>
      </trkpt>
      <trkpt lat="47.71846" lon="-0.80242">
        <ele>53</ele>
        <time>2021-03-25T01:21:33Z</time>
      </trkpt>
      <trkpt lat="47.71853" lon="-0.80258">
        <ele>53</ele>
        <time>2021-03-25T01:21:36Z</time>
      </trkpt>
      <trkpt lat="47.71857" lon="-0.80267">
        <ele>53</ele>
        <time>2021-03-25T01:21:37Z</time>
      </trkpt>
      <trkpt lat="47.71866" lon="-0.80283">
        <ele>54</ele>
        <time>2021-03-25T01:21:39Z</time>
      </trkpt>
      <trkpt lat="47.71881" lon="-0.80307">
        <ele>54</ele>
        <time>2021-03-25T01:21:43Z</time>
      </trkpt>
      <trkpt lat="47.71896" lon="-0.80329">
        <ele>55</ele>
        <time>2021-03-25T01:21:47Z</time>
      </trkpt>
      <trkpt lat="47.71903" lon="-0.80342">
        <ele>55</ele>
        <time>2021-03-25T01:21:49Z</time>
      </trkpt>
      <trkpt lat="47.7193" lon="-0.80396">
        <ele>57</ele>
        <time>2021-03-25T01:21:57Z</time>
      </trkpt>
      <trkpt lat="47.7193" lon="-0.80396">
        <ele>57</ele>
        <time>2021-03-25T01:21:57Z</time>
      </trkpt>
      <trkpt lat="47.71925" lon="-0.8041">
        <ele>56</ele>
        <time>2021-03-25T01:21:59Z</time>
      </trkpt>
      <trkpt lat="47.71923" lon="-0.80415">
        <ele>56</ele>
        <time>2021-03-25T01:22:00Z</time>
      </trkpt>
      <trkpt lat="47.71922" lon="-0.8042">
        <ele>56</ele>
        <time>2021-03-25T01:22:00Z</time>
      </trkpt>
      <trkpt lat="47.71921" lon="-0.80425">
        <ele>55</ele>
        <time>2021-03-25T01:22:01Z</time>
      </trkpt>
      <trkpt lat="47.7192" lon="-0.8043">
        <ele>55</ele>
        <time>2021-03-25T01:22:02Z</time>
      </trkpt>
      <trkpt lat="47.71919" lon="-0.80437">
        <ele>55</ele>
        <time>2021-03-25T01:22:02Z</time>
      </trkpt>
      <trkpt lat="47.71918" lon="-0.80444">
        <ele>55</ele>
        <time>2021-03-25T01:22:03Z</time>
      </trkpt>
      <trkpt lat="47.71917" lon="-0.80453">
        <ele>54</ele>
        <time>2021-03-25T01:22:04Z</time>
      </trkpt>
      <trkpt lat="47.71917" lon="-0.80453">
        <ele>54</ele>
        <time>2021-03-25T01:22:04Z</time>
      </trkpt>
      <trkpt lat="47.71921" lon="-0.80459">
        <ele>55</ele>
        <time>2021-03-25T01:22:05Z</time>
      </trkpt>
      <trkpt lat="47.71922" lon="-0.80461">
        <ele>55</ele>
        <time>2021-03-25T01:22:06Z</time>
      </trkpt>
      <trkpt lat="47.71923" lon="-0.80463">
        <ele>55</ele>
        <time>2021-03-25T01:22:06Z</time>
      </trkpt>
      <trkpt lat="47.71924" lon="-0.80466">
        <ele>55</ele>
        <time>2021-03-25T01:22:06Z</time>
      </trkpt>
      <trkpt lat="47.7193" lon="-0.80492">
        <ele>55</ele>
        <time>2021-03-25T01:22:10Z</time>
      </trkpt>
      <trkpt lat="47.71936" lon="-0.80513">
        <ele>55</ele>
        <time>2021-03-25T01:22:12Z</time>
      </trkpt>
      <trkpt lat="47.71938" lon="-0.80517">
        <ele>55</ele>
        <time>2021-03-25T01:22:13Z</time>
      </trkpt>
      <trkpt lat="47.71939" lon="-0.80519">
        <ele>55</ele>
        <time>2021-03-25T01:22:13Z</time>
      </trkpt>
      <trkpt lat="47.71942" lon="-0.80522">
        <ele>56</ele>
        <time>2021-03-25T01:22:14Z</time>
      </trkpt>
      <trkpt lat="47.71944" lon="-0.80523">
        <ele>56</ele>
        <time>2021-03-25T01:22:14Z</time>
      </trkpt>
      <trkpt lat="47.71945" lon="-0.80525">
        <ele>56</ele>
        <time>2021-03-25T01:22:15Z</time>
      </trkpt>
      <trkpt lat="47.71966" lon="-0.80538">
        <ele>57</ele>
        <time>2021-03-25T01:22:19Z</time>
      </trkpt>
      <trkpt lat="47.71967" lon="-0.80539">
        <ele>57</ele>
        <time>2021-03-25T01:22:19Z</time>
      </trkpt>
      <trkpt lat="47.71969" lon="-0.80539">
        <ele>58</ele>
        <time>2021-03-25T01:22:19Z</time>
      </trkpt>
      <trkpt lat="47.71969" lon="-0.8054">
        <ele>57</ele>
        <time>2021-03-25T01:22:19Z</time>
      </trkpt>
      <trkpt lat="47.7197" lon="-0.80539">
        <ele>58</ele>
        <time>2021-03-25T01:22:20Z</time>
      </trkpt>
      <trkpt lat="47.71971" lon="-0.80539">
        <ele>58</ele>
        <time>2021-03-25T01:22:20Z</time>
      </trkpt>
      <trkpt lat="47.71971" lon="-0.80538">
        <ele>58</ele>
        <time>2021-03-25T01:22:20Z</time>
      </trkpt>
      <trkpt lat="47.71972" lon="-0.80537">
        <ele>58</ele>
        <time>2021-03-25T01:22:20Z</time>
      </trkpt>
      <trkpt lat="47.71972" lon="-0.80535">
        <ele>58</ele>
        <time>2021-03-25T01:22:20Z</time>
      </trkpt>
      <trkpt lat="47.71972" lon="-0.80533">
        <ele>58</ele>
        <time>2021-03-25T01:22:21Z</time>
      </trkpt>
      <trkpt lat="47.71972" lon="-0.80532">
        <ele>58</ele>
        <time>2021-03-25T01:22:21Z</time>
      </trkpt>
      <trkpt lat="47.71972" lon="-0.8053">
        <ele>58</ele>
        <time>2021-03-25T01:22:21Z</time>
      </trkpt>
      <trkpt lat="47.71971" lon="-0.80527">
        <ele>58</ele>
        <time>2021-03-25T01:22:21Z</time>
      </trkpt>
      <trkpt lat="47.71969" lon="-0.80523">
        <ele>58</ele>
        <time>2021-03-25T01:22:22Z</time>
      </trkpt>
      <trkpt lat="47.71967" lon="-0.80518">
        <ele>58</ele>
        <time>2021-03-25T01:22:23Z</time>
      </trkpt>
      <trkpt lat="47.71951" lon="-0.80486">
        <ele>58</ele>
        <time>2021-03-25T01:22:27Z</time>
      </trkpt>
      <trkpt lat="47.7195" lon="-0.80484">
        <ele>58</ele>
        <time>2021-03-25T01:22:28Z</time>
      </trkpt>
      <trkpt lat="47.7195" lon="-0.80483">
        <ele>58</ele>
        <time>2021-03-25T01:22:28Z</time>
      </trkpt>
      <trkpt lat="47.7195" lon="-0.80481">
        <ele>58</ele>
        <time>2021-03-25T01:22:28Z</time>
      </trkpt>
      <trkpt lat="47.7195" lon="-0.8048">
        <ele>58</ele>
        <time>2021-03-25T01:22:28Z</time>
      </trkpt>
      <trkpt lat="47.71951" lon="-0.80479">
        <ele>58</ele>
        <time>2021-03-25T01:22:28Z</time>
      </trkpt>
      <trkpt lat="47.71951" lon="-0.80478">
        <ele>58</ele>
        <time>2021-03-25T01:22:28Z</time>
      </trkpt>
      <trkpt lat="47.71956" lon="-0.80474">
        <ele>59</ele>
        <time>2021-03-25T01:22:29Z</time>
      </trkpt>
      <trkpt lat="47.71956" lon="-0.80474">
        <ele>59</ele>
        <time>2021-03-25T01:22:29Z</time>
      </trkpt>
      <trkpt lat="47.71951" lon="-0.80478">
        <ele>58</ele>
        <time>2021-03-25T01:22:31Z</time>
      </trkpt>
      <trkpt lat="47.71951" lon="-0.80479">
        <ele>58</ele>
        <time>2021-03-25T01:22:31Z</time>
      </trkpt>
      <trkpt lat="47.7195" lon="-0.8048">
        <ele>58</ele>
        <time>2021-03-25T01:22:31Z</time>
      </trkpt>
      <trkpt lat="47.7195" lon="-0.80481">
        <ele>58</ele>
        <time>2021-03-25T01:22:31Z</time>
      </trkpt>
      <trkpt lat="47.7195" lon="-0.80483">
        <ele>58</ele>
        <time>2021-03-25T01:22:31Z</time>
      </trkpt>
      <trkpt lat="47.7195" lon="-0.80484">
        <ele>58</ele>
        <time>2021-03-25T01:22:31Z</time>
      </trkpt>
      <trkpt lat="47.71951" lon="-0.80486">
        <ele>58</ele>
        <time>2021-03-25T01:22:32Z</time>
      </trkpt>
      <trkpt lat="47.71967" lon="-0.80518">
        <ele>58</ele>
        <time>2021-03-25T01:22:36Z</time>
      </trkpt>
      <trkpt lat="47.71969" lon="-0.80523">
        <ele>58</ele>
        <time>2021-03-25T01:22:37Z</time>
      </trkpt>
      <trkpt lat="47.71971" lon="-0.80527">
        <ele>58</ele>
        <time>2021-03-25T01:22:38Z</time>
      </trkpt>
      <trkpt lat="47.71972" lon="-0.8053">
        <ele>58</ele>
        <time>2021-03-25T01:22:38Z</time>
      </trkpt>
      <trkpt lat="47.71972" lon="-0.80532">
        <ele>58</ele>
        <time>2021-03-25T01:22:38Z</time>
      </trkpt>
      <trkpt lat="47.71972" lon="-0.80533">
        <ele>58</ele>
        <time>2021-03-25T01:22:38Z</time>
      </trkpt>
      <trkpt lat="47.71972" lon="-0.80535">
        <ele>58</ele>
        <time>2021-03-25T01:22:39Z</time>
      </trkpt>
      <trkpt lat="47.71972" lon="-0.80537">
        <ele>58</ele>
        <time>2021-03-25T01:22:39Z</time>
      </trkpt>
      <trkpt lat="47.71971" lon="-0.80538">
        <ele>58</ele>
        <time>2021-03-25T01:22:39Z</time>
      </trkpt>
      <trkpt lat="47.71971" lon="-0.80539">
        <ele>58</ele>
        <time>2021-03-25T01:22:39Z</time>
      </trkpt>
      <trkpt lat="47.7197" lon="-0.80539">
        <ele>58</ele>
        <time>2021-03-25T01:22:39Z</time>
      </trkpt>
      <trkpt lat="47.71969" lon="-0.8054">
        <ele>57</ele>
        <time>2021-03-25T01:22:40Z</time>
      </trkpt>
      <trkpt lat="47.71969" lon="-0.80539">
        <ele>58</ele>
        <time>2021-03-25T01:22:40Z</time>
      </trkpt>
      <trkpt lat="47.71967" lon="-0.80539">
        <ele>57</ele>
        <time>2021-03-25T01:22:40Z</time>
      </trkpt>
      <trkpt lat="47.71966" lon="-0.80538">
        <ele>57</ele>
        <time>2021-03-25T01:22:40Z</time>
      </trkpt>
      <trkpt lat="47.71945" lon="-0.80525">
        <ele>56</ele>
        <time>2021-03-25T01:22:44Z</time>
      </trkpt>
      <trkpt lat="47.71944" lon="-0.80523">
        <ele>56</ele>
        <time>2021-03-25T01:22:45Z</time>
      </trkpt>
      <trkpt lat="47.71942" lon="-0.80522">
        <ele>56</ele>
        <time>2021-03-25T01:22:45Z</time>
      </trkpt>
      <trkpt lat="47.71939" lon="-0.80519">
        <ele>55</ele>
        <time>2021-03-25T01:22:46Z</time>
      </trkpt>
      <trkpt lat="47.71938" lon="-0.80517">
        <ele>55</ele>
        <time>2021-03-25T01:22:46Z</time>
      </trkpt>
      <trkpt lat="47.71936" lon="-0.80513">
        <ele>55</ele>
        <time>2021-03-25T01:22:47Z</time>
      </trkpt>
      <trkpt lat="47.7193" lon="-0.80492">
        <ele>55</ele>
        <time>2021-03-25T01:22:49Z</time>
      </trkpt>
      <trkpt lat="47.71924" lon="-0.80466">
        <ele>55</ele>
        <time>2021-03-25T01:22:53Z</time>
      </trkpt>
      <trkpt lat="47.71923" lon="-0.80463">
        <ele>55</ele>
        <time>2021-03-25T01:22:53Z</time>
      </trkpt>
      <trkpt lat="47.71922" lon="-0.80461">
        <ele>55</ele>
        <time>2021-03-25T01:22:53Z</time>
      </trkpt>
      <trkpt lat="47.71921" lon="-0.80459">
        <ele>55</ele>
        <time>2021-03-25T01:22:54Z</time>
      </trkpt>
      <trkpt lat="47.71917" lon="-0.80453">
        <ele>54</ele>
        <time>2021-03-25T01:22:55Z</time>
      </trkpt>
      <trkpt lat="47.71917" lon="-0.80453">
        <ele>54</ele>
        <time>2021-03-25T01:22:55Z</time>
      </trkpt>
      <trkpt lat="47.71918" lon="-0.80444">
        <ele>55</ele>
        <time>2021-03-25T01:22:56Z</time>
      </trkpt>
      <trkpt lat="47.71919" lon="-0.80437">
        <ele>55</ele>
        <time>2021-03-25T01:22:57Z</time>
      </trkpt>
      <trkpt lat="47.7192" lon="-0.8043">
        <ele>55</ele>
        <time>2021-03-25T01:22:57Z</time>
      </trkpt>
      <trkpt lat="47.71921" lon="-0.80425">
        <ele>55</ele>
        <time>2021-03-25T01:22:58Z</time>
      </trkpt>
      <trkpt lat="47.71922" lon="-0.8042">
        <ele>56</ele>
        <time>2021-03-25T01:22:59Z</time>
      </trkpt>
      <trkpt lat="47.71923" lon="-0.80415">
        <ele>56</ele>
        <time>2021-03-25T01:22:59Z</time>
      </trkpt>
      <trkpt lat="47.71925" lon="-0.8041">
        <ele>56</ele>
        <time>2021-03-25T01:23:00Z</time>
      </trkpt>
      <trkpt lat="47.7193" lon="-0.80396">
        <ele>57</ele>
        <time>2021-03-25T01:23:02Z</time>
      </trkpt>
      <trkpt lat="47.7193" lon="-0.80396">
        <ele>57</ele>
        <time>2021-03-25T01:23:02Z</time>
      </trkpt>
      <trkpt lat="47.71932" lon="-0.80399">
        <ele>57</ele>
        <time>2021-03-25T01:23:02Z</time>
      </trkpt>
      <trkpt lat="47.71958" lon="-0.80455">
        <ele>60</ele>
        <time>2021-03-25T01:23:11Z</time>
      </trkpt>
      <trkpt lat="47.71961" lon="-0.80462">
        <ele>60</ele>
        <time>2021-03-25T01:23:12Z</time>
      </trkpt>
      <trkpt lat="47.71997" lon="-0.80532">
        <ele>60</ele>
        <time>2021-03-25T01:23:22Z</time>
      </trkpt>
      <trkpt lat="47.72012" lon="-0.80562">
        <ele>60</ele>
        <time>2021-03-25T01:23:27Z</time>
      </trkpt>
      <trkpt lat="47.72022" lon="-0.80585">
        <ele>59</ele>
        <time>2021-03-25T01:23:30Z</time>
      </trkpt>
      <trkpt lat="47.72025" lon="-0.80592">
        <ele>59</ele>
        <time>2021-03-25T01:23:31Z</time>
      </trkpt>
      <trkpt lat="47.72031" lon="-0.80608">
        <ele>60</ele>
        <time>2021-03-25T01:23:33Z</time>
      </trkpt>
      <trkpt lat="47.72037" lon="-0.8064">
        <ele>60</ele>
        <time>2021-03-25T01:23:37Z</time>
      </trkpt>
      <trkpt lat="47.72059" lon="-0.80762">
        <ele>64</ele>
        <time>2021-03-25T01:23:52Z</time>
      </trkpt>
      <trkpt lat="47.72065" lon="-0.80799">
        <ele>65</ele>
        <time>2021-03-25T01:23:57Z</time>
      </trkpt>
      <trkpt lat="47.72063" lon="-0.80857">
        <ele>65</ele>
        <time>2021-03-25T01:24:04Z</time>
      </trkpt>
      <trkpt lat="47.72063" lon="-0.80868">
        <ele>65</ele>
        <time>2021-03-25T01:24:05Z</time>
      </trkpt>
      <trkpt lat="47.72063" lon="-0.80899">
        <ele>65</ele>
        <time>2021-03-25T01:24:09Z</time>
      </trkpt>
      <trkpt lat="47.7206" lon="-0.80946">
        <ele>65</ele>
        <time>2021-03-25T01:24:14Z</time>
      </trkpt>
      <trkpt lat="47.72059" lon="-0.80958">
        <ele>65</ele>
        <time>2021-03-25T01:24:16Z</time>
      </trkpt>
      <trkpt lat="47.72059" lon="-0.80968">
        <ele>65</ele>
        <time>2021-03-25T01:24:17Z</time>
      </trkpt>
      <trkpt lat="47.72059" lon="-0.80977">
        <ele>65</ele>
        <time>2021-03-25T01:24:18Z</time>
      </trkpt>
      <trkpt lat="47.72059" lon="-0.80986">
        <ele>65</ele>
        <time>2021-03-25T01:24:19Z</time>
      </trkpt>
      <trkpt lat="47.7206" lon="-0.80999">
        <ele>66</ele>
        <time>2021-03-25T01:24:21Z</time>
      </trkpt>
      <trkpt lat="47.72079" lon="-0.81092">
        <ele>65</ele>
        <time>2021-03-25T01:24:32Z</time>
      </trkpt>
      <trkpt lat="47.72117" lon="-0.81284">
        <ele>67</ele>
        <time>2021-03-25T01:24:56Z</time>
      </trkpt>
      <trkpt lat="47.72146" lon="-0.81427">
        <ele>69</ele>
        <time>2021-03-25T01:25:14Z</time>
      </trkpt>
      <trkpt lat="47.72149" lon="-0.81442">
        <ele>69</ele>
        <time>2021-03-25T01:25:16Z</time>
      </trkpt>
      <trkpt lat="47.72152" lon="-0.81454">
        <ele>69</ele>
        <time>2021-03-25T01:25:18Z</time>
      </trkpt>
      <trkpt lat="47.72155" lon="-0.81464">
        <ele>69</ele>
        <time>2021-03-25T01:25:19Z</time>
      </trkpt>
      <trkpt lat="47.72163" lon="-0.8148">
        <ele>70</ele>
        <time>2021-03-25T01:25:21Z</time>
      </trkpt>
      <trkpt lat="47.72172" lon="-0.81497">
        <ele>70</ele>
        <time>2021-03-25T01:25:24Z</time>
      </trkpt>
      <trkpt lat="47.72174" lon="-0.81506">
        <ele>70</ele>
        <time>2021-03-25T01:25:25Z</time>
      </trkpt>
      <trkpt lat="47.72177" lon="-0.81514">
        <ele>70</ele>
        <time>2021-03-25T01:25:26Z</time>
      </trkpt>
      <trkpt lat="47.72178" lon="-0.81523">
        <ele>70</ele>
        <time>2021-03-25T01:25:27Z</time>
      </trkpt>
      <trkpt lat="47.72179" lon="-0.81531">
        <ele>70</ele>
        <time>2021-03-25T01:25:28Z</time>
      </trkpt>
      <trkpt lat="47.72179" lon="-0.81539">
        <ele>70</ele>
        <time>2021-03-25T01:25:29Z</time>
      </trkpt>
      <trkpt lat="47.7218" lon="-0.81547">
        <ele>70</ele>
        <time>2021-03-25T01:25:30Z</time>
      </trkpt>
      <trkpt lat="47.72181" lon="-0.81558">
        <ele>70</ele>
        <time>2021-03-25T01:25:31Z</time>
      </trkpt>
      <trkpt lat="47.72182" lon="-0.81567">
        <ele>70</ele>
        <time>2021-03-25T01:25:32Z</time>
      </trkpt>
      <trkpt lat="47.72183" lon="-0.81573">
        <ele>70</ele>
        <time>2021-03-25T01:25:33Z</time>
      </trkpt>
      <trkpt lat="47.72188" lon="-0.81589">
        <ele>70</ele>
        <time>2021-03-25T01:25:35Z</time>
      </trkpt>
      <trkpt lat="47.72206" lon="-0.81632">
        <ele>70</ele>
        <time>2021-03-25T01:25:41Z</time>
      </trkpt>
      <trkpt lat="47.72224" lon="-0.81677">
        <ele>71</ele>
        <time>2021-03-25T01:25:48Z</time>
      </trkpt>
      <trkpt lat="47.72234" lon="-0.817">
        <ele>71</ele>
        <time>2021-03-25T01:25:51Z</time>
      </trkpt>
      <trkpt lat="47.72251" lon="-0.81734">
        <ele>72</ele>
        <time>2021-03-25T01:25:56Z</time>
      </trkpt>
      <trkpt lat="47.72272" lon="-0.81767">
        <ele>73</ele>
        <time>2021-03-25T01:26:01Z</time>
      </trkpt>
      <trkpt lat="47.7228" lon="-0.81776">
        <ele>73</ele>
        <time>2021-03-25T01:26:03Z</time>
      </trkpt>
      <trkpt lat="47.72313" lon="-0.81821">
        <ele>75</ele>
        <time>2021-03-25T01:26:11Z</time>
      </trkpt>
      <trkpt lat="47.72377" lon="-0.81897">
        <ele>78</ele>
        <time>2021-03-25T01:26:26Z</time>
      </trkpt>
      <trkpt lat="47.72405" lon="-0.81932">
        <ele>79</ele>
        <time>2021-03-25T01:26:32Z</time>
      </trkpt>
      <trkpt lat="47.7242" lon="-0.81957">
        <ele>79</ele>
        <time>2021-03-25T01:26:36Z</time>
      </trkpt>
      <trkpt lat="47.72446" lon="-0.82011">
        <ele>80</ele>
        <time>2021-03-25T01:26:44Z</time>
      </trkpt>
      <trkpt lat="47.72458" lon="-0.82043">
        <ele>79</ele>
        <time>2021-03-25T01:26:49Z</time>
      </trkpt>
      <trkpt lat="47.72467" lon="-0.8207">
        <ele>79</ele>
        <time>2021-03-25T01:26:52Z</time>
      </trkpt>
      <trkpt lat="47.72478" lon="-0.821">
        <ele>79</ele>
        <time>2021-03-25T01:26:56Z</time>
      </trkpt>
      <trkpt lat="47.72484" lon="-0.82119">
        <ele>79</ele>
        <time>2021-03-25T01:26:59Z</time>
      </trkpt>
      <trkpt lat="47.72491" lon="-0.82143">
        <ele>80</ele>
        <time>2021-03-25T01:27:02Z</time>
      </trkpt>
      <trkpt lat="47.72498" lon="-0.82169">
        <ele>80</ele>
        <time>2021-03-25T01:27:05Z</time>
      </trkpt>
      <trkpt lat="47.72502" lon="-0.82193">
        <ele>80</ele>
        <time>2021-03-25T01:27:08Z</time>
      </trkpt>
      <trkpt lat="47.72524" lon="-0.82337">
        <ele>78</ele>
        <time>2021-03-25T01:27:26Z</time>
      </trkpt>
      <trkpt lat="47.72542" lon="-0.82395">
        <ele>79</ele>
        <time>2021-03-25T01:27:34Z</time>
      </trkpt>
      <trkpt lat="47.72552" lon="-0.82438">
        <ele>79</ele>
        <time>2021-03-25T01:27:39Z</time>
      </trkpt>
      <trkpt lat="47.72573" lon="-0.82542">
        <ele>79</ele>
        <time>2021-03-25T01:27:52Z</time>
      </trkpt>
      <trkpt lat="47.72589" lon="-0.82614">
        <ele>79</ele>
        <time>2021-03-25T01:28:01Z</time>
      </trkpt>
      <trkpt lat="47.72605" lon="-0.8267">
        <ele>80</ele>
        <time>2021-03-25T01:28:08Z</time>
      </trkpt>
      <trkpt lat="47.72614" lon="-0.82705">
        <ele>80</ele>
        <time>2021-03-25T01:28:13Z</time>
      </trkpt>
      <trkpt lat="47.72628" lon="-0.82766">
        <ele>79</ele>
        <time>2021-03-25T01:28:21Z</time>
      </trkpt>
      <trkpt lat="47.72635" lon="-0.82806">
        <ele>79</ele>
        <time>2021-03-25T01:28:26Z</time>
      </trkpt>
      <trkpt lat="47.72645" lon="-0.82915">
        <ele>79</ele>
        <time>2021-03-25T01:28:39Z</time>
      </trkpt>
      <trkpt lat="47.7265" lon="-0.82965">
        <ele>79</ele>
        <time>2021-03-25T01:28:45Z</time>
      </trkpt>
      <trkpt lat="47.7265" lon="-0.83003">
        <ele>79</ele>
        <time>2021-03-25T01:28:49Z</time>
      </trkpt>
      <trkpt lat="47.72642" lon="-0.83082">
        <ele>79</ele>
        <time>2021-03-25T01:28:59Z</time>
      </trkpt>
      <trkpt lat="47.72637" lon="-0.8314">
        <ele>80</ele>
        <time>2021-03-25T01:29:06Z</time>
      </trkpt>
      <trkpt lat="47.72635" lon="-0.83171">
        <ele>80</ele>
        <time>2021-03-25T01:29:10Z</time>
      </trkpt>
      <trkpt lat="47.72635" lon="-0.83174">
        <ele>80</ele>
        <time>2021-03-25T01:29:10Z</time>
      </trkpt>
      <trkpt lat="47.72636" lon="-0.83195">
        <ele>79</ele>
        <time>2021-03-25T01:29:12Z</time>
      </trkpt>
      <trkpt lat="47.72645" lon="-0.83266">
        <ele>79</ele>
        <time>2021-03-25T01:29:21Z</time>
      </trkpt>
      <trkpt lat="47.72648" lon="-0.83307">
        <ele>79</ele>
        <time>2021-03-25T01:29:26Z</time>
      </trkpt>
      <trkpt lat="47.72653" lon="-0.83359">
        <ele>79</ele>
        <time>2021-03-25T01:29:32Z</time>
      </trkpt>
      <trkpt lat="47.72662" lon="-0.83413">
        <ele>79</ele>
        <time>2021-03-25T01:29:39Z</time>
      </trkpt>
      <trkpt lat="47.72675" lon="-0.83465">
        <ele>80</ele>
        <time>2021-03-25T01:29:46Z</time>
      </trkpt>
      <trkpt lat="47.72693" lon="-0.83529">
        <ele>80</ele>
        <time>2021-03-25T01:29:54Z</time>
      </trkpt>
      <trkpt lat="47.7271" lon="-0.83597">
        <ele>80</ele>
        <time>2021-03-25T01:30:03Z</time>
      </trkpt>
      <trkpt lat="47.72726" lon="-0.83655">
        <ele>80</ele>
        <time>2021-03-25T01:30:10Z</time>
      </trkpt>
      <trkpt lat="47.7273" lon="-0.83667">
        <ele>80</ele>
        <time>2021-03-25T01:30:12Z</time>
      </trkpt>
      <trkpt lat="47.72738" lon="-0.83692">
        <ele>79</ele>
        <time>2021-03-25T01:30:15Z</time>
      </trkpt>
      <trkpt lat="47.72745" lon="-0.8372">
        <ele>79</ele>
        <time>2021-03-25T01:30:19Z</time>
      </trkpt>
      <trkpt lat="47.72754" lon="-0.83758">
        <ele>78</ele>
        <time>2021-03-25T01:30:23Z</time>
      </trkpt>
      <trkpt lat="47.72759" lon="-0.83783">
        <ele>77</ele>
        <time>2021-03-25T01:30:27Z</time>
      </trkpt>
      <trkpt lat="47.72762" lon="-0.83795">
        <ele>77</ele>
        <time>2021-03-25T01:30:28Z</time>
      </trkpt>
      <trkpt lat="47.72764" lon="-0.83807">
        <ele>77</ele>
        <time>2021-03-25T01:30:30Z</time>
      </trkpt>
      <trkpt lat="47.72766" lon="-0.83819">
        <ele>77</ele>
        <time>2021-03-25T01:30:31Z</time>
      </trkpt>
      <trkpt lat="47.72768" lon="-0.83831">
        <ele>77</ele>
        <time>2021-03-25T01:30:33Z</time>
      </trkpt>
      <trkpt lat="47.72769" lon="-0.83843">
        <ele>77</ele>
        <time>2021-03-25T01:30:34Z</time>
      </trkpt>
      <trkpt lat="47.72771" lon="-0.83865">
        <ele>77</ele>
        <time>2021-03-25T01:30:37Z</time>
      </trkpt>
      <trkpt lat="47.72772" lon="-0.83871">
        <ele>77</ele>
        <time>2021-03-25T01:30:37Z</time>
      </trkpt>
      <trkpt lat="47.72773" lon="-0.83876">
        <ele>77</ele>
        <time>2021-03-25T01:30:38Z</time>
      </trkpt>
      <trkpt lat="47.72774" lon="-0.83882">
        <ele>77</ele>
        <time>2021-03-25T01:30:39Z</time>
      </trkpt>
      <trkpt lat="47.72776" lon="-0.83887">
        <ele>77</ele>
        <time>2021-03-25T01:30:39Z</time>
      </trkpt>
      <trkpt lat="47.72777" lon="-0.83891">
        <ele>77</ele>
        <time>2021-03-25T01:30:40Z</time>
      </trkpt>
      <trkpt lat="47.72779" lon="-0.83896">
        <ele>77</ele>
        <time>2021-03-25T01:30:41Z</time>
      </trkpt>
      <trkpt lat="47.72782" lon="-0.839">
        <ele>77</ele>
        <time>2021-03-25T01:30:41Z</time>
      </trkpt>
      <trkpt lat="47.72784" lon="-0.83904">
        <ele>77</ele>
        <time>2021-03-25T01:30:42Z</time>
      </trkpt>
      <trkpt lat="47.72787" lon="-0.83907">
        <ele>77</ele>
        <time>2021-03-25T01:30:43Z</time>
      </trkpt>
      <trkpt lat="47.7279" lon="-0.83911">
        <ele>77</ele>
        <time>2021-03-25T01:30:43Z</time>
      </trkpt>
      <trkpt lat="47.72796" lon="-0.83915">
        <ele>77</ele>
        <time>2021-03-25T01:30:45Z</time>
      </trkpt>
      <trkpt lat="47.72804" lon="-0.83922">
        <ele>77</ele>
        <time>2021-03-25T01:30:46Z</time>
      </trkpt>
      <trkpt lat="47.72811" lon="-0.83926">
        <ele>76</ele>
        <time>2021-03-25T01:30:47Z</time>
      </trkpt>
      <trkpt lat="47.72894" lon="-0.83976">
        <ele>73</ele>
        <time>2021-03-25T01:31:03Z</time>
      </trkpt>
      <trkpt lat="47.72899" lon="-0.83984">
        <ele>73</ele>
        <time>2021-03-25T01:31:05Z</time>
      </trkpt>
      <trkpt lat="47.72911" lon="-0.84001">
        <ele>72</ele>
        <time>2021-03-25T01:31:08Z</time>
      </trkpt>
      <trkpt lat="47.72925" lon="-0.84023">
        <ele>72</ele>
        <time>2021-03-25T01:31:11Z</time>
      </trkpt>
      <trkpt lat="47.7293" lon="-0.8403">
        <ele>72</ele>
        <time>2021-03-25T01:31:13Z</time>
      </trkpt>
      <trkpt lat="47.72934" lon="-0.84036">
        <ele>72</ele>
        <time>2021-03-25T01:31:14Z</time>
      </trkpt>
      <trkpt lat="47.72942" lon="-0.84049">
        <ele>72</ele>
        <time>2021-03-25T01:31:16Z</time>
      </trkpt>
      <trkpt lat="47.72948" lon="-0.84061">
        <ele>72</ele>
        <time>2021-03-25T01:31:17Z</time>
      </trkpt>
      <trkpt lat="47.7295" lon="-0.84065">
        <ele>72</ele>
        <time>2021-03-25T01:31:18Z</time>
      </trkpt>
      <trkpt lat="47.72952" lon="-0.8407">
        <ele>72</ele>
        <time>2021-03-25T01:31:19Z</time>
      </trkpt>
      <trkpt lat="47.72957" lon="-0.84086">
        <ele>72</ele>
        <time>2021-03-25T01:31:21Z</time>
      </trkpt>
      <trkpt lat="47.72959" lon="-0.84094">
        <ele>71</ele>
        <time>2021-03-25T01:31:22Z</time>
      </trkpt>
      <trkpt lat="47.72961" lon="-0.84104">
        <ele>71</ele>
        <time>2021-03-25T01:31:23Z</time>
      </trkpt>
      <trkpt lat="47.72963" lon="-0.84117">
        <ele>71</ele>
        <time>2021-03-25T01:31:25Z</time>
      </trkpt>
      <trkpt lat="47.72967" lon="-0.84149">
        <ele>71</ele>
        <time>2021-03-25T01:31:29Z</time>
      </trkpt>
      <trkpt lat="47.72969" lon="-0.84168">
        <ele>71</ele>
        <time>2021-03-25T01:31:31Z</time>
      </trkpt>
      <trkpt lat="47.7297" lon="-0.84181">
        <ele>72</ele>
        <time>2021-03-25T01:31:32Z</time>
      </trkpt>
      <trkpt lat="47.72973" lon="-0.84195">
        <ele>72</ele>
        <time>2021-03-25T01:31:34Z</time>
      </trkpt>
      <trkpt lat="47.72974" lon="-0.84204">
        <ele>72</ele>
        <time>2021-03-25T01:31:35Z</time>
      </trkpt>
      <trkpt lat="47.72976" lon="-0.84212">
        <ele>72</ele>
        <time>2021-03-25T01:31:36Z</time>
      </trkpt>
      <trkpt lat="47.72981" lon="-0.84234">
        <ele>72</ele>
        <time>2021-03-25T01:31:39Z</time>
      </trkpt>
      <trkpt lat="47.72984" lon="-0.84243">
        <ele>72</ele>
        <time>2021-03-25T01:31:40Z</time>
      </trkpt>
      <trkpt lat="47.73003" lon="-0.843">
        <ele>73</ele>
        <time>2021-03-25T01:31:48Z</time>
      </trkpt>
      <trkpt lat="47.73011" lon="-0.84325">
        <ele>73</ele>
        <time>2021-03-25T01:31:51Z</time>
      </trkpt>
      <trkpt lat="47.73034" lon="-0.84385">
        <ele>73</ele>
        <time>2021-03-25T01:32:00Z</time>
      </trkpt>
      <trkpt lat="47.7304" lon="-0.84404">
        <ele>73</ele>
        <time>2021-03-25T01:32:02Z</time>
      </trkpt>
      <trkpt lat="47.73044" lon="-0.84418">
        <ele>73</ele>
        <time>2021-03-25T01:32:04Z</time>
      </trkpt>
      <trkpt lat="47.73053" lon="-0.8445">
        <ele>73</ele>
        <time>2021-03-25T01:32:08Z</time>
      </trkpt>
      <trkpt lat="47.73062" lon="-0.84479">
        <ele>73</ele>
        <time>2021-03-25T01:32:12Z</time>
      </trkpt>
      <trkpt lat="47.73064" lon="-0.84484">
        <ele>73</ele>
        <time>2021-03-25T01:32:13Z</time>
      </trkpt>
      <trkpt lat="47.73065" lon="-0.84486">
        <ele>73</ele>
        <time>2021-03-25T01:32:13Z</time>
      </trkpt>
      <trkpt lat="47.73066" lon="-0.84488">
        <ele>73</ele>
        <time>2021-03-25T01:32:13Z</time>
      </trkpt>
      <trkpt lat="47.73067" lon="-0.8449">
        <ele>73</ele>
        <time>2021-03-25T01:32:13Z</time>
      </trkpt>
      <trkpt lat="47.73069" lon="-0.84492">
        <ele>73</ele>
        <time>2021-03-25T01:32:14Z</time>
      </trkpt>
      <trkpt lat="47.7307" lon="-0.84494">
        <ele>73</ele>
        <time>2021-03-25T01:32:14Z</time>
      </trkpt>
      <trkpt lat="47.73072" lon="-0.84495">
        <ele>73</ele>
        <time>2021-03-25T01:32:15Z</time>
      </trkpt>
      <trkpt lat="47.73078" lon="-0.845">
        <ele>73</ele>
        <time>2021-03-25T01:32:16Z</time>
      </trkpt>
      <trkpt lat="47.73078" lon="-0.845">
        <ele>73</ele>
        <time>2021-03-25T01:32:16Z</time>
      </trkpt>
      <trkpt lat="47.73077" lon="-0.84507">
        <ele>73</ele>
        <time>2021-03-25T01:32:17Z</time>
      </trkpt>
      <trkpt lat="47.73076" lon="-0.84512">
        <ele>73</ele>
        <time>2021-03-25T01:32:17Z</time>
      </trkpt>
      <trkpt lat="47.73075" lon="-0.84518">
        <ele>74</ele>
        <time>2021-03-25T01:32:18Z</time>
      </trkpt>
      <trkpt lat="47.73075" lon="-0.84525">
        <ele>74</ele>
        <time>2021-03-25T01:32:19Z</time>
      </trkpt>
      <trkpt lat="47.73075" lon="-0.84532">
        <ele>74</ele>
        <time>2021-03-25T01:32:20Z</time>
      </trkpt>
      <trkpt lat="47.73076" lon="-0.84539">
        <ele>74</ele>
        <time>2021-03-25T01:32:20Z</time>
      </trkpt>
      <trkpt lat="47.73079" lon="-0.84564">
        <ele>75</ele>
        <time>2021-03-25T01:32:24Z</time>
      </trkpt>
      <trkpt lat="47.7308" lon="-0.84567">
        <ele>75</ele>
        <time>2021-03-25T01:32:24Z</time>
      </trkpt>
      <trkpt lat="47.73084" lon="-0.8461">
        <ele>77</ele>
        <time>2021-03-25T01:32:29Z</time>
      </trkpt>
      <trkpt lat="47.73084" lon="-0.8461">
        <ele>77</ele>
        <time>2021-03-25T01:32:29Z</time>
      </trkpt>
      <trkpt lat="47.73161" lon="-0.84559">
        <ele>72</ele>
        <time>2021-03-25T01:32:44Z</time>
      </trkpt>
      <trkpt lat="47.73172" lon="-0.84553">
        <ele>71</ele>
        <time>2021-03-25T01:32:46Z</time>
      </trkpt>
      <trkpt lat="47.73185" lon="-0.84545">
        <ele>71</ele>
        <time>2021-03-25T01:32:49Z</time>
      </trkpt>
      <trkpt lat="47.73203" lon="-0.84535">
        <ele>70</ele>
        <time>2021-03-25T01:32:52Z</time>
      </trkpt>
      <trkpt lat="47.73218" lon="-0.84529">
        <ele>69</ele>
        <time>2021-03-25T01:32:55Z</time>
      </trkpt>
      <trkpt lat="47.73229" lon="-0.84525">
        <ele>69</ele>
        <time>2021-03-25T01:32:57Z</time>
      </trkpt>
      <trkpt lat="47.73237" lon="-0.84523">
        <ele>69</ele>
        <time>2021-03-25T01:32:58Z</time>
      </trkpt>
      <trkpt lat="47.73244" lon="-0.84522">
        <ele>68</ele>
        <time>2021-03-25T01:33:00Z</time>
      </trkpt>
      <trkpt lat="47.73254" lon="-0.8452">
        <ele>68</ele>
        <time>2021-03-25T01:33:01Z</time>
      </trkpt>
      <trkpt lat="47.73261" lon="-0.8452">
        <ele>68</ele>
        <time>2021-03-25T01:33:03Z</time>
      </trkpt>
      <trkpt lat="47.73268" lon="-0.8452">
        <ele>68</ele>
        <time>2021-03-25T01:33:04Z</time>
      </trkpt>
      <trkpt lat="47.73277" lon="-0.84521">
        <ele>67</ele>
        <time>2021-03-25T01:33:05Z</time>
      </trkpt>
      <trkpt lat="47.73286" lon="-0.84522">
        <ele>67</ele>
        <time>2021-03-25T01:33:07Z</time>
      </trkpt>
      <trkpt lat="47.73294" lon="-0.84523">
        <ele>67</ele>
        <time>2021-03-25T01:33:09Z</time>
      </trkpt>
      <trkpt lat="47.73303" lon="-0.84525">
        <ele>67</ele>
        <time>2021-03-25T01:33:10Z</time>
      </trkpt>
      <trkpt lat="47.73311" lon="-0.84528">
        <ele>66</ele>
        <time>2021-03-25T01:33:12Z</time>
      </trkpt>
      <trkpt lat="47.73316" lon="-0.84529">
        <ele>66</ele>
        <time>2021-03-25T01:33:13Z</time>
      </trkpt>
      <trkpt lat="47.7332" lon="-0.84531">
        <ele>66</ele>
        <time>2021-03-25T01:33:13Z</time>
      </trkpt>
      <trkpt lat="47.73326" lon="-0.84533">
        <ele>66</ele>
        <time>2021-03-25T01:33:14Z</time>
      </trkpt>
      <trkpt lat="47.73334" lon="-0.84537">
        <ele>66</ele>
        <time>2021-03-25T01:33:16Z</time>
      </trkpt>
      <trkpt lat="47.73342" lon="-0.84542">
        <ele>66</ele>
        <time>2021-03-25T01:33:17Z</time>
      </trkpt>
      <trkpt lat="47.73349" lon="-0.84547">
        <ele>66</ele>
        <time>2021-03-25T01:33:19Z</time>
      </trkpt>
      <trkpt lat="47.73362" lon="-0.84556">
        <ele>65</ele>
        <time>2021-03-25T01:33:21Z</time>
      </trkpt>
      <trkpt lat="47.73378" lon="-0.84569">
        <ele>65</ele>
        <time>2021-03-25T01:33:25Z</time>
      </trkpt>
      <trkpt lat="47.73382" lon="-0.84573">
        <ele>65</ele>
        <time>2021-03-25T01:33:25Z</time>
      </trkpt>
      <trkpt lat="47.73387" lon="-0.84577">
        <ele>65</ele>
        <time>2021-03-25T01:33:26Z</time>
      </trkpt>
      <trkpt lat="47.73404" lon="-0.84596">
        <ele>65</ele>
        <time>2021-03-25T01:33:30Z</time>
      </trkpt>
      <trkpt lat="47.73448" lon="-0.84647">
        <ele>64</ele>
        <time>2021-03-25T01:33:40Z</time>
      </trkpt>
      <trkpt lat="47.73512" lon="-0.84723">
        <ele>62</ele>
        <time>2021-03-25T01:33:55Z</time>
      </trkpt>
      <trkpt lat="47.73571" lon="-0.84794">
        <ele>61</ele>
        <time>2021-03-25T01:34:08Z</time>
      </trkpt>
      <trkpt lat="47.73744" lon="-0.85001">
        <ele>65</ele>
        <time>2021-03-25T01:34:48Z</time>
      </trkpt>
      <trkpt lat="47.73749" lon="-0.85009">
        <ele>65</ele>
        <time>2021-03-25T01:34:49Z</time>
      </trkpt>
      <trkpt lat="47.73783" lon="-0.85062">
        <ele>65</ele>
        <time>2021-03-25T01:34:58Z</time>
      </trkpt>
      <trkpt lat="47.73789" lon="-0.8507">
        <ele>65</ele>
        <time>2021-03-25T01:34:59Z</time>
      </trkpt>
      <trkpt lat="47.73794" lon="-0.85076">
        <ele>65</ele>
        <time>2021-03-25T01:35:00Z</time>
      </trkpt>
      <trkpt lat="47.73798" lon="-0.85081">
        <ele>65</ele>
        <time>2021-03-25T01:35:01Z</time>
      </trkpt>
      <trkpt lat="47.73801" lon="-0.85083">
        <ele>65</ele>
        <time>2021-03-25T01:35:02Z</time>
      </trkpt>
      <trkpt lat="47.73803" lon="-0.85085">
        <ele>65</ele>
        <time>2021-03-25T01:35:02Z</time>
      </trkpt>
      <trkpt lat="47.73806" lon="-0.85087">
        <ele>65</ele>
        <time>2021-03-25T01:35:03Z</time>
      </trkpt>
      <trkpt lat="47.73809" lon="-0.85088">
        <ele>65</ele>
        <time>2021-03-25T01:35:03Z</time>
      </trkpt>
      <trkpt lat="47.73811" lon="-0.85089">
        <ele>65</ele>
        <time>2021-03-25T01:35:04Z</time>
      </trkpt>
      <trkpt lat="47.73814" lon="-0.85089">
        <ele>65</ele>
        <time>2021-03-25T01:35:04Z</time>
      </trkpt>
      <trkpt lat="47.73817" lon="-0.85089">
        <ele>65</ele>
        <time>2021-03-25T01:35:05Z</time>
      </trkpt>
      <trkpt lat="47.7382" lon="-0.85089">
        <ele>65</ele>
        <time>2021-03-25T01:35:05Z</time>
      </trkpt>
      <trkpt lat="47.73824" lon="-0.85088">
        <ele>65</ele>
        <time>2021-03-25T01:35:06Z</time>
      </trkpt>
      <trkpt lat="47.73829" lon="-0.85087">
        <ele>65</ele>
        <time>2021-03-25T01:35:07Z</time>
      </trkpt>
      <trkpt lat="47.73835" lon="-0.85084">
        <ele>65</ele>
        <time>2021-03-25T01:35:08Z</time>
      </trkpt>
      <trkpt lat="47.73845" lon="-0.8508">
        <ele>65</ele>
        <time>2021-03-25T01:35:10Z</time>
      </trkpt>
      <trkpt lat="47.73858" lon="-0.85072">
        <ele>65</ele>
        <time>2021-03-25T01:35:13Z</time>
      </trkpt>
      <trkpt lat="47.73865" lon="-0.85068">
        <ele>65</ele>
        <time>2021-03-25T01:35:14Z</time>
      </trkpt>
      <trkpt lat="47.73885" lon="-0.85056">
        <ele>66</ele>
        <time>2021-03-25T01:35:18Z</time>
      </trkpt>
      <trkpt lat="47.73915" lon="-0.8504">
        <ele>66</ele>
        <time>2021-03-25T01:35:23Z</time>
      </trkpt>
      <trkpt lat="47.73932" lon="-0.85032">
        <ele>66</ele>
        <time>2021-03-25T01:35:27Z</time>
      </trkpt>
      <trkpt lat="47.7394" lon="-0.85029">
        <ele>65</ele>
        <time>2021-03-25T01:35:28Z</time>
      </trkpt>
      <trkpt lat="47.73947" lon="-0.85027">
        <ele>65</ele>
        <time>2021-03-25T01:35:29Z</time>
      </trkpt>
      <trkpt lat="47.7395" lon="-0.85026">
        <ele>65</ele>
        <time>2021-03-25T01:35:30Z</time>
      </trkpt>
      <trkpt lat="47.73952" lon="-0.85026">
        <ele>65</ele>
        <time>2021-03-25T01:35:30Z</time>
      </trkpt>
      <trkpt lat="47.73955" lon="-0.85027">
        <ele>65</ele>
        <time>2021-03-25T01:35:31Z</time>
      </trkpt>
      <trkpt lat="47.73957" lon="-0.85028">
        <ele>65</ele>
        <time>2021-03-25T01:35:31Z</time>
      </trkpt>
      <trkpt lat="47.73961" lon="-0.8503">
        <ele>65</ele>
        <time>2021-03-25T01:35:32Z</time>
      </trkpt>
      <trkpt lat="47.73964" lon="-0.85035">
        <ele>65</ele>
        <time>2021-03-25T01:35:33Z</time>
      </trkpt>
      <trkpt lat="47.73966" lon="-0.85038">
        <ele>65</ele>
        <time>2021-03-25T01:35:33Z</time>
      </trkpt>
      <trkpt lat="47.73968" lon="-0.85045">
        <ele>65</ele>
        <time>2021-03-25T01:35:34Z</time>
      </trkpt>
      <trkpt lat="47.73971" lon="-0.85052">
        <ele>65</ele>
        <time>2021-03-25T01:35:35Z</time>
      </trkpt>
      <trkpt lat="47.73973" lon="-0.85062">
        <ele>65</ele>
        <time>2021-03-25T01:35:36Z</time>
      </trkpt>
      <trkpt lat="47.73981" lon="-0.85102">
        <ele>64</ele>
        <time>2021-03-25T01:35:41Z</time>
      </trkpt>
      <trkpt lat="47.73997" lon="-0.85173">
        <ele>63</ele>
        <time>2021-03-25T01:35:50Z</time>
      </trkpt>
      <trkpt lat="47.74008" lon="-0.85229">
        <ele>63</ele>
        <time>2021-03-25T01:35:57Z</time>
      </trkpt>
      <trkpt lat="47.7402" lon="-0.85285">
        <ele>63</ele>
        <time>2021-03-25T01:36:04Z</time>
      </trkpt>
      <trkpt lat="47.74033" lon="-0.85353">
        <ele>63</ele>
        <time>2021-03-25T01:36:13Z</time>
      </trkpt>
      <trkpt lat="47.74038" lon="-0.85372">
        <ele>63</ele>
        <time>2021-03-25T01:36:15Z</time>
      </trkpt>
      <trkpt lat="47.7404" lon="-0.85381">
        <ele>63</ele>
        <time>2021-03-25T01:36:16Z</time>
      </trkpt>
      <trkpt lat="47.74043" lon="-0.85388">
        <ele>63</ele>
        <time>2021-03-25T01:36:17Z</time>
      </trkpt>
      <trkpt lat="47.74045" lon="-0.85394">
        <ele>62</ele>
        <time>2021-03-25T01:36:18Z</time>
      </trkpt>
      <trkpt lat="47.74048" lon="-0.85401">
        <ele>62</ele>
        <time>2021-03-25T01:36:19Z</time>
      </trkpt>
      <trkpt lat="47.74052" lon="-0.85409">
        <ele>62</ele>
        <time>2021-03-25T01:36:20Z</time>
      </trkpt>
      <trkpt lat="47.74057" lon="-0.85417">
        <ele>62</ele>
        <time>2021-03-25T01:36:22Z</time>
      </trkpt>
      <trkpt lat="47.74076" lon="-0.85449">
        <ele>62</ele>
        <time>2021-03-25T01:36:27Z</time>
      </trkpt>
      <trkpt lat="47.74099" lon="-0.85485">
        <ele>62</ele>
        <time>2021-03-25T01:36:33Z</time>
      </trkpt>
      <trkpt lat="47.74115" lon="-0.8551">
        <ele>62</ele>
        <time>2021-03-25T01:36:37Z</time>
      </trkpt>
      <trkpt lat="47.74125" lon="-0.85528">
        <ele>63</ele>
        <time>2021-03-25T01:36:40Z</time>
      </trkpt>
      <trkpt lat="47.74128" lon="-0.85534">
        <ele>63</ele>
        <time>2021-03-25T01:36:40Z</time>
      </trkpt>
      <trkpt lat="47.74132" lon="-0.85542">
        <ele>63</ele>
        <time>2021-03-25T01:36:42Z</time>
      </trkpt>
      <trkpt lat="47.74136" lon="-0.85551">
        <ele>63</ele>
        <time>2021-03-25T01:36:43Z</time>
      </trkpt>
      <trkpt lat="47.7414" lon="-0.85562">
        <ele>63</ele>
        <time>2021-03-25T01:36:44Z</time>
      </trkpt>
      <trkpt lat="47.74157" lon="-0.85603">
        <ele>63</ele>
        <time>2021-03-25T01:36:50Z</time>
      </trkpt>
      <trkpt lat="47.74174" lon="-0.85646">
        <ele>63</ele>
        <time>2021-03-25T01:36:56Z</time>
      </trkpt>
      <trkpt lat="47.7419" lon="-0.85686">
        <ele>64</ele>
        <time>2021-03-25T01:37:02Z</time>
      </trkpt>
      <trkpt lat="47.74199" lon="-0.85707">
        <ele>64</ele>
        <time>2021-03-25T01:37:05Z</time>
      </trkpt>
      <trkpt lat="47.74204" lon="-0.85716">
        <ele>64</ele>
        <time>2021-03-25T01:37:06Z</time>
      </trkpt>
      <trkpt lat="47.74208" lon="-0.85726">
        <ele>64</ele>
        <time>2021-03-25T01:37:08Z</time>
      </trkpt>
      <trkpt lat="47.7422" lon="-0.85746">
        <ele>64</ele>
        <time>2021-03-25T01:37:11Z</time>
      </trkpt>
      <trkpt lat="47.74235" lon="-0.85772">
        <ele>65</ele>
        <time>2021-03-25T01:37:15Z</time>
      </trkpt>
      <trkpt lat="47.74246" lon="-0.85792">
        <ele>65</ele>
        <time>2021-03-25T01:37:18Z</time>
      </trkpt>
      <trkpt lat="47.74256" lon="-0.85811">
        <ele>65</ele>
        <time>2021-03-25T01:37:21Z</time>
      </trkpt>
      <trkpt lat="47.74263" lon="-0.85824">
        <ele>65</ele>
        <time>2021-03-25T01:37:23Z</time>
      </trkpt>
      <trkpt lat="47.74269" lon="-0.85838">
        <ele>65</ele>
        <time>2021-03-25T01:37:25Z</time>
      </trkpt>
      <trkpt lat="47.74284" lon="-0.85871">
        <ele>66</ele>
        <time>2021-03-25T01:37:30Z</time>
      </trkpt>
      <trkpt lat="47.74325" lon="-0.85959">
        <ele>66</ele>
        <time>2021-03-25T01:37:42Z</time>
      </trkpt>
      <trkpt lat="47.74339" lon="-0.85988">
        <ele>65</ele>
        <time>2021-03-25T01:37:47Z</time>
      </trkpt>
      <trkpt lat="47.74351" lon="-0.86013">
        <ele>65</ele>
        <time>2021-03-25T01:37:50Z</time>
      </trkpt>
      <trkpt lat="47.74354" lon="-0.86021">
        <ele>65</ele>
        <time>2021-03-25T01:37:51Z</time>
      </trkpt>
      <trkpt lat="47.74356" lon="-0.86027">
        <ele>65</ele>
        <time>2021-03-25T01:37:52Z</time>
      </trkpt>
      <trkpt lat="47.74358" lon="-0.86032">
        <ele>65</ele>
        <time>2021-03-25T01:37:53Z</time>
      </trkpt>
      <trkpt lat="47.74359" lon="-0.86035">
        <ele>65</ele>
        <time>2021-03-25T01:37:53Z</time>
      </trkpt>
      <trkpt lat="47.74359" lon="-0.86039">
        <ele>65</ele>
        <time>2021-03-25T01:37:54Z</time>
      </trkpt>
      <trkpt lat="47.7436" lon="-0.86047">
        <ele>65</ele>
        <time>2021-03-25T01:37:55Z</time>
      </trkpt>
      <trkpt lat="47.7436" lon="-0.86056">
        <ele>65</ele>
        <time>2021-03-25T01:37:56Z</time>
      </trkpt>
      <trkpt lat="47.74359" lon="-0.86061">
        <ele>65</ele>
        <time>2021-03-25T01:37:56Z</time>
      </trkpt>
      <trkpt lat="47.74358" lon="-0.86067">
        <ele>65</ele>
        <time>2021-03-25T01:37:57Z</time>
      </trkpt>
      <trkpt lat="47.74357" lon="-0.86072">
        <ele>65</ele>
        <time>2021-03-25T01:37:58Z</time>
      </trkpt>
      <trkpt lat="47.7435" lon="-0.86098">
        <ele>65</ele>
        <time>2021-03-25T01:38:01Z</time>
      </trkpt>
      <trkpt lat="47.74333" lon="-0.86152">
        <ele>64</ele>
        <time>2021-03-25T01:38:08Z</time>
      </trkpt>
      <trkpt lat="47.74312" lon="-0.86219">
        <ele>64</ele>
        <time>2021-03-25T01:38:17Z</time>
      </trkpt>
      <trkpt lat="47.74294" lon="-0.86278">
        <ele>64</ele>
        <time>2021-03-25T01:38:25Z</time>
      </trkpt>
      <trkpt lat="47.74278" lon="-0.86332">
        <ele>64</ele>
        <time>2021-03-25T01:38:32Z</time>
      </trkpt>
      <trkpt lat="47.74259" lon="-0.864">
        <ele>64</ele>
        <time>2021-03-25T01:38:41Z</time>
      </trkpt>
      <trkpt lat="47.74257" lon="-0.86409">
        <ele>64</ele>
        <time>2021-03-25T01:38:42Z</time>
      </trkpt>
      <trkpt lat="47.74256" lon="-0.86416">
        <ele>64</ele>
        <time>2021-03-25T01:38:43Z</time>
      </trkpt>
      <trkpt lat="47.74255" lon="-0.86424">
        <ele>64</ele>
        <time>2021-03-25T01:38:44Z</time>
      </trkpt>
      <trkpt lat="47.74255" lon="-0.8643">
        <ele>64</ele>
        <time>2021-03-25T01:38:44Z</time>
      </trkpt>
      <trkpt lat="47.74255" lon="-0.86437">
        <ele>64</ele>
        <time>2021-03-25T01:38:45Z</time>
      </trkpt>
      <trkpt lat="47.74256" lon="-0.86445">
        <ele>64</ele>
        <time>2021-03-25T01:38:46Z</time>
      </trkpt>
      <trkpt lat="47.74257" lon="-0.86457">
        <ele>63</ele>
        <time>2021-03-25T01:38:48Z</time>
      </trkpt>
      <trkpt lat="47.74295" lon="-0.86642">
        <ele>62</ele>
        <time>2021-03-25T01:39:11Z</time>
      </trkpt>
      <trkpt lat="47.74297" lon="-0.86655">
        <ele>62</ele>
        <time>2021-03-25T01:39:12Z</time>
      </trkpt>
      <trkpt lat="47.74298" lon="-0.86665">
        <ele>62</ele>
        <time>2021-03-25T01:39:14Z</time>
      </trkpt>
      <trkpt lat="47.743" lon="-0.86676">
        <ele>62</ele>
        <time>2021-03-25T01:39:15Z</time>
      </trkpt>
      <trkpt lat="47.74301" lon="-0.86689">
        <ele>62</ele>
        <time>2021-03-25T01:39:17Z</time>
      </trkpt>
      <trkpt lat="47.74302" lon="-0.86699">
        <ele>62</ele>
        <time>2021-03-25T01:39:18Z</time>
      </trkpt>
      <trkpt lat="47.74301" lon="-0.86709">
        <ele>62</ele>
        <time>2021-03-25T01:39:19Z</time>
      </trkpt>
      <trkpt lat="47.74301" lon="-0.86716">
        <ele>62</ele>
        <time>2021-03-25T01:39:20Z</time>
      </trkpt>
      <trkpt lat="47.74301" lon="-0.86723">
        <ele>62</ele>
        <time>2021-03-25T01:39:21Z</time>
      </trkpt>
      <trkpt lat="47.743" lon="-0.86731">
        <ele>62</ele>
        <time>2021-03-25T01:39:22Z</time>
      </trkpt>
      <trkpt lat="47.74299" lon="-0.8674">
        <ele>62</ele>
        <time>2021-03-25T01:39:23Z</time>
      </trkpt>
      <trkpt lat="47.74298" lon="-0.86754">
        <ele>62</ele>
        <time>2021-03-25T01:39:24Z</time>
      </trkpt>
      <trkpt lat="47.74298" lon="-0.86766">
        <ele>62</ele>
        <time>2021-03-25T01:39:26Z</time>
      </trkpt>
      <trkpt lat="47.74298" lon="-0.86778">
        <ele>62</ele>
        <time>2021-03-25T01:39:27Z</time>
      </trkpt>
      <trkpt lat="47.74298" lon="-0.86783">
        <ele>62</ele>
        <time>2021-03-25T01:39:28Z</time>
      </trkpt>
      <trkpt lat="47.74299" lon="-0.86789">
        <ele>62</ele>
        <time>2021-03-25T01:39:29Z</time>
      </trkpt>
      <trkpt lat="47.74299" lon="-0.86796">
        <ele>62</ele>
        <time>2021-03-25T01:39:29Z</time>
      </trkpt>
      <trkpt lat="47.743" lon="-0.868">
        <ele>62</ele>
        <time>2021-03-25T01:39:30Z</time>
      </trkpt>
      <trkpt lat="47.74301" lon="-0.86803">
        <ele>62</ele>
        <time>2021-03-25T01:39:30Z</time>
      </trkpt>
      <trkpt lat="47.74305" lon="-0.86815">
        <ele>61</ele>
        <time>2021-03-25T01:39:32Z</time>
      </trkpt>
      <trkpt lat="47.74309" lon="-0.86825">
        <ele>61</ele>
        <time>2021-03-25T01:39:33Z</time>
      </trkpt>
      <trkpt lat="47.74311" lon="-0.8683">
        <ele>61</ele>
        <time>2021-03-25T01:39:34Z</time>
      </trkpt>
      <trkpt lat="47.74317" lon="-0.86841">
        <ele>61</ele>
        <time>2021-03-25T01:39:36Z</time>
      </trkpt>
      <trkpt lat="47.74324" lon="-0.86853">
        <ele>61</ele>
        <time>2021-03-25T01:39:38Z</time>
      </trkpt>
      <trkpt lat="47.74341" lon="-0.86886">
        <ele>61</ele>
        <time>2021-03-25T01:39:43Z</time>
      </trkpt>
      <trkpt lat="47.74362" lon="-0.86926">
        <ele>61</ele>
        <time>2021-03-25T01:39:49Z</time>
      </trkpt>
      <trkpt lat="47.74379" lon="-0.86957">
        <ele>60</ele>
        <time>2021-03-25T01:39:54Z</time>
      </trkpt>
      <trkpt lat="47.74395" lon="-0.86986">
        <ele>59</ele>
        <time>2021-03-25T01:39:58Z</time>
      </trkpt>
      <trkpt lat="47.744" lon="-0.86997">
        <ele>59</ele>
        <time>2021-03-25T01:40:00Z</time>
      </trkpt>
      <trkpt lat="47.74406" lon="-0.87009">
        <ele>59</ele>
        <time>2021-03-25T01:40:01Z</time>
      </trkpt>
      <trkpt lat="47.74409" lon="-0.87015">
        <ele>59</ele>
        <time>2021-03-25T01:40:02Z</time>
      </trkpt>
      <trkpt lat="47.74412" lon="-0.87022">
        <ele>59</ele>
        <time>2021-03-25T01:40:03Z</time>
      </trkpt>
      <trkpt lat="47.74417" lon="-0.87037">
        <ele>59</ele>
        <time>2021-03-25T01:40:05Z</time>
      </trkpt>
      <trkpt lat="47.74422" lon="-0.8705">
        <ele>59</ele>
        <time>2021-03-25T01:40:07Z</time>
      </trkpt>
      <trkpt lat="47.74425" lon="-0.87063">
        <ele>59</ele>
        <time>2021-03-25T01:40:09Z</time>
      </trkpt>
      <trkpt lat="47.74429" lon="-0.87076">
        <ele>59</ele>
        <time>2021-03-25T01:40:10Z</time>
      </trkpt>
      <trkpt lat="47.74432" lon="-0.8709">
        <ele>58</ele>
        <time>2021-03-25T01:40:12Z</time>
      </trkpt>
      <trkpt lat="47.74436" lon="-0.87108">
        <ele>58</ele>
        <time>2021-03-25T01:40:14Z</time>
      </trkpt>
      <trkpt lat="47.74438" lon="-0.87123">
        <ele>58</ele>
        <time>2021-03-25T01:40:16Z</time>
      </trkpt>
      <trkpt lat="47.74441" lon="-0.87149">
        <ele>58</ele>
        <time>2021-03-25T01:40:19Z</time>
      </trkpt>
      <trkpt lat="47.74442" lon="-0.87178">
        <ele>58</ele>
        <time>2021-03-25T01:40:23Z</time>
      </trkpt>
      <trkpt lat="47.74442" lon="-0.87197">
        <ele>58</ele>
        <time>2021-03-25T01:40:25Z</time>
      </trkpt>
      <trkpt lat="47.7444" lon="-0.87219">
        <ele>58</ele>
        <time>2021-03-25T01:40:28Z</time>
      </trkpt>
      <trkpt lat="47.74437" lon="-0.87246">
        <ele>58</ele>
        <time>2021-03-25T01:40:31Z</time>
      </trkpt>
      <trkpt lat="47.74434" lon="-0.87268">
        <ele>59</ele>
        <time>2021-03-25T01:40:34Z</time>
      </trkpt>
      <trkpt lat="47.74428" lon="-0.8729">
        <ele>59</ele>
        <time>2021-03-25T01:40:37Z</time>
      </trkpt>
      <trkpt lat="47.74424" lon="-0.87316">
        <ele>60</ele>
        <time>2021-03-25T01:40:40Z</time>
      </trkpt>
      <trkpt lat="47.74419" lon="-0.87339">
        <ele>60</ele>
        <time>2021-03-25T01:40:43Z</time>
      </trkpt>
      <trkpt lat="47.74418" lon="-0.87362">
        <ele>60</ele>
        <time>2021-03-25T01:40:45Z</time>
      </trkpt>
      <trkpt lat="47.74418" lon="-0.87385">
        <ele>59</ele>
        <time>2021-03-25T01:40:48Z</time>
      </trkpt>
      <trkpt lat="47.7442" lon="-0.87412">
        <ele>59</ele>
        <time>2021-03-25T01:40:51Z</time>
      </trkpt>
      <trkpt lat="47.74428" lon="-0.87558">
        <ele>59</ele>
        <time>2021-03-25T01:41:09Z</time>
      </trkpt>
      <trkpt lat="47.74442" lon="-0.87768">
        <ele>59</ele>
        <time>2021-03-25T01:41:34Z</time>
      </trkpt>
      <trkpt lat="47.74443" lon="-0.87777">
        <ele>59</ele>
        <time>2021-03-25T01:41:35Z</time>
      </trkpt>
      <trkpt lat="47.74445" lon="-0.87787">
        <ele>59</ele>
        <time>2021-03-25T01:41:37Z</time>
      </trkpt>
      <trkpt lat="47.74439" lon="-0.87801">
        <ele>59</ele>
        <time>2021-03-25T01:41:39Z</time>
      </trkpt>
      <trkpt lat="47.74434" lon="-0.8781">
        <ele>59</ele>
        <time>2021-03-25T01:41:40Z</time>
      </trkpt>
      <trkpt lat="47.74429" lon="-0.87819">
        <ele>59</ele>
        <time>2021-03-25T01:41:41Z</time>
      </trkpt>
      <trkpt lat="47.74425" lon="-0.87826">
        <ele>59</ele>
        <time>2021-03-25T01:41:42Z</time>
      </trkpt>
      <trkpt lat="47.7442" lon="-0.87836">
        <ele>59</ele>
        <time>2021-03-25T01:41:44Z</time>
      </trkpt>
      <trkpt lat="47.74416" lon="-0.87846">
        <ele>59</ele>
        <time>2021-03-25T01:41:45Z</time>
      </trkpt>
      <trkpt lat="47.74413" lon="-0.87857">
        <ele>59</ele>
        <time>2021-03-25T01:41:47Z</time>
      </trkpt>
      <trkpt lat="47.74411" lon="-0.87868">
        <ele>59</ele>
        <time>2021-03-25T01:41:48Z</time>
      </trkpt>
      <trkpt lat="47.7441" lon="-0.8788">
        <ele>58</ele>
        <time>2021-03-25T01:41:50Z</time>
      </trkpt>
      <trkpt lat="47.7441" lon="-0.87891">
        <ele>58</ele>
        <time>2021-03-25T01:41:51Z</time>
      </trkpt>
      <trkpt lat="47.7441" lon="-0.87902">
        <ele>58</ele>
        <time>2021-03-25T01:41:52Z</time>
      </trkpt>
      <trkpt lat="47.74412" lon="-0.87914">
        <ele>58</ele>
        <time>2021-03-25T01:41:54Z</time>
      </trkpt>
      <trkpt lat="47.74414" lon="-0.87928">
        <ele>58</ele>
        <time>2021-03-25T01:41:55Z</time>
      </trkpt>
      <trkpt lat="47.7442" lon="-0.87971">
        <ele>58</ele>
        <time>2021-03-25T01:42:01Z</time>
      </trkpt>
      <trkpt lat="47.74426" lon="-0.88004">
        <ele>58</ele>
        <time>2021-03-25T01:42:05Z</time>
      </trkpt>
      <trkpt lat="47.7443" lon="-0.88029">
        <ele>58</ele>
        <time>2021-03-25T01:42:08Z</time>
      </trkpt>
      <trkpt lat="47.74433" lon="-0.88043">
        <ele>58</ele>
        <time>2021-03-25T01:42:10Z</time>
      </trkpt>
      <trkpt lat="47.74435" lon="-0.88057">
        <ele>58</ele>
        <time>2021-03-25T01:42:11Z</time>
      </trkpt>
      <trkpt lat="47.74436" lon="-0.88072">
        <ele>58</ele>
        <time>2021-03-25T01:42:13Z</time>
      </trkpt>
      <trkpt lat="47.74437" lon="-0.88083">
        <ele>58</ele>
        <time>2021-03-25T01:42:14Z</time>
      </trkpt>
      <trkpt lat="47.74437" lon="-0.88107">
        <ele>58</ele>
        <time>2021-03-25T01:42:17Z</time>
      </trkpt>
      <trkpt lat="47.74436" lon="-0.88169">
        <ele>58</ele>
        <time>2021-03-25T01:42:25Z</time>
      </trkpt>
      <trkpt lat="47.74434" lon="-0.88236">
        <ele>58</ele>
        <time>2021-03-25T01:42:33Z</time>
      </trkpt>
      <trkpt lat="47.74433" lon="-0.88249">
        <ele>58</ele>
        <time>2021-03-25T01:42:34Z</time>
      </trkpt>
      <trkpt lat="47.74434" lon="-0.88263">
        <ele>58</ele>
        <time>2021-03-25T01:42:36Z</time>
      </trkpt>
      <trkpt lat="47.74434" lon="-0.88274">
        <ele>57</ele>
        <time>2021-03-25T01:42:37Z</time>
      </trkpt>
      <trkpt lat="47.74435" lon="-0.88286">
        <ele>57</ele>
        <time>2021-03-25T01:42:39Z</time>
      </trkpt>
      <trkpt lat="47.74436" lon="-0.88299">
        <ele>57</ele>
        <time>2021-03-25T01:42:40Z</time>
      </trkpt>
      <trkpt lat="47.74439" lon="-0.88311">
        <ele>56</ele>
        <time>2021-03-25T01:42:42Z</time>
      </trkpt>
      <trkpt lat="47.74445" lon="-0.88346">
        <ele>56</ele>
        <time>2021-03-25T01:42:46Z</time>
      </trkpt>
      <trkpt lat="47.74445" lon="-0.88349">
        <ele>56</ele>
        <time>2021-03-25T01:42:47Z</time>
      </trkpt>
      <trkpt lat="47.74468" lon="-0.88455">
        <ele>54</ele>
        <time>2021-03-25T01:43:00Z</time>
      </trkpt>
      <trkpt lat="47.74477" lon="-0.88494">
        <ele>53</ele>
        <time>2021-03-25T01:43:05Z</time>
      </trkpt>
      <trkpt lat="47.7448" lon="-0.8851">
        <ele>52</ele>
        <time>2021-03-25T01:43:07Z</time>
      </trkpt>
      <trkpt lat="47.74484" lon="-0.88527">
        <ele>52</ele>
        <time>2021-03-25T01:43:09Z</time>
      </trkpt>
      <trkpt lat="47.74487" lon="-0.88545">
        <ele>52</ele>
        <time>2021-03-25T01:43:11Z</time>
      </trkpt>
      <trkpt lat="47.74492" lon="-0.88572">
        <ele>51</ele>
        <time>2021-03-25T01:43:15Z</time>
      </trkpt>
      <trkpt lat="47.74494" lon="-0.88586">
        <ele>51</ele>
        <time>2021-03-25T01:43:16Z</time>
      </trkpt>
      <trkpt lat="47.74495" lon="-0.88591">
        <ele>51</ele>
        <time>2021-03-25T01:43:17Z</time>
      </trkpt>
      <trkpt lat="47.74496" lon="-0.88603">
        <ele>51</ele>
        <time>2021-03-25T01:43:18Z</time>
      </trkpt>
      <trkpt lat="47.74498" lon="-0.88631">
        <ele>50</ele>
        <time>2021-03-25T01:43:22Z</time>
      </trkpt>
      <trkpt lat="47.74499" lon="-0.88647">
        <ele>49</ele>
        <time>2021-03-25T01:43:24Z</time>
      </trkpt>
      <trkpt lat="47.74499" lon="-0.88651">
        <ele>49</ele>
        <time>2021-03-25T01:43:24Z</time>
      </trkpt>
      <trkpt lat="47.74499" lon="-0.88661">
        <ele>49</ele>
        <time>2021-03-25T01:43:25Z</time>
      </trkpt>
      <trkpt lat="47.745" lon="-0.8868">
        <ele>49</ele>
        <time>2021-03-25T01:43:28Z</time>
      </trkpt>
      <trkpt lat="47.74501" lon="-0.88724">
        <ele>48</ele>
        <time>2021-03-25T01:43:33Z</time>
      </trkpt>
      <trkpt lat="47.74502" lon="-0.88743">
        <ele>47</ele>
        <time>2021-03-25T01:43:35Z</time>
      </trkpt>
      <trkpt lat="47.74502" lon="-0.88745">
        <ele>47</ele>
        <time>2021-03-25T01:43:35Z</time>
      </trkpt>
      <trkpt lat="47.74502" lon="-0.8876">
        <ele>47</ele>
        <time>2021-03-25T01:43:37Z</time>
      </trkpt>
      <trkpt lat="47.74502" lon="-0.88762">
        <ele>47</ele>
        <time>2021-03-25T01:43:37Z</time>
      </trkpt>
      <trkpt lat="47.74503" lon="-0.88769">
        <ele>47</ele>
        <time>2021-03-25T01:43:38Z</time>
      </trkpt>
      <trkpt lat="47.74503" lon="-0.88778">
        <ele>47</ele>
        <time>2021-03-25T01:43:39Z</time>
      </trkpt>
      <trkpt lat="47.74503" lon="-0.88795">
        <ele>46</ele>
        <time>2021-03-25T01:43:41Z</time>
      </trkpt>
      <trkpt lat="47.74503" lon="-0.8881">
        <ele>46</ele>
        <time>2021-03-25T01:43:43Z</time>
      </trkpt>
      <trkpt lat="47.74502" lon="-0.88824">
        <ele>46</ele>
        <time>2021-03-25T01:43:45Z</time>
      </trkpt>
      <trkpt lat="47.74502" lon="-0.88842">
        <ele>46</ele>
        <time>2021-03-25T01:43:47Z</time>
      </trkpt>
      <trkpt lat="47.74501" lon="-0.88863">
        <ele>46</ele>
        <time>2021-03-25T01:43:49Z</time>
      </trkpt>
      <trkpt lat="47.74499" lon="-0.8888">
        <ele>47</ele>
        <time>2021-03-25T01:43:52Z</time>
      </trkpt>
      <trkpt lat="47.74498" lon="-0.88896">
        <ele>47</ele>
        <time>2021-03-25T01:43:53Z</time>
      </trkpt>
      <trkpt lat="47.74498" lon="-0.88896">
        <ele>47</ele>
        <time>2021-03-25T01:43:53Z</time>
      </trkpt>
      <trkpt lat="47.74481" lon="-0.88892">
        <ele>48</ele>
        <time>2021-03-25T01:43:57Z</time>
      </trkpt>
      <trkpt lat="47.74474" lon="-0.8889">
        <ele>48</ele>
        <time>2021-03-25T01:43:58Z</time>
      </trkpt>
      <trkpt lat="47.74467" lon="-0.88887">
        <ele>49</ele>
        <time>2021-03-25T01:43:59Z</time>
      </trkpt>
      <trkpt lat="47.74459" lon="-0.88883">
        <ele>49</ele>
        <time>2021-03-25T01:44:01Z</time>
      </trkpt>
      <trkpt lat="47.74451" lon="-0.88879">
        <ele>49</ele>
        <time>2021-03-25T01:44:02Z</time>
      </trkpt>
      <trkpt lat="47.74444" lon="-0.88875">
        <ele>50</ele>
        <time>2021-03-25T01:44:03Z</time>
      </trkpt>
      <trkpt lat="47.74437" lon="-0.88872">
        <ele>50</ele>
        <time>2021-03-25T01:44:05Z</time>
      </trkpt>
      <trkpt lat="47.7443" lon="-0.88868">
        <ele>51</ele>
        <time>2021-03-25T01:44:06Z</time>
      </trkpt>
      <trkpt lat="47.74422" lon="-0.88863">
        <ele>51</ele>
        <time>2021-03-25T01:44:08Z</time>
      </trkpt>
      <trkpt lat="47.74413" lon="-0.88859">
        <ele>51</ele>
        <time>2021-03-25T01:44:09Z</time>
      </trkpt>
      <trkpt lat="47.74406" lon="-0.88856">
        <ele>51</ele>
        <time>2021-03-25T01:44:11Z</time>
      </trkpt>
      <trkpt lat="47.74386" lon="-0.88849">
        <ele>51</ele>
        <time>2021-03-25T01:44:14Z</time>
      </trkpt>
      <trkpt lat="47.74371" lon="-0.88844">
        <ele>51</ele>
        <time>2021-03-25T01:44:17Z</time>
      </trkpt>
      <trkpt lat="47.7436" lon="-0.8884">
        <ele>51</ele>
        <time>2021-03-25T01:44:19Z</time>
      </trkpt>
      <trkpt lat="47.7436" lon="-0.8884">
        <ele>51</ele>
        <time>2021-03-25T01:44:19Z</time>
      </trkpt>
      <trkpt lat="47.74359" lon="-0.88862">
        <ele>51</ele>
        <time>2021-03-25T01:44:22Z</time>
      </trkpt>
      <trkpt lat="47.74359" lon="-0.88877">
        <ele>52</ele>
        <time>2021-03-25T01:44:23Z</time>
      </trkpt>
      <trkpt lat="47.7436" lon="-0.88892">
        <ele>52</ele>
        <time>2021-03-25T01:44:25Z</time>
      </trkpt>
      <trkpt lat="47.74361" lon="-0.88909">
        <ele>52</ele>
        <time>2021-03-25T01:44:27Z</time>
      </trkpt>
      <trkpt lat="47.74362" lon="-0.88924">
        <ele>52</ele>
        <time>2021-03-25T01:44:29Z</time>
      </trkpt>
      <trkpt lat="47.74364" lon="-0.88946">
        <ele>52</ele>
        <time>2021-03-25T01:44:32Z</time>
      </trkpt>
      <trkpt lat="47.74368" lon="-0.88975">
        <ele>51</ele>
        <time>2021-03-25T01:44:35Z</time>
      </trkpt>
      <trkpt lat="47.74372" lon="-0.8901">
        <ele>50</ele>
        <time>2021-03-25T01:44:40Z</time>
      </trkpt>
      <trkpt lat="47.74375" lon="-0.89032">
        <ele>50</ele>
        <time>2021-03-25T01:44:42Z</time>
      </trkpt>
      <trkpt lat="47.74376" lon="-0.89043">
        <ele>50</ele>
        <time>2021-03-25T01:44:44Z</time>
      </trkpt>
      <trkpt lat="47.74377" lon="-0.8905">
        <ele>50</ele>
        <time>2021-03-25T01:44:44Z</time>
      </trkpt>
      <trkpt lat="47.74377" lon="-0.89053">
        <ele>50</ele>
        <time>2021-03-25T01:44:45Z</time>
      </trkpt>
      <trkpt lat="47.74378" lon="-0.89065">
        <ele>50</ele>
        <time>2021-03-25T01:44:46Z</time>
      </trkpt>
      <trkpt lat="47.74378" lon="-0.89074">
        <ele>50</ele>
        <time>2021-03-25T01:44:47Z</time>
      </trkpt>
      <trkpt lat="47.74378" lon="-0.89082">
        <ele>49</ele>
        <time>2021-03-25T01:44:48Z</time>
      </trkpt>
      <trkpt lat="47.74376" lon="-0.89112">
        <ele>50</ele>
        <time>2021-03-25T01:44:52Z</time>
      </trkpt>
      <trkpt lat="47.74367" lon="-0.8924">
        <ele>53</ele>
        <time>2021-03-25T01:45:07Z</time>
      </trkpt>
      <trkpt lat="47.7436" lon="-0.89358">
        <ele>54</ele>
        <time>2021-03-25T01:45:21Z</time>
      </trkpt>
      <trkpt lat="47.74359" lon="-0.89373">
        <ele>54</ele>
        <time>2021-03-25T01:45:23Z</time>
      </trkpt>
      <trkpt lat="47.74359" lon="-0.89382">
        <ele>54</ele>
        <time>2021-03-25T01:45:24Z</time>
      </trkpt>
      <trkpt lat="47.7436" lon="-0.89391">
        <ele>54</ele>
        <time>2021-03-25T01:45:25Z</time>
      </trkpt>
      <trkpt lat="47.74361" lon="-0.89401">
        <ele>54</ele>
        <time>2021-03-25T01:45:27Z</time>
      </trkpt>
      <trkpt lat="47.74363" lon="-0.89408">
        <ele>54</ele>
        <time>2021-03-25T01:45:27Z</time>
      </trkpt>
      <trkpt lat="47.74366" lon="-0.89417">
        <ele>54</ele>
        <time>2021-03-25T01:45:29Z</time>
      </trkpt>
      <trkpt lat="47.74369" lon="-0.89427">
        <ele>54</ele>
        <time>2021-03-25T01:45:30Z</time>
      </trkpt>
      <trkpt lat="47.74375" lon="-0.89445">
        <ele>54</ele>
        <time>2021-03-25T01:45:32Z</time>
      </trkpt>
      <trkpt lat="47.74396" lon="-0.89499">
        <ele>53</ele>
        <time>2021-03-25T01:45:40Z</time>
      </trkpt>
      <trkpt lat="47.74428" lon="-0.89585">
        <ele>53</ele>
        <time>2021-03-25T01:45:52Z</time>
      </trkpt>
      <trkpt lat="47.7445" lon="-0.89645">
        <ele>51</ele>
        <time>2021-03-25T01:46:00Z</time>
      </trkpt>
      <trkpt lat="47.7446" lon="-0.89671">
        <ele>50</ele>
        <time>2021-03-25T01:46:03Z</time>
      </trkpt>
      <trkpt lat="47.74467" lon="-0.89691">
        <ele>50</ele>
        <time>2021-03-25T01:46:06Z</time>
      </trkpt>
      <trkpt lat="47.74471" lon="-0.89702">
        <ele>50</ele>
        <time>2021-03-25T01:46:08Z</time>
      </trkpt>
      <trkpt lat="47.74476" lon="-0.89715">
        <ele>50</ele>
        <time>2021-03-25T01:46:09Z</time>
      </trkpt>
      <trkpt lat="47.74481" lon="-0.89731">
        <ele>50</ele>
        <time>2021-03-25T01:46:11Z</time>
      </trkpt>
      <trkpt lat="47.7449" lon="-0.89768">
        <ele>51</ele>
        <time>2021-03-25T01:46:16Z</time>
      </trkpt>
      <trkpt lat="47.74564" lon="-0.90001">
        <ele>52</ele>
        <time>2021-03-25T01:46:47Z</time>
      </trkpt>
      <trkpt lat="47.74584" lon="-0.90064">
        <ele>53</ele>
        <time>2021-03-25T01:46:55Z</time>
      </trkpt>
      <trkpt lat="47.74599" lon="-0.90113">
        <ele>53</ele>
        <time>2021-03-25T01:47:02Z</time>
      </trkpt>
      <trkpt lat="47.74634" lon="-0.90224">
        <ele>52</ele>
        <time>2021-03-25T01:47:16Z</time>
      </trkpt>
      <trkpt lat="47.74642" lon="-0.9025">
        <ele>52</ele>
        <time>2021-03-25T01:47:20Z</time>
      </trkpt>
      <trkpt lat="47.74649" lon="-0.90268">
        <ele>52</ele>
        <time>2021-03-25T01:47:22Z</time>
      </trkpt>
      <trkpt lat="47.74652" lon="-0.90278">
        <ele>52</ele>
        <time>2021-03-25T01:47:24Z</time>
      </trkpt>
      <trkpt lat="47.74653" lon="-0.90282">
        <ele>52</ele>
        <time>2021-03-25T01:47:24Z</time>
      </trkpt>
      <trkpt lat="47.74655" lon="-0.90288">
        <ele>52</ele>
        <time>2021-03-25T01:47:25Z</time>
      </trkpt>
      <trkpt lat="47.74658" lon="-0.90296">
        <ele>52</ele>
        <time>2021-03-25T01:47:26Z</time>
      </trkpt>
      <trkpt lat="47.74664" lon="-0.90311">
        <ele>53</ele>
        <time>2021-03-25T01:47:28Z</time>
      </trkpt>
      <trkpt lat="47.74668" lon="-0.90323">
        <ele>53</ele>
        <time>2021-03-25T01:47:30Z</time>
      </trkpt>
      <trkpt lat="47.74674" lon="-0.90336">
        <ele>52</ele>
        <time>2021-03-25T01:47:32Z</time>
      </trkpt>
      <trkpt lat="47.74679" lon="-0.90348">
        <ele>52</ele>
        <time>2021-03-25T01:47:33Z</time>
      </trkpt>
      <trkpt lat="47.74688" lon="-0.90368">
        <ele>52</ele>
        <time>2021-03-25T01:47:36Z</time>
      </trkpt>
      <trkpt lat="47.74695" lon="-0.90383">
        <ele>51</ele>
        <time>2021-03-25T01:47:38Z</time>
      </trkpt>
      <trkpt lat="47.74712" lon="-0.90418">
        <ele>50</ele>
        <time>2021-03-25T01:47:44Z</time>
      </trkpt>
      <trkpt lat="47.74717" lon="-0.90429">
        <ele>50</ele>
        <time>2021-03-25T01:47:45Z</time>
      </trkpt>
      <trkpt lat="47.74747" lon="-0.90493">
        <ele>47</ele>
        <time>2021-03-25T01:47:55Z</time>
      </trkpt>
      <trkpt lat="47.7476" lon="-0.9052">
        <ele>46</ele>
        <time>2021-03-25T01:47:58Z</time>
      </trkpt>
      <trkpt lat="47.74766" lon="-0.90533">
        <ele>45</ele>
        <time>2021-03-25T01:48:00Z</time>
      </trkpt>
      <trkpt lat="47.74771" lon="-0.90544">
        <ele>44</ele>
        <time>2021-03-25T01:48:02Z</time>
      </trkpt>
      <trkpt lat="47.74775" lon="-0.90555">
        <ele>44</ele>
        <time>2021-03-25T01:48:03Z</time>
      </trkpt>
      <trkpt lat="47.74779" lon="-0.90566">
        <ele>43</ele>
        <time>2021-03-25T01:48:05Z</time>
      </trkpt>
      <trkpt lat="47.74783" lon="-0.9058">
        <ele>43</ele>
        <time>2021-03-25T01:48:07Z</time>
      </trkpt>
      <trkpt lat="47.74792" lon="-0.90613">
        <ele>42</ele>
        <time>2021-03-25T01:48:11Z</time>
      </trkpt>
      <trkpt lat="47.74803" lon="-0.90655">
        <ele>42</ele>
        <time>2021-03-25T01:48:16Z</time>
      </trkpt>
      <trkpt lat="47.74814" lon="-0.90695">
        <ele>42</ele>
        <time>2021-03-25T01:48:22Z</time>
      </trkpt>
      <trkpt lat="47.74828" lon="-0.90737">
        <ele>41</ele>
        <time>2021-03-25T01:48:27Z</time>
      </trkpt>
      <trkpt lat="47.74839" lon="-0.90767">
        <ele>41</ele>
        <time>2021-03-25T01:48:31Z</time>
      </trkpt>
      <trkpt lat="47.74843" lon="-0.90779">
        <ele>40</ele>
        <time>2021-03-25T01:48:33Z</time>
      </trkpt>
      <trkpt lat="47.74849" lon="-0.90792">
        <ele>40</ele>
        <time>2021-03-25T01:48:35Z</time>
      </trkpt>
      <trkpt lat="47.74854" lon="-0.90805">
        <ele>40</ele>
        <time>2021-03-25T01:48:37Z</time>
      </trkpt>
      <trkpt lat="47.7486" lon="-0.90818">
        <ele>39</ele>
        <time>2021-03-25T01:48:38Z</time>
      </trkpt>
      <trkpt lat="47.74868" lon="-0.90834">
        <ele>39</ele>
        <time>2021-03-25T01:48:41Z</time>
      </trkpt>
      <trkpt lat="47.74884" lon="-0.90866">
        <ele>38</ele>
        <time>2021-03-25T01:48:46Z</time>
      </trkpt>
      <trkpt lat="47.74897" lon="-0.90896">
        <ele>38</ele>
        <time>2021-03-25T01:48:50Z</time>
      </trkpt>
      <trkpt lat="47.74926" lon="-0.90957">
        <ele>36</ele>
        <time>2021-03-25T01:48:59Z</time>
      </trkpt>
      <trkpt lat="47.74984" lon="-0.91076">
        <ele>34</ele>
        <time>2021-03-25T01:49:16Z</time>
      </trkpt>
      <trkpt lat="47.75032" lon="-0.91173">
        <ele>34</ele>
        <time>2021-03-25T01:49:31Z</time>
      </trkpt>
      <trkpt lat="47.75037" lon="-0.91183">
        <ele>34</ele>
        <time>2021-03-25T01:49:32Z</time>
      </trkpt>
      <trkpt lat="47.7505" lon="-0.91207">
        <ele>34</ele>
        <time>2021-03-25T01:49:36Z</time>
      </trkpt>
      <trkpt lat="47.75129" lon="-0.91362">
        <ele>31</ele>
        <time>2021-03-25T01:49:59Z</time>
      </trkpt>
      <trkpt lat="47.75166" lon="-0.91435">
        <ele>30</ele>
        <time>2021-03-25T01:50:10Z</time>
      </trkpt>
      <trkpt lat="47.75222" lon="-0.91547">
        <ele>30</ele>
        <time>2021-03-25T01:50:27Z</time>
      </trkpt>
      <trkpt lat="47.75249" lon="-0.91602">
        <ele>30</ele>
        <time>2021-03-25T01:50:35Z</time>
      </trkpt>
      <trkpt lat="47.75278" lon="-0.91662">
        <ele>30</ele>
        <time>2021-03-25T01:50:44Z</time>
      </trkpt>
      <trkpt lat="47.75373" lon="-0.91859">
        <ele>31</ele>
        <time>2021-03-25T01:51:13Z</time>
      </trkpt>
      <trkpt lat="47.75377" lon="-0.91869">
        <ele>31</ele>
        <time>2021-03-25T01:51:14Z</time>
      </trkpt>
      <trkpt lat="47.75382" lon="-0.91881">
        <ele>31</ele>
        <time>2021-03-25T01:51:16Z</time>
      </trkpt>
      <trkpt lat="47.75385" lon="-0.91891">
        <ele>31</ele>
        <time>2021-03-25T01:51:17Z</time>
      </trkpt>
      <trkpt lat="47.75388" lon="-0.91903">
        <ele>31</ele>
        <time>2021-03-25T01:51:19Z</time>
      </trkpt>
      <trkpt lat="47.7539" lon="-0.91913">
        <ele>31</ele>
        <time>2021-03-25T01:51:20Z</time>
      </trkpt>
      <trkpt lat="47.75392" lon="-0.91925">
        <ele>31</ele>
        <time>2021-03-25T01:51:22Z</time>
      </trkpt>
      <trkpt lat="47.75394" lon="-0.91949">
        <ele>30</ele>
        <time>2021-03-25T01:51:24Z</time>
      </trkpt>
      <trkpt lat="47.75395" lon="-0.91953">
        <ele>30</ele>
        <time>2021-03-25T01:51:25Z</time>
      </trkpt>
      <trkpt lat="47.75399" lon="-0.91993">
        <ele>30</ele>
        <time>2021-03-25T01:51:30Z</time>
      </trkpt>
      <trkpt lat="47.75401" lon="-0.92011">
        <ele>30</ele>
        <time>2021-03-25T01:51:32Z</time>
      </trkpt>
      <trkpt lat="47.75403" lon="-0.92025">
        <ele>30</ele>
        <time>2021-03-25T01:51:34Z</time>
      </trkpt>
      <trkpt lat="47.75406" lon="-0.9205">
        <ele>30</ele>
        <time>2021-03-25T01:51:37Z</time>
      </trkpt>
      <trkpt lat="47.75407" lon="-0.92061">
        <ele>30</ele>
        <time>2021-03-25T01:51:38Z</time>
      </trkpt>
      <trkpt lat="47.75407" lon="-0.92064">
        <ele>30</ele>
        <time>2021-03-25T01:51:38Z</time>
      </trkpt>
      <trkpt lat="47.75407" lon="-0.9207">
        <ele>30</ele>
        <time>2021-03-25T01:51:39Z</time>
      </trkpt>
      <trkpt lat="47.75407" lon="-0.92076">
        <ele>30</ele>
        <time>2021-03-25T01:51:40Z</time>
      </trkpt>
      <trkpt lat="47.75407" lon="-0.92083">
        <ele>30</ele>
        <time>2021-03-25T01:51:41Z</time>
      </trkpt>
      <trkpt lat="47.75407" lon="-0.92085">
        <ele>30</ele>
        <time>2021-03-25T01:51:41Z</time>
      </trkpt>
      <trkpt lat="47.75406" lon="-0.92093">
        <ele>30</ele>
        <time>2021-03-25T01:51:42Z</time>
      </trkpt>
      <trkpt lat="47.75406" lon="-0.92096">
        <ele>30</ele>
        <time>2021-03-25T01:51:42Z</time>
      </trkpt>
      <trkpt lat="47.75406" lon="-0.92109">
        <ele>31</ele>
        <time>2021-03-25T01:51:44Z</time>
      </trkpt>
      <trkpt lat="47.75405" lon="-0.9212">
        <ele>31</ele>
        <time>2021-03-25T01:51:45Z</time>
      </trkpt>
      <trkpt lat="47.75405" lon="-0.92123">
        <ele>31</ele>
        <time>2021-03-25T01:51:45Z</time>
      </trkpt>
      <trkpt lat="47.75405" lon="-0.92133">
        <ele>31</ele>
        <time>2021-03-25T01:51:47Z</time>
      </trkpt>
      <trkpt lat="47.75404" lon="-0.92142">
        <ele>31</ele>
        <time>2021-03-25T01:51:48Z</time>
      </trkpt>
      <trkpt lat="47.75404" lon="-0.92151">
        <ele>32</ele>
        <time>2021-03-25T01:51:49Z</time>
      </trkpt>
      <trkpt lat="47.75404" lon="-0.92161">
        <ele>32</ele>
        <time>2021-03-25T01:51:50Z</time>
      </trkpt>
      <trkpt lat="47.75404" lon="-0.92169">
        <ele>32</ele>
        <time>2021-03-25T01:51:51Z</time>
      </trkpt>
      <trkpt lat="47.75406" lon="-0.92192">
        <ele>33</ele>
        <time>2021-03-25T01:51:54Z</time>
      </trkpt>
      <trkpt lat="47.7541" lon="-0.92231">
        <ele>34</ele>
        <time>2021-03-25T01:51:58Z</time>
      </trkpt>
      <trkpt lat="47.75412" lon="-0.92242">
        <ele>35</ele>
        <time>2021-03-25T01:52:00Z</time>
      </trkpt>
      <trkpt lat="47.75414" lon="-0.92248">
        <ele>35</ele>
        <time>2021-03-25T01:52:01Z</time>
      </trkpt>
      <trkpt lat="47.75414" lon="-0.92248">
        <ele>35</ele>
        <time>2021-03-25T01:52:01Z</time>
      </trkpt>
      <trkpt lat="47.75451" lon="-0.92249">
        <ele>35</ele>
        <time>2021-03-25T01:52:07Z</time>
      </trkpt>
      <trkpt lat="47.75462" lon="-0.9225">
        <ele>36</ele>
        <time>2021-03-25T01:52:09Z</time>
      </trkpt>
      <trkpt lat="47.75473" lon="-0.92252">
        <ele>36</ele>
        <time>2021-03-25T01:52:11Z</time>
      </trkpt>
      <trkpt lat="47.75484" lon="-0.92257">
        <ele>36</ele>
        <time>2021-03-25T01:52:13Z</time>
      </trkpt>
      <trkpt lat="47.75495" lon="-0.92263">
        <ele>36</ele>
        <time>2021-03-25T01:52:15Z</time>
      </trkpt>
      <trkpt lat="47.755" lon="-0.92266">
        <ele>36</ele>
        <time>2021-03-25T01:52:16Z</time>
      </trkpt>
      <trkpt lat="47.75506" lon="-0.92271">
        <ele>37</ele>
        <time>2021-03-25T01:52:17Z</time>
      </trkpt>
      <trkpt lat="47.75511" lon="-0.92276">
        <ele>37</ele>
        <time>2021-03-25T01:52:19Z</time>
      </trkpt>
      <trkpt lat="47.75517" lon="-0.92281">
        <ele>38</ele>
        <time>2021-03-25T01:52:20Z</time>
      </trkpt>
      <trkpt lat="47.75534" lon="-0.92296">
        <ele>39</ele>
        <time>2021-03-25T01:52:23Z</time>
      </trkpt>
      <trkpt lat="47.75535" lon="-0.92297">
        <ele>39</ele>
        <time>2021-03-25T01:52:24Z</time>
      </trkpt>
      <trkpt lat="47.75582" lon="-0.92336">
        <ele>46</ele>
        <time>2021-03-25T01:52:33Z</time>
      </trkpt>
      <trkpt lat="47.75602" lon="-0.92353">
        <ele>47</ele>
        <time>2021-03-25T01:52:37Z</time>
      </trkpt>
      <trkpt lat="47.7561" lon="-0.9236">
        <ele>47</ele>
        <time>2021-03-25T01:52:39Z</time>
      </trkpt>
      <trkpt lat="47.75617" lon="-0.92365">
        <ele>48</ele>
        <time>2021-03-25T01:52:40Z</time>
      </trkpt>
      <trkpt lat="47.7565" lon="-0.92392">
        <ele>50</ele>
        <time>2021-03-25T01:52:47Z</time>
      </trkpt>
      <trkpt lat="47.75671" lon="-0.9241">
        <ele>52</ele>
        <time>2021-03-25T01:52:51Z</time>
      </trkpt>
      <trkpt lat="47.75672" lon="-0.92412">
        <ele>52</ele>
        <time>2021-03-25T01:52:52Z</time>
      </trkpt>
      <trkpt lat="47.7569" lon="-0.92426">
        <ele>52</ele>
        <time>2021-03-25T01:52:55Z</time>
      </trkpt>
      <trkpt lat="47.75696" lon="-0.92431">
        <ele>52</ele>
        <time>2021-03-25T01:52:56Z</time>
      </trkpt>
      <trkpt lat="47.757" lon="-0.92435">
        <ele>52</ele>
        <time>2021-03-25T01:52:57Z</time>
      </trkpt>
      <trkpt lat="47.75705" lon="-0.92441">
        <ele>52</ele>
        <time>2021-03-25T01:52:58Z</time>
      </trkpt>
      <trkpt lat="47.75731" lon="-0.92473">
        <ele>53</ele>
        <time>2021-03-25T01:53:04Z</time>
      </trkpt>
      <trkpt lat="47.75735" lon="-0.92479">
        <ele>54</ele>
        <time>2021-03-25T01:53:05Z</time>
      </trkpt>
      <trkpt lat="47.75742" lon="-0.9249">
        <ele>54</ele>
        <time>2021-03-25T01:53:07Z</time>
      </trkpt>
      <trkpt lat="47.75746" lon="-0.92497">
        <ele>55</ele>
        <time>2021-03-25T01:53:08Z</time>
      </trkpt>
      <trkpt lat="47.75751" lon="-0.92505">
        <ele>55</ele>
        <time>2021-03-25T01:53:10Z</time>
      </trkpt>
      <trkpt lat="47.75761" lon="-0.92523">
        <ele>56</ele>
        <time>2021-03-25T01:53:12Z</time>
      </trkpt>
      <trkpt lat="47.75779" lon="-0.92563">
        <ele>56</ele>
        <time>2021-03-25T01:53:18Z</time>
      </trkpt>
      <trkpt lat="47.75796" lon="-0.92602">
        <ele>56</ele>
        <time>2021-03-25T01:53:24Z</time>
      </trkpt>
      <trkpt lat="47.75806" lon="-0.92619">
        <ele>57</ele>
        <time>2021-03-25T01:53:26Z</time>
      </trkpt>
      <trkpt lat="47.7581" lon="-0.92625">
        <ele>57</ele>
        <time>2021-03-25T01:53:27Z</time>
      </trkpt>
      <trkpt lat="47.75818" lon="-0.92633">
        <ele>57</ele>
        <time>2021-03-25T01:53:29Z</time>
      </trkpt>
      <trkpt lat="47.75829" lon="-0.92644">
        <ele>57</ele>
        <time>2021-03-25T01:53:31Z</time>
      </trkpt>
      <trkpt lat="47.75834" lon="-0.92648">
        <ele>57</ele>
        <time>2021-03-25T01:53:33Z</time>
      </trkpt>
      <trkpt lat="47.75842" lon="-0.92654">
        <ele>56</ele>
        <time>2021-03-25T01:53:34Z</time>
      </trkpt>
      <trkpt lat="47.7585" lon="-0.92661">
        <ele>56</ele>
        <time>2021-03-25T01:53:36Z</time>
      </trkpt>
      <trkpt lat="47.75856" lon="-0.92672">
        <ele>55</ele>
        <time>2021-03-25T01:53:37Z</time>
      </trkpt>
      <trkpt lat="47.75858" lon="-0.92682">
        <ele>55</ele>
        <time>2021-03-25T01:53:39Z</time>
      </trkpt>
      <trkpt lat="47.75858" lon="-0.92682">
        <ele>55</ele>
        <time>2021-03-25T01:53:39Z</time>
      </trkpt>
      <trkpt lat="47.75842" lon="-0.92691">
        <ele>56</ele>
        <time>2021-03-25T01:53:42Z</time>
      </trkpt>
      <trkpt lat="47.75809" lon="-0.92723">
        <ele>55</ele>
        <time>2021-03-25T01:53:49Z</time>
      </trkpt>
      <trkpt lat="47.75776" lon="-0.92758">
        <ele>53</ele>
        <time>2021-03-25T01:53:56Z</time>
      </trkpt>
      <trkpt lat="47.75764" lon="-0.92773">
        <ele>53</ele>
        <time>2021-03-25T01:53:59Z</time>
      </trkpt>
      <trkpt lat="47.75745" lon="-0.92839">
        <ele>51</ele>
        <time>2021-03-25T01:54:07Z</time>
      </trkpt>
      <trkpt lat="47.75729" lon="-0.92888">
        <ele>48</ele>
        <time>2021-03-25T01:54:14Z</time>
      </trkpt>
      <trkpt lat="47.7572" lon="-0.92917">
        <ele>47</ele>
        <time>2021-03-25T01:54:18Z</time>
      </trkpt>
      <trkpt lat="47.75716" lon="-0.92929">
        <ele>46</ele>
        <time>2021-03-25T01:54:19Z</time>
      </trkpt>
      <trkpt lat="47.75706" lon="-0.92959">
        <ele>45</ele>
        <time>2021-03-25T01:54:23Z</time>
      </trkpt>
      <trkpt lat="47.75691" lon="-0.93008">
        <ele>42</ele>
        <time>2021-03-25T01:54:30Z</time>
      </trkpt>
      <trkpt lat="47.75683" lon="-0.93033">
        <ele>42</ele>
        <time>2021-03-25T01:54:33Z</time>
      </trkpt>
      <trkpt lat="47.7567" lon="-0.93074">
        <ele>41</ele>
        <time>2021-03-25T01:54:38Z</time>
      </trkpt>
      <trkpt lat="47.75666" lon="-0.93085">
        <ele>41</ele>
        <time>2021-03-25T01:54:40Z</time>
      </trkpt>
      <trkpt lat="47.75659" lon="-0.93108">
        <ele>42</ele>
        <time>2021-03-25T01:54:43Z</time>
      </trkpt>
      <trkpt lat="47.75646" lon="-0.93149">
        <ele>43</ele>
        <time>2021-03-25T01:54:48Z</time>
      </trkpt>
      <trkpt lat="47.75644" lon="-0.93154">
        <ele>44</ele>
        <time>2021-03-25T01:54:49Z</time>
      </trkpt>
      <trkpt lat="47.75631" lon="-0.93195">
        <ele>44</ele>
        <time>2021-03-25T01:54:55Z</time>
      </trkpt>
      <trkpt lat="47.75618" lon="-0.93237">
        <ele>45</ele>
        <time>2021-03-25T01:55:00Z</time>
      </trkpt>
      <trkpt lat="47.75609" lon="-0.93264">
        <ele>46</ele>
        <time>2021-03-25T01:55:04Z</time>
      </trkpt>
      <trkpt lat="47.75604" lon="-0.93281">
        <ele>46</ele>
        <time>2021-03-25T01:55:06Z</time>
      </trkpt>
      <trkpt lat="47.75585" lon="-0.93341">
        <ele>47</ele>
        <time>2021-03-25T01:55:14Z</time>
      </trkpt>
      <trkpt lat="47.75562" lon="-0.93412">
        <ele>49</ele>
        <time>2021-03-25T01:55:23Z</time>
      </trkpt>
      <trkpt lat="47.75553" lon="-0.93441">
        <ele>49</ele>
        <time>2021-03-25T01:55:27Z</time>
      </trkpt>
      <trkpt lat="47.75544" lon="-0.93466">
        <ele>49</ele>
        <time>2021-03-25T01:55:30Z</time>
      </trkpt>
      <trkpt lat="47.75534" lon="-0.93494">
        <ele>49</ele>
        <time>2021-03-25T01:55:34Z</time>
      </trkpt>
      <trkpt lat="47.75522" lon="-0.93524">
        <ele>49</ele>
        <time>2021-03-25T01:55:38Z</time>
      </trkpt>
      <trkpt lat="47.75502" lon="-0.93566">
        <ele>49</ele>
        <time>2021-03-25T01:55:45Z</time>
      </trkpt>
      <trkpt lat="47.75473" lon="-0.93624">
        <ele>51</ele>
        <time>2021-03-25T01:55:53Z</time>
      </trkpt>
      <trkpt lat="47.75436" lon="-0.93693">
        <ele>53</ele>
        <time>2021-03-25T01:56:04Z</time>
      </trkpt>
      <trkpt lat="47.75384" lon="-0.93796">
        <ele>58</ele>
        <time>2021-03-25T01:56:19Z</time>
      </trkpt>
      <trkpt lat="47.75336" lon="-0.93888">
        <ele>63</ele>
        <time>2021-03-25T01:56:33Z</time>
      </trkpt>
      <trkpt lat="47.7528" lon="-0.93996">
        <ele>70</ele>
        <time>2021-03-25T01:56:49Z</time>
      </trkpt>
      <trkpt lat="47.75244" lon="-0.94066">
        <ele>76</ele>
        <time>2021-03-25T01:57:00Z</time>
      </trkpt>
      <trkpt lat="47.75221" lon="-0.9411">
        <ele>77</ele>
        <time>2021-03-25T01:57:07Z</time>
      </trkpt>
      <trkpt lat="47.75199" lon="-0.94154">
        <ele>78</ele>
        <time>2021-03-25T01:57:13Z</time>
      </trkpt>
      <trkpt lat="47.7517" lon="-0.94209">
        <ele>78</ele>
        <time>2021-03-25T01:57:22Z</time>
      </trkpt>
      <trkpt lat="47.7514" lon="-0.94268">
        <ele>79</ele>
        <time>2021-03-25T01:57:30Z</time>
      </trkpt>
      <trkpt lat="47.75093" lon="-0.94357">
        <ele>83</ele>
        <time>2021-03-25T01:57:44Z</time>
      </trkpt>
      <trkpt lat="47.75057" lon="-0.94428">
        <ele>86</ele>
        <time>2021-03-25T01:57:55Z</time>
      </trkpt>
      <trkpt lat="47.75022" lon="-0.94496">
        <ele>89</ele>
        <time>2021-03-25T01:58:05Z</time>
      </trkpt>
      <trkpt lat="47.74983" lon="-0.9457">
        <ele>91</ele>
        <time>2021-03-25T01:58:16Z</time>
      </trkpt>
      <trkpt lat="47.74959" lon="-0.94617">
        <ele>92</ele>
        <time>2021-03-25T01:58:23Z</time>
      </trkpt>
      <trkpt lat="47.74957" lon="-0.94621">
        <ele>92</ele>
        <time>2021-03-25T01:58:24Z</time>
      </trkpt>
      <trkpt lat="47.74928" lon="-0.94677">
        <ele>93</ele>
        <time>2021-03-25T01:58:32Z</time>
      </trkpt>
      <trkpt lat="47.74908" lon="-0.94718">
        <ele>93</ele>
        <time>2021-03-25T01:58:38Z</time>
      </trkpt>
      <trkpt lat="47.74902" lon="-0.94734">
        <ele>92</ele>
        <time>2021-03-25T01:58:40Z</time>
      </trkpt>
      <trkpt lat="47.74897" lon="-0.94748">
        <ele>92</ele>
        <time>2021-03-25T01:58:42Z</time>
      </trkpt>
      <trkpt lat="47.74888" lon="-0.94776">
        <ele>91</ele>
        <time>2021-03-25T01:58:46Z</time>
      </trkpt>
      <trkpt lat="47.74878" lon="-0.94819">
        <ele>90</ele>
        <time>2021-03-25T01:58:51Z</time>
      </trkpt>
      <trkpt lat="47.74872" lon="-0.94855">
        <ele>89</ele>
        <time>2021-03-25T01:58:56Z</time>
      </trkpt>
      <trkpt lat="47.74868" lon="-0.949">
        <ele>88</ele>
        <time>2021-03-25T01:59:01Z</time>
      </trkpt>
      <trkpt lat="47.74867" lon="-0.94943">
        <ele>86</ele>
        <time>2021-03-25T01:59:07Z</time>
      </trkpt>
      <trkpt lat="47.74869" lon="-0.94978">
        <ele>85</ele>
        <time>2021-03-25T01:59:11Z</time>
      </trkpt>
      <trkpt lat="47.74874" lon="-0.95026">
        <ele>84</ele>
        <time>2021-03-25T01:59:17Z</time>
      </trkpt>
      <trkpt lat="47.7488" lon="-0.95083">
        <ele>82</ele>
        <time>2021-03-25T01:59:23Z</time>
      </trkpt>
      <trkpt lat="47.74882" lon="-0.95118">
        <ele>81</ele>
        <time>2021-03-25T01:59:28Z</time>
      </trkpt>
      <trkpt lat="47.74883" lon="-0.95153">
        <ele>80</ele>
        <time>2021-03-25T01:59:32Z</time>
      </trkpt>
      <trkpt lat="47.74881" lon="-0.9517">
        <ele>79</ele>
        <time>2021-03-25T01:59:34Z</time>
      </trkpt>
      <trkpt lat="47.74875" lon="-0.952">
        <ele>79</ele>
        <time>2021-03-25T01:59:38Z</time>
      </trkpt>
      <trkpt lat="47.74867" lon="-0.95226">
        <ele>78</ele>
        <time>2021-03-25T01:59:41Z</time>
      </trkpt>
      <trkpt lat="47.7485" lon="-0.95259">
        <ele>76</ele>
        <time>2021-03-25T01:59:46Z</time>
      </trkpt>
      <trkpt lat="47.74821" lon="-0.95296">
        <ele>73</ele>
        <time>2021-03-25T01:59:53Z</time>
      </trkpt>
      <trkpt lat="47.74807" lon="-0.95312">
        <ele>72</ele>
        <time>2021-03-25T01:59:56Z</time>
      </trkpt>
      <trkpt lat="47.74788" lon="-0.95338">
        <ele>70</ele>
        <time>2021-03-25T02:00:01Z</time>
      </trkpt>
      <trkpt lat="47.74763" lon="-0.95369">
        <ele>69</ele>
        <time>2021-03-25T02:00:06Z</time>
      </trkpt>
      <trkpt lat="47.74753" lon="-0.95383">
        <ele>68</ele>
        <time>2021-03-25T02:00:09Z</time>
      </trkpt>
      <trkpt lat="47.74748" lon="-0.95395">
        <ele>68</ele>
        <time>2021-03-25T02:00:10Z</time>
      </trkpt>
      <trkpt lat="47.74742" lon="-0.95417">
        <ele>66</ele>
        <time>2021-03-25T02:00:13Z</time>
      </trkpt>
      <trkpt lat="47.7474" lon="-0.95432">
        <ele>65</ele>
        <time>2021-03-25T02:00:15Z</time>
      </trkpt>
      <trkpt lat="47.7474" lon="-0.95469">
        <ele>64</ele>
        <time>2021-03-25T02:00:20Z</time>
      </trkpt>
      <trkpt lat="47.74744" lon="-0.95502">
        <ele>64</ele>
        <time>2021-03-25T02:00:24Z</time>
      </trkpt>
      <trkpt lat="47.74747" lon="-0.95537">
        <ele>64</ele>
        <time>2021-03-25T02:00:28Z</time>
      </trkpt>
      <trkpt lat="47.74747" lon="-0.9556">
        <ele>63</ele>
        <time>2021-03-25T02:00:31Z</time>
      </trkpt>
      <trkpt lat="47.74744" lon="-0.95591">
        <ele>62</ele>
        <time>2021-03-25T02:00:34Z</time>
      </trkpt>
      <trkpt lat="47.74739" lon="-0.95626">
        <ele>62</ele>
        <time>2021-03-25T02:00:39Z</time>
      </trkpt>
      <trkpt lat="47.74719" lon="-0.95725">
        <ele>58</ele>
        <time>2021-03-25T02:00:51Z</time>
      </trkpt>
      <trkpt lat="47.74704" lon="-0.95805">
        <ele>55</ele>
        <time>2021-03-25T02:01:01Z</time>
      </trkpt>
      <trkpt lat="47.74673" lon="-0.95963">
        <ele>53</ele>
        <time>2021-03-25T02:01:21Z</time>
      </trkpt>
      <trkpt lat="47.7466" lon="-0.96026">
        <ele>52</ele>
        <time>2021-03-25T02:01:28Z</time>
      </trkpt>
      <trkpt lat="47.74652" lon="-0.96059">
        <ele>51</ele>
        <time>2021-03-25T02:01:33Z</time>
      </trkpt>
      <trkpt lat="47.74642" lon="-0.96096">
        <ele>50</ele>
        <time>2021-03-25T02:01:37Z</time>
      </trkpt>
      <trkpt lat="47.74631" lon="-0.9613">
        <ele>48</ele>
        <time>2021-03-25T02:01:42Z</time>
      </trkpt>
      <trkpt lat="47.74615" lon="-0.9617">
        <ele>46</ele>
        <time>2021-03-25T02:01:48Z</time>
      </trkpt>
      <trkpt lat="47.74595" lon="-0.96208">
        <ele>44</ele>
        <time>2021-03-25T02:01:53Z</time>
      </trkpt>
      <trkpt lat="47.74585" lon="-0.96228">
        <ele>43</ele>
        <time>2021-03-25T02:01:56Z</time>
      </trkpt>
      <trkpt lat="47.74571" lon="-0.96245">
        <ele>42</ele>
        <time>2021-03-25T02:01:59Z</time>
      </trkpt>
      <trkpt lat="47.74536" lon="-0.96292">
        <ele>40</ele>
        <time>2021-03-25T02:02:08Z</time>
      </trkpt>
      <trkpt lat="47.74484" lon="-0.96363">
        <ele>38</ele>
        <time>2021-03-25T02:02:20Z</time>
      </trkpt>
      <trkpt lat="47.74463" lon="-0.96389">
        <ele>38</ele>
        <time>2021-03-25T02:02:25Z</time>
      </trkpt>
      <trkpt lat="47.7444" lon="-0.96419">
        <ele>38</ele>
        <time>2021-03-25T02:02:31Z</time>
      </trkpt>
      <trkpt lat="47.74437" lon="-0.96424">
        <ele>38</ele>
        <time>2021-03-25T02:02:32Z</time>
      </trkpt>
      <trkpt lat="47.74433" lon="-0.96428">
        <ele>38</ele>
        <time>2021-03-25T02:02:32Z</time>
      </trkpt>
      <trkpt lat="47.74388" lon="-0.96486">
        <ele>39</ele>
        <time>2021-03-25T02:02:43Z</time>
      </trkpt>
      <trkpt lat="47.74324" lon="-0.9657">
        <ele>41</ele>
        <time>2021-03-25T02:02:58Z</time>
      </trkpt>
      <trkpt lat="47.74274" lon="-0.96635">
        <ele>43</ele>
        <time>2021-03-25T02:03:10Z</time>
      </trkpt>
      <trkpt lat="47.74231" lon="-0.9669">
        <ele>46</ele>
        <time>2021-03-25T02:03:20Z</time>
      </trkpt>
      <trkpt lat="47.74214" lon="-0.9671">
        <ele>47</ele>
        <time>2021-03-25T02:03:24Z</time>
      </trkpt>
      <trkpt lat="47.74207" lon="-0.96719">
        <ele>48</ele>
        <time>2021-03-25T02:03:26Z</time>
      </trkpt>
      <trkpt lat="47.74202" lon="-0.96727">
        <ele>48</ele>
        <time>2021-03-25T02:03:27Z</time>
      </trkpt>
      <trkpt lat="47.74202" lon="-0.96727">
        <ele>48</ele>
        <time>2021-03-25T02:03:27Z</time>
      </trkpt>
      <trkpt lat="47.74207" lon="-0.96741">
        <ele>48</ele>
        <time>2021-03-25T02:03:29Z</time>
      </trkpt>
      <trkpt lat="47.74234" lon="-0.96825">
        <ele>50</ele>
        <time>2021-03-25T02:03:40Z</time>
      </trkpt>
      <trkpt lat="47.74246" lon="-0.96864">
        <ele>50</ele>
        <time>2021-03-25T02:03:45Z</time>
      </trkpt>
      <trkpt lat="47.74252" lon="-0.96881">
        <ele>50</ele>
        <time>2021-03-25T02:03:47Z</time>
      </trkpt>
      <trkpt lat="47.74271" lon="-0.96937">
        <ele>49</ele>
        <time>2021-03-25T02:03:55Z</time>
      </trkpt>
      <trkpt lat="47.74281" lon="-0.96962">
        <ele>49</ele>
        <time>2021-03-25T02:03:58Z</time>
      </trkpt>
      <trkpt lat="47.74289" lon="-0.96984">
        <ele>49</ele>
        <time>2021-03-25T02:04:01Z</time>
      </trkpt>
      <trkpt lat="47.74298" lon="-0.97003">
        <ele>48</ele>
        <time>2021-03-25T02:04:04Z</time>
      </trkpt>
      <trkpt lat="47.74306" lon="-0.97019">
        <ele>48</ele>
        <time>2021-03-25T02:04:07Z</time>
      </trkpt>
      <trkpt lat="47.74315" lon="-0.97033">
        <ele>48</ele>
        <time>2021-03-25T02:04:09Z</time>
      </trkpt>
      <trkpt lat="47.74329" lon="-0.97054">
        <ele>47</ele>
        <time>2021-03-25T02:04:12Z</time>
      </trkpt>
      <trkpt lat="47.7434" lon="-0.97071">
        <ele>47</ele>
        <time>2021-03-25T02:04:15Z</time>
      </trkpt>
      <trkpt lat="47.74352" lon="-0.97088">
        <ele>46</ele>
        <time>2021-03-25T02:04:18Z</time>
      </trkpt>
      <trkpt lat="47.74352" lon="-0.97088">
        <ele>46</ele>
        <time>2021-03-25T02:04:18Z</time>
      </trkpt>
      <trkpt lat="47.74353" lon="-0.97106">
        <ele>46</ele>
        <time>2021-03-25T02:04:20Z</time>
      </trkpt>
      <trkpt lat="47.74361" lon="-0.97154">
        <ele>45</ele>
        <time>2021-03-25T02:04:26Z</time>
      </trkpt>
      <trkpt lat="47.74366" lon="-0.97185">
        <ele>45</ele>
        <time>2021-03-25T02:04:30Z</time>
      </trkpt>
      <trkpt lat="47.74368" lon="-0.97218">
        <ele>44</ele>
        <time>2021-03-25T02:04:34Z</time>
      </trkpt>
      <trkpt lat="47.74371" lon="-0.97272">
        <ele>43</ele>
        <time>2021-03-25T02:04:40Z</time>
      </trkpt>
      <trkpt lat="47.74378" lon="-0.97385">
        <ele>45</ele>
        <time>2021-03-25T02:04:54Z</time>
      </trkpt>
      <trkpt lat="47.74379" lon="-0.97422">
        <ele>46</ele>
        <time>2021-03-25T02:04:58Z</time>
      </trkpt>
      <trkpt lat="47.74379" lon="-0.97446">
        <ele>46</ele>
        <time>2021-03-25T02:05:01Z</time>
      </trkpt>
      <trkpt lat="47.74378" lon="-0.97463">
        <ele>46</ele>
        <time>2021-03-25T02:05:03Z</time>
      </trkpt>
      <trkpt lat="47.74376" lon="-0.97485">
        <ele>46</ele>
        <time>2021-03-25T02:05:06Z</time>
      </trkpt>
      <trkpt lat="47.74374" lon="-0.97517">
        <ele>46</ele>
        <time>2021-03-25T02:05:10Z</time>
      </trkpt>
      <trkpt lat="47.7437" lon="-0.97569">
        <ele>46</ele>
        <time>2021-03-25T02:05:16Z</time>
      </trkpt>
      <trkpt lat="47.74362" lon="-0.97679">
        <ele>47</ele>
        <time>2021-03-25T02:05:29Z</time>
      </trkpt>
      <trkpt lat="47.7435" lon="-0.97839">
        <ele>47</ele>
        <time>2021-03-25T02:05:49Z</time>
      </trkpt>
      <trkpt lat="47.74345" lon="-0.97893">
        <ele>48</ele>
        <time>2021-03-25T02:05:55Z</time>
      </trkpt>
      <trkpt lat="47.74344" lon="-0.97906">
        <ele>48</ele>
        <time>2021-03-25T02:05:57Z</time>
      </trkpt>
      <trkpt lat="47.74344" lon="-0.97914">
        <ele>48</ele>
        <time>2021-03-25T02:05:58Z</time>
      </trkpt>
      <trkpt lat="47.74344" lon="-0.97924">
        <ele>48</ele>
        <time>2021-03-25T02:05:59Z</time>
      </trkpt>
      <trkpt lat="47.74344" lon="-0.9793">
        <ele>48</ele>
        <time>2021-03-25T02:06:00Z</time>
      </trkpt>
      <trkpt lat="47.74345" lon="-0.97939">
        <ele>48</ele>
        <time>2021-03-25T02:06:01Z</time>
      </trkpt>
      <trkpt lat="47.74345" lon="-0.97947">
        <ele>48</ele>
        <time>2021-03-25T02:06:02Z</time>
      </trkpt>
      <trkpt lat="47.74347" lon="-0.97957">
        <ele>48</ele>
        <time>2021-03-25T02:06:03Z</time>
      </trkpt>
      <trkpt lat="47.74348" lon="-0.97967">
        <ele>48</ele>
        <time>2021-03-25T02:06:04Z</time>
      </trkpt>
      <trkpt lat="47.74352" lon="-0.97987">
        <ele>48</ele>
        <time>2021-03-25T02:06:07Z</time>
      </trkpt>
      <trkpt lat="47.74366" lon="-0.98043">
        <ele>49</ele>
        <time>2021-03-25T02:06:14Z</time>
      </trkpt>
      <trkpt lat="47.74388" lon="-0.98132">
        <ele>48</ele>
        <time>2021-03-25T02:06:25Z</time>
      </trkpt>
      <trkpt lat="47.74422" lon="-0.98274">
        <ele>46</ele>
        <time>2021-03-25T02:06:43Z</time>
      </trkpt>
      <trkpt lat="47.74444" lon="-0.98362">
        <ele>46</ele>
        <time>2021-03-25T02:06:54Z</time>
      </trkpt>
      <trkpt lat="47.74455" lon="-0.98421">
        <ele>47</ele>
        <time>2021-03-25T02:07:02Z</time>
      </trkpt>
      <trkpt lat="47.74464" lon="-0.98482">
        <ele>48</ele>
        <time>2021-03-25T02:07:09Z</time>
      </trkpt>
      <trkpt lat="47.74478" lon="-0.98556">
        <ele>49</ele>
        <time>2021-03-25T02:07:18Z</time>
      </trkpt>
      <trkpt lat="47.74488" lon="-0.98618">
        <ele>50</ele>
        <time>2021-03-25T02:07:26Z</time>
      </trkpt>
      <trkpt lat="47.74501" lon="-0.98693">
        <ele>52</ele>
        <time>2021-03-25T02:07:35Z</time>
      </trkpt>
      <trkpt lat="47.74507" lon="-0.98733">
        <ele>53</ele>
        <time>2021-03-25T02:07:40Z</time>
      </trkpt>
      <trkpt lat="47.74513" lon="-0.98764">
        <ele>54</ele>
        <time>2021-03-25T02:07:44Z</time>
      </trkpt>
      <trkpt lat="47.74515" lon="-0.98777">
        <ele>54</ele>
        <time>2021-03-25T02:07:46Z</time>
      </trkpt>
      <trkpt lat="47.7452" lon="-0.98814">
        <ele>55</ele>
        <time>2021-03-25T02:07:50Z</time>
      </trkpt>
      <trkpt lat="47.74526" lon="-0.98844">
        <ele>55</ele>
        <time>2021-03-25T02:07:54Z</time>
      </trkpt>
      <trkpt lat="47.7453" lon="-0.98861">
        <ele>56</ele>
        <time>2021-03-25T02:07:56Z</time>
      </trkpt>
      <trkpt lat="47.74534" lon="-0.9887">
        <ele>56</ele>
        <time>2021-03-25T02:07:57Z</time>
      </trkpt>
      <trkpt lat="47.7454" lon="-0.98884">
        <ele>56</ele>
        <time>2021-03-25T02:07:59Z</time>
      </trkpt>
      <trkpt lat="47.74551" lon="-0.98903">
        <ele>56</ele>
        <time>2021-03-25T02:08:02Z</time>
      </trkpt>
      <trkpt lat="47.74559" lon="-0.98915">
        <ele>57</ele>
        <time>2021-03-25T02:08:04Z</time>
      </trkpt>
      <trkpt lat="47.74602" lon="-0.9897">
        <ele>56</ele>
        <time>2021-03-25T02:08:14Z</time>
      </trkpt>
      <trkpt lat="47.74622" lon="-0.98995">
        <ele>56</ele>
        <time>2021-03-25T02:08:19Z</time>
      </trkpt>
      <trkpt lat="47.74641" lon="-0.99017">
        <ele>55</ele>
        <time>2021-03-25T02:08:23Z</time>
      </trkpt>
      <trkpt lat="47.74656" lon="-0.9903">
        <ele>55</ele>
        <time>2021-03-25T02:08:26Z</time>
      </trkpt>
      <trkpt lat="47.74676" lon="-0.99041">
        <ele>55</ele>
        <time>2021-03-25T02:08:30Z</time>
      </trkpt>
      <trkpt lat="47.74714" lon="-0.99058">
        <ele>54</ele>
        <time>2021-03-25T02:08:37Z</time>
      </trkpt>
      <trkpt lat="47.74756" lon="-0.99075">
        <ele>54</ele>
        <time>2021-03-25T02:08:45Z</time>
      </trkpt>
      <trkpt lat="47.74781" lon="-0.99085">
        <ele>53</ele>
        <time>2021-03-25T02:08:50Z</time>
      </trkpt>
      <trkpt lat="47.7479" lon="-0.99089">
        <ele>53</ele>
        <time>2021-03-25T02:08:51Z</time>
      </trkpt>
      <trkpt lat="47.74801" lon="-0.991">
        <ele>53</ele>
        <time>2021-03-25T02:08:54Z</time>
      </trkpt>
      <trkpt lat="47.74812" lon="-0.99115">
        <ele>53</ele>
        <time>2021-03-25T02:08:56Z</time>
      </trkpt>
      <trkpt lat="47.74858" lon="-0.99191">
        <ele>52</ele>
        <time>2021-03-25T02:09:09Z</time>
      </trkpt>
      <trkpt lat="47.74861" lon="-0.99196">
        <ele>52</ele>
        <time>2021-03-25T02:09:09Z</time>
      </trkpt>
      <trkpt lat="47.74883" lon="-0.99233">
        <ele>52</ele>
        <time>2021-03-25T02:09:15Z</time>
      </trkpt>
      <trkpt lat="47.74896" lon="-0.99264">
        <ele>53</ele>
        <time>2021-03-25T02:09:20Z</time>
      </trkpt>
      <trkpt lat="47.74914" lon="-0.99303">
        <ele>54</ele>
        <time>2021-03-25T02:09:25Z</time>
      </trkpt>
      <trkpt lat="47.74929" lon="-0.99345">
        <ele>54</ele>
        <time>2021-03-25T02:09:31Z</time>
      </trkpt>
      <trkpt lat="47.74942" lon="-0.99382">
        <ele>54</ele>
        <time>2021-03-25T02:09:36Z</time>
      </trkpt>
      <trkpt lat="47.74949" lon="-0.994">
        <ele>54</ele>
        <time>2021-03-25T02:09:39Z</time>
      </trkpt>
      <trkpt lat="47.74956" lon="-0.99419">
        <ele>54</ele>
        <time>2021-03-25T02:09:41Z</time>
      </trkpt>
      <trkpt lat="47.74963" lon="-0.9944">
        <ele>54</ele>
        <time>2021-03-25T02:09:44Z</time>
      </trkpt>
      <trkpt lat="47.74972" lon="-0.99458">
        <ele>54</ele>
        <time>2021-03-25T02:09:47Z</time>
      </trkpt>
      <trkpt lat="47.7498" lon="-0.99474">
        <ele>54</ele>
        <time>2021-03-25T02:09:49Z</time>
      </trkpt>
      <trkpt lat="47.74986" lon="-0.99487">
        <ele>54</ele>
        <time>2021-03-25T02:09:51Z</time>
      </trkpt>
      <trkpt lat="47.7499" lon="-0.99496">
        <ele>54</ele>
        <time>2021-03-25T02:09:52Z</time>
      </trkpt>
      <trkpt lat="47.74992" lon="-0.99501">
        <ele>54</ele>
        <time>2021-03-25T02:09:53Z</time>
      </trkpt>
      <trkpt lat="47.74999" lon="-0.99515">
        <ele>54</ele>
        <time>2021-03-25T02:09:55Z</time>
      </trkpt>
      <trkpt lat="47.75005" lon="-0.99531">
        <ele>54</ele>
        <time>2021-03-25T02:09:57Z</time>
      </trkpt>
      <trkpt lat="47.75007" lon="-0.99536">
        <ele>54</ele>
        <time>2021-03-25T02:09:58Z</time>
      </trkpt>
      <trkpt lat="47.75011" lon="-0.99549">
        <ele>53</ele>
        <time>2021-03-25T02:10:00Z</time>
      </trkpt>
      <trkpt lat="47.75016" lon="-0.99566">
        <ele>53</ele>
        <time>2021-03-25T02:10:02Z</time>
      </trkpt>
      <trkpt lat="47.75029" lon="-0.99609">
        <ele>53</ele>
        <time>2021-03-25T02:10:07Z</time>
      </trkpt>
      <trkpt lat="47.75035" lon="-0.99625">
        <ele>52</ele>
        <time>2021-03-25T02:10:10Z</time>
      </trkpt>
      <trkpt lat="47.7504" lon="-0.9964">
        <ele>52</ele>
        <time>2021-03-25T02:10:12Z</time>
      </trkpt>
      <trkpt lat="47.75045" lon="-0.99654">
        <ele>52</ele>
        <time>2021-03-25T02:10:13Z</time>
      </trkpt>
      <trkpt lat="47.75051" lon="-0.99669">
        <ele>52</ele>
        <time>2021-03-25T02:10:16Z</time>
      </trkpt>
      <trkpt lat="47.75058" lon="-0.99682">
        <ele>52</ele>
        <time>2021-03-25T02:10:18Z</time>
      </trkpt>
      <trkpt lat="47.75065" lon="-0.99696">
        <ele>52</ele>
        <time>2021-03-25T02:10:20Z</time>
      </trkpt>
      <trkpt lat="47.75077" lon="-0.9972">
        <ele>53</ele>
        <time>2021-03-25T02:10:23Z</time>
      </trkpt>
      <trkpt lat="47.75082" lon="-0.9973">
        <ele>53</ele>
        <time>2021-03-25T02:10:25Z</time>
      </trkpt>
      <trkpt lat="47.75086" lon="-0.99738">
        <ele>53</ele>
        <time>2021-03-25T02:10:26Z</time>
      </trkpt>
      <trkpt lat="47.7509" lon="-0.99746">
        <ele>54</ele>
        <time>2021-03-25T02:10:27Z</time>
      </trkpt>
      <trkpt lat="47.75093" lon="-0.99752">
        <ele>54</ele>
        <time>2021-03-25T02:10:28Z</time>
      </trkpt>
      <trkpt lat="47.75096" lon="-0.99759">
        <ele>54</ele>
        <time>2021-03-25T02:10:29Z</time>
      </trkpt>
      <trkpt lat="47.75097" lon="-0.99766">
        <ele>53</ele>
        <time>2021-03-25T02:10:30Z</time>
      </trkpt>
      <trkpt lat="47.75098" lon="-0.99768">
        <ele>53</ele>
        <time>2021-03-25T02:10:30Z</time>
      </trkpt>
      <trkpt lat="47.75099" lon="-0.99774">
        <ele>53</ele>
        <time>2021-03-25T02:10:31Z</time>
      </trkpt>
      <trkpt lat="47.75099" lon="-0.99784">
        <ele>53</ele>
        <time>2021-03-25T02:10:32Z</time>
      </trkpt>
      <trkpt lat="47.75097" lon="-0.99801">
        <ele>53</ele>
        <time>2021-03-25T02:10:34Z</time>
      </trkpt>
      <trkpt lat="47.75095" lon="-0.9981">
        <ele>53</ele>
        <time>2021-03-25T02:10:35Z</time>
      </trkpt>
      <trkpt lat="47.75091" lon="-0.99827">
        <ele>54</ele>
        <time>2021-03-25T02:10:37Z</time>
      </trkpt>
      <trkpt lat="47.75077" lon="-0.99875">
        <ele>53</ele>
        <time>2021-03-25T02:10:44Z</time>
      </trkpt>
      <trkpt lat="47.75061" lon="-0.9993">
        <ele>53</ele>
        <time>2021-03-25T02:10:51Z</time>
      </trkpt>
      <trkpt lat="47.75051" lon="-0.99968">
        <ele>54</ele>
        <time>2021-03-25T02:10:56Z</time>
      </trkpt>
      <trkpt lat="47.75049" lon="-0.99973">
        <ele>54</ele>
        <time>2021-03-25T02:10:56Z</time>
      </trkpt>
      <trkpt lat="47.75048" lon="-0.99976">
        <ele>54</ele>
        <time>2021-03-25T02:10:57Z</time>
      </trkpt>
      <trkpt lat="47.75046" lon="-0.99987">
        <ele>54</ele>
        <time>2021-03-25T02:10:58Z</time>
      </trkpt>
      <trkpt lat="47.75044" lon="-0.99998">
        <ele>54</ele>
        <time>2021-03-25T02:11:00Z</time>
      </trkpt>
      <trkpt lat="47.75043" lon="-1.00008">
        <ele>55</ele>
        <time>2021-03-25T02:11:01Z</time>
      </trkpt>
      <trkpt lat="47.75042" lon="-1.00018">
        <ele>55</ele>
        <time>2021-03-25T02:11:02Z</time>
      </trkpt>
      <trkpt lat="47.75042" lon="-1.00026">
        <ele>55</ele>
        <time>2021-03-25T02:11:03Z</time>
      </trkpt>
      <trkpt lat="47.75042" lon="-1.00037">
        <ele>56</ele>
        <time>2021-03-25T02:11:04Z</time>
      </trkpt>
      <trkpt lat="47.75043" lon="-1.00048">
        <ele>56</ele>
        <time>2021-03-25T02:11:06Z</time>
      </trkpt>
      <trkpt lat="47.75044" lon="-1.00057">
        <ele>56</ele>
        <time>2021-03-25T02:11:07Z</time>
      </trkpt>
      <trkpt lat="47.7505" lon="-1.00085">
        <ele>57</ele>
        <time>2021-03-25T02:11:10Z</time>
      </trkpt>
      <trkpt lat="47.75056" lon="-1.00115">
        <ele>57</ele>
        <time>2021-03-25T02:11:14Z</time>
      </trkpt>
      <trkpt lat="47.75062" lon="-1.00146">
        <ele>58</ele>
        <time>2021-03-25T02:11:18Z</time>
      </trkpt>
      <trkpt lat="47.75066" lon="-1.0017">
        <ele>59</ele>
        <time>2021-03-25T02:11:21Z</time>
      </trkpt>
      <trkpt lat="47.75069" lon="-1.00192">
        <ele>59</ele>
        <time>2021-03-25T02:11:23Z</time>
      </trkpt>
      <trkpt lat="47.75069" lon="-1.00218">
        <ele>59</ele>
        <time>2021-03-25T02:11:27Z</time>
      </trkpt>
      <trkpt lat="47.75068" lon="-1.00257">
        <ele>60</ele>
        <time>2021-03-25T02:11:31Z</time>
      </trkpt>
      <trkpt lat="47.75067" lon="-1.00289">
        <ele>60</ele>
        <time>2021-03-25T02:11:35Z</time>
      </trkpt>
      <trkpt lat="47.75067" lon="-1.00308">
        <ele>61</ele>
        <time>2021-03-25T02:11:37Z</time>
      </trkpt>
      <trkpt lat="47.75067" lon="-1.00323">
        <ele>61</ele>
        <time>2021-03-25T02:11:39Z</time>
      </trkpt>
      <trkpt lat="47.75068" lon="-1.00335">
        <ele>61</ele>
        <time>2021-03-25T02:11:41Z</time>
      </trkpt>
      <trkpt lat="47.75068" lon="-1.00339">
        <ele>62</ele>
        <time>2021-03-25T02:11:41Z</time>
      </trkpt>
      <trkpt lat="47.7507" lon="-1.00357">
        <ele>62</ele>
        <time>2021-03-25T02:11:43Z</time>
      </trkpt>
      <trkpt lat="47.75072" lon="-1.00377">
        <ele>63</ele>
        <time>2021-03-25T02:11:46Z</time>
      </trkpt>
      <trkpt lat="47.75075" lon="-1.00409">
        <ele>64</ele>
        <time>2021-03-25T02:11:50Z</time>
      </trkpt>
      <trkpt lat="47.75078" lon="-1.00443">
        <ele>64</ele>
        <time>2021-03-25T02:11:54Z</time>
      </trkpt>
      <trkpt lat="47.7508" lon="-1.00465">
        <ele>64</ele>
        <time>2021-03-25T02:11:56Z</time>
      </trkpt>
      <trkpt lat="47.75082" lon="-1.00498">
        <ele>64</ele>
        <time>2021-03-25T02:12:00Z</time>
      </trkpt>
      <trkpt lat="47.75083" lon="-1.0054">
        <ele>64</ele>
        <time>2021-03-25T02:12:05Z</time>
      </trkpt>
      <trkpt lat="47.75085" lon="-1.00575">
        <ele>65</ele>
        <time>2021-03-25T02:12:09Z</time>
      </trkpt>
      <trkpt lat="47.75087" lon="-1.00596">
        <ele>65</ele>
        <time>2021-03-25T02:12:12Z</time>
      </trkpt>
      <trkpt lat="47.75089" lon="-1.00616">
        <ele>65</ele>
        <time>2021-03-25T02:12:14Z</time>
      </trkpt>
      <trkpt lat="47.75091" lon="-1.00642">
        <ele>65</ele>
        <time>2021-03-25T02:12:18Z</time>
      </trkpt>
      <trkpt lat="47.75096" lon="-1.00673">
        <ele>65</ele>
        <time>2021-03-25T02:12:21Z</time>
      </trkpt>
      <trkpt lat="47.75099" lon="-1.00701">
        <ele>65</ele>
        <time>2021-03-25T02:12:25Z</time>
      </trkpt>
      <trkpt lat="47.75102" lon="-1.00721">
        <ele>65</ele>
        <time>2021-03-25T02:12:27Z</time>
      </trkpt>
      <trkpt lat="47.75106" lon="-1.00748">
        <ele>65</ele>
        <time>2021-03-25T02:12:31Z</time>
      </trkpt>
      <trkpt lat="47.75109" lon="-1.00774">
        <ele>65</ele>
        <time>2021-03-25T02:12:34Z</time>
      </trkpt>
      <trkpt lat="47.75113" lon="-1.00813">
        <ele>65</ele>
        <time>2021-03-25T02:12:38Z</time>
      </trkpt>
      <trkpt lat="47.75116" lon="-1.00842">
        <ele>65</ele>
        <time>2021-03-25T02:12:42Z</time>
      </trkpt>
      <trkpt lat="47.7512" lon="-1.00892">
        <ele>64</ele>
        <time>2021-03-25T02:12:48Z</time>
      </trkpt>
      <trkpt lat="47.75122" lon="-1.00915">
        <ele>64</ele>
        <time>2021-03-25T02:12:51Z</time>
      </trkpt>
      <trkpt lat="47.75122" lon="-1.0093">
        <ele>63</ele>
        <time>2021-03-25T02:12:52Z</time>
      </trkpt>
      <trkpt lat="47.75122" lon="-1.00944">
        <ele>63</ele>
        <time>2021-03-25T02:12:54Z</time>
      </trkpt>
      <trkpt lat="47.75122" lon="-1.00958">
        <ele>62</ele>
        <time>2021-03-25T02:12:56Z</time>
      </trkpt>
      <trkpt lat="47.75121" lon="-1.00972">
        <ele>62</ele>
        <time>2021-03-25T02:12:58Z</time>
      </trkpt>
      <trkpt lat="47.75119" lon="-1.00985">
        <ele>61</ele>
        <time>2021-03-25T02:12:59Z</time>
      </trkpt>
      <trkpt lat="47.75118" lon="-1.0099">
        <ele>61</ele>
        <time>2021-03-25T02:13:00Z</time>
      </trkpt>
      <trkpt lat="47.75116" lon="-1.01001">
        <ele>61</ele>
        <time>2021-03-25T02:13:01Z</time>
      </trkpt>
      <trkpt lat="47.75103" lon="-1.0107">
        <ele>60</ele>
        <time>2021-03-25T02:13:10Z</time>
      </trkpt>
      <trkpt lat="47.75094" lon="-1.01119">
        <ele>60</ele>
        <time>2021-03-25T02:13:16Z</time>
      </trkpt>
      <trkpt lat="47.75088" lon="-1.01148">
        <ele>60</ele>
        <time>2021-03-25T02:13:19Z</time>
      </trkpt>
      <trkpt lat="47.75087" lon="-1.01154">
        <ele>60</ele>
        <time>2021-03-25T02:13:20Z</time>
      </trkpt>
      <trkpt lat="47.75086" lon="-1.01161">
        <ele>60</ele>
        <time>2021-03-25T02:13:21Z</time>
      </trkpt>
      <trkpt lat="47.75083" lon="-1.01174">
        <ele>60</ele>
        <time>2021-03-25T02:13:23Z</time>
      </trkpt>
      <trkpt lat="47.75078" lon="-1.01199">
        <ele>61</ele>
        <time>2021-03-25T02:13:26Z</time>
      </trkpt>
      <trkpt lat="47.75076" lon="-1.01214">
        <ele>62</ele>
        <time>2021-03-25T02:13:28Z</time>
      </trkpt>
      <trkpt lat="47.75073" lon="-1.01229">
        <ele>63</ele>
        <time>2021-03-25T02:13:29Z</time>
      </trkpt>
      <trkpt lat="47.75072" lon="-1.01244">
        <ele>63</ele>
        <time>2021-03-25T02:13:31Z</time>
      </trkpt>
      <trkpt lat="47.75071" lon="-1.01257">
        <ele>64</ele>
        <time>2021-03-25T02:13:33Z</time>
      </trkpt>
      <trkpt lat="47.7507" lon="-1.01271">
        <ele>65</ele>
        <time>2021-03-25T02:13:35Z</time>
      </trkpt>
      <trkpt lat="47.75069" lon="-1.01299">
        <ele>66</ele>
        <time>2021-03-25T02:13:38Z</time>
      </trkpt>
      <trkpt lat="47.75069" lon="-1.01319">
        <ele>66</ele>
        <time>2021-03-25T02:13:40Z</time>
      </trkpt>
      <trkpt lat="47.75069" lon="-1.01337">
        <ele>67</ele>
        <time>2021-03-25T02:13:42Z</time>
      </trkpt>
      <trkpt lat="47.75069" lon="-1.01353">
        <ele>67</ele>
        <time>2021-03-25T02:13:44Z</time>
      </trkpt>
      <trkpt lat="47.75069" lon="-1.0137">
        <ele>67</ele>
        <time>2021-03-25T02:13:46Z</time>
      </trkpt>
      <trkpt lat="47.75069" lon="-1.01386">
        <ele>67</ele>
        <time>2021-03-25T02:13:48Z</time>
      </trkpt>
      <trkpt lat="47.75069" lon="-1.01401">
        <ele>68</ele>
        <time>2021-03-25T02:13:50Z</time>
      </trkpt>
      <trkpt lat="47.75069" lon="-1.01417">
        <ele>68</ele>
        <time>2021-03-25T02:13:52Z</time>
      </trkpt>
      <trkpt lat="47.7507" lon="-1.0143">
        <ele>68</ele>
        <time>2021-03-25T02:13:54Z</time>
      </trkpt>
      <trkpt lat="47.75071" lon="-1.01441">
        <ele>67</ele>
        <time>2021-03-25T02:13:55Z</time>
      </trkpt>
      <trkpt lat="47.75073" lon="-1.01451">
        <ele>67</ele>
        <time>2021-03-25T02:13:56Z</time>
      </trkpt>
      <trkpt lat="47.75074" lon="-1.01455">
        <ele>67</ele>
        <time>2021-03-25T02:13:57Z</time>
      </trkpt>
      <trkpt lat="47.75077" lon="-1.01467">
        <ele>66</ele>
        <time>2021-03-25T02:13:58Z</time>
      </trkpt>
      <trkpt lat="47.75097" lon="-1.01526">
        <ele>65</ele>
        <time>2021-03-25T02:14:06Z</time>
      </trkpt>
      <trkpt lat="47.75132" lon="-1.01637">
        <ele>62</ele>
        <time>2021-03-25T02:14:21Z</time>
      </trkpt>
      <trkpt lat="47.75154" lon="-1.01701">
        <ele>61</ele>
        <time>2021-03-25T02:14:29Z</time>
      </trkpt>
      <trkpt lat="47.75168" lon="-1.01735">
        <ele>61</ele>
        <time>2021-03-25T02:14:34Z</time>
      </trkpt>
      <trkpt lat="47.75175" lon="-1.01755">
        <ele>60</ele>
        <time>2021-03-25T02:14:37Z</time>
      </trkpt>
      <trkpt lat="47.75185" lon="-1.01774">
        <ele>60</ele>
        <time>2021-03-25T02:14:40Z</time>
      </trkpt>
      <trkpt lat="47.75193" lon="-1.01793">
        <ele>59</ele>
        <time>2021-03-25T02:14:42Z</time>
      </trkpt>
      <trkpt lat="47.75202" lon="-1.01813">
        <ele>59</ele>
        <time>2021-03-25T02:14:45Z</time>
      </trkpt>
      <trkpt lat="47.75209" lon="-1.0183">
        <ele>58</ele>
        <time>2021-03-25T02:14:48Z</time>
      </trkpt>
      <trkpt lat="47.75212" lon="-1.0184">
        <ele>58</ele>
        <time>2021-03-25T02:14:49Z</time>
      </trkpt>
      <trkpt lat="47.75218" lon="-1.01857">
        <ele>57</ele>
        <time>2021-03-25T02:14:51Z</time>
      </trkpt>
      <trkpt lat="47.7522" lon="-1.01868">
        <ele>56</ele>
        <time>2021-03-25T02:14:53Z</time>
      </trkpt>
      <trkpt lat="47.75224" lon="-1.01888">
        <ele>56</ele>
        <time>2021-03-25T02:14:55Z</time>
      </trkpt>
      <trkpt lat="47.75225" lon="-1.01901">
        <ele>56</ele>
        <time>2021-03-25T02:14:57Z</time>
      </trkpt>
      <trkpt lat="47.75227" lon="-1.01921">
        <ele>55</ele>
        <time>2021-03-25T02:14:59Z</time>
      </trkpt>
      <trkpt lat="47.75226" lon="-1.01931">
        <ele>55</ele>
        <time>2021-03-25T02:15:00Z</time>
      </trkpt>
      <trkpt lat="47.75226" lon="-1.01943">
        <ele>55</ele>
        <time>2021-03-25T02:15:02Z</time>
      </trkpt>
      <trkpt lat="47.75225" lon="-1.01953">
        <ele>55</ele>
        <time>2021-03-25T02:15:03Z</time>
      </trkpt>
      <trkpt lat="47.75224" lon="-1.01964">
        <ele>55</ele>
        <time>2021-03-25T02:15:04Z</time>
      </trkpt>
      <trkpt lat="47.75222" lon="-1.01975">
        <ele>55</ele>
        <time>2021-03-25T02:15:06Z</time>
      </trkpt>
      <trkpt lat="47.75219" lon="-1.01984">
        <ele>55</ele>
        <time>2021-03-25T02:15:07Z</time>
      </trkpt>
      <trkpt lat="47.75218" lon="-1.01994">
        <ele>55</ele>
        <time>2021-03-25T02:15:08Z</time>
      </trkpt>
      <trkpt lat="47.75215" lon="-1.02003">
        <ele>55</ele>
        <time>2021-03-25T02:15:09Z</time>
      </trkpt>
      <trkpt lat="47.75213" lon="-1.02012">
        <ele>56</ele>
        <time>2021-03-25T02:15:10Z</time>
      </trkpt>
      <trkpt lat="47.75212" lon="-1.02021">
        <ele>56</ele>
        <time>2021-03-25T02:15:11Z</time>
      </trkpt>
      <trkpt lat="47.75209" lon="-1.02032">
        <ele>56</ele>
        <time>2021-03-25T02:15:13Z</time>
      </trkpt>
      <trkpt lat="47.75208" lon="-1.02043">
        <ele>57</ele>
        <time>2021-03-25T02:15:14Z</time>
      </trkpt>
      <trkpt lat="47.75206" lon="-1.02054">
        <ele>57</ele>
        <time>2021-03-25T02:15:16Z</time>
      </trkpt>
      <trkpt lat="47.75204" lon="-1.02064">
        <ele>57</ele>
        <time>2021-03-25T02:15:17Z</time>
      </trkpt>
      <trkpt lat="47.75204" lon="-1.02073">
        <ele>57</ele>
        <time>2021-03-25T02:15:18Z</time>
      </trkpt>
      <trkpt lat="47.75204" lon="-1.02081">
        <ele>57</ele>
        <time>2021-03-25T02:15:19Z</time>
      </trkpt>
      <trkpt lat="47.75204" lon="-1.02089">
        <ele>58</ele>
        <time>2021-03-25T02:15:20Z</time>
      </trkpt>
      <trkpt lat="47.75206" lon="-1.02102">
        <ele>58</ele>
        <time>2021-03-25T02:15:21Z</time>
      </trkpt>
      <trkpt lat="47.75212" lon="-1.02135">
        <ele>58</ele>
        <time>2021-03-25T02:15:25Z</time>
      </trkpt>
      <trkpt lat="47.75218" lon="-1.02161">
        <ele>59</ele>
        <time>2021-03-25T02:15:29Z</time>
      </trkpt>
      <trkpt lat="47.75223" lon="-1.02185">
        <ele>60</ele>
        <time>2021-03-25T02:15:32Z</time>
      </trkpt>
      <trkpt lat="47.75225" lon="-1.02198">
        <ele>60</ele>
        <time>2021-03-25T02:15:33Z</time>
      </trkpt>
      <trkpt lat="47.75228" lon="-1.02207">
        <ele>60</ele>
        <time>2021-03-25T02:15:35Z</time>
      </trkpt>
      <trkpt lat="47.75231" lon="-1.02216">
        <ele>60</ele>
        <time>2021-03-25T02:15:36Z</time>
      </trkpt>
      <trkpt lat="47.75235" lon="-1.02225">
        <ele>61</ele>
        <time>2021-03-25T02:15:37Z</time>
      </trkpt>
      <trkpt lat="47.75239" lon="-1.02234">
        <ele>61</ele>
        <time>2021-03-25T02:15:38Z</time>
      </trkpt>
      <trkpt lat="47.75244" lon="-1.02245">
        <ele>61</ele>
        <time>2021-03-25T02:15:40Z</time>
      </trkpt>
      <trkpt lat="47.7525" lon="-1.02255">
        <ele>61</ele>
        <time>2021-03-25T02:15:42Z</time>
      </trkpt>
      <trkpt lat="47.75254" lon="-1.02268">
        <ele>61</ele>
        <time>2021-03-25T02:15:43Z</time>
      </trkpt>
      <trkpt lat="47.75259" lon="-1.02278">
        <ele>60</ele>
        <time>2021-03-25T02:15:45Z</time>
      </trkpt>
      <trkpt lat="47.75263" lon="-1.02293">
        <ele>60</ele>
        <time>2021-03-25T02:15:47Z</time>
      </trkpt>
      <trkpt lat="47.75266" lon="-1.02305">
        <ele>60</ele>
        <time>2021-03-25T02:15:48Z</time>
      </trkpt>
      <trkpt lat="47.75268" lon="-1.0232">
        <ele>60</ele>
        <time>2021-03-25T02:15:50Z</time>
      </trkpt>
      <trkpt lat="47.75269" lon="-1.02335">
        <ele>60</ele>
        <time>2021-03-25T02:15:52Z</time>
      </trkpt>
      <trkpt lat="47.75269" lon="-1.02349">
        <ele>60</ele>
        <time>2021-03-25T02:15:54Z</time>
      </trkpt>
      <trkpt lat="47.7527" lon="-1.02364">
        <ele>60</ele>
        <time>2021-03-25T02:15:55Z</time>
      </trkpt>
      <trkpt lat="47.7527" lon="-1.02366">
        <ele>60</ele>
        <time>2021-03-25T02:15:56Z</time>
      </trkpt>
      <trkpt lat="47.7527" lon="-1.02384">
        <ele>60</ele>
        <time>2021-03-25T02:15:58Z</time>
      </trkpt>
      <trkpt lat="47.75271" lon="-1.02401">
        <ele>60</ele>
        <time>2021-03-25T02:16:00Z</time>
      </trkpt>
      <trkpt lat="47.7527" lon="-1.02417">
        <ele>61</ele>
        <time>2021-03-25T02:16:02Z</time>
      </trkpt>
      <trkpt lat="47.75269" lon="-1.02432">
        <ele>61</ele>
        <time>2021-03-25T02:16:03Z</time>
      </trkpt>
      <trkpt lat="47.75268" lon="-1.02438">
        <ele>61</ele>
        <time>2021-03-25T02:16:04Z</time>
      </trkpt>
      <trkpt lat="47.75268" lon="-1.02443">
        <ele>61</ele>
        <time>2021-03-25T02:16:05Z</time>
      </trkpt>
      <trkpt lat="47.75265" lon="-1.02456">
        <ele>61</ele>
        <time>2021-03-25T02:16:06Z</time>
      </trkpt>
      <trkpt lat="47.75262" lon="-1.02468">
        <ele>61</ele>
        <time>2021-03-25T02:16:08Z</time>
      </trkpt>
      <trkpt lat="47.75257" lon="-1.02489">
        <ele>61</ele>
        <time>2021-03-25T02:16:11Z</time>
      </trkpt>
      <trkpt lat="47.75237" lon="-1.02559">
        <ele>62</ele>
        <time>2021-03-25T02:16:20Z</time>
      </trkpt>
      <trkpt lat="47.75224" lon="-1.02602">
        <ele>62</ele>
        <time>2021-03-25T02:16:25Z</time>
      </trkpt>
      <trkpt lat="47.7522" lon="-1.02613">
        <ele>62</ele>
        <time>2021-03-25T02:16:27Z</time>
      </trkpt>
      <trkpt lat="47.75218" lon="-1.02621">
        <ele>62</ele>
        <time>2021-03-25T02:16:28Z</time>
      </trkpt>
      <trkpt lat="47.75216" lon="-1.02629">
        <ele>62</ele>
        <time>2021-03-25T02:16:29Z</time>
      </trkpt>
      <trkpt lat="47.75213" lon="-1.0264">
        <ele>62</ele>
        <time>2021-03-25T02:16:30Z</time>
      </trkpt>
      <trkpt lat="47.7521" lon="-1.0265">
        <ele>62</ele>
        <time>2021-03-25T02:16:32Z</time>
      </trkpt>
      <trkpt lat="47.75202" lon="-1.02686">
        <ele>62</ele>
        <time>2021-03-25T02:16:36Z</time>
      </trkpt>
      <trkpt lat="47.75186" lon="-1.02757">
        <ele>63</ele>
        <time>2021-03-25T02:16:45Z</time>
      </trkpt>
      <trkpt lat="47.75178" lon="-1.02799">
        <ele>64</ele>
        <time>2021-03-25T02:16:50Z</time>
      </trkpt>
      <trkpt lat="47.75176" lon="-1.0281">
        <ele>64</ele>
        <time>2021-03-25T02:16:52Z</time>
      </trkpt>
      <trkpt lat="47.75174" lon="-1.02821">
        <ele>65</ele>
        <time>2021-03-25T02:16:53Z</time>
      </trkpt>
      <trkpt lat="47.75173" lon="-1.02832">
        <ele>65</ele>
        <time>2021-03-25T02:16:54Z</time>
      </trkpt>
      <trkpt lat="47.75172" lon="-1.02843">
        <ele>65</ele>
        <time>2021-03-25T02:16:56Z</time>
      </trkpt>
      <trkpt lat="47.75171" lon="-1.0286">
        <ele>66</ele>
        <time>2021-03-25T02:16:58Z</time>
      </trkpt>
      <trkpt lat="47.75171" lon="-1.0288">
        <ele>66</ele>
        <time>2021-03-25T02:17:00Z</time>
      </trkpt>
      <trkpt lat="47.75171" lon="-1.02893">
        <ele>66</ele>
        <time>2021-03-25T02:17:02Z</time>
      </trkpt>
      <trkpt lat="47.75171" lon="-1.02907">
        <ele>67</ele>
        <time>2021-03-25T02:17:03Z</time>
      </trkpt>
      <trkpt lat="47.7517" lon="-1.02922">
        <ele>67</ele>
        <time>2021-03-25T02:17:05Z</time>
      </trkpt>
      <trkpt lat="47.7517" lon="-1.02935">
        <ele>66</ele>
        <time>2021-03-25T02:17:07Z</time>
      </trkpt>
      <trkpt lat="47.75169" lon="-1.02949">
        <ele>66</ele>
        <time>2021-03-25T02:17:08Z</time>
      </trkpt>
      <trkpt lat="47.75167" lon="-1.02961">
        <ele>66</ele>
        <time>2021-03-25T02:17:10Z</time>
      </trkpt>
      <trkpt lat="47.75166" lon="-1.02974">
        <ele>66</ele>
        <time>2021-03-25T02:17:12Z</time>
      </trkpt>
      <trkpt lat="47.75159" lon="-1.03016">
        <ele>66</ele>
        <time>2021-03-25T02:17:17Z</time>
      </trkpt>
      <trkpt lat="47.75147" lon="-1.03101">
        <ele>68</ele>
        <time>2021-03-25T02:17:27Z</time>
      </trkpt>
      <trkpt lat="47.75134" lon="-1.03189">
        <ele>67</ele>
        <time>2021-03-25T02:17:38Z</time>
      </trkpt>
      <trkpt lat="47.75128" lon="-1.03236">
        <ele>67</ele>
        <time>2021-03-25T02:17:44Z</time>
      </trkpt>
      <trkpt lat="47.75126" lon="-1.0325">
        <ele>67</ele>
        <time>2021-03-25T02:17:45Z</time>
      </trkpt>
      <trkpt lat="47.75125" lon="-1.03263">
        <ele>67</ele>
        <time>2021-03-25T02:17:47Z</time>
      </trkpt>
      <trkpt lat="47.75124" lon="-1.03276">
        <ele>67</ele>
        <time>2021-03-25T02:17:48Z</time>
      </trkpt>
      <trkpt lat="47.75123" lon="-1.03289">
        <ele>67</ele>
        <time>2021-03-25T02:17:50Z</time>
      </trkpt>
      <trkpt lat="47.75123" lon="-1.03301">
        <ele>67</ele>
        <time>2021-03-25T02:17:51Z</time>
      </trkpt>
      <trkpt lat="47.75123" lon="-1.03316">
        <ele>67</ele>
        <time>2021-03-25T02:17:53Z</time>
      </trkpt>
      <trkpt lat="47.75123" lon="-1.0333">
        <ele>67</ele>
        <time>2021-03-25T02:17:55Z</time>
      </trkpt>
      <trkpt lat="47.75123" lon="-1.03343">
        <ele>66</ele>
        <time>2021-03-25T02:17:56Z</time>
      </trkpt>
      <trkpt lat="47.75123" lon="-1.03357">
        <ele>66</ele>
        <time>2021-03-25T02:17:58Z</time>
      </trkpt>
      <trkpt lat="47.75123" lon="-1.03368">
        <ele>66</ele>
        <time>2021-03-25T02:17:59Z</time>
      </trkpt>
      <trkpt lat="47.75122" lon="-1.0338">
        <ele>66</ele>
        <time>2021-03-25T02:18:01Z</time>
      </trkpt>
      <trkpt lat="47.75121" lon="-1.0339">
        <ele>66</ele>
        <time>2021-03-25T02:18:02Z</time>
      </trkpt>
      <trkpt lat="47.75121" lon="-1.03393">
        <ele>66</ele>
        <time>2021-03-25T02:18:02Z</time>
      </trkpt>
      <trkpt lat="47.7512" lon="-1.03407">
        <ele>66</ele>
        <time>2021-03-25T02:18:04Z</time>
      </trkpt>
      <trkpt lat="47.75119" lon="-1.03419">
        <ele>66</ele>
        <time>2021-03-25T02:18:06Z</time>
      </trkpt>
      <trkpt lat="47.75118" lon="-1.03432">
        <ele>65</ele>
        <time>2021-03-25T02:18:07Z</time>
      </trkpt>
      <trkpt lat="47.75117" lon="-1.03442">
        <ele>65</ele>
        <time>2021-03-25T02:18:08Z</time>
      </trkpt>
      <trkpt lat="47.75116" lon="-1.03452">
        <ele>65</ele>
        <time>2021-03-25T02:18:10Z</time>
      </trkpt>
      <trkpt lat="47.75115" lon="-1.03462">
        <ele>65</ele>
        <time>2021-03-25T02:18:11Z</time>
      </trkpt>
      <trkpt lat="47.75114" lon="-1.03471">
        <ele>65</ele>
        <time>2021-03-25T02:18:12Z</time>
      </trkpt>
      <trkpt lat="47.75115" lon="-1.0348">
        <ele>64</ele>
        <time>2021-03-25T02:18:13Z</time>
      </trkpt>
      <trkpt lat="47.75115" lon="-1.03491">
        <ele>64</ele>
        <time>2021-03-25T02:18:14Z</time>
      </trkpt>
      <trkpt lat="47.75117" lon="-1.03515">
        <ele>64</ele>
        <time>2021-03-25T02:18:17Z</time>
      </trkpt>
      <trkpt lat="47.75119" lon="-1.03539">
        <ele>64</ele>
        <time>2021-03-25T02:18:20Z</time>
      </trkpt>
      <trkpt lat="47.7512" lon="-1.03558">
        <ele>63</ele>
        <time>2021-03-25T02:18:22Z</time>
      </trkpt>
      <trkpt lat="47.7512" lon="-1.0357">
        <ele>63</ele>
        <time>2021-03-25T02:18:24Z</time>
      </trkpt>
      <trkpt lat="47.75119" lon="-1.03582">
        <ele>63</ele>
        <time>2021-03-25T02:18:25Z</time>
      </trkpt>
      <trkpt lat="47.75118" lon="-1.03593">
        <ele>63</ele>
        <time>2021-03-25T02:18:27Z</time>
      </trkpt>
      <trkpt lat="47.75117" lon="-1.03606">
        <ele>63</ele>
        <time>2021-03-25T02:18:28Z</time>
      </trkpt>
      <trkpt lat="47.75116" lon="-1.03616">
        <ele>63</ele>
        <time>2021-03-25T02:18:29Z</time>
      </trkpt>
      <trkpt lat="47.75115" lon="-1.03623">
        <ele>63</ele>
        <time>2021-03-25T02:18:30Z</time>
      </trkpt>
      <trkpt lat="47.75114" lon="-1.03631">
        <ele>63</ele>
        <time>2021-03-25T02:18:31Z</time>
      </trkpt>
      <trkpt lat="47.75114" lon="-1.03636">
        <ele>63</ele>
        <time>2021-03-25T02:18:32Z</time>
      </trkpt>
      <trkpt lat="47.75114" lon="-1.03638">
        <ele>63</ele>
        <time>2021-03-25T02:18:32Z</time>
      </trkpt>
      <trkpt lat="47.75114" lon="-1.03644">
        <ele>63</ele>
        <time>2021-03-25T02:18:33Z</time>
      </trkpt>
      <trkpt lat="47.75115" lon="-1.03654">
        <ele>63</ele>
        <time>2021-03-25T02:18:34Z</time>
      </trkpt>
      <trkpt lat="47.75117" lon="-1.03672">
        <ele>63</ele>
        <time>2021-03-25T02:18:36Z</time>
      </trkpt>
      <trkpt lat="47.7512" lon="-1.03698">
        <ele>63</ele>
        <time>2021-03-25T02:18:39Z</time>
      </trkpt>
      <trkpt lat="47.75122" lon="-1.03718">
        <ele>63</ele>
        <time>2021-03-25T02:18:42Z</time>
      </trkpt>
      <trkpt lat="47.75126" lon="-1.03754">
        <ele>63</ele>
        <time>2021-03-25T02:18:46Z</time>
      </trkpt>
      <trkpt lat="47.75133" lon="-1.03816">
        <ele>64</ele>
        <time>2021-03-25T02:18:54Z</time>
      </trkpt>
      <trkpt lat="47.75139" lon="-1.03858">
        <ele>65</ele>
        <time>2021-03-25T02:18:59Z</time>
      </trkpt>
      <trkpt lat="47.75151" lon="-1.0392">
        <ele>64</ele>
        <time>2021-03-25T02:19:06Z</time>
      </trkpt>
      <trkpt lat="47.75154" lon="-1.03936">
        <ele>64</ele>
        <time>2021-03-25T02:19:08Z</time>
      </trkpt>
      <trkpt lat="47.75155" lon="-1.03939">
        <ele>64</ele>
        <time>2021-03-25T02:19:09Z</time>
      </trkpt>
      <trkpt lat="47.75157" lon="-1.03953">
        <ele>65</ele>
        <time>2021-03-25T02:19:11Z</time>
      </trkpt>
      <trkpt lat="47.75158" lon="-1.03967">
        <ele>65</ele>
        <time>2021-03-25T02:19:12Z</time>
      </trkpt>
      <trkpt lat="47.7516" lon="-1.03983">
        <ele>65</ele>
        <time>2021-03-25T02:19:14Z</time>
      </trkpt>
      <trkpt lat="47.75163" lon="-1.04009">
        <ele>65</ele>
        <time>2021-03-25T02:19:17Z</time>
      </trkpt>
      <trkpt lat="47.75168" lon="-1.04069">
        <ele>64</ele>
        <time>2021-03-25T02:19:25Z</time>
      </trkpt>
      <trkpt lat="47.75173" lon="-1.04116">
        <ele>64</ele>
        <time>2021-03-25T02:19:30Z</time>
      </trkpt>
      <trkpt lat="47.75176" lon="-1.0414">
        <ele>64</ele>
        <time>2021-03-25T02:19:33Z</time>
      </trkpt>
      <trkpt lat="47.7518" lon="-1.04161">
        <ele>64</ele>
        <time>2021-03-25T02:19:36Z</time>
      </trkpt>
      <trkpt lat="47.75188" lon="-1.04182">
        <ele>64</ele>
        <time>2021-03-25T02:19:39Z</time>
      </trkpt>
      <trkpt lat="47.75197" lon="-1.04197">
        <ele>64</ele>
        <time>2021-03-25T02:19:41Z</time>
      </trkpt>
      <trkpt lat="47.75205" lon="-1.04207">
        <ele>64</ele>
        <time>2021-03-25T02:19:43Z</time>
      </trkpt>
      <trkpt lat="47.75228" lon="-1.04238">
        <ele>63</ele>
        <time>2021-03-25T02:19:48Z</time>
      </trkpt>
      <trkpt lat="47.75249" lon="-1.0427">
        <ele>63</ele>
        <time>2021-03-25T02:19:54Z</time>
      </trkpt>
      <trkpt lat="47.75267" lon="-1.04299">
        <ele>61</ele>
        <time>2021-03-25T02:19:59Z</time>
      </trkpt>
      <trkpt lat="47.75282" lon="-1.04326">
        <ele>60</ele>
        <time>2021-03-25T02:20:03Z</time>
      </trkpt>
      <trkpt lat="47.75293" lon="-1.04352">
        <ele>60</ele>
        <time>2021-03-25T02:20:06Z</time>
      </trkpt>
      <trkpt lat="47.753" lon="-1.04382">
        <ele>59</ele>
        <time>2021-03-25T02:20:10Z</time>
      </trkpt>
      <trkpt lat="47.75304" lon="-1.04411">
        <ele>58</ele>
        <time>2021-03-25T02:20:14Z</time>
      </trkpt>
      <trkpt lat="47.75307" lon="-1.04436">
        <ele>58</ele>
        <time>2021-03-25T02:20:17Z</time>
      </trkpt>
      <trkpt lat="47.75311" lon="-1.04488">
        <ele>58</ele>
        <time>2021-03-25T02:20:23Z</time>
      </trkpt>
      <trkpt lat="47.75316" lon="-1.04531">
        <ele>58</ele>
        <time>2021-03-25T02:20:28Z</time>
      </trkpt>
      <trkpt lat="47.75321" lon="-1.04563">
        <ele>58</ele>
        <time>2021-03-25T02:20:32Z</time>
      </trkpt>
      <trkpt lat="47.75327" lon="-1.04587">
        <ele>58</ele>
        <time>2021-03-25T02:20:35Z</time>
      </trkpt>
      <trkpt lat="47.75343" lon="-1.04642">
        <ele>59</ele>
        <time>2021-03-25T02:20:42Z</time>
      </trkpt>
      <trkpt lat="47.75359" lon="-1.04694">
        <ele>60</ele>
        <time>2021-03-25T02:20:49Z</time>
      </trkpt>
      <trkpt lat="47.75372" lon="-1.04734">
        <ele>62</ele>
        <time>2021-03-25T02:20:55Z</time>
      </trkpt>
      <trkpt lat="47.75388" lon="-1.04777">
        <ele>63</ele>
        <time>2021-03-25T02:21:00Z</time>
      </trkpt>
      <trkpt lat="47.75409" lon="-1.04831">
        <ele>64</ele>
        <time>2021-03-25T02:21:08Z</time>
      </trkpt>
      <trkpt lat="47.75418" lon="-1.04861">
        <ele>64</ele>
        <time>2021-03-25T02:21:12Z</time>
      </trkpt>
      <trkpt lat="47.75428" lon="-1.04904">
        <ele>64</ele>
        <time>2021-03-25T02:21:17Z</time>
      </trkpt>
      <trkpt lat="47.75436" lon="-1.04944">
        <ele>64</ele>
        <time>2021-03-25T02:21:22Z</time>
      </trkpt>
      <trkpt lat="47.75443" lon="-1.04984">
        <ele>63</ele>
        <time>2021-03-25T02:21:27Z</time>
      </trkpt>
      <trkpt lat="47.75445" lon="-1.05022">
        <ele>63</ele>
        <time>2021-03-25T02:21:32Z</time>
      </trkpt>
      <trkpt lat="47.75445" lon="-1.05062">
        <ele>63</ele>
        <time>2021-03-25T02:21:37Z</time>
      </trkpt>
      <trkpt lat="47.75444" lon="-1.0511">
        <ele>63</ele>
        <time>2021-03-25T02:21:42Z</time>
      </trkpt>
      <trkpt lat="47.75444" lon="-1.05149">
        <ele>63</ele>
        <time>2021-03-25T02:21:47Z</time>
      </trkpt>
      <trkpt lat="47.75447" lon="-1.05193">
        <ele>62</ele>
        <time>2021-03-25T02:21:52Z</time>
      </trkpt>
      <trkpt lat="47.75452" lon="-1.05242">
        <ele>62</ele>
        <time>2021-03-25T02:21:58Z</time>
      </trkpt>
      <trkpt lat="47.75472" lon="-1.0534">
        <ele>60</ele>
        <time>2021-03-25T02:22:10Z</time>
      </trkpt>
      <trkpt lat="47.75488" lon="-1.0541">
        <ele>59</ele>
        <time>2021-03-25T02:22:19Z</time>
      </trkpt>
      <trkpt lat="47.75494" lon="-1.05445">
        <ele>59</ele>
        <time>2021-03-25T02:22:24Z</time>
      </trkpt>
      <trkpt lat="47.75504" lon="-1.05497">
        <ele>58</ele>
        <time>2021-03-25T02:22:30Z</time>
      </trkpt>
      <trkpt lat="47.75506" lon="-1.0551">
        <ele>58</ele>
        <time>2021-03-25T02:22:32Z</time>
      </trkpt>
      <trkpt lat="47.75508" lon="-1.05518">
        <ele>58</ele>
        <time>2021-03-25T02:22:33Z</time>
      </trkpt>
      <trkpt lat="47.75508" lon="-1.05529">
        <ele>58</ele>
        <time>2021-03-25T02:22:34Z</time>
      </trkpt>
      <trkpt lat="47.75508" lon="-1.0554">
        <ele>58</ele>
        <time>2021-03-25T02:22:35Z</time>
      </trkpt>
      <trkpt lat="47.75507" lon="-1.05549">
        <ele>58</ele>
        <time>2021-03-25T02:22:36Z</time>
      </trkpt>
      <trkpt lat="47.75506" lon="-1.05558">
        <ele>58</ele>
        <time>2021-03-25T02:22:38Z</time>
      </trkpt>
      <trkpt lat="47.75502" lon="-1.05574">
        <ele>58</ele>
        <time>2021-03-25T02:22:40Z</time>
      </trkpt>
      <trkpt lat="47.75492" lon="-1.05598">
        <ele>58</ele>
        <time>2021-03-25T02:22:43Z</time>
      </trkpt>
      <trkpt lat="47.75484" lon="-1.05616">
        <ele>59</ele>
        <time>2021-03-25T02:22:46Z</time>
      </trkpt>
      <trkpt lat="47.75473" lon="-1.05648">
        <ele>60</ele>
        <time>2021-03-25T02:22:50Z</time>
      </trkpt>
      <trkpt lat="47.75467" lon="-1.05675">
        <ele>60</ele>
        <time>2021-03-25T02:22:53Z</time>
      </trkpt>
      <trkpt lat="47.75459" lon="-1.05707">
        <ele>61</ele>
        <time>2021-03-25T02:22:57Z</time>
      </trkpt>
      <trkpt lat="47.75452" lon="-1.05738">
        <ele>61</ele>
        <time>2021-03-25T02:23:01Z</time>
      </trkpt>
      <trkpt lat="47.7545" lon="-1.05757">
        <ele>61</ele>
        <time>2021-03-25T02:23:04Z</time>
      </trkpt>
      <trkpt lat="47.75448" lon="-1.05773">
        <ele>62</ele>
        <time>2021-03-25T02:23:05Z</time>
      </trkpt>
      <trkpt lat="47.75447" lon="-1.05791">
        <ele>62</ele>
        <time>2021-03-25T02:23:08Z</time>
      </trkpt>
      <trkpt lat="47.75449" lon="-1.05823">
        <ele>62</ele>
        <time>2021-03-25T02:23:11Z</time>
      </trkpt>
      <trkpt lat="47.75452" lon="-1.05864">
        <ele>62</ele>
        <time>2021-03-25T02:23:16Z</time>
      </trkpt>
      <trkpt lat="47.75457" lon="-1.05918">
        <ele>63</ele>
        <time>2021-03-25T02:23:23Z</time>
      </trkpt>
      <trkpt lat="47.75459" lon="-1.05942">
        <ele>63</ele>
        <time>2021-03-25T02:23:26Z</time>
      </trkpt>
      <trkpt lat="47.75462" lon="-1.05967">
        <ele>64</ele>
        <time>2021-03-25T02:23:29Z</time>
      </trkpt>
      <trkpt lat="47.75468" lon="-1.05995">
        <ele>64</ele>
        <time>2021-03-25T02:23:32Z</time>
      </trkpt>
      <trkpt lat="47.75477" lon="-1.06032">
        <ele>64</ele>
        <time>2021-03-25T02:23:37Z</time>
      </trkpt>
      <trkpt lat="47.75491" lon="-1.06091">
        <ele>64</ele>
        <time>2021-03-25T02:23:45Z</time>
      </trkpt>
      <trkpt lat="47.75502" lon="-1.06134">
        <ele>63</ele>
        <time>2021-03-25T02:23:50Z</time>
      </trkpt>
      <trkpt lat="47.75506" lon="-1.06162">
        <ele>63</ele>
        <time>2021-03-25T02:23:53Z</time>
      </trkpt>
      <trkpt lat="47.75509" lon="-1.06194">
        <ele>63</ele>
        <time>2021-03-25T02:23:57Z</time>
      </trkpt>
      <trkpt lat="47.75511" lon="-1.06271">
        <ele>63</ele>
        <time>2021-03-25T02:24:07Z</time>
      </trkpt>
      <trkpt lat="47.75511" lon="-1.06305">
        <ele>63</ele>
        <time>2021-03-25T02:24:11Z</time>
      </trkpt>
      <trkpt lat="47.75508" lon="-1.06338">
        <ele>64</ele>
        <time>2021-03-25T02:24:15Z</time>
      </trkpt>
      <trkpt lat="47.75505" lon="-1.06374">
        <ele>63</ele>
        <time>2021-03-25T02:24:19Z</time>
      </trkpt>
      <trkpt lat="47.755" lon="-1.06437">
        <ele>62</ele>
        <time>2021-03-25T02:24:27Z</time>
      </trkpt>
      <trkpt lat="47.755" lon="-1.06456">
        <ele>62</ele>
        <time>2021-03-25T02:24:29Z</time>
      </trkpt>
      <trkpt lat="47.75501" lon="-1.0647">
        <ele>62</ele>
        <time>2021-03-25T02:24:30Z</time>
      </trkpt>
      <trkpt lat="47.75501" lon="-1.06478">
        <ele>62</ele>
        <time>2021-03-25T02:24:31Z</time>
      </trkpt>
      <trkpt lat="47.75504" lon="-1.06506">
        <ele>62</ele>
        <time>2021-03-25T02:24:35Z</time>
      </trkpt>
      <trkpt lat="47.7551" lon="-1.06544">
        <ele>63</ele>
        <time>2021-03-25T02:24:40Z</time>
      </trkpt>
      <trkpt lat="47.75514" lon="-1.06572">
        <ele>63</ele>
        <time>2021-03-25T02:24:43Z</time>
      </trkpt>
      <trkpt lat="47.7552" lon="-1.06592">
        <ele>63</ele>
        <time>2021-03-25T02:24:46Z</time>
      </trkpt>
      <trkpt lat="47.75522" lon="-1.06596">
        <ele>63</ele>
        <time>2021-03-25T02:24:46Z</time>
      </trkpt>
      <trkpt lat="47.75529" lon="-1.06609">
        <ele>63</ele>
        <time>2021-03-25T02:24:48Z</time>
      </trkpt>
      <trkpt lat="47.75549" lon="-1.06631">
        <ele>61</ele>
        <time>2021-03-25T02:24:53Z</time>
      </trkpt>
      <trkpt lat="47.75573" lon="-1.06655">
        <ele>60</ele>
        <time>2021-03-25T02:24:58Z</time>
      </trkpt>
      <trkpt lat="47.75603" lon="-1.06676">
        <ele>58</ele>
        <time>2021-03-25T02:25:04Z</time>
      </trkpt>
      <trkpt lat="47.75626" lon="-1.06688">
        <ele>57</ele>
        <time>2021-03-25T02:25:08Z</time>
      </trkpt>
      <trkpt lat="47.75675" lon="-1.06712">
        <ele>56</ele>
        <time>2021-03-25T02:25:17Z</time>
      </trkpt>
      <trkpt lat="47.7571" lon="-1.06729">
        <ele>54</ele>
        <time>2021-03-25T02:25:24Z</time>
      </trkpt>
      <trkpt lat="47.7573" lon="-1.06744">
        <ele>54</ele>
        <time>2021-03-25T02:25:28Z</time>
      </trkpt>
      <trkpt lat="47.75753" lon="-1.06765">
        <ele>53</ele>
        <time>2021-03-25T02:25:32Z</time>
      </trkpt>
      <trkpt lat="47.75768" lon="-1.06787">
        <ele>54</ele>
        <time>2021-03-25T02:25:36Z</time>
      </trkpt>
      <trkpt lat="47.75782" lon="-1.06816">
        <ele>55</ele>
        <time>2021-03-25T02:25:40Z</time>
      </trkpt>
      <trkpt lat="47.75793" lon="-1.06846">
        <ele>56</ele>
        <time>2021-03-25T02:25:45Z</time>
      </trkpt>
      <trkpt lat="47.75804" lon="-1.06878">
        <ele>56</ele>
        <time>2021-03-25T02:25:49Z</time>
      </trkpt>
      <trkpt lat="47.75809" lon="-1.06905">
        <ele>57</ele>
        <time>2021-03-25T02:25:52Z</time>
      </trkpt>
      <trkpt lat="47.75812" lon="-1.06929">
        <ele>57</ele>
        <time>2021-03-25T02:25:55Z</time>
      </trkpt>
      <trkpt lat="47.75813" lon="-1.06951">
        <ele>58</ele>
        <time>2021-03-25T02:25:58Z</time>
      </trkpt>
      <trkpt lat="47.75822" lon="-1.07005">
        <ele>59</ele>
        <time>2021-03-25T02:26:04Z</time>
      </trkpt>
      <trkpt lat="47.75825" lon="-1.07017">
        <ele>59</ele>
        <time>2021-03-25T02:26:06Z</time>
      </trkpt>
      <trkpt lat="47.75827" lon="-1.07032">
        <ele>59</ele>
        <time>2021-03-25T02:26:08Z</time>
      </trkpt>
      <trkpt lat="47.75829" lon="-1.07042">
        <ele>59</ele>
        <time>2021-03-25T02:26:09Z</time>
      </trkpt>
      <trkpt lat="47.7583" lon="-1.0705">
        <ele>59</ele>
        <time>2021-03-25T02:26:10Z</time>
      </trkpt>
      <trkpt lat="47.7583" lon="-1.0706">
        <ele>59</ele>
        <time>2021-03-25T02:26:11Z</time>
      </trkpt>
      <trkpt lat="47.75828" lon="-1.07079">
        <ele>59</ele>
        <time>2021-03-25T02:26:14Z</time>
      </trkpt>
      <trkpt lat="47.75838" lon="-1.07107">
        <ele>59</ele>
        <time>2021-03-25T02:26:17Z</time>
      </trkpt>
      <trkpt lat="47.75842" lon="-1.0712">
        <ele>59</ele>
        <time>2021-03-25T02:26:19Z</time>
      </trkpt>
      <trkpt lat="47.75843" lon="-1.07121">
        <ele>59</ele>
        <time>2021-03-25T02:26:19Z</time>
      </trkpt>
      <trkpt lat="47.75843" lon="-1.07125">
        <ele>59</ele>
        <time>2021-03-25T02:26:20Z</time>
      </trkpt>
      <trkpt lat="47.75844" lon="-1.0713">
        <ele>59</ele>
        <time>2021-03-25T02:26:20Z</time>
      </trkpt>
      <trkpt lat="47.75843" lon="-1.07137">
        <ele>59</ele>
        <time>2021-03-25T02:26:21Z</time>
      </trkpt>
      <trkpt lat="47.75841" lon="-1.07144">
        <ele>59</ele>
        <time>2021-03-25T02:26:22Z</time>
      </trkpt>
      <trkpt lat="47.75839" lon="-1.07149">
        <ele>60</ele>
        <time>2021-03-25T02:26:23Z</time>
      </trkpt>
      <trkpt lat="47.75829" lon="-1.07165">
        <ele>60</ele>
        <time>2021-03-25T02:26:25Z</time>
      </trkpt>
      <trkpt lat="47.75809" lon="-1.07189">
        <ele>60</ele>
        <time>2021-03-25T02:26:30Z</time>
      </trkpt>
      <trkpt lat="47.75803" lon="-1.07197">
        <ele>60</ele>
        <time>2021-03-25T02:26:31Z</time>
      </trkpt>
      <trkpt lat="47.75797" lon="-1.07207">
        <ele>59</ele>
        <time>2021-03-25T02:26:33Z</time>
      </trkpt>
      <trkpt lat="47.75793" lon="-1.07212">
        <ele>59</ele>
        <time>2021-03-25T02:26:34Z</time>
      </trkpt>
      <trkpt lat="47.75791" lon="-1.07219">
        <ele>59</ele>
        <time>2021-03-25T02:26:35Z</time>
      </trkpt>
      <trkpt lat="47.75788" lon="-1.07228">
        <ele>59</ele>
        <time>2021-03-25T02:26:36Z</time>
      </trkpt>
      <trkpt lat="47.75786" lon="-1.07235">
        <ele>59</ele>
        <time>2021-03-25T02:26:37Z</time>
      </trkpt>
      <trkpt lat="47.75784" lon="-1.07246">
        <ele>59</ele>
        <time>2021-03-25T02:26:38Z</time>
      </trkpt>
      <trkpt lat="47.75784" lon="-1.07258">
        <ele>59</ele>
        <time>2021-03-25T02:26:40Z</time>
      </trkpt>
      <trkpt lat="47.75788" lon="-1.07294">
        <ele>59</ele>
        <time>2021-03-25T02:26:44Z</time>
      </trkpt>
      <trkpt lat="47.75799" lon="-1.07371">
        <ele>58</ele>
        <time>2021-03-25T02:26:54Z</time>
      </trkpt>
      <trkpt lat="47.75804" lon="-1.07406">
        <ele>58</ele>
        <time>2021-03-25T02:26:58Z</time>
      </trkpt>
      <trkpt lat="47.75805" lon="-1.0742">
        <ele>58</ele>
        <time>2021-03-25T02:27:00Z</time>
      </trkpt>
      <trkpt lat="47.75805" lon="-1.07428">
        <ele>58</ele>
        <time>2021-03-25T02:27:00Z</time>
      </trkpt>
      <trkpt lat="47.75806" lon="-1.07438">
        <ele>58</ele>
        <time>2021-03-25T02:27:02Z</time>
      </trkpt>
      <trkpt lat="47.75805" lon="-1.07448">
        <ele>58</ele>
        <time>2021-03-25T02:27:03Z</time>
      </trkpt>
      <trkpt lat="47.75804" lon="-1.07463">
        <ele>58</ele>
        <time>2021-03-25T02:27:05Z</time>
      </trkpt>
      <trkpt lat="47.75802" lon="-1.07487">
        <ele>58</ele>
        <time>2021-03-25T02:27:08Z</time>
      </trkpt>
      <trkpt lat="47.758" lon="-1.07509">
        <ele>58</ele>
        <time>2021-03-25T02:27:10Z</time>
      </trkpt>
      <trkpt lat="47.75798" lon="-1.07535">
        <ele>59</ele>
        <time>2021-03-25T02:27:13Z</time>
      </trkpt>
      <trkpt lat="47.75795" lon="-1.07568">
        <ele>60</ele>
        <time>2021-03-25T02:27:17Z</time>
      </trkpt>
      <trkpt lat="47.75793" lon="-1.07588">
        <ele>60</ele>
        <time>2021-03-25T02:27:20Z</time>
      </trkpt>
      <trkpt lat="47.75791" lon="-1.07599">
        <ele>60</ele>
        <time>2021-03-25T02:27:21Z</time>
      </trkpt>
      <trkpt lat="47.75776" lon="-1.07664">
        <ele>60</ele>
        <time>2021-03-25T02:27:29Z</time>
      </trkpt>
      <trkpt lat="47.75741" lon="-1.07807">
        <ele>61</ele>
        <time>2021-03-25T02:27:48Z</time>
      </trkpt>
      <trkpt lat="47.75711" lon="-1.07943">
        <ele>64</ele>
        <time>2021-03-25T02:28:05Z</time>
      </trkpt>
      <trkpt lat="47.75661" lon="-1.0819">
        <ele>69</ele>
        <time>2021-03-25T02:28:36Z</time>
      </trkpt>
      <trkpt lat="47.75659" lon="-1.08199">
        <ele>69</ele>
        <time>2021-03-25T02:28:37Z</time>
      </trkpt>
      <trkpt lat="47.7565" lon="-1.08239">
        <ele>70</ele>
        <time>2021-03-25T02:28:42Z</time>
      </trkpt>
      <trkpt lat="47.7564" lon="-1.08265">
        <ele>70</ele>
        <time>2021-03-25T02:28:45Z</time>
      </trkpt>
      <trkpt lat="47.75626" lon="-1.08294">
        <ele>70</ele>
        <time>2021-03-25T02:28:50Z</time>
      </trkpt>
      <trkpt lat="47.75602" lon="-1.08332">
        <ele>70</ele>
        <time>2021-03-25T02:28:56Z</time>
      </trkpt>
      <trkpt lat="47.75512" lon="-1.08466">
        <ele>71</ele>
        <time>2021-03-25T02:29:18Z</time>
      </trkpt>
      <trkpt lat="47.75483" lon="-1.08508">
        <ele>71</ele>
        <time>2021-03-25T02:29:26Z</time>
      </trkpt>
      <trkpt lat="47.75474" lon="-1.08522">
        <ele>71</ele>
        <time>2021-03-25T02:29:28Z</time>
      </trkpt>
      <trkpt lat="47.75456" lon="-1.08549">
        <ele>72</ele>
        <time>2021-03-25T02:29:33Z</time>
      </trkpt>
      <trkpt lat="47.75442" lon="-1.0857">
        <ele>72</ele>
        <time>2021-03-25T02:29:36Z</time>
      </trkpt>
      <trkpt lat="47.75438" lon="-1.08577">
        <ele>73</ele>
        <time>2021-03-25T02:29:37Z</time>
      </trkpt>
      <trkpt lat="47.75435" lon="-1.08584">
        <ele>73</ele>
        <time>2021-03-25T02:29:38Z</time>
      </trkpt>
      <trkpt lat="47.75432" lon="-1.08591">
        <ele>73</ele>
        <time>2021-03-25T02:29:39Z</time>
      </trkpt>
      <trkpt lat="47.75429" lon="-1.086">
        <ele>74</ele>
        <time>2021-03-25T02:29:40Z</time>
      </trkpt>
      <trkpt lat="47.75427" lon="-1.0861">
        <ele>74</ele>
        <time>2021-03-25T02:29:42Z</time>
      </trkpt>
      <trkpt lat="47.75426" lon="-1.08619">
        <ele>74</ele>
        <time>2021-03-25T02:29:43Z</time>
      </trkpt>
      <trkpt lat="47.75425" lon="-1.08629">
        <ele>74</ele>
        <time>2021-03-25T02:29:44Z</time>
      </trkpt>
      <trkpt lat="47.75425" lon="-1.08639">
        <ele>75</ele>
        <time>2021-03-25T02:29:45Z</time>
      </trkpt>
      <trkpt lat="47.75426" lon="-1.08651">
        <ele>75</ele>
        <time>2021-03-25T02:29:47Z</time>
      </trkpt>
      <trkpt lat="47.75427" lon="-1.08663">
        <ele>75</ele>
        <time>2021-03-25T02:29:48Z</time>
      </trkpt>
      <trkpt lat="47.75429" lon="-1.08676">
        <ele>75</ele>
        <time>2021-03-25T02:29:50Z</time>
      </trkpt>
      <trkpt lat="47.75431" lon="-1.0869">
        <ele>75</ele>
        <time>2021-03-25T02:29:51Z</time>
      </trkpt>
      <trkpt lat="47.75433" lon="-1.08705">
        <ele>75</ele>
        <time>2021-03-25T02:29:53Z</time>
      </trkpt>
      <trkpt lat="47.75436" lon="-1.0872">
        <ele>75</ele>
        <time>2021-03-25T02:29:55Z</time>
      </trkpt>
      <trkpt lat="47.75441" lon="-1.08754">
        <ele>76</ele>
        <time>2021-03-25T02:29:59Z</time>
      </trkpt>
      <trkpt lat="47.75447" lon="-1.08803">
        <ele>76</ele>
        <time>2021-03-25T02:30:05Z</time>
      </trkpt>
      <trkpt lat="47.75449" lon="-1.08824">
        <ele>76</ele>
        <time>2021-03-25T02:30:08Z</time>
      </trkpt>
      <trkpt lat="47.75449" lon="-1.08826">
        <ele>77</ele>
        <time>2021-03-25T02:30:08Z</time>
      </trkpt>
      <trkpt lat="47.75449" lon="-1.08832">
        <ele>77</ele>
        <time>2021-03-25T02:30:09Z</time>
      </trkpt>
      <trkpt lat="47.75449" lon="-1.08839">
        <ele>77</ele>
        <time>2021-03-25T02:30:09Z</time>
      </trkpt>
      <trkpt lat="47.75448" lon="-1.08848">
        <ele>76</ele>
        <time>2021-03-25T02:30:11Z</time>
      </trkpt>
      <trkpt lat="47.75447" lon="-1.08856">
        <ele>76</ele>
        <time>2021-03-25T02:30:12Z</time>
      </trkpt>
      <trkpt lat="47.75445" lon="-1.08864">
        <ele>76</ele>
        <time>2021-03-25T02:30:13Z</time>
      </trkpt>
      <trkpt lat="47.75443" lon="-1.08873">
        <ele>76</ele>
        <time>2021-03-25T02:30:14Z</time>
      </trkpt>
      <trkpt lat="47.7544" lon="-1.0888">
        <ele>76</ele>
        <time>2021-03-25T02:30:15Z</time>
      </trkpt>
      <trkpt lat="47.75438" lon="-1.08888">
        <ele>76</ele>
        <time>2021-03-25T02:30:16Z</time>
      </trkpt>
      <trkpt lat="47.75427" lon="-1.0891">
        <ele>77</ele>
        <time>2021-03-25T02:30:19Z</time>
      </trkpt>
      <trkpt lat="47.75418" lon="-1.08929">
        <ele>77</ele>
        <time>2021-03-25T02:30:22Z</time>
      </trkpt>
      <trkpt lat="47.75409" lon="-1.08949">
        <ele>78</ele>
        <time>2021-03-25T02:30:25Z</time>
      </trkpt>
      <trkpt lat="47.75401" lon="-1.08966">
        <ele>79</ele>
        <time>2021-03-25T02:30:27Z</time>
      </trkpt>
      <trkpt lat="47.75392" lon="-1.08986">
        <ele>79</ele>
        <time>2021-03-25T02:30:30Z</time>
      </trkpt>
      <trkpt lat="47.75389" lon="-1.08997">
        <ele>80</ele>
        <time>2021-03-25T02:30:31Z</time>
      </trkpt>
      <trkpt lat="47.75385" lon="-1.09007">
        <ele>80</ele>
        <time>2021-03-25T02:30:33Z</time>
      </trkpt>
      <trkpt lat="47.75382" lon="-1.09017">
        <ele>80</ele>
        <time>2021-03-25T02:30:34Z</time>
      </trkpt>
      <trkpt lat="47.7538" lon="-1.09027">
        <ele>80</ele>
        <time>2021-03-25T02:30:35Z</time>
      </trkpt>
      <trkpt lat="47.75378" lon="-1.09038">
        <ele>81</ele>
        <time>2021-03-25T02:30:37Z</time>
      </trkpt>
      <trkpt lat="47.75376" lon="-1.0905">
        <ele>81</ele>
        <time>2021-03-25T02:30:38Z</time>
      </trkpt>
      <trkpt lat="47.75374" lon="-1.09062">
        <ele>81</ele>
        <time>2021-03-25T02:30:40Z</time>
      </trkpt>
      <trkpt lat="47.75373" lon="-1.09075">
        <ele>82</ele>
        <time>2021-03-25T02:30:41Z</time>
      </trkpt>
      <trkpt lat="47.75372" lon="-1.09088">
        <ele>82</ele>
        <time>2021-03-25T02:30:43Z</time>
      </trkpt>
      <trkpt lat="47.75372" lon="-1.09093">
        <ele>82</ele>
        <time>2021-03-25T02:30:43Z</time>
      </trkpt>
      <trkpt lat="47.75371" lon="-1.09112">
        <ele>82</ele>
        <time>2021-03-25T02:30:46Z</time>
      </trkpt>
      <trkpt lat="47.7537" lon="-1.09161">
        <ele>83</ele>
        <time>2021-03-25T02:30:52Z</time>
      </trkpt>
      <trkpt lat="47.75369" lon="-1.09225">
        <ele>84</ele>
        <time>2021-03-25T02:30:59Z</time>
      </trkpt>
      <trkpt lat="47.75368" lon="-1.09284">
        <ele>85</ele>
        <time>2021-03-25T02:31:06Z</time>
      </trkpt>
      <trkpt lat="47.75368" lon="-1.09329">
        <ele>86</ele>
        <time>2021-03-25T02:31:12Z</time>
      </trkpt>
      <trkpt lat="47.75368" lon="-1.09345">
        <ele>86</ele>
        <time>2021-03-25T02:31:14Z</time>
      </trkpt>
      <trkpt lat="47.75368" lon="-1.09359">
        <ele>86</ele>
        <time>2021-03-25T02:31:15Z</time>
      </trkpt>
      <trkpt lat="47.75368" lon="-1.09372">
        <ele>86</ele>
        <time>2021-03-25T02:31:17Z</time>
      </trkpt>
      <trkpt lat="47.75368" lon="-1.09383">
        <ele>87</ele>
        <time>2021-03-25T02:31:18Z</time>
      </trkpt>
      <trkpt lat="47.75369" lon="-1.09397">
        <ele>87</ele>
        <time>2021-03-25T02:31:20Z</time>
      </trkpt>
      <trkpt lat="47.7537" lon="-1.09405">
        <ele>87</ele>
        <time>2021-03-25T02:31:21Z</time>
      </trkpt>
      <trkpt lat="47.7537" lon="-1.09408">
        <ele>87</ele>
        <time>2021-03-25T02:31:21Z</time>
      </trkpt>
      <trkpt lat="47.75371" lon="-1.09418">
        <ele>87</ele>
        <time>2021-03-25T02:31:22Z</time>
      </trkpt>
      <trkpt lat="47.75372" lon="-1.0942">
        <ele>87</ele>
        <time>2021-03-25T02:31:23Z</time>
      </trkpt>
      <trkpt lat="47.75374" lon="-1.09432">
        <ele>87</ele>
        <time>2021-03-25T02:31:24Z</time>
      </trkpt>
      <trkpt lat="47.75376" lon="-1.09445">
        <ele>86</ele>
        <time>2021-03-25T02:31:26Z</time>
      </trkpt>
      <trkpt lat="47.75379" lon="-1.09458">
        <ele>86</ele>
        <time>2021-03-25T02:31:27Z</time>
      </trkpt>
      <trkpt lat="47.75382" lon="-1.09472">
        <ele>86</ele>
        <time>2021-03-25T02:31:29Z</time>
      </trkpt>
      <trkpt lat="47.75386" lon="-1.09485">
        <ele>86</ele>
        <time>2021-03-25T02:31:31Z</time>
      </trkpt>
      <trkpt lat="47.75389" lon="-1.09498">
        <ele>86</ele>
        <time>2021-03-25T02:31:32Z</time>
      </trkpt>
      <trkpt lat="47.75393" lon="-1.09509">
        <ele>86</ele>
        <time>2021-03-25T02:31:34Z</time>
      </trkpt>
      <trkpt lat="47.75399" lon="-1.09524">
        <ele>86</ele>
        <time>2021-03-25T02:31:36Z</time>
      </trkpt>
      <trkpt lat="47.75404" lon="-1.09535">
        <ele>86</ele>
        <time>2021-03-25T02:31:38Z</time>
      </trkpt>
      <trkpt lat="47.75416" lon="-1.09562">
        <ele>86</ele>
        <time>2021-03-25T02:31:42Z</time>
      </trkpt>
      <trkpt lat="47.75427" lon="-1.09589">
        <ele>85</ele>
        <time>2021-03-25T02:31:45Z</time>
      </trkpt>
      <trkpt lat="47.75434" lon="-1.09606">
        <ele>85</ele>
        <time>2021-03-25T02:31:48Z</time>
      </trkpt>
      <trkpt lat="47.7544" lon="-1.0962">
        <ele>84</ele>
        <time>2021-03-25T02:31:50Z</time>
      </trkpt>
      <trkpt lat="47.75445" lon="-1.09633">
        <ele>84</ele>
        <time>2021-03-25T02:31:51Z</time>
      </trkpt>
      <trkpt lat="47.7545" lon="-1.09646">
        <ele>83</ele>
        <time>2021-03-25T02:31:53Z</time>
      </trkpt>
      <trkpt lat="47.7546" lon="-1.09675">
        <ele>83</ele>
        <time>2021-03-25T02:31:57Z</time>
      </trkpt>
      <trkpt lat="47.75464" lon="-1.09688">
        <ele>82</ele>
        <time>2021-03-25T02:31:59Z</time>
      </trkpt>
      <trkpt lat="47.75467" lon="-1.09701">
        <ele>82</ele>
        <time>2021-03-25T02:32:01Z</time>
      </trkpt>
      <trkpt lat="47.7547" lon="-1.09714">
        <ele>82</ele>
        <time>2021-03-25T02:32:02Z</time>
      </trkpt>
      <trkpt lat="47.75474" lon="-1.09729">
        <ele>82</ele>
        <time>2021-03-25T02:32:04Z</time>
      </trkpt>
      <trkpt lat="47.75479" lon="-1.09755">
        <ele>81</ele>
        <time>2021-03-25T02:32:07Z</time>
      </trkpt>
      <trkpt lat="47.75489" lon="-1.09806">
        <ele>78</ele>
        <time>2021-03-25T02:32:14Z</time>
      </trkpt>
      <trkpt lat="47.75495" lon="-1.09835">
        <ele>77</ele>
        <time>2021-03-25T02:32:17Z</time>
      </trkpt>
      <trkpt lat="47.75495" lon="-1.09839">
        <ele>77</ele>
        <time>2021-03-25T02:32:18Z</time>
      </trkpt>
      <trkpt lat="47.75515" lon="-1.09939">
        <ele>77</ele>
        <time>2021-03-25T02:32:30Z</time>
      </trkpt>
      <trkpt lat="47.7554" lon="-1.10065">
        <ele>77</ele>
        <time>2021-03-25T02:32:46Z</time>
      </trkpt>
      <trkpt lat="47.75546" lon="-1.10097">
        <ele>76</ele>
        <time>2021-03-25T02:32:50Z</time>
      </trkpt>
      <trkpt lat="47.75548" lon="-1.10106">
        <ele>76</ele>
        <time>2021-03-25T02:32:51Z</time>
      </trkpt>
      <trkpt lat="47.75549" lon="-1.10118">
        <ele>76</ele>
        <time>2021-03-25T02:32:53Z</time>
      </trkpt>
      <trkpt lat="47.75551" lon="-1.10128">
        <ele>76</ele>
        <time>2021-03-25T02:32:54Z</time>
      </trkpt>
      <trkpt lat="47.75552" lon="-1.10137">
        <ele>76</ele>
        <time>2021-03-25T02:32:55Z</time>
      </trkpt>
      <trkpt lat="47.75553" lon="-1.10149">
        <ele>76</ele>
        <time>2021-03-25T02:32:56Z</time>
      </trkpt>
      <trkpt lat="47.75555" lon="-1.10159">
        <ele>76</ele>
        <time>2021-03-25T02:32:58Z</time>
      </trkpt>
      <trkpt lat="47.75556" lon="-1.10171">
        <ele>76</ele>
        <time>2021-03-25T02:32:59Z</time>
      </trkpt>
      <trkpt lat="47.75556" lon="-1.10181">
        <ele>76</ele>
        <time>2021-03-25T02:33:00Z</time>
      </trkpt>
      <trkpt lat="47.75556" lon="-1.10192">
        <ele>76</ele>
        <time>2021-03-25T02:33:02Z</time>
      </trkpt>
      <trkpt lat="47.75556" lon="-1.10203">
        <ele>76</ele>
        <time>2021-03-25T02:33:03Z</time>
      </trkpt>
      <trkpt lat="47.75556" lon="-1.10216">
        <ele>77</ele>
        <time>2021-03-25T02:33:04Z</time>
      </trkpt>
      <trkpt lat="47.75556" lon="-1.1023">
        <ele>77</ele>
        <time>2021-03-25T02:33:06Z</time>
      </trkpt>
      <trkpt lat="47.75555" lon="-1.1024">
        <ele>77</ele>
        <time>2021-03-25T02:33:07Z</time>
      </trkpt>
      <trkpt lat="47.75554" lon="-1.10252">
        <ele>77</ele>
        <time>2021-03-25T02:33:09Z</time>
      </trkpt>
      <trkpt lat="47.75552" lon="-1.10263">
        <ele>77</ele>
        <time>2021-03-25T02:33:10Z</time>
      </trkpt>
      <trkpt lat="47.7555" lon="-1.10274">
        <ele>78</ele>
        <time>2021-03-25T02:33:11Z</time>
      </trkpt>
      <trkpt lat="47.75548" lon="-1.10285">
        <ele>78</ele>
        <time>2021-03-25T02:33:13Z</time>
      </trkpt>
      <trkpt lat="47.75546" lon="-1.10298">
        <ele>78</ele>
        <time>2021-03-25T02:33:14Z</time>
      </trkpt>
      <trkpt lat="47.75541" lon="-1.10322">
        <ele>79</ele>
        <time>2021-03-25T02:33:17Z</time>
      </trkpt>
      <trkpt lat="47.75531" lon="-1.10366">
        <ele>79</ele>
        <time>2021-03-25T02:33:23Z</time>
      </trkpt>
      <trkpt lat="47.75518" lon="-1.10423">
        <ele>79</ele>
        <time>2021-03-25T02:33:30Z</time>
      </trkpt>
      <trkpt lat="47.75513" lon="-1.10446">
        <ele>79</ele>
        <time>2021-03-25T02:33:33Z</time>
      </trkpt>
      <trkpt lat="47.75511" lon="-1.10458">
        <ele>79</ele>
        <time>2021-03-25T02:33:35Z</time>
      </trkpt>
      <trkpt lat="47.75507" lon="-1.10478">
        <ele>79</ele>
        <time>2021-03-25T02:33:37Z</time>
      </trkpt>
      <trkpt lat="47.75505" lon="-1.10489">
        <ele>79</ele>
        <time>2021-03-25T02:33:38Z</time>
      </trkpt>
      <trkpt lat="47.75503" lon="-1.105">
        <ele>78</ele>
        <time>2021-03-25T02:33:40Z</time>
      </trkpt>
      <trkpt lat="47.75501" lon="-1.10511">
        <ele>78</ele>
        <time>2021-03-25T02:33:41Z</time>
      </trkpt>
      <trkpt lat="47.75499" lon="-1.10525">
        <ele>76</ele>
        <time>2021-03-25T02:33:43Z</time>
      </trkpt>
      <trkpt lat="47.75497" lon="-1.10539">
        <ele>75</ele>
        <time>2021-03-25T02:33:45Z</time>
      </trkpt>
      <trkpt lat="47.75496" lon="-1.10554">
        <ele>74</ele>
        <time>2021-03-25T02:33:46Z</time>
      </trkpt>
      <trkpt lat="47.75495" lon="-1.10565">
        <ele>73</ele>
        <time>2021-03-25T02:33:48Z</time>
      </trkpt>
      <trkpt lat="47.75495" lon="-1.10576">
        <ele>71</ele>
        <time>2021-03-25T02:33:49Z</time>
      </trkpt>
      <trkpt lat="47.75494" lon="-1.10587">
        <ele>71</ele>
        <time>2021-03-25T02:33:50Z</time>
      </trkpt>
      <trkpt lat="47.75494" lon="-1.10596">
        <ele>71</ele>
        <time>2021-03-25T02:33:51Z</time>
      </trkpt>
      <trkpt lat="47.75494" lon="-1.10605">
        <ele>71</ele>
        <time>2021-03-25T02:33:52Z</time>
      </trkpt>
      <trkpt lat="47.75494" lon="-1.10617">
        <ele>71</ele>
        <time>2021-03-25T02:33:54Z</time>
      </trkpt>
      <trkpt lat="47.75494" lon="-1.10628">
        <ele>70</ele>
        <time>2021-03-25T02:33:55Z</time>
      </trkpt>
      <trkpt lat="47.75494" lon="-1.1064">
        <ele>70</ele>
        <time>2021-03-25T02:33:57Z</time>
      </trkpt>
      <trkpt lat="47.75495" lon="-1.10652">
        <ele>70</ele>
        <time>2021-03-25T02:33:58Z</time>
      </trkpt>
      <trkpt lat="47.75496" lon="-1.10666">
        <ele>70</ele>
        <time>2021-03-25T02:34:00Z</time>
      </trkpt>
      <trkpt lat="47.75497" lon="-1.10681">
        <ele>69</ele>
        <time>2021-03-25T02:34:02Z</time>
      </trkpt>
      <trkpt lat="47.75498" lon="-1.10692">
        <ele>69</ele>
        <time>2021-03-25T02:34:03Z</time>
      </trkpt>
      <trkpt lat="47.755" lon="-1.10719">
        <ele>68</ele>
        <time>2021-03-25T02:34:06Z</time>
      </trkpt>
      <trkpt lat="47.75501" lon="-1.10735">
        <ele>68</ele>
        <time>2021-03-25T02:34:08Z</time>
      </trkpt>
      <trkpt lat="47.75505" lon="-1.10775">
        <ele>70</ele>
        <time>2021-03-25T02:34:13Z</time>
      </trkpt>
      <trkpt lat="47.75514" lon="-1.10885">
        <ele>77</ele>
        <time>2021-03-25T02:34:26Z</time>
      </trkpt>
      <trkpt lat="47.75521" lon="-1.10971">
        <ele>80</ele>
        <time>2021-03-25T02:34:37Z</time>
      </trkpt>
      <trkpt lat="47.75526" lon="-1.11026">
        <ele>83</ele>
        <time>2021-03-25T02:34:43Z</time>
      </trkpt>
      <trkpt lat="47.75527" lon="-1.11043">
        <ele>83</ele>
        <time>2021-03-25T02:34:45Z</time>
      </trkpt>
      <trkpt lat="47.75529" lon="-1.11062">
        <ele>84</ele>
        <time>2021-03-25T02:34:48Z</time>
      </trkpt>
      <trkpt lat="47.7553" lon="-1.11079">
        <ele>85</ele>
        <time>2021-03-25T02:34:50Z</time>
      </trkpt>
      <trkpt lat="47.75531" lon="-1.11097">
        <ele>86</ele>
        <time>2021-03-25T02:34:52Z</time>
      </trkpt>
      <trkpt lat="47.75532" lon="-1.11113">
        <ele>86</ele>
        <time>2021-03-25T02:34:54Z</time>
      </trkpt>
      <trkpt lat="47.75532" lon="-1.11129">
        <ele>87</ele>
        <time>2021-03-25T02:34:56Z</time>
      </trkpt>
      <trkpt lat="47.75532" lon="-1.11145">
        <ele>87</ele>
        <time>2021-03-25T02:34:57Z</time>
      </trkpt>
      <trkpt lat="47.75533" lon="-1.11162">
        <ele>87</ele>
        <time>2021-03-25T02:35:00Z</time>
      </trkpt>
      <trkpt lat="47.75533" lon="-1.11178">
        <ele>88</ele>
        <time>2021-03-25T02:35:01Z</time>
      </trkpt>
      <trkpt lat="47.75533" lon="-1.11194">
        <ele>88</ele>
        <time>2021-03-25T02:35:03Z</time>
      </trkpt>
      <trkpt lat="47.75534" lon="-1.1121">
        <ele>88</ele>
        <time>2021-03-25T02:35:05Z</time>
      </trkpt>
      <trkpt lat="47.75533" lon="-1.11222">
        <ele>88</ele>
        <time>2021-03-25T02:35:07Z</time>
      </trkpt>
      <trkpt lat="47.75534" lon="-1.11232">
        <ele>88</ele>
        <time>2021-03-25T02:35:08Z</time>
      </trkpt>
      <trkpt lat="47.75534" lon="-1.11234">
        <ele>88</ele>
        <time>2021-03-25T02:35:08Z</time>
      </trkpt>
      <trkpt lat="47.75535" lon="-1.11248">
        <ele>88</ele>
        <time>2021-03-25T02:35:10Z</time>
      </trkpt>
      <trkpt lat="47.75537" lon="-1.11261">
        <ele>88</ele>
        <time>2021-03-25T02:35:11Z</time>
      </trkpt>
      <trkpt lat="47.75538" lon="-1.11272">
        <ele>88</ele>
        <time>2021-03-25T02:35:13Z</time>
      </trkpt>
      <trkpt lat="47.7554" lon="-1.11283">
        <ele>89</ele>
        <time>2021-03-25T02:35:14Z</time>
      </trkpt>
      <trkpt lat="47.75543" lon="-1.11295">
        <ele>89</ele>
        <time>2021-03-25T02:35:16Z</time>
      </trkpt>
      <trkpt lat="47.75546" lon="-1.11307">
        <ele>89</ele>
        <time>2021-03-25T02:35:17Z</time>
      </trkpt>
      <trkpt lat="47.75548" lon="-1.11317">
        <ele>89</ele>
        <time>2021-03-25T02:35:18Z</time>
      </trkpt>
      <trkpt lat="47.75548" lon="-1.11318">
        <ele>89</ele>
        <time>2021-03-25T02:35:19Z</time>
      </trkpt>
      <trkpt lat="47.7555" lon="-1.11326">
        <ele>90</ele>
        <time>2021-03-25T02:35:20Z</time>
      </trkpt>
      <trkpt lat="47.75553" lon="-1.11337">
        <ele>90</ele>
        <time>2021-03-25T02:35:21Z</time>
      </trkpt>
      <trkpt lat="47.75556" lon="-1.11348">
        <ele>90</ele>
        <time>2021-03-25T02:35:22Z</time>
      </trkpt>
      <trkpt lat="47.75557" lon="-1.11349">
        <ele>90</ele>
        <time>2021-03-25T02:35:23Z</time>
      </trkpt>
      <trkpt lat="47.7556" lon="-1.11358">
        <ele>91</ele>
        <time>2021-03-25T02:35:24Z</time>
      </trkpt>
      <trkpt lat="47.7557" lon="-1.11379">
        <ele>92</ele>
        <time>2021-03-25T02:35:27Z</time>
      </trkpt>
      <trkpt lat="47.75571" lon="-1.11381">
        <ele>92</ele>
        <time>2021-03-25T02:35:27Z</time>
      </trkpt>
      <trkpt lat="47.75577" lon="-1.11388">
        <ele>92</ele>
        <time>2021-03-25T02:35:29Z</time>
      </trkpt>
      <trkpt lat="47.75582" lon="-1.11395">
        <ele>93</ele>
        <time>2021-03-25T02:35:30Z</time>
      </trkpt>
      <trkpt lat="47.75584" lon="-1.11399">
        <ele>93</ele>
        <time>2021-03-25T02:35:30Z</time>
      </trkpt>
      <trkpt lat="47.75588" lon="-1.11407">
        <ele>93</ele>
        <time>2021-03-25T02:35:32Z</time>
      </trkpt>
      <trkpt lat="47.75592" lon="-1.11416">
        <ele>93</ele>
        <time>2021-03-25T02:35:33Z</time>
      </trkpt>
      <trkpt lat="47.75597" lon="-1.11426">
        <ele>93</ele>
        <time>2021-03-25T02:35:34Z</time>
      </trkpt>
      <trkpt lat="47.75601" lon="-1.11435">
        <ele>93</ele>
        <time>2021-03-25T02:35:36Z</time>
      </trkpt>
      <trkpt lat="47.75604" lon="-1.11444">
        <ele>93</ele>
        <time>2021-03-25T02:35:37Z</time>
      </trkpt>
      <trkpt lat="47.75607" lon="-1.11452">
        <ele>94</ele>
        <time>2021-03-25T02:35:38Z</time>
      </trkpt>
      <trkpt lat="47.75609" lon="-1.11462">
        <ele>94</ele>
        <time>2021-03-25T02:35:39Z</time>
      </trkpt>
      <trkpt lat="47.75612" lon="-1.11471">
        <ele>94</ele>
        <time>2021-03-25T02:35:40Z</time>
      </trkpt>
      <trkpt lat="47.75614" lon="-1.11481">
        <ele>94</ele>
        <time>2021-03-25T02:35:42Z</time>
      </trkpt>
      <trkpt lat="47.75616" lon="-1.11491">
        <ele>94</ele>
        <time>2021-03-25T02:35:43Z</time>
      </trkpt>
      <trkpt lat="47.7562" lon="-1.11509">
        <ele>94</ele>
        <time>2021-03-25T02:35:45Z</time>
      </trkpt>
      <trkpt lat="47.75628" lon="-1.11553">
        <ele>95</ele>
        <time>2021-03-25T02:35:51Z</time>
      </trkpt>
      <trkpt lat="47.75637" lon="-1.11604">
        <ele>95</ele>
        <time>2021-03-25T02:35:57Z</time>
      </trkpt>
      <trkpt lat="47.75656" lon="-1.11699">
        <ele>96</ele>
        <time>2021-03-25T02:36:09Z</time>
      </trkpt>
      <trkpt lat="47.75679" lon="-1.11809">
        <ele>98</ele>
        <time>2021-03-25T02:36:23Z</time>
      </trkpt>
      <trkpt lat="47.7568" lon="-1.11813">
        <ele>98</ele>
        <time>2021-03-25T02:36:23Z</time>
      </trkpt>
      <trkpt lat="47.75688" lon="-1.11856">
        <ele>99</ele>
        <time>2021-03-25T02:36:28Z</time>
      </trkpt>
      <trkpt lat="47.75694" lon="-1.11881">
        <ele>100</ele>
        <time>2021-03-25T02:36:32Z</time>
      </trkpt>
      <trkpt lat="47.75695" lon="-1.11884">
        <ele>100</ele>
        <time>2021-03-25T02:36:32Z</time>
      </trkpt>
      <trkpt lat="47.75696" lon="-1.11889">
        <ele>100</ele>
        <time>2021-03-25T02:36:33Z</time>
      </trkpt>
      <trkpt lat="47.75699" lon="-1.11903">
        <ele>100</ele>
        <time>2021-03-25T02:36:34Z</time>
      </trkpt>
      <trkpt lat="47.75703" lon="-1.11917">
        <ele>100</ele>
        <time>2021-03-25T02:36:36Z</time>
      </trkpt>
      <trkpt lat="47.75708" lon="-1.11932">
        <ele>101</ele>
        <time>2021-03-25T02:36:38Z</time>
      </trkpt>
      <trkpt lat="47.75714" lon="-1.11949">
        <ele>101</ele>
        <time>2021-03-25T02:36:40Z</time>
      </trkpt>
      <trkpt lat="47.75725" lon="-1.11979">
        <ele>101</ele>
        <time>2021-03-25T02:36:45Z</time>
      </trkpt>
      <trkpt lat="47.75733" lon="-1.12">
        <ele>101</ele>
        <time>2021-03-25T02:36:47Z</time>
      </trkpt>
      <trkpt lat="47.75735" lon="-1.12004">
        <ele>101</ele>
        <time>2021-03-25T02:36:48Z</time>
      </trkpt>
      <trkpt lat="47.75771" lon="-1.12085">
        <ele>102</ele>
        <time>2021-03-25T02:37:00Z</time>
      </trkpt>
      <trkpt lat="47.75804" lon="-1.1216">
        <ele>100</ele>
        <time>2021-03-25T02:37:10Z</time>
      </trkpt>
      <trkpt lat="47.75826" lon="-1.12212">
        <ele>100</ele>
        <time>2021-03-25T02:37:18Z</time>
      </trkpt>
      <trkpt lat="47.7584" lon="-1.12244">
        <ele>101</ele>
        <time>2021-03-25T02:37:22Z</time>
      </trkpt>
      <trkpt lat="47.75927" lon="-1.12444">
        <ele>101</ele>
        <time>2021-03-25T02:37:51Z</time>
      </trkpt>
      <trkpt lat="47.75941" lon="-1.12474">
        <ele>100</ele>
        <time>2021-03-25T02:37:55Z</time>
      </trkpt>
      <trkpt lat="47.7595" lon="-1.12496">
        <ele>100</ele>
        <time>2021-03-25T02:37:58Z</time>
      </trkpt>
      <trkpt lat="47.75951" lon="-1.12499">
        <ele>100</ele>
        <time>2021-03-25T02:37:59Z</time>
      </trkpt>
      <trkpt lat="47.7596" lon="-1.12518">
        <ele>100</ele>
        <time>2021-03-25T02:38:01Z</time>
      </trkpt>
      <trkpt lat="47.75969" lon="-1.12539">
        <ele>100</ele>
        <time>2021-03-25T02:38:04Z</time>
      </trkpt>
      <trkpt lat="47.75978" lon="-1.12561">
        <ele>100</ele>
        <time>2021-03-25T02:38:07Z</time>
      </trkpt>
      <trkpt lat="47.75985" lon="-1.1258">
        <ele>100</ele>
        <time>2021-03-25T02:38:10Z</time>
      </trkpt>
      <trkpt lat="47.75993" lon="-1.12601">
        <ele>101</ele>
        <time>2021-03-25T02:38:13Z</time>
      </trkpt>
      <trkpt lat="47.76001" lon="-1.12618">
        <ele>101</ele>
        <time>2021-03-25T02:38:15Z</time>
      </trkpt>
      <trkpt lat="47.76006" lon="-1.12634">
        <ele>102</ele>
        <time>2021-03-25T02:38:18Z</time>
      </trkpt>
      <trkpt lat="47.7601" lon="-1.12647">
        <ele>102</ele>
        <time>2021-03-25T02:38:19Z</time>
      </trkpt>
      <trkpt lat="47.76014" lon="-1.12662">
        <ele>103</ele>
        <time>2021-03-25T02:38:21Z</time>
      </trkpt>
      <trkpt lat="47.76018" lon="-1.12674">
        <ele>103</ele>
        <time>2021-03-25T02:38:23Z</time>
      </trkpt>
      <trkpt lat="47.76027" lon="-1.12713">
        <ele>103</ele>
        <time>2021-03-25T02:38:28Z</time>
      </trkpt>
      <trkpt lat="47.76032" lon="-1.12741">
        <ele>103</ele>
        <time>2021-03-25T02:38:31Z</time>
      </trkpt>
      <trkpt lat="47.76035" lon="-1.12752">
        <ele>103</ele>
        <time>2021-03-25T02:38:33Z</time>
      </trkpt>
      <trkpt lat="47.76037" lon="-1.12765">
        <ele>104</ele>
        <time>2021-03-25T02:38:34Z</time>
      </trkpt>
      <trkpt lat="47.7604" lon="-1.1278">
        <ele>104</ele>
        <time>2021-03-25T02:38:36Z</time>
      </trkpt>
      <trkpt lat="47.76043" lon="-1.12797">
        <ele>104</ele>
        <time>2021-03-25T02:38:38Z</time>
      </trkpt>
      <trkpt lat="47.76044" lon="-1.1281">
        <ele>105</ele>
        <time>2021-03-25T02:38:40Z</time>
      </trkpt>
      <trkpt lat="47.76045" lon="-1.12825">
        <ele>105</ele>
        <time>2021-03-25T02:38:42Z</time>
      </trkpt>
      <trkpt lat="47.76046" lon="-1.12835">
        <ele>105</ele>
        <time>2021-03-25T02:38:43Z</time>
      </trkpt>
      <trkpt lat="47.76046" lon="-1.12835">
        <ele>105</ele>
        <time>2021-03-25T02:38:43Z</time>
      </trkpt>
      <trkpt lat="47.76047" lon="-1.12841">
        <ele>105</ele>
        <time>2021-03-25T02:38:44Z</time>
      </trkpt>
      <trkpt lat="47.76049" lon="-1.12859">
        <ele>106</ele>
        <time>2021-03-25T02:38:46Z</time>
      </trkpt>
      <trkpt lat="47.7605" lon="-1.12876">
        <ele>106</ele>
        <time>2021-03-25T02:38:48Z</time>
      </trkpt>
      <trkpt lat="47.76051" lon="-1.12896">
        <ele>106</ele>
        <time>2021-03-25T02:38:50Z</time>
      </trkpt>
      <trkpt lat="47.76051" lon="-1.12914">
        <ele>107</ele>
        <time>2021-03-25T02:38:52Z</time>
      </trkpt>
      <trkpt lat="47.76052" lon="-1.1296">
        <ele>106</ele>
        <time>2021-03-25T02:38:58Z</time>
      </trkpt>
      <trkpt lat="47.76052" lon="-1.13019">
        <ele>106</ele>
        <time>2021-03-25T02:39:05Z</time>
      </trkpt>
      <trkpt lat="47.76052" lon="-1.1303">
        <ele>106</ele>
        <time>2021-03-25T02:39:06Z</time>
      </trkpt>
      <trkpt lat="47.76055" lon="-1.13054">
        <ele>105</ele>
        <time>2021-03-25T02:39:09Z</time>
      </trkpt>
      <trkpt lat="47.76056" lon="-1.13065">
        <ele>105</ele>
        <time>2021-03-25T02:39:10Z</time>
      </trkpt>
      <trkpt lat="47.76061" lon="-1.13091">
        <ele>105</ele>
        <time>2021-03-25T02:39:14Z</time>
      </trkpt>
      <trkpt lat="47.76061" lon="-1.13103">
        <ele>106</ele>
        <time>2021-03-25T02:39:15Z</time>
      </trkpt>
      <trkpt lat="47.76061" lon="-1.13103">
        <ele>106</ele>
        <time>2021-03-25T02:39:15Z</time>
      </trkpt>
      <trkpt lat="47.76062" lon="-1.13112">
        <ele>106</ele>
        <time>2021-03-25T02:39:16Z</time>
      </trkpt>
      <trkpt lat="47.76055" lon="-1.13126">
        <ele>106</ele>
        <time>2021-03-25T02:39:18Z</time>
      </trkpt>
      <trkpt lat="47.76045" lon="-1.13148">
        <ele>106</ele>
        <time>2021-03-25T02:39:21Z</time>
      </trkpt>
      <trkpt lat="47.75979" lon="-1.13284">
        <ele>105</ele>
        <time>2021-03-25T02:39:42Z</time>
      </trkpt>
      <trkpt lat="47.75975" lon="-1.13292">
        <ele>105</ele>
        <time>2021-03-25T02:39:43Z</time>
      </trkpt>
      <trkpt lat="47.75963" lon="-1.13313">
        <ele>105</ele>
        <time>2021-03-25T02:39:46Z</time>
      </trkpt>
      <trkpt lat="47.75956" lon="-1.13326">
        <ele>105</ele>
        <time>2021-03-25T02:39:48Z</time>
      </trkpt>
      <trkpt lat="47.75944" lon="-1.13351">
        <ele>105</ele>
        <time>2021-03-25T02:39:52Z</time>
      </trkpt>
      <trkpt lat="47.75904" lon="-1.13432">
        <ele>103</ele>
        <time>2021-03-25T02:40:04Z</time>
      </trkpt>
      <trkpt lat="47.75896" lon="-1.1345">
        <ele>103</ele>
        <time>2021-03-25T02:40:06Z</time>
      </trkpt>
      <trkpt lat="47.75826" lon="-1.13593">
        <ele>103</ele>
        <time>2021-03-25T02:40:27Z</time>
      </trkpt>
      <trkpt lat="47.75594" lon="-1.14073">
        <ele>94</ele>
        <time>2021-03-25T02:41:38Z</time>
      </trkpt>
      <trkpt lat="47.75452" lon="-1.14363">
        <ele>93</ele>
        <time>2021-03-25T02:42:21Z</time>
      </trkpt>
      <trkpt lat="47.75448" lon="-1.14373">
        <ele>93</ele>
        <time>2021-03-25T02:42:22Z</time>
      </trkpt>
      <trkpt lat="47.75156" lon="-1.14967">
        <ele>81</ele>
        <time>2021-03-25T02:43:50Z</time>
      </trkpt>
      <trkpt lat="47.75053" lon="-1.15181">
        <ele>82</ele>
        <time>2021-03-25T02:44:22Z</time>
      </trkpt>
      <trkpt lat="47.74873" lon="-1.15551">
        <ele>81</ele>
        <time>2021-03-25T02:45:17Z</time>
      </trkpt>
      <trkpt lat="47.74871" lon="-1.1556">
        <ele>81</ele>
        <time>2021-03-25T02:45:18Z</time>
      </trkpt>
      <trkpt lat="47.74859" lon="-1.15584">
        <ele>82</ele>
        <time>2021-03-25T02:45:21Z</time>
      </trkpt>
      <trkpt lat="47.74838" lon="-1.15628">
        <ele>82</ele>
        <time>2021-03-25T02:45:28Z</time>
      </trkpt>
      <trkpt lat="47.74833" lon="-1.15641">
        <ele>82</ele>
        <time>2021-03-25T02:45:30Z</time>
      </trkpt>
      <trkpt lat="47.74827" lon="-1.15656">
        <ele>81</ele>
        <time>2021-03-25T02:45:32Z</time>
      </trkpt>
      <trkpt lat="47.74823" lon="-1.15668">
        <ele>81</ele>
        <time>2021-03-25T02:45:33Z</time>
      </trkpt>
      <trkpt lat="47.74818" lon="-1.15684">
        <ele>82</ele>
        <time>2021-03-25T02:45:35Z</time>
      </trkpt>
      <trkpt lat="47.74818" lon="-1.15684">
        <ele>82</ele>
        <time>2021-03-25T02:45:35Z</time>
      </trkpt>
      <trkpt lat="47.74819" lon="-1.15686">
        <ele>82</ele>
        <time>2021-03-25T02:45:36Z</time>
      </trkpt>
      <trkpt lat="47.74819" lon="-1.15687">
        <ele>82</ele>
        <time>2021-03-25T02:45:36Z</time>
      </trkpt>
      <trkpt lat="47.7482" lon="-1.15688">
        <ele>82</ele>
        <time>2021-03-25T02:45:36Z</time>
      </trkpt>
      <trkpt lat="47.7482" lon="-1.1569">
        <ele>82</ele>
        <time>2021-03-25T02:45:36Z</time>
      </trkpt>
      <trkpt lat="47.7482" lon="-1.15691">
        <ele>82</ele>
        <time>2021-03-25T02:45:36Z</time>
      </trkpt>
      <trkpt lat="47.74821" lon="-1.15692">
        <ele>82</ele>
        <time>2021-03-25T02:45:37Z</time>
      </trkpt>
      <trkpt lat="47.74821" lon="-1.15694">
        <ele>82</ele>
        <time>2021-03-25T02:45:37Z</time>
      </trkpt>
      <trkpt lat="47.74821" lon="-1.15695">
        <ele>82</ele>
        <time>2021-03-25T02:45:37Z</time>
      </trkpt>
      <trkpt lat="47.74822" lon="-1.15697">
        <ele>82</ele>
        <time>2021-03-25T02:45:37Z</time>
      </trkpt>
      <trkpt lat="47.74822" lon="-1.157">
        <ele>82</ele>
        <time>2021-03-25T02:45:38Z</time>
      </trkpt>
      <trkpt lat="47.74822" lon="-1.15702">
        <ele>82</ele>
        <time>2021-03-25T02:45:38Z</time>
      </trkpt>
      <trkpt lat="47.74822" lon="-1.15704">
        <ele>82</ele>
        <time>2021-03-25T02:45:38Z</time>
      </trkpt>
      <trkpt lat="47.74822" lon="-1.15707">
        <ele>82</ele>
        <time>2021-03-25T02:45:38Z</time>
      </trkpt>
      <trkpt lat="47.74822" lon="-1.15709">
        <ele>82</ele>
        <time>2021-03-25T02:45:39Z</time>
      </trkpt>
      <trkpt lat="47.74822" lon="-1.15711">
        <ele>82</ele>
        <time>2021-03-25T02:45:39Z</time>
      </trkpt>
      <trkpt lat="47.74822" lon="-1.15714">
        <ele>82</ele>
        <time>2021-03-25T02:45:39Z</time>
      </trkpt>
      <trkpt lat="47.74822" lon="-1.15718">
        <ele>82</ele>
        <time>2021-03-25T02:45:40Z</time>
      </trkpt>
      <trkpt lat="47.74821" lon="-1.15721">
        <ele>82</ele>
        <time>2021-03-25T02:45:40Z</time>
      </trkpt>
      <trkpt lat="47.7482" lon="-1.15725">
        <ele>82</ele>
        <time>2021-03-25T02:45:41Z</time>
      </trkpt>
      <trkpt lat="47.74819" lon="-1.15728">
        <ele>82</ele>
        <time>2021-03-25T02:45:41Z</time>
      </trkpt>
      <trkpt lat="47.74818" lon="-1.15732">
        <ele>82</ele>
        <time>2021-03-25T02:45:42Z</time>
      </trkpt>
      <trkpt lat="47.74817" lon="-1.15735">
        <ele>83</ele>
        <time>2021-03-25T02:45:42Z</time>
      </trkpt>
      <trkpt lat="47.74815" lon="-1.15738">
        <ele>83</ele>
        <time>2021-03-25T02:45:42Z</time>
      </trkpt>
      <trkpt lat="47.74813" lon="-1.1574">
        <ele>83</ele>
        <time>2021-03-25T02:45:43Z</time>
      </trkpt>
      <trkpt lat="47.7481" lon="-1.15744">
        <ele>83</ele>
        <time>2021-03-25T02:45:44Z</time>
      </trkpt>
      <trkpt lat="47.74807" lon="-1.15747">
        <ele>83</ele>
        <time>2021-03-25T02:45:44Z</time>
      </trkpt>
      <trkpt lat="47.74804" lon="-1.15749">
        <ele>83</ele>
        <time>2021-03-25T02:45:45Z</time>
      </trkpt>
      <trkpt lat="47.748" lon="-1.15751">
        <ele>83</ele>
        <time>2021-03-25T02:45:46Z</time>
      </trkpt>
      <trkpt lat="47.74797" lon="-1.15752">
        <ele>83</ele>
        <time>2021-03-25T02:45:46Z</time>
      </trkpt>
      <trkpt lat="47.74793" lon="-1.15753">
        <ele>83</ele>
        <time>2021-03-25T02:45:47Z</time>
      </trkpt>
      <trkpt lat="47.74789" lon="-1.15753">
        <ele>82</ele>
        <time>2021-03-25T02:45:48Z</time>
      </trkpt>
      <trkpt lat="47.74786" lon="-1.15752">
        <ele>82</ele>
        <time>2021-03-25T02:45:48Z</time>
      </trkpt>
      <trkpt lat="47.74779" lon="-1.15757">
        <ele>82</ele>
        <time>2021-03-25T02:45:50Z</time>
      </trkpt>
      <trkpt lat="47.74775" lon="-1.15762">
        <ele>82</ele>
        <time>2021-03-25T02:45:50Z</time>
      </trkpt>
      <trkpt lat="47.7477" lon="-1.15769">
        <ele>82</ele>
        <time>2021-03-25T02:45:52Z</time>
      </trkpt>
      <trkpt lat="47.74765" lon="-1.15777">
        <ele>82</ele>
        <time>2021-03-25T02:45:53Z</time>
      </trkpt>
      <trkpt lat="47.74761" lon="-1.15785">
        <ele>82</ele>
        <time>2021-03-25T02:45:54Z</time>
      </trkpt>
      <trkpt lat="47.74757" lon="-1.15791">
        <ele>82</ele>
        <time>2021-03-25T02:45:55Z</time>
      </trkpt>
      <trkpt lat="47.74752" lon="-1.15796">
        <ele>82</ele>
        <time>2021-03-25T02:45:56Z</time>
      </trkpt>
      <trkpt lat="47.74741" lon="-1.15828">
        <ele>82</ele>
        <time>2021-03-25T02:46:01Z</time>
      </trkpt>
      <trkpt lat="47.74735" lon="-1.15839">
        <ele>82</ele>
        <time>2021-03-25T02:46:02Z</time>
      </trkpt>
      <trkpt lat="47.74718" lon="-1.15875">
        <ele>83</ele>
        <time>2021-03-25T02:46:07Z</time>
      </trkpt>
      <trkpt lat="47.74712" lon="-1.15888">
        <ele>83</ele>
        <time>2021-03-25T02:46:09Z</time>
      </trkpt>
      <trkpt lat="47.74693" lon="-1.15928">
        <ele>84</ele>
        <time>2021-03-25T02:46:15Z</time>
      </trkpt>
      <trkpt lat="47.74687" lon="-1.1594">
        <ele>84</ele>
        <time>2021-03-25T02:46:17Z</time>
      </trkpt>
      <trkpt lat="47.74683" lon="-1.15948">
        <ele>84</ele>
        <time>2021-03-25T02:46:18Z</time>
      </trkpt>
      <trkpt lat="47.74668" lon="-1.15977">
        <ele>84</ele>
        <time>2021-03-25T02:46:23Z</time>
      </trkpt>
      <trkpt lat="47.74622" lon="-1.1607">
        <ele>82</ele>
        <time>2021-03-25T02:46:36Z</time>
      </trkpt>
      <trkpt lat="47.74579" lon="-1.16159">
        <ele>79</ele>
        <time>2021-03-25T02:46:50Z</time>
      </trkpt>
      <trkpt lat="47.74548" lon="-1.1622">
        <ele>79</ele>
        <time>2021-03-25T02:46:59Z</time>
      </trkpt>
      <trkpt lat="47.74542" lon="-1.16232">
        <ele>79</ele>
        <time>2021-03-25T02:47:00Z</time>
      </trkpt>
      <trkpt lat="47.74541" lon="-1.16235">
        <ele>79</ele>
        <time>2021-03-25T02:47:01Z</time>
      </trkpt>
      <trkpt lat="47.74429" lon="-1.16462">
        <ele>76</ele>
        <time>2021-03-25T02:47:35Z</time>
      </trkpt>
      <trkpt lat="47.74425" lon="-1.16468">
        <ele>75</ele>
        <time>2021-03-25T02:47:36Z</time>
      </trkpt>
      <trkpt lat="47.7442" lon="-1.16477">
        <ele>75</ele>
        <time>2021-03-25T02:47:37Z</time>
      </trkpt>
      <trkpt lat="47.74417" lon="-1.16486">
        <ele>75</ele>
        <time>2021-03-25T02:47:38Z</time>
      </trkpt>
      <trkpt lat="47.74415" lon="-1.16491">
        <ele>75</ele>
        <time>2021-03-25T02:47:39Z</time>
      </trkpt>
      <trkpt lat="47.74414" lon="-1.16496">
        <ele>75</ele>
        <time>2021-03-25T02:47:39Z</time>
      </trkpt>
      <trkpt lat="47.74414" lon="-1.16501">
        <ele>75</ele>
        <time>2021-03-25T02:47:40Z</time>
      </trkpt>
      <trkpt lat="47.74415" lon="-1.16509">
        <ele>75</ele>
        <time>2021-03-25T02:47:41Z</time>
      </trkpt>
      <trkpt lat="47.74415" lon="-1.16509">
        <ele>75</ele>
        <time>2021-03-25T02:47:41Z</time>
      </trkpt>
      <trkpt lat="47.74417" lon="-1.16516">
        <ele>75</ele>
        <time>2021-03-25T02:47:42Z</time>
      </trkpt>
      <trkpt lat="47.74418" lon="-1.16521">
        <ele>75</ele>
        <time>2021-03-25T02:47:43Z</time>
      </trkpt>
      <trkpt lat="47.74419" lon="-1.16526">
        <ele>75</ele>
        <time>2021-03-25T02:47:43Z</time>
      </trkpt>
      <trkpt lat="47.74419" lon="-1.16532">
        <ele>75</ele>
        <time>2021-03-25T02:47:44Z</time>
      </trkpt>
      <trkpt lat="47.74419" lon="-1.16538">
        <ele>75</ele>
        <time>2021-03-25T02:47:45Z</time>
      </trkpt>
      <trkpt lat="47.74419" lon="-1.16541">
        <ele>75</ele>
        <time>2021-03-25T02:47:45Z</time>
      </trkpt>
      <trkpt lat="47.74417" lon="-1.16545">
        <ele>76</ele>
        <time>2021-03-25T02:47:46Z</time>
      </trkpt>
      <trkpt lat="47.74415" lon="-1.16549">
        <ele>76</ele>
        <time>2021-03-25T02:47:46Z</time>
      </trkpt>
      <trkpt lat="47.74414" lon="-1.16553">
        <ele>76</ele>
        <time>2021-03-25T02:47:47Z</time>
      </trkpt>
      <trkpt lat="47.74411" lon="-1.16557">
        <ele>76</ele>
        <time>2021-03-25T02:47:47Z</time>
      </trkpt>
      <trkpt lat="47.74409" lon="-1.16559">
        <ele>76</ele>
        <time>2021-03-25T02:47:48Z</time>
      </trkpt>
      <trkpt lat="47.74406" lon="-1.16562">
        <ele>76</ele>
        <time>2021-03-25T02:47:48Z</time>
      </trkpt>
      <trkpt lat="47.74403" lon="-1.16564">
        <ele>77</ele>
        <time>2021-03-25T02:47:49Z</time>
      </trkpt>
      <trkpt lat="47.744" lon="-1.16566">
        <ele>77</ele>
        <time>2021-03-25T02:47:50Z</time>
      </trkpt>
      <trkpt lat="47.74396" lon="-1.16567">
        <ele>77</ele>
        <time>2021-03-25T02:47:50Z</time>
      </trkpt>
      <trkpt lat="47.74393" lon="-1.16568">
        <ele>77</ele>
        <time>2021-03-25T02:47:51Z</time>
      </trkpt>
      <trkpt lat="47.74391" lon="-1.16567">
        <ele>77</ele>
        <time>2021-03-25T02:47:51Z</time>
      </trkpt>
      <trkpt lat="47.74384" lon="-1.16574">
        <ele>78</ele>
        <time>2021-03-25T02:47:53Z</time>
      </trkpt>
      <trkpt lat="47.74382" lon="-1.16576">
        <ele>78</ele>
        <time>2021-03-25T02:47:53Z</time>
      </trkpt>
      <trkpt lat="47.74378" lon="-1.1658">
        <ele>78</ele>
        <time>2021-03-25T02:47:54Z</time>
      </trkpt>
      <trkpt lat="47.74375" lon="-1.16585">
        <ele>79</ele>
        <time>2021-03-25T02:47:55Z</time>
      </trkpt>
      <trkpt lat="47.74364" lon="-1.16599">
        <ele>79</ele>
        <time>2021-03-25T02:47:57Z</time>
      </trkpt>
      <trkpt lat="47.74357" lon="-1.16609">
        <ele>80</ele>
        <time>2021-03-25T02:47:59Z</time>
      </trkpt>
      <trkpt lat="47.74356" lon="-1.1661">
        <ele>80</ele>
        <time>2021-03-25T02:47:59Z</time>
      </trkpt>
      <trkpt lat="47.7433" lon="-1.16665">
        <ele>80</ele>
        <time>2021-03-25T02:48:07Z</time>
      </trkpt>
      <trkpt lat="47.74309" lon="-1.16708">
        <ele>80</ele>
        <time>2021-03-25T02:48:14Z</time>
      </trkpt>
      <trkpt lat="47.74254" lon="-1.16821">
        <ele>83</ele>
        <time>2021-03-25T02:48:31Z</time>
      </trkpt>
      <trkpt lat="47.74229" lon="-1.16872">
        <ele>84</ele>
        <time>2021-03-25T02:48:38Z</time>
      </trkpt>
      <trkpt lat="47.74219" lon="-1.16893">
        <ele>84</ele>
        <time>2021-03-25T02:48:41Z</time>
      </trkpt>
      <trkpt lat="47.7418" lon="-1.16972">
        <ele>84</ele>
        <time>2021-03-25T02:48:53Z</time>
      </trkpt>
      <trkpt lat="47.74144" lon="-1.17045">
        <ele>86</ele>
        <time>2021-03-25T02:49:04Z</time>
      </trkpt>
      <trkpt lat="47.74131" lon="-1.17071">
        <ele>87</ele>
        <time>2021-03-25T02:49:08Z</time>
      </trkpt>
      <trkpt lat="47.74073" lon="-1.17185">
        <ele>89</ele>
        <time>2021-03-25T02:49:25Z</time>
      </trkpt>
      <trkpt lat="47.74063" lon="-1.17207">
        <ele>89</ele>
        <time>2021-03-25T02:49:28Z</time>
      </trkpt>
      <trkpt lat="47.74057" lon="-1.17219">
        <ele>89</ele>
        <time>2021-03-25T02:49:30Z</time>
      </trkpt>
      <trkpt lat="47.74051" lon="-1.1723">
        <ele>89</ele>
        <time>2021-03-25T02:49:31Z</time>
      </trkpt>
      <trkpt lat="47.7405" lon="-1.17233">
        <ele>89</ele>
        <time>2021-03-25T02:49:32Z</time>
      </trkpt>
      <trkpt lat="47.74045" lon="-1.1724">
        <ele>89</ele>
        <time>2021-03-25T02:49:33Z</time>
      </trkpt>
      <trkpt lat="47.74043" lon="-1.17243">
        <ele>89</ele>
        <time>2021-03-25T02:49:33Z</time>
      </trkpt>
      <trkpt lat="47.74041" lon="-1.17246">
        <ele>89</ele>
        <time>2021-03-25T02:49:34Z</time>
      </trkpt>
      <trkpt lat="47.74036" lon="-1.17251">
        <ele>89</ele>
        <time>2021-03-25T02:49:35Z</time>
      </trkpt>
      <trkpt lat="47.74031" lon="-1.17256">
        <ele>89</ele>
        <time>2021-03-25T02:49:36Z</time>
      </trkpt>
      <trkpt lat="47.74031" lon="-1.17256">
        <ele>89</ele>
        <time>2021-03-25T02:49:36Z</time>
      </trkpt>
      <trkpt lat="47.74001" lon="-1.17088">
        <ele>91</ele>
        <time>2021-03-25T02:49:57Z</time>
      </trkpt>
      <trkpt lat="47.73996" lon="-1.17064">
        <ele>91</ele>
        <time>2021-03-25T02:50:00Z</time>
      </trkpt>
      <trkpt lat="47.73982" lon="-1.1698">
        <ele>92</ele>
        <time>2021-03-25T02:50:10Z</time>
      </trkpt>
      <trkpt lat="47.7397" lon="-1.1691">
        <ele>91</ele>
        <time>2021-03-25T02:50:19Z</time>
      </trkpt>
      <trkpt lat="47.7397" lon="-1.16909">
        <ele>91</ele>
        <time>2021-03-25T02:50:19Z</time>
      </trkpt>
      <trkpt lat="47.73968" lon="-1.16897">
        <ele>92</ele>
        <time>2021-03-25T02:50:21Z</time>
      </trkpt>
      <trkpt lat="47.73961" lon="-1.16851">
        <ele>92</ele>
        <time>2021-03-25T02:50:26Z</time>
      </trkpt>
      <trkpt lat="47.73958" lon="-1.16831">
        <ele>93</ele>
        <time>2021-03-25T02:50:29Z</time>
      </trkpt>
      <trkpt lat="47.73942" lon="-1.16731">
        <ele>97</ele>
        <time>2021-03-25T02:50:41Z</time>
      </trkpt>
      <trkpt lat="47.73918" lon="-1.16582">
        <ele>96</ele>
        <time>2021-03-25T02:50:59Z</time>
      </trkpt>
      <trkpt lat="47.73917" lon="-1.16571">
        <ele>96</ele>
        <time>2021-03-25T02:51:01Z</time>
      </trkpt>
      <trkpt lat="47.73914" lon="-1.16554">
        <ele>96</ele>
        <time>2021-03-25T02:51:03Z</time>
      </trkpt>
      <trkpt lat="47.73912" lon="-1.16542">
        <ele>97</ele>
        <time>2021-03-25T02:51:04Z</time>
      </trkpt>
      <trkpt lat="47.739" lon="-1.16473">
        <ele>97</ele>
        <time>2021-03-25T02:51:13Z</time>
      </trkpt>
      <trkpt lat="47.73896" lon="-1.16448">
        <ele>97</ele>
        <time>2021-03-25T02:51:16Z</time>
      </trkpt>
      <trkpt lat="47.73874" lon="-1.16311">
        <ele>96</ele>
        <time>2021-03-25T02:51:33Z</time>
      </trkpt>
      <trkpt lat="47.73851" lon="-1.16172">
        <ele>95</ele>
        <time>2021-03-25T02:51:50Z</time>
      </trkpt>
      <trkpt lat="47.73821" lon="-1.15985">
        <ele>95</ele>
        <time>2021-03-25T02:52:13Z</time>
      </trkpt>
      <trkpt lat="47.73806" lon="-1.15891">
        <ele>96</ele>
        <time>2021-03-25T02:52:24Z</time>
      </trkpt>
      <trkpt lat="47.73805" lon="-1.1589">
        <ele>96</ele>
        <time>2021-03-25T02:52:25Z</time>
      </trkpt>
      <trkpt lat="47.73803" lon="-1.15875">
        <ele>96</ele>
        <time>2021-03-25T02:52:26Z</time>
      </trkpt>
      <trkpt lat="47.73791" lon="-1.1579">
        <ele>98</ele>
        <time>2021-03-25T02:52:37Z</time>
      </trkpt>
      <trkpt lat="47.73788" lon="-1.15768">
        <ele>97</ele>
        <time>2021-03-25T02:52:39Z</time>
      </trkpt>
      <trkpt lat="47.73788" lon="-1.15768">
        <ele>97</ele>
        <time>2021-03-25T02:52:39Z</time>
      </trkpt>
      <trkpt lat="47.73779" lon="-1.15761">
        <ele>98</ele>
        <time>2021-03-25T02:52:41Z</time>
      </trkpt>
      <trkpt lat="47.73773" lon="-1.15759">
        <ele>98</ele>
        <time>2021-03-25T02:52:42Z</time>
      </trkpt>
      <trkpt lat="47.73747" lon="-1.1575">
        <ele>100</ele>
        <time>2021-03-25T02:52:47Z</time>
      </trkpt>
      <trkpt lat="47.73692" lon="-1.15731">
        <ele>101</ele>
        <time>2021-03-25T02:52:57Z</time>
      </trkpt>
      <trkpt lat="47.73672" lon="-1.15725">
        <ele>101</ele>
        <time>2021-03-25T02:53:01Z</time>
      </trkpt>
      <trkpt lat="47.73632" lon="-1.1571">
        <ele>100</ele>
        <time>2021-03-25T02:53:08Z</time>
      </trkpt>
      <trkpt lat="47.73591" lon="-1.15695">
        <ele>99</ele>
        <time>2021-03-25T02:53:16Z</time>
      </trkpt>
      <trkpt lat="47.73563" lon="-1.15685">
        <ele>98</ele>
        <time>2021-03-25T02:53:21Z</time>
      </trkpt>
      <trkpt lat="47.73537" lon="-1.15675">
        <ele>97</ele>
        <time>2021-03-25T02:53:26Z</time>
      </trkpt>
      <trkpt lat="47.73511" lon="-1.15665">
        <ele>96</ele>
        <time>2021-03-25T02:53:30Z</time>
      </trkpt>
      <trkpt lat="47.73455" lon="-1.15645">
        <ele>95</ele>
        <time>2021-03-25T02:53:41Z</time>
      </trkpt>
      <trkpt lat="47.7339" lon="-1.1562">
        <ele>91</ele>
        <time>2021-03-25T02:53:52Z</time>
      </trkpt>
      <trkpt lat="47.73356" lon="-1.15608">
        <ele>88</ele>
        <time>2021-03-25T02:53:59Z</time>
      </trkpt>
      <trkpt lat="47.73349" lon="-1.15606">
        <ele>87</ele>
        <time>2021-03-25T02:54:00Z</time>
      </trkpt>
      <trkpt lat="47.73342" lon="-1.15605">
        <ele>86</ele>
        <time>2021-03-25T02:54:01Z</time>
      </trkpt>
      <trkpt lat="47.73333" lon="-1.15604">
        <ele>86</ele>
        <time>2021-03-25T02:54:03Z</time>
      </trkpt>
      <trkpt lat="47.73325" lon="-1.15603">
        <ele>85</ele>
        <time>2021-03-25T02:54:04Z</time>
      </trkpt>
      <trkpt lat="47.73319" lon="-1.15602">
        <ele>84</ele>
        <time>2021-03-25T02:54:05Z</time>
      </trkpt>
      <trkpt lat="47.73313" lon="-1.15601">
        <ele>84</ele>
        <time>2021-03-25T02:54:06Z</time>
      </trkpt>
      <trkpt lat="47.73308" lon="-1.15601">
        <ele>83</ele>
        <time>2021-03-25T02:54:07Z</time>
      </trkpt>
      <trkpt lat="47.73295" lon="-1.15601">
        <ele>82</ele>
        <time>2021-03-25T02:54:10Z</time>
      </trkpt>
      <trkpt lat="47.73282" lon="-1.15601">
        <ele>81</ele>
        <time>2021-03-25T02:54:12Z</time>
      </trkpt>
      <trkpt lat="47.73269" lon="-1.15601">
        <ele>79</ele>
        <time>2021-03-25T02:54:14Z</time>
      </trkpt>
      <trkpt lat="47.73248" lon="-1.15603">
        <ele>77</ele>
        <time>2021-03-25T02:54:18Z</time>
      </trkpt>
      <trkpt lat="47.73177" lon="-1.15606">
        <ele>74</ele>
        <time>2021-03-25T02:54:31Z</time>
      </trkpt>
      <trkpt lat="47.73135" lon="-1.15608">
        <ele>71</ele>
        <time>2021-03-25T02:54:38Z</time>
      </trkpt>
      <trkpt lat="47.73116" lon="-1.15608">
        <ele>69</ele>
        <time>2021-03-25T02:54:41Z</time>
      </trkpt>
      <trkpt lat="47.73109" lon="-1.15607">
        <ele>69</ele>
        <time>2021-03-25T02:54:43Z</time>
      </trkpt>
      <trkpt lat="47.73104" lon="-1.15606">
        <ele>69</ele>
        <time>2021-03-25T02:54:44Z</time>
      </trkpt>
      <trkpt lat="47.73101" lon="-1.15604">
        <ele>68</ele>
        <time>2021-03-25T02:54:44Z</time>
      </trkpt>
      <trkpt lat="47.73095" lon="-1.15601">
        <ele>68</ele>
        <time>2021-03-25T02:54:45Z</time>
      </trkpt>
      <trkpt lat="47.73091" lon="-1.15598">
        <ele>68</ele>
        <time>2021-03-25T02:54:46Z</time>
      </trkpt>
      <trkpt lat="47.73087" lon="-1.15595">
        <ele>67</ele>
        <time>2021-03-25T02:54:47Z</time>
      </trkpt>
      <trkpt lat="47.73083" lon="-1.15591">
        <ele>67</ele>
        <time>2021-03-25T02:54:48Z</time>
      </trkpt>
      <trkpt lat="47.73079" lon="-1.15587">
        <ele>67</ele>
        <time>2021-03-25T02:54:49Z</time>
      </trkpt>
      <trkpt lat="47.73076" lon="-1.15583">
        <ele>66</ele>
        <time>2021-03-25T02:54:49Z</time>
      </trkpt>
      <trkpt lat="47.73075" lon="-1.15582">
        <ele>66</ele>
        <time>2021-03-25T02:54:50Z</time>
      </trkpt>
      <trkpt lat="47.73073" lon="-1.15577">
        <ele>66</ele>
        <time>2021-03-25T02:54:50Z</time>
      </trkpt>
      <trkpt lat="47.7307" lon="-1.15571">
        <ele>66</ele>
        <time>2021-03-25T02:54:51Z</time>
      </trkpt>
      <trkpt lat="47.73067" lon="-1.15565">
        <ele>66</ele>
        <time>2021-03-25T02:54:52Z</time>
      </trkpt>
      <trkpt lat="47.73064" lon="-1.15559">
        <ele>66</ele>
        <time>2021-03-25T02:54:53Z</time>
      </trkpt>
      <trkpt lat="47.73062" lon="-1.15551">
        <ele>66</ele>
        <time>2021-03-25T02:54:54Z</time>
      </trkpt>
      <trkpt lat="47.73059" lon="-1.15544">
        <ele>66</ele>
        <time>2021-03-25T02:54:55Z</time>
      </trkpt>
      <trkpt lat="47.73057" lon="-1.15536">
        <ele>66</ele>
        <time>2021-03-25T02:54:56Z</time>
      </trkpt>
      <trkpt lat="47.73055" lon="-1.1553">
        <ele>66</ele>
        <time>2021-03-25T02:54:57Z</time>
      </trkpt>
      <trkpt lat="47.73053" lon="-1.15522">
        <ele>66</ele>
        <time>2021-03-25T02:54:58Z</time>
      </trkpt>
      <trkpt lat="47.73051" lon="-1.15515">
        <ele>66</ele>
        <time>2021-03-25T02:54:59Z</time>
      </trkpt>
      <trkpt lat="47.73048" lon="-1.15506">
        <ele>66</ele>
        <time>2021-03-25T02:55:00Z</time>
      </trkpt>
      <trkpt lat="47.73046" lon="-1.15499">
        <ele>66</ele>
        <time>2021-03-25T02:55:01Z</time>
      </trkpt>
      <trkpt lat="47.73042" lon="-1.15492">
        <ele>66</ele>
        <time>2021-03-25T02:55:02Z</time>
      </trkpt>
      <trkpt lat="47.7304" lon="-1.15486">
        <ele>66</ele>
        <time>2021-03-25T02:55:03Z</time>
      </trkpt>
      <trkpt lat="47.73036" lon="-1.15479">
        <ele>65</ele>
        <time>2021-03-25T02:55:04Z</time>
      </trkpt>
      <trkpt lat="47.73035" lon="-1.15477">
        <ele>65</ele>
        <time>2021-03-25T02:55:04Z</time>
      </trkpt>
      <trkpt lat="47.73033" lon="-1.15473">
        <ele>65</ele>
        <time>2021-03-25T02:55:05Z</time>
      </trkpt>
      <trkpt lat="47.7303" lon="-1.15465">
        <ele>65</ele>
        <time>2021-03-25T02:55:06Z</time>
      </trkpt>
      <trkpt lat="47.73026" lon="-1.15459">
        <ele>65</ele>
        <time>2021-03-25T02:55:07Z</time>
      </trkpt>
      <trkpt lat="47.73021" lon="-1.15452">
        <ele>65</ele>
        <time>2021-03-25T02:55:08Z</time>
      </trkpt>
      <trkpt lat="47.73014" lon="-1.15441">
        <ele>65</ele>
        <time>2021-03-25T02:55:10Z</time>
      </trkpt>
      <trkpt lat="47.72988" lon="-1.15404">
        <ele>65</ele>
        <time>2021-03-25T02:55:16Z</time>
      </trkpt>
      <trkpt lat="47.72978" lon="-1.1539">
        <ele>64</ele>
        <time>2021-03-25T02:55:19Z</time>
      </trkpt>
      <trkpt lat="47.72949" lon="-1.1535">
        <ele>65</ele>
        <time>2021-03-25T02:55:26Z</time>
      </trkpt>
      <trkpt lat="47.72931" lon="-1.15323">
        <ele>65</ele>
        <time>2021-03-25T02:55:30Z</time>
      </trkpt>
      <trkpt lat="47.72902" lon="-1.15282">
        <ele>64</ele>
        <time>2021-03-25T02:55:37Z</time>
      </trkpt>
      <trkpt lat="47.72894" lon="-1.15272">
        <ele>64</ele>
        <time>2021-03-25T02:55:39Z</time>
      </trkpt>
      <trkpt lat="47.72888" lon="-1.15264">
        <ele>64</ele>
        <time>2021-03-25T02:55:41Z</time>
      </trkpt>
      <trkpt lat="47.72884" lon="-1.15257">
        <ele>64</ele>
        <time>2021-03-25T02:55:42Z</time>
      </trkpt>
      <trkpt lat="47.72879" lon="-1.15251">
        <ele>64</ele>
        <time>2021-03-25T02:55:43Z</time>
      </trkpt>
      <trkpt lat="47.72873" lon="-1.15246">
        <ele>64</ele>
        <time>2021-03-25T02:55:44Z</time>
      </trkpt>
      <trkpt lat="47.72866" lon="-1.15241">
        <ele>64</ele>
        <time>2021-03-25T02:55:46Z</time>
      </trkpt>
      <trkpt lat="47.72859" lon="-1.15235">
        <ele>64</ele>
        <time>2021-03-25T02:55:47Z</time>
      </trkpt>
      <trkpt lat="47.72853" lon="-1.1523">
        <ele>64</ele>
        <time>2021-03-25T02:55:48Z</time>
      </trkpt>
      <trkpt lat="47.72845" lon="-1.15226">
        <ele>64</ele>
        <time>2021-03-25T02:55:50Z</time>
      </trkpt>
      <trkpt lat="47.72833" lon="-1.15221">
        <ele>64</ele>
        <time>2021-03-25T02:55:52Z</time>
      </trkpt>
      <trkpt lat="47.72819" lon="-1.15214">
        <ele>63</ele>
        <time>2021-03-25T02:55:55Z</time>
      </trkpt>
      <trkpt lat="47.72805" lon="-1.15206">
        <ele>62</ele>
        <time>2021-03-25T02:55:57Z</time>
      </trkpt>
      <trkpt lat="47.72793" lon="-1.15198">
        <ele>62</ele>
        <time>2021-03-25T02:56:00Z</time>
      </trkpt>
      <trkpt lat="47.72781" lon="-1.15191">
        <ele>61</ele>
        <time>2021-03-25T02:56:02Z</time>
      </trkpt>
      <trkpt lat="47.72773" lon="-1.15184">
        <ele>61</ele>
        <time>2021-03-25T02:56:04Z</time>
      </trkpt>
      <trkpt lat="47.72765" lon="-1.15178">
        <ele>61</ele>
        <time>2021-03-25T02:56:05Z</time>
      </trkpt>
      <trkpt lat="47.72756" lon="-1.15168">
        <ele>61</ele>
        <time>2021-03-25T02:56:07Z</time>
      </trkpt>
      <trkpt lat="47.72747" lon="-1.15157">
        <ele>61</ele>
        <time>2021-03-25T02:56:09Z</time>
      </trkpt>
      <trkpt lat="47.72736" lon="-1.15143">
        <ele>61</ele>
        <time>2021-03-25T02:56:12Z</time>
      </trkpt>
      <trkpt lat="47.72736" lon="-1.15142">
        <ele>61</ele>
        <time>2021-03-25T02:56:12Z</time>
      </trkpt>
      <trkpt lat="47.72727" lon="-1.15127">
        <ele>61</ele>
        <time>2021-03-25T02:56:14Z</time>
      </trkpt>
      <trkpt lat="47.72719" lon="-1.15114">
        <ele>61</ele>
        <time>2021-03-25T02:56:16Z</time>
      </trkpt>
      <trkpt lat="47.72708" lon="-1.15094">
        <ele>61</ele>
        <time>2021-03-25T02:56:20Z</time>
      </trkpt>
      <trkpt lat="47.72701" lon="-1.1508">
        <ele>61</ele>
        <time>2021-03-25T02:56:22Z</time>
      </trkpt>
      <trkpt lat="47.72696" lon="-1.1507">
        <ele>61</ele>
        <time>2021-03-25T02:56:23Z</time>
      </trkpt>
      <trkpt lat="47.72691" lon="-1.15061">
        <ele>60</ele>
        <time>2021-03-25T02:56:24Z</time>
      </trkpt>
      <trkpt lat="47.72682" lon="-1.1505">
        <ele>60</ele>
        <time>2021-03-25T02:56:27Z</time>
      </trkpt>
      <trkpt lat="47.72669" lon="-1.15033">
        <ele>60</ele>
        <time>2021-03-25T02:56:30Z</time>
      </trkpt>
      <trkpt lat="47.72653" lon="-1.15013">
        <ele>59</ele>
        <time>2021-03-25T02:56:33Z</time>
      </trkpt>
      <trkpt lat="47.72642" lon="-1.14996">
        <ele>60</ele>
        <time>2021-03-25T02:56:36Z</time>
      </trkpt>
      <trkpt lat="47.72628" lon="-1.14972">
        <ele>60</ele>
        <time>2021-03-25T02:56:40Z</time>
      </trkpt>
      <trkpt lat="47.72618" lon="-1.14956">
        <ele>61</ele>
        <time>2021-03-25T02:56:43Z</time>
      </trkpt>
      <trkpt lat="47.7261" lon="-1.1494">
        <ele>62</ele>
        <time>2021-03-25T02:56:45Z</time>
      </trkpt>
      <trkpt lat="47.72603" lon="-1.14926">
        <ele>62</ele>
        <time>2021-03-25T02:56:47Z</time>
      </trkpt>
      <trkpt lat="47.72595" lon="-1.1491">
        <ele>62</ele>
        <time>2021-03-25T02:56:49Z</time>
      </trkpt>
      <trkpt lat="47.72582" lon="-1.1488">
        <ele>62</ele>
        <time>2021-03-25T02:56:54Z</time>
      </trkpt>
      <trkpt lat="47.7257" lon="-1.14853">
        <ele>62</ele>
        <time>2021-03-25T02:56:58Z</time>
      </trkpt>
      <trkpt lat="47.72563" lon="-1.14836">
        <ele>62</ele>
        <time>2021-03-25T02:57:00Z</time>
      </trkpt>
      <trkpt lat="47.72555" lon="-1.14819">
        <ele>62</ele>
        <time>2021-03-25T02:57:02Z</time>
      </trkpt>
      <trkpt lat="47.7255" lon="-1.14807">
        <ele>62</ele>
        <time>2021-03-25T02:57:04Z</time>
      </trkpt>
      <trkpt lat="47.72543" lon="-1.14794">
        <ele>62</ele>
        <time>2021-03-25T02:57:06Z</time>
      </trkpt>
      <trkpt lat="47.72534" lon="-1.14776">
        <ele>62</ele>
        <time>2021-03-25T02:57:09Z</time>
      </trkpt>
      <trkpt lat="47.7252" lon="-1.14752">
        <ele>62</ele>
        <time>2021-03-25T02:57:13Z</time>
      </trkpt>
      <trkpt lat="47.72485" lon="-1.14693">
        <ele>62</ele>
        <time>2021-03-25T02:57:22Z</time>
      </trkpt>
      <trkpt lat="47.72485" lon="-1.14692">
        <ele>62</ele>
        <time>2021-03-25T02:57:22Z</time>
      </trkpt>
      <trkpt lat="47.72456" lon="-1.14642">
        <ele>62</ele>
        <time>2021-03-25T02:57:30Z</time>
      </trkpt>
      <trkpt lat="47.72413" lon="-1.14567">
        <ele>62</ele>
        <time>2021-03-25T02:57:42Z</time>
      </trkpt>
      <trkpt lat="47.72383" lon="-1.14513">
        <ele>62</ele>
        <time>2021-03-25T02:57:50Z</time>
      </trkpt>
      <trkpt lat="47.72369" lon="-1.1449">
        <ele>61</ele>
        <time>2021-03-25T02:57:54Z</time>
      </trkpt>
      <trkpt lat="47.72366" lon="-1.14482">
        <ele>61</ele>
        <time>2021-03-25T02:57:55Z</time>
      </trkpt>
      <trkpt lat="47.7236" lon="-1.14472">
        <ele>61</ele>
        <time>2021-03-25T02:57:57Z</time>
      </trkpt>
      <trkpt lat="47.72354" lon="-1.14464">
        <ele>61</ele>
        <time>2021-03-25T02:57:58Z</time>
      </trkpt>
      <trkpt lat="47.72348" lon="-1.14456">
        <ele>60</ele>
        <time>2021-03-25T02:58:00Z</time>
      </trkpt>
      <trkpt lat="47.72342" lon="-1.14447">
        <ele>60</ele>
        <time>2021-03-25T02:58:01Z</time>
      </trkpt>
      <trkpt lat="47.72338" lon="-1.1444">
        <ele>60</ele>
        <time>2021-03-25T02:58:02Z</time>
      </trkpt>
      <trkpt lat="47.72331" lon="-1.14431">
        <ele>60</ele>
        <time>2021-03-25T02:58:04Z</time>
      </trkpt>
      <trkpt lat="47.72325" lon="-1.14422">
        <ele>60</ele>
        <time>2021-03-25T02:58:05Z</time>
      </trkpt>
      <trkpt lat="47.72319" lon="-1.14412">
        <ele>60</ele>
        <time>2021-03-25T02:58:07Z</time>
      </trkpt>
      <trkpt lat="47.72313" lon="-1.14401">
        <ele>60</ele>
        <time>2021-03-25T02:58:09Z</time>
      </trkpt>
      <trkpt lat="47.72308" lon="-1.14391">
        <ele>59</ele>
        <time>2021-03-25T02:58:10Z</time>
      </trkpt>
      <trkpt lat="47.72303" lon="-1.14381">
        <ele>59</ele>
        <time>2021-03-25T02:58:12Z</time>
      </trkpt>
      <trkpt lat="47.72298" lon="-1.14371">
        <ele>59</ele>
        <time>2021-03-25T02:58:13Z</time>
      </trkpt>
      <trkpt lat="47.72294" lon="-1.14361">
        <ele>59</ele>
        <time>2021-03-25T02:58:14Z</time>
      </trkpt>
      <trkpt lat="47.7229" lon="-1.14352">
        <ele>59</ele>
        <time>2021-03-25T02:58:16Z</time>
      </trkpt>
      <trkpt lat="47.72287" lon="-1.14341">
        <ele>59</ele>
        <time>2021-03-25T02:58:17Z</time>
      </trkpt>
      <trkpt lat="47.72283" lon="-1.1433">
        <ele>59</ele>
        <time>2021-03-25T02:58:19Z</time>
      </trkpt>
      <trkpt lat="47.72279" lon="-1.14317">
        <ele>59</ele>
        <time>2021-03-25T02:58:20Z</time>
      </trkpt>
      <trkpt lat="47.72276" lon="-1.14306">
        <ele>59</ele>
        <time>2021-03-25T02:58:22Z</time>
      </trkpt>
      <trkpt lat="47.72272" lon="-1.14294">
        <ele>59</ele>
        <time>2021-03-25T02:58:23Z</time>
      </trkpt>
      <trkpt lat="47.72269" lon="-1.14282">
        <ele>59</ele>
        <time>2021-03-25T02:58:25Z</time>
      </trkpt>
      <trkpt lat="47.72265" lon="-1.14272">
        <ele>59</ele>
        <time>2021-03-25T02:58:26Z</time>
      </trkpt>
      <trkpt lat="47.72261" lon="-1.14262">
        <ele>59</ele>
        <time>2021-03-25T02:58:28Z</time>
      </trkpt>
      <trkpt lat="47.72258" lon="-1.14254">
        <ele>59</ele>
        <time>2021-03-25T02:58:29Z</time>
      </trkpt>
      <trkpt lat="47.72254" lon="-1.14243">
        <ele>59</ele>
        <time>2021-03-25T02:58:30Z</time>
      </trkpt>
      <trkpt lat="47.72249" lon="-1.14234">
        <ele>59</ele>
        <time>2021-03-25T02:58:32Z</time>
      </trkpt>
      <trkpt lat="47.72243" lon="-1.14226">
        <ele>59</ele>
        <time>2021-03-25T02:58:33Z</time>
      </trkpt>
      <trkpt lat="47.72239" lon="-1.1422">
        <ele>59</ele>
        <time>2021-03-25T02:58:34Z</time>
      </trkpt>
      <trkpt lat="47.72233" lon="-1.14213">
        <ele>59</ele>
        <time>2021-03-25T02:58:36Z</time>
      </trkpt>
      <trkpt lat="47.72226" lon="-1.14204">
        <ele>59</ele>
        <time>2021-03-25T02:58:37Z</time>
      </trkpt>
      <trkpt lat="47.72218" lon="-1.14197">
        <ele>59</ele>
        <time>2021-03-25T02:58:39Z</time>
      </trkpt>
      <trkpt lat="47.7221" lon="-1.14188">
        <ele>59</ele>
        <time>2021-03-25T02:58:41Z</time>
      </trkpt>
      <trkpt lat="47.72202" lon="-1.14177">
        <ele>59</ele>
        <time>2021-03-25T02:58:43Z</time>
      </trkpt>
      <trkpt lat="47.72193" lon="-1.14168">
        <ele>59</ele>
        <time>2021-03-25T02:58:44Z</time>
      </trkpt>
      <trkpt lat="47.72187" lon="-1.14161">
        <ele>59</ele>
        <time>2021-03-25T02:58:46Z</time>
      </trkpt>
      <trkpt lat="47.72182" lon="-1.14152">
        <ele>58</ele>
        <time>2021-03-25T02:58:47Z</time>
      </trkpt>
      <trkpt lat="47.72177" lon="-1.14145">
        <ele>58</ele>
        <time>2021-03-25T02:58:48Z</time>
      </trkpt>
      <trkpt lat="47.72173" lon="-1.14138">
        <ele>58</ele>
        <time>2021-03-25T02:58:50Z</time>
      </trkpt>
      <trkpt lat="47.72169" lon="-1.14129">
        <ele>58</ele>
        <time>2021-03-25T02:58:51Z</time>
      </trkpt>
      <trkpt lat="47.72165" lon="-1.1412">
        <ele>58</ele>
        <time>2021-03-25T02:58:52Z</time>
      </trkpt>
      <trkpt lat="47.7216" lon="-1.1411">
        <ele>58</ele>
        <time>2021-03-25T02:58:54Z</time>
      </trkpt>
      <trkpt lat="47.72155" lon="-1.14099">
        <ele>58</ele>
        <time>2021-03-25T02:58:55Z</time>
      </trkpt>
      <trkpt lat="47.7215" lon="-1.14086">
        <ele>57</ele>
        <time>2021-03-25T02:58:57Z</time>
      </trkpt>
      <trkpt lat="47.72141" lon="-1.14066">
        <ele>57</ele>
        <time>2021-03-25T02:59:00Z</time>
      </trkpt>
      <trkpt lat="47.72132" lon="-1.14048">
        <ele>57</ele>
        <time>2021-03-25T02:59:03Z</time>
      </trkpt>
      <trkpt lat="47.72124" lon="-1.14034">
        <ele>57</ele>
        <time>2021-03-25T02:59:05Z</time>
      </trkpt>
      <trkpt lat="47.72113" lon="-1.14017">
        <ele>57</ele>
        <time>2021-03-25T02:59:08Z</time>
      </trkpt>
      <trkpt lat="47.72108" lon="-1.14009">
        <ele>57</ele>
        <time>2021-03-25T02:59:09Z</time>
      </trkpt>
      <trkpt lat="47.72103" lon="-1.14004">
        <ele>58</ele>
        <time>2021-03-25T02:59:10Z</time>
      </trkpt>
      <trkpt lat="47.72098" lon="-1.13997">
        <ele>58</ele>
        <time>2021-03-25T02:59:11Z</time>
      </trkpt>
      <trkpt lat="47.72091" lon="-1.13992">
        <ele>58</ele>
        <time>2021-03-25T02:59:13Z</time>
      </trkpt>
      <trkpt lat="47.72084" lon="-1.13987">
        <ele>58</ele>
        <time>2021-03-25T02:59:14Z</time>
      </trkpt>
      <trkpt lat="47.72077" lon="-1.13982">
        <ele>57</ele>
        <time>2021-03-25T02:59:15Z</time>
      </trkpt>
      <trkpt lat="47.72065" lon="-1.13975">
        <ele>57</ele>
        <time>2021-03-25T02:59:18Z</time>
      </trkpt>
      <trkpt lat="47.72057" lon="-1.1397">
        <ele>56</ele>
        <time>2021-03-25T02:59:19Z</time>
      </trkpt>
      <trkpt lat="47.72042" lon="-1.13963">
        <ele>55</ele>
        <time>2021-03-25T02:59:22Z</time>
      </trkpt>
      <trkpt lat="47.72032" lon="-1.13956">
        <ele>55</ele>
        <time>2021-03-25T02:59:24Z</time>
      </trkpt>
      <trkpt lat="47.7202" lon="-1.13949">
        <ele>54</ele>
        <time>2021-03-25T02:59:26Z</time>
      </trkpt>
      <trkpt lat="47.72011" lon="-1.13941">
        <ele>53</ele>
        <time>2021-03-25T02:59:28Z</time>
      </trkpt>
      <trkpt lat="47.72005" lon="-1.13935">
        <ele>53</ele>
        <time>2021-03-25T02:59:29Z</time>
      </trkpt>
      <trkpt lat="47.72" lon="-1.13927">
        <ele>52</ele>
        <time>2021-03-25T02:59:31Z</time>
      </trkpt>
      <trkpt lat="47.71996" lon="-1.13922">
        <ele>52</ele>
        <time>2021-03-25T02:59:32Z</time>
      </trkpt>
      <trkpt lat="47.7199" lon="-1.13908">
        <ele>51</ele>
        <time>2021-03-25T02:59:34Z</time>
      </trkpt>
      <trkpt lat="47.71983" lon="-1.13891">
        <ele>51</ele>
        <time>2021-03-25T02:59:36Z</time>
      </trkpt>
      <trkpt lat="47.71975" lon="-1.13861">
        <ele>50</ele>
        <time>2021-03-25T02:59:40Z</time>
      </trkpt>
      <trkpt lat="47.71968" lon="-1.13832">
        <ele>49</ele>
        <time>2021-03-25T02:59:44Z</time>
      </trkpt>
      <trkpt lat="47.71964" lon="-1.13813">
        <ele>49</ele>
        <time>2021-03-25T02:59:46Z</time>
      </trkpt>
      <trkpt lat="47.71962" lon="-1.13801">
        <ele>49</ele>
        <time>2021-03-25T02:59:47Z</time>
      </trkpt>
      <trkpt lat="47.71961" lon="-1.13789">
        <ele>49</ele>
        <time>2021-03-25T02:59:49Z</time>
      </trkpt>
      <trkpt lat="47.71959" lon="-1.13769">
        <ele>49</ele>
        <time>2021-03-25T02:59:51Z</time>
      </trkpt>
      <trkpt lat="47.71958" lon="-1.13754">
        <ele>49</ele>
        <time>2021-03-25T02:59:53Z</time>
      </trkpt>
      <trkpt lat="47.71958" lon="-1.1374">
        <ele>49</ele>
        <time>2021-03-25T02:59:55Z</time>
      </trkpt>
      <trkpt lat="47.71958" lon="-1.13715">
        <ele>48</ele>
        <time>2021-03-25T02:59:58Z</time>
      </trkpt>
      <trkpt lat="47.71957" lon="-1.13701">
        <ele>48</ele>
        <time>2021-03-25T02:59:59Z</time>
      </trkpt>
      <trkpt lat="47.71957" lon="-1.13689">
        <ele>48</ele>
        <time>2021-03-25T03:00:01Z</time>
      </trkpt>
      <trkpt lat="47.71957" lon="-1.13685">
        <ele>47</ele>
        <time>2021-03-25T03:00:01Z</time>
      </trkpt>
      <trkpt lat="47.71957" lon="-1.13674">
        <ele>47</ele>
        <time>2021-03-25T03:00:03Z</time>
      </trkpt>
      <trkpt lat="47.71957" lon="-1.13657">
        <ele>47</ele>
        <time>2021-03-25T03:00:05Z</time>
      </trkpt>
      <trkpt lat="47.71956" lon="-1.1364">
        <ele>47</ele>
        <time>2021-03-25T03:00:07Z</time>
      </trkpt>
      <trkpt lat="47.71955" lon="-1.13621">
        <ele>47</ele>
        <time>2021-03-25T03:00:09Z</time>
      </trkpt>
      <trkpt lat="47.71954" lon="-1.13605">
        <ele>46</ele>
        <time>2021-03-25T03:00:11Z</time>
      </trkpt>
      <trkpt lat="47.71951" lon="-1.13589">
        <ele>46</ele>
        <time>2021-03-25T03:00:13Z</time>
      </trkpt>
      <trkpt lat="47.71949" lon="-1.13579">
        <ele>46</ele>
        <time>2021-03-25T03:00:14Z</time>
      </trkpt>
      <trkpt lat="47.71946" lon="-1.13568">
        <ele>46</ele>
        <time>2021-03-25T03:00:16Z</time>
      </trkpt>
      <trkpt lat="47.71943" lon="-1.13556">
        <ele>46</ele>
        <time>2021-03-25T03:00:17Z</time>
      </trkpt>
      <trkpt lat="47.7194" lon="-1.13545">
        <ele>46</ele>
        <time>2021-03-25T03:00:19Z</time>
      </trkpt>
      <trkpt lat="47.71938" lon="-1.13536">
        <ele>46</ele>
        <time>2021-03-25T03:00:20Z</time>
      </trkpt>
      <trkpt lat="47.71935" lon="-1.13526">
        <ele>46</ele>
        <time>2021-03-25T03:00:21Z</time>
      </trkpt>
      <trkpt lat="47.71931" lon="-1.13516">
        <ele>46</ele>
        <time>2021-03-25T03:00:22Z</time>
      </trkpt>
      <trkpt lat="47.71928" lon="-1.13507">
        <ele>46</ele>
        <time>2021-03-25T03:00:24Z</time>
      </trkpt>
      <trkpt lat="47.71924" lon="-1.13498">
        <ele>46</ele>
        <time>2021-03-25T03:00:25Z</time>
      </trkpt>
      <trkpt lat="47.71919" lon="-1.13489">
        <ele>46</ele>
        <time>2021-03-25T03:00:26Z</time>
      </trkpt>
      <trkpt lat="47.71914" lon="-1.13481">
        <ele>46</ele>
        <time>2021-03-25T03:00:28Z</time>
      </trkpt>
      <trkpt lat="47.71909" lon="-1.13473">
        <ele>46</ele>
        <time>2021-03-25T03:00:29Z</time>
      </trkpt>
      <trkpt lat="47.71902" lon="-1.13463">
        <ele>45</ele>
        <time>2021-03-25T03:00:31Z</time>
      </trkpt>
      <trkpt lat="47.71896" lon="-1.13453">
        <ele>45</ele>
        <time>2021-03-25T03:00:32Z</time>
      </trkpt>
      <trkpt lat="47.71889" lon="-1.13443">
        <ele>45</ele>
        <time>2021-03-25T03:00:34Z</time>
      </trkpt>
      <trkpt lat="47.71878" lon="-1.13427">
        <ele>45</ele>
        <time>2021-03-25T03:00:37Z</time>
      </trkpt>
      <trkpt lat="47.71861" lon="-1.13402">
        <ele>45</ele>
        <time>2021-03-25T03:00:41Z</time>
      </trkpt>
      <trkpt lat="47.7185" lon="-1.13388">
        <ele>45</ele>
        <time>2021-03-25T03:00:44Z</time>
      </trkpt>
      <trkpt lat="47.71832" lon="-1.13363">
        <ele>45</ele>
        <time>2021-03-25T03:00:48Z</time>
      </trkpt>
      <trkpt lat="47.71822" lon="-1.13351">
        <ele>45</ele>
        <time>2021-03-25T03:00:50Z</time>
      </trkpt>
      <trkpt lat="47.71795" lon="-1.13317">
        <ele>46</ele>
        <time>2021-03-25T03:00:57Z</time>
      </trkpt>
      <trkpt lat="47.71793" lon="-1.13314">
        <ele>46</ele>
        <time>2021-03-25T03:00:57Z</time>
      </trkpt>
      <trkpt lat="47.7179" lon="-1.13311">
        <ele>46</ele>
        <time>2021-03-25T03:00:58Z</time>
      </trkpt>
      <trkpt lat="47.71779" lon="-1.13297">
        <ele>46</ele>
        <time>2021-03-25T03:01:00Z</time>
      </trkpt>
      <trkpt lat="47.71772" lon="-1.13288">
        <ele>46</ele>
        <time>2021-03-25T03:01:02Z</time>
      </trkpt>
      <trkpt lat="47.71765" lon="-1.1328">
        <ele>47</ele>
        <time>2021-03-25T03:01:03Z</time>
      </trkpt>
      <trkpt lat="47.7176" lon="-1.13272">
        <ele>47</ele>
        <time>2021-03-25T03:01:05Z</time>
      </trkpt>
      <trkpt lat="47.71753" lon="-1.13265">
        <ele>47</ele>
        <time>2021-03-25T03:01:06Z</time>
      </trkpt>
      <trkpt lat="47.71746" lon="-1.13258">
        <ele>48</ele>
        <time>2021-03-25T03:01:08Z</time>
      </trkpt>
      <trkpt lat="47.71738" lon="-1.13251">
        <ele>48</ele>
        <time>2021-03-25T03:01:09Z</time>
      </trkpt>
      <trkpt lat="47.7173" lon="-1.13244">
        <ele>48</ele>
        <time>2021-03-25T03:01:11Z</time>
      </trkpt>
      <trkpt lat="47.71723" lon="-1.13238">
        <ele>47</ele>
        <time>2021-03-25T03:01:13Z</time>
      </trkpt>
      <trkpt lat="47.71721" lon="-1.13236">
        <ele>47</ele>
        <time>2021-03-25T03:01:13Z</time>
      </trkpt>
      <trkpt lat="47.71712" lon="-1.13228">
        <ele>47</ele>
        <time>2021-03-25T03:01:15Z</time>
      </trkpt>
      <trkpt lat="47.71703" lon="-1.13219">
        <ele>47</ele>
        <time>2021-03-25T03:01:17Z</time>
      </trkpt>
      <trkpt lat="47.71693" lon="-1.13208">
        <ele>47</ele>
        <time>2021-03-25T03:01:19Z</time>
      </trkpt>
      <trkpt lat="47.71683" lon="-1.13198">
        <ele>47</ele>
        <time>2021-03-25T03:01:21Z</time>
      </trkpt>
      <trkpt lat="47.71674" lon="-1.13187">
        <ele>47</ele>
        <time>2021-03-25T03:01:23Z</time>
      </trkpt>
      <trkpt lat="47.71666" lon="-1.13177">
        <ele>47</ele>
        <time>2021-03-25T03:01:25Z</time>
      </trkpt>
      <trkpt lat="47.71658" lon="-1.13165">
        <ele>47</ele>
        <time>2021-03-25T03:01:27Z</time>
      </trkpt>
      <trkpt lat="47.71649" lon="-1.13153">
        <ele>47</ele>
        <time>2021-03-25T03:01:29Z</time>
      </trkpt>
      <trkpt lat="47.71642" lon="-1.13141">
        <ele>47</ele>
        <time>2021-03-25T03:01:31Z</time>
      </trkpt>
      <trkpt lat="47.71637" lon="-1.13132">
        <ele>47</ele>
        <time>2021-03-25T03:01:32Z</time>
      </trkpt>
      <trkpt lat="47.71631" lon="-1.13118">
        <ele>47</ele>
        <time>2021-03-25T03:01:34Z</time>
      </trkpt>
      <trkpt lat="47.71625" lon="-1.13103">
        <ele>47</ele>
        <time>2021-03-25T03:01:37Z</time>
      </trkpt>
      <trkpt lat="47.7162" lon="-1.13089">
        <ele>47</ele>
        <time>2021-03-25T03:01:38Z</time>
      </trkpt>
      <trkpt lat="47.71614" lon="-1.13074">
        <ele>47</ele>
        <time>2021-03-25T03:01:41Z</time>
      </trkpt>
      <trkpt lat="47.71609" lon="-1.13056">
        <ele>47</ele>
        <time>2021-03-25T03:01:43Z</time>
      </trkpt>
      <trkpt lat="47.71603" lon="-1.13037">
        <ele>47</ele>
        <time>2021-03-25T03:01:45Z</time>
      </trkpt>
      <trkpt lat="47.71598" lon="-1.13021">
        <ele>47</ele>
        <time>2021-03-25T03:01:48Z</time>
      </trkpt>
      <trkpt lat="47.71593" lon="-1.13004">
        <ele>47</ele>
        <time>2021-03-25T03:01:50Z</time>
      </trkpt>
      <trkpt lat="47.71589" lon="-1.12985">
        <ele>47</ele>
        <time>2021-03-25T03:01:52Z</time>
      </trkpt>
      <trkpt lat="47.71583" lon="-1.12965">
        <ele>47</ele>
        <time>2021-03-25T03:01:55Z</time>
      </trkpt>
      <trkpt lat="47.71578" lon="-1.12946">
        <ele>46</ele>
        <time>2021-03-25T03:01:57Z</time>
      </trkpt>
      <trkpt lat="47.71575" lon="-1.12931">
        <ele>46</ele>
        <time>2021-03-25T03:01:59Z</time>
      </trkpt>
      <trkpt lat="47.71572" lon="-1.12917">
        <ele>46</ele>
        <time>2021-03-25T03:02:01Z</time>
      </trkpt>
      <trkpt lat="47.7157" lon="-1.12905">
        <ele>46</ele>
        <time>2021-03-25T03:02:02Z</time>
      </trkpt>
      <trkpt lat="47.71569" lon="-1.12893">
        <ele>47</ele>
        <time>2021-03-25T03:02:04Z</time>
      </trkpt>
      <trkpt lat="47.71568" lon="-1.12878">
        <ele>47</ele>
        <time>2021-03-25T03:02:06Z</time>
      </trkpt>
      <trkpt lat="47.7157" lon="-1.12848">
        <ele>47</ele>
        <time>2021-03-25T03:02:09Z</time>
      </trkpt>
      <trkpt lat="47.7157" lon="-1.12848">
        <ele>47</ele>
        <time>2021-03-25T03:02:09Z</time>
      </trkpt>
      <trkpt lat="47.7156" lon="-1.12846">
        <ele>47</ele>
        <time>2021-03-25T03:02:11Z</time>
      </trkpt>
      <trkpt lat="47.71559" lon="-1.12846">
        <ele>47</ele>
        <time>2021-03-25T03:02:11Z</time>
      </trkpt>
      <trkpt lat="47.71546" lon="-1.12845">
        <ele>47</ele>
        <time>2021-03-25T03:02:13Z</time>
      </trkpt>
      <trkpt lat="47.71528" lon="-1.12843">
        <ele>48</ele>
        <time>2021-03-25T03:02:17Z</time>
      </trkpt>
      <trkpt lat="47.7152" lon="-1.12842">
        <ele>48</ele>
        <time>2021-03-25T03:02:18Z</time>
      </trkpt>
      <trkpt lat="47.71512" lon="-1.12842">
        <ele>48</ele>
        <time>2021-03-25T03:02:20Z</time>
      </trkpt>
      <trkpt lat="47.71506" lon="-1.12841">
        <ele>48</ele>
        <time>2021-03-25T03:02:21Z</time>
      </trkpt>
      <trkpt lat="47.71501" lon="-1.1284">
        <ele>48</ele>
        <time>2021-03-25T03:02:21Z</time>
      </trkpt>
      <trkpt lat="47.71498" lon="-1.1284">
        <ele>48</ele>
        <time>2021-03-25T03:02:22Z</time>
      </trkpt>
      <trkpt lat="47.71496" lon="-1.1284">
        <ele>48</ele>
        <time>2021-03-25T03:02:22Z</time>
      </trkpt>
      <trkpt lat="47.71492" lon="-1.12841">
        <ele>48</ele>
        <time>2021-03-25T03:02:23Z</time>
      </trkpt>
      <trkpt lat="47.71488" lon="-1.12841">
        <ele>49</ele>
        <time>2021-03-25T03:02:24Z</time>
      </trkpt>
      <trkpt lat="47.71481" lon="-1.12843">
        <ele>49</ele>
        <time>2021-03-25T03:02:25Z</time>
      </trkpt>
      <trkpt lat="47.71471" lon="-1.12846">
        <ele>49</ele>
        <time>2021-03-25T03:02:27Z</time>
      </trkpt>
      <trkpt lat="47.71465" lon="-1.12847">
        <ele>50</ele>
        <time>2021-03-25T03:02:28Z</time>
      </trkpt>
      <trkpt lat="47.71458" lon="-1.12849">
        <ele>50</ele>
        <time>2021-03-25T03:02:29Z</time>
      </trkpt>
      <trkpt lat="47.71453" lon="-1.12849">
        <ele>50</ele>
        <time>2021-03-25T03:02:30Z</time>
      </trkpt>
      <trkpt lat="47.7145" lon="-1.12849">
        <ele>51</ele>
        <time>2021-03-25T03:02:31Z</time>
      </trkpt>
      <trkpt lat="47.71447" lon="-1.12849">
        <ele>51</ele>
        <time>2021-03-25T03:02:31Z</time>
      </trkpt>
      <trkpt lat="47.71444" lon="-1.12848">
        <ele>51</ele>
        <time>2021-03-25T03:02:32Z</time>
      </trkpt>
      <trkpt lat="47.71441" lon="-1.12846">
        <ele>51</ele>
        <time>2021-03-25T03:02:32Z</time>
      </trkpt>
      <trkpt lat="47.71438" lon="-1.12845">
        <ele>51</ele>
        <time>2021-03-25T03:02:33Z</time>
      </trkpt>
      <trkpt lat="47.71436" lon="-1.12842">
        <ele>51</ele>
        <time>2021-03-25T03:02:33Z</time>
      </trkpt>
      <trkpt lat="47.71434" lon="-1.12837">
        <ele>51</ele>
        <time>2021-03-25T03:02:34Z</time>
      </trkpt>
      <trkpt lat="47.71433" lon="-1.12834">
        <ele>51</ele>
        <time>2021-03-25T03:02:34Z</time>
      </trkpt>
      <trkpt lat="47.71432" lon="-1.12831">
        <ele>51</ele>
        <time>2021-03-25T03:02:35Z</time>
      </trkpt>
      <trkpt lat="47.7143" lon="-1.12826">
        <ele>51</ele>
        <time>2021-03-25T03:02:36Z</time>
      </trkpt>
      <trkpt lat="47.7143" lon="-1.12821">
        <ele>51</ele>
        <time>2021-03-25T03:02:36Z</time>
      </trkpt>
      <trkpt lat="47.71429" lon="-1.12815">
        <ele>51</ele>
        <time>2021-03-25T03:02:37Z</time>
      </trkpt>
      <trkpt lat="47.71428" lon="-1.12809">
        <ele>51</ele>
        <time>2021-03-25T03:02:38Z</time>
      </trkpt>
      <trkpt lat="47.71428" lon="-1.12803">
        <ele>51</ele>
        <time>2021-03-25T03:02:38Z</time>
      </trkpt>
      <trkpt lat="47.71427" lon="-1.12798">
        <ele>51</ele>
        <time>2021-03-25T03:02:39Z</time>
      </trkpt>
      <trkpt lat="47.71426" lon="-1.12795">
        <ele>51</ele>
        <time>2021-03-25T03:02:39Z</time>
      </trkpt>
      <trkpt lat="47.71425" lon="-1.1279">
        <ele>51</ele>
        <time>2021-03-25T03:02:40Z</time>
      </trkpt>
      <trkpt lat="47.71423" lon="-1.12787">
        <ele>51</ele>
        <time>2021-03-25T03:02:41Z</time>
      </trkpt>
      <trkpt lat="47.71421" lon="-1.12785">
        <ele>51</ele>
        <time>2021-03-25T03:02:41Z</time>
      </trkpt>
      <trkpt lat="47.71418" lon="-1.12783">
        <ele>51</ele>
        <time>2021-03-25T03:02:42Z</time>
      </trkpt>
      <trkpt lat="47.71411" lon="-1.12778">
        <ele>51</ele>
        <time>2021-03-25T03:02:43Z</time>
      </trkpt>
      <trkpt lat="47.71408" lon="-1.12777">
        <ele>51</ele>
        <time>2021-03-25T03:02:43Z</time>
      </trkpt>
      <trkpt lat="47.71404" lon="-1.12775">
        <ele>51</ele>
        <time>2021-03-25T03:02:44Z</time>
      </trkpt>
      <trkpt lat="47.71401" lon="-1.12773">
        <ele>51</ele>
        <time>2021-03-25T03:02:45Z</time>
      </trkpt>
      <trkpt lat="47.71397" lon="-1.12772">
        <ele>51</ele>
        <time>2021-03-25T03:02:46Z</time>
      </trkpt>
      <trkpt lat="47.71392" lon="-1.1277">
        <ele>51</ele>
        <time>2021-03-25T03:02:46Z</time>
      </trkpt>
      <trkpt lat="47.71388" lon="-1.12769">
        <ele>51</ele>
        <time>2021-03-25T03:02:47Z</time>
      </trkpt>
      <trkpt lat="47.71384" lon="-1.12767">
        <ele>52</ele>
        <time>2021-03-25T03:02:48Z</time>
      </trkpt>
      <trkpt lat="47.7138" lon="-1.12767">
        <ele>52</ele>
        <time>2021-03-25T03:02:49Z</time>
      </trkpt>
      <trkpt lat="47.71377" lon="-1.12766">
        <ele>52</ele>
        <time>2021-03-25T03:02:49Z</time>
      </trkpt>
      <trkpt lat="47.71372" lon="-1.12766">
        <ele>52</ele>
        <time>2021-03-25T03:02:50Z</time>
      </trkpt>
      <trkpt lat="47.71368" lon="-1.12765">
        <ele>52</ele>
        <time>2021-03-25T03:02:51Z</time>
      </trkpt>
      <trkpt lat="47.71364" lon="-1.12765">
        <ele>52</ele>
        <time>2021-03-25T03:02:51Z</time>
      </trkpt>
      <trkpt lat="47.7136" lon="-1.12766">
        <ele>52</ele>
        <time>2021-03-25T03:02:52Z</time>
      </trkpt>
      <trkpt lat="47.71351" lon="-1.12767">
        <ele>53</ele>
        <time>2021-03-25T03:02:54Z</time>
      </trkpt>
      <trkpt lat="47.71344" lon="-1.12768">
        <ele>53</ele>
        <time>2021-03-25T03:02:55Z</time>
      </trkpt>
      <trkpt lat="47.71329" lon="-1.12771">
        <ele>54</ele>
        <time>2021-03-25T03:02:58Z</time>
      </trkpt>
      <trkpt lat="47.71323" lon="-1.12773">
        <ele>54</ele>
        <time>2021-03-25T03:02:59Z</time>
      </trkpt>
      <trkpt lat="47.71317" lon="-1.12774">
        <ele>54</ele>
        <time>2021-03-25T03:03:00Z</time>
      </trkpt>
      <trkpt lat="47.713" lon="-1.12778">
        <ele>55</ele>
        <time>2021-03-25T03:03:03Z</time>
      </trkpt>
      <trkpt lat="47.7129" lon="-1.12779">
        <ele>56</ele>
        <time>2021-03-25T03:03:05Z</time>
      </trkpt>
      <trkpt lat="47.71282" lon="-1.12778">
        <ele>56</ele>
        <time>2021-03-25T03:03:06Z</time>
      </trkpt>
      <trkpt lat="47.71278" lon="-1.12775">
        <ele>56</ele>
        <time>2021-03-25T03:03:07Z</time>
      </trkpt>
      <trkpt lat="47.71277" lon="-1.12774">
        <ele>56</ele>
        <time>2021-03-25T03:03:07Z</time>
      </trkpt>
      <trkpt lat="47.71274" lon="-1.1277">
        <ele>56</ele>
        <time>2021-03-25T03:03:08Z</time>
      </trkpt>
      <trkpt lat="47.7127" lon="-1.12764">
        <ele>56</ele>
        <time>2021-03-25T03:03:09Z</time>
      </trkpt>
      <trkpt lat="47.71267" lon="-1.12758">
        <ele>56</ele>
        <time>2021-03-25T03:03:10Z</time>
      </trkpt>
      <trkpt lat="47.7126" lon="-1.12741">
        <ele>56</ele>
        <time>2021-03-25T03:03:12Z</time>
      </trkpt>
      <trkpt lat="47.71252" lon="-1.1272">
        <ele>55</ele>
        <time>2021-03-25T03:03:15Z</time>
      </trkpt>
      <trkpt lat="47.71243" lon="-1.1269">
        <ele>54</ele>
        <time>2021-03-25T03:03:19Z</time>
      </trkpt>
      <trkpt lat="47.71231" lon="-1.12648">
        <ele>53</ele>
        <time>2021-03-25T03:03:25Z</time>
      </trkpt>
      <trkpt lat="47.71223" lon="-1.12618">
        <ele>53</ele>
        <time>2021-03-25T03:03:28Z</time>
      </trkpt>
      <trkpt lat="47.71214" lon="-1.12586">
        <ele>53</ele>
        <time>2021-03-25T03:03:33Z</time>
      </trkpt>
      <trkpt lat="47.71211" lon="-1.1257">
        <ele>53</ele>
        <time>2021-03-25T03:03:35Z</time>
      </trkpt>
      <trkpt lat="47.71209" lon="-1.12561">
        <ele>52</ele>
        <time>2021-03-25T03:03:36Z</time>
      </trkpt>
      <trkpt lat="47.71207" lon="-1.12552">
        <ele>52</ele>
        <time>2021-03-25T03:03:37Z</time>
      </trkpt>
      <trkpt lat="47.71204" lon="-1.12542">
        <ele>52</ele>
        <time>2021-03-25T03:03:38Z</time>
      </trkpt>
      <trkpt lat="47.71202" lon="-1.12534">
        <ele>52</ele>
        <time>2021-03-25T03:03:39Z</time>
      </trkpt>
      <trkpt lat="47.71198" lon="-1.12523">
        <ele>52</ele>
        <time>2021-03-25T03:03:41Z</time>
      </trkpt>
      <trkpt lat="47.71194" lon="-1.12512">
        <ele>52</ele>
        <time>2021-03-25T03:03:42Z</time>
      </trkpt>
      <trkpt lat="47.71186" lon="-1.1249">
        <ele>52</ele>
        <time>2021-03-25T03:03:45Z</time>
      </trkpt>
      <trkpt lat="47.71175" lon="-1.12459">
        <ele>52</ele>
        <time>2021-03-25T03:03:49Z</time>
      </trkpt>
      <trkpt lat="47.7117" lon="-1.12443">
        <ele>52</ele>
        <time>2021-03-25T03:03:51Z</time>
      </trkpt>
      <trkpt lat="47.71166" lon="-1.12433">
        <ele>52</ele>
        <time>2021-03-25T03:03:53Z</time>
      </trkpt>
      <trkpt lat="47.71164" lon="-1.12428">
        <ele>52</ele>
        <time>2021-03-25T03:03:54Z</time>
      </trkpt>
      <trkpt lat="47.7116" lon="-1.12415">
        <ele>52</ele>
        <time>2021-03-25T03:03:55Z</time>
      </trkpt>
      <trkpt lat="47.71158" lon="-1.12405">
        <ele>53</ele>
        <time>2021-03-25T03:03:56Z</time>
      </trkpt>
      <trkpt lat="47.71155" lon="-1.12396">
        <ele>53</ele>
        <time>2021-03-25T03:03:58Z</time>
      </trkpt>
      <trkpt lat="47.71153" lon="-1.12386">
        <ele>53</ele>
        <time>2021-03-25T03:03:59Z</time>
      </trkpt>
      <trkpt lat="47.7115" lon="-1.12375">
        <ele>53</ele>
        <time>2021-03-25T03:04:00Z</time>
      </trkpt>
      <trkpt lat="47.71147" lon="-1.12351">
        <ele>54</ele>
        <time>2021-03-25T03:04:03Z</time>
      </trkpt>
      <trkpt lat="47.71143" lon="-1.12325">
        <ele>54</ele>
        <time>2021-03-25T03:04:06Z</time>
      </trkpt>
      <trkpt lat="47.71138" lon="-1.12305">
        <ele>54</ele>
        <time>2021-03-25T03:04:09Z</time>
      </trkpt>
      <trkpt lat="47.71137" lon="-1.123">
        <ele>54</ele>
        <time>2021-03-25T03:04:10Z</time>
      </trkpt>
      <trkpt lat="47.71132" lon="-1.12291">
        <ele>54</ele>
        <time>2021-03-25T03:04:11Z</time>
      </trkpt>
      <trkpt lat="47.71131" lon="-1.12289">
        <ele>54</ele>
        <time>2021-03-25T03:04:11Z</time>
      </trkpt>
      <trkpt lat="47.7113" lon="-1.12288">
        <ele>54</ele>
        <time>2021-03-25T03:04:12Z</time>
      </trkpt>
      <trkpt lat="47.71128" lon="-1.12286">
        <ele>54</ele>
        <time>2021-03-25T03:04:12Z</time>
      </trkpt>
      <trkpt lat="47.71126" lon="-1.12284">
        <ele>54</ele>
        <time>2021-03-25T03:04:12Z</time>
      </trkpt>
      <trkpt lat="47.71124" lon="-1.12283">
        <ele>54</ele>
        <time>2021-03-25T03:04:13Z</time>
      </trkpt>
      <trkpt lat="47.71121" lon="-1.12282">
        <ele>55</ele>
        <time>2021-03-25T03:04:13Z</time>
      </trkpt>
      <trkpt lat="47.71117" lon="-1.12281">
        <ele>55</ele>
        <time>2021-03-25T03:04:14Z</time>
      </trkpt>
      <trkpt lat="47.71112" lon="-1.12282">
        <ele>55</ele>
        <time>2021-03-25T03:04:15Z</time>
      </trkpt>
      <trkpt lat="47.71105" lon="-1.12282">
        <ele>55</ele>
        <time>2021-03-25T03:04:16Z</time>
      </trkpt>
      <trkpt lat="47.71092" lon="-1.12283">
        <ele>56</ele>
        <time>2021-03-25T03:04:19Z</time>
      </trkpt>
      <trkpt lat="47.7108" lon="-1.12284">
        <ele>56</ele>
        <time>2021-03-25T03:04:21Z</time>
      </trkpt>
      <trkpt lat="47.71073" lon="-1.12284">
        <ele>56</ele>
        <time>2021-03-25T03:04:22Z</time>
      </trkpt>
      <trkpt lat="47.71063" lon="-1.12284">
        <ele>57</ele>
        <time>2021-03-25T03:04:24Z</time>
      </trkpt>
      <trkpt lat="47.71058" lon="-1.12283">
        <ele>57</ele>
        <time>2021-03-25T03:04:25Z</time>
      </trkpt>
      <trkpt lat="47.71054" lon="-1.12281">
        <ele>57</ele>
        <time>2021-03-25T03:04:25Z</time>
      </trkpt>
      <trkpt lat="47.7105" lon="-1.1228">
        <ele>58</ele>
        <time>2021-03-25T03:04:26Z</time>
      </trkpt>
      <trkpt lat="47.71047" lon="-1.12276">
        <ele>58</ele>
        <time>2021-03-25T03:04:27Z</time>
      </trkpt>
      <trkpt lat="47.71044" lon="-1.12273">
        <ele>58</ele>
        <time>2021-03-25T03:04:27Z</time>
      </trkpt>
      <trkpt lat="47.7104" lon="-1.12267">
        <ele>58</ele>
        <time>2021-03-25T03:04:28Z</time>
      </trkpt>
      <trkpt lat="47.71036" lon="-1.12262">
        <ele>58</ele>
        <time>2021-03-25T03:04:29Z</time>
      </trkpt>
      <trkpt lat="47.71033" lon="-1.12257">
        <ele>58</ele>
        <time>2021-03-25T03:04:30Z</time>
      </trkpt>
      <trkpt lat="47.7103" lon="-1.1225">
        <ele>58</ele>
        <time>2021-03-25T03:04:31Z</time>
      </trkpt>
      <trkpt lat="47.71025" lon="-1.12236">
        <ele>58</ele>
        <time>2021-03-25T03:04:33Z</time>
      </trkpt>
      <trkpt lat="47.71019" lon="-1.12219">
        <ele>59</ele>
        <time>2021-03-25T03:04:35Z</time>
      </trkpt>
      <trkpt lat="47.7101" lon="-1.12185">
        <ele>59</ele>
        <time>2021-03-25T03:04:40Z</time>
      </trkpt>
      <trkpt lat="47.70996" lon="-1.12127">
        <ele>59</ele>
        <time>2021-03-25T03:04:47Z</time>
      </trkpt>
      <trkpt lat="47.70988" lon="-1.12093">
        <ele>59</ele>
        <time>2021-03-25T03:04:51Z</time>
      </trkpt>
      <trkpt lat="47.70986" lon="-1.12081">
        <ele>59</ele>
        <time>2021-03-25T03:04:53Z</time>
      </trkpt>
      <trkpt lat="47.70984" lon="-1.12071">
        <ele>59</ele>
        <time>2021-03-25T03:04:54Z</time>
      </trkpt>
      <trkpt lat="47.70982" lon="-1.1206">
        <ele>59</ele>
        <time>2021-03-25T03:04:55Z</time>
      </trkpt>
      <trkpt lat="47.70981" lon="-1.12051">
        <ele>59</ele>
        <time>2021-03-25T03:04:57Z</time>
      </trkpt>
      <trkpt lat="47.7098" lon="-1.12042">
        <ele>59</ele>
        <time>2021-03-25T03:04:58Z</time>
      </trkpt>
      <trkpt lat="47.70979" lon="-1.12031">
        <ele>59</ele>
        <time>2021-03-25T03:04:59Z</time>
      </trkpt>
      <trkpt lat="47.70977" lon="-1.1202">
        <ele>59</ele>
        <time>2021-03-25T03:05:00Z</time>
      </trkpt>
      <trkpt lat="47.70976" lon="-1.12009">
        <ele>59</ele>
        <time>2021-03-25T03:05:02Z</time>
      </trkpt>
      <trkpt lat="47.70976" lon="-1.12001">
        <ele>59</ele>
        <time>2021-03-25T03:05:03Z</time>
      </trkpt>
      <trkpt lat="47.70975" lon="-1.11989">
        <ele>59</ele>
        <time>2021-03-25T03:05:04Z</time>
      </trkpt>
      <trkpt lat="47.70973" lon="-1.1198">
        <ele>58</ele>
        <time>2021-03-25T03:05:05Z</time>
      </trkpt>
      <trkpt lat="47.70972" lon="-1.11969">
        <ele>58</ele>
        <time>2021-03-25T03:05:07Z</time>
      </trkpt>
      <trkpt lat="47.70971" lon="-1.1196">
        <ele>58</ele>
        <time>2021-03-25T03:05:08Z</time>
      </trkpt>
      <trkpt lat="47.70969" lon="-1.11951">
        <ele>58</ele>
        <time>2021-03-25T03:05:09Z</time>
      </trkpt>
      <trkpt lat="47.70968" lon="-1.11942">
        <ele>58</ele>
        <time>2021-03-25T03:05:10Z</time>
      </trkpt>
      <trkpt lat="47.70966" lon="-1.11932">
        <ele>58</ele>
        <time>2021-03-25T03:05:11Z</time>
      </trkpt>
      <trkpt lat="47.70964" lon="-1.11922">
        <ele>58</ele>
        <time>2021-03-25T03:05:12Z</time>
      </trkpt>
      <trkpt lat="47.70962" lon="-1.11915">
        <ele>58</ele>
        <time>2021-03-25T03:05:13Z</time>
      </trkpt>
      <trkpt lat="47.70961" lon="-1.11907">
        <ele>58</ele>
        <time>2021-03-25T03:05:14Z</time>
      </trkpt>
      <trkpt lat="47.7096" lon="-1.11904">
        <ele>58</ele>
        <time>2021-03-25T03:05:15Z</time>
      </trkpt>
      <trkpt lat="47.70958" lon="-1.11899">
        <ele>58</ele>
        <time>2021-03-25T03:05:15Z</time>
      </trkpt>
      <trkpt lat="47.70956" lon="-1.11891">
        <ele>58</ele>
        <time>2021-03-25T03:05:16Z</time>
      </trkpt>
      <trkpt lat="47.70954" lon="-1.11883">
        <ele>58</ele>
        <time>2021-03-25T03:05:17Z</time>
      </trkpt>
      <trkpt lat="47.70951" lon="-1.11874">
        <ele>58</ele>
        <time>2021-03-25T03:05:19Z</time>
      </trkpt>
      <trkpt lat="47.70948" lon="-1.11866">
        <ele>58</ele>
        <time>2021-03-25T03:05:20Z</time>
      </trkpt>
      <trkpt lat="47.70944" lon="-1.11856">
        <ele>59</ele>
        <time>2021-03-25T03:05:21Z</time>
      </trkpt>
      <trkpt lat="47.70937" lon="-1.11842">
        <ele>59</ele>
        <time>2021-03-25T03:05:23Z</time>
      </trkpt>
      <trkpt lat="47.70929" lon="-1.11826">
        <ele>59</ele>
        <time>2021-03-25T03:05:26Z</time>
      </trkpt>
      <trkpt lat="47.70922" lon="-1.11813">
        <ele>59</ele>
        <time>2021-03-25T03:05:28Z</time>
      </trkpt>
      <trkpt lat="47.70913" lon="-1.118">
        <ele>60</ele>
        <time>2021-03-25T03:05:30Z</time>
      </trkpt>
      <trkpt lat="47.70906" lon="-1.11789">
        <ele>60</ele>
        <time>2021-03-25T03:05:32Z</time>
      </trkpt>
      <trkpt lat="47.70906" lon="-1.11789">
        <ele>60</ele>
        <time>2021-03-25T03:05:32Z</time>
      </trkpt>
      <trkpt lat="47.70899" lon="-1.11795">
        <ele>60</ele>
        <time>2021-03-25T03:05:33Z</time>
      </trkpt>
      <trkpt lat="47.70892" lon="-1.11801">
        <ele>61</ele>
        <time>2021-03-25T03:05:34Z</time>
      </trkpt>
      <trkpt lat="47.70884" lon="-1.11806">
        <ele>61</ele>
        <time>2021-03-25T03:05:36Z</time>
      </trkpt>
      <trkpt lat="47.70876" lon="-1.11811">
        <ele>62</ele>
        <time>2021-03-25T03:05:38Z</time>
      </trkpt>
      <trkpt lat="47.70867" lon="-1.11815">
        <ele>62</ele>
        <time>2021-03-25T03:05:39Z</time>
      </trkpt>
      <trkpt lat="47.70854" lon="-1.11822">
        <ele>63</ele>
        <time>2021-03-25T03:05:42Z</time>
      </trkpt>
      <trkpt lat="47.70811" lon="-1.11842">
        <ele>65</ele>
        <time>2021-03-25T03:05:50Z</time>
      </trkpt>
      <trkpt lat="47.70777" lon="-1.1186">
        <ele>67</ele>
        <time>2021-03-25T03:05:56Z</time>
      </trkpt>
      <trkpt lat="47.70743" lon="-1.11873">
        <ele>68</ele>
        <time>2021-03-25T03:06:02Z</time>
      </trkpt>
      <trkpt lat="47.70721" lon="-1.11882">
        <ele>69</ele>
        <time>2021-03-25T03:06:06Z</time>
      </trkpt>
      <trkpt lat="47.70691" lon="-1.11893">
        <ele>70</ele>
        <time>2021-03-25T03:06:12Z</time>
      </trkpt>
      <trkpt lat="47.70687" lon="-1.11898">
        <ele>70</ele>
        <time>2021-03-25T03:06:13Z</time>
      </trkpt>
      <trkpt lat="47.70687" lon="-1.11898">
        <ele>70</ele>
        <time>2021-03-25T03:06:13Z</time>
      </trkpt>
      <trkpt lat="47.70686" lon="-1.11901">
        <ele>70</ele>
        <time>2021-03-25T03:06:13Z</time>
      </trkpt>
      <trkpt lat="47.70686" lon="-1.11905">
        <ele>70</ele>
        <time>2021-03-25T03:06:14Z</time>
      </trkpt>
      <trkpt lat="47.70686" lon="-1.11908">
        <ele>70</ele>
        <time>2021-03-25T03:06:14Z</time>
      </trkpt>
      <trkpt lat="47.70686" lon="-1.11913">
        <ele>70</ele>
        <time>2021-03-25T03:06:15Z</time>
      </trkpt>
      <trkpt lat="47.70688" lon="-1.11921">
        <ele>71</ele>
        <time>2021-03-25T03:06:16Z</time>
      </trkpt>
      <trkpt lat="47.70691" lon="-1.11939">
        <ele>71</ele>
        <time>2021-03-25T03:06:18Z</time>
      </trkpt>
      <trkpt lat="47.70697" lon="-1.11965">
        <ele>72</ele>
        <time>2021-03-25T03:06:21Z</time>
      </trkpt>
      <trkpt lat="47.70702" lon="-1.11986">
        <ele>72</ele>
        <time>2021-03-25T03:06:24Z</time>
      </trkpt>
      <trkpt lat="47.70705" lon="-1.11995">
        <ele>73</ele>
        <time>2021-03-25T03:06:25Z</time>
      </trkpt>
      <trkpt lat="47.70713" lon="-1.12021">
        <ele>73</ele>
        <time>2021-03-25T03:06:29Z</time>
      </trkpt>
      <trkpt lat="47.70713" lon="-1.12021">
        <ele>73</ele>
        <time>2021-03-25T03:06:29Z</time>
      </trkpt>
      <trkpt lat="47.70705" lon="-1.11995">
        <ele>73</ele>
        <time>2021-03-25T03:06:32Z</time>
      </trkpt>
      <trkpt lat="47.70702" lon="-1.11986">
        <ele>72</ele>
        <time>2021-03-25T03:06:33Z</time>
      </trkpt>
      <trkpt lat="47.70697" lon="-1.11965">
        <ele>72</ele>
        <time>2021-03-25T03:06:36Z</time>
      </trkpt>
      <trkpt lat="47.70691" lon="-1.11939">
        <ele>71</ele>
        <time>2021-03-25T03:06:39Z</time>
      </trkpt>
      <trkpt lat="47.70688" lon="-1.11921">
        <ele>71</ele>
        <time>2021-03-25T03:06:41Z</time>
      </trkpt>
      <trkpt lat="47.70686" lon="-1.11913">
        <ele>70</ele>
        <time>2021-03-25T03:06:42Z</time>
      </trkpt>
      <trkpt lat="47.70686" lon="-1.11908">
        <ele>70</ele>
        <time>2021-03-25T03:06:43Z</time>
      </trkpt>
      <trkpt lat="47.70686" lon="-1.11905">
        <ele>70</ele>
        <time>2021-03-25T03:06:43Z</time>
      </trkpt>
      <trkpt lat="47.70686" lon="-1.11901">
        <ele>70</ele>
        <time>2021-03-25T03:06:44Z</time>
      </trkpt>
      <trkpt lat="47.70687" lon="-1.11898">
        <ele>70</ele>
        <time>2021-03-25T03:06:44Z</time>
      </trkpt>
      <trkpt lat="47.70687" lon="-1.11898">
        <ele>70</ele>
        <time>2021-03-25T03:06:44Z</time>
      </trkpt>
      <trkpt lat="47.70691" lon="-1.11893">
        <ele>70</ele>
        <time>2021-03-25T03:06:45Z</time>
      </trkpt>
      <trkpt lat="47.70721" lon="-1.11882">
        <ele>69</ele>
        <time>2021-03-25T03:06:51Z</time>
      </trkpt>
      <trkpt lat="47.70743" lon="-1.11873">
        <ele>68</ele>
        <time>2021-03-25T03:06:55Z</time>
      </trkpt>
      <trkpt lat="47.70777" lon="-1.1186">
        <ele>67</ele>
        <time>2021-03-25T03:07:01Z</time>
      </trkpt>
      <trkpt lat="47.70811" lon="-1.11842">
        <ele>65</ele>
        <time>2021-03-25T03:07:07Z</time>
      </trkpt>
      <trkpt lat="47.70854" lon="-1.11822">
        <ele>63</ele>
        <time>2021-03-25T03:07:15Z</time>
      </trkpt>
      <trkpt lat="47.70867" lon="-1.11815">
        <ele>62</ele>
        <time>2021-03-25T03:07:18Z</time>
      </trkpt>
      <trkpt lat="47.70876" lon="-1.11811">
        <ele>62</ele>
        <time>2021-03-25T03:07:20Z</time>
      </trkpt>
      <trkpt lat="47.70884" lon="-1.11806">
        <ele>61</ele>
        <time>2021-03-25T03:07:21Z</time>
      </trkpt>
      <trkpt lat="47.70892" lon="-1.11801">
        <ele>61</ele>
        <time>2021-03-25T03:07:23Z</time>
      </trkpt>
      <trkpt lat="47.70899" lon="-1.11795">
        <ele>60</ele>
        <time>2021-03-25T03:07:24Z</time>
      </trkpt>
      <trkpt lat="47.70906" lon="-1.11789">
        <ele>60</ele>
        <time>2021-03-25T03:07:25Z</time>
      </trkpt>
      <trkpt lat="47.70906" lon="-1.11789">
        <ele>60</ele>
        <time>2021-03-25T03:07:25Z</time>
      </trkpt>
      <trkpt lat="47.70897" lon="-1.11776">
        <ele>60</ele>
        <time>2021-03-25T03:07:28Z</time>
      </trkpt>
      <trkpt lat="47.70886" lon="-1.11756">
        <ele>61</ele>
        <time>2021-03-25T03:07:31Z</time>
      </trkpt>
      <trkpt lat="47.70873" lon="-1.11731">
        <ele>61</ele>
        <time>2021-03-25T03:07:35Z</time>
      </trkpt>
      <trkpt lat="47.70867" lon="-1.11719">
        <ele>61</ele>
        <time>2021-03-25T03:07:36Z</time>
      </trkpt>
      <trkpt lat="47.70863" lon="-1.11712">
        <ele>61</ele>
        <time>2021-03-25T03:07:37Z</time>
      </trkpt>
      <trkpt lat="47.70859" lon="-1.11707">
        <ele>61</ele>
        <time>2021-03-25T03:07:38Z</time>
      </trkpt>
      <trkpt lat="47.70855" lon="-1.11701">
        <ele>61</ele>
        <time>2021-03-25T03:07:39Z</time>
      </trkpt>
      <trkpt lat="47.70851" lon="-1.11695">
        <ele>61</ele>
        <time>2021-03-25T03:07:40Z</time>
      </trkpt>
      <trkpt lat="47.70846" lon="-1.11689">
        <ele>61</ele>
        <time>2021-03-25T03:07:42Z</time>
      </trkpt>
      <trkpt lat="47.70842" lon="-1.11683">
        <ele>61</ele>
        <time>2021-03-25T03:07:43Z</time>
      </trkpt>
      <trkpt lat="47.70838" lon="-1.11678">
        <ele>61</ele>
        <time>2021-03-25T03:07:44Z</time>
      </trkpt>
      <trkpt lat="47.70833" lon="-1.11672">
        <ele>61</ele>
        <time>2021-03-25T03:07:45Z</time>
      </trkpt>
      <trkpt lat="47.70828" lon="-1.11665">
        <ele>61</ele>
        <time>2021-03-25T03:07:46Z</time>
      </trkpt>
      <trkpt lat="47.70811" lon="-1.11642">
        <ele>62</ele>
        <time>2021-03-25T03:07:50Z</time>
      </trkpt>
      <trkpt lat="47.70799" lon="-1.11624">
        <ele>62</ele>
        <time>2021-03-25T03:07:53Z</time>
      </trkpt>
      <trkpt lat="47.70793" lon="-1.11615">
        <ele>63</ele>
        <time>2021-03-25T03:07:55Z</time>
      </trkpt>
      <trkpt lat="47.70788" lon="-1.11606">
        <ele>63</ele>
        <time>2021-03-25T03:07:56Z</time>
      </trkpt>
      <trkpt lat="47.70784" lon="-1.11598">
        <ele>63</ele>
        <time>2021-03-25T03:07:57Z</time>
      </trkpt>
      <trkpt lat="47.7078" lon="-1.11591">
        <ele>63</ele>
        <time>2021-03-25T03:07:58Z</time>
      </trkpt>
      <trkpt lat="47.70776" lon="-1.11583">
        <ele>63</ele>
        <time>2021-03-25T03:07:59Z</time>
      </trkpt>
      <trkpt lat="47.70773" lon="-1.11576">
        <ele>63</ele>
        <time>2021-03-25T03:08:00Z</time>
      </trkpt>
      <trkpt lat="47.70769" lon="-1.11569">
        <ele>63</ele>
        <time>2021-03-25T03:08:01Z</time>
      </trkpt>
      <trkpt lat="47.70766" lon="-1.11561">
        <ele>63</ele>
        <time>2021-03-25T03:08:03Z</time>
      </trkpt>
      <trkpt lat="47.70763" lon="-1.11552">
        <ele>63</ele>
        <time>2021-03-25T03:08:04Z</time>
      </trkpt>
      <trkpt lat="47.70758" lon="-1.1154">
        <ele>63</ele>
        <time>2021-03-25T03:08:05Z</time>
      </trkpt>
      <trkpt lat="47.70754" lon="-1.11528">
        <ele>63</ele>
        <time>2021-03-25T03:08:07Z</time>
      </trkpt>
      <trkpt lat="47.70748" lon="-1.11505">
        <ele>62</ele>
        <time>2021-03-25T03:08:10Z</time>
      </trkpt>
      <trkpt lat="47.70741" lon="-1.11488">
        <ele>62</ele>
        <time>2021-03-25T03:08:12Z</time>
      </trkpt>
      <trkpt lat="47.70739" lon="-1.1148">
        <ele>62</ele>
        <time>2021-03-25T03:08:13Z</time>
      </trkpt>
      <trkpt lat="47.70736" lon="-1.11473">
        <ele>62</ele>
        <time>2021-03-25T03:08:14Z</time>
      </trkpt>
      <trkpt lat="47.70732" lon="-1.11466">
        <ele>61</ele>
        <time>2021-03-25T03:08:16Z</time>
      </trkpt>
      <trkpt lat="47.70729" lon="-1.11459">
        <ele>61</ele>
        <time>2021-03-25T03:08:17Z</time>
      </trkpt>
      <trkpt lat="47.70725" lon="-1.1145">
        <ele>61</ele>
        <time>2021-03-25T03:08:18Z</time>
      </trkpt>
      <trkpt lat="47.7072" lon="-1.11441">
        <ele>61</ele>
        <time>2021-03-25T03:08:19Z</time>
      </trkpt>
      <trkpt lat="47.70703" lon="-1.1141">
        <ele>61</ele>
        <time>2021-03-25T03:08:24Z</time>
      </trkpt>
      <trkpt lat="47.7068" lon="-1.11369">
        <ele>60</ele>
        <time>2021-03-25T03:08:30Z</time>
      </trkpt>
      <trkpt lat="47.70657" lon="-1.1133">
        <ele>60</ele>
        <time>2021-03-25T03:08:37Z</time>
      </trkpt>
      <trkpt lat="47.70645" lon="-1.11311">
        <ele>60</ele>
        <time>2021-03-25T03:08:40Z</time>
      </trkpt>
      <trkpt lat="47.70633" lon="-1.11293">
        <ele>60</ele>
        <time>2021-03-25T03:08:43Z</time>
      </trkpt>
      <trkpt lat="47.70628" lon="-1.11285">
        <ele>60</ele>
        <time>2021-03-25T03:08:44Z</time>
      </trkpt>
      <trkpt lat="47.70622" lon="-1.11277">
        <ele>60</ele>
        <time>2021-03-25T03:08:46Z</time>
      </trkpt>
      <trkpt lat="47.70612" lon="-1.11259">
        <ele>60</ele>
        <time>2021-03-25T03:08:48Z</time>
      </trkpt>
      <trkpt lat="47.70607" lon="-1.1125">
        <ele>60</ele>
        <time>2021-03-25T03:08:50Z</time>
      </trkpt>
      <trkpt lat="47.70602" lon="-1.11241">
        <ele>60</ele>
        <time>2021-03-25T03:08:51Z</time>
      </trkpt>
      <trkpt lat="47.70598" lon="-1.11233">
        <ele>60</ele>
        <time>2021-03-25T03:08:52Z</time>
      </trkpt>
      <trkpt lat="47.70593" lon="-1.11224">
        <ele>60</ele>
        <time>2021-03-25T03:08:54Z</time>
      </trkpt>
      <trkpt lat="47.70589" lon="-1.11214">
        <ele>60</ele>
        <time>2021-03-25T03:08:55Z</time>
      </trkpt>
      <trkpt lat="47.70575" lon="-1.11187">
        <ele>60</ele>
        <time>2021-03-25T03:08:59Z</time>
      </trkpt>
      <trkpt lat="47.70571" lon="-1.11176">
        <ele>60</ele>
        <time>2021-03-25T03:09:01Z</time>
      </trkpt>
      <trkpt lat="47.70563" lon="-1.11157">
        <ele>59</ele>
        <time>2021-03-25T03:09:03Z</time>
      </trkpt>
      <trkpt lat="47.70546" lon="-1.11114">
        <ele>60</ele>
        <time>2021-03-25T03:09:09Z</time>
      </trkpt>
      <trkpt lat="47.70533" lon="-1.11077">
        <ele>60</ele>
        <time>2021-03-25T03:09:14Z</time>
      </trkpt>
      <trkpt lat="47.70524" lon="-1.11049">
        <ele>59</ele>
        <time>2021-03-25T03:09:18Z</time>
      </trkpt>
      <trkpt lat="47.70518" lon="-1.11035">
        <ele>59</ele>
        <time>2021-03-25T03:09:20Z</time>
      </trkpt>
      <trkpt lat="47.70512" lon="-1.11023">
        <ele>59</ele>
        <time>2021-03-25T03:09:22Z</time>
      </trkpt>
      <trkpt lat="47.70508" lon="-1.11013">
        <ele>59</ele>
        <time>2021-03-25T03:09:23Z</time>
      </trkpt>
      <trkpt lat="47.70502" lon="-1.11003">
        <ele>59</ele>
        <time>2021-03-25T03:09:25Z</time>
      </trkpt>
      <trkpt lat="47.70496" lon="-1.10993">
        <ele>59</ele>
        <time>2021-03-25T03:09:26Z</time>
      </trkpt>
      <trkpt lat="47.70489" lon="-1.10984">
        <ele>58</ele>
        <time>2021-03-25T03:09:28Z</time>
      </trkpt>
      <trkpt lat="47.70483" lon="-1.10976">
        <ele>58</ele>
        <time>2021-03-25T03:09:29Z</time>
      </trkpt>
      <trkpt lat="47.70475" lon="-1.10968">
        <ele>58</ele>
        <time>2021-03-25T03:09:31Z</time>
      </trkpt>
      <trkpt lat="47.70468" lon="-1.10964">
        <ele>57</ele>
        <time>2021-03-25T03:09:33Z</time>
      </trkpt>
      <trkpt lat="47.7046" lon="-1.10959">
        <ele>57</ele>
        <time>2021-03-25T03:09:34Z</time>
      </trkpt>
      <trkpt lat="47.70451" lon="-1.10954">
        <ele>57</ele>
        <time>2021-03-25T03:09:36Z</time>
      </trkpt>
      <trkpt lat="47.70442" lon="-1.1095">
        <ele>57</ele>
        <time>2021-03-25T03:09:37Z</time>
      </trkpt>
      <trkpt lat="47.70433" lon="-1.10947">
        <ele>57</ele>
        <time>2021-03-25T03:09:39Z</time>
      </trkpt>
      <trkpt lat="47.70423" lon="-1.10944">
        <ele>57</ele>
        <time>2021-03-25T03:09:41Z</time>
      </trkpt>
      <trkpt lat="47.70415" lon="-1.10942">
        <ele>57</ele>
        <time>2021-03-25T03:09:42Z</time>
      </trkpt>
      <trkpt lat="47.70407" lon="-1.10939">
        <ele>57</ele>
        <time>2021-03-25T03:09:44Z</time>
      </trkpt>
      <trkpt lat="47.70399" lon="-1.10934">
        <ele>56</ele>
        <time>2021-03-25T03:09:45Z</time>
      </trkpt>
      <trkpt lat="47.70393" lon="-1.10929">
        <ele>56</ele>
        <time>2021-03-25T03:09:47Z</time>
      </trkpt>
      <trkpt lat="47.70387" lon="-1.10922">
        <ele>56</ele>
        <time>2021-03-25T03:09:48Z</time>
      </trkpt>
      <trkpt lat="47.70381" lon="-1.10914">
        <ele>56</ele>
        <time>2021-03-25T03:09:49Z</time>
      </trkpt>
      <trkpt lat="47.70374" lon="-1.10903">
        <ele>56</ele>
        <time>2021-03-25T03:09:51Z</time>
      </trkpt>
      <trkpt lat="47.70372" lon="-1.10899">
        <ele>56</ele>
        <time>2021-03-25T03:09:52Z</time>
      </trkpt>
      <trkpt lat="47.70367" lon="-1.10889">
        <ele>56</ele>
        <time>2021-03-25T03:09:53Z</time>
      </trkpt>
      <trkpt lat="47.70358" lon="-1.1087">
        <ele>56</ele>
        <time>2021-03-25T03:09:56Z</time>
      </trkpt>
      <trkpt lat="47.70355" lon="-1.10859">
        <ele>56</ele>
        <time>2021-03-25T03:09:57Z</time>
      </trkpt>
      <trkpt lat="47.70349" lon="-1.10833">
        <ele>56</ele>
        <time>2021-03-25T03:10:01Z</time>
      </trkpt>
      <trkpt lat="47.70343" lon="-1.10801">
        <ele>58</ele>
        <time>2021-03-25T03:10:05Z</time>
      </trkpt>
      <trkpt lat="47.70341" lon="-1.10793">
        <ele>58</ele>
        <time>2021-03-25T03:10:06Z</time>
      </trkpt>
      <trkpt lat="47.70339" lon="-1.10781">
        <ele>59</ele>
        <time>2021-03-25T03:10:07Z</time>
      </trkpt>
      <trkpt lat="47.70334" lon="-1.10753">
        <ele>60</ele>
        <time>2021-03-25T03:10:11Z</time>
      </trkpt>
      <trkpt lat="47.7033" lon="-1.10739">
        <ele>60</ele>
        <time>2021-03-25T03:10:13Z</time>
      </trkpt>
      <trkpt lat="47.70326" lon="-1.1072">
        <ele>60</ele>
        <time>2021-03-25T03:10:15Z</time>
      </trkpt>
      <trkpt lat="47.70323" lon="-1.10708">
        <ele>60</ele>
        <time>2021-03-25T03:10:16Z</time>
      </trkpt>
      <trkpt lat="47.70319" lon="-1.10694">
        <ele>60</ele>
        <time>2021-03-25T03:10:18Z</time>
      </trkpt>
      <trkpt lat="47.70315" lon="-1.10682">
        <ele>61</ele>
        <time>2021-03-25T03:10:20Z</time>
      </trkpt>
      <trkpt lat="47.70311" lon="-1.10669">
        <ele>61</ele>
        <time>2021-03-25T03:10:22Z</time>
      </trkpt>
      <trkpt lat="47.70306" lon="-1.10656">
        <ele>60</ele>
        <time>2021-03-25T03:10:23Z</time>
      </trkpt>
      <trkpt lat="47.70302" lon="-1.10645">
        <ele>60</ele>
        <time>2021-03-25T03:10:25Z</time>
      </trkpt>
      <trkpt lat="47.70296" lon="-1.10633">
        <ele>60</ele>
        <time>2021-03-25T03:10:27Z</time>
      </trkpt>
      <trkpt lat="47.70291" lon="-1.10622">
        <ele>60</ele>
        <time>2021-03-25T03:10:28Z</time>
      </trkpt>
      <trkpt lat="47.70285" lon="-1.10612">
        <ele>60</ele>
        <time>2021-03-25T03:10:30Z</time>
      </trkpt>
      <trkpt lat="47.70279" lon="-1.10602">
        <ele>60</ele>
        <time>2021-03-25T03:10:31Z</time>
      </trkpt>
      <trkpt lat="47.70272" lon="-1.10589">
        <ele>60</ele>
        <time>2021-03-25T03:10:33Z</time>
      </trkpt>
      <trkpt lat="47.70265" lon="-1.10578">
        <ele>60</ele>
        <time>2021-03-25T03:10:35Z</time>
      </trkpt>
      <trkpt lat="47.70258" lon="-1.10565">
        <ele>60</ele>
        <time>2021-03-25T03:10:37Z</time>
      </trkpt>
      <trkpt lat="47.70251" lon="-1.10554">
        <ele>61</ele>
        <time>2021-03-25T03:10:39Z</time>
      </trkpt>
      <trkpt lat="47.70245" lon="-1.10542">
        <ele>61</ele>
        <time>2021-03-25T03:10:41Z</time>
      </trkpt>
      <trkpt lat="47.70239" lon="-1.10529">
        <ele>60</ele>
        <time>2021-03-25T03:10:43Z</time>
      </trkpt>
      <trkpt lat="47.70234" lon="-1.10518">
        <ele>60</ele>
        <time>2021-03-25T03:10:44Z</time>
      </trkpt>
      <trkpt lat="47.70229" lon="-1.10504">
        <ele>60</ele>
        <time>2021-03-25T03:10:46Z</time>
      </trkpt>
      <trkpt lat="47.70226" lon="-1.10493">
        <ele>60</ele>
        <time>2021-03-25T03:10:48Z</time>
      </trkpt>
      <trkpt lat="47.70223" lon="-1.10482">
        <ele>60</ele>
        <time>2021-03-25T03:10:49Z</time>
      </trkpt>
      <trkpt lat="47.70221" lon="-1.1047">
        <ele>60</ele>
        <time>2021-03-25T03:10:51Z</time>
      </trkpt>
      <trkpt lat="47.7022" lon="-1.10457">
        <ele>59</ele>
        <time>2021-03-25T03:10:52Z</time>
      </trkpt>
      <trkpt lat="47.7022" lon="-1.10442">
        <ele>59</ele>
        <time>2021-03-25T03:10:54Z</time>
      </trkpt>
      <trkpt lat="47.7022" lon="-1.10413">
        <ele>59</ele>
        <time>2021-03-25T03:10:57Z</time>
      </trkpt>
      <trkpt lat="47.70222" lon="-1.1039">
        <ele>58</ele>
        <time>2021-03-25T03:11:00Z</time>
      </trkpt>
      <trkpt lat="47.70223" lon="-1.10369">
        <ele>58</ele>
        <time>2021-03-25T03:11:03Z</time>
      </trkpt>
      <trkpt lat="47.70225" lon="-1.10353">
        <ele>57</ele>
        <time>2021-03-25T03:11:05Z</time>
      </trkpt>
      <trkpt lat="47.70227" lon="-1.10336">
        <ele>57</ele>
        <time>2021-03-25T03:11:07Z</time>
      </trkpt>
      <trkpt lat="47.70229" lon="-1.10319">
        <ele>56</ele>
        <time>2021-03-25T03:11:09Z</time>
      </trkpt>
      <trkpt lat="47.7023" lon="-1.10305">
        <ele>56</ele>
        <time>2021-03-25T03:11:10Z</time>
      </trkpt>
      <trkpt lat="47.7023" lon="-1.10292">
        <ele>55</ele>
        <time>2021-03-25T03:11:12Z</time>
      </trkpt>
      <trkpt lat="47.70229" lon="-1.10278">
        <ele>55</ele>
        <time>2021-03-25T03:11:14Z</time>
      </trkpt>
      <trkpt lat="47.70229" lon="-1.10266">
        <ele>54</ele>
        <time>2021-03-25T03:11:15Z</time>
      </trkpt>
      <trkpt lat="47.70227" lon="-1.1025">
        <ele>54</ele>
        <time>2021-03-25T03:11:17Z</time>
      </trkpt>
      <trkpt lat="47.70226" lon="-1.10235">
        <ele>53</ele>
        <time>2021-03-25T03:11:19Z</time>
      </trkpt>
      <trkpt lat="47.70223" lon="-1.10218">
        <ele>53</ele>
        <time>2021-03-25T03:11:21Z</time>
      </trkpt>
      <trkpt lat="47.7022" lon="-1.102">
        <ele>53</ele>
        <time>2021-03-25T03:11:23Z</time>
      </trkpt>
      <trkpt lat="47.70217" lon="-1.10181">
        <ele>52</ele>
        <time>2021-03-25T03:11:26Z</time>
      </trkpt>
      <trkpt lat="47.70214" lon="-1.10164">
        <ele>52</ele>
        <time>2021-03-25T03:11:28Z</time>
      </trkpt>
      <trkpt lat="47.7021" lon="-1.10146">
        <ele>52</ele>
        <time>2021-03-25T03:11:30Z</time>
      </trkpt>
      <trkpt lat="47.70206" lon="-1.10131">
        <ele>53</ele>
        <time>2021-03-25T03:11:32Z</time>
      </trkpt>
      <trkpt lat="47.70202" lon="-1.10118">
        <ele>53</ele>
        <time>2021-03-25T03:11:34Z</time>
      </trkpt>
      <trkpt lat="47.70197" lon="-1.10105">
        <ele>53</ele>
        <time>2021-03-25T03:11:35Z</time>
      </trkpt>
      <trkpt lat="47.70192" lon="-1.10093">
        <ele>53</ele>
        <time>2021-03-25T03:11:37Z</time>
      </trkpt>
      <trkpt lat="47.70187" lon="-1.10083">
        <ele>53</ele>
        <time>2021-03-25T03:11:39Z</time>
      </trkpt>
      <trkpt lat="47.70182" lon="-1.10071">
        <ele>53</ele>
        <time>2021-03-25T03:11:40Z</time>
      </trkpt>
      <trkpt lat="47.70176" lon="-1.1006">
        <ele>52</ele>
        <time>2021-03-25T03:11:42Z</time>
      </trkpt>
      <trkpt lat="47.7017" lon="-1.10051">
        <ele>52</ele>
        <time>2021-03-25T03:11:43Z</time>
      </trkpt>
      <trkpt lat="47.70167" lon="-1.10046">
        <ele>52</ele>
        <time>2021-03-25T03:11:44Z</time>
      </trkpt>
      <trkpt lat="47.70165" lon="-1.10044">
        <ele>52</ele>
        <time>2021-03-25T03:11:45Z</time>
      </trkpt>
      <trkpt lat="47.7016" lon="-1.10036">
        <ele>52</ele>
        <time>2021-03-25T03:11:46Z</time>
      </trkpt>
      <trkpt lat="47.70156" lon="-1.10027">
        <ele>52</ele>
        <time>2021-03-25T03:11:47Z</time>
      </trkpt>
      <trkpt lat="47.70152" lon="-1.10018">
        <ele>51</ele>
        <time>2021-03-25T03:11:49Z</time>
      </trkpt>
      <trkpt lat="47.7015" lon="-1.10009">
        <ele>51</ele>
        <time>2021-03-25T03:11:50Z</time>
      </trkpt>
      <trkpt lat="47.70148" lon="-1.09998">
        <ele>51</ele>
        <time>2021-03-25T03:11:51Z</time>
      </trkpt>
      <trkpt lat="47.70147" lon="-1.09987">
        <ele>51</ele>
        <time>2021-03-25T03:11:52Z</time>
      </trkpt>
      <trkpt lat="47.70147" lon="-1.09972">
        <ele>52</ele>
        <time>2021-03-25T03:11:54Z</time>
      </trkpt>
      <trkpt lat="47.70146" lon="-1.09945">
        <ele>52</ele>
        <time>2021-03-25T03:11:57Z</time>
      </trkpt>
      <trkpt lat="47.70146" lon="-1.09932">
        <ele>53</ele>
        <time>2021-03-25T03:11:59Z</time>
      </trkpt>
      <trkpt lat="47.70147" lon="-1.09918">
        <ele>53</ele>
        <time>2021-03-25T03:12:01Z</time>
      </trkpt>
      <trkpt lat="47.70148" lon="-1.09899">
        <ele>53</ele>
        <time>2021-03-25T03:12:03Z</time>
      </trkpt>
      <trkpt lat="47.70149" lon="-1.09881">
        <ele>53</ele>
        <time>2021-03-25T03:12:05Z</time>
      </trkpt>
      <trkpt lat="47.70151" lon="-1.09858">
        <ele>53</ele>
        <time>2021-03-25T03:12:08Z</time>
      </trkpt>
      <trkpt lat="47.70152" lon="-1.09839">
        <ele>53</ele>
        <time>2021-03-25T03:12:10Z</time>
      </trkpt>
      <trkpt lat="47.70152" lon="-1.0983">
        <ele>53</ele>
        <time>2021-03-25T03:12:11Z</time>
      </trkpt>
      <trkpt lat="47.70152" lon="-1.09823">
        <ele>52</ele>
        <time>2021-03-25T03:12:12Z</time>
      </trkpt>
      <trkpt lat="47.7015" lon="-1.09815">
        <ele>52</ele>
        <time>2021-03-25T03:12:13Z</time>
      </trkpt>
      <trkpt lat="47.70147" lon="-1.09808">
        <ele>52</ele>
        <time>2021-03-25T03:12:14Z</time>
      </trkpt>
      <trkpt lat="47.7014" lon="-1.098">
        <ele>52</ele>
        <time>2021-03-25T03:12:16Z</time>
      </trkpt>
      <trkpt lat="47.70135" lon="-1.09793">
        <ele>51</ele>
        <time>2021-03-25T03:12:17Z</time>
      </trkpt>
      <trkpt lat="47.70131" lon="-1.09787">
        <ele>51</ele>
        <time>2021-03-25T03:12:18Z</time>
      </trkpt>
      <trkpt lat="47.70128" lon="-1.09783">
        <ele>51</ele>
        <time>2021-03-25T03:12:19Z</time>
      </trkpt>
      <trkpt lat="47.70124" lon="-1.09778">
        <ele>51</ele>
        <time>2021-03-25T03:12:20Z</time>
      </trkpt>
      <trkpt lat="47.70121" lon="-1.09774">
        <ele>50</ele>
        <time>2021-03-25T03:12:20Z</time>
      </trkpt>
      <trkpt lat="47.70117" lon="-1.09771">
        <ele>50</ele>
        <time>2021-03-25T03:12:21Z</time>
      </trkpt>
      <trkpt lat="47.70112" lon="-1.09768">
        <ele>50</ele>
        <time>2021-03-25T03:12:22Z</time>
      </trkpt>
      <trkpt lat="47.70108" lon="-1.09767">
        <ele>50</ele>
        <time>2021-03-25T03:12:23Z</time>
      </trkpt>
      <trkpt lat="47.70102" lon="-1.09766">
        <ele>50</ele>
        <time>2021-03-25T03:12:24Z</time>
      </trkpt>
      <trkpt lat="47.70096" lon="-1.09765">
        <ele>50</ele>
        <time>2021-03-25T03:12:25Z</time>
      </trkpt>
      <trkpt lat="47.7009" lon="-1.09764">
        <ele>49</ele>
        <time>2021-03-25T03:12:26Z</time>
      </trkpt>
      <trkpt lat="47.70082" lon="-1.09763">
        <ele>49</ele>
        <time>2021-03-25T03:12:27Z</time>
      </trkpt>
      <trkpt lat="47.70072" lon="-1.09761">
        <ele>49</ele>
        <time>2021-03-25T03:12:29Z</time>
      </trkpt>
      <trkpt lat="47.70061" lon="-1.0976">
        <ele>49</ele>
        <time>2021-03-25T03:12:31Z</time>
      </trkpt>
      <trkpt lat="47.70052" lon="-1.09758">
        <ele>48</ele>
        <time>2021-03-25T03:12:33Z</time>
      </trkpt>
      <trkpt lat="47.7004" lon="-1.09756">
        <ele>48</ele>
        <time>2021-03-25T03:12:35Z</time>
      </trkpt>
      <trkpt lat="47.70029" lon="-1.09753">
        <ele>48</ele>
        <time>2021-03-25T03:12:37Z</time>
      </trkpt>
      <trkpt lat="47.70021" lon="-1.09751">
        <ele>48</ele>
        <time>2021-03-25T03:12:38Z</time>
      </trkpt>
      <trkpt lat="47.70011" lon="-1.09748">
        <ele>47</ele>
        <time>2021-03-25T03:12:40Z</time>
      </trkpt>
      <trkpt lat="47.70003" lon="-1.09745">
        <ele>47</ele>
        <time>2021-03-25T03:12:42Z</time>
      </trkpt>
      <trkpt lat="47.69988" lon="-1.0974">
        <ele>47</ele>
        <time>2021-03-25T03:12:44Z</time>
      </trkpt>
      <trkpt lat="47.69982" lon="-1.09736">
        <ele>46</ele>
        <time>2021-03-25T03:12:46Z</time>
      </trkpt>
      <trkpt lat="47.69975" lon="-1.09732">
        <ele>46</ele>
        <time>2021-03-25T03:12:47Z</time>
      </trkpt>
      <trkpt lat="47.69969" lon="-1.09728">
        <ele>46</ele>
        <time>2021-03-25T03:12:48Z</time>
      </trkpt>
      <trkpt lat="47.69962" lon="-1.09723">
        <ele>46</ele>
        <time>2021-03-25T03:12:49Z</time>
      </trkpt>
      <trkpt lat="47.69957" lon="-1.09718">
        <ele>46</ele>
        <time>2021-03-25T03:12:51Z</time>
      </trkpt>
      <trkpt lat="47.69951" lon="-1.09713">
        <ele>45</ele>
        <time>2021-03-25T03:12:52Z</time>
      </trkpt>
      <trkpt lat="47.69937" lon="-1.09698">
        <ele>45</ele>
        <time>2021-03-25T03:12:55Z</time>
      </trkpt>
      <trkpt lat="47.69908" lon="-1.09667">
        <ele>44</ele>
        <time>2021-03-25T03:13:01Z</time>
      </trkpt>
      <trkpt lat="47.69889" lon="-1.09649">
        <ele>44</ele>
        <time>2021-03-25T03:13:05Z</time>
      </trkpt>
      <trkpt lat="47.69876" lon="-1.09639">
        <ele>44</ele>
        <time>2021-03-25T03:13:08Z</time>
      </trkpt>
      <trkpt lat="47.69861" lon="-1.09629">
        <ele>44</ele>
        <time>2021-03-25T03:13:11Z</time>
      </trkpt>
      <trkpt lat="47.69849" lon="-1.09622">
        <ele>44</ele>
        <time>2021-03-25T03:13:13Z</time>
      </trkpt>
      <trkpt lat="47.69838" lon="-1.09617">
        <ele>43</ele>
        <time>2021-03-25T03:13:15Z</time>
      </trkpt>
      <trkpt lat="47.69827" lon="-1.09613">
        <ele>43</ele>
        <time>2021-03-25T03:13:17Z</time>
      </trkpt>
      <trkpt lat="47.69813" lon="-1.09609">
        <ele>43</ele>
        <time>2021-03-25T03:13:20Z</time>
      </trkpt>
      <trkpt lat="47.69805" lon="-1.09605">
        <ele>44</ele>
        <time>2021-03-25T03:13:21Z</time>
      </trkpt>
      <trkpt lat="47.69799" lon="-1.096">
        <ele>44</ele>
        <time>2021-03-25T03:13:22Z</time>
      </trkpt>
      <trkpt lat="47.69794" lon="-1.09594">
        <ele>44</ele>
        <time>2021-03-25T03:13:23Z</time>
      </trkpt>
      <trkpt lat="47.69787" lon="-1.09586">
        <ele>44</ele>
        <time>2021-03-25T03:13:25Z</time>
      </trkpt>
      <trkpt lat="47.69759" lon="-1.09546">
        <ele>43</ele>
        <time>2021-03-25T03:13:32Z</time>
      </trkpt>
      <trkpt lat="47.69717" lon="-1.09483">
        <ele>42</ele>
        <time>2021-03-25T03:13:43Z</time>
      </trkpt>
      <trkpt lat="47.69699" lon="-1.09453">
        <ele>41</ele>
        <time>2021-03-25T03:13:47Z</time>
      </trkpt>
      <trkpt lat="47.69685" lon="-1.09429">
        <ele>41</ele>
        <time>2021-03-25T03:13:51Z</time>
      </trkpt>
      <trkpt lat="47.69668" lon="-1.09396">
        <ele>41</ele>
        <time>2021-03-25T03:13:56Z</time>
      </trkpt>
      <trkpt lat="47.69653" lon="-1.09368">
        <ele>41</ele>
        <time>2021-03-25T03:14:00Z</time>
      </trkpt>
      <trkpt lat="47.69636" lon="-1.09342">
        <ele>40</ele>
        <time>2021-03-25T03:14:05Z</time>
      </trkpt>
      <trkpt lat="47.69624" lon="-1.09323">
        <ele>40</ele>
        <time>2021-03-25T03:14:08Z</time>
      </trkpt>
      <trkpt lat="47.69606" lon="-1.09298">
        <ele>39</ele>
        <time>2021-03-25T03:14:12Z</time>
      </trkpt>
      <trkpt lat="47.69579" lon="-1.09268">
        <ele>39</ele>
        <time>2021-03-25T03:14:18Z</time>
      </trkpt>
      <trkpt lat="47.69576" lon="-1.09265">
        <ele>39</ele>
        <time>2021-03-25T03:14:19Z</time>
      </trkpt>
      <trkpt lat="47.69574" lon="-1.09262">
        <ele>39</ele>
        <time>2021-03-25T03:14:19Z</time>
      </trkpt>
      <trkpt lat="47.69548" lon="-1.09234">
        <ele>39</ele>
        <time>2021-03-25T03:14:25Z</time>
      </trkpt>
      <trkpt lat="47.69529" lon="-1.09213">
        <ele>39</ele>
        <time>2021-03-25T03:14:29Z</time>
      </trkpt>
      <trkpt lat="47.69513" lon="-1.09194">
        <ele>39</ele>
        <time>2021-03-25T03:14:33Z</time>
      </trkpt>
      <trkpt lat="47.69505" lon="-1.09183">
        <ele>38</ele>
        <time>2021-03-25T03:14:35Z</time>
      </trkpt>
      <trkpt lat="47.69494" lon="-1.09167">
        <ele>38</ele>
        <time>2021-03-25T03:14:38Z</time>
      </trkpt>
      <trkpt lat="47.69485" lon="-1.09152">
        <ele>39</ele>
        <time>2021-03-25T03:14:40Z</time>
      </trkpt>
      <trkpt lat="47.69473" lon="-1.09126">
        <ele>40</ele>
        <time>2021-03-25T03:14:44Z</time>
      </trkpt>
      <trkpt lat="47.69457" lon="-1.09087">
        <ele>41</ele>
        <time>2021-03-25T03:14:49Z</time>
      </trkpt>
      <trkpt lat="47.69448" lon="-1.09068">
        <ele>41</ele>
        <time>2021-03-25T03:14:52Z</time>
      </trkpt>
      <trkpt lat="47.69446" lon="-1.09063">
        <ele>41</ele>
        <time>2021-03-25T03:14:53Z</time>
      </trkpt>
      <trkpt lat="47.69444" lon="-1.0906">
        <ele>41</ele>
        <time>2021-03-25T03:14:53Z</time>
      </trkpt>
      <trkpt lat="47.69441" lon="-1.09058">
        <ele>41</ele>
        <time>2021-03-25T03:14:54Z</time>
      </trkpt>
      <trkpt lat="47.69438" lon="-1.09057">
        <ele>41</ele>
        <time>2021-03-25T03:14:54Z</time>
      </trkpt>
      <trkpt lat="47.69433" lon="-1.09057">
        <ele>41</ele>
        <time>2021-03-25T03:14:55Z</time>
      </trkpt>
      <trkpt lat="47.69417" lon="-1.09059">
        <ele>42</ele>
        <time>2021-03-25T03:14:58Z</time>
      </trkpt>
      <trkpt lat="47.69406" lon="-1.09059">
        <ele>42</ele>
        <time>2021-03-25T03:15:00Z</time>
      </trkpt>
      <trkpt lat="47.69406" lon="-1.09059">
        <ele>42</ele>
        <time>2021-03-25T03:15:00Z</time>
      </trkpt>
      <trkpt lat="47.69405" lon="-1.09025">
        <ele>41</ele>
        <time>2021-03-25T03:15:04Z</time>
      </trkpt>
      <trkpt lat="47.69405" lon="-1.09025">
        <ele>41</ele>
        <time>2021-03-25T03:15:04Z</time>
      </trkpt>
      <trkpt lat="47.69381" lon="-1.09034">
        <ele>42</ele>
        <time>2021-03-25T03:15:09Z</time>
      </trkpt>
      <trkpt lat="47.69371" lon="-1.09038">
        <ele>42</ele>
        <time>2021-03-25T03:15:11Z</time>
      </trkpt>
      <trkpt lat="47.69365" lon="-1.0904">
        <ele>42</ele>
        <time>2021-03-25T03:15:12Z</time>
      </trkpt>
      <trkpt lat="47.69361" lon="-1.09041">
        <ele>42</ele>
        <time>2021-03-25T03:15:12Z</time>
      </trkpt>
      <trkpt lat="47.69357" lon="-1.09042">
        <ele>42</ele>
        <time>2021-03-25T03:15:13Z</time>
      </trkpt>
      <trkpt lat="47.69352" lon="-1.09042">
        <ele>42</ele>
        <time>2021-03-25T03:15:14Z</time>
      </trkpt>
      <trkpt lat="47.69347" lon="-1.09041">
        <ele>42</ele>
        <time>2021-03-25T03:15:15Z</time>
      </trkpt>
      <trkpt lat="47.69342" lon="-1.0904">
        <ele>42</ele>
        <time>2021-03-25T03:15:16Z</time>
      </trkpt>
      <trkpt lat="47.69337" lon="-1.09037">
        <ele>42</ele>
        <time>2021-03-25T03:15:17Z</time>
      </trkpt>
      <trkpt lat="47.69331" lon="-1.09033">
        <ele>42</ele>
        <time>2021-03-25T03:15:18Z</time>
      </trkpt>
      <trkpt lat="47.69326" lon="-1.09029">
        <ele>42</ele>
        <time>2021-03-25T03:15:19Z</time>
      </trkpt>
      <trkpt lat="47.69321" lon="-1.09024">
        <ele>42</ele>
        <time>2021-03-25T03:15:20Z</time>
      </trkpt>
      <trkpt lat="47.69317" lon="-1.09017">
        <ele>42</ele>
        <time>2021-03-25T03:15:21Z</time>
      </trkpt>
      <trkpt lat="47.69313" lon="-1.0901">
        <ele>42</ele>
        <time>2021-03-25T03:15:22Z</time>
      </trkpt>
      <trkpt lat="47.69305" lon="-1.08995">
        <ele>42</ele>
        <time>2021-03-25T03:15:24Z</time>
      </trkpt>
      <trkpt lat="47.69305" lon="-1.08995">
        <ele>42</ele>
        <time>2021-03-25T03:15:24Z</time>
      </trkpt>
      <trkpt lat="47.69272" lon="-1.09015">
        <ele>43</ele>
        <time>2021-03-25T03:15:31Z</time>
      </trkpt>
      <trkpt lat="47.69236" lon="-1.09038">
        <ele>43</ele>
        <time>2021-03-25T03:15:38Z</time>
      </trkpt>
      <trkpt lat="47.69216" lon="-1.09051">
        <ele>43</ele>
        <time>2021-03-25T03:15:42Z</time>
      </trkpt>
      <trkpt lat="47.69201" lon="-1.09061">
        <ele>44</ele>
        <time>2021-03-25T03:15:45Z</time>
      </trkpt>
      <trkpt lat="47.69189" lon="-1.09068">
        <ele>44</ele>
        <time>2021-03-25T03:15:47Z</time>
      </trkpt>
      <trkpt lat="47.6918" lon="-1.09073">
        <ele>44</ele>
        <time>2021-03-25T03:15:49Z</time>
      </trkpt>
      <trkpt lat="47.69172" lon="-1.09076">
        <ele>44</ele>
        <time>2021-03-25T03:15:50Z</time>
      </trkpt>
      <trkpt lat="47.69154" lon="-1.09083">
        <ele>44</ele>
        <time>2021-03-25T03:15:53Z</time>
      </trkpt>
      <trkpt lat="47.69138" lon="-1.09088">
        <ele>44</ele>
        <time>2021-03-25T03:15:56Z</time>
      </trkpt>
      <trkpt lat="47.69109" lon="-1.09095">
        <ele>43</ele>
        <time>2021-03-25T03:16:01Z</time>
      </trkpt>
      <trkpt lat="47.69056" lon="-1.09104">
        <ele>43</ele>
        <time>2021-03-25T03:16:11Z</time>
      </trkpt>
      <trkpt lat="47.69037" lon="-1.09107">
        <ele>43</ele>
        <time>2021-03-25T03:16:14Z</time>
      </trkpt>
      <trkpt lat="47.69016" lon="-1.0911">
        <ele>43</ele>
        <time>2021-03-25T03:16:18Z</time>
      </trkpt>
      <trkpt lat="47.68957" lon="-1.09114">
        <ele>44</ele>
        <time>2021-03-25T03:16:29Z</time>
      </trkpt>
      <trkpt lat="47.6891" lon="-1.09117">
        <ele>45</ele>
        <time>2021-03-25T03:16:37Z</time>
      </trkpt>
      <trkpt lat="47.68894" lon="-1.09119">
        <ele>45</ele>
        <time>2021-03-25T03:16:40Z</time>
      </trkpt>
      <trkpt lat="47.68884" lon="-1.09121">
        <ele>46</ele>
        <time>2021-03-25T03:16:42Z</time>
      </trkpt>
      <trkpt lat="47.6887" lon="-1.09124">
        <ele>46</ele>
        <time>2021-03-25T03:16:44Z</time>
      </trkpt>
      <trkpt lat="47.68846" lon="-1.09133">
        <ele>47</ele>
        <time>2021-03-25T03:16:49Z</time>
      </trkpt>
      <trkpt lat="47.68803" lon="-1.09152">
        <ele>49</ele>
        <time>2021-03-25T03:16:57Z</time>
      </trkpt>
      <trkpt lat="47.68752" lon="-1.09174">
        <ele>52</ele>
        <time>2021-03-25T03:17:06Z</time>
      </trkpt>
      <trkpt lat="47.68729" lon="-1.09182">
        <ele>52</ele>
        <time>2021-03-25T03:17:10Z</time>
      </trkpt>
      <trkpt lat="47.68721" lon="-1.09184">
        <ele>52</ele>
        <time>2021-03-25T03:17:12Z</time>
      </trkpt>
      <trkpt lat="47.68714" lon="-1.09185">
        <ele>52</ele>
        <time>2021-03-25T03:17:13Z</time>
      </trkpt>
      <trkpt lat="47.68707" lon="-1.09185">
        <ele>52</ele>
        <time>2021-03-25T03:17:14Z</time>
      </trkpt>
      <trkpt lat="47.687" lon="-1.09184">
        <ele>51</ele>
        <time>2021-03-25T03:17:15Z</time>
      </trkpt>
      <trkpt lat="47.68691" lon="-1.09183">
        <ele>51</ele>
        <time>2021-03-25T03:17:17Z</time>
      </trkpt>
      <trkpt lat="47.68682" lon="-1.09179">
        <ele>51</ele>
        <time>2021-03-25T03:17:19Z</time>
      </trkpt>
      <trkpt lat="47.68666" lon="-1.09172">
        <ele>51</ele>
        <time>2021-03-25T03:17:22Z</time>
      </trkpt>
      <trkpt lat="47.68629" lon="-1.09151">
        <ele>51</ele>
        <time>2021-03-25T03:17:29Z</time>
      </trkpt>
      <trkpt lat="47.68589" lon="-1.09127">
        <ele>52</ele>
        <time>2021-03-25T03:17:36Z</time>
      </trkpt>
      <trkpt lat="47.68553" lon="-1.09102">
        <ele>52</ele>
        <time>2021-03-25T03:17:43Z</time>
      </trkpt>
      <trkpt lat="47.68511" lon="-1.09067">
        <ele>52</ele>
        <time>2021-03-25T03:17:52Z</time>
      </trkpt>
      <trkpt lat="47.68486" lon="-1.09047">
        <ele>52</ele>
        <time>2021-03-25T03:17:57Z</time>
      </trkpt>
      <trkpt lat="47.68466" lon="-1.09034">
        <ele>52</ele>
        <time>2021-03-25T03:18:01Z</time>
      </trkpt>
      <trkpt lat="47.68424" lon="-1.09008">
        <ele>52</ele>
        <time>2021-03-25T03:18:09Z</time>
      </trkpt>
      <trkpt lat="47.68359" lon="-1.0897">
        <ele>52</ele>
        <time>2021-03-25T03:18:21Z</time>
      </trkpt>
      <trkpt lat="47.68293" lon="-1.0893">
        <ele>53</ele>
        <time>2021-03-25T03:18:34Z</time>
      </trkpt>
      <trkpt lat="47.68224" lon="-1.08889">
        <ele>53</ele>
        <time>2021-03-25T03:18:47Z</time>
      </trkpt>
      <trkpt lat="47.6819" lon="-1.08869">
        <ele>54</ele>
        <time>2021-03-25T03:18:54Z</time>
      </trkpt>
      <trkpt lat="47.6817" lon="-1.08859">
        <ele>55</ele>
        <time>2021-03-25T03:18:58Z</time>
      </trkpt>
      <trkpt lat="47.68147" lon="-1.0885">
        <ele>55</ele>
        <time>2021-03-25T03:19:02Z</time>
      </trkpt>
      <trkpt lat="47.68125" lon="-1.08841">
        <ele>56</ele>
        <time>2021-03-25T03:19:06Z</time>
      </trkpt>
      <trkpt lat="47.68112" lon="-1.08835">
        <ele>57</ele>
        <time>2021-03-25T03:19:08Z</time>
      </trkpt>
      <trkpt lat="47.68104" lon="-1.08831">
        <ele>57</ele>
        <time>2021-03-25T03:19:10Z</time>
      </trkpt>
      <trkpt lat="47.68093" lon="-1.08824">
        <ele>58</ele>
        <time>2021-03-25T03:19:12Z</time>
      </trkpt>
      <trkpt lat="47.68077" lon="-1.08812">
        <ele>58</ele>
        <time>2021-03-25T03:19:15Z</time>
      </trkpt>
      <trkpt lat="47.68038" lon="-1.0878">
        <ele>59</ele>
        <time>2021-03-25T03:19:23Z</time>
      </trkpt>
      <trkpt lat="47.67987" lon="-1.08738">
        <ele>59</ele>
        <time>2021-03-25T03:19:33Z</time>
      </trkpt>
      <trkpt lat="47.67956" lon="-1.08711">
        <ele>59</ele>
        <time>2021-03-25T03:19:40Z</time>
      </trkpt>
      <trkpt lat="47.67931" lon="-1.08687">
        <ele>59</ele>
        <time>2021-03-25T03:19:45Z</time>
      </trkpt>
      <trkpt lat="47.67897" lon="-1.08656">
        <ele>58</ele>
        <time>2021-03-25T03:19:52Z</time>
      </trkpt>
      <trkpt lat="47.67883" lon="-1.08645">
        <ele>58</ele>
        <time>2021-03-25T03:19:55Z</time>
      </trkpt>
      <trkpt lat="47.67877" lon="-1.08641">
        <ele>58</ele>
        <time>2021-03-25T03:19:56Z</time>
      </trkpt>
      <trkpt lat="47.67871" lon="-1.08639">
        <ele>58</ele>
        <time>2021-03-25T03:19:57Z</time>
      </trkpt>
      <trkpt lat="47.67865" lon="-1.08637">
        <ele>58</ele>
        <time>2021-03-25T03:19:58Z</time>
      </trkpt>
      <trkpt lat="47.67857" lon="-1.08636">
        <ele>58</ele>
        <time>2021-03-25T03:20:00Z</time>
      </trkpt>
      <trkpt lat="47.67848" lon="-1.08638">
        <ele>58</ele>
        <time>2021-03-25T03:20:01Z</time>
      </trkpt>
      <trkpt lat="47.67818" lon="-1.08646">
        <ele>58</ele>
        <time>2021-03-25T03:20:07Z</time>
      </trkpt>
      <trkpt lat="47.67771" lon="-1.08661">
        <ele>58</ele>
        <time>2021-03-25T03:20:15Z</time>
      </trkpt>
      <trkpt lat="47.67738" lon="-1.08673">
        <ele>58</ele>
        <time>2021-03-25T03:20:22Z</time>
      </trkpt>
      <trkpt lat="47.67701" lon="-1.08691">
        <ele>58</ele>
        <time>2021-03-25T03:20:28Z</time>
      </trkpt>
      <trkpt lat="47.67662" lon="-1.0871">
        <ele>58</ele>
        <time>2021-03-25T03:20:36Z</time>
      </trkpt>
      <trkpt lat="47.67648" lon="-1.08718">
        <ele>58</ele>
        <time>2021-03-25T03:20:38Z</time>
      </trkpt>
      <trkpt lat="47.67634" lon="-1.08727">
        <ele>58</ele>
        <time>2021-03-25T03:20:41Z</time>
      </trkpt>
      <trkpt lat="47.6762" lon="-1.08738">
        <ele>58</ele>
        <time>2021-03-25T03:20:44Z</time>
      </trkpt>
      <trkpt lat="47.67588" lon="-1.08764">
        <ele>58</ele>
        <time>2021-03-25T03:20:50Z</time>
      </trkpt>
      <trkpt lat="47.67559" lon="-1.0879">
        <ele>59</ele>
        <time>2021-03-25T03:20:56Z</time>
      </trkpt>
      <trkpt lat="47.67547" lon="-1.08801">
        <ele>59</ele>
        <time>2021-03-25T03:20:59Z</time>
      </trkpt>
      <trkpt lat="47.67497" lon="-1.08843">
        <ele>61</ele>
        <time>2021-03-25T03:21:09Z</time>
      </trkpt>
      <trkpt lat="47.67484" lon="-1.08853">
        <ele>61</ele>
        <time>2021-03-25T03:21:12Z</time>
      </trkpt>
      <trkpt lat="47.67482" lon="-1.08854">
        <ele>61</ele>
        <time>2021-03-25T03:21:12Z</time>
      </trkpt>
      <trkpt lat="47.67481" lon="-1.08855">
        <ele>61</ele>
        <time>2021-03-25T03:21:12Z</time>
      </trkpt>
      <trkpt lat="47.67468" lon="-1.08863">
        <ele>61</ele>
        <time>2021-03-25T03:21:15Z</time>
      </trkpt>
      <trkpt lat="47.67441" lon="-1.08874">
        <ele>62</ele>
        <time>2021-03-25T03:21:20Z</time>
      </trkpt>
      <trkpt lat="47.6742" lon="-1.08878">
        <ele>62</ele>
        <time>2021-03-25T03:21:24Z</time>
      </trkpt>
      <trkpt lat="47.67396" lon="-1.08882">
        <ele>63</ele>
        <time>2021-03-25T03:21:28Z</time>
      </trkpt>
      <trkpt lat="47.67379" lon="-1.08887">
        <ele>64</ele>
        <time>2021-03-25T03:21:31Z</time>
      </trkpt>
      <trkpt lat="47.67371" lon="-1.08891">
        <ele>65</ele>
        <time>2021-03-25T03:21:33Z</time>
      </trkpt>
      <trkpt lat="47.6735" lon="-1.08899">
        <ele>66</ele>
        <time>2021-03-25T03:21:36Z</time>
      </trkpt>
      <trkpt lat="47.67328" lon="-1.08911">
        <ele>67</ele>
        <time>2021-03-25T03:21:41Z</time>
      </trkpt>
      <trkpt lat="47.67311" lon="-1.08918">
        <ele>68</ele>
        <time>2021-03-25T03:21:44Z</time>
      </trkpt>
      <trkpt lat="47.67267" lon="-1.08929">
        <ele>69</ele>
        <time>2021-03-25T03:21:52Z</time>
      </trkpt>
      <trkpt lat="47.67238" lon="-1.08933">
        <ele>70</ele>
        <time>2021-03-25T03:21:57Z</time>
      </trkpt>
      <trkpt lat="47.67197" lon="-1.08938">
        <ele>72</ele>
        <time>2021-03-25T03:22:04Z</time>
      </trkpt>
      <trkpt lat="47.67176" lon="-1.08939">
        <ele>73</ele>
        <time>2021-03-25T03:22:08Z</time>
      </trkpt>
      <trkpt lat="47.67147" lon="-1.0894">
        <ele>75</ele>
        <time>2021-03-25T03:22:13Z</time>
      </trkpt>
      <trkpt lat="47.67126" lon="-1.08936">
        <ele>75</ele>
        <time>2021-03-25T03:22:17Z</time>
      </trkpt>
      <trkpt lat="47.671" lon="-1.08929">
        <ele>76</ele>
        <time>2021-03-25T03:22:22Z</time>
      </trkpt>
      <trkpt lat="47.67068" lon="-1.08919">
        <ele>78</ele>
        <time>2021-03-25T03:22:27Z</time>
      </trkpt>
      <trkpt lat="47.6704" lon="-1.08908">
        <ele>80</ele>
        <time>2021-03-25T03:22:32Z</time>
      </trkpt>
      <trkpt lat="47.67017" lon="-1.08894">
        <ele>81</ele>
        <time>2021-03-25T03:22:37Z</time>
      </trkpt>
      <trkpt lat="47.66994" lon="-1.08879">
        <ele>82</ele>
        <time>2021-03-25T03:22:41Z</time>
      </trkpt>
      <trkpt lat="47.6698" lon="-1.0887">
        <ele>82</ele>
        <time>2021-03-25T03:22:44Z</time>
      </trkpt>
      <trkpt lat="47.66965" lon="-1.08861">
        <ele>82</ele>
        <time>2021-03-25T03:22:47Z</time>
      </trkpt>
      <trkpt lat="47.66943" lon="-1.08854">
        <ele>83</ele>
        <time>2021-03-25T03:22:51Z</time>
      </trkpt>
      <trkpt lat="47.66918" lon="-1.08851">
        <ele>83</ele>
        <time>2021-03-25T03:22:55Z</time>
      </trkpt>
      <trkpt lat="47.66868" lon="-1.08848">
        <ele>86</ele>
        <time>2021-03-25T03:23:04Z</time>
      </trkpt>
      <trkpt lat="47.66819" lon="-1.08844">
        <ele>88</ele>
        <time>2021-03-25T03:23:13Z</time>
      </trkpt>
      <trkpt lat="47.6677" lon="-1.0884">
        <ele>92</ele>
        <time>2021-03-25T03:23:22Z</time>
      </trkpt>
      <trkpt lat="47.66744" lon="-1.08837">
        <ele>93</ele>
        <time>2021-03-25T03:23:26Z</time>
      </trkpt>
      <trkpt lat="47.66724" lon="-1.08832">
        <ele>94</ele>
        <time>2021-03-25T03:23:30Z</time>
      </trkpt>
      <trkpt lat="47.66692" lon="-1.0882">
        <ele>95</ele>
        <time>2021-03-25T03:23:36Z</time>
      </trkpt>
      <trkpt lat="47.66656" lon="-1.08803">
        <ele>97</ele>
        <time>2021-03-25T03:23:43Z</time>
      </trkpt>
      <trkpt lat="47.66629" lon="-1.0879">
        <ele>97</ele>
        <time>2021-03-25T03:23:48Z</time>
      </trkpt>
      <trkpt lat="47.66612" lon="-1.08785">
        <ele>98</ele>
        <time>2021-03-25T03:23:51Z</time>
      </trkpt>
      <trkpt lat="47.66604" lon="-1.08784">
        <ele>98</ele>
        <time>2021-03-25T03:23:52Z</time>
      </trkpt>
      <trkpt lat="47.66594" lon="-1.08782">
        <ele>98</ele>
        <time>2021-03-25T03:23:54Z</time>
      </trkpt>
      <trkpt lat="47.66564" lon="-1.0878">
        <ele>99</ele>
        <time>2021-03-25T03:23:59Z</time>
      </trkpt>
      <trkpt lat="47.66521" lon="-1.08777">
        <ele>100</ele>
        <time>2021-03-25T03:24:07Z</time>
      </trkpt>
      <trkpt lat="47.66499" lon="-1.08776">
        <ele>100</ele>
        <time>2021-03-25T03:24:11Z</time>
      </trkpt>
      <trkpt lat="47.66492" lon="-1.08775">
        <ele>100</ele>
        <time>2021-03-25T03:24:12Z</time>
      </trkpt>
      <trkpt lat="47.66483" lon="-1.08776">
        <ele>100</ele>
        <time>2021-03-25T03:24:14Z</time>
      </trkpt>
      <trkpt lat="47.66472" lon="-1.08779">
        <ele>100</ele>
        <time>2021-03-25T03:24:16Z</time>
      </trkpt>
      <trkpt lat="47.66462" lon="-1.08786">
        <ele>100</ele>
        <time>2021-03-25T03:24:18Z</time>
      </trkpt>
      <trkpt lat="47.66442" lon="-1.08799">
        <ele>101</ele>
        <time>2021-03-25T03:24:22Z</time>
      </trkpt>
      <trkpt lat="47.664" lon="-1.08826">
        <ele>101</ele>
        <time>2021-03-25T03:24:30Z</time>
      </trkpt>
      <trkpt lat="47.66388" lon="-1.08836">
        <ele>101</ele>
        <time>2021-03-25T03:24:32Z</time>
      </trkpt>
      <trkpt lat="47.66376" lon="-1.0885">
        <ele>101</ele>
        <time>2021-03-25T03:24:35Z</time>
      </trkpt>
      <trkpt lat="47.66356" lon="-1.08879">
        <ele>101</ele>
        <time>2021-03-25T03:24:40Z</time>
      </trkpt>
      <trkpt lat="47.66336" lon="-1.0891">
        <ele>102</ele>
        <time>2021-03-25T03:24:45Z</time>
      </trkpt>
      <trkpt lat="47.66318" lon="-1.08936">
        <ele>102</ele>
        <time>2021-03-25T03:24:50Z</time>
      </trkpt>
      <trkpt lat="47.66307" lon="-1.08953">
        <ele>103</ele>
        <time>2021-03-25T03:24:52Z</time>
      </trkpt>
      <trkpt lat="47.66297" lon="-1.08963">
        <ele>103</ele>
        <time>2021-03-25T03:24:54Z</time>
      </trkpt>
      <trkpt lat="47.66277" lon="-1.08984">
        <ele>103</ele>
        <time>2021-03-25T03:24:59Z</time>
      </trkpt>
      <trkpt lat="47.66248" lon="-1.09006">
        <ele>103</ele>
        <time>2021-03-25T03:25:05Z</time>
      </trkpt>
      <trkpt lat="47.66207" lon="-1.09036">
        <ele>104</ele>
        <time>2021-03-25T03:25:13Z</time>
      </trkpt>
      <trkpt lat="47.66127" lon="-1.09093">
        <ele>103</ele>
        <time>2021-03-25T03:25:29Z</time>
      </trkpt>
      <trkpt lat="47.6608" lon="-1.09135">
        <ele>102</ele>
        <time>2021-03-25T03:25:38Z</time>
      </trkpt>
      <trkpt lat="47.66074" lon="-1.0914">
        <ele>102</ele>
        <time>2021-03-25T03:25:40Z</time>
      </trkpt>
      <trkpt lat="47.66071" lon="-1.09142">
        <ele>102</ele>
        <time>2021-03-25T03:25:40Z</time>
      </trkpt>
      <trkpt lat="47.66069" lon="-1.09143">
        <ele>102</ele>
        <time>2021-03-25T03:25:40Z</time>
      </trkpt>
      <trkpt lat="47.66066" lon="-1.09146">
        <ele>102</ele>
        <time>2021-03-25T03:25:41Z</time>
      </trkpt>
      <trkpt lat="47.66066" lon="-1.09146">
        <ele>102</ele>
        <time>2021-03-25T03:25:41Z</time>
      </trkpt>
      <trkpt lat="47.65982" lon="-1.08985">
        <ele>102</ele>
        <time>2021-03-25T03:26:06Z</time>
      </trkpt>
      <trkpt lat="47.65917" lon="-1.0886">
        <ele>100</ele>
        <time>2021-03-25T03:26:24Z</time>
      </trkpt>
      <trkpt lat="47.65902" lon="-1.0883">
        <ele>100</ele>
        <time>2021-03-25T03:26:29Z</time>
      </trkpt>
      <trkpt lat="47.65809" lon="-1.08651">
        <ele>96</ele>
        <time>2021-03-25T03:26:56Z</time>
      </trkpt>
      <trkpt lat="47.65713" lon="-1.08468">
        <ele>94</ele>
        <time>2021-03-25T03:27:24Z</time>
      </trkpt>
      <trkpt lat="47.65677" lon="-1.08399">
        <ele>93</ele>
        <time>2021-03-25T03:27:34Z</time>
      </trkpt>
      <trkpt lat="47.65656" lon="-1.0836">
        <ele>92</ele>
        <time>2021-03-25T03:27:40Z</time>
      </trkpt>
      <trkpt lat="47.65647" lon="-1.08342">
        <ele>91</ele>
        <time>2021-03-25T03:27:43Z</time>
      </trkpt>
      <trkpt lat="47.65609" lon="-1.08267">
        <ele>91</ele>
        <time>2021-03-25T03:27:54Z</time>
      </trkpt>
      <trkpt lat="47.65556" lon="-1.08168">
        <ele>91</ele>
        <time>2021-03-25T03:28:09Z</time>
      </trkpt>
      <trkpt lat="47.65506" lon="-1.08072">
        <ele>93</ele>
        <time>2021-03-25T03:28:24Z</time>
      </trkpt>
      <trkpt lat="47.65467" lon="-1.07997">
        <ele>94</ele>
        <time>2021-03-25T03:28:35Z</time>
      </trkpt>
      <trkpt lat="47.65456" lon="-1.07975">
        <ele>95</ele>
        <time>2021-03-25T03:28:39Z</time>
      </trkpt>
      <trkpt lat="47.65425" lon="-1.07914">
        <ele>95</ele>
        <time>2021-03-25T03:28:48Z</time>
      </trkpt>
      <trkpt lat="47.65347" lon="-1.07762">
        <ele>94</ele>
        <time>2021-03-25T03:29:11Z</time>
      </trkpt>
      <trkpt lat="47.65318" lon="-1.07707">
        <ele>93</ele>
        <time>2021-03-25T03:29:19Z</time>
      </trkpt>
      <trkpt lat="47.65289" lon="-1.07653">
        <ele>92</ele>
        <time>2021-03-25T03:29:27Z</time>
      </trkpt>
      <trkpt lat="47.65257" lon="-1.07592">
        <ele>92</ele>
        <time>2021-03-25T03:29:37Z</time>
      </trkpt>
      <trkpt lat="47.65229" lon="-1.07539">
        <ele>90</ele>
        <time>2021-03-25T03:29:45Z</time>
      </trkpt>
      <trkpt lat="47.65209" lon="-1.075">
        <ele>89</ele>
        <time>2021-03-25T03:29:50Z</time>
      </trkpt>
      <trkpt lat="47.65186" lon="-1.07458">
        <ele>88</ele>
        <time>2021-03-25T03:29:57Z</time>
      </trkpt>
      <trkpt lat="47.65177" lon="-1.07441">
        <ele>87</ele>
        <time>2021-03-25T03:30:00Z</time>
      </trkpt>
      <trkpt lat="47.65112" lon="-1.07314">
        <ele>82</ele>
        <time>2021-03-25T03:30:19Z</time>
      </trkpt>
      <trkpt lat="47.65081" lon="-1.07256">
        <ele>80</ele>
        <time>2021-03-25T03:30:28Z</time>
      </trkpt>
      <trkpt lat="47.65058" lon="-1.07211">
        <ele>80</ele>
        <time>2021-03-25T03:30:34Z</time>
      </trkpt>
      <trkpt lat="47.65028" lon="-1.07153">
        <ele>80</ele>
        <time>2021-03-25T03:30:43Z</time>
      </trkpt>
      <trkpt lat="47.65009" lon="-1.07116">
        <ele>80</ele>
        <time>2021-03-25T03:30:49Z</time>
      </trkpt>
      <trkpt lat="47.64981" lon="-1.07062">
        <ele>81</ele>
        <time>2021-03-25T03:30:57Z</time>
      </trkpt>
      <trkpt lat="47.64962" lon="-1.07025">
        <ele>81</ele>
        <time>2021-03-25T03:31:02Z</time>
      </trkpt>
      <trkpt lat="47.64939" lon="-1.06982">
        <ele>82</ele>
        <time>2021-03-25T03:31:09Z</time>
      </trkpt>
      <trkpt lat="47.64914" lon="-1.06934">
        <ele>84</ele>
        <time>2021-03-25T03:31:16Z</time>
      </trkpt>
      <trkpt lat="47.64892" lon="-1.06893">
        <ele>85</ele>
        <time>2021-03-25T03:31:23Z</time>
      </trkpt>
      <trkpt lat="47.64872" lon="-1.06853">
        <ele>86</ele>
        <time>2021-03-25T03:31:29Z</time>
      </trkpt>
      <trkpt lat="47.64845" lon="-1.06801">
        <ele>88</ele>
        <time>2021-03-25T03:31:36Z</time>
      </trkpt>
      <trkpt lat="47.6482" lon="-1.06756">
        <ele>89</ele>
        <time>2021-03-25T03:31:43Z</time>
      </trkpt>
      <trkpt lat="47.64813" lon="-1.06742">
        <ele>89</ele>
        <time>2021-03-25T03:31:45Z</time>
      </trkpt>
      <trkpt lat="47.64802" lon="-1.0672">
        <ele>89</ele>
        <time>2021-03-25T03:31:49Z</time>
      </trkpt>
      <trkpt lat="47.6479" lon="-1.06696">
        <ele>89</ele>
        <time>2021-03-25T03:31:52Z</time>
      </trkpt>
      <trkpt lat="47.64782" lon="-1.0668">
        <ele>89</ele>
        <time>2021-03-25T03:31:55Z</time>
      </trkpt>
      <trkpt lat="47.64767" lon="-1.06653">
        <ele>89</ele>
        <time>2021-03-25T03:31:59Z</time>
      </trkpt>
      <trkpt lat="47.64757" lon="-1.06633">
        <ele>89</ele>
        <time>2021-03-25T03:32:02Z</time>
      </trkpt>
      <trkpt lat="47.64748" lon="-1.06616">
        <ele>89</ele>
        <time>2021-03-25T03:32:04Z</time>
      </trkpt>
      <trkpt lat="47.64742" lon="-1.06604">
        <ele>89</ele>
        <time>2021-03-25T03:32:06Z</time>
      </trkpt>
      <trkpt lat="47.64735" lon="-1.06592">
        <ele>89</ele>
        <time>2021-03-25T03:32:08Z</time>
      </trkpt>
      <trkpt lat="47.64726" lon="-1.06575">
        <ele>89</ele>
        <time>2021-03-25T03:32:11Z</time>
      </trkpt>
      <trkpt lat="47.64716" lon="-1.06555">
        <ele>88</ele>
        <time>2021-03-25T03:32:14Z</time>
      </trkpt>
      <trkpt lat="47.64705" lon="-1.06533">
        <ele>88</ele>
        <time>2021-03-25T03:32:17Z</time>
      </trkpt>
      <trkpt lat="47.64692" lon="-1.06508">
        <ele>88</ele>
        <time>2021-03-25T03:32:21Z</time>
      </trkpt>
      <trkpt lat="47.64678" lon="-1.06481">
        <ele>87</ele>
        <time>2021-03-25T03:32:25Z</time>
      </trkpt>
      <trkpt lat="47.64667" lon="-1.06459">
        <ele>87</ele>
        <time>2021-03-25T03:32:28Z</time>
      </trkpt>
      <trkpt lat="47.64651" lon="-1.06429">
        <ele>86</ele>
        <time>2021-03-25T03:32:33Z</time>
      </trkpt>
      <trkpt lat="47.64634" lon="-1.06397">
        <ele>85</ele>
        <time>2021-03-25T03:32:38Z</time>
      </trkpt>
      <trkpt lat="47.64618" lon="-1.06365">
        <ele>84</ele>
        <time>2021-03-25T03:32:42Z</time>
      </trkpt>
      <trkpt lat="47.64607" lon="-1.06344">
        <ele>84</ele>
        <time>2021-03-25T03:32:46Z</time>
      </trkpt>
      <trkpt lat="47.64598" lon="-1.06329">
        <ele>83</ele>
        <time>2021-03-25T03:32:48Z</time>
      </trkpt>
      <trkpt lat="47.64591" lon="-1.06313">
        <ele>82</ele>
        <time>2021-03-25T03:32:50Z</time>
      </trkpt>
      <trkpt lat="47.64579" lon="-1.06292">
        <ele>81</ele>
        <time>2021-03-25T03:32:54Z</time>
      </trkpt>
      <trkpt lat="47.6456" lon="-1.06254">
        <ele>79</ele>
        <time>2021-03-25T03:32:59Z</time>
      </trkpt>
      <trkpt lat="47.64542" lon="-1.06221">
        <ele>78</ele>
        <time>2021-03-25T03:33:04Z</time>
      </trkpt>
      <trkpt lat="47.64527" lon="-1.06191">
        <ele>76</ele>
        <time>2021-03-25T03:33:09Z</time>
      </trkpt>
      <trkpt lat="47.64516" lon="-1.06169">
        <ele>75</ele>
        <time>2021-03-25T03:33:12Z</time>
      </trkpt>
      <trkpt lat="47.64493" lon="-1.06126">
        <ele>74</ele>
        <time>2021-03-25T03:33:19Z</time>
      </trkpt>
      <trkpt lat="47.6448" lon="-1.061">
        <ele>73</ele>
        <time>2021-03-25T03:33:23Z</time>
      </trkpt>
      <trkpt lat="47.64474" lon="-1.06089">
        <ele>72</ele>
        <time>2021-03-25T03:33:24Z</time>
      </trkpt>
      <trkpt lat="47.64464" lon="-1.06069">
        <ele>72</ele>
        <time>2021-03-25T03:33:27Z</time>
      </trkpt>
      <trkpt lat="47.64446" lon="-1.06035">
        <ele>71</ele>
        <time>2021-03-25T03:33:32Z</time>
      </trkpt>
      <trkpt lat="47.64428" lon="-1.06002">
        <ele>71</ele>
        <time>2021-03-25T03:33:38Z</time>
      </trkpt>
      <trkpt lat="47.6441" lon="-1.05967">
        <ele>70</ele>
        <time>2021-03-25T03:33:43Z</time>
      </trkpt>
      <trkpt lat="47.64396" lon="-1.05939">
        <ele>69</ele>
        <time>2021-03-25T03:33:47Z</time>
      </trkpt>
      <trkpt lat="47.6439" lon="-1.05924">
        <ele>68</ele>
        <time>2021-03-25T03:33:49Z</time>
      </trkpt>
      <trkpt lat="47.64383" lon="-1.05911">
        <ele>68</ele>
        <time>2021-03-25T03:33:51Z</time>
      </trkpt>
      <trkpt lat="47.64378" lon="-1.05901">
        <ele>67</ele>
        <time>2021-03-25T03:33:53Z</time>
      </trkpt>
      <trkpt lat="47.64369" lon="-1.05884">
        <ele>67</ele>
        <time>2021-03-25T03:33:55Z</time>
      </trkpt>
      <trkpt lat="47.64362" lon="-1.05871">
        <ele>66</ele>
        <time>2021-03-25T03:33:57Z</time>
      </trkpt>
      <trkpt lat="47.64356" lon="-1.05858">
        <ele>65</ele>
        <time>2021-03-25T03:33:59Z</time>
      </trkpt>
      <trkpt lat="47.64349" lon="-1.05845">
        <ele>65</ele>
        <time>2021-03-25T03:34:01Z</time>
      </trkpt>
      <trkpt lat="47.64342" lon="-1.05832">
        <ele>64</ele>
        <time>2021-03-25T03:34:03Z</time>
      </trkpt>
      <trkpt lat="47.64336" lon="-1.05819">
        <ele>64</ele>
        <time>2021-03-25T03:34:05Z</time>
      </trkpt>
      <trkpt lat="47.64329" lon="-1.05806">
        <ele>64</ele>
        <time>2021-03-25T03:34:07Z</time>
      </trkpt>
      <trkpt lat="47.64322" lon="-1.05794">
        <ele>63</ele>
        <time>2021-03-25T03:34:09Z</time>
      </trkpt>
      <trkpt lat="47.64316" lon="-1.05781">
        <ele>63</ele>
        <time>2021-03-25T03:34:11Z</time>
      </trkpt>
      <trkpt lat="47.64309" lon="-1.05768">
        <ele>62</ele>
        <time>2021-03-25T03:34:13Z</time>
      </trkpt>
      <trkpt lat="47.64302" lon="-1.05754">
        <ele>62</ele>
        <time>2021-03-25T03:34:15Z</time>
      </trkpt>
      <trkpt lat="47.64296" lon="-1.05741">
        <ele>61</ele>
        <time>2021-03-25T03:34:17Z</time>
      </trkpt>
      <trkpt lat="47.64282" lon="-1.05715">
        <ele>60</ele>
        <time>2021-03-25T03:34:21Z</time>
      </trkpt>
      <trkpt lat="47.64268" lon="-1.05689">
        <ele>59</ele>
        <time>2021-03-25T03:34:25Z</time>
      </trkpt>
      <trkpt lat="47.64255" lon="-1.05662">
        <ele>58</ele>
        <time>2021-03-25T03:34:29Z</time>
      </trkpt>
      <trkpt lat="47.64251" lon="-1.05654">
        <ele>58</ele>
        <time>2021-03-25T03:34:30Z</time>
      </trkpt>
      <trkpt lat="47.64241" lon="-1.05636">
        <ele>58</ele>
        <time>2021-03-25T03:34:33Z</time>
      </trkpt>
      <trkpt lat="47.64234" lon="-1.05623">
        <ele>58</ele>
        <time>2021-03-25T03:34:35Z</time>
      </trkpt>
      <trkpt lat="47.64227" lon="-1.0561">
        <ele>58</ele>
        <time>2021-03-25T03:34:37Z</time>
      </trkpt>
      <trkpt lat="47.6422" lon="-1.05596">
        <ele>58</ele>
        <time>2021-03-25T03:34:39Z</time>
      </trkpt>
      <trkpt lat="47.64206" lon="-1.05569">
        <ele>57</ele>
        <time>2021-03-25T03:34:43Z</time>
      </trkpt>
      <trkpt lat="47.64192" lon="-1.05542">
        <ele>57</ele>
        <time>2021-03-25T03:34:47Z</time>
      </trkpt>
      <trkpt lat="47.64185" lon="-1.05529">
        <ele>57</ele>
        <time>2021-03-25T03:34:49Z</time>
      </trkpt>
      <trkpt lat="47.64185" lon="-1.05528">
        <ele>57</ele>
        <time>2021-03-25T03:34:49Z</time>
      </trkpt>
      <trkpt lat="47.64178" lon="-1.05516">
        <ele>57</ele>
        <time>2021-03-25T03:34:51Z</time>
      </trkpt>
      <trkpt lat="47.64171" lon="-1.05501">
        <ele>57</ele>
        <time>2021-03-25T03:34:53Z</time>
      </trkpt>
      <trkpt lat="47.64164" lon="-1.05488">
        <ele>57</ele>
        <time>2021-03-25T03:34:55Z</time>
      </trkpt>
      <trkpt lat="47.64157" lon="-1.05474">
        <ele>57</ele>
        <time>2021-03-25T03:34:57Z</time>
      </trkpt>
      <trkpt lat="47.6415" lon="-1.05461">
        <ele>57</ele>
        <time>2021-03-25T03:34:59Z</time>
      </trkpt>
      <trkpt lat="47.64143" lon="-1.05447">
        <ele>57</ele>
        <time>2021-03-25T03:35:01Z</time>
      </trkpt>
      <trkpt lat="47.64136" lon="-1.05434">
        <ele>57</ele>
        <time>2021-03-25T03:35:03Z</time>
      </trkpt>
      <trkpt lat="47.64129" lon="-1.0542">
        <ele>57</ele>
        <time>2021-03-25T03:35:05Z</time>
      </trkpt>
      <trkpt lat="47.64122" lon="-1.05407">
        <ele>58</ele>
        <time>2021-03-25T03:35:07Z</time>
      </trkpt>
      <trkpt lat="47.64115" lon="-1.05393">
        <ele>58</ele>
        <time>2021-03-25T03:35:09Z</time>
      </trkpt>
      <trkpt lat="47.64108" lon="-1.0538">
        <ele>58</ele>
        <time>2021-03-25T03:35:11Z</time>
      </trkpt>
      <trkpt lat="47.64102" lon="-1.05367">
        <ele>58</ele>
        <time>2021-03-25T03:35:13Z</time>
      </trkpt>
      <trkpt lat="47.64095" lon="-1.05353">
        <ele>58</ele>
        <time>2021-03-25T03:35:15Z</time>
      </trkpt>
      <trkpt lat="47.64088" lon="-1.05339">
        <ele>58</ele>
        <time>2021-03-25T03:35:18Z</time>
      </trkpt>
      <trkpt lat="47.64074" lon="-1.05312">
        <ele>58</ele>
        <time>2021-03-25T03:35:22Z</time>
      </trkpt>
      <trkpt lat="47.64066" lon="-1.05298">
        <ele>58</ele>
        <time>2021-03-25T03:35:24Z</time>
      </trkpt>
      <trkpt lat="47.64059" lon="-1.05285">
        <ele>58</ele>
        <time>2021-03-25T03:35:26Z</time>
      </trkpt>
      <trkpt lat="47.64052" lon="-1.05271">
        <ele>58</ele>
        <time>2021-03-25T03:35:28Z</time>
      </trkpt>
      <trkpt lat="47.64045" lon="-1.05258">
        <ele>58</ele>
        <time>2021-03-25T03:35:30Z</time>
      </trkpt>
      <trkpt lat="47.64038" lon="-1.05245">
        <ele>58</ele>
        <time>2021-03-25T03:35:32Z</time>
      </trkpt>
      <trkpt lat="47.64032" lon="-1.05232">
        <ele>58</ele>
        <time>2021-03-25T03:35:34Z</time>
      </trkpt>
      <trkpt lat="47.64025" lon="-1.05218">
        <ele>59</ele>
        <time>2021-03-25T03:35:36Z</time>
      </trkpt>
      <trkpt lat="47.64018" lon="-1.05205">
        <ele>59</ele>
        <time>2021-03-25T03:35:38Z</time>
      </trkpt>
      <trkpt lat="47.64011" lon="-1.05192">
        <ele>59</ele>
        <time>2021-03-25T03:35:40Z</time>
      </trkpt>
      <trkpt lat="47.64004" lon="-1.05179">
        <ele>59</ele>
        <time>2021-03-25T03:35:42Z</time>
      </trkpt>
      <trkpt lat="47.63997" lon="-1.05165">
        <ele>59</ele>
        <time>2021-03-25T03:35:44Z</time>
      </trkpt>
      <trkpt lat="47.63991" lon="-1.05152">
        <ele>59</ele>
        <time>2021-03-25T03:35:46Z</time>
      </trkpt>
      <trkpt lat="47.63984" lon="-1.05139">
        <ele>59</ele>
        <time>2021-03-25T03:35:48Z</time>
      </trkpt>
      <trkpt lat="47.63977" lon="-1.05126">
        <ele>59</ele>
        <time>2021-03-25T03:35:50Z</time>
      </trkpt>
      <trkpt lat="47.63971" lon="-1.05114">
        <ele>59</ele>
        <time>2021-03-25T03:35:52Z</time>
      </trkpt>
      <trkpt lat="47.63965" lon="-1.05101">
        <ele>60</ele>
        <time>2021-03-25T03:35:54Z</time>
      </trkpt>
      <trkpt lat="47.63952" lon="-1.05077">
        <ele>60</ele>
        <time>2021-03-25T03:35:57Z</time>
      </trkpt>
      <trkpt lat="47.63951" lon="-1.05075">
        <ele>60</ele>
        <time>2021-03-25T03:35:58Z</time>
      </trkpt>
      <trkpt lat="47.63945" lon="-1.05063">
        <ele>60</ele>
        <time>2021-03-25T03:35:59Z</time>
      </trkpt>
      <trkpt lat="47.63938" lon="-1.0505">
        <ele>60</ele>
        <time>2021-03-25T03:36:01Z</time>
      </trkpt>
      <trkpt lat="47.63932" lon="-1.05038">
        <ele>60</ele>
        <time>2021-03-25T03:36:03Z</time>
      </trkpt>
      <trkpt lat="47.63925" lon="-1.05026">
        <ele>60</ele>
        <time>2021-03-25T03:36:05Z</time>
      </trkpt>
      <trkpt lat="47.63919" lon="-1.05014">
        <ele>60</ele>
        <time>2021-03-25T03:36:07Z</time>
      </trkpt>
      <trkpt lat="47.63912" lon="-1.05001">
        <ele>60</ele>
        <time>2021-03-25T03:36:09Z</time>
      </trkpt>
      <trkpt lat="47.63906" lon="-1.0499">
        <ele>60</ele>
        <time>2021-03-25T03:36:10Z</time>
      </trkpt>
      <trkpt lat="47.639" lon="-1.04978">
        <ele>61</ele>
        <time>2021-03-25T03:36:12Z</time>
      </trkpt>
      <trkpt lat="47.63888" lon="-1.04955">
        <ele>61</ele>
        <time>2021-03-25T03:36:16Z</time>
      </trkpt>
      <trkpt lat="47.63882" lon="-1.04944">
        <ele>61</ele>
        <time>2021-03-25T03:36:17Z</time>
      </trkpt>
      <trkpt lat="47.63877" lon="-1.04934">
        <ele>61</ele>
        <time>2021-03-25T03:36:19Z</time>
      </trkpt>
      <trkpt lat="47.63872" lon="-1.04923">
        <ele>62</ele>
        <time>2021-03-25T03:36:21Z</time>
      </trkpt>
      <trkpt lat="47.63868" lon="-1.04914">
        <ele>62</ele>
        <time>2021-03-25T03:36:22Z</time>
      </trkpt>
      <trkpt lat="47.63863" lon="-1.04906">
        <ele>62</ele>
        <time>2021-03-25T03:36:23Z</time>
      </trkpt>
      <trkpt lat="47.63859" lon="-1.04897">
        <ele>61</ele>
        <time>2021-03-25T03:36:24Z</time>
      </trkpt>
      <trkpt lat="47.63858" lon="-1.04894">
        <ele>61</ele>
        <time>2021-03-25T03:36:25Z</time>
      </trkpt>
      <trkpt lat="47.63853" lon="-1.04885">
        <ele>61</ele>
        <time>2021-03-25T03:36:26Z</time>
      </trkpt>
      <trkpt lat="47.63848" lon="-1.04875">
        <ele>61</ele>
        <time>2021-03-25T03:36:28Z</time>
      </trkpt>
      <trkpt lat="47.63843" lon="-1.04866">
        <ele>61</ele>
        <time>2021-03-25T03:36:29Z</time>
      </trkpt>
      <trkpt lat="47.63838" lon="-1.04857">
        <ele>61</ele>
        <time>2021-03-25T03:36:31Z</time>
      </trkpt>
      <trkpt lat="47.63834" lon="-1.04848">
        <ele>61</ele>
        <time>2021-03-25T03:36:32Z</time>
      </trkpt>
      <trkpt lat="47.63829" lon="-1.0484">
        <ele>61</ele>
        <time>2021-03-25T03:36:33Z</time>
      </trkpt>
      <trkpt lat="47.63824" lon="-1.04831">
        <ele>61</ele>
        <time>2021-03-25T03:36:35Z</time>
      </trkpt>
      <trkpt lat="47.6382" lon="-1.04823">
        <ele>61</ele>
        <time>2021-03-25T03:36:36Z</time>
      </trkpt>
      <trkpt lat="47.63815" lon="-1.04815">
        <ele>61</ele>
        <time>2021-03-25T03:36:37Z</time>
      </trkpt>
      <trkpt lat="47.6381" lon="-1.04808">
        <ele>61</ele>
        <time>2021-03-25T03:36:38Z</time>
      </trkpt>
      <trkpt lat="47.63808" lon="-1.04805">
        <ele>61</ele>
        <time>2021-03-25T03:36:39Z</time>
      </trkpt>
      <trkpt lat="47.63805" lon="-1.048">
        <ele>61</ele>
        <time>2021-03-25T03:36:40Z</time>
      </trkpt>
      <trkpt lat="47.638" lon="-1.04793">
        <ele>61</ele>
        <time>2021-03-25T03:36:41Z</time>
      </trkpt>
      <trkpt lat="47.63795" lon="-1.04786">
        <ele>61</ele>
        <time>2021-03-25T03:36:42Z</time>
      </trkpt>
      <trkpt lat="47.6379" lon="-1.04779">
        <ele>61</ele>
        <time>2021-03-25T03:36:43Z</time>
      </trkpt>
      <trkpt lat="47.63785" lon="-1.04772">
        <ele>61</ele>
        <time>2021-03-25T03:36:44Z</time>
      </trkpt>
      <trkpt lat="47.6378" lon="-1.04766">
        <ele>61</ele>
        <time>2021-03-25T03:36:46Z</time>
      </trkpt>
      <trkpt lat="47.63775" lon="-1.04759">
        <ele>61</ele>
        <time>2021-03-25T03:36:47Z</time>
      </trkpt>
      <trkpt lat="47.6377" lon="-1.04753">
        <ele>61</ele>
        <time>2021-03-25T03:36:48Z</time>
      </trkpt>
      <trkpt lat="47.63766" lon="-1.04747">
        <ele>61</ele>
        <time>2021-03-25T03:36:49Z</time>
      </trkpt>
      <trkpt lat="47.63761" lon="-1.0474">
        <ele>61</ele>
        <time>2021-03-25T03:36:50Z</time>
      </trkpt>
      <trkpt lat="47.63757" lon="-1.04735">
        <ele>61</ele>
        <time>2021-03-25T03:36:51Z</time>
      </trkpt>
      <trkpt lat="47.63752" lon="-1.04729">
        <ele>61</ele>
        <time>2021-03-25T03:36:52Z</time>
      </trkpt>
      <trkpt lat="47.63747" lon="-1.04721">
        <ele>62</ele>
        <time>2021-03-25T03:36:54Z</time>
      </trkpt>
      <trkpt lat="47.63743" lon="-1.04716">
        <ele>62</ele>
        <time>2021-03-25T03:36:54Z</time>
      </trkpt>
      <trkpt lat="47.63739" lon="-1.0471">
        <ele>62</ele>
        <time>2021-03-25T03:36:56Z</time>
      </trkpt>
      <trkpt lat="47.63734" lon="-1.04705">
        <ele>62</ele>
        <time>2021-03-25T03:36:57Z</time>
      </trkpt>
      <trkpt lat="47.6373" lon="-1.04699">
        <ele>62</ele>
        <time>2021-03-25T03:36:58Z</time>
      </trkpt>
      <trkpt lat="47.63726" lon="-1.04693">
        <ele>62</ele>
        <time>2021-03-25T03:36:59Z</time>
      </trkpt>
      <trkpt lat="47.63718" lon="-1.04682">
        <ele>62</ele>
        <time>2021-03-25T03:37:01Z</time>
      </trkpt>
      <trkpt lat="47.63713" lon="-1.04676">
        <ele>62</ele>
        <time>2021-03-25T03:37:02Z</time>
      </trkpt>
      <trkpt lat="47.63709" lon="-1.0467">
        <ele>62</ele>
        <time>2021-03-25T03:37:03Z</time>
      </trkpt>
      <trkpt lat="47.63705" lon="-1.04664">
        <ele>62</ele>
        <time>2021-03-25T03:37:04Z</time>
      </trkpt>
      <trkpt lat="47.63701" lon="-1.04657">
        <ele>62</ele>
        <time>2021-03-25T03:37:05Z</time>
      </trkpt>
      <trkpt lat="47.63696" lon="-1.04651">
        <ele>62</ele>
        <time>2021-03-25T03:37:06Z</time>
      </trkpt>
      <trkpt lat="47.63692" lon="-1.04645">
        <ele>62</ele>
        <time>2021-03-25T03:37:07Z</time>
      </trkpt>
      <trkpt lat="47.63687" lon="-1.04638">
        <ele>61</ele>
        <time>2021-03-25T03:37:08Z</time>
      </trkpt>
      <trkpt lat="47.63683" lon="-1.04632">
        <ele>61</ele>
        <time>2021-03-25T03:37:09Z</time>
      </trkpt>
      <trkpt lat="47.63678" lon="-1.04624">
        <ele>61</ele>
        <time>2021-03-25T03:37:11Z</time>
      </trkpt>
      <trkpt lat="47.63662" lon="-1.04601">
        <ele>61</ele>
        <time>2021-03-25T03:37:14Z</time>
      </trkpt>
      <trkpt lat="47.63657" lon="-1.04596">
        <ele>61</ele>
        <time>2021-03-25T03:37:16Z</time>
      </trkpt>
      <trkpt lat="47.63653" lon="-1.0459">
        <ele>61</ele>
        <time>2021-03-25T03:37:17Z</time>
      </trkpt>
      <trkpt lat="47.63649" lon="-1.04585">
        <ele>61</ele>
        <time>2021-03-25T03:37:17Z</time>
      </trkpt>
      <trkpt lat="47.63645" lon="-1.0458">
        <ele>60</ele>
        <time>2021-03-25T03:37:18Z</time>
      </trkpt>
      <trkpt lat="47.63641" lon="-1.04576">
        <ele>60</ele>
        <time>2021-03-25T03:37:19Z</time>
      </trkpt>
      <trkpt lat="47.63636" lon="-1.04572">
        <ele>60</ele>
        <time>2021-03-25T03:37:20Z</time>
      </trkpt>
      <trkpt lat="47.63631" lon="-1.04569">
        <ele>60</ele>
        <time>2021-03-25T03:37:21Z</time>
      </trkpt>
      <trkpt lat="47.63626" lon="-1.04566">
        <ele>60</ele>
        <time>2021-03-25T03:37:22Z</time>
      </trkpt>
      <trkpt lat="47.63622" lon="-1.04564">
        <ele>60</ele>
        <time>2021-03-25T03:37:23Z</time>
      </trkpt>
      <trkpt lat="47.63617" lon="-1.04562">
        <ele>60</ele>
        <time>2021-03-25T03:37:24Z</time>
      </trkpt>
      <trkpt lat="47.63612" lon="-1.0456">
        <ele>60</ele>
        <time>2021-03-25T03:37:25Z</time>
      </trkpt>
      <trkpt lat="47.63605" lon="-1.04558">
        <ele>60</ele>
        <time>2021-03-25T03:37:26Z</time>
      </trkpt>
      <trkpt lat="47.63605" lon="-1.04558">
        <ele>60</ele>
        <time>2021-03-25T03:37:26Z</time>
      </trkpt>
      <trkpt lat="47.63608" lon="-1.04532">
        <ele>60</ele>
        <time>2021-03-25T03:37:29Z</time>
      </trkpt>
      <trkpt lat="47.63609" lon="-1.04494">
        <ele>61</ele>
        <time>2021-03-25T03:37:34Z</time>
      </trkpt>
      <trkpt lat="47.63612" lon="-1.04449">
        <ele>60</ele>
        <time>2021-03-25T03:37:39Z</time>
      </trkpt>
      <trkpt lat="47.63616" lon="-1.04373">
        <ele>59</ele>
        <time>2021-03-25T03:37:48Z</time>
      </trkpt>
      <trkpt lat="47.63617" lon="-1.04353">
        <ele>59</ele>
        <time>2021-03-25T03:37:51Z</time>
      </trkpt>
      <trkpt lat="47.63617" lon="-1.04337">
        <ele>59</ele>
        <time>2021-03-25T03:37:53Z</time>
      </trkpt>
      <trkpt lat="47.63618" lon="-1.04321">
        <ele>59</ele>
        <time>2021-03-25T03:37:55Z</time>
      </trkpt>
      <trkpt lat="47.63618" lon="-1.04308">
        <ele>59</ele>
        <time>2021-03-25T03:37:56Z</time>
      </trkpt>
      <trkpt lat="47.63621" lon="-1.04245">
        <ele>57</ele>
        <time>2021-03-25T03:38:04Z</time>
      </trkpt>
      <trkpt lat="47.63621" lon="-1.04233">
        <ele>57</ele>
        <time>2021-03-25T03:38:05Z</time>
      </trkpt>
      <trkpt lat="47.63621" lon="-1.04224">
        <ele>57</ele>
        <time>2021-03-25T03:38:06Z</time>
      </trkpt>
      <trkpt lat="47.63621" lon="-1.04214">
        <ele>57</ele>
        <time>2021-03-25T03:38:07Z</time>
      </trkpt>
      <trkpt lat="47.6362" lon="-1.04197">
        <ele>57</ele>
        <time>2021-03-25T03:38:09Z</time>
      </trkpt>
      <trkpt lat="47.63618" lon="-1.04178">
        <ele>57</ele>
        <time>2021-03-25T03:38:12Z</time>
      </trkpt>
      <trkpt lat="47.63617" lon="-1.04159">
        <ele>57</ele>
        <time>2021-03-25T03:38:14Z</time>
      </trkpt>
      <trkpt lat="47.63616" lon="-1.04142">
        <ele>57</ele>
        <time>2021-03-25T03:38:16Z</time>
      </trkpt>
      <trkpt lat="47.63614" lon="-1.04127">
        <ele>58</ele>
        <time>2021-03-25T03:38:18Z</time>
      </trkpt>
      <trkpt lat="47.63614" lon="-1.04113">
        <ele>58</ele>
        <time>2021-03-25T03:38:20Z</time>
      </trkpt>
      <trkpt lat="47.63613" lon="-1.04107">
        <ele>58</ele>
        <time>2021-03-25T03:38:20Z</time>
      </trkpt>
      <trkpt lat="47.63612" lon="-1.04101">
        <ele>58</ele>
        <time>2021-03-25T03:38:21Z</time>
      </trkpt>
      <trkpt lat="47.6361" lon="-1.04091">
        <ele>59</ele>
        <time>2021-03-25T03:38:22Z</time>
      </trkpt>
      <trkpt lat="47.63607" lon="-1.04083">
        <ele>59</ele>
        <time>2021-03-25T03:38:23Z</time>
      </trkpt>
      <trkpt lat="47.63603" lon="-1.04075">
        <ele>59</ele>
        <time>2021-03-25T03:38:25Z</time>
      </trkpt>
      <trkpt lat="47.63596" lon="-1.04063">
        <ele>60</ele>
        <time>2021-03-25T03:38:27Z</time>
      </trkpt>
      <trkpt lat="47.63587" lon="-1.0405">
        <ele>61</ele>
        <time>2021-03-25T03:38:29Z</time>
      </trkpt>
      <trkpt lat="47.63574" lon="-1.04033">
        <ele>62</ele>
        <time>2021-03-25T03:38:32Z</time>
      </trkpt>
      <trkpt lat="47.63565" lon="-1.04021">
        <ele>62</ele>
        <time>2021-03-25T03:38:34Z</time>
      </trkpt>
      <trkpt lat="47.63554" lon="-1.04006">
        <ele>63</ele>
        <time>2021-03-25T03:38:37Z</time>
      </trkpt>
      <trkpt lat="47.63541" lon="-1.03988">
        <ele>64</ele>
        <time>2021-03-25T03:38:40Z</time>
      </trkpt>
      <trkpt lat="47.63522" lon="-1.03961">
        <ele>65</ele>
        <time>2021-03-25T03:38:45Z</time>
      </trkpt>
      <trkpt lat="47.63508" lon="-1.03942">
        <ele>65</ele>
        <time>2021-03-25T03:38:48Z</time>
      </trkpt>
      <trkpt lat="47.63491" lon="-1.03918">
        <ele>65</ele>
        <time>2021-03-25T03:38:52Z</time>
      </trkpt>
      <trkpt lat="47.63476" lon="-1.03898">
        <ele>64</ele>
        <time>2021-03-25T03:38:56Z</time>
      </trkpt>
      <trkpt lat="47.63462" lon="-1.03879">
        <ele>64</ele>
        <time>2021-03-25T03:38:59Z</time>
      </trkpt>
      <trkpt lat="47.63451" lon="-1.03863">
        <ele>64</ele>
        <time>2021-03-25T03:39:02Z</time>
      </trkpt>
      <trkpt lat="47.63417" lon="-1.03817">
        <ele>63</ele>
        <time>2021-03-25T03:39:10Z</time>
      </trkpt>
      <trkpt lat="47.63391" lon="-1.0378">
        <ele>63</ele>
        <time>2021-03-25T03:39:16Z</time>
      </trkpt>
      <trkpt lat="47.63367" lon="-1.03747">
        <ele>62</ele>
        <time>2021-03-25T03:39:22Z</time>
      </trkpt>
      <trkpt lat="47.63356" lon="-1.03731">
        <ele>62</ele>
        <time>2021-03-25T03:39:25Z</time>
      </trkpt>
      <trkpt lat="47.63342" lon="-1.03712">
        <ele>62</ele>
        <time>2021-03-25T03:39:28Z</time>
      </trkpt>
      <trkpt lat="47.63324" lon="-1.03688">
        <ele>61</ele>
        <time>2021-03-25T03:39:33Z</time>
      </trkpt>
      <trkpt lat="47.63305" lon="-1.0366">
        <ele>62</ele>
        <time>2021-03-25T03:39:37Z</time>
      </trkpt>
      <trkpt lat="47.63284" lon="-1.03631">
        <ele>62</ele>
        <time>2021-03-25T03:39:43Z</time>
      </trkpt>
      <trkpt lat="47.63274" lon="-1.03617">
        <ele>61</ele>
        <time>2021-03-25T03:39:45Z</time>
      </trkpt>
      <trkpt lat="47.63263" lon="-1.03601">
        <ele>61</ele>
        <time>2021-03-25T03:39:48Z</time>
      </trkpt>
      <trkpt lat="47.63247" lon="-1.03575">
        <ele>61</ele>
        <time>2021-03-25T03:39:52Z</time>
      </trkpt>
      <trkpt lat="47.6324" lon="-1.03561">
        <ele>61</ele>
        <time>2021-03-25T03:39:54Z</time>
      </trkpt>
      <trkpt lat="47.63237" lon="-1.03552">
        <ele>61</ele>
        <time>2021-03-25T03:39:55Z</time>
      </trkpt>
      <trkpt lat="47.63232" lon="-1.03541">
        <ele>62</ele>
        <time>2021-03-25T03:39:57Z</time>
      </trkpt>
      <trkpt lat="47.63226" lon="-1.03523">
        <ele>62</ele>
        <time>2021-03-25T03:39:59Z</time>
      </trkpt>
      <trkpt lat="47.6322" lon="-1.035">
        <ele>62</ele>
        <time>2021-03-25T03:40:02Z</time>
      </trkpt>
      <trkpt lat="47.63215" lon="-1.03477">
        <ele>62</ele>
        <time>2021-03-25T03:40:05Z</time>
      </trkpt>
      <trkpt lat="47.6321" lon="-1.03448">
        <ele>61</ele>
        <time>2021-03-25T03:40:09Z</time>
      </trkpt>
      <trkpt lat="47.63203" lon="-1.0341">
        <ele>61</ele>
        <time>2021-03-25T03:40:13Z</time>
      </trkpt>
      <trkpt lat="47.63192" lon="-1.03353">
        <ele>61</ele>
        <time>2021-03-25T03:40:20Z</time>
      </trkpt>
      <trkpt lat="47.63184" lon="-1.03306">
        <ele>61</ele>
        <time>2021-03-25T03:40:26Z</time>
      </trkpt>
      <trkpt lat="47.63175" lon="-1.03261">
        <ele>61</ele>
        <time>2021-03-25T03:40:32Z</time>
      </trkpt>
      <trkpt lat="47.63163" lon="-1.03195">
        <ele>61</ele>
        <time>2021-03-25T03:40:40Z</time>
      </trkpt>
      <trkpt lat="47.63153" lon="-1.03145">
        <ele>61</ele>
        <time>2021-03-25T03:40:46Z</time>
      </trkpt>
      <trkpt lat="47.63148" lon="-1.03116">
        <ele>61</ele>
        <time>2021-03-25T03:40:50Z</time>
      </trkpt>
      <trkpt lat="47.63142" lon="-1.03083">
        <ele>61</ele>
        <time>2021-03-25T03:40:54Z</time>
      </trkpt>
      <trkpt lat="47.63137" lon="-1.03058">
        <ele>60</ele>
        <time>2021-03-25T03:40:57Z</time>
      </trkpt>
      <trkpt lat="47.63132" lon="-1.03032">
        <ele>60</ele>
        <time>2021-03-25T03:41:00Z</time>
      </trkpt>
      <trkpt lat="47.63122" lon="-1.02977">
        <ele>59</ele>
        <time>2021-03-25T03:41:07Z</time>
      </trkpt>
      <trkpt lat="47.63116" lon="-1.02942">
        <ele>58</ele>
        <time>2021-03-25T03:41:12Z</time>
      </trkpt>
      <trkpt lat="47.63113" lon="-1.02924">
        <ele>57</ele>
        <time>2021-03-25T03:41:14Z</time>
      </trkpt>
      <trkpt lat="47.63109" lon="-1.02904">
        <ele>57</ele>
        <time>2021-03-25T03:41:16Z</time>
      </trkpt>
      <trkpt lat="47.63107" lon="-1.02895">
        <ele>57</ele>
        <time>2021-03-25T03:41:17Z</time>
      </trkpt>
      <trkpt lat="47.63101" lon="-1.02862">
        <ele>57</ele>
        <time>2021-03-25T03:41:22Z</time>
      </trkpt>
      <trkpt lat="47.63096" lon="-1.02834">
        <ele>56</ele>
        <time>2021-03-25T03:41:25Z</time>
      </trkpt>
      <trkpt lat="47.63091" lon="-1.02813">
        <ele>56</ele>
        <time>2021-03-25T03:41:28Z</time>
      </trkpt>
      <trkpt lat="47.63087" lon="-1.02796">
        <ele>56</ele>
        <time>2021-03-25T03:41:30Z</time>
      </trkpt>
      <trkpt lat="47.63083" lon="-1.0278">
        <ele>56</ele>
        <time>2021-03-25T03:41:32Z</time>
      </trkpt>
      <trkpt lat="47.63078" lon="-1.02764">
        <ele>56</ele>
        <time>2021-03-25T03:41:34Z</time>
      </trkpt>
      <trkpt lat="47.63063" lon="-1.02715">
        <ele>55</ele>
        <time>2021-03-25T03:41:40Z</time>
      </trkpt>
      <trkpt lat="47.63056" lon="-1.02691">
        <ele>55</ele>
        <time>2021-03-25T03:41:44Z</time>
      </trkpt>
      <trkpt lat="47.63036" lon="-1.02628">
        <ele>54</ele>
        <time>2021-03-25T03:41:52Z</time>
      </trkpt>
      <trkpt lat="47.63023" lon="-1.02588">
        <ele>54</ele>
        <time>2021-03-25T03:41:57Z</time>
      </trkpt>
      <trkpt lat="47.6301" lon="-1.02548">
        <ele>53</ele>
        <time>2021-03-25T03:42:03Z</time>
      </trkpt>
      <trkpt lat="47.62999" lon="-1.02515">
        <ele>51</ele>
        <time>2021-03-25T03:42:07Z</time>
      </trkpt>
      <trkpt lat="47.62987" lon="-1.02477">
        <ele>51</ele>
        <time>2021-03-25T03:42:12Z</time>
      </trkpt>
      <trkpt lat="47.62976" lon="-1.02441">
        <ele>52</ele>
        <time>2021-03-25T03:42:17Z</time>
      </trkpt>
      <trkpt lat="47.62962" lon="-1.02398">
        <ele>52</ele>
        <time>2021-03-25T03:42:23Z</time>
      </trkpt>
      <trkpt lat="47.62939" lon="-1.02328">
        <ele>55</ele>
        <time>2021-03-25T03:42:32Z</time>
      </trkpt>
      <trkpt lat="47.62922" lon="-1.02274">
        <ele>56</ele>
        <time>2021-03-25T03:42:39Z</time>
      </trkpt>
      <trkpt lat="47.62915" lon="-1.02252">
        <ele>56</ele>
        <time>2021-03-25T03:42:42Z</time>
      </trkpt>
      <trkpt lat="47.62904" lon="-1.02221">
        <ele>56</ele>
        <time>2021-03-25T03:42:46Z</time>
      </trkpt>
      <trkpt lat="47.62894" lon="-1.02189">
        <ele>57</ele>
        <time>2021-03-25T03:42:50Z</time>
      </trkpt>
      <trkpt lat="47.62884" lon="-1.02159">
        <ele>57</ele>
        <time>2021-03-25T03:42:54Z</time>
      </trkpt>
      <trkpt lat="47.62875" lon="-1.02129">
        <ele>58</ele>
        <time>2021-03-25T03:42:58Z</time>
      </trkpt>
      <trkpt lat="47.6287" lon="-1.02112">
        <ele>58</ele>
        <time>2021-03-25T03:43:01Z</time>
      </trkpt>
      <trkpt lat="47.6286" lon="-1.02083">
        <ele>59</ele>
        <time>2021-03-25T03:43:04Z</time>
      </trkpt>
      <trkpt lat="47.6285" lon="-1.02052">
        <ele>59</ele>
        <time>2021-03-25T03:43:09Z</time>
      </trkpt>
      <trkpt lat="47.6284" lon="-1.02019">
        <ele>58</ele>
        <time>2021-03-25T03:43:13Z</time>
      </trkpt>
      <trkpt lat="47.62831" lon="-1.01991">
        <ele>58</ele>
        <time>2021-03-25T03:43:17Z</time>
      </trkpt>
      <trkpt lat="47.62821" lon="-1.01961">
        <ele>57</ele>
        <time>2021-03-25T03:43:21Z</time>
      </trkpt>
      <trkpt lat="47.62813" lon="-1.01937">
        <ele>57</ele>
        <time>2021-03-25T03:43:24Z</time>
      </trkpt>
      <trkpt lat="47.62808" lon="-1.01917">
        <ele>56</ele>
        <time>2021-03-25T03:43:26Z</time>
      </trkpt>
      <trkpt lat="47.62803" lon="-1.01902">
        <ele>56</ele>
        <time>2021-03-25T03:43:28Z</time>
      </trkpt>
      <trkpt lat="47.62799" lon="-1.01889">
        <ele>57</ele>
        <time>2021-03-25T03:43:30Z</time>
      </trkpt>
      <trkpt lat="47.62791" lon="-1.01867">
        <ele>57</ele>
        <time>2021-03-25T03:43:33Z</time>
      </trkpt>
      <trkpt lat="47.62783" lon="-1.01845">
        <ele>57</ele>
        <time>2021-03-25T03:43:36Z</time>
      </trkpt>
      <trkpt lat="47.62779" lon="-1.01836">
        <ele>57</ele>
        <time>2021-03-25T03:43:37Z</time>
      </trkpt>
      <trkpt lat="47.62774" lon="-1.01825">
        <ele>57</ele>
        <time>2021-03-25T03:43:39Z</time>
      </trkpt>
      <trkpt lat="47.6277" lon="-1.01817">
        <ele>57</ele>
        <time>2021-03-25T03:43:40Z</time>
      </trkpt>
      <trkpt lat="47.62765" lon="-1.01808">
        <ele>57</ele>
        <time>2021-03-25T03:43:42Z</time>
      </trkpt>
      <trkpt lat="47.62759" lon="-1.01799">
        <ele>57</ele>
        <time>2021-03-25T03:43:43Z</time>
      </trkpt>
      <trkpt lat="47.62754" lon="-1.01792">
        <ele>57</ele>
        <time>2021-03-25T03:43:44Z</time>
      </trkpt>
      <trkpt lat="47.6275" lon="-1.01785">
        <ele>57</ele>
        <time>2021-03-25T03:43:45Z</time>
      </trkpt>
      <trkpt lat="47.62745" lon="-1.01778">
        <ele>57</ele>
        <time>2021-03-25T03:43:47Z</time>
      </trkpt>
      <trkpt lat="47.62739" lon="-1.01769">
        <ele>57</ele>
        <time>2021-03-25T03:43:48Z</time>
      </trkpt>
      <trkpt lat="47.6273" lon="-1.01758">
        <ele>58</ele>
        <time>2021-03-25T03:43:50Z</time>
      </trkpt>
      <trkpt lat="47.6272" lon="-1.01744">
        <ele>58</ele>
        <time>2021-03-25T03:43:53Z</time>
      </trkpt>
      <trkpt lat="47.62706" lon="-1.01726">
        <ele>58</ele>
        <time>2021-03-25T03:43:56Z</time>
      </trkpt>
      <trkpt lat="47.62693" lon="-1.01709">
        <ele>58</ele>
        <time>2021-03-25T03:43:59Z</time>
      </trkpt>
      <trkpt lat="47.62679" lon="-1.0169">
        <ele>58</ele>
        <time>2021-03-25T03:44:02Z</time>
      </trkpt>
      <trkpt lat="47.62668" lon="-1.01675">
        <ele>58</ele>
        <time>2021-03-25T03:44:05Z</time>
      </trkpt>
      <trkpt lat="47.62656" lon="-1.0166">
        <ele>57</ele>
        <time>2021-03-25T03:44:08Z</time>
      </trkpt>
      <trkpt lat="47.62652" lon="-1.01654">
        <ele>57</ele>
        <time>2021-03-25T03:44:09Z</time>
      </trkpt>
      <trkpt lat="47.62647" lon="-1.01647">
        <ele>57</ele>
        <time>2021-03-25T03:44:10Z</time>
      </trkpt>
      <trkpt lat="47.62641" lon="-1.01639">
        <ele>57</ele>
        <time>2021-03-25T03:44:12Z</time>
      </trkpt>
      <trkpt lat="47.62628" lon="-1.01622">
        <ele>57</ele>
        <time>2021-03-25T03:44:15Z</time>
      </trkpt>
      <trkpt lat="47.62599" lon="-1.01584">
        <ele>57</ele>
        <time>2021-03-25T03:44:22Z</time>
      </trkpt>
      <trkpt lat="47.62579" lon="-1.01556">
        <ele>57</ele>
        <time>2021-03-25T03:44:26Z</time>
      </trkpt>
      <trkpt lat="47.62568" lon="-1.01542">
        <ele>56</ele>
        <time>2021-03-25T03:44:29Z</time>
      </trkpt>
      <trkpt lat="47.62554" lon="-1.01524">
        <ele>55</ele>
        <time>2021-03-25T03:44:32Z</time>
      </trkpt>
      <trkpt lat="47.62542" lon="-1.01507">
        <ele>55</ele>
        <time>2021-03-25T03:44:35Z</time>
      </trkpt>
      <trkpt lat="47.62511" lon="-1.01466">
        <ele>54</ele>
        <time>2021-03-25T03:44:43Z</time>
      </trkpt>
      <trkpt lat="47.62496" lon="-1.01446">
        <ele>54</ele>
        <time>2021-03-25T03:44:46Z</time>
      </trkpt>
      <trkpt lat="47.62475" lon="-1.01419">
        <ele>53</ele>
        <time>2021-03-25T03:44:51Z</time>
      </trkpt>
      <trkpt lat="47.62462" lon="-1.01399">
        <ele>53</ele>
        <time>2021-03-25T03:44:55Z</time>
      </trkpt>
      <trkpt lat="47.62451" lon="-1.01381">
        <ele>53</ele>
        <time>2021-03-25T03:44:57Z</time>
      </trkpt>
      <trkpt lat="47.62441" lon="-1.01362">
        <ele>52</ele>
        <time>2021-03-25T03:45:00Z</time>
      </trkpt>
      <trkpt lat="47.62431" lon="-1.01341">
        <ele>52</ele>
        <time>2021-03-25T03:45:03Z</time>
      </trkpt>
      <trkpt lat="47.62425" lon="-1.01323">
        <ele>52</ele>
        <time>2021-03-25T03:45:06Z</time>
      </trkpt>
      <trkpt lat="47.62412" lon="-1.01291">
        <ele>52</ele>
        <time>2021-03-25T03:45:10Z</time>
      </trkpt>
      <trkpt lat="47.62401" lon="-1.01261">
        <ele>51</ele>
        <time>2021-03-25T03:45:14Z</time>
      </trkpt>
      <trkpt lat="47.62391" lon="-1.01234">
        <ele>50</ele>
        <time>2021-03-25T03:45:18Z</time>
      </trkpt>
      <trkpt lat="47.6238" lon="-1.01206">
        <ele>50</ele>
        <time>2021-03-25T03:45:22Z</time>
      </trkpt>
      <trkpt lat="47.62369" lon="-1.01175">
        <ele>49</ele>
        <time>2021-03-25T03:45:26Z</time>
      </trkpt>
      <trkpt lat="47.62354" lon="-1.01137">
        <ele>49</ele>
        <time>2021-03-25T03:45:31Z</time>
      </trkpt>
      <trkpt lat="47.62341" lon="-1.01104">
        <ele>49</ele>
        <time>2021-03-25T03:45:36Z</time>
      </trkpt>
      <trkpt lat="47.62331" lon="-1.01078">
        <ele>49</ele>
        <time>2021-03-25T03:45:40Z</time>
      </trkpt>
      <trkpt lat="47.62321" lon="-1.01053">
        <ele>49</ele>
        <time>2021-03-25T03:45:43Z</time>
      </trkpt>
      <trkpt lat="47.62313" lon="-1.01033">
        <ele>48</ele>
        <time>2021-03-25T03:45:46Z</time>
      </trkpt>
      <trkpt lat="47.62303" lon="-1.01004">
        <ele>48</ele>
        <time>2021-03-25T03:45:50Z</time>
      </trkpt>
      <trkpt lat="47.62293" lon="-1.00975">
        <ele>48</ele>
        <time>2021-03-25T03:45:54Z</time>
      </trkpt>
      <trkpt lat="47.62284" lon="-1.00954">
        <ele>48</ele>
        <time>2021-03-25T03:45:57Z</time>
      </trkpt>
      <trkpt lat="47.62276" lon="-1.00932">
        <ele>48</ele>
        <time>2021-03-25T03:46:00Z</time>
      </trkpt>
      <trkpt lat="47.62268" lon="-1.00909">
        <ele>47</ele>
        <time>2021-03-25T03:46:03Z</time>
      </trkpt>
      <trkpt lat="47.62256" lon="-1.00879">
        <ele>46</ele>
        <time>2021-03-25T03:46:07Z</time>
      </trkpt>
      <trkpt lat="47.62248" lon="-1.00856">
        <ele>46</ele>
        <time>2021-03-25T03:46:10Z</time>
      </trkpt>
      <trkpt lat="47.62242" lon="-1.00839">
        <ele>46</ele>
        <time>2021-03-25T03:46:12Z</time>
      </trkpt>
      <trkpt lat="47.62236" lon="-1.00825">
        <ele>45</ele>
        <time>2021-03-25T03:46:14Z</time>
      </trkpt>
      <trkpt lat="47.62231" lon="-1.0081">
        <ele>45</ele>
        <time>2021-03-25T03:46:16Z</time>
      </trkpt>
      <trkpt lat="47.62226" lon="-1.00797">
        <ele>45</ele>
        <time>2021-03-25T03:46:18Z</time>
      </trkpt>
      <trkpt lat="47.62221" lon="-1.00784">
        <ele>45</ele>
        <time>2021-03-25T03:46:20Z</time>
      </trkpt>
      <trkpt lat="47.6221" lon="-1.00754">
        <ele>45</ele>
        <time>2021-03-25T03:46:24Z</time>
      </trkpt>
      <trkpt lat="47.62202" lon="-1.00733">
        <ele>45</ele>
        <time>2021-03-25T03:46:27Z</time>
      </trkpt>
      <trkpt lat="47.62192" lon="-1.00705">
        <ele>45</ele>
        <time>2021-03-25T03:46:31Z</time>
      </trkpt>
      <trkpt lat="47.62183" lon="-1.00681">
        <ele>45</ele>
        <time>2021-03-25T03:46:34Z</time>
      </trkpt>
      <trkpt lat="47.62177" lon="-1.00666">
        <ele>45</ele>
        <time>2021-03-25T03:46:36Z</time>
      </trkpt>
      <trkpt lat="47.62171" lon="-1.00649">
        <ele>46</ele>
        <time>2021-03-25T03:46:38Z</time>
      </trkpt>
      <trkpt lat="47.62163" lon="-1.00626">
        <ele>47</ele>
        <time>2021-03-25T03:46:42Z</time>
      </trkpt>
      <trkpt lat="47.62155" lon="-1.00605">
        <ele>47</ele>
        <time>2021-03-25T03:46:44Z</time>
      </trkpt>
      <trkpt lat="47.62148" lon="-1.00587">
        <ele>48</ele>
        <time>2021-03-25T03:46:47Z</time>
      </trkpt>
      <trkpt lat="47.62142" lon="-1.0057">
        <ele>48</ele>
        <time>2021-03-25T03:46:49Z</time>
      </trkpt>
      <trkpt lat="47.62134" lon="-1.00549">
        <ele>49</ele>
        <time>2021-03-25T03:46:52Z</time>
      </trkpt>
      <trkpt lat="47.62128" lon="-1.00532">
        <ele>49</ele>
        <time>2021-03-25T03:46:54Z</time>
      </trkpt>
      <trkpt lat="47.62121" lon="-1.00516">
        <ele>49</ele>
        <time>2021-03-25T03:46:57Z</time>
      </trkpt>
      <trkpt lat="47.62116" lon="-1.005">
        <ele>50</ele>
        <time>2021-03-25T03:46:59Z</time>
      </trkpt>
      <trkpt lat="47.62111" lon="-1.00485">
        <ele>49</ele>
        <time>2021-03-25T03:47:01Z</time>
      </trkpt>
      <trkpt lat="47.62105" lon="-1.00471">
        <ele>49</ele>
        <time>2021-03-25T03:47:03Z</time>
      </trkpt>
      <trkpt lat="47.621" lon="-1.00457">
        <ele>49</ele>
        <time>2021-03-25T03:47:05Z</time>
      </trkpt>
      <trkpt lat="47.62091" lon="-1.00433">
        <ele>48</ele>
        <time>2021-03-25T03:47:08Z</time>
      </trkpt>
      <trkpt lat="47.62086" lon="-1.00418">
        <ele>48</ele>
        <time>2021-03-25T03:47:10Z</time>
      </trkpt>
      <trkpt lat="47.62077" lon="-1.00397">
        <ele>48</ele>
        <time>2021-03-25T03:47:13Z</time>
      </trkpt>
      <trkpt lat="47.62072" lon="-1.00384">
        <ele>48</ele>
        <time>2021-03-25T03:47:15Z</time>
      </trkpt>
      <trkpt lat="47.62066" lon="-1.00372">
        <ele>47</ele>
        <time>2021-03-25T03:47:17Z</time>
      </trkpt>
      <trkpt lat="47.62059" lon="-1.0036">
        <ele>47</ele>
        <time>2021-03-25T03:47:19Z</time>
      </trkpt>
      <trkpt lat="47.6205" lon="-1.00343">
        <ele>47</ele>
        <time>2021-03-25T03:47:21Z</time>
      </trkpt>
      <trkpt lat="47.62042" lon="-1.0033">
        <ele>46</ele>
        <time>2021-03-25T03:47:23Z</time>
      </trkpt>
      <trkpt lat="47.6203" lon="-1.00312">
        <ele>46</ele>
        <time>2021-03-25T03:47:26Z</time>
      </trkpt>
      <trkpt lat="47.62017" lon="-1.00291">
        <ele>45</ele>
        <time>2021-03-25T03:47:30Z</time>
      </trkpt>
      <trkpt lat="47.62001" lon="-1.00267">
        <ele>44</ele>
        <time>2021-03-25T03:47:34Z</time>
      </trkpt>
      <trkpt lat="47.61983" lon="-1.00238">
        <ele>44</ele>
        <time>2021-03-25T03:47:38Z</time>
      </trkpt>
      <trkpt lat="47.6198" lon="-1.00233">
        <ele>44</ele>
        <time>2021-03-25T03:47:39Z</time>
      </trkpt>
      <trkpt lat="47.61977" lon="-1.00228">
        <ele>44</ele>
        <time>2021-03-25T03:47:40Z</time>
      </trkpt>
      <trkpt lat="47.61949" lon="-1.00181">
        <ele>45</ele>
        <time>2021-03-25T03:47:48Z</time>
      </trkpt>
      <trkpt lat="47.61935" lon="-1.00158">
        <ele>45</ele>
        <time>2021-03-25T03:47:51Z</time>
      </trkpt>
      <trkpt lat="47.61925" lon="-1.00141">
        <ele>45</ele>
        <time>2021-03-25T03:47:54Z</time>
      </trkpt>
      <trkpt lat="47.61911" lon="-1.0012">
        <ele>45</ele>
        <time>2021-03-25T03:47:58Z</time>
      </trkpt>
      <trkpt lat="47.61896" lon="-1.00095">
        <ele>44</ele>
        <time>2021-03-25T03:48:02Z</time>
      </trkpt>
      <trkpt lat="47.61879" lon="-1.00067">
        <ele>44</ele>
        <time>2021-03-25T03:48:06Z</time>
      </trkpt>
      <trkpt lat="47.61866" lon="-1.00047">
        <ele>43</ele>
        <time>2021-03-25T03:48:09Z</time>
      </trkpt>
      <trkpt lat="47.61851" lon="-1.00021">
        <ele>43</ele>
        <time>2021-03-25T03:48:14Z</time>
      </trkpt>
      <trkpt lat="47.61833" lon="-0.99993">
        <ele>42</ele>
        <time>2021-03-25T03:48:18Z</time>
      </trkpt>
      <trkpt lat="47.61817" lon="-0.99967">
        <ele>42</ele>
        <time>2021-03-25T03:48:22Z</time>
      </trkpt>
      <trkpt lat="47.61802" lon="-0.99943">
        <ele>42</ele>
        <time>2021-03-25T03:48:26Z</time>
      </trkpt>
      <trkpt lat="47.61786" lon="-0.99917">
        <ele>42</ele>
        <time>2021-03-25T03:48:31Z</time>
      </trkpt>
      <trkpt lat="47.61775" lon="-0.99899">
        <ele>42</ele>
        <time>2021-03-25T03:48:33Z</time>
      </trkpt>
      <trkpt lat="47.61768" lon="-0.9989">
        <ele>43</ele>
        <time>2021-03-25T03:48:35Z</time>
      </trkpt>
      <trkpt lat="47.61766" lon="-0.99886">
        <ele>43</ele>
        <time>2021-03-25T03:48:36Z</time>
      </trkpt>
      <trkpt lat="47.61758" lon="-0.99874">
        <ele>43</ele>
        <time>2021-03-25T03:48:38Z</time>
      </trkpt>
      <trkpt lat="47.61751" lon="-0.99865">
        <ele>43</ele>
        <time>2021-03-25T03:48:39Z</time>
      </trkpt>
      <trkpt lat="47.61743" lon="-0.99853">
        <ele>44</ele>
        <time>2021-03-25T03:48:41Z</time>
      </trkpt>
      <trkpt lat="47.61728" lon="-0.99833">
        <ele>45</ele>
        <time>2021-03-25T03:48:45Z</time>
      </trkpt>
      <trkpt lat="47.6171" lon="-0.99809">
        <ele>46</ele>
        <time>2021-03-25T03:48:49Z</time>
      </trkpt>
      <trkpt lat="47.61697" lon="-0.99791">
        <ele>46</ele>
        <time>2021-03-25T03:48:52Z</time>
      </trkpt>
      <trkpt lat="47.61686" lon="-0.99775">
        <ele>47</ele>
        <time>2021-03-25T03:48:55Z</time>
      </trkpt>
      <trkpt lat="47.6168" lon="-0.99765">
        <ele>47</ele>
        <time>2021-03-25T03:48:57Z</time>
      </trkpt>
      <trkpt lat="47.61671" lon="-0.99751">
        <ele>47</ele>
        <time>2021-03-25T03:48:59Z</time>
      </trkpt>
      <trkpt lat="47.61665" lon="-0.9974">
        <ele>47</ele>
        <time>2021-03-25T03:49:01Z</time>
      </trkpt>
      <trkpt lat="47.61654" lon="-0.99723">
        <ele>48</ele>
        <time>2021-03-25T03:49:04Z</time>
      </trkpt>
      <trkpt lat="47.6164" lon="-0.99697">
        <ele>50</ele>
        <time>2021-03-25T03:49:08Z</time>
      </trkpt>
      <trkpt lat="47.61628" lon="-0.99673">
        <ele>51</ele>
        <time>2021-03-25T03:49:11Z</time>
      </trkpt>
      <trkpt lat="47.61621" lon="-0.9966">
        <ele>51</ele>
        <time>2021-03-25T03:49:13Z</time>
      </trkpt>
      <trkpt lat="47.61614" lon="-0.99645">
        <ele>52</ele>
        <time>2021-03-25T03:49:15Z</time>
      </trkpt>
      <trkpt lat="47.61604" lon="-0.99627">
        <ele>52</ele>
        <time>2021-03-25T03:49:18Z</time>
      </trkpt>
      <trkpt lat="47.61601" lon="-0.99621">
        <ele>53</ele>
        <time>2021-03-25T03:49:19Z</time>
      </trkpt>
      <trkpt lat="47.61593" lon="-0.99605">
        <ele>53</ele>
        <time>2021-03-25T03:49:21Z</time>
      </trkpt>
      <trkpt lat="47.61583" lon="-0.99584">
        <ele>54</ele>
        <time>2021-03-25T03:49:25Z</time>
      </trkpt>
      <trkpt lat="47.61574" lon="-0.99565">
        <ele>54</ele>
        <time>2021-03-25T03:49:27Z</time>
      </trkpt>
      <trkpt lat="47.61572" lon="-0.9956">
        <ele>54</ele>
        <time>2021-03-25T03:49:28Z</time>
      </trkpt>
      <trkpt lat="47.61562" lon="-0.99538">
        <ele>54</ele>
        <time>2021-03-25T03:49:31Z</time>
      </trkpt>
      <trkpt lat="47.61553" lon="-0.99519">
        <ele>55</ele>
        <time>2021-03-25T03:49:34Z</time>
      </trkpt>
      <trkpt lat="47.61542" lon="-0.99497">
        <ele>55</ele>
        <time>2021-03-25T03:49:37Z</time>
      </trkpt>
      <trkpt lat="47.61531" lon="-0.99474">
        <ele>55</ele>
        <time>2021-03-25T03:49:41Z</time>
      </trkpt>
      <trkpt lat="47.61521" lon="-0.99453">
        <ele>55</ele>
        <time>2021-03-25T03:49:44Z</time>
      </trkpt>
      <trkpt lat="47.61513" lon="-0.99436">
        <ele>55</ele>
        <time>2021-03-25T03:49:46Z</time>
      </trkpt>
      <trkpt lat="47.61502" lon="-0.99409">
        <ele>55</ele>
        <time>2021-03-25T03:49:50Z</time>
      </trkpt>
      <trkpt lat="47.61494" lon="-0.99393">
        <ele>55</ele>
        <time>2021-03-25T03:49:52Z</time>
      </trkpt>
      <trkpt lat="47.61491" lon="-0.99387">
        <ele>55</ele>
        <time>2021-03-25T03:49:53Z</time>
      </trkpt>
      <trkpt lat="47.61481" lon="-0.99363">
        <ele>54</ele>
        <time>2021-03-25T03:49:57Z</time>
      </trkpt>
      <trkpt lat="47.61475" lon="-0.99347">
        <ele>54</ele>
        <time>2021-03-25T03:49:59Z</time>
      </trkpt>
      <trkpt lat="47.6147" lon="-0.99336">
        <ele>54</ele>
        <time>2021-03-25T03:50:00Z</time>
      </trkpt>
      <trkpt lat="47.61465" lon="-0.99321">
        <ele>53</ele>
        <time>2021-03-25T03:50:02Z</time>
      </trkpt>
      <trkpt lat="47.61457" lon="-0.993">
        <ele>53</ele>
        <time>2021-03-25T03:50:05Z</time>
      </trkpt>
      <trkpt lat="47.61448" lon="-0.9927">
        <ele>52</ele>
        <time>2021-03-25T03:50:09Z</time>
      </trkpt>
      <trkpt lat="47.61442" lon="-0.99254">
        <ele>51</ele>
        <time>2021-03-25T03:50:12Z</time>
      </trkpt>
      <trkpt lat="47.61439" lon="-0.99242">
        <ele>51</ele>
        <time>2021-03-25T03:50:13Z</time>
      </trkpt>
      <trkpt lat="47.61406" lon="-0.99134">
        <ele>47</ele>
        <time>2021-03-25T03:50:27Z</time>
      </trkpt>
      <trkpt lat="47.61364" lon="-0.98992">
        <ele>45</ele>
        <time>2021-03-25T03:50:46Z</time>
      </trkpt>
      <trkpt lat="47.61336" lon="-0.98887">
        <ele>44</ele>
        <time>2021-03-25T03:50:59Z</time>
      </trkpt>
      <trkpt lat="47.61333" lon="-0.98875">
        <ele>44</ele>
        <time>2021-03-25T03:51:01Z</time>
      </trkpt>
      <trkpt lat="47.61333" lon="-0.98874">
        <ele>44</ele>
        <time>2021-03-25T03:51:01Z</time>
      </trkpt>
      <trkpt lat="47.61326" lon="-0.98846">
        <ele>44</ele>
        <time>2021-03-25T03:51:05Z</time>
      </trkpt>
      <trkpt lat="47.61323" lon="-0.98833">
        <ele>44</ele>
        <time>2021-03-25T03:51:06Z</time>
      </trkpt>
      <trkpt lat="47.61321" lon="-0.98824">
        <ele>43</ele>
        <time>2021-03-25T03:51:07Z</time>
      </trkpt>
      <trkpt lat="47.61319" lon="-0.98813">
        <ele>43</ele>
        <time>2021-03-25T03:51:09Z</time>
      </trkpt>
      <trkpt lat="47.61318" lon="-0.98801">
        <ele>43</ele>
        <time>2021-03-25T03:51:10Z</time>
      </trkpt>
      <trkpt lat="47.61318" lon="-0.9879">
        <ele>43</ele>
        <time>2021-03-25T03:51:12Z</time>
      </trkpt>
      <trkpt lat="47.61317" lon="-0.98765">
        <ele>42</ele>
        <time>2021-03-25T03:51:15Z</time>
      </trkpt>
      <trkpt lat="47.61318" lon="-0.98745">
        <ele>42</ele>
        <time>2021-03-25T03:51:17Z</time>
      </trkpt>
      <trkpt lat="47.61319" lon="-0.98724">
        <ele>41</ele>
        <time>2021-03-25T03:51:20Z</time>
      </trkpt>
      <trkpt lat="47.6132" lon="-0.98706">
        <ele>41</ele>
        <time>2021-03-25T03:51:22Z</time>
      </trkpt>
      <trkpt lat="47.61322" lon="-0.98688">
        <ele>40</ele>
        <time>2021-03-25T03:51:24Z</time>
      </trkpt>
      <trkpt lat="47.61326" lon="-0.98671">
        <ele>40</ele>
        <time>2021-03-25T03:51:26Z</time>
      </trkpt>
      <trkpt lat="47.6133" lon="-0.98654">
        <ele>40</ele>
        <time>2021-03-25T03:51:28Z</time>
      </trkpt>
      <trkpt lat="47.61331" lon="-0.98649">
        <ele>40</ele>
        <time>2021-03-25T03:51:29Z</time>
      </trkpt>
      <trkpt lat="47.61332" lon="-0.98643">
        <ele>40</ele>
        <time>2021-03-25T03:51:30Z</time>
      </trkpt>
      <trkpt lat="47.61335" lon="-0.98635">
        <ele>40</ele>
        <time>2021-03-25T03:51:31Z</time>
      </trkpt>
      <trkpt lat="47.6134" lon="-0.98623">
        <ele>41</ele>
        <time>2021-03-25T03:51:32Z</time>
      </trkpt>
      <trkpt lat="47.61345" lon="-0.9861">
        <ele>41</ele>
        <time>2021-03-25T03:51:34Z</time>
      </trkpt>
      <trkpt lat="47.61349" lon="-0.98601">
        <ele>41</ele>
        <time>2021-03-25T03:51:35Z</time>
      </trkpt>
      <trkpt lat="47.61351" lon="-0.98595">
        <ele>41</ele>
        <time>2021-03-25T03:51:36Z</time>
      </trkpt>
      <trkpt lat="47.61352" lon="-0.98591">
        <ele>41</ele>
        <time>2021-03-25T03:51:37Z</time>
      </trkpt>
      <trkpt lat="47.61352" lon="-0.98588">
        <ele>41</ele>
        <time>2021-03-25T03:51:37Z</time>
      </trkpt>
      <trkpt lat="47.61353" lon="-0.98586">
        <ele>41</ele>
        <time>2021-03-25T03:51:37Z</time>
      </trkpt>
      <trkpt lat="47.61354" lon="-0.98583">
        <ele>42</ele>
        <time>2021-03-25T03:51:38Z</time>
      </trkpt>
      <trkpt lat="47.61354" lon="-0.98583">
        <ele>42</ele>
        <time>2021-03-25T03:51:38Z</time>
      </trkpt>
      <trkpt lat="47.61353" lon="-0.98582">
        <ele>42</ele>
        <time>2021-03-25T03:51:38Z</time>
      </trkpt>
      <trkpt lat="47.61353" lon="-0.98581">
        <ele>42</ele>
        <time>2021-03-25T03:51:38Z</time>
      </trkpt>
      <trkpt lat="47.61352" lon="-0.9858">
        <ele>42</ele>
        <time>2021-03-25T03:51:38Z</time>
      </trkpt>
      <trkpt lat="47.61352" lon="-0.98579">
        <ele>42</ele>
        <time>2021-03-25T03:51:38Z</time>
      </trkpt>
      <trkpt lat="47.61352" lon="-0.98578">
        <ele>42</ele>
        <time>2021-03-25T03:51:39Z</time>
      </trkpt>
      <trkpt lat="47.61351" lon="-0.98577">
        <ele>42</ele>
        <time>2021-03-25T03:51:39Z</time>
      </trkpt>
      <trkpt lat="47.61351" lon="-0.98576">
        <ele>42</ele>
        <time>2021-03-25T03:51:39Z</time>
      </trkpt>
      <trkpt lat="47.6135" lon="-0.98575">
        <ele>42</ele>
        <time>2021-03-25T03:51:39Z</time>
      </trkpt>
      <trkpt lat="47.6135" lon="-0.98573">
        <ele>42</ele>
        <time>2021-03-25T03:51:39Z</time>
      </trkpt>
      <trkpt lat="47.6135" lon="-0.98571">
        <ele>42</ele>
        <time>2021-03-25T03:51:40Z</time>
      </trkpt>
      <trkpt lat="47.6135" lon="-0.9857">
        <ele>42</ele>
        <time>2021-03-25T03:51:40Z</time>
      </trkpt>
      <trkpt lat="47.61349" lon="-0.98568">
        <ele>42</ele>
        <time>2021-03-25T03:51:40Z</time>
      </trkpt>
      <trkpt lat="47.61349" lon="-0.98566">
        <ele>42</ele>
        <time>2021-03-25T03:51:40Z</time>
      </trkpt>
      <trkpt lat="47.6135" lon="-0.98564">
        <ele>42</ele>
        <time>2021-03-25T03:51:41Z</time>
      </trkpt>
      <trkpt lat="47.6135" lon="-0.98563">
        <ele>42</ele>
        <time>2021-03-25T03:51:41Z</time>
      </trkpt>
      <trkpt lat="47.6135" lon="-0.98561">
        <ele>42</ele>
        <time>2021-03-25T03:51:41Z</time>
      </trkpt>
      <trkpt lat="47.6135" lon="-0.98559">
        <ele>42</ele>
        <time>2021-03-25T03:51:41Z</time>
      </trkpt>
      <trkpt lat="47.61351" lon="-0.98558">
        <ele>42</ele>
        <time>2021-03-25T03:51:41Z</time>
      </trkpt>
      <trkpt lat="47.61351" lon="-0.98556">
        <ele>42</ele>
        <time>2021-03-25T03:51:42Z</time>
      </trkpt>
      <trkpt lat="47.61352" lon="-0.98555">
        <ele>42</ele>
        <time>2021-03-25T03:51:42Z</time>
      </trkpt>
      <trkpt lat="47.61352" lon="-0.98553">
        <ele>42</ele>
        <time>2021-03-25T03:51:42Z</time>
      </trkpt>
      <trkpt lat="47.61353" lon="-0.98552">
        <ele>42</ele>
        <time>2021-03-25T03:51:42Z</time>
      </trkpt>
      <trkpt lat="47.61354" lon="-0.9855">
        <ele>42</ele>
        <time>2021-03-25T03:51:43Z</time>
      </trkpt>
      <trkpt lat="47.61355" lon="-0.98549">
        <ele>42</ele>
        <time>2021-03-25T03:51:43Z</time>
      </trkpt>
      <trkpt lat="47.61356" lon="-0.98548">
        <ele>42</ele>
        <time>2021-03-25T03:51:43Z</time>
      </trkpt>
      <trkpt lat="47.61357" lon="-0.98547">
        <ele>42</ele>
        <time>2021-03-25T03:51:43Z</time>
      </trkpt>
      <trkpt lat="47.61358" lon="-0.98546">
        <ele>42</ele>
        <time>2021-03-25T03:51:43Z</time>
      </trkpt>
      <trkpt lat="47.61359" lon="-0.98545">
        <ele>42</ele>
        <time>2021-03-25T03:51:44Z</time>
      </trkpt>
      <trkpt lat="47.6136" lon="-0.98544">
        <ele>42</ele>
        <time>2021-03-25T03:51:44Z</time>
      </trkpt>
      <trkpt lat="47.61361" lon="-0.98543">
        <ele>42</ele>
        <time>2021-03-25T03:51:44Z</time>
      </trkpt>
      <trkpt lat="47.61363" lon="-0.98543">
        <ele>43</ele>
        <time>2021-03-25T03:51:44Z</time>
      </trkpt>
      <trkpt lat="47.61365" lon="-0.98527">
        <ele>43</ele>
        <time>2021-03-25T03:51:46Z</time>
      </trkpt>
      <trkpt lat="47.61367" lon="-0.98515">
        <ele>43</ele>
        <time>2021-03-25T03:51:48Z</time>
      </trkpt>
      <trkpt lat="47.6137" lon="-0.98508">
        <ele>43</ele>
        <time>2021-03-25T03:51:49Z</time>
      </trkpt>
      <trkpt lat="47.61378" lon="-0.98491">
        <ele>44</ele>
        <time>2021-03-25T03:51:51Z</time>
      </trkpt>
      <trkpt lat="47.61382" lon="-0.98483">
        <ele>44</ele>
        <time>2021-03-25T03:51:53Z</time>
      </trkpt>
      <trkpt lat="47.61386" lon="-0.98475">
        <ele>44</ele>
        <time>2021-03-25T03:51:54Z</time>
      </trkpt>
      <trkpt lat="47.61392" lon="-0.98465">
        <ele>44</ele>
        <time>2021-03-25T03:51:55Z</time>
      </trkpt>
      <trkpt lat="47.61396" lon="-0.98457">
        <ele>43</ele>
        <time>2021-03-25T03:51:57Z</time>
      </trkpt>
      <trkpt lat="47.61403" lon="-0.98443">
        <ele>43</ele>
        <time>2021-03-25T03:51:59Z</time>
      </trkpt>
      <trkpt lat="47.6141" lon="-0.98428">
        <ele>43</ele>
        <time>2021-03-25T03:52:01Z</time>
      </trkpt>
      <trkpt lat="47.61411" lon="-0.98424">
        <ele>43</ele>
        <time>2021-03-25T03:52:01Z</time>
      </trkpt>
      <trkpt lat="47.61416" lon="-0.98412">
        <ele>43</ele>
        <time>2021-03-25T03:52:03Z</time>
      </trkpt>
      <trkpt lat="47.61418" lon="-0.98407">
        <ele>43</ele>
        <time>2021-03-25T03:52:04Z</time>
      </trkpt>
      <trkpt lat="47.61419" lon="-0.98403">
        <ele>43</ele>
        <time>2021-03-25T03:52:04Z</time>
      </trkpt>
      <trkpt lat="47.61423" lon="-0.9839">
        <ele>43</ele>
        <time>2021-03-25T03:52:06Z</time>
      </trkpt>
      <trkpt lat="47.61425" lon="-0.9838">
        <ele>43</ele>
        <time>2021-03-25T03:52:07Z</time>
      </trkpt>
      <trkpt lat="47.61427" lon="-0.9837">
        <ele>42</ele>
        <time>2021-03-25T03:52:08Z</time>
      </trkpt>
      <trkpt lat="47.61428" lon="-0.98362">
        <ele>42</ele>
        <time>2021-03-25T03:52:09Z</time>
      </trkpt>
      <trkpt lat="47.61429" lon="-0.98355">
        <ele>42</ele>
        <time>2021-03-25T03:52:10Z</time>
      </trkpt>
      <trkpt lat="47.6143" lon="-0.98346">
        <ele>42</ele>
        <time>2021-03-25T03:52:11Z</time>
      </trkpt>
      <trkpt lat="47.61431" lon="-0.98338">
        <ele>42</ele>
        <time>2021-03-25T03:52:12Z</time>
      </trkpt>
      <trkpt lat="47.61432" lon="-0.98325">
        <ele>42</ele>
        <time>2021-03-25T03:52:14Z</time>
      </trkpt>
      <trkpt lat="47.61433" lon="-0.98316">
        <ele>43</ele>
        <time>2021-03-25T03:52:15Z</time>
      </trkpt>
      <trkpt lat="47.61434" lon="-0.983">
        <ele>43</ele>
        <time>2021-03-25T03:52:17Z</time>
      </trkpt>
      <trkpt lat="47.61434" lon="-0.98284">
        <ele>43</ele>
        <time>2021-03-25T03:52:19Z</time>
      </trkpt>
      <trkpt lat="47.61436" lon="-0.98259">
        <ele>44</ele>
        <time>2021-03-25T03:52:22Z</time>
      </trkpt>
      <trkpt lat="47.61436" lon="-0.98251">
        <ele>44</ele>
        <time>2021-03-25T03:52:23Z</time>
      </trkpt>
      <trkpt lat="47.61437" lon="-0.98235">
        <ele>44</ele>
        <time>2021-03-25T03:52:25Z</time>
      </trkpt>
      <trkpt lat="47.61439" lon="-0.98198">
        <ele>45</ele>
        <time>2021-03-25T03:52:29Z</time>
      </trkpt>
      <trkpt lat="47.61442" lon="-0.98126">
        <ele>44</ele>
        <time>2021-03-25T03:52:38Z</time>
      </trkpt>
      <trkpt lat="47.61442" lon="-0.98126">
        <ele>44</ele>
        <time>2021-03-25T03:52:38Z</time>
      </trkpt>
      <trkpt lat="47.61431" lon="-0.98069">
        <ele>44</ele>
        <time>2021-03-25T03:52:45Z</time>
      </trkpt>
      <trkpt lat="47.61431" lon="-0.98069">
        <ele>44</ele>
        <time>2021-03-25T03:52:45Z</time>
      </trkpt>
      <trkpt lat="47.61394" lon="-0.98053">
        <ele>44</ele>
        <time>2021-03-25T03:52:52Z</time>
      </trkpt>
      <trkpt lat="47.61369" lon="-0.98043">
        <ele>44</ele>
        <time>2021-03-25T03:52:56Z</time>
      </trkpt>
      <trkpt lat="47.61367" lon="-0.98042">
        <ele>44</ele>
        <time>2021-03-25T03:52:57Z</time>
      </trkpt>
      <trkpt lat="47.61355" lon="-0.98037">
        <ele>43</ele>
        <time>2021-03-25T03:52:59Z</time>
      </trkpt>
      <trkpt lat="47.61351" lon="-0.98035">
        <ele>43</ele>
        <time>2021-03-25T03:53:00Z</time>
      </trkpt>
      <trkpt lat="47.61309" lon="-0.98016">
        <ele>45</ele>
        <time>2021-03-25T03:53:08Z</time>
      </trkpt>
      <trkpt lat="47.61284" lon="-0.98006">
        <ele>46</ele>
        <time>2021-03-25T03:53:12Z</time>
      </trkpt>
      <trkpt lat="47.61243" lon="-0.97987">
        <ele>47</ele>
        <time>2021-03-25T03:53:20Z</time>
      </trkpt>
      <trkpt lat="47.61241" lon="-0.97987">
        <ele>47</ele>
        <time>2021-03-25T03:53:20Z</time>
      </trkpt>
      <trkpt lat="47.61235" lon="-0.97984">
        <ele>47</ele>
        <time>2021-03-25T03:53:21Z</time>
      </trkpt>
      <trkpt lat="47.61231" lon="-0.97982">
        <ele>47</ele>
        <time>2021-03-25T03:53:22Z</time>
      </trkpt>
      <trkpt lat="47.61199" lon="-0.97966">
        <ele>47</ele>
        <time>2021-03-25T03:53:28Z</time>
      </trkpt>
      <trkpt lat="47.61182" lon="-0.97958">
        <ele>47</ele>
        <time>2021-03-25T03:53:31Z</time>
      </trkpt>
      <trkpt lat="47.61174" lon="-0.97953">
        <ele>47</ele>
        <time>2021-03-25T03:53:33Z</time>
      </trkpt>
      <trkpt lat="47.61071" lon="-0.97903">
        <ele>45</ele>
        <time>2021-03-25T03:53:52Z</time>
      </trkpt>
      <trkpt lat="47.6104" lon="-0.97888">
        <ele>45</ele>
        <time>2021-03-25T03:53:58Z</time>
      </trkpt>
      <trkpt lat="47.6101" lon="-0.9787">
        <ele>45</ele>
        <time>2021-03-25T03:54:04Z</time>
      </trkpt>
      <trkpt lat="47.61001" lon="-0.97865">
        <ele>45</ele>
        <time>2021-03-25T03:54:05Z</time>
      </trkpt>
      <trkpt lat="47.60978" lon="-0.97851">
        <ele>45</ele>
        <time>2021-03-25T03:54:10Z</time>
      </trkpt>
      <trkpt lat="47.60936" lon="-0.97823">
        <ele>45</ele>
        <time>2021-03-25T03:54:18Z</time>
      </trkpt>
      <trkpt lat="47.60926" lon="-0.97814">
        <ele>45</ele>
        <time>2021-03-25T03:54:20Z</time>
      </trkpt>
      <trkpt lat="47.60918" lon="-0.97809">
        <ele>45</ele>
        <time>2021-03-25T03:54:22Z</time>
      </trkpt>
      <trkpt lat="47.6083" lon="-0.97732">
        <ele>44</ele>
        <time>2021-03-25T03:54:40Z</time>
      </trkpt>
      <trkpt lat="47.60818" lon="-0.9772">
        <ele>45</ele>
        <time>2021-03-25T03:54:42Z</time>
      </trkpt>
      <trkpt lat="47.60791" lon="-0.97704">
        <ele>45</ele>
        <time>2021-03-25T03:54:48Z</time>
      </trkpt>
      <trkpt lat="47.60699" lon="-0.97681">
        <ele>49</ele>
        <time>2021-03-25T03:55:04Z</time>
      </trkpt>
      <trkpt lat="47.60593" lon="-0.97656">
        <ele>55</ele>
        <time>2021-03-25T03:55:23Z</time>
      </trkpt>
      <trkpt lat="47.60517" lon="-0.97639">
        <ele>60</ele>
        <time>2021-03-25T03:55:37Z</time>
      </trkpt>
      <trkpt lat="47.60505" lon="-0.97637">
        <ele>61</ele>
        <time>2021-03-25T03:55:39Z</time>
      </trkpt>
      <trkpt lat="47.60479" lon="-0.97631">
        <ele>65</ele>
        <time>2021-03-25T03:55:44Z</time>
      </trkpt>
      <trkpt lat="47.60463" lon="-0.97627">
        <ele>67</ele>
        <time>2021-03-25T03:55:47Z</time>
      </trkpt>
      <trkpt lat="47.60456" lon="-0.97624">
        <ele>68</ele>
        <time>2021-03-25T03:55:48Z</time>
      </trkpt>
      <trkpt lat="47.6045" lon="-0.97621">
        <ele>69</ele>
        <time>2021-03-25T03:55:49Z</time>
      </trkpt>
      <trkpt lat="47.60446" lon="-0.9762">
        <ele>69</ele>
        <time>2021-03-25T03:55:50Z</time>
      </trkpt>
      <trkpt lat="47.60441" lon="-0.97616">
        <ele>70</ele>
        <time>2021-03-25T03:55:51Z</time>
      </trkpt>
      <trkpt lat="47.60435" lon="-0.97612">
        <ele>70</ele>
        <time>2021-03-25T03:55:52Z</time>
      </trkpt>
      <trkpt lat="47.60427" lon="-0.97604">
        <ele>71</ele>
        <time>2021-03-25T03:55:54Z</time>
      </trkpt>
      <trkpt lat="47.6042" lon="-0.97597">
        <ele>72</ele>
        <time>2021-03-25T03:55:55Z</time>
      </trkpt>
      <trkpt lat="47.60415" lon="-0.97589">
        <ele>72</ele>
        <time>2021-03-25T03:55:57Z</time>
      </trkpt>
      <trkpt lat="47.60412" lon="-0.97584">
        <ele>73</ele>
        <time>2021-03-25T03:55:57Z</time>
      </trkpt>
      <trkpt lat="47.6041" lon="-0.97578">
        <ele>73</ele>
        <time>2021-03-25T03:55:58Z</time>
      </trkpt>
      <trkpt lat="47.60399" lon="-0.97556">
        <ele>74</ele>
        <time>2021-03-25T03:56:01Z</time>
      </trkpt>
      <trkpt lat="47.60385" lon="-0.97516">
        <ele>76</ele>
        <time>2021-03-25T03:56:07Z</time>
      </trkpt>
      <trkpt lat="47.60374" lon="-0.97483">
        <ele>77</ele>
        <time>2021-03-25T03:56:11Z</time>
      </trkpt>
      <trkpt lat="47.6037" lon="-0.97474">
        <ele>77</ele>
        <time>2021-03-25T03:56:13Z</time>
      </trkpt>
      <trkpt lat="47.60368" lon="-0.97468">
        <ele>77</ele>
        <time>2021-03-25T03:56:13Z</time>
      </trkpt>
      <trkpt lat="47.60366" lon="-0.97464">
        <ele>78</ele>
        <time>2021-03-25T03:56:14Z</time>
      </trkpt>
      <trkpt lat="47.60359" lon="-0.97451">
        <ele>79</ele>
        <time>2021-03-25T03:56:16Z</time>
      </trkpt>
      <trkpt lat="47.60356" lon="-0.97445">
        <ele>79</ele>
        <time>2021-03-25T03:56:17Z</time>
      </trkpt>
      <trkpt lat="47.60351" lon="-0.97439">
        <ele>80</ele>
        <time>2021-03-25T03:56:18Z</time>
      </trkpt>
      <trkpt lat="47.60348" lon="-0.97435">
        <ele>80</ele>
        <time>2021-03-25T03:56:19Z</time>
      </trkpt>
      <trkpt lat="47.60318" lon="-0.97398">
        <ele>83</ele>
        <time>2021-03-25T03:56:26Z</time>
      </trkpt>
      <trkpt lat="47.60306" lon="-0.97384">
        <ele>83</ele>
        <time>2021-03-25T03:56:28Z</time>
      </trkpt>
      <trkpt lat="47.60289" lon="-0.97362">
        <ele>83</ele>
        <time>2021-03-25T03:56:32Z</time>
      </trkpt>
      <trkpt lat="47.60281" lon="-0.97351">
        <ele>83</ele>
        <time>2021-03-25T03:56:34Z</time>
      </trkpt>
      <trkpt lat="47.60281" lon="-0.9735">
        <ele>83</ele>
        <time>2021-03-25T03:56:34Z</time>
      </trkpt>
      <trkpt lat="47.60274" lon="-0.97341">
        <ele>83</ele>
        <time>2021-03-25T03:56:36Z</time>
      </trkpt>
      <trkpt lat="47.60272" lon="-0.97337">
        <ele>83</ele>
        <time>2021-03-25T03:56:37Z</time>
      </trkpt>
      <trkpt lat="47.60254" lon="-0.9732">
        <ele>83</ele>
        <time>2021-03-25T03:56:40Z</time>
      </trkpt>
      <trkpt lat="47.60234" lon="-0.97297">
        <ele>82</ele>
        <time>2021-03-25T03:56:45Z</time>
      </trkpt>
      <trkpt lat="47.60209" lon="-0.97279">
        <ele>81</ele>
        <time>2021-03-25T03:56:50Z</time>
      </trkpt>
      <trkpt lat="47.602" lon="-0.97274">
        <ele>81</ele>
        <time>2021-03-25T03:56:52Z</time>
      </trkpt>
      <trkpt lat="47.60185" lon="-0.97269">
        <ele>80</ele>
        <time>2021-03-25T03:56:54Z</time>
      </trkpt>
      <trkpt lat="47.60166" lon="-0.97265">
        <ele>79</ele>
        <time>2021-03-25T03:56:58Z</time>
      </trkpt>
      <trkpt lat="47.6015" lon="-0.97263">
        <ele>78</ele>
        <time>2021-03-25T03:57:01Z</time>
      </trkpt>
      <trkpt lat="47.60061" lon="-0.9725">
        <ele>70</ele>
        <time>2021-03-25T03:57:17Z</time>
      </trkpt>
      <trkpt lat="47.60034" lon="-0.97247">
        <ele>67</ele>
        <time>2021-03-25T03:57:21Z</time>
      </trkpt>
      <trkpt lat="47.59824" lon="-0.97217">
        <ele>53</ele>
        <time>2021-03-25T03:57:59Z</time>
      </trkpt>
      <trkpt lat="47.5978" lon="-0.9721">
        <ele>53</ele>
        <time>2021-03-25T03:58:07Z</time>
      </trkpt>
      <trkpt lat="47.59741" lon="-0.97205">
        <ele>52</ele>
        <time>2021-03-25T03:58:14Z</time>
      </trkpt>
      <trkpt lat="47.59719" lon="-0.97201">
        <ele>52</ele>
        <time>2021-03-25T03:58:18Z</time>
      </trkpt>
      <trkpt lat="47.59676" lon="-0.97195">
        <ele>52</ele>
        <time>2021-03-25T03:58:25Z</time>
      </trkpt>
      <trkpt lat="47.59673" lon="-0.97195">
        <ele>52</ele>
        <time>2021-03-25T03:58:26Z</time>
      </trkpt>
      <trkpt lat="47.59668" lon="-0.97194">
        <ele>52</ele>
        <time>2021-03-25T03:58:27Z</time>
      </trkpt>
      <trkpt lat="47.59598" lon="-0.97185">
        <ele>52</ele>
        <time>2021-03-25T03:58:39Z</time>
      </trkpt>
      <trkpt lat="47.59563" lon="-0.97179">
        <ele>52</ele>
        <time>2021-03-25T03:58:46Z</time>
      </trkpt>
      <trkpt lat="47.59551" lon="-0.97178">
        <ele>51</ele>
        <time>2021-03-25T03:58:48Z</time>
      </trkpt>
      <trkpt lat="47.59541" lon="-0.97175">
        <ele>51</ele>
        <time>2021-03-25T03:58:49Z</time>
      </trkpt>
      <trkpt lat="47.59532" lon="-0.97172">
        <ele>51</ele>
        <time>2021-03-25T03:58:51Z</time>
      </trkpt>
      <trkpt lat="47.5951" lon="-0.97162">
        <ele>50</ele>
        <time>2021-03-25T03:58:55Z</time>
      </trkpt>
      <trkpt lat="47.59491" lon="-0.97152">
        <ele>50</ele>
        <time>2021-03-25T03:58:59Z</time>
      </trkpt>
      <trkpt lat="47.59486" lon="-0.97149">
        <ele>50</ele>
        <time>2021-03-25T03:59:00Z</time>
      </trkpt>
      <trkpt lat="47.59477" lon="-0.97147">
        <ele>50</ele>
        <time>2021-03-25T03:59:01Z</time>
      </trkpt>
      <trkpt lat="47.59466" lon="-0.97144">
        <ele>50</ele>
        <time>2021-03-25T03:59:03Z</time>
      </trkpt>
      <trkpt lat="47.59445" lon="-0.97141">
        <ele>50</ele>
        <time>2021-03-25T03:59:07Z</time>
      </trkpt>
      <trkpt lat="47.59429" lon="-0.97139">
        <ele>50</ele>
        <time>2021-03-25T03:59:10Z</time>
      </trkpt>
      <trkpt lat="47.59411" lon="-0.97137">
        <ele>50</ele>
        <time>2021-03-25T03:59:13Z</time>
      </trkpt>
      <trkpt lat="47.59388" lon="-0.97136">
        <ele>50</ele>
        <time>2021-03-25T03:59:17Z</time>
      </trkpt>
      <trkpt lat="47.59367" lon="-0.97136">
        <ele>51</ele>
        <time>2021-03-25T03:59:21Z</time>
      </trkpt>
      <trkpt lat="47.59351" lon="-0.97136">
        <ele>51</ele>
        <time>2021-03-25T03:59:24Z</time>
      </trkpt>
      <trkpt lat="47.59338" lon="-0.97138">
        <ele>51</ele>
        <time>2021-03-25T03:59:26Z</time>
      </trkpt>
      <trkpt lat="47.59309" lon="-0.97141">
        <ele>51</ele>
        <time>2021-03-25T03:59:31Z</time>
      </trkpt>
      <trkpt lat="47.59281" lon="-0.97146">
        <ele>52</ele>
        <time>2021-03-25T03:59:36Z</time>
      </trkpt>
      <trkpt lat="47.59237" lon="-0.97154">
        <ele>52</ele>
        <time>2021-03-25T03:59:44Z</time>
      </trkpt>
      <trkpt lat="47.59213" lon="-0.97154">
        <ele>52</ele>
        <time>2021-03-25T03:59:49Z</time>
      </trkpt>
      <trkpt lat="47.5921" lon="-0.97154">
        <ele>52</ele>
        <time>2021-03-25T03:59:49Z</time>
      </trkpt>
      <trkpt lat="47.59178" lon="-0.97152">
        <ele>52</ele>
        <time>2021-03-25T03:59:55Z</time>
      </trkpt>
      <trkpt lat="47.59147" lon="-0.97149">
        <ele>50</ele>
        <time>2021-03-25T04:00:00Z</time>
      </trkpt>
      <trkpt lat="47.59114" lon="-0.97146">
        <ele>49</ele>
        <time>2021-03-25T04:00:06Z</time>
      </trkpt>
      <trkpt lat="47.5907" lon="-0.97145">
        <ele>47</ele>
        <time>2021-03-25T04:00:14Z</time>
      </trkpt>
      <trkpt lat="47.59064" lon="-0.97145">
        <ele>47</ele>
        <time>2021-03-25T04:00:15Z</time>
      </trkpt>
      <trkpt lat="47.5906" lon="-0.97145">
        <ele>47</ele>
        <time>2021-03-25T04:00:16Z</time>
      </trkpt>
      <trkpt lat="47.59038" lon="-0.97147">
        <ele>48</ele>
        <time>2021-03-25T04:00:20Z</time>
      </trkpt>
      <trkpt lat="47.59028" lon="-0.97148">
        <ele>48</ele>
        <time>2021-03-25T04:00:22Z</time>
      </trkpt>
      <trkpt lat="47.59002" lon="-0.97149">
        <ele>48</ele>
        <time>2021-03-25T04:00:26Z</time>
      </trkpt>
      <trkpt lat="47.58965" lon="-0.97151">
        <ele>48</ele>
        <time>2021-03-25T04:00:33Z</time>
      </trkpt>
      <trkpt lat="47.58948" lon="-0.97154">
        <ele>48</ele>
        <time>2021-03-25T04:00:36Z</time>
      </trkpt>
      <trkpt lat="47.58914" lon="-0.97164">
        <ele>48</ele>
        <time>2021-03-25T04:00:42Z</time>
      </trkpt>
      <trkpt lat="47.5889" lon="-0.97169">
        <ele>48</ele>
        <time>2021-03-25T04:00:46Z</time>
      </trkpt>
      <trkpt lat="47.58875" lon="-0.9717">
        <ele>48</ele>
        <time>2021-03-25T04:00:49Z</time>
      </trkpt>
      <trkpt lat="47.58837" lon="-0.97174">
        <ele>48</ele>
        <time>2021-03-25T04:00:56Z</time>
      </trkpt>
      <trkpt lat="47.58808" lon="-0.9718">
        <ele>49</ele>
        <time>2021-03-25T04:01:01Z</time>
      </trkpt>
      <trkpt lat="47.58756" lon="-0.97211">
        <ele>49</ele>
        <time>2021-03-25T04:01:11Z</time>
      </trkpt>
      <trkpt lat="47.58735" lon="-0.97224">
        <ele>49</ele>
        <time>2021-03-25T04:01:15Z</time>
      </trkpt>
      <trkpt lat="47.58696" lon="-0.97243">
        <ele>49</ele>
        <time>2021-03-25T04:01:22Z</time>
      </trkpt>
      <trkpt lat="47.58662" lon="-0.97261">
        <ele>48</ele>
        <time>2021-03-25T04:01:29Z</time>
      </trkpt>
      <trkpt lat="47.58647" lon="-0.97268">
        <ele>48</ele>
        <time>2021-03-25T04:01:31Z</time>
      </trkpt>
      <trkpt lat="47.58621" lon="-0.97279">
        <ele>48</ele>
        <time>2021-03-25T04:01:36Z</time>
      </trkpt>
      <trkpt lat="47.58616" lon="-0.97281">
        <ele>48</ele>
        <time>2021-03-25T04:01:37Z</time>
      </trkpt>
      <trkpt lat="47.58611" lon="-0.97283">
        <ele>48</ele>
        <time>2021-03-25T04:01:38Z</time>
      </trkpt>
      <trkpt lat="47.58586" lon="-0.97295">
        <ele>48</ele>
        <time>2021-03-25T04:01:43Z</time>
      </trkpt>
      <trkpt lat="47.58573" lon="-0.97301">
        <ele>48</ele>
        <time>2021-03-25T04:01:45Z</time>
      </trkpt>
      <trkpt lat="47.58565" lon="-0.97303">
        <ele>48</ele>
        <time>2021-03-25T04:01:47Z</time>
      </trkpt>
      <trkpt lat="47.58554" lon="-0.97305">
        <ele>48</ele>
        <time>2021-03-25T04:01:49Z</time>
      </trkpt>
      <trkpt lat="47.58542" lon="-0.97306">
        <ele>48</ele>
        <time>2021-03-25T04:01:51Z</time>
      </trkpt>
      <trkpt lat="47.58531" lon="-0.97306">
        <ele>48</ele>
        <time>2021-03-25T04:01:53Z</time>
      </trkpt>
      <trkpt lat="47.58518" lon="-0.97306">
        <ele>48</ele>
        <time>2021-03-25T04:01:55Z</time>
      </trkpt>
      <trkpt lat="47.58489" lon="-0.97307">
        <ele>48</ele>
        <time>2021-03-25T04:02:00Z</time>
      </trkpt>
      <trkpt lat="47.58444" lon="-0.97306">
        <ele>49</ele>
        <time>2021-03-25T04:02:08Z</time>
      </trkpt>
      <trkpt lat="47.58417" lon="-0.97304">
        <ele>49</ele>
        <time>2021-03-25T04:02:13Z</time>
      </trkpt>
      <trkpt lat="47.584" lon="-0.97301">
        <ele>49</ele>
        <time>2021-03-25T04:02:16Z</time>
      </trkpt>
      <trkpt lat="47.58392" lon="-0.97297">
        <ele>49</ele>
        <time>2021-03-25T04:02:18Z</time>
      </trkpt>
      <trkpt lat="47.58385" lon="-0.97294">
        <ele>50</ele>
        <time>2021-03-25T04:02:19Z</time>
      </trkpt>
      <trkpt lat="47.58377" lon="-0.97289">
        <ele>50</ele>
        <time>2021-03-25T04:02:20Z</time>
      </trkpt>
      <trkpt lat="47.58368" lon="-0.97285">
        <ele>50</ele>
        <time>2021-03-25T04:02:22Z</time>
      </trkpt>
      <trkpt lat="47.58356" lon="-0.97277">
        <ele>50</ele>
        <time>2021-03-25T04:02:24Z</time>
      </trkpt>
      <trkpt lat="47.58352" lon="-0.97275">
        <ele>50</ele>
        <time>2021-03-25T04:02:25Z</time>
      </trkpt>
      <trkpt lat="47.58237" lon="-0.97207">
        <ele>54</ele>
        <time>2021-03-25T04:02:47Z</time>
      </trkpt>
      <trkpt lat="47.58229" lon="-0.97202">
        <ele>54</ele>
        <time>2021-03-25T04:02:49Z</time>
      </trkpt>
      <trkpt lat="47.5818" lon="-0.97166">
        <ele>56</ele>
        <time>2021-03-25T04:02:58Z</time>
      </trkpt>
      <trkpt lat="47.58154" lon="-0.97146">
        <ele>59</ele>
        <time>2021-03-25T04:03:04Z</time>
      </trkpt>
      <trkpt lat="47.5814" lon="-0.97135">
        <ele>60</ele>
        <time>2021-03-25T04:03:07Z</time>
      </trkpt>
      <trkpt lat="47.58118" lon="-0.97121">
        <ele>62</ele>
        <time>2021-03-25T04:03:11Z</time>
      </trkpt>
      <trkpt lat="47.58087" lon="-0.97108">
        <ele>65</ele>
        <time>2021-03-25T04:03:17Z</time>
      </trkpt>
      <trkpt lat="47.58039" lon="-0.97093">
        <ele>66</ele>
        <time>2021-03-25T04:03:25Z</time>
      </trkpt>
      <trkpt lat="47.58006" lon="-0.97085">
        <ele>67</ele>
        <time>2021-03-25T04:03:31Z</time>
      </trkpt>
      <trkpt lat="47.57981" lon="-0.97079">
        <ele>67</ele>
        <time>2021-03-25T04:03:36Z</time>
      </trkpt>
      <trkpt lat="47.5794" lon="-0.97069">
        <ele>68</ele>
        <time>2021-03-25T04:03:43Z</time>
      </trkpt>
      <trkpt lat="47.57894" lon="-0.97058">
        <ele>68</ele>
        <time>2021-03-25T04:03:51Z</time>
      </trkpt>
      <trkpt lat="47.57866" lon="-0.9705">
        <ele>69</ele>
        <time>2021-03-25T04:03:56Z</time>
      </trkpt>
      <trkpt lat="47.5786" lon="-0.9705">
        <ele>69</ele>
        <time>2021-03-25T04:03:58Z</time>
      </trkpt>
      <trkpt lat="47.57829" lon="-0.97048">
        <ele>70</ele>
        <time>2021-03-25T04:04:03Z</time>
      </trkpt>
      <trkpt lat="47.57801" lon="-0.97046">
        <ele>70</ele>
        <time>2021-03-25T04:04:08Z</time>
      </trkpt>
      <trkpt lat="47.57761" lon="-0.97044">
        <ele>70</ele>
        <time>2021-03-25T04:04:15Z</time>
      </trkpt>
      <trkpt lat="47.57691" lon="-0.97041">
        <ele>66</ele>
        <time>2021-03-25T04:04:28Z</time>
      </trkpt>
      <trkpt lat="47.57629" lon="-0.9704">
        <ele>64</ele>
        <time>2021-03-25T04:04:39Z</time>
      </trkpt>
      <trkpt lat="47.57609" lon="-0.97042">
        <ele>64</ele>
        <time>2021-03-25T04:04:42Z</time>
      </trkpt>
      <trkpt lat="47.57595" lon="-0.97044">
        <ele>64</ele>
        <time>2021-03-25T04:04:45Z</time>
      </trkpt>
      <trkpt lat="47.57511" lon="-0.97059">
        <ele>63</ele>
        <time>2021-03-25T04:05:00Z</time>
      </trkpt>
      <trkpt lat="47.57472" lon="-0.97065">
        <ele>63</ele>
        <time>2021-03-25T04:05:07Z</time>
      </trkpt>
      <trkpt lat="47.57456" lon="-0.97068">
        <ele>63</ele>
        <time>2021-03-25T04:05:10Z</time>
      </trkpt>
      <trkpt lat="47.57449" lon="-0.97069">
        <ele>63</ele>
        <time>2021-03-25T04:05:11Z</time>
      </trkpt>
      <trkpt lat="47.57445" lon="-0.97069">
        <ele>63</ele>
        <time>2021-03-25T04:05:12Z</time>
      </trkpt>
      <trkpt lat="47.57439" lon="-0.97069">
        <ele>63</ele>
        <time>2021-03-25T04:05:13Z</time>
      </trkpt>
      <trkpt lat="47.57428" lon="-0.97066">
        <ele>63</ele>
        <time>2021-03-25T04:05:15Z</time>
      </trkpt>
      <trkpt lat="47.57362" lon="-0.97043">
        <ele>63</ele>
        <time>2021-03-25T04:05:27Z</time>
      </trkpt>
      <trkpt lat="47.5733" lon="-0.97034">
        <ele>63</ele>
        <time>2021-03-25T04:05:32Z</time>
      </trkpt>
      <trkpt lat="47.57326" lon="-0.97034">
        <ele>63</ele>
        <time>2021-03-25T04:05:33Z</time>
      </trkpt>
      <trkpt lat="47.57322" lon="-0.97034">
        <ele>63</ele>
        <time>2021-03-25T04:05:34Z</time>
      </trkpt>
      <trkpt lat="47.57317" lon="-0.97034">
        <ele>63</ele>
        <time>2021-03-25T04:05:35Z</time>
      </trkpt>
      <trkpt lat="47.57312" lon="-0.97035">
        <ele>63</ele>
        <time>2021-03-25T04:05:36Z</time>
      </trkpt>
      <trkpt lat="47.57308" lon="-0.97037">
        <ele>63</ele>
        <time>2021-03-25T04:05:36Z</time>
      </trkpt>
      <trkpt lat="47.57302" lon="-0.9704">
        <ele>64</ele>
        <time>2021-03-25T04:05:38Z</time>
      </trkpt>
      <trkpt lat="47.57297" lon="-0.97043">
        <ele>64</ele>
        <time>2021-03-25T04:05:39Z</time>
      </trkpt>
      <trkpt lat="47.57292" lon="-0.97046">
        <ele>64</ele>
        <time>2021-03-25T04:05:39Z</time>
      </trkpt>
      <trkpt lat="47.57287" lon="-0.97051">
        <ele>65</ele>
        <time>2021-03-25T04:05:41Z</time>
      </trkpt>
      <trkpt lat="47.57281" lon="-0.97057">
        <ele>65</ele>
        <time>2021-03-25T04:05:42Z</time>
      </trkpt>
      <trkpt lat="47.57264" lon="-0.97076">
        <ele>66</ele>
        <time>2021-03-25T04:05:46Z</time>
      </trkpt>
      <trkpt lat="47.57217" lon="-0.97133">
        <ele>67</ele>
        <time>2021-03-25T04:05:56Z</time>
      </trkpt>
      <trkpt lat="47.57196" lon="-0.97159">
        <ele>67</ele>
        <time>2021-03-25T04:06:01Z</time>
      </trkpt>
      <trkpt lat="47.57181" lon="-0.97178">
        <ele>67</ele>
        <time>2021-03-25T04:06:05Z</time>
      </trkpt>
      <trkpt lat="47.5717" lon="-0.97192">
        <ele>67</ele>
        <time>2021-03-25T04:06:07Z</time>
      </trkpt>
      <trkpt lat="47.57166" lon="-0.97196">
        <ele>67</ele>
        <time>2021-03-25T04:06:08Z</time>
      </trkpt>
      <trkpt lat="47.57163" lon="-0.97197">
        <ele>67</ele>
        <time>2021-03-25T04:06:09Z</time>
      </trkpt>
      <trkpt lat="47.5716" lon="-0.97198">
        <ele>67</ele>
        <time>2021-03-25T04:06:09Z</time>
      </trkpt>
      <trkpt lat="47.57141" lon="-0.97195">
        <ele>68</ele>
        <time>2021-03-25T04:06:13Z</time>
      </trkpt>
      <trkpt lat="47.57141" lon="-0.97195">
        <ele>68</ele>
        <time>2021-03-25T04:06:13Z</time>
      </trkpt>
      <trkpt lat="47.57135" lon="-0.97227">
        <ele>67</ele>
        <time>2021-03-25T04:06:17Z</time>
      </trkpt>
      <trkpt lat="47.57131" lon="-0.97246">
        <ele>67</ele>
        <time>2021-03-25T04:06:19Z</time>
      </trkpt>
      <trkpt lat="47.57129" lon="-0.97255">
        <ele>67</ele>
        <time>2021-03-25T04:06:20Z</time>
      </trkpt>
      <trkpt lat="47.57125" lon="-0.97269">
        <ele>67</ele>
        <time>2021-03-25T04:06:22Z</time>
      </trkpt>
      <trkpt lat="47.57121" lon="-0.9728">
        <ele>67</ele>
        <time>2021-03-25T04:06:24Z</time>
      </trkpt>
      <trkpt lat="47.57117" lon="-0.97287">
        <ele>67</ele>
        <time>2021-03-25T04:06:25Z</time>
      </trkpt>
      <trkpt lat="47.57111" lon="-0.97293">
        <ele>67</ele>
        <time>2021-03-25T04:06:26Z</time>
      </trkpt>
      <trkpt lat="47.57107" lon="-0.97295">
        <ele>67</ele>
        <time>2021-03-25T04:06:27Z</time>
      </trkpt>
      <trkpt lat="47.57105" lon="-0.97296">
        <ele>67</ele>
        <time>2021-03-25T04:06:27Z</time>
      </trkpt>
      <trkpt lat="47.57101" lon="-0.97297">
        <ele>67</ele>
        <time>2021-03-25T04:06:28Z</time>
      </trkpt>
      <trkpt lat="47.57095" lon="-0.97299">
        <ele>67</ele>
        <time>2021-03-25T04:06:29Z</time>
      </trkpt>
      <trkpt lat="47.57082" lon="-0.97302">
        <ele>67</ele>
        <time>2021-03-25T04:06:31Z</time>
      </trkpt>
      <trkpt lat="47.57071" lon="-0.97305">
        <ele>67</ele>
        <time>2021-03-25T04:06:33Z</time>
      </trkpt>
      <trkpt lat="47.57069" lon="-0.97305">
        <ele>67</ele>
        <time>2021-03-25T04:06:34Z</time>
      </trkpt>
      <trkpt lat="47.57069" lon="-0.97305">
        <ele>67</ele>
        <time>2021-03-25T04:06:34Z</time>
      </trkpt>
      <trkpt lat="47.57061" lon="-0.97284">
        <ele>67</ele>
        <time>2021-03-25T04:06:37Z</time>
      </trkpt>
      <trkpt lat="47.57059" lon="-0.97278">
        <ele>67</ele>
        <time>2021-03-25T04:06:37Z</time>
      </trkpt>
      <trkpt lat="47.57057" lon="-0.97274">
        <ele>67</ele>
        <time>2021-03-25T04:06:38Z</time>
      </trkpt>
      <trkpt lat="47.57056" lon="-0.9727">
        <ele>67</ele>
        <time>2021-03-25T04:06:38Z</time>
      </trkpt>
      <trkpt lat="47.57055" lon="-0.97267">
        <ele>67</ele>
        <time>2021-03-25T04:06:39Z</time>
      </trkpt>
      <trkpt lat="47.57054" lon="-0.97265">
        <ele>67</ele>
        <time>2021-03-25T04:06:39Z</time>
      </trkpt>
      <trkpt lat="47.57052" lon="-0.97263">
        <ele>67</ele>
        <time>2021-03-25T04:06:40Z</time>
      </trkpt>
      <trkpt lat="47.57051" lon="-0.97261">
        <ele>67</ele>
        <time>2021-03-25T04:06:40Z</time>
      </trkpt>
      <trkpt lat="47.5705" lon="-0.9726">
        <ele>67</ele>
        <time>2021-03-25T04:06:40Z</time>
      </trkpt>
      <trkpt lat="47.57046" lon="-0.97257">
        <ele>67</ele>
        <time>2021-03-25T04:06:41Z</time>
      </trkpt>
      <trkpt lat="47.57042" lon="-0.97254">
        <ele>67</ele>
        <time>2021-03-25T04:06:42Z</time>
      </trkpt>
      <trkpt lat="47.57032" lon="-0.97248">
        <ele>67</ele>
        <time>2021-03-25T04:06:44Z</time>
      </trkpt>
      <trkpt lat="47.57023" lon="-0.97243">
        <ele>68</ele>
        <time>2021-03-25T04:06:45Z</time>
      </trkpt>
      <trkpt lat="47.56998" lon="-0.97223">
        <ele>68</ele>
        <time>2021-03-25T04:06:50Z</time>
      </trkpt>
      <trkpt lat="47.56993" lon="-0.97219">
        <ele>68</ele>
        <time>2021-03-25T04:06:51Z</time>
      </trkpt>
      <trkpt lat="47.56977" lon="-0.97206">
        <ele>68</ele>
        <time>2021-03-25T04:06:55Z</time>
      </trkpt>
      <trkpt lat="47.56952" lon="-0.97184">
        <ele>69</ele>
        <time>2021-03-25T04:07:00Z</time>
      </trkpt>
      <trkpt lat="47.56942" lon="-0.97176">
        <ele>69</ele>
        <time>2021-03-25T04:07:02Z</time>
      </trkpt>
      <trkpt lat="47.56936" lon="-0.97172">
        <ele>68</ele>
        <time>2021-03-25T04:07:03Z</time>
      </trkpt>
      <trkpt lat="47.56933" lon="-0.97171">
        <ele>68</ele>
        <time>2021-03-25T04:07:04Z</time>
      </trkpt>
      <trkpt lat="47.5693" lon="-0.9717">
        <ele>68</ele>
        <time>2021-03-25T04:07:04Z</time>
      </trkpt>
      <trkpt lat="47.56928" lon="-0.9717">
        <ele>68</ele>
        <time>2021-03-25T04:07:04Z</time>
      </trkpt>
      <trkpt lat="47.56924" lon="-0.9717">
        <ele>68</ele>
        <time>2021-03-25T04:07:05Z</time>
      </trkpt>
      <trkpt lat="47.56919" lon="-0.97171">
        <ele>68</ele>
        <time>2021-03-25T04:07:06Z</time>
      </trkpt>
      <trkpt lat="47.56912" lon="-0.97173">
        <ele>68</ele>
        <time>2021-03-25T04:07:07Z</time>
      </trkpt>
      <trkpt lat="47.56904" lon="-0.97176">
        <ele>67</ele>
        <time>2021-03-25T04:07:09Z</time>
      </trkpt>
      <trkpt lat="47.56898" lon="-0.97178">
        <ele>67</ele>
        <time>2021-03-25T04:07:10Z</time>
      </trkpt>
      <trkpt lat="47.5687" lon="-0.97188">
        <ele>65</ele>
        <time>2021-03-25T04:07:15Z</time>
      </trkpt>
      <trkpt lat="47.56846" lon="-0.97196">
        <ele>64</ele>
        <time>2021-03-25T04:07:19Z</time>
      </trkpt>
      <trkpt lat="47.5682" lon="-0.97204">
        <ele>64</ele>
        <time>2021-03-25T04:07:24Z</time>
      </trkpt>
      <trkpt lat="47.56798" lon="-0.97212">
        <ele>64</ele>
        <time>2021-03-25T04:07:28Z</time>
      </trkpt>
      <trkpt lat="47.5677" lon="-0.97221">
        <ele>64</ele>
        <time>2021-03-25T04:07:33Z</time>
      </trkpt>
      <trkpt lat="47.56756" lon="-0.97226">
        <ele>64</ele>
        <time>2021-03-25T04:07:36Z</time>
      </trkpt>
      <trkpt lat="47.56737" lon="-0.97233">
        <ele>64</ele>
        <time>2021-03-25T04:07:39Z</time>
      </trkpt>
      <trkpt lat="47.56717" lon="-0.9724">
        <ele>64</ele>
        <time>2021-03-25T04:07:43Z</time>
      </trkpt>
      <trkpt lat="47.56705" lon="-0.97244">
        <ele>64</ele>
        <time>2021-03-25T04:07:45Z</time>
      </trkpt>
      <trkpt lat="47.56687" lon="-0.9725">
        <ele>64</ele>
        <time>2021-03-25T04:07:48Z</time>
      </trkpt>
      <trkpt lat="47.56672" lon="-0.97254">
        <ele>64</ele>
        <time>2021-03-25T04:07:51Z</time>
      </trkpt>
      <trkpt lat="47.56654" lon="-0.97259">
        <ele>64</ele>
        <time>2021-03-25T04:07:54Z</time>
      </trkpt>
      <trkpt lat="47.56643" lon="-0.97263">
        <ele>64</ele>
        <time>2021-03-25T04:07:56Z</time>
      </trkpt>
      <trkpt lat="47.56629" lon="-0.97267">
        <ele>64</ele>
        <time>2021-03-25T04:07:59Z</time>
      </trkpt>
      <trkpt lat="47.56613" lon="-0.97273">
        <ele>64</ele>
        <time>2021-03-25T04:08:02Z</time>
      </trkpt>
      <trkpt lat="47.56605" lon="-0.97276">
        <ele>64</ele>
        <time>2021-03-25T04:08:03Z</time>
      </trkpt>
      <trkpt lat="47.56598" lon="-0.97279">
        <ele>64</ele>
        <time>2021-03-25T04:08:05Z</time>
      </trkpt>
      <trkpt lat="47.5659" lon="-0.97281">
        <ele>64</ele>
        <time>2021-03-25T04:08:06Z</time>
      </trkpt>
      <trkpt lat="47.56583" lon="-0.97282">
        <ele>64</ele>
        <time>2021-03-25T04:08:07Z</time>
      </trkpt>
      <trkpt lat="47.56577" lon="-0.97282">
        <ele>64</ele>
        <time>2021-03-25T04:08:08Z</time>
      </trkpt>
      <trkpt lat="47.56562" lon="-0.97276">
        <ele>64</ele>
        <time>2021-03-25T04:08:11Z</time>
      </trkpt>
      <trkpt lat="47.56554" lon="-0.97269">
        <ele>64</ele>
        <time>2021-03-25T04:08:13Z</time>
      </trkpt>
      <trkpt lat="47.56552" lon="-0.97266">
        <ele>64</ele>
        <time>2021-03-25T04:08:13Z</time>
      </trkpt>
      <trkpt lat="47.5655" lon="-0.97264">
        <ele>64</ele>
        <time>2021-03-25T04:08:14Z</time>
      </trkpt>
      <trkpt lat="47.56548" lon="-0.97261">
        <ele>64</ele>
        <time>2021-03-25T04:08:14Z</time>
      </trkpt>
      <trkpt lat="47.56545" lon="-0.97256">
        <ele>64</ele>
        <time>2021-03-25T04:08:15Z</time>
      </trkpt>
      <trkpt lat="47.56543" lon="-0.97252">
        <ele>64</ele>
        <time>2021-03-25T04:08:16Z</time>
      </trkpt>
      <trkpt lat="47.56541" lon="-0.97246">
        <ele>64</ele>
        <time>2021-03-25T04:08:16Z</time>
      </trkpt>
      <trkpt lat="47.56538" lon="-0.9724">
        <ele>64</ele>
        <time>2021-03-25T04:08:17Z</time>
      </trkpt>
      <trkpt lat="47.56536" lon="-0.97234">
        <ele>64</ele>
        <time>2021-03-25T04:08:18Z</time>
      </trkpt>
      <trkpt lat="47.56534" lon="-0.97229">
        <ele>64</ele>
        <time>2021-03-25T04:08:19Z</time>
      </trkpt>
      <trkpt lat="47.56532" lon="-0.97221">
        <ele>64</ele>
        <time>2021-03-25T04:08:20Z</time>
      </trkpt>
      <trkpt lat="47.56528" lon="-0.9721">
        <ele>65</ele>
        <time>2021-03-25T04:08:21Z</time>
      </trkpt>
      <trkpt lat="47.56525" lon="-0.97198">
        <ele>65</ele>
        <time>2021-03-25T04:08:23Z</time>
      </trkpt>
      <trkpt lat="47.56521" lon="-0.97185">
        <ele>65</ele>
        <time>2021-03-25T04:08:25Z</time>
      </trkpt>
      <trkpt lat="47.56517" lon="-0.97173">
        <ele>65</ele>
        <time>2021-03-25T04:08:26Z</time>
      </trkpt>
      <trkpt lat="47.56513" lon="-0.9716">
        <ele>66</ele>
        <time>2021-03-25T04:08:28Z</time>
      </trkpt>
      <trkpt lat="47.56509" lon="-0.97147">
        <ele>66</ele>
        <time>2021-03-25T04:08:30Z</time>
      </trkpt>
      <trkpt lat="47.56507" lon="-0.97139">
        <ele>66</ele>
        <time>2021-03-25T04:08:31Z</time>
      </trkpt>
      <trkpt lat="47.56505" lon="-0.97134">
        <ele>66</ele>
        <time>2021-03-25T04:08:31Z</time>
      </trkpt>
      <trkpt lat="47.565" lon="-0.97121">
        <ele>67</ele>
        <time>2021-03-25T04:08:33Z</time>
      </trkpt>
      <trkpt lat="47.56496" lon="-0.97108">
        <ele>67</ele>
        <time>2021-03-25T04:08:35Z</time>
      </trkpt>
      <trkpt lat="47.56491" lon="-0.97095">
        <ele>67</ele>
        <time>2021-03-25T04:08:37Z</time>
      </trkpt>
      <trkpt lat="47.56486" lon="-0.97082">
        <ele>66</ele>
        <time>2021-03-25T04:08:38Z</time>
      </trkpt>
      <trkpt lat="47.56482" lon="-0.9707">
        <ele>66</ele>
        <time>2021-03-25T04:08:40Z</time>
      </trkpt>
      <trkpt lat="47.56477" lon="-0.97056">
        <ele>66</ele>
        <time>2021-03-25T04:08:42Z</time>
      </trkpt>
      <trkpt lat="47.56472" lon="-0.97044">
        <ele>66</ele>
        <time>2021-03-25T04:08:44Z</time>
      </trkpt>
      <trkpt lat="47.56468" lon="-0.97032">
        <ele>65</ele>
        <time>2021-03-25T04:08:45Z</time>
      </trkpt>
      <trkpt lat="47.56463" lon="-0.97019">
        <ele>65</ele>
        <time>2021-03-25T04:08:47Z</time>
      </trkpt>
      <trkpt lat="47.56458" lon="-0.97007">
        <ele>65</ele>
        <time>2021-03-25T04:08:49Z</time>
      </trkpt>
      <trkpt lat="47.56454" lon="-0.96994">
        <ele>64</ele>
        <time>2021-03-25T04:08:50Z</time>
      </trkpt>
      <trkpt lat="47.56444" lon="-0.96966">
        <ele>64</ele>
        <time>2021-03-25T04:08:54Z</time>
      </trkpt>
      <trkpt lat="47.56415" lon="-0.96887">
        <ele>64</ele>
        <time>2021-03-25T04:09:05Z</time>
      </trkpt>
      <trkpt lat="47.56383" lon="-0.96807">
        <ele>63</ele>
        <time>2021-03-25T04:09:16Z</time>
      </trkpt>
      <trkpt lat="47.56364" lon="-0.9677">
        <ele>62</ele>
        <time>2021-03-25T04:09:22Z</time>
      </trkpt>
      <trkpt lat="47.56357" lon="-0.9676">
        <ele>62</ele>
        <time>2021-03-25T04:09:24Z</time>
      </trkpt>
      <trkpt lat="47.56345" lon="-0.96745">
        <ele>61</ele>
        <time>2021-03-25T04:09:26Z</time>
      </trkpt>
      <trkpt lat="47.56334" lon="-0.96733">
        <ele>60</ele>
        <time>2021-03-25T04:09:29Z</time>
      </trkpt>
      <trkpt lat="47.56329" lon="-0.96728">
        <ele>60</ele>
        <time>2021-03-25T04:09:30Z</time>
      </trkpt>
      <trkpt lat="47.56324" lon="-0.96722">
        <ele>60</ele>
        <time>2021-03-25T04:09:31Z</time>
      </trkpt>
      <trkpt lat="47.56312" lon="-0.96707">
        <ele>61</ele>
        <time>2021-03-25T04:09:34Z</time>
      </trkpt>
      <trkpt lat="47.56285" lon="-0.96677">
        <ele>61</ele>
        <time>2021-03-25T04:09:40Z</time>
      </trkpt>
      <trkpt lat="47.56267" lon="-0.96657">
        <ele>61</ele>
        <time>2021-03-25T04:09:44Z</time>
      </trkpt>
      <trkpt lat="47.56249" lon="-0.96639">
        <ele>61</ele>
        <time>2021-03-25T04:09:48Z</time>
      </trkpt>
      <trkpt lat="47.56235" lon="-0.96625">
        <ele>62</ele>
        <time>2021-03-25T04:09:51Z</time>
      </trkpt>
      <trkpt lat="47.56223" lon="-0.96614">
        <ele>63</ele>
        <time>2021-03-25T04:09:53Z</time>
      </trkpt>
      <trkpt lat="47.56214" lon="-0.96605">
        <ele>63</ele>
        <time>2021-03-25T04:09:55Z</time>
      </trkpt>
      <trkpt lat="47.56203" lon="-0.96598">
        <ele>64</ele>
        <time>2021-03-25T04:09:57Z</time>
      </trkpt>
      <trkpt lat="47.56192" lon="-0.9659">
        <ele>64</ele>
        <time>2021-03-25T04:09:59Z</time>
      </trkpt>
      <trkpt lat="47.56176" lon="-0.96582">
        <ele>65</ele>
        <time>2021-03-25T04:10:02Z</time>
      </trkpt>
      <trkpt lat="47.56166" lon="-0.96578">
        <ele>65</ele>
        <time>2021-03-25T04:10:04Z</time>
      </trkpt>
      <trkpt lat="47.56156" lon="-0.96574">
        <ele>65</ele>
        <time>2021-03-25T04:10:06Z</time>
      </trkpt>
      <trkpt lat="47.56147" lon="-0.96571">
        <ele>65</ele>
        <time>2021-03-25T04:10:08Z</time>
      </trkpt>
      <trkpt lat="47.56139" lon="-0.96569">
        <ele>65</ele>
        <time>2021-03-25T04:10:09Z</time>
      </trkpt>
      <trkpt lat="47.56088" lon="-0.96556">
        <ele>66</ele>
        <time>2021-03-25T04:10:18Z</time>
      </trkpt>
      <trkpt lat="47.55994" lon="-0.96538">
        <ele>67</ele>
        <time>2021-03-25T04:10:35Z</time>
      </trkpt>
      <trkpt lat="47.55986" lon="-0.96535">
        <ele>67</ele>
        <time>2021-03-25T04:10:37Z</time>
      </trkpt>
      <trkpt lat="47.55974" lon="-0.96526">
        <ele>67</ele>
        <time>2021-03-25T04:10:39Z</time>
      </trkpt>
      <trkpt lat="47.55961" lon="-0.96512">
        <ele>67</ele>
        <time>2021-03-25T04:10:42Z</time>
      </trkpt>
      <trkpt lat="47.55954" lon="-0.96505">
        <ele>67</ele>
        <time>2021-03-25T04:10:44Z</time>
      </trkpt>
      <trkpt lat="47.55946" lon="-0.96495">
        <ele>67</ele>
        <time>2021-03-25T04:10:45Z</time>
      </trkpt>
      <trkpt lat="47.55934" lon="-0.9648">
        <ele>67</ele>
        <time>2021-03-25T04:10:48Z</time>
      </trkpt>
      <trkpt lat="47.55914" lon="-0.96456">
        <ele>66</ele>
        <time>2021-03-25T04:10:53Z</time>
      </trkpt>
      <trkpt lat="47.55902" lon="-0.96441">
        <ele>66</ele>
        <time>2021-03-25T04:10:56Z</time>
      </trkpt>
      <trkpt lat="47.55884" lon="-0.96419">
        <ele>65</ele>
        <time>2021-03-25T04:11:00Z</time>
      </trkpt>
      <trkpt lat="47.55881" lon="-0.96416">
        <ele>65</ele>
        <time>2021-03-25T04:11:00Z</time>
      </trkpt>
      <trkpt lat="47.55878" lon="-0.96414">
        <ele>65</ele>
        <time>2021-03-25T04:11:01Z</time>
      </trkpt>
      <trkpt lat="47.55875" lon="-0.96412">
        <ele>65</ele>
        <time>2021-03-25T04:11:01Z</time>
      </trkpt>
      <trkpt lat="47.55871" lon="-0.9641">
        <ele>64</ele>
        <time>2021-03-25T04:11:02Z</time>
      </trkpt>
      <trkpt lat="47.55867" lon="-0.96409">
        <ele>64</ele>
        <time>2021-03-25T04:11:03Z</time>
      </trkpt>
      <trkpt lat="47.55859" lon="-0.96406">
        <ele>64</ele>
        <time>2021-03-25T04:11:04Z</time>
      </trkpt>
      <trkpt lat="47.5585" lon="-0.96405">
        <ele>64</ele>
        <time>2021-03-25T04:11:06Z</time>
      </trkpt>
      <trkpt lat="47.55841" lon="-0.96403">
        <ele>63</ele>
        <time>2021-03-25T04:11:08Z</time>
      </trkpt>
      <trkpt lat="47.55821" lon="-0.964">
        <ele>63</ele>
        <time>2021-03-25T04:11:11Z</time>
      </trkpt>
      <trkpt lat="47.55811" lon="-0.96399">
        <ele>62</ele>
        <time>2021-03-25T04:11:13Z</time>
      </trkpt>
      <trkpt lat="47.55782" lon="-0.96393">
        <ele>61</ele>
        <time>2021-03-25T04:11:18Z</time>
      </trkpt>
      <trkpt lat="47.55761" lon="-0.96391">
        <ele>60</ele>
        <time>2021-03-25T04:11:22Z</time>
      </trkpt>
      <trkpt lat="47.55751" lon="-0.96389">
        <ele>60</ele>
        <time>2021-03-25T04:11:24Z</time>
      </trkpt>
      <trkpt lat="47.55741" lon="-0.96387">
        <ele>60</ele>
        <time>2021-03-25T04:11:26Z</time>
      </trkpt>
      <trkpt lat="47.55731" lon="-0.96385">
        <ele>59</ele>
        <time>2021-03-25T04:11:27Z</time>
      </trkpt>
      <trkpt lat="47.55721" lon="-0.96382">
        <ele>59</ele>
        <time>2021-03-25T04:11:29Z</time>
      </trkpt>
      <trkpt lat="47.55711" lon="-0.96379">
        <ele>59</ele>
        <time>2021-03-25T04:11:31Z</time>
      </trkpt>
      <trkpt lat="47.55702" lon="-0.96374">
        <ele>59</ele>
        <time>2021-03-25T04:11:33Z</time>
      </trkpt>
      <trkpt lat="47.55693" lon="-0.9637">
        <ele>59</ele>
        <time>2021-03-25T04:11:34Z</time>
      </trkpt>
      <trkpt lat="47.55684" lon="-0.96365">
        <ele>59</ele>
        <time>2021-03-25T04:11:36Z</time>
      </trkpt>
      <trkpt lat="47.55675" lon="-0.9636">
        <ele>59</ele>
        <time>2021-03-25T04:11:38Z</time>
      </trkpt>
      <trkpt lat="47.55667" lon="-0.96356">
        <ele>59</ele>
        <time>2021-03-25T04:11:39Z</time>
      </trkpt>
      <trkpt lat="47.55661" lon="-0.96353">
        <ele>59</ele>
        <time>2021-03-25T04:11:40Z</time>
      </trkpt>
      <trkpt lat="47.55657" lon="-0.96351">
        <ele>59</ele>
        <time>2021-03-25T04:11:41Z</time>
      </trkpt>
      <trkpt lat="47.55652" lon="-0.96349">
        <ele>59</ele>
        <time>2021-03-25T04:11:42Z</time>
      </trkpt>
      <trkpt lat="47.55647" lon="-0.96347">
        <ele>59</ele>
        <time>2021-03-25T04:11:43Z</time>
      </trkpt>
      <trkpt lat="47.55643" lon="-0.96346">
        <ele>59</ele>
        <time>2021-03-25T04:11:44Z</time>
      </trkpt>
      <trkpt lat="47.55639" lon="-0.96345">
        <ele>59</ele>
        <time>2021-03-25T04:11:44Z</time>
      </trkpt>
      <trkpt lat="47.55633" lon="-0.96345">
        <ele>59</ele>
        <time>2021-03-25T04:11:46Z</time>
      </trkpt>
      <trkpt lat="47.5563" lon="-0.96344">
        <ele>59</ele>
        <time>2021-03-25T04:11:46Z</time>
      </trkpt>
      <trkpt lat="47.55625" lon="-0.96344">
        <ele>58</ele>
        <time>2021-03-25T04:11:47Z</time>
      </trkpt>
      <trkpt lat="47.5562" lon="-0.96343">
        <ele>58</ele>
        <time>2021-03-25T04:11:48Z</time>
      </trkpt>
      <trkpt lat="47.55611" lon="-0.96344">
        <ele>58</ele>
        <time>2021-03-25T04:11:49Z</time>
      </trkpt>
      <trkpt lat="47.55602" lon="-0.96344">
        <ele>58</ele>
        <time>2021-03-25T04:11:51Z</time>
      </trkpt>
      <trkpt lat="47.55593" lon="-0.96345">
        <ele>58</ele>
        <time>2021-03-25T04:11:53Z</time>
      </trkpt>
      <trkpt lat="47.55585" lon="-0.96345">
        <ele>58</ele>
        <time>2021-03-25T04:11:54Z</time>
      </trkpt>
      <trkpt lat="47.55577" lon="-0.96346">
        <ele>58</ele>
        <time>2021-03-25T04:11:56Z</time>
      </trkpt>
      <trkpt lat="47.55561" lon="-0.96348">
        <ele>58</ele>
        <time>2021-03-25T04:11:58Z</time>
      </trkpt>
      <trkpt lat="47.55545" lon="-0.96349">
        <ele>58</ele>
        <time>2021-03-25T04:12:01Z</time>
      </trkpt>
      <trkpt lat="47.55537" lon="-0.9635">
        <ele>58</ele>
        <time>2021-03-25T04:12:03Z</time>
      </trkpt>
      <trkpt lat="47.5553" lon="-0.9635">
        <ele>58</ele>
        <time>2021-03-25T04:12:04Z</time>
      </trkpt>
      <trkpt lat="47.55522" lon="-0.9635">
        <ele>58</ele>
        <time>2021-03-25T04:12:05Z</time>
      </trkpt>
      <trkpt lat="47.55518" lon="-0.9635">
        <ele>58</ele>
        <time>2021-03-25T04:12:06Z</time>
      </trkpt>
      <trkpt lat="47.55516" lon="-0.9635">
        <ele>58</ele>
        <time>2021-03-25T04:12:06Z</time>
      </trkpt>
      <trkpt lat="47.55512" lon="-0.96349">
        <ele>58</ele>
        <time>2021-03-25T04:12:07Z</time>
      </trkpt>
      <trkpt lat="47.55509" lon="-0.96348">
        <ele>58</ele>
        <time>2021-03-25T04:12:08Z</time>
      </trkpt>
      <trkpt lat="47.55508" lon="-0.96347">
        <ele>58</ele>
        <time>2021-03-25T04:12:08Z</time>
      </trkpt>
      <trkpt lat="47.55506" lon="-0.96347">
        <ele>58</ele>
        <time>2021-03-25T04:12:08Z</time>
      </trkpt>
      <trkpt lat="47.55504" lon="-0.96346">
        <ele>58</ele>
        <time>2021-03-25T04:12:09Z</time>
      </trkpt>
      <trkpt lat="47.55502" lon="-0.96344">
        <ele>58</ele>
        <time>2021-03-25T04:12:09Z</time>
      </trkpt>
      <trkpt lat="47.55499" lon="-0.96341">
        <ele>58</ele>
        <time>2021-03-25T04:12:10Z</time>
      </trkpt>
      <trkpt lat="47.55496" lon="-0.96338">
        <ele>58</ele>
        <time>2021-03-25T04:12:10Z</time>
      </trkpt>
      <trkpt lat="47.55493" lon="-0.96334">
        <ele>58</ele>
        <time>2021-03-25T04:12:11Z</time>
      </trkpt>
      <trkpt lat="47.5549" lon="-0.9633">
        <ele>58</ele>
        <time>2021-03-25T04:12:12Z</time>
      </trkpt>
      <trkpt lat="47.55487" lon="-0.96326">
        <ele>58</ele>
        <time>2021-03-25T04:12:12Z</time>
      </trkpt>
      <trkpt lat="47.55483" lon="-0.96319">
        <ele>58</ele>
        <time>2021-03-25T04:12:14Z</time>
      </trkpt>
      <trkpt lat="47.55475" lon="-0.96305">
        <ele>58</ele>
        <time>2021-03-25T04:12:16Z</time>
      </trkpt>
      <trkpt lat="47.55467" lon="-0.9629">
        <ele>57</ele>
        <time>2021-03-25T04:12:18Z</time>
      </trkpt>
      <trkpt lat="47.55464" lon="-0.96286">
        <ele>57</ele>
        <time>2021-03-25T04:12:19Z</time>
      </trkpt>
      <trkpt lat="47.55458" lon="-0.9628">
        <ele>57</ele>
        <time>2021-03-25T04:12:20Z</time>
      </trkpt>
      <trkpt lat="47.55456" lon="-0.96278">
        <ele>57</ele>
        <time>2021-03-25T04:12:21Z</time>
      </trkpt>
      <trkpt lat="47.55453" lon="-0.96276">
        <ele>57</ele>
        <time>2021-03-25T04:12:21Z</time>
      </trkpt>
      <trkpt lat="47.5545" lon="-0.96274">
        <ele>57</ele>
        <time>2021-03-25T04:12:22Z</time>
      </trkpt>
      <trkpt lat="47.55447" lon="-0.96272">
        <ele>57</ele>
        <time>2021-03-25T04:12:22Z</time>
      </trkpt>
      <trkpt lat="47.55444" lon="-0.96271">
        <ele>56</ele>
        <time>2021-03-25T04:12:23Z</time>
      </trkpt>
      <trkpt lat="47.55441" lon="-0.9627">
        <ele>56</ele>
        <time>2021-03-25T04:12:23Z</time>
      </trkpt>
      <trkpt lat="47.55438" lon="-0.96269">
        <ele>56</ele>
        <time>2021-03-25T04:12:24Z</time>
      </trkpt>
      <trkpt lat="47.55434" lon="-0.96267">
        <ele>56</ele>
        <time>2021-03-25T04:12:25Z</time>
      </trkpt>
      <trkpt lat="47.5543" lon="-0.96266">
        <ele>56</ele>
        <time>2021-03-25T04:12:25Z</time>
      </trkpt>
      <trkpt lat="47.55425" lon="-0.96265">
        <ele>56</ele>
        <time>2021-03-25T04:12:26Z</time>
      </trkpt>
      <trkpt lat="47.55421" lon="-0.96265">
        <ele>55</ele>
        <time>2021-03-25T04:12:27Z</time>
      </trkpt>
      <trkpt lat="47.55416" lon="-0.96265">
        <ele>55</ele>
        <time>2021-03-25T04:12:28Z</time>
      </trkpt>
      <trkpt lat="47.55412" lon="-0.96265">
        <ele>55</ele>
        <time>2021-03-25T04:12:29Z</time>
      </trkpt>
      <trkpt lat="47.55405" lon="-0.96266">
        <ele>56</ele>
        <time>2021-03-25T04:12:30Z</time>
      </trkpt>
      <trkpt lat="47.55398" lon="-0.96266">
        <ele>56</ele>
        <time>2021-03-25T04:12:31Z</time>
      </trkpt>
      <trkpt lat="47.55389" lon="-0.96268">
        <ele>56</ele>
        <time>2021-03-25T04:12:33Z</time>
      </trkpt>
      <trkpt lat="47.55385" lon="-0.96268">
        <ele>57</ele>
        <time>2021-03-25T04:12:33Z</time>
      </trkpt>
      <trkpt lat="47.55379" lon="-0.9627">
        <ele>57</ele>
        <time>2021-03-25T04:12:35Z</time>
      </trkpt>
      <trkpt lat="47.55373" lon="-0.96271">
        <ele>57</ele>
        <time>2021-03-25T04:12:36Z</time>
      </trkpt>
      <trkpt lat="47.55362" lon="-0.96272">
        <ele>58</ele>
        <time>2021-03-25T04:12:38Z</time>
      </trkpt>
      <trkpt lat="47.55354" lon="-0.96272">
        <ele>58</ele>
        <time>2021-03-25T04:12:39Z</time>
      </trkpt>
      <trkpt lat="47.55308" lon="-0.96277">
        <ele>61</ele>
        <time>2021-03-25T04:12:47Z</time>
      </trkpt>
      <trkpt lat="47.55274" lon="-0.96281">
        <ele>63</ele>
        <time>2021-03-25T04:12:53Z</time>
      </trkpt>
      <trkpt lat="47.55242" lon="-0.96287">
        <ele>64</ele>
        <time>2021-03-25T04:12:59Z</time>
      </trkpt>
      <trkpt lat="47.55234" lon="-0.96287">
        <ele>65</ele>
        <time>2021-03-25T04:13:00Z</time>
      </trkpt>
      <trkpt lat="47.55227" lon="-0.96287">
        <ele>65</ele>
        <time>2021-03-25T04:13:02Z</time>
      </trkpt>
      <trkpt lat="47.5522" lon="-0.96286">
        <ele>65</ele>
        <time>2021-03-25T04:13:03Z</time>
      </trkpt>
      <trkpt lat="47.55212" lon="-0.96282">
        <ele>65</ele>
        <time>2021-03-25T04:13:04Z</time>
      </trkpt>
      <trkpt lat="47.55206" lon="-0.96279">
        <ele>66</ele>
        <time>2021-03-25T04:13:06Z</time>
      </trkpt>
      <trkpt lat="47.55201" lon="-0.96274">
        <ele>66</ele>
        <time>2021-03-25T04:13:07Z</time>
      </trkpt>
      <trkpt lat="47.55189" lon="-0.9626">
        <ele>66</ele>
        <time>2021-03-25T04:13:09Z</time>
      </trkpt>
      <trkpt lat="47.55181" lon="-0.9625">
        <ele>66</ele>
        <time>2021-03-25T04:13:11Z</time>
      </trkpt>
      <trkpt lat="47.55173" lon="-0.9624">
        <ele>67</ele>
        <time>2021-03-25T04:13:13Z</time>
      </trkpt>
      <trkpt lat="47.55162" lon="-0.96229">
        <ele>68</ele>
        <time>2021-03-25T04:13:15Z</time>
      </trkpt>
      <trkpt lat="47.55154" lon="-0.96221">
        <ele>68</ele>
        <time>2021-03-25T04:13:17Z</time>
      </trkpt>
      <trkpt lat="47.5515" lon="-0.96218">
        <ele>69</ele>
        <time>2021-03-25T04:13:18Z</time>
      </trkpt>
      <trkpt lat="47.55144" lon="-0.96213">
        <ele>69</ele>
        <time>2021-03-25T04:13:19Z</time>
      </trkpt>
      <trkpt lat="47.55138" lon="-0.96209">
        <ele>69</ele>
        <time>2021-03-25T04:13:20Z</time>
      </trkpt>
      <trkpt lat="47.55138" lon="-0.96209">
        <ele>69</ele>
        <time>2021-03-25T04:13:20Z</time>
      </trkpt>
      <trkpt lat="47.55139" lon="-0.96233">
        <ele>69</ele>
        <time>2021-03-25T04:13:23Z</time>
      </trkpt>
      <trkpt lat="47.55142" lon="-0.96258">
        <ele>69</ele>
        <time>2021-03-25T04:13:26Z</time>
      </trkpt>
      <trkpt lat="47.55144" lon="-0.96276">
        <ele>69</ele>
        <time>2021-03-25T04:13:28Z</time>
      </trkpt>
      <trkpt lat="47.55147" lon="-0.96298">
        <ele>69</ele>
        <time>2021-03-25T04:13:31Z</time>
      </trkpt>
      <trkpt lat="47.5515" lon="-0.96319">
        <ele>68</ele>
        <time>2021-03-25T04:13:34Z</time>
      </trkpt>
      <trkpt lat="47.55152" lon="-0.96343">
        <ele>68</ele>
        <time>2021-03-25T04:13:37Z</time>
      </trkpt>
      <trkpt lat="47.55154" lon="-0.96375">
        <ele>69</ele>
        <time>2021-03-25T04:13:41Z</time>
      </trkpt>
      <trkpt lat="47.55156" lon="-0.96418">
        <ele>70</ele>
        <time>2021-03-25T04:13:46Z</time>
      </trkpt>
      <trkpt lat="47.55158" lon="-0.96442">
        <ele>70</ele>
        <time>2021-03-25T04:13:49Z</time>
      </trkpt>
      <trkpt lat="47.55159" lon="-0.96472">
        <ele>69</ele>
        <time>2021-03-25T04:13:52Z</time>
      </trkpt>
      <trkpt lat="47.5516" lon="-0.96496">
        <ele>69</ele>
        <time>2021-03-25T04:13:55Z</time>
      </trkpt>
      <trkpt lat="47.55159" lon="-0.96509">
        <ele>69</ele>
        <time>2021-03-25T04:13:57Z</time>
      </trkpt>
      <trkpt lat="47.55159" lon="-0.96522">
        <ele>69</ele>
        <time>2021-03-25T04:13:58Z</time>
      </trkpt>
      <trkpt lat="47.55158" lon="-0.96535">
        <ele>69</ele>
        <time>2021-03-25T04:14:00Z</time>
      </trkpt>
      <trkpt lat="47.55155" lon="-0.96556">
        <ele>69</ele>
        <time>2021-03-25T04:14:02Z</time>
      </trkpt>
      <trkpt lat="47.55151" lon="-0.96581">
        <ele>69</ele>
        <time>2021-03-25T04:14:05Z</time>
      </trkpt>
      <trkpt lat="47.55145" lon="-0.96611">
        <ele>68</ele>
        <time>2021-03-25T04:14:09Z</time>
      </trkpt>
      <trkpt lat="47.55141" lon="-0.96643">
        <ele>68</ele>
        <time>2021-03-25T04:14:13Z</time>
      </trkpt>
      <trkpt lat="47.55139" lon="-0.96668">
        <ele>67</ele>
        <time>2021-03-25T04:14:16Z</time>
      </trkpt>
      <trkpt lat="47.55138" lon="-0.96701">
        <ele>67</ele>
        <time>2021-03-25T04:14:20Z</time>
      </trkpt>
      <trkpt lat="47.55138" lon="-0.96729">
        <ele>67</ele>
        <time>2021-03-25T04:14:23Z</time>
      </trkpt>
      <trkpt lat="47.55136" lon="-0.96742">
        <ele>67</ele>
        <time>2021-03-25T04:14:25Z</time>
      </trkpt>
      <trkpt lat="47.55133" lon="-0.96755">
        <ele>67</ele>
        <time>2021-03-25T04:14:27Z</time>
      </trkpt>
      <trkpt lat="47.55128" lon="-0.9677">
        <ele>68</ele>
        <time>2021-03-25T04:14:29Z</time>
      </trkpt>
      <trkpt lat="47.5511" lon="-0.96816">
        <ele>69</ele>
        <time>2021-03-25T04:14:35Z</time>
      </trkpt>
      <trkpt lat="47.55098" lon="-0.96847">
        <ele>69</ele>
        <time>2021-03-25T04:14:39Z</time>
      </trkpt>
      <trkpt lat="47.55077" lon="-0.96896">
        <ele>69</ele>
        <time>2021-03-25T04:14:46Z</time>
      </trkpt>
      <trkpt lat="47.55044" lon="-0.96959">
        <ele>69</ele>
        <time>2021-03-25T04:14:56Z</time>
      </trkpt>
      <trkpt lat="47.55039" lon="-0.96966">
        <ele>69</ele>
        <time>2021-03-25T04:14:57Z</time>
      </trkpt>
      <trkpt lat="47.55028" lon="-0.96978">
        <ele>69</ele>
        <time>2021-03-25T04:15:00Z</time>
      </trkpt>
      <trkpt lat="47.54997" lon="-0.97002">
        <ele>69</ele>
        <time>2021-03-25T04:15:06Z</time>
      </trkpt>
      <trkpt lat="47.54983" lon="-0.97011">
        <ele>69</ele>
        <time>2021-03-25T04:15:09Z</time>
      </trkpt>
      <trkpt lat="47.54968" lon="-0.97017">
        <ele>70</ele>
        <time>2021-03-25T04:15:11Z</time>
      </trkpt>
      <trkpt lat="47.54961" lon="-0.9702">
        <ele>70</ele>
        <time>2021-03-25T04:15:13Z</time>
      </trkpt>
      <trkpt lat="47.5494" lon="-0.97022">
        <ele>71</ele>
        <time>2021-03-25T04:15:16Z</time>
      </trkpt>
      <trkpt lat="47.54914" lon="-0.97023">
        <ele>72</ele>
        <time>2021-03-25T04:15:21Z</time>
      </trkpt>
      <trkpt lat="47.54901" lon="-0.97024">
        <ele>72</ele>
        <time>2021-03-25T04:15:23Z</time>
      </trkpt>
      <trkpt lat="47.54894" lon="-0.97025">
        <ele>72</ele>
        <time>2021-03-25T04:15:25Z</time>
      </trkpt>
      <trkpt lat="47.54889" lon="-0.97026">
        <ele>72</ele>
        <time>2021-03-25T04:15:25Z</time>
      </trkpt>
      <trkpt lat="47.54882" lon="-0.97029">
        <ele>72</ele>
        <time>2021-03-25T04:15:27Z</time>
      </trkpt>
      <trkpt lat="47.54832" lon="-0.97061">
        <ele>72</ele>
        <time>2021-03-25T04:15:36Z</time>
      </trkpt>
      <trkpt lat="47.54817" lon="-0.9707">
        <ele>71</ele>
        <time>2021-03-25T04:15:39Z</time>
      </trkpt>
      <trkpt lat="47.54801" lon="-0.97078">
        <ele>71</ele>
        <time>2021-03-25T04:15:42Z</time>
      </trkpt>
      <trkpt lat="47.54794" lon="-0.97083">
        <ele>71</ele>
        <time>2021-03-25T04:15:44Z</time>
      </trkpt>
      <trkpt lat="47.5479" lon="-0.97085">
        <ele>70</ele>
        <time>2021-03-25T04:15:44Z</time>
      </trkpt>
      <trkpt lat="47.54785" lon="-0.97089">
        <ele>70</ele>
        <time>2021-03-25T04:15:45Z</time>
      </trkpt>
      <trkpt lat="47.54781" lon="-0.97093">
        <ele>70</ele>
        <time>2021-03-25T04:15:46Z</time>
      </trkpt>
      <trkpt lat="47.54778" lon="-0.97097">
        <ele>70</ele>
        <time>2021-03-25T04:15:47Z</time>
      </trkpt>
      <trkpt lat="47.54775" lon="-0.97102">
        <ele>70</ele>
        <time>2021-03-25T04:15:48Z</time>
      </trkpt>
      <trkpt lat="47.54771" lon="-0.97108">
        <ele>70</ele>
        <time>2021-03-25T04:15:49Z</time>
      </trkpt>
      <trkpt lat="47.54769" lon="-0.97113">
        <ele>70</ele>
        <time>2021-03-25T04:15:50Z</time>
      </trkpt>
      <trkpt lat="47.54767" lon="-0.97118">
        <ele>70</ele>
        <time>2021-03-25T04:15:50Z</time>
      </trkpt>
      <trkpt lat="47.54763" lon="-0.97127">
        <ele>70</ele>
        <time>2021-03-25T04:15:52Z</time>
      </trkpt>
      <trkpt lat="47.5476" lon="-0.97135">
        <ele>70</ele>
        <time>2021-03-25T04:15:53Z</time>
      </trkpt>
      <trkpt lat="47.54755" lon="-0.97152">
        <ele>70</ele>
        <time>2021-03-25T04:15:55Z</time>
      </trkpt>
      <trkpt lat="47.54751" lon="-0.97167">
        <ele>70</ele>
        <time>2021-03-25T04:15:57Z</time>
      </trkpt>
      <trkpt lat="47.54748" lon="-0.97178">
        <ele>70</ele>
        <time>2021-03-25T04:15:58Z</time>
      </trkpt>
      <trkpt lat="47.54746" lon="-0.97184">
        <ele>69</ele>
        <time>2021-03-25T04:15:59Z</time>
      </trkpt>
      <trkpt lat="47.54745" lon="-0.97189">
        <ele>69</ele>
        <time>2021-03-25T04:16:00Z</time>
      </trkpt>
      <trkpt lat="47.54743" lon="-0.97193">
        <ele>69</ele>
        <time>2021-03-25T04:16:00Z</time>
      </trkpt>
      <trkpt lat="47.54742" lon="-0.97196">
        <ele>69</ele>
        <time>2021-03-25T04:16:01Z</time>
      </trkpt>
      <trkpt lat="47.54741" lon="-0.97199">
        <ele>69</ele>
        <time>2021-03-25T04:16:01Z</time>
      </trkpt>
      <trkpt lat="47.5474" lon="-0.97201">
        <ele>69</ele>
        <time>2021-03-25T04:16:01Z</time>
      </trkpt>
      <trkpt lat="47.54739" lon="-0.97203">
        <ele>68</ele>
        <time>2021-03-25T04:16:02Z</time>
      </trkpt>
      <trkpt lat="47.54733" lon="-0.97211">
        <ele>68</ele>
        <time>2021-03-25T04:16:03Z</time>
      </trkpt>
      <trkpt lat="47.54729" lon="-0.97216">
        <ele>68</ele>
        <time>2021-03-25T04:16:04Z</time>
      </trkpt>
      <trkpt lat="47.54728" lon="-0.97218">
        <ele>68</ele>
        <time>2021-03-25T04:16:04Z</time>
      </trkpt>
      <trkpt lat="47.54725" lon="-0.9722">
        <ele>68</ele>
        <time>2021-03-25T04:16:05Z</time>
      </trkpt>
      <trkpt lat="47.54724" lon="-0.97221">
        <ele>68</ele>
        <time>2021-03-25T04:16:05Z</time>
      </trkpt>
      <trkpt lat="47.54722" lon="-0.97222">
        <ele>67</ele>
        <time>2021-03-25T04:16:05Z</time>
      </trkpt>
      <trkpt lat="47.54717" lon="-0.97224">
        <ele>67</ele>
        <time>2021-03-25T04:16:06Z</time>
      </trkpt>
      <trkpt lat="47.54707" lon="-0.97226">
        <ele>67</ele>
        <time>2021-03-25T04:16:08Z</time>
      </trkpt>
      <trkpt lat="47.54692" lon="-0.97229">
        <ele>67</ele>
        <time>2021-03-25T04:16:11Z</time>
      </trkpt>
      <trkpt lat="47.54681" lon="-0.97231">
        <ele>66</ele>
        <time>2021-03-25T04:16:13Z</time>
      </trkpt>
      <trkpt lat="47.54672" lon="-0.97231">
        <ele>66</ele>
        <time>2021-03-25T04:16:14Z</time>
      </trkpt>
      <trkpt lat="47.54656" lon="-0.97232">
        <ele>66</ele>
        <time>2021-03-25T04:16:17Z</time>
      </trkpt>
      <trkpt lat="47.5463" lon="-0.97236">
        <ele>65</ele>
        <time>2021-03-25T04:16:22Z</time>
      </trkpt>
      <trkpt lat="47.5462" lon="-0.97236">
        <ele>64</ele>
        <time>2021-03-25T04:16:24Z</time>
      </trkpt>
      <trkpt lat="47.54545" lon="-0.97242">
        <ele>60</ele>
        <time>2021-03-25T04:16:37Z</time>
      </trkpt>
      <trkpt lat="47.54523" lon="-0.97244">
        <ele>58</ele>
        <time>2021-03-25T04:16:41Z</time>
      </trkpt>
      <trkpt lat="47.54515" lon="-0.97245">
        <ele>58</ele>
        <time>2021-03-25T04:16:42Z</time>
      </trkpt>
      <trkpt lat="47.54481" lon="-0.97248">
        <ele>56</ele>
        <time>2021-03-25T04:16:49Z</time>
      </trkpt>
      <trkpt lat="47.54408" lon="-0.97255">
        <ele>51</ele>
        <time>2021-03-25T04:17:02Z</time>
      </trkpt>
      <trkpt lat="47.54388" lon="-0.97259">
        <ele>51</ele>
        <time>2021-03-25T04:17:05Z</time>
      </trkpt>
      <trkpt lat="47.54382" lon="-0.97262">
        <ele>51</ele>
        <time>2021-03-25T04:17:06Z</time>
      </trkpt>
      <trkpt lat="47.54368" lon="-0.97269">
        <ele>50</ele>
        <time>2021-03-25T04:17:09Z</time>
      </trkpt>
      <trkpt lat="47.54365" lon="-0.97272">
        <ele>50</ele>
        <time>2021-03-25T04:17:10Z</time>
      </trkpt>
      <trkpt lat="47.54362" lon="-0.97275">
        <ele>50</ele>
        <time>2021-03-25T04:17:10Z</time>
      </trkpt>
      <trkpt lat="47.54357" lon="-0.97279">
        <ele>50</ele>
        <time>2021-03-25T04:17:11Z</time>
      </trkpt>
      <trkpt lat="47.54352" lon="-0.97283">
        <ele>50</ele>
        <time>2021-03-25T04:17:12Z</time>
      </trkpt>
      <trkpt lat="47.54346" lon="-0.97289">
        <ele>50</ele>
        <time>2021-03-25T04:17:13Z</time>
      </trkpt>
      <trkpt lat="47.54339" lon="-0.97297">
        <ele>51</ele>
        <time>2021-03-25T04:17:15Z</time>
      </trkpt>
      <trkpt lat="47.54335" lon="-0.97302">
        <ele>51</ele>
        <time>2021-03-25T04:17:16Z</time>
      </trkpt>
      <trkpt lat="47.54329" lon="-0.97309">
        <ele>51</ele>
        <time>2021-03-25T04:17:17Z</time>
      </trkpt>
      <trkpt lat="47.54323" lon="-0.97316">
        <ele>51</ele>
        <time>2021-03-25T04:17:19Z</time>
      </trkpt>
      <trkpt lat="47.54318" lon="-0.97322">
        <ele>51</ele>
        <time>2021-03-25T04:17:20Z</time>
      </trkpt>
      <trkpt lat="47.54312" lon="-0.97328">
        <ele>51</ele>
        <time>2021-03-25T04:17:21Z</time>
      </trkpt>
      <trkpt lat="47.54305" lon="-0.97335">
        <ele>51</ele>
        <time>2021-03-25T04:17:23Z</time>
      </trkpt>
      <trkpt lat="47.54296" lon="-0.97341">
        <ele>52</ele>
        <time>2021-03-25T04:17:24Z</time>
      </trkpt>
      <trkpt lat="47.54288" lon="-0.97347">
        <ele>52</ele>
        <time>2021-03-25T04:17:26Z</time>
      </trkpt>
      <trkpt lat="47.54279" lon="-0.97353">
        <ele>52</ele>
        <time>2021-03-25T04:17:28Z</time>
      </trkpt>
      <trkpt lat="47.5427" lon="-0.97359">
        <ele>52</ele>
        <time>2021-03-25T04:17:30Z</time>
      </trkpt>
      <trkpt lat="47.54254" lon="-0.97369">
        <ele>52</ele>
        <time>2021-03-25T04:17:33Z</time>
      </trkpt>
      <trkpt lat="47.54244" lon="-0.97374">
        <ele>53</ele>
        <time>2021-03-25T04:17:34Z</time>
      </trkpt>
      <trkpt lat="47.54227" lon="-0.97383">
        <ele>53</ele>
        <time>2021-03-25T04:17:38Z</time>
      </trkpt>
      <trkpt lat="47.54216" lon="-0.97388">
        <ele>53</ele>
        <time>2021-03-25T04:17:40Z</time>
      </trkpt>
      <trkpt lat="47.54207" lon="-0.97393">
        <ele>53</ele>
        <time>2021-03-25T04:17:41Z</time>
      </trkpt>
      <trkpt lat="47.54201" lon="-0.97397">
        <ele>53</ele>
        <time>2021-03-25T04:17:43Z</time>
      </trkpt>
      <trkpt lat="47.5419" lon="-0.97404">
        <ele>53</ele>
        <time>2021-03-25T04:17:45Z</time>
      </trkpt>
      <trkpt lat="47.54183" lon="-0.97408">
        <ele>54</ele>
        <time>2021-03-25T04:17:46Z</time>
      </trkpt>
      <trkpt lat="47.54179" lon="-0.97411">
        <ele>54</ele>
        <time>2021-03-25T04:17:47Z</time>
      </trkpt>
      <trkpt lat="47.54174" lon="-0.97415">
        <ele>54</ele>
        <time>2021-03-25T04:17:48Z</time>
      </trkpt>
      <trkpt lat="47.54167" lon="-0.97422">
        <ele>54</ele>
        <time>2021-03-25T04:17:49Z</time>
      </trkpt>
      <trkpt lat="47.54159" lon="-0.97431">
        <ele>54</ele>
        <time>2021-03-25T04:17:51Z</time>
      </trkpt>
      <trkpt lat="47.54152" lon="-0.97438">
        <ele>54</ele>
        <time>2021-03-25T04:17:53Z</time>
      </trkpt>
      <trkpt lat="47.54146" lon="-0.97444">
        <ele>55</ele>
        <time>2021-03-25T04:17:54Z</time>
      </trkpt>
      <trkpt lat="47.54141" lon="-0.97448">
        <ele>55</ele>
        <time>2021-03-25T04:17:55Z</time>
      </trkpt>
      <trkpt lat="47.54136" lon="-0.97451">
        <ele>55</ele>
        <time>2021-03-25T04:17:56Z</time>
      </trkpt>
      <trkpt lat="47.54129" lon="-0.97454">
        <ele>55</ele>
        <time>2021-03-25T04:17:57Z</time>
      </trkpt>
      <trkpt lat="47.54121" lon="-0.97458">
        <ele>55</ele>
        <time>2021-03-25T04:17:59Z</time>
      </trkpt>
      <trkpt lat="47.54112" lon="-0.97461">
        <ele>55</ele>
        <time>2021-03-25T04:18:00Z</time>
      </trkpt>
      <trkpt lat="47.54104" lon="-0.97464">
        <ele>55</ele>
        <time>2021-03-25T04:18:02Z</time>
      </trkpt>
      <trkpt lat="47.54098" lon="-0.97466">
        <ele>55</ele>
        <time>2021-03-25T04:18:03Z</time>
      </trkpt>
      <trkpt lat="47.54093" lon="-0.97467">
        <ele>55</ele>
        <time>2021-03-25T04:18:04Z</time>
      </trkpt>
      <trkpt lat="47.54087" lon="-0.9747">
        <ele>55</ele>
        <time>2021-03-25T04:18:05Z</time>
      </trkpt>
      <trkpt lat="47.5408" lon="-0.97475">
        <ele>55</ele>
        <time>2021-03-25T04:18:06Z</time>
      </trkpt>
      <trkpt lat="47.54073" lon="-0.9748">
        <ele>55</ele>
        <time>2021-03-25T04:18:08Z</time>
      </trkpt>
      <trkpt lat="47.54067" lon="-0.97487">
        <ele>55</ele>
        <time>2021-03-25T04:18:09Z</time>
      </trkpt>
      <trkpt lat="47.54048" lon="-0.97509">
        <ele>56</ele>
        <time>2021-03-25T04:18:13Z</time>
      </trkpt>
      <trkpt lat="47.54033" lon="-0.97526">
        <ele>56</ele>
        <time>2021-03-25T04:18:17Z</time>
      </trkpt>
      <trkpt lat="47.54025" lon="-0.97535">
        <ele>57</ele>
        <time>2021-03-25T04:18:19Z</time>
      </trkpt>
      <trkpt lat="47.54008" lon="-0.97554">
        <ele>57</ele>
        <time>2021-03-25T04:18:22Z</time>
      </trkpt>
      <trkpt lat="47.53999" lon="-0.97563">
        <ele>57</ele>
        <time>2021-03-25T04:18:24Z</time>
      </trkpt>
      <trkpt lat="47.53984" lon="-0.97579">
        <ele>57</ele>
        <time>2021-03-25T04:18:28Z</time>
      </trkpt>
      <trkpt lat="47.53967" lon="-0.976">
        <ele>58</ele>
        <time>2021-03-25T04:18:31Z</time>
      </trkpt>
      <trkpt lat="47.53957" lon="-0.97612">
        <ele>58</ele>
        <time>2021-03-25T04:18:34Z</time>
      </trkpt>
      <trkpt lat="47.53948" lon="-0.97625">
        <ele>59</ele>
        <time>2021-03-25T04:18:36Z</time>
      </trkpt>
      <trkpt lat="47.53935" lon="-0.97647">
        <ele>59</ele>
        <time>2021-03-25T04:18:40Z</time>
      </trkpt>
      <trkpt lat="47.53924" lon="-0.97665">
        <ele>60</ele>
        <time>2021-03-25T04:18:42Z</time>
      </trkpt>
      <trkpt lat="47.53917" lon="-0.97674">
        <ele>60</ele>
        <time>2021-03-25T04:18:44Z</time>
      </trkpt>
      <trkpt lat="47.53909" lon="-0.97683">
        <ele>61</ele>
        <time>2021-03-25T04:18:46Z</time>
      </trkpt>
      <trkpt lat="47.53902" lon="-0.97689">
        <ele>61</ele>
        <time>2021-03-25T04:18:47Z</time>
      </trkpt>
      <trkpt lat="47.53895" lon="-0.97694">
        <ele>61</ele>
        <time>2021-03-25T04:18:49Z</time>
      </trkpt>
      <trkpt lat="47.53886" lon="-0.977">
        <ele>61</ele>
        <time>2021-03-25T04:18:50Z</time>
      </trkpt>
      <trkpt lat="47.53874" lon="-0.97705">
        <ele>61</ele>
        <time>2021-03-25T04:18:53Z</time>
      </trkpt>
      <trkpt lat="47.53854" lon="-0.97713">
        <ele>61</ele>
        <time>2021-03-25T04:18:56Z</time>
      </trkpt>
      <trkpt lat="47.53835" lon="-0.97719">
        <ele>61</ele>
        <time>2021-03-25T04:19:00Z</time>
      </trkpt>
      <trkpt lat="47.53816" lon="-0.97725">
        <ele>61</ele>
        <time>2021-03-25T04:19:03Z</time>
      </trkpt>
      <trkpt lat="47.53804" lon="-0.9773">
        <ele>62</ele>
        <time>2021-03-25T04:19:05Z</time>
      </trkpt>
      <trkpt lat="47.53783" lon="-0.97739">
        <ele>62</ele>
        <time>2021-03-25T04:19:09Z</time>
      </trkpt>
      <trkpt lat="47.53766" lon="-0.97747">
        <ele>62</ele>
        <time>2021-03-25T04:19:13Z</time>
      </trkpt>
      <trkpt lat="47.53747" lon="-0.97758">
        <ele>62</ele>
        <time>2021-03-25T04:19:16Z</time>
      </trkpt>
      <trkpt lat="47.53725" lon="-0.9777">
        <ele>62</ele>
        <time>2021-03-25T04:19:20Z</time>
      </trkpt>
      <trkpt lat="47.53699" lon="-0.97781">
        <ele>61</ele>
        <time>2021-03-25T04:19:25Z</time>
      </trkpt>
      <trkpt lat="47.5367" lon="-0.97792">
        <ele>61</ele>
        <time>2021-03-25T04:19:30Z</time>
      </trkpt>
      <trkpt lat="47.53616" lon="-0.97812">
        <ele>57</ele>
        <time>2021-03-25T04:19:40Z</time>
      </trkpt>
      <trkpt lat="47.53607" lon="-0.97815">
        <ele>56</ele>
        <time>2021-03-25T04:19:42Z</time>
      </trkpt>
      <trkpt lat="47.53599" lon="-0.97817">
        <ele>56</ele>
        <time>2021-03-25T04:19:43Z</time>
      </trkpt>
      <trkpt lat="47.53594" lon="-0.9782">
        <ele>55</ele>
        <time>2021-03-25T04:19:44Z</time>
      </trkpt>
      <trkpt lat="47.53587" lon="-0.97823">
        <ele>55</ele>
        <time>2021-03-25T04:19:46Z</time>
      </trkpt>
      <trkpt lat="47.53581" lon="-0.97826">
        <ele>54</ele>
        <time>2021-03-25T04:19:47Z</time>
      </trkpt>
      <trkpt lat="47.53578" lon="-0.97828">
        <ele>54</ele>
        <time>2021-03-25T04:19:47Z</time>
      </trkpt>
      <trkpt lat="47.53575" lon="-0.97831">
        <ele>54</ele>
        <time>2021-03-25T04:19:48Z</time>
      </trkpt>
      <trkpt lat="47.53572" lon="-0.97835">
        <ele>53</ele>
        <time>2021-03-25T04:19:49Z</time>
      </trkpt>
      <trkpt lat="47.53569" lon="-0.97837">
        <ele>53</ele>
        <time>2021-03-25T04:19:49Z</time>
      </trkpt>
      <trkpt lat="47.53565" lon="-0.97845">
        <ele>53</ele>
        <time>2021-03-25T04:19:51Z</time>
      </trkpt>
      <trkpt lat="47.53561" lon="-0.97852">
        <ele>53</ele>
        <time>2021-03-25T04:19:52Z</time>
      </trkpt>
      <trkpt lat="47.53558" lon="-0.9786">
        <ele>53</ele>
        <time>2021-03-25T04:19:53Z</time>
      </trkpt>
      <trkpt lat="47.53553" lon="-0.97871">
        <ele>53</ele>
        <time>2021-03-25T04:19:54Z</time>
      </trkpt>
      <trkpt lat="47.53546" lon="-0.9789">
        <ele>52</ele>
        <time>2021-03-25T04:19:57Z</time>
      </trkpt>
      <trkpt lat="47.53541" lon="-0.979">
        <ele>52</ele>
        <time>2021-03-25T04:19:58Z</time>
      </trkpt>
      <trkpt lat="47.53537" lon="-0.9791">
        <ele>52</ele>
        <time>2021-03-25T04:20:00Z</time>
      </trkpt>
      <trkpt lat="47.53532" lon="-0.97919">
        <ele>52</ele>
        <time>2021-03-25T04:20:01Z</time>
      </trkpt>
      <trkpt lat="47.53528" lon="-0.97927">
        <ele>52</ele>
        <time>2021-03-25T04:20:02Z</time>
      </trkpt>
      <trkpt lat="47.53523" lon="-0.97936">
        <ele>52</ele>
        <time>2021-03-25T04:20:04Z</time>
      </trkpt>
      <trkpt lat="47.53516" lon="-0.97946">
        <ele>51</ele>
        <time>2021-03-25T04:20:06Z</time>
      </trkpt>
      <trkpt lat="47.53512" lon="-0.97951">
        <ele>51</ele>
        <time>2021-03-25T04:20:07Z</time>
      </trkpt>
      <trkpt lat="47.5351" lon="-0.97954">
        <ele>51</ele>
        <time>2021-03-25T04:20:07Z</time>
      </trkpt>
      <trkpt lat="47.53504" lon="-0.97959">
        <ele>51</ele>
        <time>2021-03-25T04:20:08Z</time>
      </trkpt>
      <trkpt lat="47.53501" lon="-0.97963">
        <ele>51</ele>
        <time>2021-03-25T04:20:09Z</time>
      </trkpt>
      <trkpt lat="47.53498" lon="-0.97965">
        <ele>51</ele>
        <time>2021-03-25T04:20:10Z</time>
      </trkpt>
      <trkpt lat="47.53494" lon="-0.97967">
        <ele>51</ele>
        <time>2021-03-25T04:20:10Z</time>
      </trkpt>
      <trkpt lat="47.5349" lon="-0.97969">
        <ele>51</ele>
        <time>2021-03-25T04:20:11Z</time>
      </trkpt>
      <trkpt lat="47.53478" lon="-0.97971">
        <ele>51</ele>
        <time>2021-03-25T04:20:13Z</time>
      </trkpt>
      <trkpt lat="47.53441" lon="-0.97975">
        <ele>50</ele>
        <time>2021-03-25T04:20:20Z</time>
      </trkpt>
      <trkpt lat="47.53437" lon="-0.97975">
        <ele>50</ele>
        <time>2021-03-25T04:20:21Z</time>
      </trkpt>
      <trkpt lat="47.5339" lon="-0.97983">
        <ele>50</ele>
        <time>2021-03-25T04:20:29Z</time>
      </trkpt>
      <trkpt lat="47.53358" lon="-0.97983">
        <ele>52</ele>
        <time>2021-03-25T04:20:35Z</time>
      </trkpt>
      <trkpt lat="47.5335" lon="-0.97983">
        <ele>52</ele>
        <time>2021-03-25T04:20:36Z</time>
      </trkpt>
      <trkpt lat="47.53316" lon="-0.97982">
        <ele>53</ele>
        <time>2021-03-25T04:20:42Z</time>
      </trkpt>
      <trkpt lat="47.53309" lon="-0.97982">
        <ele>53</ele>
        <time>2021-03-25T04:20:43Z</time>
      </trkpt>
      <trkpt lat="47.53305" lon="-0.97983">
        <ele>53</ele>
        <time>2021-03-25T04:20:44Z</time>
      </trkpt>
      <trkpt lat="47.533" lon="-0.97984">
        <ele>53</ele>
        <time>2021-03-25T04:20:45Z</time>
      </trkpt>
      <trkpt lat="47.53296" lon="-0.97985">
        <ele>53</ele>
        <time>2021-03-25T04:20:46Z</time>
      </trkpt>
      <trkpt lat="47.53292" lon="-0.97987">
        <ele>53</ele>
        <time>2021-03-25T04:20:46Z</time>
      </trkpt>
      <trkpt lat="47.53287" lon="-0.97989">
        <ele>53</ele>
        <time>2021-03-25T04:20:47Z</time>
      </trkpt>
      <trkpt lat="47.53283" lon="-0.97991">
        <ele>53</ele>
        <time>2021-03-25T04:20:48Z</time>
      </trkpt>
      <trkpt lat="47.53279" lon="-0.97994">
        <ele>53</ele>
        <time>2021-03-25T04:20:49Z</time>
      </trkpt>
      <trkpt lat="47.53274" lon="-0.97998">
        <ele>54</ele>
        <time>2021-03-25T04:20:50Z</time>
      </trkpt>
      <trkpt lat="47.53267" lon="-0.98003">
        <ele>54</ele>
        <time>2021-03-25T04:20:51Z</time>
      </trkpt>
      <trkpt lat="47.53257" lon="-0.98011">
        <ele>54</ele>
        <time>2021-03-25T04:20:53Z</time>
      </trkpt>
      <trkpt lat="47.53237" lon="-0.98029">
        <ele>55</ele>
        <time>2021-03-25T04:20:58Z</time>
      </trkpt>
      <trkpt lat="47.53229" lon="-0.98035">
        <ele>55</ele>
        <time>2021-03-25T04:20:59Z</time>
      </trkpt>
      <trkpt lat="47.53206" lon="-0.98056">
        <ele>56</ele>
        <time>2021-03-25T04:21:04Z</time>
      </trkpt>
      <trkpt lat="47.53194" lon="-0.98068">
        <ele>57</ele>
        <time>2021-03-25T04:21:06Z</time>
      </trkpt>
      <trkpt lat="47.53185" lon="-0.98077">
        <ele>57</ele>
        <time>2021-03-25T04:21:08Z</time>
      </trkpt>
      <trkpt lat="47.53165" lon="-0.98097">
        <ele>59</ele>
        <time>2021-03-25T04:21:13Z</time>
      </trkpt>
      <trkpt lat="47.53147" lon="-0.98116">
        <ele>60</ele>
        <time>2021-03-25T04:21:17Z</time>
      </trkpt>
      <trkpt lat="47.53122" lon="-0.98145">
        <ele>61</ele>
        <time>2021-03-25T04:21:22Z</time>
      </trkpt>
      <trkpt lat="47.53095" lon="-0.98175">
        <ele>62</ele>
        <time>2021-03-25T04:21:28Z</time>
      </trkpt>
      <trkpt lat="47.53076" lon="-0.98198">
        <ele>62</ele>
        <time>2021-03-25T04:21:33Z</time>
      </trkpt>
      <trkpt lat="47.53069" lon="-0.98206">
        <ele>62</ele>
        <time>2021-03-25T04:21:34Z</time>
      </trkpt>
      <trkpt lat="47.53063" lon="-0.98214">
        <ele>62</ele>
        <time>2021-03-25T04:21:36Z</time>
      </trkpt>
      <trkpt lat="47.53056" lon="-0.98224">
        <ele>62</ele>
        <time>2021-03-25T04:21:37Z</time>
      </trkpt>
      <trkpt lat="47.5305" lon="-0.98233">
        <ele>62</ele>
        <time>2021-03-25T04:21:39Z</time>
      </trkpt>
      <trkpt lat="47.53044" lon="-0.98243">
        <ele>62</ele>
        <time>2021-03-25T04:21:41Z</time>
      </trkpt>
      <trkpt lat="47.53039" lon="-0.98253">
        <ele>62</ele>
        <time>2021-03-25T04:21:42Z</time>
      </trkpt>
      <trkpt lat="47.53033" lon="-0.98264">
        <ele>63</ele>
        <time>2021-03-25T04:21:44Z</time>
      </trkpt>
      <trkpt lat="47.53029" lon="-0.98273">
        <ele>63</ele>
        <time>2021-03-25T04:21:45Z</time>
      </trkpt>
      <trkpt lat="47.53023" lon="-0.98285">
        <ele>63</ele>
        <time>2021-03-25T04:21:47Z</time>
      </trkpt>
      <trkpt lat="47.53018" lon="-0.98297">
        <ele>63</ele>
        <time>2021-03-25T04:21:49Z</time>
      </trkpt>
      <trkpt lat="47.53013" lon="-0.98307">
        <ele>64</ele>
        <time>2021-03-25T04:21:50Z</time>
      </trkpt>
      <trkpt lat="47.53006" lon="-0.98322">
        <ele>64</ele>
        <time>2021-03-25T04:21:52Z</time>
      </trkpt>
      <trkpt lat="47.52999" lon="-0.98335">
        <ele>64</ele>
        <time>2021-03-25T04:21:54Z</time>
      </trkpt>
      <trkpt lat="47.52993" lon="-0.98346">
        <ele>64</ele>
        <time>2021-03-25T04:21:56Z</time>
      </trkpt>
      <trkpt lat="47.52986" lon="-0.98356">
        <ele>64</ele>
        <time>2021-03-25T04:21:58Z</time>
      </trkpt>
      <trkpt lat="47.5298" lon="-0.98365">
        <ele>63</ele>
        <time>2021-03-25T04:21:59Z</time>
      </trkpt>
      <trkpt lat="47.52974" lon="-0.98373">
        <ele>63</ele>
        <time>2021-03-25T04:22:01Z</time>
      </trkpt>
      <trkpt lat="47.52968" lon="-0.98381">
        <ele>63</ele>
        <time>2021-03-25T04:22:02Z</time>
      </trkpt>
      <trkpt lat="47.52961" lon="-0.98389">
        <ele>63</ele>
        <time>2021-03-25T04:22:04Z</time>
      </trkpt>
      <trkpt lat="47.52952" lon="-0.98399">
        <ele>62</ele>
        <time>2021-03-25T04:22:06Z</time>
      </trkpt>
      <trkpt lat="47.52941" lon="-0.98411">
        <ele>62</ele>
        <time>2021-03-25T04:22:08Z</time>
      </trkpt>
      <trkpt lat="47.52932" lon="-0.9842">
        <ele>62</ele>
        <time>2021-03-25T04:22:10Z</time>
      </trkpt>
      <trkpt lat="47.52918" lon="-0.98433">
        <ele>62</ele>
        <time>2021-03-25T04:22:13Z</time>
      </trkpt>
      <trkpt lat="47.52906" lon="-0.98443">
        <ele>62</ele>
        <time>2021-03-25T04:22:15Z</time>
      </trkpt>
      <trkpt lat="47.52894" lon="-0.98452">
        <ele>62</ele>
        <time>2021-03-25T04:22:18Z</time>
      </trkpt>
      <trkpt lat="47.52882" lon="-0.9846">
        <ele>62</ele>
        <time>2021-03-25T04:22:20Z</time>
      </trkpt>
      <trkpt lat="47.52863" lon="-0.98472">
        <ele>61</ele>
        <time>2021-03-25T04:22:24Z</time>
      </trkpt>
      <trkpt lat="47.52848" lon="-0.98482">
        <ele>61</ele>
        <time>2021-03-25T04:22:27Z</time>
      </trkpt>
      <trkpt lat="47.52834" lon="-0.98491">
        <ele>60</ele>
        <time>2021-03-25T04:22:29Z</time>
      </trkpt>
      <trkpt lat="47.52822" lon="-0.98498">
        <ele>60</ele>
        <time>2021-03-25T04:22:32Z</time>
      </trkpt>
      <trkpt lat="47.52821" lon="-0.98499">
        <ele>60</ele>
        <time>2021-03-25T04:22:32Z</time>
      </trkpt>
      <trkpt lat="47.5282" lon="-0.98499">
        <ele>60</ele>
        <time>2021-03-25T04:22:32Z</time>
      </trkpt>
      <trkpt lat="47.52819" lon="-0.985">
        <ele>60</ele>
        <time>2021-03-25T04:22:32Z</time>
      </trkpt>
      <trkpt lat="47.52809" lon="-0.98503">
        <ele>59</ele>
        <time>2021-03-25T04:22:34Z</time>
      </trkpt>
      <trkpt lat="47.52788" lon="-0.98506">
        <ele>57</ele>
        <time>2021-03-25T04:22:38Z</time>
      </trkpt>
      <trkpt lat="47.52785" lon="-0.98505">
        <ele>56</ele>
        <time>2021-03-25T04:22:38Z</time>
      </trkpt>
      <trkpt lat="47.52776" lon="-0.98503">
        <ele>56</ele>
        <time>2021-03-25T04:22:40Z</time>
      </trkpt>
      <trkpt lat="47.52762" lon="-0.98499">
        <ele>54</ele>
        <time>2021-03-25T04:22:43Z</time>
      </trkpt>
      <trkpt lat="47.5275" lon="-0.98493">
        <ele>53</ele>
        <time>2021-03-25T04:22:45Z</time>
      </trkpt>
      <trkpt lat="47.52708" lon="-0.98462">
        <ele>51</ele>
        <time>2021-03-25T04:22:53Z</time>
      </trkpt>
      <trkpt lat="47.52692" lon="-0.98449">
        <ele>51</ele>
        <time>2021-03-25T04:22:56Z</time>
      </trkpt>
      <trkpt lat="47.5269" lon="-0.98447">
        <ele>51</ele>
        <time>2021-03-25T04:22:57Z</time>
      </trkpt>
      <trkpt lat="47.52685" lon="-0.98443">
        <ele>51</ele>
        <time>2021-03-25T04:22:58Z</time>
      </trkpt>
      <trkpt lat="47.52661" lon="-0.98425">
        <ele>51</ele>
        <time>2021-03-25T04:23:03Z</time>
      </trkpt>
      <trkpt lat="47.52649" lon="-0.98416">
        <ele>52</ele>
        <time>2021-03-25T04:23:05Z</time>
      </trkpt>
      <trkpt lat="47.52642" lon="-0.98415">
        <ele>52</ele>
        <time>2021-03-25T04:23:06Z</time>
      </trkpt>
      <trkpt lat="47.52639" lon="-0.98415">
        <ele>52</ele>
        <time>2021-03-25T04:23:07Z</time>
      </trkpt>
      <trkpt lat="47.52637" lon="-0.98415">
        <ele>52</ele>
        <time>2021-03-25T04:23:07Z</time>
      </trkpt>
      <trkpt lat="47.52635" lon="-0.98415">
        <ele>52</ele>
        <time>2021-03-25T04:23:08Z</time>
      </trkpt>
      <trkpt lat="47.52633" lon="-0.98416">
        <ele>52</ele>
        <time>2021-03-25T04:23:08Z</time>
      </trkpt>
      <trkpt lat="47.52632" lon="-0.98417">
        <ele>52</ele>
        <time>2021-03-25T04:23:08Z</time>
      </trkpt>
      <trkpt lat="47.52618" lon="-0.98425">
        <ele>52</ele>
        <time>2021-03-25T04:23:11Z</time>
      </trkpt>
      <trkpt lat="47.52586" lon="-0.98448">
        <ele>52</ele>
        <time>2021-03-25T04:23:17Z</time>
      </trkpt>
      <trkpt lat="47.52514" lon="-0.985">
        <ele>50</ele>
        <time>2021-03-25T04:23:31Z</time>
      </trkpt>
      <trkpt lat="47.52496" lon="-0.98512">
        <ele>50</ele>
        <time>2021-03-25T04:23:35Z</time>
      </trkpt>
      <trkpt lat="47.52488" lon="-0.98519">
        <ele>50</ele>
        <time>2021-03-25T04:23:37Z</time>
      </trkpt>
      <trkpt lat="47.52479" lon="-0.98526">
        <ele>49</ele>
        <time>2021-03-25T04:23:38Z</time>
      </trkpt>
      <trkpt lat="47.52464" lon="-0.98538">
        <ele>49</ele>
        <time>2021-03-25T04:23:41Z</time>
      </trkpt>
      <trkpt lat="47.52458" lon="-0.98542">
        <ele>50</ele>
        <time>2021-03-25T04:23:43Z</time>
      </trkpt>
      <trkpt lat="47.52447" lon="-0.98549">
        <ele>50</ele>
        <time>2021-03-25T04:23:45Z</time>
      </trkpt>
      <trkpt lat="47.52437" lon="-0.98556">
        <ele>50</ele>
        <time>2021-03-25T04:23:47Z</time>
      </trkpt>
      <trkpt lat="47.52429" lon="-0.9856">
        <ele>50</ele>
        <time>2021-03-25T04:23:48Z</time>
      </trkpt>
      <trkpt lat="47.5242" lon="-0.98565">
        <ele>50</ele>
        <time>2021-03-25T04:23:50Z</time>
      </trkpt>
      <trkpt lat="47.52412" lon="-0.98569">
        <ele>50</ele>
        <time>2021-03-25T04:23:51Z</time>
      </trkpt>
      <trkpt lat="47.52401" lon="-0.98572">
        <ele>51</ele>
        <time>2021-03-25T04:23:53Z</time>
      </trkpt>
      <trkpt lat="47.52388" lon="-0.98574">
        <ele>51</ele>
        <time>2021-03-25T04:23:56Z</time>
      </trkpt>
      <trkpt lat="47.52374" lon="-0.98574">
        <ele>52</ele>
        <time>2021-03-25T04:23:58Z</time>
      </trkpt>
      <trkpt lat="47.52353" lon="-0.98574">
        <ele>53</ele>
        <time>2021-03-25T04:24:02Z</time>
      </trkpt>
      <trkpt lat="47.52324" lon="-0.98573">
        <ele>55</ele>
        <time>2021-03-25T04:24:07Z</time>
      </trkpt>
      <trkpt lat="47.52279" lon="-0.98566">
        <ele>60</ele>
        <time>2021-03-25T04:24:15Z</time>
      </trkpt>
      <trkpt lat="47.5227" lon="-0.98564">
        <ele>61</ele>
        <time>2021-03-25T04:24:17Z</time>
      </trkpt>
      <trkpt lat="47.52259" lon="-0.98562">
        <ele>62</ele>
        <time>2021-03-25T04:24:19Z</time>
      </trkpt>
      <trkpt lat="47.52244" lon="-0.98558">
        <ele>65</ele>
        <time>2021-03-25T04:24:21Z</time>
      </trkpt>
      <trkpt lat="47.52201" lon="-0.98541">
        <ele>73</ele>
        <time>2021-03-25T04:24:29Z</time>
      </trkpt>
      <trkpt lat="47.52191" lon="-0.98536">
        <ele>75</ele>
        <time>2021-03-25T04:24:31Z</time>
      </trkpt>
      <trkpt lat="47.52177" lon="-0.98526">
        <ele>78</ele>
        <time>2021-03-25T04:24:34Z</time>
      </trkpt>
      <trkpt lat="47.52154" lon="-0.98515">
        <ele>81</ele>
        <time>2021-03-25T04:24:38Z</time>
      </trkpt>
      <trkpt lat="47.52143" lon="-0.9851">
        <ele>82</ele>
        <time>2021-03-25T04:24:40Z</time>
      </trkpt>
      <trkpt lat="47.5213" lon="-0.98504">
        <ele>83</ele>
        <time>2021-03-25T04:24:43Z</time>
      </trkpt>
      <trkpt lat="47.52121" lon="-0.985">
        <ele>83</ele>
        <time>2021-03-25T04:24:44Z</time>
      </trkpt>
      <trkpt lat="47.5211" lon="-0.98496">
        <ele>84</ele>
        <time>2021-03-25T04:24:46Z</time>
      </trkpt>
      <trkpt lat="47.52086" lon="-0.98489">
        <ele>86</ele>
        <time>2021-03-25T04:24:51Z</time>
      </trkpt>
      <trkpt lat="47.52065" lon="-0.98485">
        <ele>86</ele>
        <time>2021-03-25T04:24:55Z</time>
      </trkpt>
      <trkpt lat="47.52033" lon="-0.98482">
        <ele>87</ele>
        <time>2021-03-25T04:25:00Z</time>
      </trkpt>
      <trkpt lat="47.52014" lon="-0.98482">
        <ele>88</ele>
        <time>2021-03-25T04:25:04Z</time>
      </trkpt>
      <trkpt lat="47.51993" lon="-0.98482">
        <ele>88</ele>
        <time>2021-03-25T04:25:07Z</time>
      </trkpt>
      <trkpt lat="47.51965" lon="-0.98481">
        <ele>88</ele>
        <time>2021-03-25T04:25:12Z</time>
      </trkpt>
      <trkpt lat="47.51828" lon="-0.98477">
        <ele>79</ele>
        <time>2021-03-25T04:25:37Z</time>
      </trkpt>
      <trkpt lat="47.51825" lon="-0.98478">
        <ele>79</ele>
        <time>2021-03-25T04:25:37Z</time>
      </trkpt>
      <trkpt lat="47.51821" lon="-0.98478">
        <ele>78</ele>
        <time>2021-03-25T04:25:38Z</time>
      </trkpt>
      <trkpt lat="47.51808" lon="-0.98479">
        <ele>76</ele>
        <time>2021-03-25T04:25:40Z</time>
      </trkpt>
      <trkpt lat="47.51802" lon="-0.9848">
        <ele>76</ele>
        <time>2021-03-25T04:25:41Z</time>
      </trkpt>
      <trkpt lat="47.51796" lon="-0.98482">
        <ele>75</ele>
        <time>2021-03-25T04:25:43Z</time>
      </trkpt>
      <trkpt lat="47.51782" lon="-0.98489">
        <ele>73</ele>
        <time>2021-03-25T04:25:45Z</time>
      </trkpt>
      <trkpt lat="47.51763" lon="-0.98498">
        <ele>71</ele>
        <time>2021-03-25T04:25:49Z</time>
      </trkpt>
      <trkpt lat="47.51749" lon="-0.98506">
        <ele>69</ele>
        <time>2021-03-25T04:25:51Z</time>
      </trkpt>
      <trkpt lat="47.51742" lon="-0.9851">
        <ele>68</ele>
        <time>2021-03-25T04:25:53Z</time>
      </trkpt>
      <trkpt lat="47.51735" lon="-0.98513">
        <ele>67</ele>
        <time>2021-03-25T04:25:54Z</time>
      </trkpt>
      <trkpt lat="47.51732" lon="-0.98515">
        <ele>67</ele>
        <time>2021-03-25T04:25:55Z</time>
      </trkpt>
      <trkpt lat="47.51729" lon="-0.98516">
        <ele>66</ele>
        <time>2021-03-25T04:25:55Z</time>
      </trkpt>
      <trkpt lat="47.51725" lon="-0.98518">
        <ele>66</ele>
        <time>2021-03-25T04:25:56Z</time>
      </trkpt>
      <trkpt lat="47.51722" lon="-0.98519">
        <ele>65</ele>
        <time>2021-03-25T04:25:56Z</time>
      </trkpt>
      <trkpt lat="47.51715" lon="-0.98521">
        <ele>64</ele>
        <time>2021-03-25T04:25:58Z</time>
      </trkpt>
      <trkpt lat="47.51705" lon="-0.98521">
        <ele>63</ele>
        <time>2021-03-25T04:25:59Z</time>
      </trkpt>
      <trkpt lat="47.51699" lon="-0.9852">
        <ele>63</ele>
        <time>2021-03-25T04:26:01Z</time>
      </trkpt>
      <trkpt lat="47.51693" lon="-0.98519">
        <ele>62</ele>
        <time>2021-03-25T04:26:02Z</time>
      </trkpt>
      <trkpt lat="47.51689" lon="-0.98518">
        <ele>62</ele>
        <time>2021-03-25T04:26:02Z</time>
      </trkpt>
      <trkpt lat="47.51684" lon="-0.98516">
        <ele>61</ele>
        <time>2021-03-25T04:26:03Z</time>
      </trkpt>
      <trkpt lat="47.51679" lon="-0.98513">
        <ele>61</ele>
        <time>2021-03-25T04:26:04Z</time>
      </trkpt>
      <trkpt lat="47.51675" lon="-0.98511">
        <ele>61</ele>
        <time>2021-03-25T04:26:05Z</time>
      </trkpt>
      <trkpt lat="47.51672" lon="-0.98509">
        <ele>60</ele>
        <time>2021-03-25T04:26:06Z</time>
      </trkpt>
      <trkpt lat="47.51666" lon="-0.98505">
        <ele>60</ele>
        <time>2021-03-25T04:26:07Z</time>
      </trkpt>
      <trkpt lat="47.51661" lon="-0.985">
        <ele>60</ele>
        <time>2021-03-25T04:26:08Z</time>
      </trkpt>
      <trkpt lat="47.51648" lon="-0.98487">
        <ele>59</ele>
        <time>2021-03-25T04:26:11Z</time>
      </trkpt>
      <trkpt lat="47.51631" lon="-0.98467">
        <ele>58</ele>
        <time>2021-03-25T04:26:14Z</time>
      </trkpt>
      <trkpt lat="47.51611" lon="-0.98443">
        <ele>56</ele>
        <time>2021-03-25T04:26:19Z</time>
      </trkpt>
      <trkpt lat="47.516" lon="-0.98431">
        <ele>56</ele>
        <time>2021-03-25T04:26:21Z</time>
      </trkpt>
      <trkpt lat="47.51595" lon="-0.98426">
        <ele>55</ele>
        <time>2021-03-25T04:26:23Z</time>
      </trkpt>
      <trkpt lat="47.5159" lon="-0.98421">
        <ele>55</ele>
        <time>2021-03-25T04:26:24Z</time>
      </trkpt>
      <trkpt lat="47.51585" lon="-0.98417">
        <ele>54</ele>
        <time>2021-03-25T04:26:25Z</time>
      </trkpt>
      <trkpt lat="47.51578" lon="-0.98413">
        <ele>54</ele>
        <time>2021-03-25T04:26:26Z</time>
      </trkpt>
      <trkpt lat="47.5157" lon="-0.98408">
        <ele>54</ele>
        <time>2021-03-25T04:26:28Z</time>
      </trkpt>
      <trkpt lat="47.51559" lon="-0.98405">
        <ele>54</ele>
        <time>2021-03-25T04:26:29Z</time>
      </trkpt>
      <trkpt lat="47.51549" lon="-0.98402">
        <ele>54</ele>
        <time>2021-03-25T04:26:31Z</time>
      </trkpt>
      <trkpt lat="47.51506" lon="-0.98397">
        <ele>54</ele>
        <time>2021-03-25T04:26:39Z</time>
      </trkpt>
      <trkpt lat="47.5143" lon="-0.9839">
        <ele>54</ele>
        <time>2021-03-25T04:26:53Z</time>
      </trkpt>
      <trkpt lat="47.51385" lon="-0.98386">
        <ele>54</ele>
        <time>2021-03-25T04:27:01Z</time>
      </trkpt>
      <trkpt lat="47.51383" lon="-0.98386">
        <ele>54</ele>
        <time>2021-03-25T04:27:01Z</time>
      </trkpt>
      <trkpt lat="47.51353" lon="-0.98381">
        <ele>54</ele>
        <time>2021-03-25T04:27:06Z</time>
      </trkpt>
      <trkpt lat="47.5132" lon="-0.98381">
        <ele>54</ele>
        <time>2021-03-25T04:27:12Z</time>
      </trkpt>
      <trkpt lat="47.51281" lon="-0.98385">
        <ele>55</ele>
        <time>2021-03-25T04:27:19Z</time>
      </trkpt>
      <trkpt lat="47.51254" lon="-0.9839">
        <ele>55</ele>
        <time>2021-03-25T04:27:24Z</time>
      </trkpt>
      <trkpt lat="47.51225" lon="-0.98396">
        <ele>56</ele>
        <time>2021-03-25T04:27:29Z</time>
      </trkpt>
      <trkpt lat="47.51207" lon="-0.98399">
        <ele>56</ele>
        <time>2021-03-25T04:27:32Z</time>
      </trkpt>
      <trkpt lat="47.51189" lon="-0.98401">
        <ele>57</ele>
        <time>2021-03-25T04:27:36Z</time>
      </trkpt>
      <trkpt lat="47.51183" lon="-0.98402">
        <ele>57</ele>
        <time>2021-03-25T04:27:37Z</time>
      </trkpt>
      <trkpt lat="47.51176" lon="-0.98402">
        <ele>57</ele>
        <time>2021-03-25T04:27:38Z</time>
      </trkpt>
      <trkpt lat="47.5117" lon="-0.98401">
        <ele>57</ele>
        <time>2021-03-25T04:27:39Z</time>
      </trkpt>
      <trkpt lat="47.51165" lon="-0.984">
        <ele>57</ele>
        <time>2021-03-25T04:27:40Z</time>
      </trkpt>
      <trkpt lat="47.51158" lon="-0.98399">
        <ele>57</ele>
        <time>2021-03-25T04:27:41Z</time>
      </trkpt>
      <trkpt lat="47.51152" lon="-0.98397">
        <ele>58</ele>
        <time>2021-03-25T04:27:42Z</time>
      </trkpt>
      <trkpt lat="47.51149" lon="-0.98396">
        <ele>58</ele>
        <time>2021-03-25T04:27:43Z</time>
      </trkpt>
      <trkpt lat="47.51146" lon="-0.98394">
        <ele>58</ele>
        <time>2021-03-25T04:27:43Z</time>
      </trkpt>
      <trkpt lat="47.51143" lon="-0.98393">
        <ele>58</ele>
        <time>2021-03-25T04:27:44Z</time>
      </trkpt>
      <trkpt lat="47.5114" lon="-0.98391">
        <ele>58</ele>
        <time>2021-03-25T04:27:45Z</time>
      </trkpt>
      <trkpt lat="47.51133" lon="-0.98386">
        <ele>58</ele>
        <time>2021-03-25T04:27:46Z</time>
      </trkpt>
      <trkpt lat="47.51133" lon="-0.98386">
        <ele>58</ele>
        <time>2021-03-25T04:27:46Z</time>
      </trkpt>
      <trkpt lat="47.51126" lon="-0.9838">
        <ele>58</ele>
        <time>2021-03-25T04:27:47Z</time>
      </trkpt>
      <trkpt lat="47.51119" lon="-0.98375">
        <ele>59</ele>
        <time>2021-03-25T04:27:49Z</time>
      </trkpt>
      <trkpt lat="47.51113" lon="-0.9837">
        <ele>59</ele>
        <time>2021-03-25T04:27:50Z</time>
      </trkpt>
      <trkpt lat="47.51106" lon="-0.98366">
        <ele>59</ele>
        <time>2021-03-25T04:27:51Z</time>
      </trkpt>
      <trkpt lat="47.51084" lon="-0.98354">
        <ele>60</ele>
        <time>2021-03-25T04:27:55Z</time>
      </trkpt>
      <trkpt lat="47.51073" lon="-0.98344">
        <ele>60</ele>
        <time>2021-03-25T04:27:58Z</time>
      </trkpt>
      <trkpt lat="47.5107" lon="-0.98341">
        <ele>59</ele>
        <time>2021-03-25T04:27:58Z</time>
      </trkpt>
      <trkpt lat="47.51067" lon="-0.98338">
        <ele>59</ele>
        <time>2021-03-25T04:27:59Z</time>
      </trkpt>
      <trkpt lat="47.51062" lon="-0.98333">
        <ele>59</ele>
        <time>2021-03-25T04:28:00Z</time>
      </trkpt>
      <trkpt lat="47.5106" lon="-0.9833">
        <ele>59</ele>
        <time>2021-03-25T04:28:01Z</time>
      </trkpt>
      <trkpt lat="47.51058" lon="-0.98328">
        <ele>59</ele>
        <time>2021-03-25T04:28:01Z</time>
      </trkpt>
      <trkpt lat="47.51056" lon="-0.98325">
        <ele>59</ele>
        <time>2021-03-25T04:28:02Z</time>
      </trkpt>
      <trkpt lat="47.51055" lon="-0.98322">
        <ele>59</ele>
        <time>2021-03-25T04:28:02Z</time>
      </trkpt>
      <trkpt lat="47.51053" lon="-0.98318">
        <ele>59</ele>
        <time>2021-03-25T04:28:03Z</time>
      </trkpt>
      <trkpt lat="47.51049" lon="-0.9831">
        <ele>58</ele>
        <time>2021-03-25T04:28:04Z</time>
      </trkpt>
      <trkpt lat="47.5103" lon="-0.98157">
        <ele>57</ele>
        <time>2021-03-25T04:28:22Z</time>
      </trkpt>
      <trkpt lat="47.51022" lon="-0.98108">
        <ele>57</ele>
        <time>2021-03-25T04:28:28Z</time>
      </trkpt>
      <trkpt lat="47.51016" lon="-0.98082">
        <ele>57</ele>
        <time>2021-03-25T04:28:32Z</time>
      </trkpt>
      <trkpt lat="47.51008" lon="-0.98055">
        <ele>57</ele>
        <time>2021-03-25T04:28:35Z</time>
      </trkpt>
      <trkpt lat="47.51003" lon="-0.98038">
        <ele>57</ele>
        <time>2021-03-25T04:28:38Z</time>
      </trkpt>
      <trkpt lat="47.50994" lon="-0.98018">
        <ele>57</ele>
        <time>2021-03-25T04:28:40Z</time>
      </trkpt>
      <trkpt lat="47.50987" lon="-0.9801">
        <ele>57</ele>
        <time>2021-03-25T04:28:42Z</time>
      </trkpt>
      <trkpt lat="47.50968" lon="-0.97979">
        <ele>58</ele>
        <time>2021-03-25T04:28:47Z</time>
      </trkpt>
      <trkpt lat="47.50959" lon="-0.97964">
        <ele>58</ele>
        <time>2021-03-25T04:28:49Z</time>
      </trkpt>
      <trkpt lat="47.50952" lon="-0.97951">
        <ele>58</ele>
        <time>2021-03-25T04:28:51Z</time>
      </trkpt>
      <trkpt lat="47.50884" lon="-0.9786">
        <ele>59</ele>
        <time>2021-03-25T04:29:08Z</time>
      </trkpt>
      <trkpt lat="47.50825" lon="-0.9778">
        <ele>62</ele>
        <time>2021-03-25T04:29:22Z</time>
      </trkpt>
      <trkpt lat="47.50825" lon="-0.9778">
        <ele>62</ele>
        <time>2021-03-25T04:29:22Z</time>
      </trkpt>
      <trkpt lat="47.50844" lon="-0.97746">
        <ele>60</ele>
        <time>2021-03-25T04:29:27Z</time>
      </trkpt>
      <trkpt lat="47.50856" lon="-0.97729">
        <ele>60</ele>
        <time>2021-03-25T04:29:30Z</time>
      </trkpt>
      <trkpt lat="47.50863" lon="-0.9772">
        <ele>59</ele>
        <time>2021-03-25T04:29:32Z</time>
      </trkpt>
      <trkpt lat="47.5087" lon="-0.97712">
        <ele>59</ele>
        <time>2021-03-25T04:29:33Z</time>
      </trkpt>
      <trkpt lat="47.50876" lon="-0.97706">
        <ele>59</ele>
        <time>2021-03-25T04:29:35Z</time>
      </trkpt>
      <trkpt lat="47.50882" lon="-0.97702">
        <ele>58</ele>
        <time>2021-03-25T04:29:36Z</time>
      </trkpt>
      <trkpt lat="47.50891" lon="-0.97696">
        <ele>58</ele>
        <time>2021-03-25T04:29:38Z</time>
      </trkpt>
      <trkpt lat="47.509" lon="-0.97691">
        <ele>57</ele>
        <time>2021-03-25T04:29:39Z</time>
      </trkpt>
      <trkpt lat="47.50947" lon="-0.97666">
        <ele>55</ele>
        <time>2021-03-25T04:29:48Z</time>
      </trkpt>
      <trkpt lat="47.50954" lon="-0.97661">
        <ele>55</ele>
        <time>2021-03-25T04:29:50Z</time>
      </trkpt>
      <trkpt lat="47.50967" lon="-0.97652">
        <ele>55</ele>
        <time>2021-03-25T04:29:52Z</time>
      </trkpt>
      <trkpt lat="47.50962" lon="-0.97612">
        <ele>55</ele>
        <time>2021-03-25T04:29:57Z</time>
      </trkpt>
      <trkpt lat="47.50954" lon="-0.97562">
        <ele>55</ele>
        <time>2021-03-25T04:30:03Z</time>
      </trkpt>
      <trkpt lat="47.50953" lon="-0.97533">
        <ele>56</ele>
        <time>2021-03-25T04:30:07Z</time>
      </trkpt>
      <trkpt lat="47.50951" lon="-0.97506">
        <ele>56</ele>
        <time>2021-03-25T04:30:10Z</time>
      </trkpt>
      <trkpt lat="47.50952" lon="-0.9748">
        <ele>56</ele>
        <time>2021-03-25T04:30:13Z</time>
      </trkpt>
      <trkpt lat="47.50953" lon="-0.97459">
        <ele>56</ele>
        <time>2021-03-25T04:30:16Z</time>
      </trkpt>
      <trkpt lat="47.50955" lon="-0.9743">
        <ele>55</ele>
        <time>2021-03-25T04:30:19Z</time>
      </trkpt>
      <trkpt lat="47.50956" lon="-0.97412">
        <ele>55</ele>
        <time>2021-03-25T04:30:21Z</time>
      </trkpt>
      <trkpt lat="47.50958" lon="-0.97393">
        <ele>55</ele>
        <time>2021-03-25T04:30:24Z</time>
      </trkpt>
      <trkpt lat="47.5096" lon="-0.97377">
        <ele>55</ele>
        <time>2021-03-25T04:30:26Z</time>
      </trkpt>
      <trkpt lat="47.50964" lon="-0.97359">
        <ele>55</ele>
        <time>2021-03-25T04:30:28Z</time>
      </trkpt>
      <trkpt lat="47.50968" lon="-0.97336">
        <ele>55</ele>
        <time>2021-03-25T04:30:31Z</time>
      </trkpt>
      <trkpt lat="47.50976" lon="-0.973">
        <ele>55</ele>
        <time>2021-03-25T04:30:35Z</time>
      </trkpt>
      <trkpt lat="47.50982" lon="-0.97267">
        <ele>55</ele>
        <time>2021-03-25T04:30:39Z</time>
      </trkpt>
      <trkpt lat="47.50986" lon="-0.97237">
        <ele>56</ele>
        <time>2021-03-25T04:30:43Z</time>
      </trkpt>
      <trkpt lat="47.50995" lon="-0.97169">
        <ele>57</ele>
        <time>2021-03-25T04:30:51Z</time>
      </trkpt>
      <trkpt lat="47.51003" lon="-0.97091">
        <ele>57</ele>
        <time>2021-03-25T04:31:01Z</time>
      </trkpt>
      <trkpt lat="47.51014" lon="-0.96987">
        <ele>57</ele>
        <time>2021-03-25T04:31:14Z</time>
      </trkpt>
      <trkpt lat="47.5102" lon="-0.96902">
        <ele>57</ele>
        <time>2021-03-25T04:31:24Z</time>
      </trkpt>
      <trkpt lat="47.51024" lon="-0.96832">
        <ele>57</ele>
        <time>2021-03-25T04:31:32Z</time>
      </trkpt>
      <trkpt lat="47.51029" lon="-0.96792">
        <ele>58</ele>
        <time>2021-03-25T04:31:37Z</time>
      </trkpt>
      <trkpt lat="47.51053" lon="-0.96686">
        <ele>58</ele>
        <time>2021-03-25T04:31:51Z</time>
      </trkpt>
      <trkpt lat="47.51071" lon="-0.96597">
        <ele>58</ele>
        <time>2021-03-25T04:32:02Z</time>
      </trkpt>
      <trkpt lat="47.5108" lon="-0.96561">
        <ele>58</ele>
        <time>2021-03-25T04:32:06Z</time>
      </trkpt>
      <trkpt lat="47.51086" lon="-0.96543">
        <ele>58</ele>
        <time>2021-03-25T04:32:09Z</time>
      </trkpt>
      <trkpt lat="47.51102" lon="-0.96509">
        <ele>59</ele>
        <time>2021-03-25T04:32:14Z</time>
      </trkpt>
      <trkpt lat="47.5114" lon="-0.96432">
        <ele>62</ele>
        <time>2021-03-25T04:32:25Z</time>
      </trkpt>
      <trkpt lat="47.51149" lon="-0.96414">
        <ele>62</ele>
        <time>2021-03-25T04:32:28Z</time>
      </trkpt>
      <trkpt lat="47.51167" lon="-0.96376">
        <ele>64</ele>
        <time>2021-03-25T04:32:34Z</time>
      </trkpt>
      <trkpt lat="47.51204" lon="-0.96299">
        <ele>67</ele>
        <time>2021-03-25T04:32:45Z</time>
      </trkpt>
      <trkpt lat="47.51218" lon="-0.96262">
        <ele>68</ele>
        <time>2021-03-25T04:32:50Z</time>
      </trkpt>
      <trkpt lat="47.51248" lon="-0.96167">
        <ele>71</ele>
        <time>2021-03-25T04:33:03Z</time>
      </trkpt>
      <trkpt lat="47.51265" lon="-0.96111">
        <ele>72</ele>
        <time>2021-03-25T04:33:10Z</time>
      </trkpt>
      <trkpt lat="47.51272" lon="-0.96082">
        <ele>73</ele>
        <time>2021-03-25T04:33:14Z</time>
      </trkpt>
      <trkpt lat="47.51273" lon="-0.96073">
        <ele>73</ele>
        <time>2021-03-25T04:33:15Z</time>
      </trkpt>
      <trkpt lat="47.51273" lon="-0.96065">
        <ele>72</ele>
        <time>2021-03-25T04:33:16Z</time>
      </trkpt>
      <trkpt lat="47.51272" lon="-0.96056">
        <ele>72</ele>
        <time>2021-03-25T04:33:17Z</time>
      </trkpt>
      <trkpt lat="47.5127" lon="-0.96036">
        <ele>72</ele>
        <time>2021-03-25T04:33:19Z</time>
      </trkpt>
      <trkpt lat="47.51219" lon="-0.9567">
        <ele>69</ele>
        <time>2021-03-25T04:34:04Z</time>
      </trkpt>
      <trkpt lat="47.51199" lon="-0.95531">
        <ele>67</ele>
        <time>2021-03-25T04:34:21Z</time>
      </trkpt>
      <trkpt lat="47.51197" lon="-0.95517">
        <ele>67</ele>
        <time>2021-03-25T04:34:23Z</time>
      </trkpt>
      <trkpt lat="47.51169" lon="-0.95314">
        <ele>67</ele>
        <time>2021-03-25T04:34:48Z</time>
      </trkpt>
      <trkpt lat="47.51161" lon="-0.95257">
        <ele>67</ele>
        <time>2021-03-25T04:34:55Z</time>
      </trkpt>
      <trkpt lat="47.5114" lon="-0.95098">
        <ele>69</ele>
        <time>2021-03-25T04:35:14Z</time>
      </trkpt>
      <trkpt lat="47.51134" lon="-0.95053">
        <ele>68</ele>
        <time>2021-03-25T04:35:20Z</time>
      </trkpt>
      <trkpt lat="47.51124" lon="-0.94994">
        <ele>67</ele>
        <time>2021-03-25T04:35:27Z</time>
      </trkpt>
      <trkpt lat="47.51118" lon="-0.94947">
        <ele>66</ele>
        <time>2021-03-25T04:35:33Z</time>
      </trkpt>
      <trkpt lat="47.51104" lon="-0.94831">
        <ele>64</ele>
        <time>2021-03-25T04:35:47Z</time>
      </trkpt>
      <trkpt lat="47.51102" lon="-0.94814">
        <ele>64</ele>
        <time>2021-03-25T04:35:49Z</time>
      </trkpt>
      <trkpt lat="47.511" lon="-0.94798">
        <ele>64</ele>
        <time>2021-03-25T04:35:51Z</time>
      </trkpt>
      <trkpt lat="47.51098" lon="-0.94735">
        <ele>64</ele>
        <time>2021-03-25T04:35:59Z</time>
      </trkpt>
      <trkpt lat="47.51098" lon="-0.94658">
        <ele>62</ele>
        <time>2021-03-25T04:36:08Z</time>
      </trkpt>
      <trkpt lat="47.51099" lon="-0.94578">
        <ele>63</ele>
        <time>2021-03-25T04:36:18Z</time>
      </trkpt>
      <trkpt lat="47.511" lon="-0.94556">
        <ele>64</ele>
        <time>2021-03-25T04:36:20Z</time>
      </trkpt>
      <trkpt lat="47.51102" lon="-0.94531">
        <ele>64</ele>
        <time>2021-03-25T04:36:23Z</time>
      </trkpt>
      <trkpt lat="47.51104" lon="-0.94518">
        <ele>64</ele>
        <time>2021-03-25T04:36:25Z</time>
      </trkpt>
      <trkpt lat="47.51106" lon="-0.94501">
        <ele>65</ele>
        <time>2021-03-25T04:36:27Z</time>
      </trkpt>
      <trkpt lat="47.51109" lon="-0.94482">
        <ele>64</ele>
        <time>2021-03-25T04:36:29Z</time>
      </trkpt>
      <trkpt lat="47.51115" lon="-0.94446">
        <ele>64</ele>
        <time>2021-03-25T04:36:34Z</time>
      </trkpt>
      <trkpt lat="47.51118" lon="-0.94432">
        <ele>64</ele>
        <time>2021-03-25T04:36:35Z</time>
      </trkpt>
      <trkpt lat="47.51121" lon="-0.94418">
        <ele>65</ele>
        <time>2021-03-25T04:36:37Z</time>
      </trkpt>
      <trkpt lat="47.51124" lon="-0.94409">
        <ele>65</ele>
        <time>2021-03-25T04:36:38Z</time>
      </trkpt>
      <trkpt lat="47.51125" lon="-0.94404">
        <ele>65</ele>
        <time>2021-03-25T04:36:39Z</time>
      </trkpt>
      <trkpt lat="47.51127" lon="-0.94398">
        <ele>65</ele>
        <time>2021-03-25T04:36:40Z</time>
      </trkpt>
      <trkpt lat="47.51129" lon="-0.94393">
        <ele>66</ele>
        <time>2021-03-25T04:36:41Z</time>
      </trkpt>
      <trkpt lat="47.51131" lon="-0.94387">
        <ele>66</ele>
        <time>2021-03-25T04:36:41Z</time>
      </trkpt>
      <trkpt lat="47.51134" lon="-0.94382">
        <ele>66</ele>
        <time>2021-03-25T04:36:42Z</time>
      </trkpt>
      <trkpt lat="47.51136" lon="-0.94378">
        <ele>66</ele>
        <time>2021-03-25T04:36:43Z</time>
      </trkpt>
      <trkpt lat="47.51142" lon="-0.9437">
        <ele>67</ele>
        <time>2021-03-25T04:36:44Z</time>
      </trkpt>
      <trkpt lat="47.51179" lon="-0.9432">
        <ele>70</ele>
        <time>2021-03-25T04:36:53Z</time>
      </trkpt>
      <trkpt lat="47.512" lon="-0.94293">
        <ele>72</ele>
        <time>2021-03-25T04:36:58Z</time>
      </trkpt>
      <trkpt lat="47.51222" lon="-0.94261">
        <ele>73</ele>
        <time>2021-03-25T04:37:04Z</time>
      </trkpt>
      <trkpt lat="47.51244" lon="-0.94227">
        <ele>73</ele>
        <time>2021-03-25T04:37:09Z</time>
      </trkpt>
      <trkpt lat="47.51249" lon="-0.94217">
        <ele>74</ele>
        <time>2021-03-25T04:37:11Z</time>
      </trkpt>
      <trkpt lat="47.51253" lon="-0.94211">
        <ele>74</ele>
        <time>2021-03-25T04:37:12Z</time>
      </trkpt>
      <trkpt lat="47.51272" lon="-0.94173">
        <ele>75</ele>
        <time>2021-03-25T04:37:17Z</time>
      </trkpt>
      <trkpt lat="47.51313" lon="-0.94092">
        <ele>79</ele>
        <time>2021-03-25T04:37:30Z</time>
      </trkpt>
      <trkpt lat="47.51316" lon="-0.94085">
        <ele>80</ele>
        <time>2021-03-25T04:37:31Z</time>
      </trkpt>
      <trkpt lat="47.51318" lon="-0.94077">
        <ele>80</ele>
        <time>2021-03-25T04:37:32Z</time>
      </trkpt>
      <trkpt lat="47.51321" lon="-0.94065">
        <ele>80</ele>
        <time>2021-03-25T04:37:33Z</time>
      </trkpt>
      <trkpt lat="47.51323" lon="-0.94054">
        <ele>80</ele>
        <time>2021-03-25T04:37:34Z</time>
      </trkpt>
      <trkpt lat="47.51325" lon="-0.9404">
        <ele>80</ele>
        <time>2021-03-25T04:37:36Z</time>
      </trkpt>
      <trkpt lat="47.51332" lon="-0.93926">
        <ele>81</ele>
        <time>2021-03-25T04:37:50Z</time>
      </trkpt>
      <trkpt lat="47.51338" lon="-0.93821">
        <ele>82</ele>
        <time>2021-03-25T04:38:03Z</time>
      </trkpt>
      <trkpt lat="47.5134" lon="-0.93779">
        <ele>83</ele>
        <time>2021-03-25T04:38:08Z</time>
      </trkpt>
      <trkpt lat="47.51341" lon="-0.93765">
        <ele>83</ele>
        <time>2021-03-25T04:38:09Z</time>
      </trkpt>
      <trkpt lat="47.51343" lon="-0.93734">
        <ele>84</ele>
        <time>2021-03-25T04:38:13Z</time>
      </trkpt>
      <trkpt lat="47.51345" lon="-0.93702">
        <ele>84</ele>
        <time>2021-03-25T04:38:17Z</time>
      </trkpt>
      <trkpt lat="47.51348" lon="-0.93675">
        <ele>84</ele>
        <time>2021-03-25T04:38:20Z</time>
      </trkpt>
      <trkpt lat="47.51367" lon="-0.93505">
        <ele>84</ele>
        <time>2021-03-25T04:38:41Z</time>
      </trkpt>
      <trkpt lat="47.51374" lon="-0.93464">
        <ele>85</ele>
        <time>2021-03-25T04:38:46Z</time>
      </trkpt>
      <trkpt lat="47.51389" lon="-0.93413">
        <ele>85</ele>
        <time>2021-03-25T04:38:53Z</time>
      </trkpt>
      <trkpt lat="47.51395" lon="-0.93394">
        <ele>85</ele>
        <time>2021-03-25T04:38:55Z</time>
      </trkpt>
      <trkpt lat="47.514" lon="-0.93374">
        <ele>85</ele>
        <time>2021-03-25T04:38:58Z</time>
      </trkpt>
      <trkpt lat="47.51404" lon="-0.93354">
        <ele>84</ele>
        <time>2021-03-25T04:39:00Z</time>
      </trkpt>
      <trkpt lat="47.51411" lon="-0.93282">
        <ele>83</ele>
        <time>2021-03-25T04:39:09Z</time>
      </trkpt>
      <trkpt lat="47.51422" lon="-0.9315">
        <ele>81</ele>
        <time>2021-03-25T04:39:25Z</time>
      </trkpt>
      <trkpt lat="47.51421" lon="-0.93123">
        <ele>81</ele>
        <time>2021-03-25T04:39:28Z</time>
      </trkpt>
      <trkpt lat="47.51412" lon="-0.92982">
        <ele>79</ele>
        <time>2021-03-25T04:39:45Z</time>
      </trkpt>
      <trkpt lat="47.51411" lon="-0.92973">
        <ele>79</ele>
        <time>2021-03-25T04:39:46Z</time>
      </trkpt>
      <trkpt lat="47.51411" lon="-0.92951">
        <ele>78</ele>
        <time>2021-03-25T04:39:49Z</time>
      </trkpt>
      <trkpt lat="47.5141" lon="-0.92899">
        <ele>78</ele>
        <time>2021-03-25T04:39:55Z</time>
      </trkpt>
      <trkpt lat="47.5141" lon="-0.92836">
        <ele>78</ele>
        <time>2021-03-25T04:40:03Z</time>
      </trkpt>
      <trkpt lat="47.51409" lon="-0.92786">
        <ele>79</ele>
        <time>2021-03-25T04:40:09Z</time>
      </trkpt>
      <trkpt lat="47.51407" lon="-0.92744">
        <ele>79</ele>
        <time>2021-03-25T04:40:14Z</time>
      </trkpt>
      <trkpt lat="47.51406" lon="-0.92693">
        <ele>80</ele>
        <time>2021-03-25T04:40:20Z</time>
      </trkpt>
      <trkpt lat="47.51406" lon="-0.92641">
        <ele>80</ele>
        <time>2021-03-25T04:40:26Z</time>
      </trkpt>
      <trkpt lat="47.51408" lon="-0.92592">
        <ele>81</ele>
        <time>2021-03-25T04:40:32Z</time>
      </trkpt>
      <trkpt lat="47.51419" lon="-0.92375">
        <ele>83</ele>
        <time>2021-03-25T04:40:58Z</time>
      </trkpt>
      <trkpt lat="47.51422" lon="-0.92338">
        <ele>83</ele>
        <time>2021-03-25T04:41:03Z</time>
      </trkpt>
      <trkpt lat="47.51422" lon="-0.92314">
        <ele>83</ele>
        <time>2021-03-25T04:41:06Z</time>
      </trkpt>
      <trkpt lat="47.51426" lon="-0.92248">
        <ele>82</ele>
        <time>2021-03-25T04:41:14Z</time>
      </trkpt>
      <trkpt lat="47.51426" lon="-0.92243">
        <ele>82</ele>
        <time>2021-03-25T04:41:14Z</time>
      </trkpt>
      <trkpt lat="47.51433" lon="-0.92106">
        <ele>84</ele>
        <time>2021-03-25T04:41:31Z</time>
      </trkpt>
      <trkpt lat="47.51433" lon="-0.92094">
        <ele>85</ele>
        <time>2021-03-25T04:41:32Z</time>
      </trkpt>
      <trkpt lat="47.51432" lon="-0.92035">
        <ele>85</ele>
        <time>2021-03-25T04:41:39Z</time>
      </trkpt>
      <trkpt lat="47.51425" lon="-0.91894">
        <ele>85</ele>
        <time>2021-03-25T04:41:56Z</time>
      </trkpt>
      <trkpt lat="47.51424" lon="-0.91884">
        <ele>85</ele>
        <time>2021-03-25T04:41:58Z</time>
      </trkpt>
      <trkpt lat="47.51425" lon="-0.91875">
        <ele>85</ele>
        <time>2021-03-25T04:41:59Z</time>
      </trkpt>
      <trkpt lat="47.51429" lon="-0.91857">
        <ele>85</ele>
        <time>2021-03-25T04:42:01Z</time>
      </trkpt>
      <trkpt lat="47.51434" lon="-0.91838">
        <ele>85</ele>
        <time>2021-03-25T04:42:03Z</time>
      </trkpt>
      <trkpt lat="47.51438" lon="-0.91819">
        <ele>85</ele>
        <time>2021-03-25T04:42:06Z</time>
      </trkpt>
      <trkpt lat="47.51444" lon="-0.91793">
        <ele>84</ele>
        <time>2021-03-25T04:42:09Z</time>
      </trkpt>
      <trkpt lat="47.51451" lon="-0.91765">
        <ele>84</ele>
        <time>2021-03-25T04:42:13Z</time>
      </trkpt>
      <trkpt lat="47.51459" lon="-0.91738">
        <ele>84</ele>
        <time>2021-03-25T04:42:16Z</time>
      </trkpt>
      <trkpt lat="47.51465" lon="-0.91719">
        <ele>84</ele>
        <time>2021-03-25T04:42:19Z</time>
      </trkpt>
      <trkpt lat="47.51508" lon="-0.91592">
        <ele>85</ele>
        <time>2021-03-25T04:42:36Z</time>
      </trkpt>
      <trkpt lat="47.51534" lon="-0.91516">
        <ele>84</ele>
        <time>2021-03-25T04:42:46Z</time>
      </trkpt>
      <trkpt lat="47.51579" lon="-0.91382">
        <ele>85</ele>
        <time>2021-03-25T04:43:04Z</time>
      </trkpt>
      <trkpt lat="47.51623" lon="-0.91248">
        <ele>84</ele>
        <time>2021-03-25T04:43:22Z</time>
      </trkpt>
      <trkpt lat="47.51625" lon="-0.91239">
        <ele>84</ele>
        <time>2021-03-25T04:43:23Z</time>
      </trkpt>
      <trkpt lat="47.51628" lon="-0.9123">
        <ele>84</ele>
        <time>2021-03-25T04:43:24Z</time>
      </trkpt>
      <trkpt lat="47.51631" lon="-0.91219">
        <ele>84</ele>
        <time>2021-03-25T04:43:26Z</time>
      </trkpt>
      <trkpt lat="47.51634" lon="-0.91204">
        <ele>84</ele>
        <time>2021-03-25T04:43:28Z</time>
      </trkpt>
      <trkpt lat="47.51648" lon="-0.9111">
        <ele>83</ele>
        <time>2021-03-25T04:43:39Z</time>
      </trkpt>
      <trkpt lat="47.51655" lon="-0.91051">
        <ele>83</ele>
        <time>2021-03-25T04:43:46Z</time>
      </trkpt>
      <trkpt lat="47.51657" lon="-0.91035">
        <ele>83</ele>
        <time>2021-03-25T04:43:48Z</time>
      </trkpt>
      <trkpt lat="47.51659" lon="-0.91028">
        <ele>82</ele>
        <time>2021-03-25T04:43:49Z</time>
      </trkpt>
      <trkpt lat="47.5166" lon="-0.91021">
        <ele>82</ele>
        <time>2021-03-25T04:43:50Z</time>
      </trkpt>
      <trkpt lat="47.51662" lon="-0.91013">
        <ele>82</ele>
        <time>2021-03-25T04:43:51Z</time>
      </trkpt>
      <trkpt lat="47.51664" lon="-0.91008">
        <ele>82</ele>
        <time>2021-03-25T04:43:52Z</time>
      </trkpt>
      <trkpt lat="47.5167" lon="-0.9099">
        <ele>82</ele>
        <time>2021-03-25T04:43:54Z</time>
      </trkpt>
      <trkpt lat="47.51682" lon="-0.90957">
        <ele>82</ele>
        <time>2021-03-25T04:43:59Z</time>
      </trkpt>
      <trkpt lat="47.51716" lon="-0.90887">
        <ele>82</ele>
        <time>2021-03-25T04:44:09Z</time>
      </trkpt>
      <trkpt lat="47.51736" lon="-0.90852">
        <ele>82</ele>
        <time>2021-03-25T04:44:15Z</time>
      </trkpt>
      <trkpt lat="47.51781" lon="-0.90783">
        <ele>78</ele>
        <time>2021-03-25T04:44:26Z</time>
      </trkpt>
      <trkpt lat="47.51833" lon="-0.90677">
        <ele>74</ele>
        <time>2021-03-25T04:44:42Z</time>
      </trkpt>
      <trkpt lat="47.51873" lon="-0.906">
        <ele>72</ele>
        <time>2021-03-25T04:44:54Z</time>
      </trkpt>
      <trkpt lat="47.51881" lon="-0.90586">
        <ele>71</ele>
        <time>2021-03-25T04:44:56Z</time>
      </trkpt>
      <trkpt lat="47.51887" lon="-0.90571">
        <ele>71</ele>
        <time>2021-03-25T04:44:58Z</time>
      </trkpt>
      <trkpt lat="47.51893" lon="-0.90556">
        <ele>71</ele>
        <time>2021-03-25T04:45:00Z</time>
      </trkpt>
      <trkpt lat="47.51904" lon="-0.90526">
        <ele>70</ele>
        <time>2021-03-25T04:45:04Z</time>
      </trkpt>
      <trkpt lat="47.51909" lon="-0.9051">
        <ele>69</ele>
        <time>2021-03-25T04:45:06Z</time>
      </trkpt>
      <trkpt lat="47.51919" lon="-0.90479">
        <ele>69</ele>
        <time>2021-03-25T04:45:10Z</time>
      </trkpt>
      <trkpt lat="47.51927" lon="-0.90452">
        <ele>69</ele>
        <time>2021-03-25T04:45:14Z</time>
      </trkpt>
      <trkpt lat="47.51937" lon="-0.90415">
        <ele>68</ele>
        <time>2021-03-25T04:45:19Z</time>
      </trkpt>
      <trkpt lat="47.51946" lon="-0.90382">
        <ele>67</ele>
        <time>2021-03-25T04:45:23Z</time>
      </trkpt>
      <trkpt lat="47.51951" lon="-0.90366">
        <ele>67</ele>
        <time>2021-03-25T04:45:25Z</time>
      </trkpt>
      <trkpt lat="47.5196" lon="-0.90333">
        <ele>66</ele>
        <time>2021-03-25T04:45:29Z</time>
      </trkpt>
      <trkpt lat="47.51974" lon="-0.90283">
        <ele>65</ele>
        <time>2021-03-25T04:45:36Z</time>
      </trkpt>
      <trkpt lat="47.51988" lon="-0.90233">
        <ele>64</ele>
        <time>2021-03-25T04:45:42Z</time>
      </trkpt>
      <trkpt lat="47.51997" lon="-0.90199">
        <ele>63</ele>
        <time>2021-03-25T04:45:47Z</time>
      </trkpt>
      <trkpt lat="47.52004" lon="-0.90174">
        <ele>63</ele>
        <time>2021-03-25T04:45:50Z</time>
      </trkpt>
      <trkpt lat="47.52009" lon="-0.9015">
        <ele>63</ele>
        <time>2021-03-25T04:45:53Z</time>
      </trkpt>
      <trkpt lat="47.52014" lon="-0.90133">
        <ele>63</ele>
        <time>2021-03-25T04:45:55Z</time>
      </trkpt>
      <trkpt lat="47.52017" lon="-0.90117">
        <ele>63</ele>
        <time>2021-03-25T04:45:57Z</time>
      </trkpt>
      <trkpt lat="47.52024" lon="-0.90084">
        <ele>62</ele>
        <time>2021-03-25T04:46:01Z</time>
      </trkpt>
      <trkpt lat="47.5203" lon="-0.90051">
        <ele>62</ele>
        <time>2021-03-25T04:46:05Z</time>
      </trkpt>
      <trkpt lat="47.52041" lon="-0.90004">
        <ele>62</ele>
        <time>2021-03-25T04:46:11Z</time>
      </trkpt>
      <trkpt lat="47.52052" lon="-0.89958">
        <ele>61</ele>
        <time>2021-03-25T04:46:17Z</time>
      </trkpt>
      <trkpt lat="47.52062" lon="-0.89914">
        <ele>61</ele>
        <time>2021-03-25T04:46:23Z</time>
      </trkpt>
      <trkpt lat="47.52074" lon="-0.89872">
        <ele>61</ele>
        <time>2021-03-25T04:46:28Z</time>
      </trkpt>
      <trkpt lat="47.52086" lon="-0.89833">
        <ele>61</ele>
        <time>2021-03-25T04:46:33Z</time>
      </trkpt>
      <trkpt lat="47.5209" lon="-0.89823">
        <ele>61</ele>
        <time>2021-03-25T04:46:35Z</time>
      </trkpt>
      <trkpt lat="47.52094" lon="-0.89805">
        <ele>61</ele>
        <time>2021-03-25T04:46:37Z</time>
      </trkpt>
      <trkpt lat="47.52096" lon="-0.8979">
        <ele>60</ele>
        <time>2021-03-25T04:46:39Z</time>
      </trkpt>
      <trkpt lat="47.52097" lon="-0.89776">
        <ele>60</ele>
        <time>2021-03-25T04:46:41Z</time>
      </trkpt>
      <trkpt lat="47.52097" lon="-0.8976">
        <ele>60</ele>
        <time>2021-03-25T04:46:43Z</time>
      </trkpt>
      <trkpt lat="47.52098" lon="-0.89713">
        <ele>60</ele>
        <time>2021-03-25T04:46:48Z</time>
      </trkpt>
      <trkpt lat="47.52099" lon="-0.89697">
        <ele>60</ele>
        <time>2021-03-25T04:46:50Z</time>
      </trkpt>
      <trkpt lat="47.521" lon="-0.89681">
        <ele>60</ele>
        <time>2021-03-25T04:46:52Z</time>
      </trkpt>
      <trkpt lat="47.52101" lon="-0.89671">
        <ele>60</ele>
        <time>2021-03-25T04:46:53Z</time>
      </trkpt>
      <trkpt lat="47.52103" lon="-0.89657">
        <ele>60</ele>
        <time>2021-03-25T04:46:55Z</time>
      </trkpt>
      <trkpt lat="47.52105" lon="-0.89647">
        <ele>60</ele>
        <time>2021-03-25T04:46:56Z</time>
      </trkpt>
      <trkpt lat="47.5211" lon="-0.89629">
        <ele>61</ele>
        <time>2021-03-25T04:46:59Z</time>
      </trkpt>
      <trkpt lat="47.52115" lon="-0.89615">
        <ele>61</ele>
        <time>2021-03-25T04:47:01Z</time>
      </trkpt>
      <trkpt lat="47.5212" lon="-0.89602">
        <ele>61</ele>
        <time>2021-03-25T04:47:02Z</time>
      </trkpt>
      <trkpt lat="47.52127" lon="-0.89585">
        <ele>61</ele>
        <time>2021-03-25T04:47:05Z</time>
      </trkpt>
      <trkpt lat="47.52135" lon="-0.89567">
        <ele>62</ele>
        <time>2021-03-25T04:47:07Z</time>
      </trkpt>
      <trkpt lat="47.52139" lon="-0.89556">
        <ele>62</ele>
        <time>2021-03-25T04:47:09Z</time>
      </trkpt>
      <trkpt lat="47.52146" lon="-0.89539">
        <ele>62</ele>
        <time>2021-03-25T04:47:11Z</time>
      </trkpt>
      <trkpt lat="47.52151" lon="-0.89518">
        <ele>62</ele>
        <time>2021-03-25T04:47:14Z</time>
      </trkpt>
      <trkpt lat="47.52154" lon="-0.89505">
        <ele>62</ele>
        <time>2021-03-25T04:47:16Z</time>
      </trkpt>
      <trkpt lat="47.52157" lon="-0.89492">
        <ele>62</ele>
        <time>2021-03-25T04:47:17Z</time>
      </trkpt>
      <trkpt lat="47.52159" lon="-0.89478">
        <ele>62</ele>
        <time>2021-03-25T04:47:19Z</time>
      </trkpt>
      <trkpt lat="47.52162" lon="-0.89466">
        <ele>62</ele>
        <time>2021-03-25T04:47:20Z</time>
      </trkpt>
      <trkpt lat="47.52164" lon="-0.89453">
        <ele>62</ele>
        <time>2021-03-25T04:47:22Z</time>
      </trkpt>
      <trkpt lat="47.52166" lon="-0.89438">
        <ele>62</ele>
        <time>2021-03-25T04:47:24Z</time>
      </trkpt>
      <trkpt lat="47.52171" lon="-0.89397">
        <ele>63</ele>
        <time>2021-03-25T04:47:29Z</time>
      </trkpt>
      <trkpt lat="47.52173" lon="-0.89383">
        <ele>63</ele>
        <time>2021-03-25T04:47:31Z</time>
      </trkpt>
      <trkpt lat="47.52174" lon="-0.89369">
        <ele>64</ele>
        <time>2021-03-25T04:47:32Z</time>
      </trkpt>
      <trkpt lat="47.52176" lon="-0.89344">
        <ele>65</ele>
        <time>2021-03-25T04:47:35Z</time>
      </trkpt>
      <trkpt lat="47.52179" lon="-0.89307">
        <ele>65</ele>
        <time>2021-03-25T04:47:40Z</time>
      </trkpt>
      <trkpt lat="47.5218" lon="-0.89292">
        <ele>65</ele>
        <time>2021-03-25T04:47:42Z</time>
      </trkpt>
      <trkpt lat="47.52184" lon="-0.89267">
        <ele>65</ele>
        <time>2021-03-25T04:47:45Z</time>
      </trkpt>
      <trkpt lat="47.52204" lon="-0.89136">
        <ele>67</ele>
        <time>2021-03-25T04:48:01Z</time>
      </trkpt>
      <trkpt lat="47.52206" lon="-0.89112">
        <ele>68</ele>
        <time>2021-03-25T04:48:04Z</time>
      </trkpt>
      <trkpt lat="47.52206" lon="-0.891">
        <ele>68</ele>
        <time>2021-03-25T04:48:05Z</time>
      </trkpt>
      <trkpt lat="47.52206" lon="-0.891">
        <ele>68</ele>
        <time>2021-03-25T04:48:05Z</time>
      </trkpt>
      <trkpt lat="47.52205" lon="-0.891">
        <ele>68</ele>
        <time>2021-03-25T04:48:05Z</time>
      </trkpt>
      <trkpt lat="47.52204" lon="-0.89099">
        <ele>69</ele>
        <time>2021-03-25T04:48:06Z</time>
      </trkpt>
      <trkpt lat="47.52203" lon="-0.89099">
        <ele>69</ele>
        <time>2021-03-25T04:48:06Z</time>
      </trkpt>
      <trkpt lat="47.52203" lon="-0.89098">
        <ele>69</ele>
        <time>2021-03-25T04:48:06Z</time>
      </trkpt>
      <trkpt lat="47.52202" lon="-0.89097">
        <ele>69</ele>
        <time>2021-03-25T04:48:06Z</time>
      </trkpt>
      <trkpt lat="47.52202" lon="-0.89096">
        <ele>69</ele>
        <time>2021-03-25T04:48:06Z</time>
      </trkpt>
      <trkpt lat="47.52201" lon="-0.89094">
        <ele>69</ele>
        <time>2021-03-25T04:48:07Z</time>
      </trkpt>
      <trkpt lat="47.52201" lon="-0.89091">
        <ele>69</ele>
        <time>2021-03-25T04:48:07Z</time>
      </trkpt>
      <trkpt lat="47.52202" lon="-0.89089">
        <ele>69</ele>
        <time>2021-03-25T04:48:07Z</time>
      </trkpt>
      <trkpt lat="47.52203" lon="-0.89087">
        <ele>69</ele>
        <time>2021-03-25T04:48:07Z</time>
      </trkpt>
      <trkpt lat="47.52204" lon="-0.89086">
        <ele>69</ele>
        <time>2021-03-25T04:48:08Z</time>
      </trkpt>
      <trkpt lat="47.52205" lon="-0.89085">
        <ele>69</ele>
        <time>2021-03-25T04:48:08Z</time>
      </trkpt>
      <trkpt lat="47.52206" lon="-0.89085">
        <ele>69</ele>
        <time>2021-03-25T04:48:08Z</time>
      </trkpt>
      <trkpt lat="47.52207" lon="-0.89085">
        <ele>69</ele>
        <time>2021-03-25T04:48:08Z</time>
      </trkpt>
      <trkpt lat="47.52208" lon="-0.89085">
        <ele>69</ele>
        <time>2021-03-25T04:48:08Z</time>
      </trkpt>
      <trkpt lat="47.52209" lon="-0.89086">
        <ele>69</ele>
        <time>2021-03-25T04:48:09Z</time>
      </trkpt>
      <trkpt lat="47.5221" lon="-0.89087">
        <ele>69</ele>
        <time>2021-03-25T04:48:09Z</time>
      </trkpt>
      <trkpt lat="47.52211" lon="-0.89089">
        <ele>69</ele>
        <time>2021-03-25T04:48:09Z</time>
      </trkpt>
      <trkpt lat="47.52211" lon="-0.8909">
        <ele>68</ele>
        <time>2021-03-25T04:48:09Z</time>
      </trkpt>
      <trkpt lat="47.52211" lon="-0.89092">
        <ele>68</ele>
        <time>2021-03-25T04:48:10Z</time>
      </trkpt>
      <trkpt lat="47.52211" lon="-0.89093">
        <ele>68</ele>
        <time>2021-03-25T04:48:10Z</time>
      </trkpt>
      <trkpt lat="47.52224" lon="-0.89099">
        <ele>67</ele>
        <time>2021-03-25T04:48:12Z</time>
      </trkpt>
      <trkpt lat="47.52238" lon="-0.89109">
        <ele>66</ele>
        <time>2021-03-25T04:48:15Z</time>
      </trkpt>
      <trkpt lat="47.52249" lon="-0.89119">
        <ele>65</ele>
        <time>2021-03-25T04:48:17Z</time>
      </trkpt>
      <trkpt lat="47.52259" lon="-0.89132">
        <ele>64</ele>
        <time>2021-03-25T04:48:20Z</time>
      </trkpt>
      <trkpt lat="47.52274" lon="-0.89151">
        <ele>63</ele>
        <time>2021-03-25T04:48:23Z</time>
      </trkpt>
      <trkpt lat="47.52284" lon="-0.89165">
        <ele>63</ele>
        <time>2021-03-25T04:48:25Z</time>
      </trkpt>
      <trkpt lat="47.52308" lon="-0.89194">
        <ele>62</ele>
        <time>2021-03-25T04:48:31Z</time>
      </trkpt>
      <trkpt lat="47.5231" lon="-0.89197">
        <ele>61</ele>
        <time>2021-03-25T04:48:31Z</time>
      </trkpt>
      <trkpt lat="47.52312" lon="-0.89199">
        <ele>61</ele>
        <time>2021-03-25T04:48:32Z</time>
      </trkpt>
      <trkpt lat="47.52315" lon="-0.89201">
        <ele>61</ele>
        <time>2021-03-25T04:48:33Z</time>
      </trkpt>
      <trkpt lat="47.52316" lon="-0.89202">
        <ele>61</ele>
        <time>2021-03-25T04:48:33Z</time>
      </trkpt>
      <trkpt lat="47.52318" lon="-0.89203">
        <ele>61</ele>
        <time>2021-03-25T04:48:33Z</time>
      </trkpt>
      <trkpt lat="47.5232" lon="-0.89203">
        <ele>61</ele>
        <time>2021-03-25T04:48:33Z</time>
      </trkpt>
      <trkpt lat="47.52321" lon="-0.89204">
        <ele>61</ele>
        <time>2021-03-25T04:48:34Z</time>
      </trkpt>
      <trkpt lat="47.52335" lon="-0.89196">
        <ele>61</ele>
        <time>2021-03-25T04:48:36Z</time>
      </trkpt>
      <trkpt lat="47.52335" lon="-0.89196">
        <ele>61</ele>
        <time>2021-03-25T04:48:36Z</time>
      </trkpt>
      <trkpt lat="47.52335" lon="-0.89195">
        <ele>61</ele>
        <time>2021-03-25T04:48:36Z</time>
      </trkpt>
      <trkpt lat="47.52336" lon="-0.89194">
        <ele>61</ele>
        <time>2021-03-25T04:48:37Z</time>
      </trkpt>
      <trkpt lat="47.52336" lon="-0.89193">
        <ele>61</ele>
        <time>2021-03-25T04:48:37Z</time>
      </trkpt>
      <trkpt lat="47.52336" lon="-0.89192">
        <ele>61</ele>
        <time>2021-03-25T04:48:37Z</time>
      </trkpt>
      <trkpt lat="47.52336" lon="-0.89191">
        <ele>61</ele>
        <time>2021-03-25T04:48:37Z</time>
      </trkpt>
      <trkpt lat="47.52337" lon="-0.8919">
        <ele>61</ele>
        <time>2021-03-25T04:48:37Z</time>
      </trkpt>
      <trkpt lat="47.52338" lon="-0.89189">
        <ele>61</ele>
        <time>2021-03-25T04:48:37Z</time>
      </trkpt>
      <trkpt lat="47.52333" lon="-0.89164">
        <ele>61</ele>
        <time>2021-03-25T04:48:41Z</time>
      </trkpt>
      <trkpt lat="47.52326" lon="-0.89143">
        <ele>62</ele>
        <time>2021-03-25T04:48:43Z</time>
      </trkpt>
      <trkpt lat="47.52319" lon="-0.89116">
        <ele>62</ele>
        <time>2021-03-25T04:48:47Z</time>
      </trkpt>
      <trkpt lat="47.52243" lon="-0.88854">
        <ele>72</ele>
        <time>2021-03-25T04:49:21Z</time>
      </trkpt>
      <trkpt lat="47.52242" lon="-0.88849">
        <ele>73</ele>
        <time>2021-03-25T04:49:22Z</time>
      </trkpt>
      <trkpt lat="47.5224" lon="-0.88844">
        <ele>73</ele>
        <time>2021-03-25T04:49:22Z</time>
      </trkpt>
      <trkpt lat="47.5224" lon="-0.8884">
        <ele>73</ele>
        <time>2021-03-25T04:49:23Z</time>
      </trkpt>
      <trkpt lat="47.52239" lon="-0.88829">
        <ele>74</ele>
        <time>2021-03-25T04:49:24Z</time>
      </trkpt>
      <trkpt lat="47.52238" lon="-0.88818">
        <ele>74</ele>
        <time>2021-03-25T04:49:26Z</time>
      </trkpt>
      <trkpt lat="47.52236" lon="-0.88801">
        <ele>74</ele>
        <time>2021-03-25T04:49:28Z</time>
      </trkpt>
      <trkpt lat="47.52234" lon="-0.88781">
        <ele>75</ele>
        <time>2021-03-25T04:49:30Z</time>
      </trkpt>
      <trkpt lat="47.52233" lon="-0.88778">
        <ele>75</ele>
        <time>2021-03-25T04:49:31Z</time>
      </trkpt>
      <trkpt lat="47.52233" lon="-0.88776">
        <ele>75</ele>
        <time>2021-03-25T04:49:31Z</time>
      </trkpt>
      <trkpt lat="47.52233" lon="-0.88773">
        <ele>75</ele>
        <time>2021-03-25T04:49:31Z</time>
      </trkpt>
      <trkpt lat="47.52233" lon="-0.88772">
        <ele>75</ele>
        <time>2021-03-25T04:49:31Z</time>
      </trkpt>
      <trkpt lat="47.52233" lon="-0.8877">
        <ele>75</ele>
        <time>2021-03-25T04:49:31Z</time>
      </trkpt>
      <trkpt lat="47.52233" lon="-0.88767">
        <ele>75</ele>
        <time>2021-03-25T04:49:32Z</time>
      </trkpt>
      <trkpt lat="47.52233" lon="-0.88763">
        <ele>75</ele>
        <time>2021-03-25T04:49:32Z</time>
      </trkpt>
      <trkpt lat="47.52233" lon="-0.88759">
        <ele>75</ele>
        <time>2021-03-25T04:49:33Z</time>
      </trkpt>
      <trkpt lat="47.52233" lon="-0.88755">
        <ele>75</ele>
        <time>2021-03-25T04:49:33Z</time>
      </trkpt>
      <trkpt lat="47.52232" lon="-0.88749">
        <ele>76</ele>
        <time>2021-03-25T04:49:34Z</time>
      </trkpt>
      <trkpt lat="47.5223" lon="-0.88725">
        <ele>76</ele>
        <time>2021-03-25T04:49:37Z</time>
      </trkpt>
      <trkpt lat="47.52224" lon="-0.88675">
        <ele>78</ele>
        <time>2021-03-25T04:49:43Z</time>
      </trkpt>
      <trkpt lat="47.52217" lon="-0.88616">
        <ele>79</ele>
        <time>2021-03-25T04:49:50Z</time>
      </trkpt>
      <trkpt lat="47.52216" lon="-0.88607">
        <ele>79</ele>
        <time>2021-03-25T04:49:51Z</time>
      </trkpt>
      <trkpt lat="47.52216" lon="-0.886">
        <ele>79</ele>
        <time>2021-03-25T04:49:52Z</time>
      </trkpt>
      <trkpt lat="47.52216" lon="-0.88598">
        <ele>79</ele>
        <time>2021-03-25T04:49:52Z</time>
      </trkpt>
      <trkpt lat="47.52215" lon="-0.88597">
        <ele>79</ele>
        <time>2021-03-25T04:49:53Z</time>
      </trkpt>
      <trkpt lat="47.52215" lon="-0.88596">
        <ele>79</ele>
        <time>2021-03-25T04:49:53Z</time>
      </trkpt>
      <trkpt lat="47.52214" lon="-0.88593">
        <ele>79</ele>
        <time>2021-03-25T04:49:53Z</time>
      </trkpt>
      <trkpt lat="47.52213" lon="-0.88591">
        <ele>80</ele>
        <time>2021-03-25T04:49:53Z</time>
      </trkpt>
      <trkpt lat="47.52212" lon="-0.88589">
        <ele>80</ele>
        <time>2021-03-25T04:49:54Z</time>
      </trkpt>
      <trkpt lat="47.5221" lon="-0.88587">
        <ele>80</ele>
        <time>2021-03-25T04:49:54Z</time>
      </trkpt>
      <trkpt lat="47.52209" lon="-0.88585">
        <ele>80</ele>
        <time>2021-03-25T04:49:54Z</time>
      </trkpt>
      <trkpt lat="47.52207" lon="-0.88583">
        <ele>80</ele>
        <time>2021-03-25T04:49:55Z</time>
      </trkpt>
      <trkpt lat="47.52203" lon="-0.88581">
        <ele>80</ele>
        <time>2021-03-25T04:49:56Z</time>
      </trkpt>
      <trkpt lat="47.5219" lon="-0.88575">
        <ele>82</ele>
        <time>2021-03-25T04:49:58Z</time>
      </trkpt>
      <trkpt lat="47.52184" lon="-0.88572">
        <ele>82</ele>
        <time>2021-03-25T04:49:59Z</time>
      </trkpt>
      <trkpt lat="47.52165" lon="-0.88562">
        <ele>83</ele>
        <time>2021-03-25T04:50:03Z</time>
      </trkpt>
      <trkpt lat="47.52165" lon="-0.88562">
        <ele>83</ele>
        <time>2021-03-25T04:50:03Z</time>
      </trkpt>
      <trkpt lat="47.52166" lon="-0.88555">
        <ele>83</ele>
        <time>2021-03-25T04:50:04Z</time>
      </trkpt>
      <trkpt lat="47.52166" lon="-0.8855">
        <ele>83</ele>
        <time>2021-03-25T04:50:04Z</time>
      </trkpt>
      <trkpt lat="47.52171" lon="-0.88518">
        <ele>84</ele>
        <time>2021-03-25T04:50:08Z</time>
      </trkpt>
      <trkpt lat="47.52176" lon="-0.88485">
        <ele>83</ele>
        <time>2021-03-25T04:50:12Z</time>
      </trkpt>
      <trkpt lat="47.5218" lon="-0.88469">
        <ele>83</ele>
        <time>2021-03-25T04:50:14Z</time>
      </trkpt>
      <trkpt lat="47.52185" lon="-0.88456">
        <ele>83</ele>
        <time>2021-03-25T04:50:16Z</time>
      </trkpt>
      <trkpt lat="47.52185" lon="-0.88456">
        <ele>83</ele>
        <time>2021-03-25T04:50:16Z</time>
      </trkpt>
      <trkpt lat="47.52191" lon="-0.88445">
        <ele>83</ele>
        <time>2021-03-25T04:50:18Z</time>
      </trkpt>
      <trkpt lat="47.52206" lon="-0.88426">
        <ele>82</ele>
        <time>2021-03-25T04:50:21Z</time>
      </trkpt>
      <trkpt lat="47.5221" lon="-0.8842">
        <ele>83</ele>
        <time>2021-03-25T04:50:22Z</time>
      </trkpt>
      <trkpt lat="47.52256" lon="-0.88349">
        <ele>82</ele>
        <time>2021-03-25T04:50:34Z</time>
      </trkpt>
      <trkpt lat="47.52264" lon="-0.88337">
        <ele>81</ele>
        <time>2021-03-25T04:50:36Z</time>
      </trkpt>
      <trkpt lat="47.52266" lon="-0.88334">
        <ele>81</ele>
        <time>2021-03-25T04:50:37Z</time>
      </trkpt>
      <trkpt lat="47.52268" lon="-0.88329">
        <ele>80</ele>
        <time>2021-03-25T04:50:37Z</time>
      </trkpt>
      <trkpt lat="47.5228" lon="-0.88296">
        <ele>79</ele>
        <time>2021-03-25T04:50:42Z</time>
      </trkpt>
      <trkpt lat="47.52294" lon="-0.88254">
        <ele>77</ele>
        <time>2021-03-25T04:50:48Z</time>
      </trkpt>
      <trkpt lat="47.52306" lon="-0.88219">
        <ele>76</ele>
        <time>2021-03-25T04:50:52Z</time>
      </trkpt>
      <trkpt lat="47.52307" lon="-0.88215">
        <ele>76</ele>
        <time>2021-03-25T04:50:53Z</time>
      </trkpt>
      <trkpt lat="47.52309" lon="-0.88206">
        <ele>76</ele>
        <time>2021-03-25T04:50:54Z</time>
      </trkpt>
      <trkpt lat="47.52313" lon="-0.88179">
        <ele>76</ele>
        <time>2021-03-25T04:50:57Z</time>
      </trkpt>
      <trkpt lat="47.52316" lon="-0.88146">
        <ele>75</ele>
        <time>2021-03-25T04:51:01Z</time>
      </trkpt>
      <trkpt lat="47.52322" lon="-0.88103">
        <ele>74</ele>
        <time>2021-03-25T04:51:06Z</time>
      </trkpt>
      <trkpt lat="47.52326" lon="-0.88081">
        <ele>73</ele>
        <time>2021-03-25T04:51:09Z</time>
      </trkpt>
      <trkpt lat="47.52332" lon="-0.88051">
        <ele>72</ele>
        <time>2021-03-25T04:51:13Z</time>
      </trkpt>
      <trkpt lat="47.52337" lon="-0.8803">
        <ele>71</ele>
        <time>2021-03-25T04:51:16Z</time>
      </trkpt>
      <trkpt lat="47.52345" lon="-0.88008">
        <ele>70</ele>
        <time>2021-03-25T04:51:19Z</time>
      </trkpt>
      <trkpt lat="47.52352" lon="-0.87988">
        <ele>69</ele>
        <time>2021-03-25T04:51:21Z</time>
      </trkpt>
      <trkpt lat="47.52373" lon="-0.87932">
        <ele>68</ele>
        <time>2021-03-25T04:51:29Z</time>
      </trkpt>
      <trkpt lat="47.52376" lon="-0.87921">
        <ele>68</ele>
        <time>2021-03-25T04:51:30Z</time>
      </trkpt>
      <trkpt lat="47.52382" lon="-0.87903">
        <ele>68</ele>
        <time>2021-03-25T04:51:33Z</time>
      </trkpt>
      <trkpt lat="47.52391" lon="-0.87875">
        <ele>68</ele>
        <time>2021-03-25T04:51:37Z</time>
      </trkpt>
      <trkpt lat="47.52397" lon="-0.87859">
        <ele>68</ele>
        <time>2021-03-25T04:51:39Z</time>
      </trkpt>
      <trkpt lat="47.52404" lon="-0.87844">
        <ele>68</ele>
        <time>2021-03-25T04:51:41Z</time>
      </trkpt>
      <trkpt lat="47.52412" lon="-0.87829">
        <ele>68</ele>
        <time>2021-03-25T04:51:43Z</time>
      </trkpt>
      <trkpt lat="47.52424" lon="-0.87805">
        <ele>68</ele>
        <time>2021-03-25T04:51:47Z</time>
      </trkpt>
      <trkpt lat="47.52436" lon="-0.87781">
        <ele>68</ele>
        <time>2021-03-25T04:51:50Z</time>
      </trkpt>
      <trkpt lat="47.52442" lon="-0.87771">
        <ele>67</ele>
        <time>2021-03-25T04:51:52Z</time>
      </trkpt>
      <trkpt lat="47.52456" lon="-0.87748">
        <ele>67</ele>
        <time>2021-03-25T04:51:56Z</time>
      </trkpt>
      <trkpt lat="47.52474" lon="-0.87717">
        <ele>68</ele>
        <time>2021-03-25T04:52:01Z</time>
      </trkpt>
      <trkpt lat="47.52488" lon="-0.87694">
        <ele>68</ele>
        <time>2021-03-25T04:52:04Z</time>
      </trkpt>
      <trkpt lat="47.52495" lon="-0.87684">
        <ele>68</ele>
        <time>2021-03-25T04:52:06Z</time>
      </trkpt>
      <trkpt lat="47.52518" lon="-0.87647">
        <ele>68</ele>
        <time>2021-03-25T04:52:12Z</time>
      </trkpt>
      <trkpt lat="47.52552" lon="-0.87592">
        <ele>67</ele>
        <time>2021-03-25T04:52:21Z</time>
      </trkpt>
      <trkpt lat="47.52565" lon="-0.87571">
        <ele>67</ele>
        <time>2021-03-25T04:52:25Z</time>
      </trkpt>
      <trkpt lat="47.52569" lon="-0.87565">
        <ele>67</ele>
        <time>2021-03-25T04:52:26Z</time>
      </trkpt>
      <trkpt lat="47.52625" lon="-0.87476">
        <ele>65</ele>
        <time>2021-03-25T04:52:40Z</time>
      </trkpt>
      <trkpt lat="47.52637" lon="-0.87455">
        <ele>65</ele>
        <time>2021-03-25T04:52:44Z</time>
      </trkpt>
      <trkpt lat="47.52648" lon="-0.8743">
        <ele>65</ele>
        <time>2021-03-25T04:52:47Z</time>
      </trkpt>
      <trkpt lat="47.52651" lon="-0.87423">
        <ele>65</ele>
        <time>2021-03-25T04:52:48Z</time>
      </trkpt>
      <trkpt lat="47.52654" lon="-0.87413">
        <ele>65</ele>
        <time>2021-03-25T04:52:49Z</time>
      </trkpt>
      <trkpt lat="47.52669" lon="-0.87375">
        <ele>65</ele>
        <time>2021-03-25T04:52:55Z</time>
      </trkpt>
      <trkpt lat="47.52685" lon="-0.87329">
        <ele>64</ele>
        <time>2021-03-25T04:53:01Z</time>
      </trkpt>
      <trkpt lat="47.52705" lon="-0.87274">
        <ele>65</ele>
        <time>2021-03-25T04:53:08Z</time>
      </trkpt>
      <trkpt lat="47.52715" lon="-0.87251">
        <ele>66</ele>
        <time>2021-03-25T04:53:12Z</time>
      </trkpt>
      <trkpt lat="47.52739" lon="-0.87198">
        <ele>66</ele>
        <time>2021-03-25T04:53:19Z</time>
      </trkpt>
      <trkpt lat="47.52745" lon="-0.87185">
        <ele>66</ele>
        <time>2021-03-25T04:53:21Z</time>
      </trkpt>
      <trkpt lat="47.52846" lon="-0.86955">
        <ele>66</ele>
        <time>2021-03-25T04:53:54Z</time>
      </trkpt>
      <trkpt lat="47.52846" lon="-0.86955">
        <ele>66</ele>
        <time>2021-03-25T04:53:54Z</time>
      </trkpt>
      <trkpt lat="47.52863" lon="-0.86916">
        <ele>66</ele>
        <time>2021-03-25T04:54:00Z</time>
      </trkpt>
      <trkpt lat="47.52915" lon="-0.86793">
        <ele>69</ele>
        <time>2021-03-25T04:54:17Z</time>
      </trkpt>
      <trkpt lat="47.5295" lon="-0.86694">
        <ele>69</ele>
        <time>2021-03-25T04:54:31Z</time>
      </trkpt>
      <trkpt lat="47.52967" lon="-0.86642">
        <ele>69</ele>
        <time>2021-03-25T04:54:38Z</time>
      </trkpt>
      <trkpt lat="47.52977" lon="-0.86608">
        <ele>70</ele>
        <time>2021-03-25T04:54:42Z</time>
      </trkpt>
      <trkpt lat="47.5298" lon="-0.86584">
        <ele>70</ele>
        <time>2021-03-25T04:54:45Z</time>
      </trkpt>
      <trkpt lat="47.52981" lon="-0.86569">
        <ele>70</ele>
        <time>2021-03-25T04:54:47Z</time>
      </trkpt>
      <trkpt lat="47.52981" lon="-0.86557">
        <ele>70</ele>
        <time>2021-03-25T04:54:48Z</time>
      </trkpt>
      <trkpt lat="47.5298" lon="-0.8652">
        <ele>70</ele>
        <time>2021-03-25T04:54:53Z</time>
      </trkpt>
      <trkpt lat="47.52977" lon="-0.86468">
        <ele>71</ele>
        <time>2021-03-25T04:54:59Z</time>
      </trkpt>
      <trkpt lat="47.52976" lon="-0.86457">
        <ele>71</ele>
        <time>2021-03-25T04:55:00Z</time>
      </trkpt>
      <trkpt lat="47.52977" lon="-0.86446">
        <ele>71</ele>
        <time>2021-03-25T04:55:02Z</time>
      </trkpt>
      <trkpt lat="47.52979" lon="-0.86423">
        <ele>71</ele>
        <time>2021-03-25T04:55:04Z</time>
      </trkpt>
      <trkpt lat="47.5298" lon="-0.86414">
        <ele>71</ele>
        <time>2021-03-25T04:55:06Z</time>
      </trkpt>
      <trkpt lat="47.52989" lon="-0.86366">
        <ele>71</ele>
        <time>2021-03-25T04:55:12Z</time>
      </trkpt>
      <trkpt lat="47.5299" lon="-0.86358">
        <ele>71</ele>
        <time>2021-03-25T04:55:13Z</time>
      </trkpt>
      <trkpt lat="47.52995" lon="-0.86304">
        <ele>71</ele>
        <time>2021-03-25T04:55:19Z</time>
      </trkpt>
      <trkpt lat="47.52998" lon="-0.86114">
        <ele>73</ele>
        <time>2021-03-25T04:55:42Z</time>
      </trkpt>
      <trkpt lat="47.52998" lon="-0.86096">
        <ele>74</ele>
        <time>2021-03-25T04:55:44Z</time>
      </trkpt>
      <trkpt lat="47.52999" lon="-0.86047">
        <ele>75</ele>
        <time>2021-03-25T04:55:50Z</time>
      </trkpt>
      <trkpt lat="47.53" lon="-0.86031">
        <ele>76</ele>
        <time>2021-03-25T04:55:52Z</time>
      </trkpt>
      <trkpt lat="47.53002" lon="-0.86016">
        <ele>76</ele>
        <time>2021-03-25T04:55:54Z</time>
      </trkpt>
      <trkpt lat="47.53004" lon="-0.86003">
        <ele>77</ele>
        <time>2021-03-25T04:55:55Z</time>
      </trkpt>
      <trkpt lat="47.53008" lon="-0.85986">
        <ele>77</ele>
        <time>2021-03-25T04:55:57Z</time>
      </trkpt>
      <trkpt lat="47.53015" lon="-0.85964">
        <ele>77</ele>
        <time>2021-03-25T04:56:00Z</time>
      </trkpt>
      <trkpt lat="47.53025" lon="-0.85935">
        <ele>76</ele>
        <time>2021-03-25T04:56:04Z</time>
      </trkpt>
      <trkpt lat="47.53031" lon="-0.85917">
        <ele>76</ele>
        <time>2021-03-25T04:56:07Z</time>
      </trkpt>
      <trkpt lat="47.53033" lon="-0.85904">
        <ele>76</ele>
        <time>2021-03-25T04:56:08Z</time>
      </trkpt>
      <trkpt lat="47.53036" lon="-0.85889">
        <ele>76</ele>
        <time>2021-03-25T04:56:10Z</time>
      </trkpt>
      <trkpt lat="47.53037" lon="-0.85877">
        <ele>76</ele>
        <time>2021-03-25T04:56:12Z</time>
      </trkpt>
      <trkpt lat="47.53037" lon="-0.85865">
        <ele>77</ele>
        <time>2021-03-25T04:56:13Z</time>
      </trkpt>
      <trkpt lat="47.53035" lon="-0.85842">
        <ele>77</ele>
        <time>2021-03-25T04:56:16Z</time>
      </trkpt>
      <trkpt lat="47.53031" lon="-0.85804">
        <ele>77</ele>
        <time>2021-03-25T04:56:20Z</time>
      </trkpt>
      <trkpt lat="47.53026" lon="-0.85769">
        <ele>76</ele>
        <time>2021-03-25T04:56:25Z</time>
      </trkpt>
      <trkpt lat="47.53018" lon="-0.85721">
        <ele>76</ele>
        <time>2021-03-25T04:56:31Z</time>
      </trkpt>
      <trkpt lat="47.53009" lon="-0.85674">
        <ele>75</ele>
        <time>2021-03-25T04:56:37Z</time>
      </trkpt>
      <trkpt lat="47.53003" lon="-0.85639">
        <ele>74</ele>
        <time>2021-03-25T04:56:41Z</time>
      </trkpt>
      <trkpt lat="47.53" lon="-0.85617">
        <ele>74</ele>
        <time>2021-03-25T04:56:44Z</time>
      </trkpt>
      <trkpt lat="47.52998" lon="-0.85589">
        <ele>73</ele>
        <time>2021-03-25T04:56:47Z</time>
      </trkpt>
      <trkpt lat="47.52998" lon="-0.85557">
        <ele>72</ele>
        <time>2021-03-25T04:56:51Z</time>
      </trkpt>
      <trkpt lat="47.52998" lon="-0.85529">
        <ele>72</ele>
        <time>2021-03-25T04:56:54Z</time>
      </trkpt>
      <trkpt lat="47.53" lon="-0.8549">
        <ele>71</ele>
        <time>2021-03-25T04:56:59Z</time>
      </trkpt>
      <trkpt lat="47.53003" lon="-0.85453">
        <ele>72</ele>
        <time>2021-03-25T04:57:03Z</time>
      </trkpt>
      <trkpt lat="47.53008" lon="-0.85412">
        <ele>72</ele>
        <time>2021-03-25T04:57:08Z</time>
      </trkpt>
      <trkpt lat="47.53012" lon="-0.85383">
        <ele>72</ele>
        <time>2021-03-25T04:57:12Z</time>
      </trkpt>
      <trkpt lat="47.53021" lon="-0.85318">
        <ele>73</ele>
        <time>2021-03-25T04:57:20Z</time>
      </trkpt>
      <trkpt lat="47.53024" lon="-0.85299">
        <ele>73</ele>
        <time>2021-03-25T04:57:22Z</time>
      </trkpt>
      <trkpt lat="47.53027" lon="-0.85264">
        <ele>73</ele>
        <time>2021-03-25T04:57:27Z</time>
      </trkpt>
      <trkpt lat="47.5303" lon="-0.85222">
        <ele>74</ele>
        <time>2021-03-25T04:57:32Z</time>
      </trkpt>
      <trkpt lat="47.53031" lon="-0.85176">
        <ele>75</ele>
        <time>2021-03-25T04:57:37Z</time>
      </trkpt>
      <trkpt lat="47.53031" lon="-0.8514">
        <ele>75</ele>
        <time>2021-03-25T04:57:41Z</time>
      </trkpt>
      <trkpt lat="47.53031" lon="-0.85131">
        <ele>75</ele>
        <time>2021-03-25T04:57:43Z</time>
      </trkpt>
      <trkpt lat="47.53034" lon="-0.85071">
        <ele>76</ele>
        <time>2021-03-25T04:57:50Z</time>
      </trkpt>
      <trkpt lat="47.53037" lon="-0.85027">
        <ele>76</ele>
        <time>2021-03-25T04:57:55Z</time>
      </trkpt>
      <trkpt lat="47.53039" lon="-0.84967">
        <ele>77</ele>
        <time>2021-03-25T04:58:02Z</time>
      </trkpt>
      <trkpt lat="47.5304" lon="-0.84946">
        <ele>78</ele>
        <time>2021-03-25T04:58:05Z</time>
      </trkpt>
      <trkpt lat="47.5304" lon="-0.8494">
        <ele>78</ele>
        <time>2021-03-25T04:58:06Z</time>
      </trkpt>
      <trkpt lat="47.53042" lon="-0.84921">
        <ele>78</ele>
        <time>2021-03-25T04:58:08Z</time>
      </trkpt>
      <trkpt lat="47.53049" lon="-0.84859">
        <ele>79</ele>
        <time>2021-03-25T04:58:15Z</time>
      </trkpt>
      <trkpt lat="47.53056" lon="-0.84793">
        <ele>80</ele>
        <time>2021-03-25T04:58:23Z</time>
      </trkpt>
      <trkpt lat="47.53059" lon="-0.84752">
        <ele>80</ele>
        <time>2021-03-25T04:58:28Z</time>
      </trkpt>
      <trkpt lat="47.53061" lon="-0.84709">
        <ele>81</ele>
        <time>2021-03-25T04:58:34Z</time>
      </trkpt>
      <trkpt lat="47.53061" lon="-0.84675">
        <ele>81</ele>
        <time>2021-03-25T04:58:38Z</time>
      </trkpt>
      <trkpt lat="47.53059" lon="-0.84645">
        <ele>81</ele>
        <time>2021-03-25T04:58:41Z</time>
      </trkpt>
      <trkpt lat="47.53058" lon="-0.84628">
        <ele>81</ele>
        <time>2021-03-25T04:58:43Z</time>
      </trkpt>
      <trkpt lat="47.53057" lon="-0.84617">
        <ele>81</ele>
        <time>2021-03-25T04:58:45Z</time>
      </trkpt>
      <trkpt lat="47.53057" lon="-0.84605">
        <ele>81</ele>
        <time>2021-03-25T04:58:46Z</time>
      </trkpt>
      <trkpt lat="47.53057" lon="-0.84596">
        <ele>81</ele>
        <time>2021-03-25T04:58:47Z</time>
      </trkpt>
      <trkpt lat="47.53057" lon="-0.84594">
        <ele>81</ele>
        <time>2021-03-25T04:58:47Z</time>
      </trkpt>
      <trkpt lat="47.53057" lon="-0.84594">
        <ele>81</ele>
        <time>2021-03-25T04:58:47Z</time>
      </trkpt>
      <trkpt lat="47.53053" lon="-0.84588">
        <ele>81</ele>
        <time>2021-03-25T04:58:48Z</time>
      </trkpt>
      <trkpt lat="47.53052" lon="-0.84587">
        <ele>81</ele>
        <time>2021-03-25T04:58:49Z</time>
      </trkpt>
      <trkpt lat="47.53052" lon="-0.84586">
        <ele>81</ele>
        <time>2021-03-25T04:58:49Z</time>
      </trkpt>
      <trkpt lat="47.5305" lon="-0.84584">
        <ele>81</ele>
        <time>2021-03-25T04:58:49Z</time>
      </trkpt>
      <trkpt lat="47.53047" lon="-0.84582">
        <ele>81</ele>
        <time>2021-03-25T04:58:50Z</time>
      </trkpt>
      <trkpt lat="47.53044" lon="-0.8458">
        <ele>81</ele>
        <time>2021-03-25T04:58:50Z</time>
      </trkpt>
      <trkpt lat="47.53043" lon="-0.84579">
        <ele>81</ele>
        <time>2021-03-25T04:58:51Z</time>
      </trkpt>
      <trkpt lat="47.5304" lon="-0.84576">
        <ele>81</ele>
        <time>2021-03-25T04:58:51Z</time>
      </trkpt>
      <trkpt lat="47.53038" lon="-0.84574">
        <ele>81</ele>
        <time>2021-03-25T04:58:52Z</time>
      </trkpt>
      <trkpt lat="47.53037" lon="-0.84572">
        <ele>81</ele>
        <time>2021-03-25T04:58:52Z</time>
      </trkpt>
      <trkpt lat="47.53036" lon="-0.84571">
        <ele>81</ele>
        <time>2021-03-25T04:58:52Z</time>
      </trkpt>
      <trkpt lat="47.53034" lon="-0.84566">
        <ele>81</ele>
        <time>2021-03-25T04:58:53Z</time>
      </trkpt>
      <trkpt lat="47.53027" lon="-0.84559">
        <ele>81</ele>
        <time>2021-03-25T04:58:54Z</time>
      </trkpt>
      <trkpt lat="47.53019" lon="-0.84549">
        <ele>81</ele>
        <time>2021-03-25T04:58:56Z</time>
      </trkpt>
      <trkpt lat="47.53012" lon="-0.84537">
        <ele>81</ele>
        <time>2021-03-25T04:58:58Z</time>
      </trkpt>
      <trkpt lat="47.53007" lon="-0.84526">
        <ele>80</ele>
        <time>2021-03-25T04:59:00Z</time>
      </trkpt>
      <trkpt lat="47.53001" lon="-0.84509">
        <ele>80</ele>
        <time>2021-03-25T04:59:02Z</time>
      </trkpt>
      <trkpt lat="47.52996" lon="-0.84485">
        <ele>79</ele>
        <time>2021-03-25T04:59:05Z</time>
      </trkpt>
      <trkpt lat="47.52987" lon="-0.84431">
        <ele>78</ele>
        <time>2021-03-25T04:59:12Z</time>
      </trkpt>
      <trkpt lat="47.52986" lon="-0.84424">
        <ele>78</ele>
        <time>2021-03-25T04:59:13Z</time>
      </trkpt>
      <trkpt lat="47.52947" lon="-0.84177">
        <ele>75</ele>
        <time>2021-03-25T04:59:43Z</time>
      </trkpt>
      <trkpt lat="47.52941" lon="-0.84141">
        <ele>74</ele>
        <time>2021-03-25T04:59:48Z</time>
      </trkpt>
      <trkpt lat="47.5294" lon="-0.84137">
        <ele>74</ele>
        <time>2021-03-25T04:59:48Z</time>
      </trkpt>
      <trkpt lat="47.5293" lon="-0.84077">
        <ele>73</ele>
        <time>2021-03-25T04:59:55Z</time>
      </trkpt>
      <trkpt lat="47.52927" lon="-0.84059">
        <ele>72</ele>
        <time>2021-03-25T04:59:58Z</time>
      </trkpt>
      <trkpt lat="47.52912" lon="-0.83915">
        <ele>69</ele>
        <time>2021-03-25T05:00:15Z</time>
      </trkpt>
      <trkpt lat="47.52906" lon="-0.83878">
        <ele>69</ele>
        <time>2021-03-25T05:00:20Z</time>
      </trkpt>
      <trkpt lat="47.52906" lon="-0.83875">
        <ele>69</ele>
        <time>2021-03-25T05:00:20Z</time>
      </trkpt>
      <trkpt lat="47.52904" lon="-0.83867">
        <ele>69</ele>
        <time>2021-03-25T05:00:21Z</time>
      </trkpt>
      <trkpt lat="47.529" lon="-0.83838">
        <ele>69</ele>
        <time>2021-03-25T05:00:25Z</time>
      </trkpt>
      <trkpt lat="47.52886" lon="-0.83775">
        <ele>68</ele>
        <time>2021-03-25T05:00:33Z</time>
      </trkpt>
      <trkpt lat="47.52876" lon="-0.83734">
        <ele>67</ele>
        <time>2021-03-25T05:00:38Z</time>
      </trkpt>
      <trkpt lat="47.5287" lon="-0.83711">
        <ele>66</ele>
        <time>2021-03-25T05:00:41Z</time>
      </trkpt>
      <trkpt lat="47.52856" lon="-0.83666">
        <ele>65</ele>
        <time>2021-03-25T05:00:47Z</time>
      </trkpt>
      <trkpt lat="47.52844" lon="-0.8363">
        <ele>66</ele>
        <time>2021-03-25T05:00:52Z</time>
      </trkpt>
      <trkpt lat="47.5282" lon="-0.8355">
        <ele>66</ele>
        <time>2021-03-25T05:01:02Z</time>
      </trkpt>
      <trkpt lat="47.52813" lon="-0.83521">
        <ele>66</ele>
        <time>2021-03-25T05:01:06Z</time>
      </trkpt>
      <trkpt lat="47.52811" lon="-0.83502">
        <ele>66</ele>
        <time>2021-03-25T05:01:08Z</time>
      </trkpt>
      <trkpt lat="47.5281" lon="-0.83485">
        <ele>66</ele>
        <time>2021-03-25T05:01:10Z</time>
      </trkpt>
      <trkpt lat="47.5281" lon="-0.83467">
        <ele>66</ele>
        <time>2021-03-25T05:01:12Z</time>
      </trkpt>
      <trkpt lat="47.52812" lon="-0.83451">
        <ele>66</ele>
        <time>2021-03-25T05:01:14Z</time>
      </trkpt>
      <trkpt lat="47.52822" lon="-0.83352">
        <ele>67</ele>
        <time>2021-03-25T05:01:26Z</time>
      </trkpt>
      <trkpt lat="47.52832" lon="-0.83255">
        <ele>67</ele>
        <time>2021-03-25T05:01:38Z</time>
      </trkpt>
      <trkpt lat="47.52837" lon="-0.83206">
        <ele>66</ele>
        <time>2021-03-25T05:01:44Z</time>
      </trkpt>
      <trkpt lat="47.52844" lon="-0.83133">
        <ele>65</ele>
        <time>2021-03-25T05:01:53Z</time>
      </trkpt>
      <trkpt lat="47.52849" lon="-0.83087">
        <ele>65</ele>
        <time>2021-03-25T05:01:59Z</time>
      </trkpt>
      <trkpt lat="47.52865" lon="-0.82936">
        <ele>63</ele>
        <time>2021-03-25T05:02:17Z</time>
      </trkpt>
      <trkpt lat="47.52869" lon="-0.82892">
        <ele>63</ele>
        <time>2021-03-25T05:02:22Z</time>
      </trkpt>
      <trkpt lat="47.5287" lon="-0.82871">
        <ele>63</ele>
        <time>2021-03-25T05:02:25Z</time>
      </trkpt>
      <trkpt lat="47.5287" lon="-0.8285">
        <ele>63</ele>
        <time>2021-03-25T05:02:27Z</time>
      </trkpt>
      <trkpt lat="47.52869" lon="-0.8281">
        <ele>62</ele>
        <time>2021-03-25T05:02:32Z</time>
      </trkpt>
      <trkpt lat="47.52864" lon="-0.82736">
        <ele>62</ele>
        <time>2021-03-25T05:02:41Z</time>
      </trkpt>
      <trkpt lat="47.52862" lon="-0.82711">
        <ele>62</ele>
        <time>2021-03-25T05:02:44Z</time>
      </trkpt>
      <trkpt lat="47.52855" lon="-0.82597">
        <ele>60</ele>
        <time>2021-03-25T05:02:58Z</time>
      </trkpt>
      <trkpt lat="47.52843" lon="-0.82426">
        <ele>62</ele>
        <time>2021-03-25T05:03:18Z</time>
      </trkpt>
      <trkpt lat="47.52839" lon="-0.82368">
        <ele>62</ele>
        <time>2021-03-25T05:03:25Z</time>
      </trkpt>
      <trkpt lat="47.52832" lon="-0.82263">
        <ele>62</ele>
        <time>2021-03-25T05:03:38Z</time>
      </trkpt>
      <trkpt lat="47.52822" lon="-0.82119">
        <ele>63</ele>
        <time>2021-03-25T05:03:56Z</time>
      </trkpt>
      <trkpt lat="47.5281" lon="-0.81938">
        <ele>64</ele>
        <time>2021-03-25T05:04:17Z</time>
      </trkpt>
      <trkpt lat="47.52804" lon="-0.81849">
        <ele>65</ele>
        <time>2021-03-25T05:04:28Z</time>
      </trkpt>
      <trkpt lat="47.528" lon="-0.81792">
        <ele>65</ele>
        <time>2021-03-25T05:04:35Z</time>
      </trkpt>
      <trkpt lat="47.52791" lon="-0.81671">
        <ele>64</ele>
        <time>2021-03-25T05:04:50Z</time>
      </trkpt>
      <trkpt lat="47.52785" lon="-0.81577">
        <ele>63</ele>
        <time>2021-03-25T05:05:01Z</time>
      </trkpt>
      <trkpt lat="47.5278" lon="-0.81499">
        <ele>64</ele>
        <time>2021-03-25T05:05:10Z</time>
      </trkpt>
      <trkpt lat="47.52777" lon="-0.81457">
        <ele>63</ele>
        <time>2021-03-25T05:05:15Z</time>
      </trkpt>
      <trkpt lat="47.5277" lon="-0.81341">
        <ele>63</ele>
        <time>2021-03-25T05:05:29Z</time>
      </trkpt>
      <trkpt lat="47.52764" lon="-0.81257">
        <ele>62</ele>
        <time>2021-03-25T05:05:40Z</time>
      </trkpt>
      <trkpt lat="47.52758" lon="-0.81169">
        <ele>63</ele>
        <time>2021-03-25T05:05:50Z</time>
      </trkpt>
      <trkpt lat="47.52757" lon="-0.81141">
        <ele>63</ele>
        <time>2021-03-25T05:05:54Z</time>
      </trkpt>
      <trkpt lat="47.52755" lon="-0.81121">
        <ele>63</ele>
        <time>2021-03-25T05:05:56Z</time>
      </trkpt>
      <trkpt lat="47.52754" lon="-0.81096">
        <ele>63</ele>
        <time>2021-03-25T05:05:59Z</time>
      </trkpt>
      <trkpt lat="47.52749" lon="-0.81019">
        <ele>62</ele>
        <time>2021-03-25T05:06:08Z</time>
      </trkpt>
      <trkpt lat="47.52745" lon="-0.80964">
        <ele>62</ele>
        <time>2021-03-25T05:06:15Z</time>
      </trkpt>
      <trkpt lat="47.5274" lon="-0.80888">
        <ele>61</ele>
        <time>2021-03-25T05:06:24Z</time>
      </trkpt>
      <trkpt lat="47.52737" lon="-0.80845">
        <ele>60</ele>
        <time>2021-03-25T05:06:29Z</time>
      </trkpt>
      <trkpt lat="47.52736" lon="-0.80827">
        <ele>60</ele>
        <time>2021-03-25T05:06:32Z</time>
      </trkpt>
      <trkpt lat="47.52728" lon="-0.80714">
        <ele>60</ele>
        <time>2021-03-25T05:06:45Z</time>
      </trkpt>
      <trkpt lat="47.52718" lon="-0.80586">
        <ele>59</ele>
        <time>2021-03-25T05:07:01Z</time>
      </trkpt>
      <trkpt lat="47.52714" lon="-0.80572">
        <ele>59</ele>
        <time>2021-03-25T05:07:03Z</time>
      </trkpt>
      <trkpt lat="47.52711" lon="-0.80564">
        <ele>59</ele>
        <time>2021-03-25T05:07:04Z</time>
      </trkpt>
      <trkpt lat="47.52709" lon="-0.80557">
        <ele>59</ele>
        <time>2021-03-25T05:07:05Z</time>
      </trkpt>
      <trkpt lat="47.52707" lon="-0.80553">
        <ele>59</ele>
        <time>2021-03-25T05:07:05Z</time>
      </trkpt>
      <trkpt lat="47.52706" lon="-0.80548">
        <ele>59</ele>
        <time>2021-03-25T05:07:06Z</time>
      </trkpt>
      <trkpt lat="47.52706" lon="-0.80547">
        <ele>59</ele>
        <time>2021-03-25T05:07:06Z</time>
      </trkpt>
      <trkpt lat="47.52705" lon="-0.8054">
        <ele>59</ele>
        <time>2021-03-25T05:07:07Z</time>
      </trkpt>
      <trkpt lat="47.52704" lon="-0.80534">
        <ele>59</ele>
        <time>2021-03-25T05:07:07Z</time>
      </trkpt>
      <trkpt lat="47.52704" lon="-0.80522">
        <ele>59</ele>
        <time>2021-03-25T05:07:09Z</time>
      </trkpt>
      <trkpt lat="47.52705" lon="-0.8052">
        <ele>59</ele>
        <time>2021-03-25T05:07:09Z</time>
      </trkpt>
      <trkpt lat="47.52704" lon="-0.80493">
        <ele>59</ele>
        <time>2021-03-25T05:07:12Z</time>
      </trkpt>
      <trkpt lat="47.52705" lon="-0.80488">
        <ele>59</ele>
        <time>2021-03-25T05:07:13Z</time>
      </trkpt>
      <trkpt lat="47.52707" lon="-0.80481">
        <ele>59</ele>
        <time>2021-03-25T05:07:14Z</time>
      </trkpt>
      <trkpt lat="47.52708" lon="-0.80473">
        <ele>59</ele>
        <time>2021-03-25T05:07:15Z</time>
      </trkpt>
      <trkpt lat="47.52707" lon="-0.80437">
        <ele>59</ele>
        <time>2021-03-25T05:07:19Z</time>
      </trkpt>
      <trkpt lat="47.52705" lon="-0.80407">
        <ele>59</ele>
        <time>2021-03-25T05:07:23Z</time>
      </trkpt>
      <trkpt lat="47.52696" lon="-0.80269">
        <ele>59</ele>
        <time>2021-03-25T05:07:40Z</time>
      </trkpt>
      <trkpt lat="47.52685" lon="-0.80102">
        <ele>58</ele>
        <time>2021-03-25T05:08:00Z</time>
      </trkpt>
      <trkpt lat="47.52685" lon="-0.8008">
        <ele>58</ele>
        <time>2021-03-25T05:08:02Z</time>
      </trkpt>
      <trkpt lat="47.52682" lon="-0.80052">
        <ele>59</ele>
        <time>2021-03-25T05:08:06Z</time>
      </trkpt>
      <trkpt lat="47.5267" lon="-0.79873">
        <ele>58</ele>
        <time>2021-03-25T05:08:27Z</time>
      </trkpt>
      <trkpt lat="47.52667" lon="-0.79837">
        <ele>58</ele>
        <time>2021-03-25T05:08:32Z</time>
      </trkpt>
      <trkpt lat="47.52664" lon="-0.7978">
        <ele>58</ele>
        <time>2021-03-25T05:08:39Z</time>
      </trkpt>
      <trkpt lat="47.52655" lon="-0.79644">
        <ele>58</ele>
        <time>2021-03-25T05:08:55Z</time>
      </trkpt>
      <trkpt lat="47.52655" lon="-0.79639">
        <ele>58</ele>
        <time>2021-03-25T05:08:56Z</time>
      </trkpt>
      <trkpt lat="47.52627" lon="-0.79243">
        <ele>58</ele>
        <time>2021-03-25T05:09:43Z</time>
      </trkpt>
      <trkpt lat="47.52627" lon="-0.79239">
        <ele>58</ele>
        <time>2021-03-25T05:09:44Z</time>
      </trkpt>
      <trkpt lat="47.52626" lon="-0.79232">
        <ele>58</ele>
        <time>2021-03-25T05:09:45Z</time>
      </trkpt>
      <trkpt lat="47.52613" lon="-0.79039">
        <ele>58</ele>
        <time>2021-03-25T05:10:08Z</time>
      </trkpt>
      <trkpt lat="47.52604" lon="-0.78904">
        <ele>58</ele>
        <time>2021-03-25T05:10:24Z</time>
      </trkpt>
      <trkpt lat="47.52597" lon="-0.78811">
        <ele>58</ele>
        <time>2021-03-25T05:10:36Z</time>
      </trkpt>
      <trkpt lat="47.52596" lon="-0.78792">
        <ele>58</ele>
        <time>2021-03-25T05:10:38Z</time>
      </trkpt>
      <trkpt lat="47.52589" lon="-0.78687">
        <ele>58</ele>
        <time>2021-03-25T05:10:51Z</time>
      </trkpt>
      <trkpt lat="47.52585" lon="-0.78625">
        <ele>58</ele>
        <time>2021-03-25T05:10:58Z</time>
      </trkpt>
      <trkpt lat="47.52585" lon="-0.78621">
        <ele>57</ele>
        <time>2021-03-25T05:10:59Z</time>
      </trkpt>
      <trkpt lat="47.52583" lon="-0.7861">
        <ele>57</ele>
        <time>2021-03-25T05:11:00Z</time>
      </trkpt>
      <trkpt lat="47.52582" lon="-0.78596">
        <ele>57</ele>
        <time>2021-03-25T05:11:02Z</time>
      </trkpt>
      <trkpt lat="47.5258" lon="-0.7858">
        <ele>57</ele>
        <time>2021-03-25T05:11:04Z</time>
      </trkpt>
      <trkpt lat="47.52577" lon="-0.78559">
        <ele>57</ele>
        <time>2021-03-25T05:11:06Z</time>
      </trkpt>
      <trkpt lat="47.52574" lon="-0.78544">
        <ele>57</ele>
        <time>2021-03-25T05:11:08Z</time>
      </trkpt>
      <trkpt lat="47.5257" lon="-0.78517">
        <ele>57</ele>
        <time>2021-03-25T05:11:11Z</time>
      </trkpt>
      <trkpt lat="47.52562" lon="-0.78481">
        <ele>57</ele>
        <time>2021-03-25T05:11:16Z</time>
      </trkpt>
      <trkpt lat="47.52562" lon="-0.78478">
        <ele>57</ele>
        <time>2021-03-25T05:11:16Z</time>
      </trkpt>
      <trkpt lat="47.52559" lon="-0.78468">
        <ele>57</ele>
        <time>2021-03-25T05:11:18Z</time>
      </trkpt>
      <trkpt lat="47.52558" lon="-0.78461">
        <ele>57</ele>
        <time>2021-03-25T05:11:18Z</time>
      </trkpt>
      <trkpt lat="47.52556" lon="-0.78451">
        <ele>57</ele>
        <time>2021-03-25T05:11:20Z</time>
      </trkpt>
      <trkpt lat="47.52551" lon="-0.78431">
        <ele>57</ele>
        <time>2021-03-25T05:11:22Z</time>
      </trkpt>
      <trkpt lat="47.52543" lon="-0.78407">
        <ele>57</ele>
        <time>2021-03-25T05:11:26Z</time>
      </trkpt>
      <trkpt lat="47.52536" lon="-0.78378">
        <ele>58</ele>
        <time>2021-03-25T05:11:29Z</time>
      </trkpt>
      <trkpt lat="47.52516" lon="-0.78313">
        <ele>58</ele>
        <time>2021-03-25T05:11:38Z</time>
      </trkpt>
      <trkpt lat="47.52503" lon="-0.7827">
        <ele>58</ele>
        <time>2021-03-25T05:11:43Z</time>
      </trkpt>
      <trkpt lat="47.52487" lon="-0.78216">
        <ele>58</ele>
        <time>2021-03-25T05:11:51Z</time>
      </trkpt>
      <trkpt lat="47.52481" lon="-0.78195">
        <ele>58</ele>
        <time>2021-03-25T05:11:53Z</time>
      </trkpt>
      <trkpt lat="47.5247" lon="-0.78156">
        <ele>58</ele>
        <time>2021-03-25T05:11:58Z</time>
      </trkpt>
      <trkpt lat="47.5246" lon="-0.7812">
        <ele>58</ele>
        <time>2021-03-25T05:12:03Z</time>
      </trkpt>
      <trkpt lat="47.52452" lon="-0.78085">
        <ele>57</ele>
        <time>2021-03-25T05:12:07Z</time>
      </trkpt>
      <trkpt lat="47.52446" lon="-0.78057">
        <ele>57</ele>
        <time>2021-03-25T05:12:11Z</time>
      </trkpt>
      <trkpt lat="47.52445" lon="-0.78047">
        <ele>57</ele>
        <time>2021-03-25T05:12:12Z</time>
      </trkpt>
      <trkpt lat="47.52445" lon="-0.78044">
        <ele>57</ele>
        <time>2021-03-25T05:12:13Z</time>
      </trkpt>
      <trkpt lat="47.52444" lon="-0.7804">
        <ele>57</ele>
        <time>2021-03-25T05:12:13Z</time>
      </trkpt>
      <trkpt lat="47.52443" lon="-0.7803">
        <ele>57</ele>
        <time>2021-03-25T05:12:14Z</time>
      </trkpt>
      <trkpt lat="47.52441" lon="-0.78016">
        <ele>57</ele>
        <time>2021-03-25T05:12:16Z</time>
      </trkpt>
      <trkpt lat="47.5244" lon="-0.78004">
        <ele>57</ele>
        <time>2021-03-25T05:12:17Z</time>
      </trkpt>
      <trkpt lat="47.52439" lon="-0.7799">
        <ele>57</ele>
        <time>2021-03-25T05:12:19Z</time>
      </trkpt>
      <trkpt lat="47.52439" lon="-0.77967">
        <ele>57</ele>
        <time>2021-03-25T05:12:22Z</time>
      </trkpt>
      <trkpt lat="47.5244" lon="-0.77933">
        <ele>57</ele>
        <time>2021-03-25T05:12:26Z</time>
      </trkpt>
      <trkpt lat="47.5244" lon="-0.77923">
        <ele>57</ele>
        <time>2021-03-25T05:12:27Z</time>
      </trkpt>
      <trkpt lat="47.52443" lon="-0.77898">
        <ele>57</ele>
        <time>2021-03-25T05:12:30Z</time>
      </trkpt>
      <trkpt lat="47.52444" lon="-0.77881">
        <ele>57</ele>
        <time>2021-03-25T05:12:32Z</time>
      </trkpt>
      <trkpt lat="47.52446" lon="-0.77865">
        <ele>57</ele>
        <time>2021-03-25T05:12:34Z</time>
      </trkpt>
      <trkpt lat="47.52448" lon="-0.77846">
        <ele>57</ele>
        <time>2021-03-25T05:12:37Z</time>
      </trkpt>
      <trkpt lat="47.52459" lon="-0.77771">
        <ele>58</ele>
        <time>2021-03-25T05:12:46Z</time>
      </trkpt>
      <trkpt lat="47.5247" lon="-0.77691">
        <ele>58</ele>
        <time>2021-03-25T05:12:56Z</time>
      </trkpt>
      <trkpt lat="47.5247" lon="-0.77688">
        <ele>58</ele>
        <time>2021-03-25T05:12:56Z</time>
      </trkpt>
      <trkpt lat="47.52504" lon="-0.7745">
        <ele>57</ele>
        <time>2021-03-25T05:13:25Z</time>
      </trkpt>
      <trkpt lat="47.52505" lon="-0.77443">
        <ele>57</ele>
        <time>2021-03-25T05:13:26Z</time>
      </trkpt>
      <trkpt lat="47.52537" lon="-0.77212">
        <ele>58</ele>
        <time>2021-03-25T05:13:54Z</time>
      </trkpt>
      <trkpt lat="47.52544" lon="-0.77164">
        <ele>59</ele>
        <time>2021-03-25T05:14:00Z</time>
      </trkpt>
      <trkpt lat="47.52546" lon="-0.77144">
        <ele>59</ele>
        <time>2021-03-25T05:14:03Z</time>
      </trkpt>
      <trkpt lat="47.52548" lon="-0.77122">
        <ele>59</ele>
        <time>2021-03-25T05:14:05Z</time>
      </trkpt>
      <trkpt lat="47.52549" lon="-0.77116">
        <ele>59</ele>
        <time>2021-03-25T05:14:06Z</time>
      </trkpt>
      <trkpt lat="47.5255" lon="-0.77109">
        <ele>59</ele>
        <time>2021-03-25T05:14:07Z</time>
      </trkpt>
      <trkpt lat="47.52552" lon="-0.77062">
        <ele>59</ele>
        <time>2021-03-25T05:14:13Z</time>
      </trkpt>
      <trkpt lat="47.52555" lon="-0.7699">
        <ele>60</ele>
        <time>2021-03-25T05:14:21Z</time>
      </trkpt>
      <trkpt lat="47.52557" lon="-0.7691">
        <ele>60</ele>
        <time>2021-03-25T05:14:31Z</time>
      </trkpt>
      <trkpt lat="47.52558" lon="-0.76881">
        <ele>60</ele>
        <time>2021-03-25T05:14:34Z</time>
      </trkpt>
      <trkpt lat="47.52562" lon="-0.76795">
        <ele>59</ele>
        <time>2021-03-25T05:14:45Z</time>
      </trkpt>
      <trkpt lat="47.52564" lon="-0.76726">
        <ele>59</ele>
        <time>2021-03-25T05:14:53Z</time>
      </trkpt>
      <trkpt lat="47.52564" lon="-0.76714">
        <ele>59</ele>
        <time>2021-03-25T05:14:55Z</time>
      </trkpt>
      <trkpt lat="47.52564" lon="-0.76653">
        <ele>59</ele>
        <time>2021-03-25T05:15:02Z</time>
      </trkpt>
      <trkpt lat="47.52564" lon="-0.7658">
        <ele>57</ele>
        <time>2021-03-25T05:15:11Z</time>
      </trkpt>
      <trkpt lat="47.52563" lon="-0.76545">
        <ele>57</ele>
        <time>2021-03-25T05:15:15Z</time>
      </trkpt>
      <trkpt lat="47.52561" lon="-0.76507">
        <ele>58</ele>
        <time>2021-03-25T05:15:19Z</time>
      </trkpt>
      <trkpt lat="47.5256" lon="-0.76484">
        <ele>58</ele>
        <time>2021-03-25T05:15:22Z</time>
      </trkpt>
      <trkpt lat="47.52545" lon="-0.76295">
        <ele>59</ele>
        <time>2021-03-25T05:15:45Z</time>
      </trkpt>
      <trkpt lat="47.52538" lon="-0.76246">
        <ele>60</ele>
        <time>2021-03-25T05:15:51Z</time>
      </trkpt>
      <trkpt lat="47.52523" lon="-0.76136">
        <ele>60</ele>
        <time>2021-03-25T05:16:05Z</time>
      </trkpt>
      <trkpt lat="47.52505" lon="-0.76004">
        <ele>60</ele>
        <time>2021-03-25T05:16:21Z</time>
      </trkpt>
      <trkpt lat="47.52503" lon="-0.75985">
        <ele>60</ele>
        <time>2021-03-25T05:16:23Z</time>
      </trkpt>
      <trkpt lat="47.52501" lon="-0.75974">
        <ele>60</ele>
        <time>2021-03-25T05:16:24Z</time>
      </trkpt>
      <trkpt lat="47.52499" lon="-0.75952">
        <ele>61</ele>
        <time>2021-03-25T05:16:27Z</time>
      </trkpt>
      <trkpt lat="47.52499" lon="-0.75938">
        <ele>61</ele>
        <time>2021-03-25T05:16:29Z</time>
      </trkpt>
      <trkpt lat="47.52499" lon="-0.75923">
        <ele>61</ele>
        <time>2021-03-25T05:16:31Z</time>
      </trkpt>
      <trkpt lat="47.52499" lon="-0.7591">
        <ele>61</ele>
        <time>2021-03-25T05:16:32Z</time>
      </trkpt>
      <trkpt lat="47.525" lon="-0.75896">
        <ele>61</ele>
        <time>2021-03-25T05:16:34Z</time>
      </trkpt>
      <trkpt lat="47.52501" lon="-0.75888">
        <ele>61</ele>
        <time>2021-03-25T05:16:35Z</time>
      </trkpt>
      <trkpt lat="47.52502" lon="-0.75882">
        <ele>61</ele>
        <time>2021-03-25T05:16:36Z</time>
      </trkpt>
      <trkpt lat="47.52503" lon="-0.75874">
        <ele>62</ele>
        <time>2021-03-25T05:16:37Z</time>
      </trkpt>
      <trkpt lat="47.52517" lon="-0.75785">
        <ele>62</ele>
        <time>2021-03-25T05:16:48Z</time>
      </trkpt>
      <trkpt lat="47.52527" lon="-0.75722">
        <ele>61</ele>
        <time>2021-03-25T05:16:55Z</time>
      </trkpt>
      <trkpt lat="47.52544" lon="-0.75621">
        <ele>61</ele>
        <time>2021-03-25T05:17:08Z</time>
      </trkpt>
      <trkpt lat="47.52558" lon="-0.75533">
        <ele>61</ele>
        <time>2021-03-25T05:17:19Z</time>
      </trkpt>
      <trkpt lat="47.52565" lon="-0.75471">
        <ele>61</ele>
        <time>2021-03-25T05:17:26Z</time>
      </trkpt>
      <trkpt lat="47.52567" lon="-0.75447">
        <ele>61</ele>
        <time>2021-03-25T05:17:29Z</time>
      </trkpt>
      <trkpt lat="47.52569" lon="-0.75404">
        <ele>61</ele>
        <time>2021-03-25T05:17:34Z</time>
      </trkpt>
      <trkpt lat="47.5257" lon="-0.75398">
        <ele>62</ele>
        <time>2021-03-25T05:17:35Z</time>
      </trkpt>
      <trkpt lat="47.52569" lon="-0.75385">
        <ele>62</ele>
        <time>2021-03-25T05:17:37Z</time>
      </trkpt>
      <trkpt lat="47.52568" lon="-0.75346">
        <ele>62</ele>
        <time>2021-03-25T05:17:41Z</time>
      </trkpt>
      <trkpt lat="47.52568" lon="-0.75332">
        <ele>62</ele>
        <time>2021-03-25T05:17:43Z</time>
      </trkpt>
      <trkpt lat="47.5257" lon="-0.75296">
        <ele>63</ele>
        <time>2021-03-25T05:17:47Z</time>
      </trkpt>
      <trkpt lat="47.52571" lon="-0.75284">
        <ele>63</ele>
        <time>2021-03-25T05:17:49Z</time>
      </trkpt>
      <trkpt lat="47.52572" lon="-0.75275">
        <ele>63</ele>
        <time>2021-03-25T05:17:50Z</time>
      </trkpt>
      <trkpt lat="47.52573" lon="-0.75267">
        <ele>63</ele>
        <time>2021-03-25T05:17:51Z</time>
      </trkpt>
      <trkpt lat="47.52573" lon="-0.75264">
        <ele>63</ele>
        <time>2021-03-25T05:17:51Z</time>
      </trkpt>
      <trkpt lat="47.52571" lon="-0.75262">
        <ele>63</ele>
        <time>2021-03-25T05:17:52Z</time>
      </trkpt>
      <trkpt lat="47.5257" lon="-0.75259">
        <ele>63</ele>
        <time>2021-03-25T05:17:52Z</time>
      </trkpt>
      <trkpt lat="47.5257" lon="-0.75254">
        <ele>63</ele>
        <time>2021-03-25T05:17:53Z</time>
      </trkpt>
      <trkpt lat="47.52571" lon="-0.75251">
        <ele>63</ele>
        <time>2021-03-25T05:17:53Z</time>
      </trkpt>
      <trkpt lat="47.52573" lon="-0.75249">
        <ele>63</ele>
        <time>2021-03-25T05:17:53Z</time>
      </trkpt>
      <trkpt lat="47.52567" lon="-0.75094">
        <ele>61</ele>
        <time>2021-03-25T05:18:12Z</time>
      </trkpt>
      <trkpt lat="47.52566" lon="-0.75076">
        <ele>61</ele>
        <time>2021-03-25T05:18:14Z</time>
      </trkpt>
      <trkpt lat="47.52561" lon="-0.75032">
        <ele>61</ele>
        <time>2021-03-25T05:18:20Z</time>
      </trkpt>
      <trkpt lat="47.52561" lon="-0.75027">
        <ele>61</ele>
        <time>2021-03-25T05:18:20Z</time>
      </trkpt>
      <trkpt lat="47.52556" lon="-0.74984">
        <ele>61</ele>
        <time>2021-03-25T05:18:25Z</time>
      </trkpt>
      <trkpt lat="47.52554" lon="-0.74966">
        <ele>61</ele>
        <time>2021-03-25T05:18:28Z</time>
      </trkpt>
      <trkpt lat="47.52552" lon="-0.74954">
        <ele>61</ele>
        <time>2021-03-25T05:18:29Z</time>
      </trkpt>
      <trkpt lat="47.52542" lon="-0.74898">
        <ele>62</ele>
        <time>2021-03-25T05:18:36Z</time>
      </trkpt>
      <trkpt lat="47.52532" lon="-0.74825">
        <ele>63</ele>
        <time>2021-03-25T05:18:45Z</time>
      </trkpt>
      <trkpt lat="47.52524" lon="-0.74778">
        <ele>63</ele>
        <time>2021-03-25T05:18:51Z</time>
      </trkpt>
      <trkpt lat="47.52516" lon="-0.74722">
        <ele>64</ele>
        <time>2021-03-25T05:18:58Z</time>
      </trkpt>
      <trkpt lat="47.52512" lon="-0.74697">
        <ele>64</ele>
        <time>2021-03-25T05:19:01Z</time>
      </trkpt>
      <trkpt lat="47.52495" lon="-0.74596">
        <ele>65</ele>
        <time>2021-03-25T05:19:13Z</time>
      </trkpt>
      <trkpt lat="47.52494" lon="-0.74587">
        <ele>65</ele>
        <time>2021-03-25T05:19:14Z</time>
      </trkpt>
      <trkpt lat="47.52494" lon="-0.74587">
        <ele>65</ele>
        <time>2021-03-25T05:19:14Z</time>
      </trkpt>
      <trkpt lat="47.52488" lon="-0.74551">
        <ele>64</ele>
        <time>2021-03-25T05:19:19Z</time>
      </trkpt>
      <trkpt lat="47.52485" lon="-0.74534">
        <ele>64</ele>
        <time>2021-03-25T05:19:21Z</time>
      </trkpt>
      <trkpt lat="47.52484" lon="-0.74526">
        <ele>64</ele>
        <time>2021-03-25T05:19:22Z</time>
      </trkpt>
      <trkpt lat="47.52481" lon="-0.74519">
        <ele>64</ele>
        <time>2021-03-25T05:19:23Z</time>
      </trkpt>
      <trkpt lat="47.5248" lon="-0.74516">
        <ele>64</ele>
        <time>2021-03-25T05:19:23Z</time>
      </trkpt>
      <trkpt lat="47.52479" lon="-0.74513">
        <ele>64</ele>
        <time>2021-03-25T05:19:24Z</time>
      </trkpt>
      <trkpt lat="47.52476" lon="-0.74507">
        <ele>64</ele>
        <time>2021-03-25T05:19:25Z</time>
      </trkpt>
      <trkpt lat="47.52472" lon="-0.745">
        <ele>64</ele>
        <time>2021-03-25T05:19:26Z</time>
      </trkpt>
      <trkpt lat="47.52468" lon="-0.74494">
        <ele>63</ele>
        <time>2021-03-25T05:19:27Z</time>
      </trkpt>
      <trkpt lat="47.52462" lon="-0.74483">
        <ele>63</ele>
        <time>2021-03-25T05:19:29Z</time>
      </trkpt>
      <trkpt lat="47.52452" lon="-0.7447">
        <ele>62</ele>
        <time>2021-03-25T05:19:31Z</time>
      </trkpt>
      <trkpt lat="47.52445" lon="-0.74461">
        <ele>62</ele>
        <time>2021-03-25T05:19:33Z</time>
      </trkpt>
      <trkpt lat="47.52437" lon="-0.74453">
        <ele>62</ele>
        <time>2021-03-25T05:19:34Z</time>
      </trkpt>
      <trkpt lat="47.5243" lon="-0.74447">
        <ele>62</ele>
        <time>2021-03-25T05:19:36Z</time>
      </trkpt>
      <trkpt lat="47.52413" lon="-0.74434">
        <ele>61</ele>
        <time>2021-03-25T05:19:39Z</time>
      </trkpt>
      <trkpt lat="47.52402" lon="-0.74425">
        <ele>60</ele>
        <time>2021-03-25T05:19:41Z</time>
      </trkpt>
      <trkpt lat="47.52393" lon="-0.74416">
        <ele>60</ele>
        <time>2021-03-25T05:19:43Z</time>
      </trkpt>
      <trkpt lat="47.52387" lon="-0.7441">
        <ele>59</ele>
        <time>2021-03-25T05:19:45Z</time>
      </trkpt>
      <trkpt lat="47.52378" lon="-0.744">
        <ele>59</ele>
        <time>2021-03-25T05:19:47Z</time>
      </trkpt>
      <trkpt lat="47.52355" lon="-0.74374">
        <ele>57</ele>
        <time>2021-03-25T05:19:52Z</time>
      </trkpt>
      <trkpt lat="47.52341" lon="-0.74359">
        <ele>56</ele>
        <time>2021-03-25T05:19:55Z</time>
      </trkpt>
      <trkpt lat="47.52322" lon="-0.74335">
        <ele>55</ele>
        <time>2021-03-25T05:19:59Z</time>
      </trkpt>
      <trkpt lat="47.52312" lon="-0.74322">
        <ele>54</ele>
        <time>2021-03-25T05:20:02Z</time>
      </trkpt>
      <trkpt lat="47.52307" lon="-0.74316">
        <ele>54</ele>
        <time>2021-03-25T05:20:03Z</time>
      </trkpt>
      <trkpt lat="47.52294" lon="-0.74296">
        <ele>54</ele>
        <time>2021-03-25T05:20:06Z</time>
      </trkpt>
      <trkpt lat="47.52289" lon="-0.74288">
        <ele>53</ele>
        <time>2021-03-25T05:20:07Z</time>
      </trkpt>
      <trkpt lat="47.5228" lon="-0.74272">
        <ele>53</ele>
        <time>2021-03-25T05:20:10Z</time>
      </trkpt>
      <trkpt lat="47.52275" lon="-0.74262">
        <ele>53</ele>
        <time>2021-03-25T05:20:11Z</time>
      </trkpt>
      <trkpt lat="47.52271" lon="-0.74256">
        <ele>53</ele>
        <time>2021-03-25T05:20:12Z</time>
      </trkpt>
      <trkpt lat="47.52265" lon="-0.74247">
        <ele>52</ele>
        <time>2021-03-25T05:20:14Z</time>
      </trkpt>
      <trkpt lat="47.52259" lon="-0.7424">
        <ele>52</ele>
        <time>2021-03-25T05:20:15Z</time>
      </trkpt>
      <trkpt lat="47.52257" lon="-0.74238">
        <ele>52</ele>
        <time>2021-03-25T05:20:16Z</time>
      </trkpt>
      <trkpt lat="47.52251" lon="-0.74232">
        <ele>52</ele>
        <time>2021-03-25T05:20:17Z</time>
      </trkpt>
      <trkpt lat="47.52237" lon="-0.74221">
        <ele>51</ele>
        <time>2021-03-25T05:20:20Z</time>
      </trkpt>
      <trkpt lat="47.52217" lon="-0.74204">
        <ele>51</ele>
        <time>2021-03-25T05:20:24Z</time>
      </trkpt>
      <trkpt lat="47.52215" lon="-0.74203">
        <ele>51</ele>
        <time>2021-03-25T05:20:24Z</time>
      </trkpt>
      <trkpt lat="47.52212" lon="-0.74201">
        <ele>51</ele>
        <time>2021-03-25T05:20:25Z</time>
      </trkpt>
      <trkpt lat="47.5221" lon="-0.74199">
        <ele>51</ele>
        <time>2021-03-25T05:20:25Z</time>
      </trkpt>
      <trkpt lat="47.52207" lon="-0.74197">
        <ele>51</ele>
        <time>2021-03-25T05:20:26Z</time>
      </trkpt>
      <trkpt lat="47.52187" lon="-0.74181">
        <ele>51</ele>
        <time>2021-03-25T05:20:30Z</time>
      </trkpt>
      <trkpt lat="47.52158" lon="-0.74158">
        <ele>51</ele>
        <time>2021-03-25T05:20:36Z</time>
      </trkpt>
      <trkpt lat="47.52158" lon="-0.74158">
        <ele>51</ele>
        <time>2021-03-25T05:20:36Z</time>
      </trkpt>
      <trkpt lat="47.52158" lon="-0.74136">
        <ele>51</ele>
        <time>2021-03-25T05:20:38Z</time>
      </trkpt>
      <trkpt lat="47.52155" lon="-0.74093">
        <ele>51</ele>
        <time>2021-03-25T05:20:44Z</time>
      </trkpt>
      <trkpt lat="47.52149" lon="-0.73993">
        <ele>51</ele>
        <time>2021-03-25T05:20:56Z</time>
      </trkpt>
      <trkpt lat="47.52148" lon="-0.73975">
        <ele>51</ele>
        <time>2021-03-25T05:20:58Z</time>
      </trkpt>
      <trkpt lat="47.52142" lon="-0.73896">
        <ele>51</ele>
        <time>2021-03-25T05:21:07Z</time>
      </trkpt>
      <trkpt lat="47.52128" lon="-0.73675">
        <ele>54</ele>
        <time>2021-03-25T05:21:34Z</time>
      </trkpt>
      <trkpt lat="47.52106" lon="-0.73355">
        <ele>54</ele>
        <time>2021-03-25T05:22:13Z</time>
      </trkpt>
      <trkpt lat="47.52088" lon="-0.73081">
        <ele>59</ele>
        <time>2021-03-25T05:22:46Z</time>
      </trkpt>
      <trkpt lat="47.52085" lon="-0.73037">
        <ele>59</ele>
        <time>2021-03-25T05:22:51Z</time>
      </trkpt>
      <trkpt lat="47.52081" lon="-0.7298">
        <ele>60</ele>
        <time>2021-03-25T05:22:58Z</time>
      </trkpt>
      <trkpt lat="47.52073" lon="-0.72904">
        <ele>59</ele>
        <time>2021-03-25T05:23:07Z</time>
      </trkpt>
      <trkpt lat="47.52063" lon="-0.72807">
        <ele>60</ele>
        <time>2021-03-25T05:23:19Z</time>
      </trkpt>
      <trkpt lat="47.52043" lon="-0.72624">
        <ele>57</ele>
        <time>2021-03-25T05:23:41Z</time>
      </trkpt>
      <trkpt lat="47.52041" lon="-0.7261">
        <ele>57</ele>
        <time>2021-03-25T05:23:43Z</time>
      </trkpt>
      <trkpt lat="47.52016" lon="-0.72369">
        <ele>55</ele>
        <time>2021-03-25T05:24:12Z</time>
      </trkpt>
      <trkpt lat="47.5201" lon="-0.72326">
        <ele>55</ele>
        <time>2021-03-25T05:24:18Z</time>
      </trkpt>
      <trkpt lat="47.52005" lon="-0.72299">
        <ele>55</ele>
        <time>2021-03-25T05:24:21Z</time>
      </trkpt>
      <trkpt lat="47.51981" lon="-0.72202">
        <ele>57</ele>
        <time>2021-03-25T05:24:33Z</time>
      </trkpt>
      <trkpt lat="47.51966" lon="-0.72139">
        <ele>59</ele>
        <time>2021-03-25T05:24:41Z</time>
      </trkpt>
      <trkpt lat="47.51949" lon="-0.7208">
        <ele>59</ele>
        <time>2021-03-25T05:24:49Z</time>
      </trkpt>
      <trkpt lat="47.51942" lon="-0.72063">
        <ele>59</ele>
        <time>2021-03-25T05:24:52Z</time>
      </trkpt>
      <trkpt lat="47.51855" lon="-0.71863">
        <ele>61</ele>
        <time>2021-03-25T05:25:20Z</time>
      </trkpt>
      <trkpt lat="47.51833" lon="-0.71802">
        <ele>61</ele>
        <time>2021-03-25T05:25:28Z</time>
      </trkpt>
      <trkpt lat="47.51821" lon="-0.71753">
        <ele>62</ele>
        <time>2021-03-25T05:25:35Z</time>
      </trkpt>
      <trkpt lat="47.51791" lon="-0.71629">
        <ele>63</ele>
        <time>2021-03-25T05:25:50Z</time>
      </trkpt>
      <trkpt lat="47.51782" lon="-0.716">
        <ele>63</ele>
        <time>2021-03-25T05:25:54Z</time>
      </trkpt>
      <trkpt lat="47.51763" lon="-0.71551">
        <ele>63</ele>
        <time>2021-03-25T05:26:01Z</time>
      </trkpt>
      <trkpt lat="47.5176" lon="-0.71544">
        <ele>63</ele>
        <time>2021-03-25T05:26:02Z</time>
      </trkpt>
      <trkpt lat="47.51759" lon="-0.71537">
        <ele>63</ele>
        <time>2021-03-25T05:26:03Z</time>
      </trkpt>
      <trkpt lat="47.51758" lon="-0.7153">
        <ele>63</ele>
        <time>2021-03-25T05:26:04Z</time>
      </trkpt>
      <trkpt lat="47.51758" lon="-0.71522">
        <ele>63</ele>
        <time>2021-03-25T05:26:05Z</time>
      </trkpt>
      <trkpt lat="47.51759" lon="-0.71517">
        <ele>63</ele>
        <time>2021-03-25T05:26:05Z</time>
      </trkpt>
      <trkpt lat="47.5176" lon="-0.71514">
        <ele>63</ele>
        <time>2021-03-25T05:26:06Z</time>
      </trkpt>
      <trkpt lat="47.51767" lon="-0.71479">
        <ele>62</ele>
        <time>2021-03-25T05:26:10Z</time>
      </trkpt>
      <trkpt lat="47.51771" lon="-0.71454">
        <ele>63</ele>
        <time>2021-03-25T05:26:13Z</time>
      </trkpt>
      <trkpt lat="47.51773" lon="-0.71449">
        <ele>63</ele>
        <time>2021-03-25T05:26:14Z</time>
      </trkpt>
      <trkpt lat="47.51773" lon="-0.71442">
        <ele>63</ele>
        <time>2021-03-25T05:26:15Z</time>
      </trkpt>
      <trkpt lat="47.51776" lon="-0.71398">
        <ele>62</ele>
        <time>2021-03-25T05:26:20Z</time>
      </trkpt>
      <trkpt lat="47.51778" lon="-0.7133">
        <ele>62</ele>
        <time>2021-03-25T05:26:28Z</time>
      </trkpt>
      <trkpt lat="47.51779" lon="-0.71293">
        <ele>62</ele>
        <time>2021-03-25T05:26:33Z</time>
      </trkpt>
      <trkpt lat="47.5178" lon="-0.71239">
        <ele>61</ele>
        <time>2021-03-25T05:26:39Z</time>
      </trkpt>
      <trkpt lat="47.51783" lon="-0.71196">
        <ele>61</ele>
        <time>2021-03-25T05:26:44Z</time>
      </trkpt>
      <trkpt lat="47.51785" lon="-0.71161">
        <ele>61</ele>
        <time>2021-03-25T05:26:49Z</time>
      </trkpt>
      <trkpt lat="47.51793" lon="-0.71078">
        <ele>62</ele>
        <time>2021-03-25T05:26:59Z</time>
      </trkpt>
      <trkpt lat="47.51798" lon="-0.71015">
        <ele>62</ele>
        <time>2021-03-25T05:27:06Z</time>
      </trkpt>
      <trkpt lat="47.51798" lon="-0.70979">
        <ele>62</ele>
        <time>2021-03-25T05:27:11Z</time>
      </trkpt>
      <trkpt lat="47.51795" lon="-0.70855">
        <ele>61</ele>
        <time>2021-03-25T05:27:26Z</time>
      </trkpt>
      <trkpt lat="47.51796" lon="-0.70836">
        <ele>61</ele>
        <time>2021-03-25T05:27:28Z</time>
      </trkpt>
      <trkpt lat="47.51796" lon="-0.70814">
        <ele>61</ele>
        <time>2021-03-25T05:27:31Z</time>
      </trkpt>
      <trkpt lat="47.51801" lon="-0.70735">
        <ele>61</ele>
        <time>2021-03-25T05:27:40Z</time>
      </trkpt>
      <trkpt lat="47.51804" lon="-0.70706">
        <ele>61</ele>
        <time>2021-03-25T05:27:44Z</time>
      </trkpt>
      <trkpt lat="47.51808" lon="-0.70685">
        <ele>60</ele>
        <time>2021-03-25T05:27:46Z</time>
      </trkpt>
      <trkpt lat="47.51817" lon="-0.70658">
        <ele>60</ele>
        <time>2021-03-25T05:27:50Z</time>
      </trkpt>
      <trkpt lat="47.51827" lon="-0.70632">
        <ele>60</ele>
        <time>2021-03-25T05:27:53Z</time>
      </trkpt>
      <trkpt lat="47.51833" lon="-0.70602">
        <ele>59</ele>
        <time>2021-03-25T05:27:57Z</time>
      </trkpt>
      <trkpt lat="47.51853" lon="-0.70435">
        <ele>60</ele>
        <time>2021-03-25T05:28:18Z</time>
      </trkpt>
      <trkpt lat="47.51862" lon="-0.70397">
        <ele>61</ele>
        <time>2021-03-25T05:28:22Z</time>
      </trkpt>
      <trkpt lat="47.51866" lon="-0.70374">
        <ele>61</ele>
        <time>2021-03-25T05:28:25Z</time>
      </trkpt>
      <trkpt lat="47.51867" lon="-0.70365">
        <ele>61</ele>
        <time>2021-03-25T05:28:26Z</time>
      </trkpt>
      <trkpt lat="47.51869" lon="-0.7034">
        <ele>60</ele>
        <time>2021-03-25T05:28:29Z</time>
      </trkpt>
      <trkpt lat="47.51868" lon="-0.70319">
        <ele>60</ele>
        <time>2021-03-25T05:28:32Z</time>
      </trkpt>
      <trkpt lat="47.51868" lon="-0.70305">
        <ele>60</ele>
        <time>2021-03-25T05:28:34Z</time>
      </trkpt>
      <trkpt lat="47.51865" lon="-0.70278">
        <ele>60</ele>
        <time>2021-03-25T05:28:37Z</time>
      </trkpt>
      <trkpt lat="47.5186" lon="-0.70245">
        <ele>60</ele>
        <time>2021-03-25T05:28:41Z</time>
      </trkpt>
      <trkpt lat="47.51845" lon="-0.70164">
        <ele>60</ele>
        <time>2021-03-25T05:28:51Z</time>
      </trkpt>
      <trkpt lat="47.51843" lon="-0.70143">
        <ele>60</ele>
        <time>2021-03-25T05:28:54Z</time>
      </trkpt>
      <trkpt lat="47.51843" lon="-0.70133">
        <ele>60</ele>
        <time>2021-03-25T05:28:55Z</time>
      </trkpt>
      <trkpt lat="47.51844" lon="-0.70124">
        <ele>60</ele>
        <time>2021-03-25T05:28:56Z</time>
      </trkpt>
      <trkpt lat="47.51849" lon="-0.70101">
        <ele>60</ele>
        <time>2021-03-25T05:28:59Z</time>
      </trkpt>
      <trkpt lat="47.51855" lon="-0.70078">
        <ele>60</ele>
        <time>2021-03-25T05:29:02Z</time>
      </trkpt>
      <trkpt lat="47.51923" lon="-0.69893">
        <ele>58</ele>
        <time>2021-03-25T05:29:27Z</time>
      </trkpt>
      <trkpt lat="47.51929" lon="-0.69872">
        <ele>58</ele>
        <time>2021-03-25T05:29:30Z</time>
      </trkpt>
      <trkpt lat="47.51931" lon="-0.69858">
        <ele>58</ele>
        <time>2021-03-25T05:29:32Z</time>
      </trkpt>
      <trkpt lat="47.51932" lon="-0.69845">
        <ele>57</ele>
        <time>2021-03-25T05:29:33Z</time>
      </trkpt>
      <trkpt lat="47.51931" lon="-0.69836">
        <ele>57</ele>
        <time>2021-03-25T05:29:34Z</time>
      </trkpt>
      <trkpt lat="47.5193" lon="-0.69826">
        <ele>57</ele>
        <time>2021-03-25T05:29:35Z</time>
      </trkpt>
      <trkpt lat="47.51928" lon="-0.69816">
        <ele>57</ele>
        <time>2021-03-25T05:29:37Z</time>
      </trkpt>
      <trkpt lat="47.51924" lon="-0.69802">
        <ele>57</ele>
        <time>2021-03-25T05:29:39Z</time>
      </trkpt>
      <trkpt lat="47.5192" lon="-0.69787">
        <ele>57</ele>
        <time>2021-03-25T05:29:40Z</time>
      </trkpt>
      <trkpt lat="47.51911" lon="-0.69756">
        <ele>56</ele>
        <time>2021-03-25T05:29:45Z</time>
      </trkpt>
      <trkpt lat="47.51903" lon="-0.69734">
        <ele>56</ele>
        <time>2021-03-25T05:29:48Z</time>
      </trkpt>
      <trkpt lat="47.51884" lon="-0.69678">
        <ele>56</ele>
        <time>2021-03-25T05:29:55Z</time>
      </trkpt>
      <trkpt lat="47.51878" lon="-0.69662">
        <ele>56</ele>
        <time>2021-03-25T05:29:57Z</time>
      </trkpt>
      <trkpt lat="47.51877" lon="-0.69659">
        <ele>56</ele>
        <time>2021-03-25T05:29:58Z</time>
      </trkpt>
      <trkpt lat="47.51873" lon="-0.69648">
        <ele>56</ele>
        <time>2021-03-25T05:29:59Z</time>
      </trkpt>
      <trkpt lat="47.51871" lon="-0.69644">
        <ele>55</ele>
        <time>2021-03-25T05:30:00Z</time>
      </trkpt>
      <trkpt lat="47.51864" lon="-0.69629">
        <ele>55</ele>
        <time>2021-03-25T05:30:02Z</time>
      </trkpt>
      <trkpt lat="47.51859" lon="-0.6962">
        <ele>55</ele>
        <time>2021-03-25T05:30:03Z</time>
      </trkpt>
      <trkpt lat="47.51827" lon="-0.69574">
        <ele>54</ele>
        <time>2021-03-25T05:30:11Z</time>
      </trkpt>
      <trkpt lat="47.51789" lon="-0.69522">
        <ele>54</ele>
        <time>2021-03-25T05:30:20Z</time>
      </trkpt>
      <trkpt lat="47.51784" lon="-0.69516">
        <ele>54</ele>
        <time>2021-03-25T05:30:22Z</time>
      </trkpt>
      <trkpt lat="47.51779" lon="-0.69507">
        <ele>54</ele>
        <time>2021-03-25T05:30:23Z</time>
      </trkpt>
      <trkpt lat="47.51775" lon="-0.69498">
        <ele>54</ele>
        <time>2021-03-25T05:30:24Z</time>
      </trkpt>
      <trkpt lat="47.51771" lon="-0.69488">
        <ele>54</ele>
        <time>2021-03-25T05:30:26Z</time>
      </trkpt>
      <trkpt lat="47.51768" lon="-0.69478">
        <ele>54</ele>
        <time>2021-03-25T05:30:27Z</time>
      </trkpt>
      <trkpt lat="47.51766" lon="-0.69469">
        <ele>54</ele>
        <time>2021-03-25T05:30:28Z</time>
      </trkpt>
      <trkpt lat="47.51765" lon="-0.69463">
        <ele>54</ele>
        <time>2021-03-25T05:30:29Z</time>
      </trkpt>
      <trkpt lat="47.51764" lon="-0.69454">
        <ele>54</ele>
        <time>2021-03-25T05:30:30Z</time>
      </trkpt>
      <trkpt lat="47.51755" lon="-0.69365">
        <ele>53</ele>
        <time>2021-03-25T05:30:41Z</time>
      </trkpt>
      <trkpt lat="47.51748" lon="-0.69304">
        <ele>53</ele>
        <time>2021-03-25T05:30:48Z</time>
      </trkpt>
      <trkpt lat="47.51747" lon="-0.69289">
        <ele>54</ele>
        <time>2021-03-25T05:30:50Z</time>
      </trkpt>
      <trkpt lat="47.51747" lon="-0.69286">
        <ele>54</ele>
        <time>2021-03-25T05:30:50Z</time>
      </trkpt>
      <trkpt lat="47.51748" lon="-0.69283">
        <ele>54</ele>
        <time>2021-03-25T05:30:51Z</time>
      </trkpt>
      <trkpt lat="47.51748" lon="-0.69281">
        <ele>54</ele>
        <time>2021-03-25T05:30:51Z</time>
      </trkpt>
      <trkpt lat="47.51749" lon="-0.69277">
        <ele>54</ele>
        <time>2021-03-25T05:30:52Z</time>
      </trkpt>
      <trkpt lat="47.51752" lon="-0.69273">
        <ele>54</ele>
        <time>2021-03-25T05:30:52Z</time>
      </trkpt>
      <trkpt lat="47.51757" lon="-0.69265">
        <ele>54</ele>
        <time>2021-03-25T05:30:54Z</time>
      </trkpt>
      <trkpt lat="47.51763" lon="-0.69258">
        <ele>53</ele>
        <time>2021-03-25T05:30:55Z</time>
      </trkpt>
      <trkpt lat="47.5177" lon="-0.69253">
        <ele>53</ele>
        <time>2021-03-25T05:30:56Z</time>
      </trkpt>
      <trkpt lat="47.51776" lon="-0.69248">
        <ele>53</ele>
        <time>2021-03-25T05:30:58Z</time>
      </trkpt>
      <trkpt lat="47.51781" lon="-0.69245">
        <ele>53</ele>
        <time>2021-03-25T05:30:59Z</time>
      </trkpt>
      <trkpt lat="47.51785" lon="-0.69243">
        <ele>53</ele>
        <time>2021-03-25T05:30:59Z</time>
      </trkpt>
      <trkpt lat="47.518" lon="-0.69237">
        <ele>52</ele>
        <time>2021-03-25T05:31:02Z</time>
      </trkpt>
      <trkpt lat="47.51863" lon="-0.69217">
        <ele>53</ele>
        <time>2021-03-25T05:31:14Z</time>
      </trkpt>
      <trkpt lat="47.51881" lon="-0.6921">
        <ele>53</ele>
        <time>2021-03-25T05:31:17Z</time>
      </trkpt>
      <trkpt lat="47.51906" lon="-0.69198">
        <ele>54</ele>
        <time>2021-03-25T05:31:21Z</time>
      </trkpt>
      <trkpt lat="47.5192" lon="-0.69191">
        <ele>54</ele>
        <time>2021-03-25T05:31:24Z</time>
      </trkpt>
      <trkpt lat="47.51932" lon="-0.69184">
        <ele>55</ele>
        <time>2021-03-25T05:31:26Z</time>
      </trkpt>
      <trkpt lat="47.51949" lon="-0.69171">
        <ele>56</ele>
        <time>2021-03-25T05:31:30Z</time>
      </trkpt>
      <trkpt lat="47.51961" lon="-0.69159">
        <ele>56</ele>
        <time>2021-03-25T05:31:32Z</time>
      </trkpt>
      <trkpt lat="47.51972" lon="-0.69149">
        <ele>56</ele>
        <time>2021-03-25T05:31:35Z</time>
      </trkpt>
      <trkpt lat="47.51981" lon="-0.69141">
        <ele>56</ele>
        <time>2021-03-25T05:31:37Z</time>
      </trkpt>
      <trkpt lat="47.52015" lon="-0.69122">
        <ele>54</ele>
        <time>2021-03-25T05:31:43Z</time>
      </trkpt>
      <trkpt lat="47.52071" lon="-0.69094">
        <ele>51</ele>
        <time>2021-03-25T05:31:54Z</time>
      </trkpt>
      <trkpt lat="47.52079" lon="-0.6909">
        <ele>50</ele>
        <time>2021-03-25T05:31:55Z</time>
      </trkpt>
      <trkpt lat="47.52091" lon="-0.69082">
        <ele>49</ele>
        <time>2021-03-25T05:31:57Z</time>
      </trkpt>
      <trkpt lat="47.52097" lon="-0.69074">
        <ele>49</ele>
        <time>2021-03-25T05:31:59Z</time>
      </trkpt>
      <trkpt lat="47.521" lon="-0.6907">
        <ele>48</ele>
        <time>2021-03-25T05:32:00Z</time>
      </trkpt>
      <trkpt lat="47.52102" lon="-0.69066">
        <ele>48</ele>
        <time>2021-03-25T05:32:00Z</time>
      </trkpt>
      <trkpt lat="47.52103" lon="-0.69061">
        <ele>48</ele>
        <time>2021-03-25T05:32:01Z</time>
      </trkpt>
      <trkpt lat="47.52105" lon="-0.69054">
        <ele>47</ele>
        <time>2021-03-25T05:32:02Z</time>
      </trkpt>
      <trkpt lat="47.52106" lon="-0.69048">
        <ele>47</ele>
        <time>2021-03-25T05:32:02Z</time>
      </trkpt>
      <trkpt lat="47.52107" lon="-0.69041">
        <ele>47</ele>
        <time>2021-03-25T05:32:03Z</time>
      </trkpt>
      <trkpt lat="47.52107" lon="-0.6903">
        <ele>47</ele>
        <time>2021-03-25T05:32:05Z</time>
      </trkpt>
      <trkpt lat="47.52107" lon="-0.69015">
        <ele>46</ele>
        <time>2021-03-25T05:32:06Z</time>
      </trkpt>
      <trkpt lat="47.52104" lon="-0.68997">
        <ele>46</ele>
        <time>2021-03-25T05:32:09Z</time>
      </trkpt>
      <trkpt lat="47.52101" lon="-0.68984">
        <ele>46</ele>
        <time>2021-03-25T05:32:10Z</time>
      </trkpt>
      <trkpt lat="47.52096" lon="-0.68961">
        <ele>46</ele>
        <time>2021-03-25T05:32:13Z</time>
      </trkpt>
      <trkpt lat="47.52091" lon="-0.68936">
        <ele>47</ele>
        <time>2021-03-25T05:32:16Z</time>
      </trkpt>
      <trkpt lat="47.52085" lon="-0.68913">
        <ele>47</ele>
        <time>2021-03-25T05:32:19Z</time>
      </trkpt>
      <trkpt lat="47.52077" lon="-0.68882">
        <ele>47</ele>
        <time>2021-03-25T05:32:23Z</time>
      </trkpt>
      <trkpt lat="47.52074" lon="-0.68869">
        <ele>47</ele>
        <time>2021-03-25T05:32:25Z</time>
      </trkpt>
      <trkpt lat="47.52063" lon="-0.68837">
        <ele>47</ele>
        <time>2021-03-25T05:32:29Z</time>
      </trkpt>
      <trkpt lat="47.52044" lon="-0.68784">
        <ele>47</ele>
        <time>2021-03-25T05:32:36Z</time>
      </trkpt>
      <trkpt lat="47.5203" lon="-0.68749">
        <ele>47</ele>
        <time>2021-03-25T05:32:41Z</time>
      </trkpt>
      <trkpt lat="47.52023" lon="-0.68724">
        <ele>47</ele>
        <time>2021-03-25T05:32:45Z</time>
      </trkpt>
      <trkpt lat="47.52022" lon="-0.68719">
        <ele>47</ele>
        <time>2021-03-25T05:32:45Z</time>
      </trkpt>
      <trkpt lat="47.52021" lon="-0.68713">
        <ele>47</ele>
        <time>2021-03-25T05:32:46Z</time>
      </trkpt>
      <trkpt lat="47.52022" lon="-0.6869">
        <ele>46</ele>
        <time>2021-03-25T05:32:49Z</time>
      </trkpt>
      <trkpt lat="47.52023" lon="-0.68673">
        <ele>46</ele>
        <time>2021-03-25T05:32:51Z</time>
      </trkpt>
      <trkpt lat="47.52038" lon="-0.68627">
        <ele>45</ele>
        <time>2021-03-25T05:32:57Z</time>
      </trkpt>
      <trkpt lat="47.52073" lon="-0.68521">
        <ele>42</ele>
        <time>2021-03-25T05:33:11Z</time>
      </trkpt>
      <trkpt lat="47.52081" lon="-0.68485">
        <ele>42</ele>
        <time>2021-03-25T05:33:16Z</time>
      </trkpt>
      <trkpt lat="47.52083" lon="-0.68476">
        <ele>42</ele>
        <time>2021-03-25T05:33:17Z</time>
      </trkpt>
      <trkpt lat="47.52092" lon="-0.68424">
        <ele>42</ele>
        <time>2021-03-25T05:33:23Z</time>
      </trkpt>
      <trkpt lat="47.52092" lon="-0.684">
        <ele>42</ele>
        <time>2021-03-25T05:33:26Z</time>
      </trkpt>
      <trkpt lat="47.52091" lon="-0.68384">
        <ele>41</ele>
        <time>2021-03-25T05:33:28Z</time>
      </trkpt>
      <trkpt lat="47.52085" lon="-0.68353">
        <ele>41</ele>
        <time>2021-03-25T05:33:32Z</time>
      </trkpt>
      <trkpt lat="47.52077" lon="-0.68324">
        <ele>41</ele>
        <time>2021-03-25T05:33:36Z</time>
      </trkpt>
      <trkpt lat="47.52075" lon="-0.68301">
        <ele>40</ele>
        <time>2021-03-25T05:33:38Z</time>
      </trkpt>
      <trkpt lat="47.52073" lon="-0.68259">
        <ele>39</ele>
        <time>2021-03-25T05:33:44Z</time>
      </trkpt>
      <trkpt lat="47.52073" lon="-0.68254">
        <ele>39</ele>
        <time>2021-03-25T05:33:44Z</time>
      </trkpt>
      <trkpt lat="47.52074" lon="-0.6821">
        <ele>39</ele>
        <time>2021-03-25T05:33:49Z</time>
      </trkpt>
      <trkpt lat="47.52074" lon="-0.682">
        <ele>38</ele>
        <time>2021-03-25T05:33:51Z</time>
      </trkpt>
      <trkpt lat="47.52076" lon="-0.68174">
        <ele>38</ele>
        <time>2021-03-25T05:33:54Z</time>
      </trkpt>
      <trkpt lat="47.5208" lon="-0.6814">
        <ele>37</ele>
        <time>2021-03-25T05:33:58Z</time>
      </trkpt>
      <trkpt lat="47.52087" lon="-0.68108">
        <ele>36</ele>
        <time>2021-03-25T05:34:02Z</time>
      </trkpt>
      <trkpt lat="47.52104" lon="-0.68054">
        <ele>33</ele>
        <time>2021-03-25T05:34:09Z</time>
      </trkpt>
      <trkpt lat="47.52112" lon="-0.68029">
        <ele>33</ele>
        <time>2021-03-25T05:34:12Z</time>
      </trkpt>
      <trkpt lat="47.52115" lon="-0.68016">
        <ele>32</ele>
        <time>2021-03-25T05:34:14Z</time>
      </trkpt>
      <trkpt lat="47.52118" lon="-0.68005">
        <ele>32</ele>
        <time>2021-03-25T05:34:16Z</time>
      </trkpt>
      <trkpt lat="47.5212" lon="-0.67994">
        <ele>32</ele>
        <time>2021-03-25T05:34:17Z</time>
      </trkpt>
      <trkpt lat="47.52122" lon="-0.67986">
        <ele>32</ele>
        <time>2021-03-25T05:34:18Z</time>
      </trkpt>
      <trkpt lat="47.52122" lon="-0.67977">
        <ele>32</ele>
        <time>2021-03-25T05:34:19Z</time>
      </trkpt>
      <trkpt lat="47.52123" lon="-0.67965">
        <ele>32</ele>
        <time>2021-03-25T05:34:20Z</time>
      </trkpt>
      <trkpt lat="47.52122" lon="-0.6795">
        <ele>32</ele>
        <time>2021-03-25T05:34:22Z</time>
      </trkpt>
      <trkpt lat="47.52121" lon="-0.67937">
        <ele>32</ele>
        <time>2021-03-25T05:34:24Z</time>
      </trkpt>
      <trkpt lat="47.52112" lon="-0.67896">
        <ele>33</ele>
        <time>2021-03-25T05:34:29Z</time>
      </trkpt>
      <trkpt lat="47.52107" lon="-0.67874">
        <ele>33</ele>
        <time>2021-03-25T05:34:32Z</time>
      </trkpt>
      <trkpt lat="47.52103" lon="-0.67849">
        <ele>33</ele>
        <time>2021-03-25T05:34:35Z</time>
      </trkpt>
      <trkpt lat="47.52102" lon="-0.67832">
        <ele>33</ele>
        <time>2021-03-25T05:34:37Z</time>
      </trkpt>
      <trkpt lat="47.52103" lon="-0.67818">
        <ele>33</ele>
        <time>2021-03-25T05:34:39Z</time>
      </trkpt>
      <trkpt lat="47.52104" lon="-0.67806">
        <ele>33</ele>
        <time>2021-03-25T05:34:40Z</time>
      </trkpt>
      <trkpt lat="47.52105" lon="-0.67795">
        <ele>32</ele>
        <time>2021-03-25T05:34:41Z</time>
      </trkpt>
      <trkpt lat="47.52111" lon="-0.67767">
        <ele>32</ele>
        <time>2021-03-25T05:34:45Z</time>
      </trkpt>
      <trkpt lat="47.52117" lon="-0.67742">
        <ele>32</ele>
        <time>2021-03-25T05:34:48Z</time>
      </trkpt>
      <trkpt lat="47.52122" lon="-0.67722">
        <ele>32</ele>
        <time>2021-03-25T05:34:51Z</time>
      </trkpt>
      <trkpt lat="47.52124" lon="-0.67708">
        <ele>32</ele>
        <time>2021-03-25T05:34:52Z</time>
      </trkpt>
      <trkpt lat="47.52125" lon="-0.677">
        <ele>32</ele>
        <time>2021-03-25T05:34:53Z</time>
      </trkpt>
      <trkpt lat="47.52125" lon="-0.67692">
        <ele>32</ele>
        <time>2021-03-25T05:34:54Z</time>
      </trkpt>
      <trkpt lat="47.52126" lon="-0.67677">
        <ele>32</ele>
        <time>2021-03-25T05:34:56Z</time>
      </trkpt>
      <trkpt lat="47.52126" lon="-0.67671">
        <ele>32</ele>
        <time>2021-03-25T05:34:57Z</time>
      </trkpt>
      <trkpt lat="47.52125" lon="-0.67667">
        <ele>32</ele>
        <time>2021-03-25T05:34:57Z</time>
      </trkpt>
      <trkpt lat="47.52125" lon="-0.67662">
        <ele>33</ele>
        <time>2021-03-25T05:34:58Z</time>
      </trkpt>
      <trkpt lat="47.52122" lon="-0.6764">
        <ele>33</ele>
        <time>2021-03-25T05:35:01Z</time>
      </trkpt>
      <trkpt lat="47.5212" lon="-0.67625">
        <ele>34</ele>
        <time>2021-03-25T05:35:03Z</time>
      </trkpt>
      <trkpt lat="47.52114" lon="-0.67605">
        <ele>34</ele>
        <time>2021-03-25T05:35:05Z</time>
      </trkpt>
      <trkpt lat="47.5211" lon="-0.67592">
        <ele>34</ele>
        <time>2021-03-25T05:35:07Z</time>
      </trkpt>
      <trkpt lat="47.52102" lon="-0.67573">
        <ele>35</ele>
        <time>2021-03-25T05:35:10Z</time>
      </trkpt>
      <trkpt lat="47.52087" lon="-0.67546">
        <ele>34</ele>
        <time>2021-03-25T05:35:14Z</time>
      </trkpt>
      <trkpt lat="47.52078" lon="-0.67529">
        <ele>34</ele>
        <time>2021-03-25T05:35:16Z</time>
      </trkpt>
      <trkpt lat="47.52059" lon="-0.67487">
        <ele>33</ele>
        <time>2021-03-25T05:35:22Z</time>
      </trkpt>
      <trkpt lat="47.52028" lon="-0.67402">
        <ele>35</ele>
        <time>2021-03-25T05:35:34Z</time>
      </trkpt>
      <trkpt lat="47.52022" lon="-0.67387">
        <ele>35</ele>
        <time>2021-03-25T05:35:36Z</time>
      </trkpt>
      <trkpt lat="47.51997" lon="-0.67331">
        <ele>35</ele>
        <time>2021-03-25T05:35:44Z</time>
      </trkpt>
      <trkpt lat="47.51989" lon="-0.67312">
        <ele>35</ele>
        <time>2021-03-25T05:35:47Z</time>
      </trkpt>
      <trkpt lat="47.51985" lon="-0.67303">
        <ele>35</ele>
        <time>2021-03-25T05:35:48Z</time>
      </trkpt>
      <trkpt lat="47.51983" lon="-0.67299">
        <ele>35</ele>
        <time>2021-03-25T05:35:49Z</time>
      </trkpt>
      <trkpt lat="47.5198" lon="-0.67291">
        <ele>36</ele>
        <time>2021-03-25T05:35:50Z</time>
      </trkpt>
      <trkpt lat="47.51977" lon="-0.67281">
        <ele>36</ele>
        <time>2021-03-25T05:35:51Z</time>
      </trkpt>
      <trkpt lat="47.5197" lon="-0.67258">
        <ele>36</ele>
        <time>2021-03-25T05:35:54Z</time>
      </trkpt>
      <trkpt lat="47.51969" lon="-0.67254">
        <ele>36</ele>
        <time>2021-03-25T05:35:55Z</time>
      </trkpt>
      <trkpt lat="47.51968" lon="-0.67247">
        <ele>37</ele>
        <time>2021-03-25T05:35:56Z</time>
      </trkpt>
      <trkpt lat="47.51965" lon="-0.67237">
        <ele>37</ele>
        <time>2021-03-25T05:35:57Z</time>
      </trkpt>
      <trkpt lat="47.51958" lon="-0.67206">
        <ele>38</ele>
        <time>2021-03-25T05:36:01Z</time>
      </trkpt>
      <trkpt lat="47.51954" lon="-0.67191">
        <ele>39</ele>
        <time>2021-03-25T05:36:03Z</time>
      </trkpt>
      <trkpt lat="47.51939" lon="-0.67125">
        <ele>40</ele>
        <time>2021-03-25T05:36:11Z</time>
      </trkpt>
      <trkpt lat="47.51937" lon="-0.6711">
        <ele>40</ele>
        <time>2021-03-25T05:36:13Z</time>
      </trkpt>
      <trkpt lat="47.51933" lon="-0.67069">
        <ele>40</ele>
        <time>2021-03-25T05:36:18Z</time>
      </trkpt>
      <trkpt lat="47.51931" lon="-0.67014">
        <ele>39</ele>
        <time>2021-03-25T05:36:25Z</time>
      </trkpt>
      <trkpt lat="47.5193" lon="-0.6697">
        <ele>39</ele>
        <time>2021-03-25T05:36:30Z</time>
      </trkpt>
      <trkpt lat="47.51927" lon="-0.66945">
        <ele>38</ele>
        <time>2021-03-25T05:36:33Z</time>
      </trkpt>
      <trkpt lat="47.51924" lon="-0.66928">
        <ele>38</ele>
        <time>2021-03-25T05:36:35Z</time>
      </trkpt>
      <trkpt lat="47.51923" lon="-0.66907">
        <ele>37</ele>
        <time>2021-03-25T05:36:38Z</time>
      </trkpt>
      <trkpt lat="47.51921" lon="-0.66858">
        <ele>37</ele>
        <time>2021-03-25T05:36:43Z</time>
      </trkpt>
      <trkpt lat="47.51921" lon="-0.66837">
        <ele>36</ele>
        <time>2021-03-25T05:36:46Z</time>
      </trkpt>
      <trkpt lat="47.5192" lon="-0.66816">
        <ele>36</ele>
        <time>2021-03-25T05:36:49Z</time>
      </trkpt>
      <trkpt lat="47.5192" lon="-0.66806">
        <ele>36</ele>
        <time>2021-03-25T05:36:50Z</time>
      </trkpt>
      <trkpt lat="47.5192" lon="-0.66799">
        <ele>36</ele>
        <time>2021-03-25T05:36:51Z</time>
      </trkpt>
      <trkpt lat="47.5192" lon="-0.66796">
        <ele>36</ele>
        <time>2021-03-25T05:36:51Z</time>
      </trkpt>
      <trkpt lat="47.5192" lon="-0.66793">
        <ele>36</ele>
        <time>2021-03-25T05:36:51Z</time>
      </trkpt>
      <trkpt lat="47.5192" lon="-0.6679">
        <ele>36</ele>
        <time>2021-03-25T05:36:52Z</time>
      </trkpt>
      <trkpt lat="47.51921" lon="-0.66787">
        <ele>36</ele>
        <time>2021-03-25T05:36:52Z</time>
      </trkpt>
      <trkpt lat="47.51924" lon="-0.66778">
        <ele>36</ele>
        <time>2021-03-25T05:36:53Z</time>
      </trkpt>
      <trkpt lat="47.51924" lon="-0.66778">
        <ele>36</ele>
        <time>2021-03-25T05:36:53Z</time>
      </trkpt>
      <trkpt lat="47.51903" lon="-0.66765">
        <ele>35</ele>
        <time>2021-03-25T05:36:57Z</time>
      </trkpt>
      <trkpt lat="47.51893" lon="-0.66761">
        <ele>34</ele>
        <time>2021-03-25T05:36:59Z</time>
      </trkpt>
      <trkpt lat="47.51893" lon="-0.66761">
        <ele>34</ele>
        <time>2021-03-25T05:36:59Z</time>
      </trkpt>
      <trkpt lat="47.51892" lon="-0.66761">
        <ele>34</ele>
        <time>2021-03-25T05:36:59Z</time>
      </trkpt>
      <trkpt lat="47.51892" lon="-0.66762">
        <ele>34</ele>
        <time>2021-03-25T05:36:59Z</time>
      </trkpt>
      <trkpt lat="47.51891" lon="-0.66763">
        <ele>34</ele>
        <time>2021-03-25T05:37:00Z</time>
      </trkpt>
      <trkpt lat="47.5189" lon="-0.66763">
        <ele>34</ele>
        <time>2021-03-25T05:37:00Z</time>
      </trkpt>
      <trkpt lat="47.5189" lon="-0.66764">
        <ele>34</ele>
        <time>2021-03-25T05:37:00Z</time>
      </trkpt>
      <trkpt lat="47.51889" lon="-0.66764">
        <ele>34</ele>
        <time>2021-03-25T05:37:00Z</time>
      </trkpt>
      <trkpt lat="47.51888" lon="-0.66764">
        <ele>34</ele>
        <time>2021-03-25T05:37:00Z</time>
      </trkpt>
      <trkpt lat="47.51887" lon="-0.66764">
        <ele>34</ele>
        <time>2021-03-25T05:37:00Z</time>
      </trkpt>
      <trkpt lat="47.51886" lon="-0.66764">
        <ele>34</ele>
        <time>2021-03-25T05:37:01Z</time>
      </trkpt>
      <trkpt lat="47.51885" lon="-0.66763">
        <ele>34</ele>
        <time>2021-03-25T05:37:01Z</time>
      </trkpt>
      <trkpt lat="47.51884" lon="-0.66762">
        <ele>34</ele>
        <time>2021-03-25T05:37:01Z</time>
      </trkpt>
      <trkpt lat="47.51884" lon="-0.66761">
        <ele>34</ele>
        <time>2021-03-25T05:37:01Z</time>
      </trkpt>
      <trkpt lat="47.51883" lon="-0.66761">
        <ele>34</ele>
        <time>2021-03-25T05:37:01Z</time>
      </trkpt>
      <trkpt lat="47.51883" lon="-0.6676">
        <ele>34</ele>
        <time>2021-03-25T05:37:02Z</time>
      </trkpt>
      <trkpt lat="47.51883" lon="-0.66759">
        <ele>34</ele>
        <time>2021-03-25T05:37:02Z</time>
      </trkpt>
      <trkpt lat="47.51882" lon="-0.66758">
        <ele>34</ele>
        <time>2021-03-25T05:37:02Z</time>
      </trkpt>
      <trkpt lat="47.51882" lon="-0.66757">
        <ele>33</ele>
        <time>2021-03-25T05:37:02Z</time>
      </trkpt>
      <trkpt lat="47.51882" lon="-0.66756">
        <ele>33</ele>
        <time>2021-03-25T05:37:02Z</time>
      </trkpt>
      <trkpt lat="47.51882" lon="-0.66755">
        <ele>33</ele>
        <time>2021-03-25T05:37:02Z</time>
      </trkpt>
      <trkpt lat="47.51882" lon="-0.66754">
        <ele>33</ele>
        <time>2021-03-25T05:37:02Z</time>
      </trkpt>
      <trkpt lat="47.51882" lon="-0.66753">
        <ele>33</ele>
        <time>2021-03-25T05:37:02Z</time>
      </trkpt>
      <trkpt lat="47.51883" lon="-0.66752">
        <ele>33</ele>
        <time>2021-03-25T05:37:03Z</time>
      </trkpt>
      <trkpt lat="47.51883" lon="-0.66751">
        <ele>33</ele>
        <time>2021-03-25T05:37:03Z</time>
      </trkpt>
      <trkpt lat="47.51883" lon="-0.6675">
        <ele>33</ele>
        <time>2021-03-25T05:37:03Z</time>
      </trkpt>
      <trkpt lat="47.51884" lon="-0.6675">
        <ele>33</ele>
        <time>2021-03-25T05:37:03Z</time>
      </trkpt>
      <trkpt lat="47.51884" lon="-0.66749">
        <ele>33</ele>
        <time>2021-03-25T05:37:03Z</time>
      </trkpt>
      <trkpt lat="47.51883" lon="-0.66735">
        <ele>34</ele>
        <time>2021-03-25T05:37:05Z</time>
      </trkpt>
      <trkpt lat="47.5188" lon="-0.66719">
        <ele>34</ele>
        <time>2021-03-25T05:37:07Z</time>
      </trkpt>
      <trkpt lat="47.5188" lon="-0.66717">
        <ele>34</ele>
        <time>2021-03-25T05:37:07Z</time>
      </trkpt>
      <trkpt lat="47.51874" lon="-0.66698">
        <ele>34</ele>
        <time>2021-03-25T05:37:10Z</time>
      </trkpt>
      <trkpt lat="47.5187" lon="-0.66679">
        <ele>34</ele>
        <time>2021-03-25T05:37:12Z</time>
      </trkpt>
      <trkpt lat="47.51866" lon="-0.66656">
        <ele>34</ele>
        <time>2021-03-25T05:37:15Z</time>
      </trkpt>
      <trkpt lat="47.51861" lon="-0.66628">
        <ele>35</ele>
        <time>2021-03-25T05:37:18Z</time>
      </trkpt>
      <trkpt lat="47.51858" lon="-0.66614">
        <ele>35</ele>
        <time>2021-03-25T05:37:20Z</time>
      </trkpt>
      <trkpt lat="47.51854" lon="-0.66599">
        <ele>35</ele>
        <time>2021-03-25T05:37:22Z</time>
      </trkpt>
      <trkpt lat="47.51849" lon="-0.66587">
        <ele>35</ele>
        <time>2021-03-25T05:37:24Z</time>
      </trkpt>
      <trkpt lat="47.51839" lon="-0.66562">
        <ele>36</ele>
        <time>2021-03-25T05:37:27Z</time>
      </trkpt>
      <trkpt lat="47.5183" lon="-0.66543">
        <ele>37</ele>
        <time>2021-03-25T05:37:30Z</time>
      </trkpt>
      <trkpt lat="47.51821" lon="-0.66529">
        <ele>38</ele>
        <time>2021-03-25T05:37:32Z</time>
      </trkpt>
      <trkpt lat="47.51813" lon="-0.66519">
        <ele>38</ele>
        <time>2021-03-25T05:37:34Z</time>
      </trkpt>
      <trkpt lat="47.51806" lon="-0.66513">
        <ele>38</ele>
        <time>2021-03-25T05:37:36Z</time>
      </trkpt>
      <trkpt lat="47.518" lon="-0.66509">
        <ele>37</ele>
        <time>2021-03-25T05:37:37Z</time>
      </trkpt>
      <trkpt lat="47.51793" lon="-0.66505">
        <ele>37</ele>
        <time>2021-03-25T05:37:38Z</time>
      </trkpt>
      <trkpt lat="47.51769" lon="-0.66495">
        <ele>35</ele>
        <time>2021-03-25T05:37:43Z</time>
      </trkpt>
      <trkpt lat="47.51741" lon="-0.66482">
        <ele>34</ele>
        <time>2021-03-25T05:37:48Z</time>
      </trkpt>
      <trkpt lat="47.51728" lon="-0.66473">
        <ele>34</ele>
        <time>2021-03-25T05:37:50Z</time>
      </trkpt>
      <trkpt lat="47.5172" lon="-0.66468">
        <ele>34</ele>
        <time>2021-03-25T05:37:52Z</time>
      </trkpt>
      <trkpt lat="47.51711" lon="-0.66461">
        <ele>34</ele>
        <time>2021-03-25T05:37:54Z</time>
      </trkpt>
      <trkpt lat="47.51705" lon="-0.66454">
        <ele>34</ele>
        <time>2021-03-25T05:37:55Z</time>
      </trkpt>
      <trkpt lat="47.51698" lon="-0.66445">
        <ele>34</ele>
        <time>2021-03-25T05:37:57Z</time>
      </trkpt>
      <trkpt lat="47.51691" lon="-0.66436">
        <ele>34</ele>
        <time>2021-03-25T05:37:58Z</time>
      </trkpt>
      <trkpt lat="47.5168" lon="-0.66417">
        <ele>34</ele>
        <time>2021-03-25T05:38:01Z</time>
      </trkpt>
      <trkpt lat="47.51655" lon="-0.66371">
        <ele>34</ele>
        <time>2021-03-25T05:38:09Z</time>
      </trkpt>
      <trkpt lat="47.51633" lon="-0.66331">
        <ele>35</ele>
        <time>2021-03-25T05:38:15Z</time>
      </trkpt>
      <trkpt lat="47.51616" lon="-0.66298">
        <ele>36</ele>
        <time>2021-03-25T05:38:20Z</time>
      </trkpt>
      <trkpt lat="47.51604" lon="-0.66275">
        <ele>37</ele>
        <time>2021-03-25T05:38:23Z</time>
      </trkpt>
      <trkpt lat="47.51578" lon="-0.66225">
        <ele>37</ele>
        <time>2021-03-25T05:38:31Z</time>
      </trkpt>
      <trkpt lat="47.51541" lon="-0.66155">
        <ele>40</ele>
        <time>2021-03-25T05:38:41Z</time>
      </trkpt>
      <trkpt lat="47.51533" lon="-0.66138">
        <ele>40</ele>
        <time>2021-03-25T05:38:44Z</time>
      </trkpt>
      <trkpt lat="47.51526" lon="-0.66122">
        <ele>40</ele>
        <time>2021-03-25T05:38:46Z</time>
      </trkpt>
      <trkpt lat="47.5152" lon="-0.66106">
        <ele>41</ele>
        <time>2021-03-25T05:38:48Z</time>
      </trkpt>
      <trkpt lat="47.5151" lon="-0.66081">
        <ele>41</ele>
        <time>2021-03-25T05:38:52Z</time>
      </trkpt>
      <trkpt lat="47.51497" lon="-0.66048">
        <ele>41</ele>
        <time>2021-03-25T05:38:57Z</time>
      </trkpt>
      <trkpt lat="47.51489" lon="-0.6603">
        <ele>42</ele>
        <time>2021-03-25T05:38:59Z</time>
      </trkpt>
      <trkpt lat="47.51485" lon="-0.6602">
        <ele>42</ele>
        <time>2021-03-25T05:39:01Z</time>
      </trkpt>
      <trkpt lat="47.51475" lon="-0.66">
        <ele>42</ele>
        <time>2021-03-25T05:39:04Z</time>
      </trkpt>
      <trkpt lat="47.51463" lon="-0.65979">
        <ele>42</ele>
        <time>2021-03-25T05:39:07Z</time>
      </trkpt>
      <trkpt lat="47.51448" lon="-0.65954">
        <ele>42</ele>
        <time>2021-03-25T05:39:11Z</time>
      </trkpt>
      <trkpt lat="47.51442" lon="-0.65945">
        <ele>42</ele>
        <time>2021-03-25T05:39:12Z</time>
      </trkpt>
      <trkpt lat="47.51436" lon="-0.65936">
        <ele>42</ele>
        <time>2021-03-25T05:39:14Z</time>
      </trkpt>
      <trkpt lat="47.51424" lon="-0.65919">
        <ele>43</ele>
        <time>2021-03-25T05:39:17Z</time>
      </trkpt>
      <trkpt lat="47.51407" lon="-0.65897">
        <ele>42</ele>
        <time>2021-03-25T05:39:21Z</time>
      </trkpt>
      <trkpt lat="47.51391" lon="-0.65877">
        <ele>42</ele>
        <time>2021-03-25T05:39:25Z</time>
      </trkpt>
      <trkpt lat="47.51379" lon="-0.6586">
        <ele>41</ele>
        <time>2021-03-25T05:39:28Z</time>
      </trkpt>
      <trkpt lat="47.51367" lon="-0.65842">
        <ele>41</ele>
        <time>2021-03-25T05:39:31Z</time>
      </trkpt>
      <trkpt lat="47.51355" lon="-0.65822">
        <ele>40</ele>
        <time>2021-03-25T05:39:34Z</time>
      </trkpt>
      <trkpt lat="47.51344" lon="-0.65803">
        <ele>40</ele>
        <time>2021-03-25T05:39:37Z</time>
      </trkpt>
      <trkpt lat="47.51334" lon="-0.65784">
        <ele>39</ele>
        <time>2021-03-25T05:39:40Z</time>
      </trkpt>
      <trkpt lat="47.51327" lon="-0.6577">
        <ele>38</ele>
        <time>2021-03-25T05:39:42Z</time>
      </trkpt>
      <trkpt lat="47.51318" lon="-0.6575">
        <ele>37</ele>
        <time>2021-03-25T05:39:45Z</time>
      </trkpt>
      <trkpt lat="47.51306" lon="-0.65724">
        <ele>36</ele>
        <time>2021-03-25T05:39:48Z</time>
      </trkpt>
      <trkpt lat="47.51294" lon="-0.65694">
        <ele>35</ele>
        <time>2021-03-25T05:39:53Z</time>
      </trkpt>
      <trkpt lat="47.51282" lon="-0.6566">
        <ele>35</ele>
        <time>2021-03-25T05:39:57Z</time>
      </trkpt>
      <trkpt lat="47.51276" lon="-0.65644">
        <ele>34</ele>
        <time>2021-03-25T05:39:59Z</time>
      </trkpt>
      <trkpt lat="47.51269" lon="-0.65629">
        <ele>34</ele>
        <time>2021-03-25T05:40:02Z</time>
      </trkpt>
      <trkpt lat="47.51262" lon="-0.65614">
        <ele>34</ele>
        <time>2021-03-25T05:40:04Z</time>
      </trkpt>
      <trkpt lat="47.51236" lon="-0.65571">
        <ele>35</ele>
        <time>2021-03-25T05:40:11Z</time>
      </trkpt>
      <trkpt lat="47.51211" lon="-0.65529">
        <ele>36</ele>
        <time>2021-03-25T05:40:17Z</time>
      </trkpt>
      <trkpt lat="47.51194" lon="-0.65501">
        <ele>38</ele>
        <time>2021-03-25T05:40:22Z</time>
      </trkpt>
      <trkpt lat="47.5118" lon="-0.65476">
        <ele>39</ele>
        <time>2021-03-25T05:40:26Z</time>
      </trkpt>
      <trkpt lat="47.5117" lon="-0.65458">
        <ele>39</ele>
        <time>2021-03-25T05:40:29Z</time>
      </trkpt>
      <trkpt lat="47.51162" lon="-0.65441">
        <ele>40</ele>
        <time>2021-03-25T05:40:31Z</time>
      </trkpt>
      <trkpt lat="47.51157" lon="-0.65428">
        <ele>40</ele>
        <time>2021-03-25T05:40:33Z</time>
      </trkpt>
      <trkpt lat="47.51152" lon="-0.65413">
        <ele>41</ele>
        <time>2021-03-25T05:40:35Z</time>
      </trkpt>
      <trkpt lat="47.51133" lon="-0.65357">
        <ele>40</ele>
        <time>2021-03-25T05:40:43Z</time>
      </trkpt>
      <trkpt lat="47.5111" lon="-0.65285">
        <ele>40</ele>
        <time>2021-03-25T05:40:52Z</time>
      </trkpt>
      <trkpt lat="47.511" lon="-0.65253">
        <ele>40</ele>
        <time>2021-03-25T05:40:56Z</time>
      </trkpt>
      <trkpt lat="47.51087" lon="-0.65211">
        <ele>40</ele>
        <time>2021-03-25T05:41:02Z</time>
      </trkpt>
      <trkpt lat="47.51077" lon="-0.65173">
        <ele>39</ele>
        <time>2021-03-25T05:41:07Z</time>
      </trkpt>
      <trkpt lat="47.51064" lon="-0.65116">
        <ele>39</ele>
        <time>2021-03-25T05:41:14Z</time>
      </trkpt>
      <trkpt lat="47.51057" lon="-0.65075">
        <ele>38</ele>
        <time>2021-03-25T05:41:19Z</time>
      </trkpt>
      <trkpt lat="47.51054" lon="-0.65052">
        <ele>38</ele>
        <time>2021-03-25T05:41:22Z</time>
      </trkpt>
      <trkpt lat="47.51052" lon="-0.65042">
        <ele>38</ele>
        <time>2021-03-25T05:41:23Z</time>
      </trkpt>
      <trkpt lat="47.51048" lon="-0.65013">
        <ele>38</ele>
        <time>2021-03-25T05:41:27Z</time>
      </trkpt>
      <trkpt lat="47.51043" lon="-0.64971">
        <ele>39</ele>
        <time>2021-03-25T05:41:32Z</time>
      </trkpt>
      <trkpt lat="47.51042" lon="-0.64963">
        <ele>39</ele>
        <time>2021-03-25T05:41:33Z</time>
      </trkpt>
      <trkpt lat="47.51038" lon="-0.64936">
        <ele>40</ele>
        <time>2021-03-25T05:41:36Z</time>
      </trkpt>
      <trkpt lat="47.51034" lon="-0.64913">
        <ele>41</ele>
        <time>2021-03-25T05:41:39Z</time>
      </trkpt>
      <trkpt lat="47.51027" lon="-0.64874">
        <ele>42</ele>
        <time>2021-03-25T05:41:44Z</time>
      </trkpt>
      <trkpt lat="47.51019" lon="-0.64836">
        <ele>44</ele>
        <time>2021-03-25T05:41:49Z</time>
      </trkpt>
      <trkpt lat="47.5101" lon="-0.64801">
        <ele>45</ele>
        <time>2021-03-25T05:41:53Z</time>
      </trkpt>
      <trkpt lat="47.51" lon="-0.64767">
        <ele>45</ele>
        <time>2021-03-25T05:41:58Z</time>
      </trkpt>
      <trkpt lat="47.50989" lon="-0.64733">
        <ele>45</ele>
        <time>2021-03-25T05:42:02Z</time>
      </trkpt>
      <trkpt lat="47.50975" lon="-0.64697">
        <ele>44</ele>
        <time>2021-03-25T05:42:07Z</time>
      </trkpt>
      <trkpt lat="47.50958" lon="-0.64657">
        <ele>45</ele>
        <time>2021-03-25T05:42:13Z</time>
      </trkpt>
      <trkpt lat="47.50954" lon="-0.64646">
        <ele>45</ele>
        <time>2021-03-25T05:42:14Z</time>
      </trkpt>
      <trkpt lat="47.50943" lon="-0.64616">
        <ele>45</ele>
        <time>2021-03-25T05:42:18Z</time>
      </trkpt>
      <trkpt lat="47.5092" lon="-0.64561">
        <ele>45</ele>
        <time>2021-03-25T05:42:26Z</time>
      </trkpt>
      <trkpt lat="47.50889" lon="-0.64481">
        <ele>44</ele>
        <time>2021-03-25T05:42:37Z</time>
      </trkpt>
      <trkpt lat="47.50882" lon="-0.64466">
        <ele>44</ele>
        <time>2021-03-25T05:42:39Z</time>
      </trkpt>
      <trkpt lat="47.50875" lon="-0.64452">
        <ele>44</ele>
        <time>2021-03-25T05:42:42Z</time>
      </trkpt>
      <trkpt lat="47.50868" lon="-0.64439">
        <ele>43</ele>
        <time>2021-03-25T05:42:44Z</time>
      </trkpt>
      <trkpt lat="47.5086" lon="-0.64426">
        <ele>43</ele>
        <time>2021-03-25T05:42:46Z</time>
      </trkpt>
      <trkpt lat="47.50852" lon="-0.64414">
        <ele>43</ele>
        <time>2021-03-25T05:42:48Z</time>
      </trkpt>
      <trkpt lat="47.50844" lon="-0.64403">
        <ele>42</ele>
        <time>2021-03-25T05:42:50Z</time>
      </trkpt>
      <trkpt lat="47.50835" lon="-0.64393">
        <ele>42</ele>
        <time>2021-03-25T05:42:52Z</time>
      </trkpt>
      <trkpt lat="47.50826" lon="-0.64385">
        <ele>41</ele>
        <time>2021-03-25T05:42:54Z</time>
      </trkpt>
      <trkpt lat="47.50806" lon="-0.64368">
        <ele>40</ele>
        <time>2021-03-25T05:42:58Z</time>
      </trkpt>
      <trkpt lat="47.50786" lon="-0.64354">
        <ele>39</ele>
        <time>2021-03-25T05:43:02Z</time>
      </trkpt>
      <trkpt lat="47.50765" lon="-0.6434">
        <ele>38</ele>
        <time>2021-03-25T05:43:06Z</time>
      </trkpt>
      <trkpt lat="47.50735" lon="-0.64319">
        <ele>36</ele>
        <time>2021-03-25T05:43:12Z</time>
      </trkpt>
      <trkpt lat="47.50715" lon="-0.64302">
        <ele>36</ele>
        <time>2021-03-25T05:43:16Z</time>
      </trkpt>
      <trkpt lat="47.50704" lon="-0.64291">
        <ele>36</ele>
        <time>2021-03-25T05:43:18Z</time>
      </trkpt>
      <trkpt lat="47.50693" lon="-0.64279">
        <ele>35</ele>
        <time>2021-03-25T05:43:20Z</time>
      </trkpt>
      <trkpt lat="47.50685" lon="-0.64268">
        <ele>35</ele>
        <time>2021-03-25T05:43:22Z</time>
      </trkpt>
      <trkpt lat="47.50683" lon="-0.64266">
        <ele>35</ele>
        <time>2021-03-25T05:43:23Z</time>
      </trkpt>
      <trkpt lat="47.50674" lon="-0.64252">
        <ele>35</ele>
        <time>2021-03-25T05:43:25Z</time>
      </trkpt>
      <trkpt lat="47.50673" lon="-0.6425">
        <ele>35</ele>
        <time>2021-03-25T05:43:25Z</time>
      </trkpt>
      <trkpt lat="47.5067" lon="-0.64243">
        <ele>35</ele>
        <time>2021-03-25T05:43:26Z</time>
      </trkpt>
      <trkpt lat="47.50664" lon="-0.64233">
        <ele>35</ele>
        <time>2021-03-25T05:43:28Z</time>
      </trkpt>
      <trkpt lat="47.50654" lon="-0.64208">
        <ele>36</ele>
        <time>2021-03-25T05:43:32Z</time>
      </trkpt>
      <trkpt lat="47.50642" lon="-0.6418">
        <ele>36</ele>
        <time>2021-03-25T05:43:36Z</time>
      </trkpt>
      <trkpt lat="47.50615" lon="-0.64107">
        <ele>37</ele>
        <time>2021-03-25T05:43:46Z</time>
      </trkpt>
      <trkpt lat="47.50561" lon="-0.6397">
        <ele>37</ele>
        <time>2021-03-25T05:44:05Z</time>
      </trkpt>
      <trkpt lat="47.50539" lon="-0.63913">
        <ele>37</ele>
        <time>2021-03-25T05:44:12Z</time>
      </trkpt>
      <trkpt lat="47.50524" lon="-0.63875">
        <ele>37</ele>
        <time>2021-03-25T05:44:18Z</time>
      </trkpt>
      <trkpt lat="47.50513" lon="-0.63846">
        <ele>37</ele>
        <time>2021-03-25T05:44:22Z</time>
      </trkpt>
      <trkpt lat="47.50505" lon="-0.63826">
        <ele>37</ele>
        <time>2021-03-25T05:44:25Z</time>
      </trkpt>
      <trkpt lat="47.50477" lon="-0.63758">
        <ele>37</ele>
        <time>2021-03-25T05:44:34Z</time>
      </trkpt>
      <trkpt lat="47.50457" lon="-0.63708">
        <ele>37</ele>
        <time>2021-03-25T05:44:41Z</time>
      </trkpt>
      <trkpt lat="47.5045" lon="-0.63691">
        <ele>37</ele>
        <time>2021-03-25T05:44:44Z</time>
      </trkpt>
      <trkpt lat="47.50442" lon="-0.63668">
        <ele>36</ele>
        <time>2021-03-25T05:44:47Z</time>
      </trkpt>
      <trkpt lat="47.50433" lon="-0.6364">
        <ele>37</ele>
        <time>2021-03-25T05:44:50Z</time>
      </trkpt>
      <trkpt lat="47.50428" lon="-0.63623">
        <ele>37</ele>
        <time>2021-03-25T05:44:53Z</time>
      </trkpt>
      <trkpt lat="47.50424" lon="-0.63608">
        <ele>37</ele>
        <time>2021-03-25T05:44:55Z</time>
      </trkpt>
      <trkpt lat="47.50418" lon="-0.63588">
        <ele>37</ele>
        <time>2021-03-25T05:44:57Z</time>
      </trkpt>
      <trkpt lat="47.50406" lon="-0.63532">
        <ele>38</ele>
        <time>2021-03-25T05:45:04Z</time>
      </trkpt>
      <trkpt lat="47.50394" lon="-0.63476">
        <ele>39</ele>
        <time>2021-03-25T05:45:11Z</time>
      </trkpt>
      <trkpt lat="47.50377" lon="-0.63401">
        <ele>39</ele>
        <time>2021-03-25T05:45:21Z</time>
      </trkpt>
      <trkpt lat="47.50364" lon="-0.63344">
        <ele>39</ele>
        <time>2021-03-25T05:45:28Z</time>
      </trkpt>
      <trkpt lat="47.50356" lon="-0.63307">
        <ele>39</ele>
        <time>2021-03-25T05:45:33Z</time>
      </trkpt>
      <trkpt lat="47.50348" lon="-0.63264">
        <ele>39</ele>
        <time>2021-03-25T05:45:38Z</time>
      </trkpt>
      <trkpt lat="47.50345" lon="-0.63251">
        <ele>39</ele>
        <time>2021-03-25T05:45:40Z</time>
      </trkpt>
      <trkpt lat="47.50332" lon="-0.63196">
        <ele>39</ele>
        <time>2021-03-25T05:45:47Z</time>
      </trkpt>
      <trkpt lat="47.50305" lon="-0.63106">
        <ele>40</ele>
        <time>2021-03-25T05:45:59Z</time>
      </trkpt>
      <trkpt lat="47.50275" lon="-0.63005">
        <ele>40</ele>
        <time>2021-03-25T05:46:12Z</time>
      </trkpt>
      <trkpt lat="47.50273" lon="-0.62997">
        <ele>40</ele>
        <time>2021-03-25T05:46:13Z</time>
      </trkpt>
      <trkpt lat="47.50239" lon="-0.62886">
        <ele>39</ele>
        <time>2021-03-25T05:46:27Z</time>
      </trkpt>
      <trkpt lat="47.50218" lon="-0.62815">
        <ele>39</ele>
        <time>2021-03-25T05:46:37Z</time>
      </trkpt>
      <trkpt lat="47.50192" lon="-0.62727">
        <ele>37</ele>
        <time>2021-03-25T05:46:48Z</time>
      </trkpt>
      <trkpt lat="47.5017" lon="-0.62651">
        <ele>36</ele>
        <time>2021-03-25T05:46:58Z</time>
      </trkpt>
      <trkpt lat="47.50159" lon="-0.62614">
        <ele>35</ele>
        <time>2021-03-25T05:47:03Z</time>
      </trkpt>
      <trkpt lat="47.50142" lon="-0.62558">
        <ele>34</ele>
        <time>2021-03-25T05:47:11Z</time>
      </trkpt>
      <trkpt lat="47.50126" lon="-0.62502">
        <ele>33</ele>
        <time>2021-03-25T05:47:18Z</time>
      </trkpt>
      <trkpt lat="47.50114" lon="-0.62468">
        <ele>33</ele>
        <time>2021-03-25T05:47:22Z</time>
      </trkpt>
      <trkpt lat="47.50102" lon="-0.62437">
        <ele>32</ele>
        <time>2021-03-25T05:47:27Z</time>
      </trkpt>
      <trkpt lat="47.50089" lon="-0.62408">
        <ele>32</ele>
        <time>2021-03-25T05:47:31Z</time>
      </trkpt>
      <trkpt lat="47.50068" lon="-0.62366">
        <ele>30</ele>
        <time>2021-03-25T05:47:37Z</time>
      </trkpt>
      <trkpt lat="47.50044" lon="-0.62319">
        <ele>26</ele>
        <time>2021-03-25T05:47:44Z</time>
      </trkpt>
      <trkpt lat="47.50034" lon="-0.623">
        <ele>25</ele>
        <time>2021-03-25T05:47:47Z</time>
      </trkpt>
      <trkpt lat="47.50028" lon="-0.62288">
        <ele>25</ele>
        <time>2021-03-25T05:47:49Z</time>
      </trkpt>
      <trkpt lat="47.50024" lon="-0.62278">
        <ele>24</ele>
        <time>2021-03-25T05:47:50Z</time>
      </trkpt>
      <trkpt lat="47.50017" lon="-0.62262">
        <ele>24</ele>
        <time>2021-03-25T05:47:53Z</time>
      </trkpt>
      <trkpt lat="47.50011" lon="-0.62248">
        <ele>24</ele>
        <time>2021-03-25T05:47:55Z</time>
      </trkpt>
      <trkpt lat="47.50002" lon="-0.62219">
        <ele>25</ele>
        <time>2021-03-25T05:47:58Z</time>
      </trkpt>
      <trkpt lat="47.49991" lon="-0.62184">
        <ele>26</ele>
        <time>2021-03-25T05:48:03Z</time>
      </trkpt>
      <trkpt lat="47.49987" lon="-0.62173">
        <ele>26</ele>
        <time>2021-03-25T05:48:05Z</time>
      </trkpt>
      <trkpt lat="47.49984" lon="-0.62162">
        <ele>26</ele>
        <time>2021-03-25T05:48:06Z</time>
      </trkpt>
      <trkpt lat="47.49969" lon="-0.62112">
        <ele>25</ele>
        <time>2021-03-25T05:48:13Z</time>
      </trkpt>
      <trkpt lat="47.49956" lon="-0.62067">
        <ele>24</ele>
        <time>2021-03-25T05:48:19Z</time>
      </trkpt>
      <trkpt lat="47.4994" lon="-0.62013">
        <ele>23</ele>
        <time>2021-03-25T05:48:26Z</time>
      </trkpt>
      <trkpt lat="47.4993" lon="-0.61975">
        <ele>23</ele>
        <time>2021-03-25T05:48:31Z</time>
      </trkpt>
      <trkpt lat="47.49922" lon="-0.61934">
        <ele>24</ele>
        <time>2021-03-25T05:48:36Z</time>
      </trkpt>
      <trkpt lat="47.49918" lon="-0.61912">
        <ele>24</ele>
        <time>2021-03-25T05:48:38Z</time>
      </trkpt>
      <trkpt lat="47.49909" lon="-0.61836">
        <ele>24</ele>
        <time>2021-03-25T05:48:48Z</time>
      </trkpt>
      <trkpt lat="47.49903" lon="-0.61787">
        <ele>24</ele>
        <time>2021-03-25T05:48:54Z</time>
      </trkpt>
      <trkpt lat="47.49891" lon="-0.61695">
        <ele>25</ele>
        <time>2021-03-25T05:49:05Z</time>
      </trkpt>
      <trkpt lat="47.49887" lon="-0.61672">
        <ele>25</ele>
        <time>2021-03-25T05:49:08Z</time>
      </trkpt>
      <trkpt lat="47.49882" lon="-0.6165">
        <ele>26</ele>
        <time>2021-03-25T05:49:11Z</time>
      </trkpt>
      <trkpt lat="47.49871" lon="-0.61606">
        <ele>26</ele>
        <time>2021-03-25T05:49:16Z</time>
      </trkpt>
      <trkpt lat="47.49862" lon="-0.61578">
        <ele>26</ele>
        <time>2021-03-25T05:49:20Z</time>
      </trkpt>
      <trkpt lat="47.49849" lon="-0.61535">
        <ele>25</ele>
        <time>2021-03-25T05:49:26Z</time>
      </trkpt>
      <trkpt lat="47.49841" lon="-0.61505">
        <ele>25</ele>
        <time>2021-03-25T05:49:29Z</time>
      </trkpt>
      <trkpt lat="47.49833" lon="-0.61461">
        <ele>27</ele>
        <time>2021-03-25T05:49:35Z</time>
      </trkpt>
      <trkpt lat="47.49829" lon="-0.61437">
        <ele>29</ele>
        <time>2021-03-25T05:49:38Z</time>
      </trkpt>
      <trkpt lat="47.49822" lon="-0.61383">
        <ele>31</ele>
        <time>2021-03-25T05:49:45Z</time>
      </trkpt>
      <trkpt lat="47.49815" lon="-0.61336">
        <ele>32</ele>
        <time>2021-03-25T05:49:50Z</time>
      </trkpt>
      <trkpt lat="47.49807" lon="-0.61298">
        <ele>31</ele>
        <time>2021-03-25T05:49:55Z</time>
      </trkpt>
      <trkpt lat="47.49798" lon="-0.61264">
        <ele>31</ele>
        <time>2021-03-25T05:49:59Z</time>
      </trkpt>
      <trkpt lat="47.49784" lon="-0.61221">
        <ele>30</ele>
        <time>2021-03-25T05:50:05Z</time>
      </trkpt>
      <trkpt lat="47.49773" lon="-0.61189">
        <ele>30</ele>
        <time>2021-03-25T05:50:10Z</time>
      </trkpt>
      <trkpt lat="47.49761" lon="-0.61163">
        <ele>29</ele>
        <time>2021-03-25T05:50:13Z</time>
      </trkpt>
      <trkpt lat="47.49744" lon="-0.61131">
        <ele>28</ele>
        <time>2021-03-25T05:50:18Z</time>
      </trkpt>
      <trkpt lat="47.4973" lon="-0.61106">
        <ele>28</ele>
        <time>2021-03-25T05:50:22Z</time>
      </trkpt>
      <trkpt lat="47.4971" lon="-0.6108">
        <ele>28</ele>
        <time>2021-03-25T05:50:27Z</time>
      </trkpt>
      <trkpt lat="47.49695" lon="-0.6106">
        <ele>27</ele>
        <time>2021-03-25T05:50:30Z</time>
      </trkpt>
      <trkpt lat="47.49688" lon="-0.61053">
        <ele>27</ele>
        <time>2021-03-25T05:50:32Z</time>
      </trkpt>
      <trkpt lat="47.49673" lon="-0.61036">
        <ele>27</ele>
        <time>2021-03-25T05:50:35Z</time>
      </trkpt>
      <trkpt lat="47.49651" lon="-0.61011">
        <ele>27</ele>
        <time>2021-03-25T05:50:40Z</time>
      </trkpt>
      <trkpt lat="47.49643" lon="-0.60999">
        <ele>27</ele>
        <time>2021-03-25T05:50:42Z</time>
      </trkpt>
      <trkpt lat="47.4962" lon="-0.60969">
        <ele>26</ele>
        <time>2021-03-25T05:50:48Z</time>
      </trkpt>
      <trkpt lat="47.49607" lon="-0.6095">
        <ele>25</ele>
        <time>2021-03-25T05:50:51Z</time>
      </trkpt>
      <trkpt lat="47.49598" lon="-0.60935">
        <ele>24</ele>
        <time>2021-03-25T05:50:53Z</time>
      </trkpt>
      <trkpt lat="47.49593" lon="-0.60924">
        <ele>24</ele>
        <time>2021-03-25T05:50:55Z</time>
      </trkpt>
      <trkpt lat="47.49586" lon="-0.60909">
        <ele>24</ele>
        <time>2021-03-25T05:50:57Z</time>
      </trkpt>
      <trkpt lat="47.49573" lon="-0.6088">
        <ele>24</ele>
        <time>2021-03-25T05:51:01Z</time>
      </trkpt>
      <trkpt lat="47.4956" lon="-0.60844">
        <ele>24</ele>
        <time>2021-03-25T05:51:06Z</time>
      </trkpt>
      <trkpt lat="47.49549" lon="-0.60811">
        <ele>24</ele>
        <time>2021-03-25T05:51:11Z</time>
      </trkpt>
      <trkpt lat="47.49541" lon="-0.60778">
        <ele>24</ele>
        <time>2021-03-25T05:51:15Z</time>
      </trkpt>
      <trkpt lat="47.49535" lon="-0.60745">
        <ele>25</ele>
        <time>2021-03-25T05:51:19Z</time>
      </trkpt>
      <trkpt lat="47.4953" lon="-0.60709">
        <ele>26</ele>
        <time>2021-03-25T05:51:23Z</time>
      </trkpt>
      <trkpt lat="47.49525" lon="-0.60652">
        <ele>27</ele>
        <time>2021-03-25T05:51:30Z</time>
      </trkpt>
      <trkpt lat="47.49513" lon="-0.60497">
        <ele>28</ele>
        <time>2021-03-25T05:51:49Z</time>
      </trkpt>
      <trkpt lat="47.49507" lon="-0.60442">
        <ele>29</ele>
        <time>2021-03-25T05:51:56Z</time>
      </trkpt>
      <trkpt lat="47.49504" lon="-0.60417">
        <ele>30</ele>
        <time>2021-03-25T05:51:59Z</time>
      </trkpt>
      <trkpt lat="47.49501" lon="-0.6039">
        <ele>30</ele>
        <time>2021-03-25T05:52:02Z</time>
      </trkpt>
      <trkpt lat="47.49497" lon="-0.60353">
        <ele>31</ele>
        <time>2021-03-25T05:52:07Z</time>
      </trkpt>
      <trkpt lat="47.49492" lon="-0.60327">
        <ele>31</ele>
        <time>2021-03-25T05:52:10Z</time>
      </trkpt>
      <trkpt lat="47.4949" lon="-0.60315">
        <ele>31</ele>
        <time>2021-03-25T05:52:11Z</time>
      </trkpt>
      <trkpt lat="47.49489" lon="-0.60309">
        <ele>32</ele>
        <time>2021-03-25T05:52:12Z</time>
      </trkpt>
      <trkpt lat="47.49487" lon="-0.60293">
        <ele>32</ele>
        <time>2021-03-25T05:52:14Z</time>
      </trkpt>
      <trkpt lat="47.49471" lon="-0.60199">
        <ele>34</ele>
        <time>2021-03-25T05:52:26Z</time>
      </trkpt>
      <trkpt lat="47.49454" lon="-0.60117">
        <ele>34</ele>
        <time>2021-03-25T05:52:36Z</time>
      </trkpt>
      <trkpt lat="47.49446" lon="-0.60092">
        <ele>34</ele>
        <time>2021-03-25T05:52:39Z</time>
      </trkpt>
      <trkpt lat="47.49416" lon="-0.59972">
        <ele>33</ele>
        <time>2021-03-25T05:52:55Z</time>
      </trkpt>
      <trkpt lat="47.49396" lon="-0.59897">
        <ele>31</ele>
        <time>2021-03-25T05:53:04Z</time>
      </trkpt>
      <trkpt lat="47.49384" lon="-0.59856">
        <ele>31</ele>
        <time>2021-03-25T05:53:10Z</time>
      </trkpt>
      <trkpt lat="47.4937" lon="-0.59807">
        <ele>32</ele>
        <time>2021-03-25T05:53:16Z</time>
      </trkpt>
      <trkpt lat="47.49362" lon="-0.5978">
        <ele>32</ele>
        <time>2021-03-25T05:53:20Z</time>
      </trkpt>
      <trkpt lat="47.49359" lon="-0.59763">
        <ele>33</ele>
        <time>2021-03-25T05:53:22Z</time>
      </trkpt>
      <trkpt lat="47.49349" lon="-0.59732">
        <ele>32</ele>
        <time>2021-03-25T05:53:26Z</time>
      </trkpt>
      <trkpt lat="47.49324" lon="-0.5966">
        <ele>31</ele>
        <time>2021-03-25T05:53:36Z</time>
      </trkpt>
      <trkpt lat="47.49301" lon="-0.59592">
        <ele>32</ele>
        <time>2021-03-25T05:53:45Z</time>
      </trkpt>
      <trkpt lat="47.49274" lon="-0.59509">
        <ele>31</ele>
        <time>2021-03-25T05:53:56Z</time>
      </trkpt>
      <trkpt lat="47.49252" lon="-0.59437">
        <ele>33</ele>
        <time>2021-03-25T05:54:05Z</time>
      </trkpt>
      <trkpt lat="47.49233" lon="-0.59361">
        <ele>33</ele>
        <time>2021-03-25T05:54:15Z</time>
      </trkpt>
      <trkpt lat="47.4923" lon="-0.59348">
        <ele>34</ele>
        <time>2021-03-25T05:54:17Z</time>
      </trkpt>
      <trkpt lat="47.49224" lon="-0.59334">
        <ele>34</ele>
        <time>2021-03-25T05:54:19Z</time>
      </trkpt>
      <trkpt lat="47.49201" lon="-0.59246">
        <ele>32</ele>
        <time>2021-03-25T05:54:30Z</time>
      </trkpt>
      <trkpt lat="47.49195" lon="-0.59229">
        <ele>33</ele>
        <time>2021-03-25T05:54:32Z</time>
      </trkpt>
      <trkpt lat="47.49189" lon="-0.59218">
        <ele>33</ele>
        <time>2021-03-25T05:54:34Z</time>
      </trkpt>
      <trkpt lat="47.49181" lon="-0.59206">
        <ele>33</ele>
        <time>2021-03-25T05:54:36Z</time>
      </trkpt>
      <trkpt lat="47.49181" lon="-0.59206">
        <ele>33</ele>
        <time>2021-03-25T05:54:36Z</time>
      </trkpt>
      <trkpt lat="47.4918" lon="-0.59205">
        <ele>33</ele>
        <time>2021-03-25T05:54:36Z</time>
      </trkpt>
      <trkpt lat="47.49179" lon="-0.59204">
        <ele>33</ele>
        <time>2021-03-25T05:54:37Z</time>
      </trkpt>
      <trkpt lat="47.49178" lon="-0.59203">
        <ele>33</ele>
        <time>2021-03-25T05:54:37Z</time>
      </trkpt>
      <trkpt lat="47.49177" lon="-0.59202">
        <ele>33</ele>
        <time>2021-03-25T05:54:37Z</time>
      </trkpt>
      <trkpt lat="47.49176" lon="-0.59201">
        <ele>33</ele>
        <time>2021-03-25T05:54:37Z</time>
      </trkpt>
      <trkpt lat="47.49176" lon="-0.59199">
        <ele>33</ele>
        <time>2021-03-25T05:54:38Z</time>
      </trkpt>
      <trkpt lat="47.49175" lon="-0.59198">
        <ele>33</ele>
        <time>2021-03-25T05:54:38Z</time>
      </trkpt>
      <trkpt lat="47.49175" lon="-0.59196">
        <ele>33</ele>
        <time>2021-03-25T05:54:38Z</time>
      </trkpt>
      <trkpt lat="47.49174" lon="-0.59195">
        <ele>33</ele>
        <time>2021-03-25T05:54:38Z</time>
      </trkpt>
      <trkpt lat="47.49174" lon="-0.59193">
        <ele>33</ele>
        <time>2021-03-25T05:54:38Z</time>
      </trkpt>
      <trkpt lat="47.49173" lon="-0.59192">
        <ele>33</ele>
        <time>2021-03-25T05:54:39Z</time>
      </trkpt>
      <trkpt lat="47.49173" lon="-0.5919">
        <ele>33</ele>
        <time>2021-03-25T05:54:39Z</time>
      </trkpt>
      <trkpt lat="47.49173" lon="-0.59188">
        <ele>34</ele>
        <time>2021-03-25T05:54:39Z</time>
      </trkpt>
      <trkpt lat="47.49166" lon="-0.59179">
        <ele>34</ele>
        <time>2021-03-25T05:54:41Z</time>
      </trkpt>
      <trkpt lat="47.49158" lon="-0.59171">
        <ele>34</ele>
        <time>2021-03-25T05:54:42Z</time>
      </trkpt>
      <trkpt lat="47.49148" lon="-0.59163">
        <ele>35</ele>
        <time>2021-03-25T05:54:45Z</time>
      </trkpt>
      <trkpt lat="47.49136" lon="-0.59153">
        <ele>35</ele>
        <time>2021-03-25T05:54:47Z</time>
      </trkpt>
      <trkpt lat="47.49132" lon="-0.59149">
        <ele>36</ele>
        <time>2021-03-25T05:54:48Z</time>
      </trkpt>
      <trkpt lat="47.49128" lon="-0.59143">
        <ele>36</ele>
        <time>2021-03-25T05:54:49Z</time>
      </trkpt>
      <trkpt lat="47.49098" lon="-0.59122">
        <ele>37</ele>
        <time>2021-03-25T05:54:55Z</time>
      </trkpt>
      <trkpt lat="47.49073" lon="-0.59104">
        <ele>38</ele>
        <time>2021-03-25T05:55:00Z</time>
      </trkpt>
      <trkpt lat="47.49048" lon="-0.59081">
        <ele>38</ele>
        <time>2021-03-25T05:55:05Z</time>
      </trkpt>
      <trkpt lat="47.49019" lon="-0.59046">
        <ele>38</ele>
        <time>2021-03-25T05:55:12Z</time>
      </trkpt>
      <trkpt lat="47.48995" lon="-0.59014">
        <ele>39</ele>
        <time>2021-03-25T05:55:17Z</time>
      </trkpt>
      <trkpt lat="47.48986" lon="-0.58999">
        <ele>39</ele>
        <time>2021-03-25T05:55:20Z</time>
      </trkpt>
      <trkpt lat="47.4894" lon="-0.58927">
        <ele>40</ele>
        <time>2021-03-25T05:55:32Z</time>
      </trkpt>
      <trkpt lat="47.48938" lon="-0.58924">
        <ele>40</ele>
        <time>2021-03-25T05:55:32Z</time>
      </trkpt>
      <trkpt lat="47.48852" lon="-0.58798">
        <ele>43</ele>
        <time>2021-03-25T05:55:54Z</time>
      </trkpt>
      <trkpt lat="47.48849" lon="-0.58794">
        <ele>43</ele>
        <time>2021-03-25T05:55:54Z</time>
      </trkpt>
      <trkpt lat="47.48828" lon="-0.58762">
        <ele>43</ele>
        <time>2021-03-25T05:56:00Z</time>
      </trkpt>
      <trkpt lat="47.48814" lon="-0.58742">
        <ele>43</ele>
        <time>2021-03-25T05:56:03Z</time>
      </trkpt>
      <trkpt lat="47.48798" lon="-0.58722">
        <ele>44</ele>
        <time>2021-03-25T05:56:07Z</time>
      </trkpt>
      <trkpt lat="47.48797" lon="-0.58722">
        <ele>44</ele>
        <time>2021-03-25T05:56:07Z</time>
      </trkpt>
      <trkpt lat="47.48796" lon="-0.58722">
        <ele>44</ele>
        <time>2021-03-25T05:56:07Z</time>
      </trkpt>
      <trkpt lat="47.48795" lon="-0.58722">
        <ele>44</ele>
        <time>2021-03-25T05:56:07Z</time>
      </trkpt>
      <trkpt lat="47.48794" lon="-0.58722">
        <ele>44</ele>
        <time>2021-03-25T05:56:08Z</time>
      </trkpt>
      <trkpt lat="47.48793" lon="-0.58722">
        <ele>44</ele>
        <time>2021-03-25T05:56:08Z</time>
      </trkpt>
      <trkpt lat="47.48792" lon="-0.58721">
        <ele>45</ele>
        <time>2021-03-25T05:56:08Z</time>
      </trkpt>
      <trkpt lat="47.48791" lon="-0.58721">
        <ele>45</ele>
        <time>2021-03-25T05:56:08Z</time>
      </trkpt>
      <trkpt lat="47.4879" lon="-0.5872">
        <ele>45</ele>
        <time>2021-03-25T05:56:08Z</time>
      </trkpt>
      <trkpt lat="47.48789" lon="-0.5872">
        <ele>45</ele>
        <time>2021-03-25T05:56:09Z</time>
      </trkpt>
      <trkpt lat="47.48789" lon="-0.58719">
        <ele>45</ele>
        <time>2021-03-25T05:56:09Z</time>
      </trkpt>
      <trkpt lat="47.48788" lon="-0.58718">
        <ele>45</ele>
        <time>2021-03-25T05:56:09Z</time>
      </trkpt>
      <trkpt lat="47.48787" lon="-0.58718">
        <ele>45</ele>
        <time>2021-03-25T05:56:09Z</time>
      </trkpt>
      <trkpt lat="47.48787" lon="-0.58717">
        <ele>45</ele>
        <time>2021-03-25T05:56:09Z</time>
      </trkpt>
      <trkpt lat="47.48787" lon="-0.58716">
        <ele>45</ele>
        <time>2021-03-25T05:56:09Z</time>
      </trkpt>
      <trkpt lat="47.48786" lon="-0.58715">
        <ele>45</ele>
        <time>2021-03-25T05:56:10Z</time>
      </trkpt>
      <trkpt lat="47.48785" lon="-0.58714">
        <ele>45</ele>
        <time>2021-03-25T05:56:10Z</time>
      </trkpt>
      <trkpt lat="47.48785" lon="-0.58713">
        <ele>45</ele>
        <time>2021-03-25T05:56:10Z</time>
      </trkpt>
      <trkpt lat="47.48784" lon="-0.58712">
        <ele>45</ele>
        <time>2021-03-25T05:56:10Z</time>
      </trkpt>
      <trkpt lat="47.48784" lon="-0.58711">
        <ele>45</ele>
        <time>2021-03-25T05:56:10Z</time>
      </trkpt>
      <trkpt lat="47.48784" lon="-0.5871">
        <ele>45</ele>
        <time>2021-03-25T05:56:10Z</time>
      </trkpt>
      <trkpt lat="47.48784" lon="-0.58709">
        <ele>45</ele>
        <time>2021-03-25T05:56:11Z</time>
      </trkpt>
      <trkpt lat="47.48783" lon="-0.58708">
        <ele>45</ele>
        <time>2021-03-25T05:56:11Z</time>
      </trkpt>
      <trkpt lat="47.48783" lon="-0.58707">
        <ele>45</ele>
        <time>2021-03-25T05:56:11Z</time>
      </trkpt>
      <trkpt lat="47.48783" lon="-0.58706">
        <ele>45</ele>
        <time>2021-03-25T05:56:11Z</time>
      </trkpt>
      <trkpt lat="47.48783" lon="-0.58705">
        <ele>45</ele>
        <time>2021-03-25T05:56:11Z</time>
      </trkpt>
      <trkpt lat="47.48783" lon="-0.58704">
        <ele>45</ele>
        <time>2021-03-25T05:56:11Z</time>
      </trkpt>
      <trkpt lat="47.48783" lon="-0.58703">
        <ele>45</ele>
        <time>2021-03-25T05:56:11Z</time>
      </trkpt>
      <trkpt lat="47.48783" lon="-0.58702">
        <ele>45</ele>
        <time>2021-03-25T05:56:11Z</time>
      </trkpt>
      <trkpt lat="47.48783" lon="-0.58701">
        <ele>45</ele>
        <time>2021-03-25T05:56:12Z</time>
      </trkpt>
      <trkpt lat="47.48783" lon="-0.587">
        <ele>45</ele>
        <time>2021-03-25T05:56:12Z</time>
      </trkpt>
      <trkpt lat="47.48783" lon="-0.58699">
        <ele>45</ele>
        <time>2021-03-25T05:56:12Z</time>
      </trkpt>
      <trkpt lat="47.48765" lon="-0.58672">
        <ele>46</ele>
        <time>2021-03-25T05:56:16Z</time>
      </trkpt>
      <trkpt lat="47.48757" lon="-0.5866">
        <ele>47</ele>
        <time>2021-03-25T05:56:18Z</time>
      </trkpt>
      <trkpt lat="47.48747" lon="-0.58644">
        <ele>47</ele>
        <time>2021-03-25T05:56:21Z</time>
      </trkpt>
      <trkpt lat="47.48739" lon="-0.58632">
        <ele>48</ele>
        <time>2021-03-25T05:56:23Z</time>
      </trkpt>
      <trkpt lat="47.48725" lon="-0.58611">
        <ele>48</ele>
        <time>2021-03-25T05:56:27Z</time>
      </trkpt>
      <trkpt lat="47.48707" lon="-0.58585">
        <ele>49</ele>
        <time>2021-03-25T05:56:31Z</time>
      </trkpt>
      <trkpt lat="47.48694" lon="-0.58567">
        <ele>49</ele>
        <time>2021-03-25T05:56:34Z</time>
      </trkpt>
      <trkpt lat="47.48676" lon="-0.58546">
        <ele>49</ele>
        <time>2021-03-25T05:56:38Z</time>
      </trkpt>
      <trkpt lat="47.48661" lon="-0.5853">
        <ele>49</ele>
        <time>2021-03-25T05:56:42Z</time>
      </trkpt>
      <trkpt lat="47.48629" lon="-0.58499">
        <ele>49</ele>
        <time>2021-03-25T05:56:48Z</time>
      </trkpt>
      <trkpt lat="47.48628" lon="-0.58498">
        <ele>49</ele>
        <time>2021-03-25T05:56:49Z</time>
      </trkpt>
      <trkpt lat="47.48605" lon="-0.58479">
        <ele>49</ele>
        <time>2021-03-25T05:56:53Z</time>
      </trkpt>
      <trkpt lat="47.48597" lon="-0.58471">
        <ele>49</ele>
        <time>2021-03-25T05:56:55Z</time>
      </trkpt>
      <trkpt lat="47.48579" lon="-0.58456">
        <ele>50</ele>
        <time>2021-03-25T05:56:59Z</time>
      </trkpt>
      <trkpt lat="47.48575" lon="-0.58453">
        <ele>50</ele>
        <time>2021-03-25T05:57:00Z</time>
      </trkpt>
      <trkpt lat="47.48563" lon="-0.58445">
        <ele>50</ele>
        <time>2021-03-25T05:57:02Z</time>
      </trkpt>
      <trkpt lat="47.48545" lon="-0.58431">
        <ele>50</ele>
        <time>2021-03-25T05:57:05Z</time>
      </trkpt>
      <trkpt lat="47.4852" lon="-0.58411">
        <ele>51</ele>
        <time>2021-03-25T05:57:11Z</time>
      </trkpt>
      <trkpt lat="47.48492" lon="-0.58391">
        <ele>52</ele>
        <time>2021-03-25T05:57:16Z</time>
      </trkpt>
      <trkpt lat="47.48492" lon="-0.58391">
        <ele>52</ele>
        <time>2021-03-25T05:57:16Z</time>
      </trkpt>
      <trkpt lat="47.48491" lon="-0.58393">
        <ele>52</ele>
        <time>2021-03-25T05:57:16Z</time>
      </trkpt>
      <trkpt lat="47.48491" lon="-0.58394">
        <ele>52</ele>
        <time>2021-03-25T05:57:16Z</time>
      </trkpt>
      <trkpt lat="47.4849" lon="-0.58395">
        <ele>52</ele>
        <time>2021-03-25T05:57:17Z</time>
      </trkpt>
      <trkpt lat="47.48489" lon="-0.58395">
        <ele>52</ele>
        <time>2021-03-25T05:57:17Z</time>
      </trkpt>
      <trkpt lat="47.48487" lon="-0.58396">
        <ele>52</ele>
        <time>2021-03-25T05:57:17Z</time>
      </trkpt>
      <trkpt lat="47.48484" lon="-0.58396">
        <ele>52</ele>
        <time>2021-03-25T05:57:18Z</time>
      </trkpt>
      <trkpt lat="47.48482" lon="-0.58396">
        <ele>52</ele>
        <time>2021-03-25T05:57:18Z</time>
      </trkpt>
      <trkpt lat="47.4848" lon="-0.58395">
        <ele>52</ele>
        <time>2021-03-25T05:57:19Z</time>
      </trkpt>
      <trkpt lat="47.48478" lon="-0.58394">
        <ele>52</ele>
        <time>2021-03-25T05:57:19Z</time>
      </trkpt>
      <trkpt lat="47.48477" lon="-0.58392">
        <ele>52</ele>
        <time>2021-03-25T05:57:19Z</time>
      </trkpt>
      <trkpt lat="47.48475" lon="-0.5839">
        <ele>52</ele>
        <time>2021-03-25T05:57:20Z</time>
      </trkpt>
      <trkpt lat="47.48474" lon="-0.58388">
        <ele>52</ele>
        <time>2021-03-25T05:57:20Z</time>
      </trkpt>
      <trkpt lat="47.48473" lon="-0.58384">
        <ele>52</ele>
        <time>2021-03-25T05:57:20Z</time>
      </trkpt>
      <trkpt lat="47.48473" lon="-0.5838">
        <ele>52</ele>
        <time>2021-03-25T05:57:21Z</time>
      </trkpt>
      <trkpt lat="47.48473" lon="-0.58377">
        <ele>52</ele>
        <time>2021-03-25T05:57:21Z</time>
      </trkpt>
      <trkpt lat="47.48474" lon="-0.58374">
        <ele>52</ele>
        <time>2021-03-25T05:57:22Z</time>
      </trkpt>
      <trkpt lat="47.48474" lon="-0.58371">
        <ele>52</ele>
        <time>2021-03-25T05:57:22Z</time>
      </trkpt>
      <trkpt lat="47.48471" lon="-0.58356">
        <ele>52</ele>
        <time>2021-03-25T05:57:24Z</time>
      </trkpt>
      <trkpt lat="47.48467" lon="-0.58343">
        <ele>52</ele>
        <time>2021-03-25T05:57:26Z</time>
      </trkpt>
      <trkpt lat="47.48461" lon="-0.58327">
        <ele>52</ele>
        <time>2021-03-25T05:57:28Z</time>
      </trkpt>
      <trkpt lat="47.48457" lon="-0.58318">
        <ele>52</ele>
        <time>2021-03-25T05:57:29Z</time>
      </trkpt>
      <trkpt lat="47.48451" lon="-0.58306">
        <ele>51</ele>
        <time>2021-03-25T05:57:31Z</time>
      </trkpt>
      <trkpt lat="47.48446" lon="-0.58296">
        <ele>51</ele>
        <time>2021-03-25T05:57:32Z</time>
      </trkpt>
      <trkpt lat="47.48433" lon="-0.5827">
        <ele>51</ele>
        <time>2021-03-25T05:57:36Z</time>
      </trkpt>
      <trkpt lat="47.4843" lon="-0.58266">
        <ele>51</ele>
        <time>2021-03-25T05:57:37Z</time>
      </trkpt>
      <trkpt lat="47.48426" lon="-0.58258">
        <ele>50</ele>
        <time>2021-03-25T05:57:38Z</time>
      </trkpt>
      <trkpt lat="47.48419" lon="-0.58247">
        <ele>50</ele>
        <time>2021-03-25T05:57:40Z</time>
      </trkpt>
      <trkpt lat="47.48404" lon="-0.5822">
        <ele>49</ele>
        <time>2021-03-25T05:57:44Z</time>
      </trkpt>
      <trkpt lat="47.48396" lon="-0.58207">
        <ele>48</ele>
        <time>2021-03-25T05:57:46Z</time>
      </trkpt>
      <trkpt lat="47.48383" lon="-0.58184">
        <ele>47</ele>
        <time>2021-03-25T05:57:50Z</time>
      </trkpt>
      <trkpt lat="47.48382" lon="-0.58182">
        <ele>47</ele>
        <time>2021-03-25T05:57:50Z</time>
      </trkpt>
      <trkpt lat="47.4837" lon="-0.58164">
        <ele>46</ele>
        <time>2021-03-25T05:57:53Z</time>
      </trkpt>
      <trkpt lat="47.48363" lon="-0.58157">
        <ele>46</ele>
        <time>2021-03-25T05:57:55Z</time>
      </trkpt>
      <trkpt lat="47.4834" lon="-0.58126">
        <ele>45</ele>
        <time>2021-03-25T05:58:00Z</time>
      </trkpt>
      <trkpt lat="47.48326" lon="-0.58109">
        <ele>45</ele>
        <time>2021-03-25T05:58:04Z</time>
      </trkpt>
      <trkpt lat="47.48283" lon="-0.58057">
        <ele>43</ele>
        <time>2021-03-25T05:58:13Z</time>
      </trkpt>
      <trkpt lat="47.48273" lon="-0.5804">
        <ele>42</ele>
        <time>2021-03-25T05:58:16Z</time>
      </trkpt>
      <trkpt lat="47.48266" lon="-0.5803">
        <ele>42</ele>
        <time>2021-03-25T05:58:18Z</time>
      </trkpt>
      <trkpt lat="47.48261" lon="-0.5802">
        <ele>42</ele>
        <time>2021-03-25T05:58:19Z</time>
      </trkpt>
      <trkpt lat="47.48252" lon="-0.58004">
        <ele>41</ele>
        <time>2021-03-25T05:58:22Z</time>
      </trkpt>
      <trkpt lat="47.48245" lon="-0.57988">
        <ele>41</ele>
        <time>2021-03-25T05:58:24Z</time>
      </trkpt>
      <trkpt lat="47.48236" lon="-0.57965">
        <ele>42</ele>
        <time>2021-03-25T05:58:27Z</time>
      </trkpt>
      <trkpt lat="47.48229" lon="-0.57943">
        <ele>42</ele>
        <time>2021-03-25T05:58:30Z</time>
      </trkpt>
      <trkpt lat="47.48226" lon="-0.57933">
        <ele>42</ele>
        <time>2021-03-25T05:58:32Z</time>
      </trkpt>
      <trkpt lat="47.48221" lon="-0.57916">
        <ele>42</ele>
        <time>2021-03-25T05:58:34Z</time>
      </trkpt>
      <trkpt lat="47.48221" lon="-0.57915">
        <ele>42</ele>
        <time>2021-03-25T05:58:34Z</time>
      </trkpt>
      <trkpt lat="47.4821" lon="-0.5786">
        <ele>42</ele>
        <time>2021-03-25T05:58:41Z</time>
      </trkpt>
      <trkpt lat="47.48206" lon="-0.57833">
        <ele>41</ele>
        <time>2021-03-25T05:58:44Z</time>
      </trkpt>
      <trkpt lat="47.48203" lon="-0.57816">
        <ele>42</ele>
        <time>2021-03-25T05:58:46Z</time>
      </trkpt>
      <trkpt lat="47.48196" lon="-0.57748">
        <ele>45</ele>
        <time>2021-03-25T05:58:55Z</time>
      </trkpt>
      <trkpt lat="47.48194" lon="-0.57734">
        <ele>45</ele>
        <time>2021-03-25T05:58:56Z</time>
      </trkpt>
      <trkpt lat="47.48192" lon="-0.57715">
        <ele>46</ele>
        <time>2021-03-25T05:58:59Z</time>
      </trkpt>
      <trkpt lat="47.48189" lon="-0.57697">
        <ele>47</ele>
        <time>2021-03-25T05:59:01Z</time>
      </trkpt>
      <trkpt lat="47.48169" lon="-0.57582">
        <ele>49</ele>
        <time>2021-03-25T05:59:15Z</time>
      </trkpt>
      <trkpt lat="47.48169" lon="-0.57582">
        <ele>49</ele>
        <time>2021-03-25T05:59:15Z</time>
      </trkpt>
      <trkpt lat="47.48167" lon="-0.57574">
        <ele>49</ele>
        <time>2021-03-25T05:59:16Z</time>
      </trkpt>
      <trkpt lat="47.48165" lon="-0.57561">
        <ele>49</ele>
        <time>2021-03-25T05:59:18Z</time>
      </trkpt>
      <trkpt lat="47.48146" lon="-0.57466">
        <ele>49</ele>
        <time>2021-03-25T05:59:30Z</time>
      </trkpt>
      <trkpt lat="47.4814" lon="-0.57443">
        <ele>49</ele>
        <time>2021-03-25T05:59:33Z</time>
      </trkpt>
      <trkpt lat="47.48132" lon="-0.57423">
        <ele>49</ele>
        <time>2021-03-25T05:59:35Z</time>
      </trkpt>
      <trkpt lat="47.48125" lon="-0.5741">
        <ele>49</ele>
        <time>2021-03-25T05:59:37Z</time>
      </trkpt>
      <trkpt lat="47.48114" lon="-0.57391">
        <ele>49</ele>
        <time>2021-03-25T05:59:40Z</time>
      </trkpt>
      <trkpt lat="47.48104" lon="-0.57376">
        <ele>49</ele>
        <time>2021-03-25T05:59:43Z</time>
      </trkpt>
      <trkpt lat="47.48103" lon="-0.57376">
        <ele>49</ele>
        <time>2021-03-25T05:59:43Z</time>
      </trkpt>
      <trkpt lat="47.48101" lon="-0.57376">
        <ele>49</ele>
        <time>2021-03-25T05:59:43Z</time>
      </trkpt>
      <trkpt lat="47.481" lon="-0.57375">
        <ele>49</ele>
        <time>2021-03-25T05:59:44Z</time>
      </trkpt>
      <trkpt lat="47.48099" lon="-0.57374">
        <ele>49</ele>
        <time>2021-03-25T05:59:44Z</time>
      </trkpt>
      <trkpt lat="47.48098" lon="-0.57373">
        <ele>49</ele>
        <time>2021-03-25T05:59:44Z</time>
      </trkpt>
      <trkpt lat="47.48095" lon="-0.57368">
        <ele>49</ele>
        <time>2021-03-25T05:59:45Z</time>
      </trkpt>
      <trkpt lat="47.48094" lon="-0.57365">
        <ele>49</ele>
        <time>2021-03-25T05:59:45Z</time>
      </trkpt>
      <trkpt lat="47.48094" lon="-0.57361">
        <ele>49</ele>
        <time>2021-03-25T05:59:46Z</time>
      </trkpt>
      <trkpt lat="47.48089" lon="-0.57353">
        <ele>49</ele>
        <time>2021-03-25T05:59:47Z</time>
      </trkpt>
      <trkpt lat="47.48073" lon="-0.57331">
        <ele>49</ele>
        <time>2021-03-25T05:59:51Z</time>
      </trkpt>
      <trkpt lat="47.48055" lon="-0.57304">
        <ele>48</ele>
        <time>2021-03-25T05:59:56Z</time>
      </trkpt>
      <trkpt lat="47.48029" lon="-0.57264">
        <ele>47</ele>
        <time>2021-03-25T06:00:02Z</time>
      </trkpt>
      <trkpt lat="47.48026" lon="-0.57258">
        <ele>47</ele>
        <time>2021-03-25T06:00:03Z</time>
      </trkpt>
      <trkpt lat="47.48015" lon="-0.57242">
        <ele>46</ele>
        <time>2021-03-25T06:00:06Z</time>
      </trkpt>
      <trkpt lat="47.48014" lon="-0.57241">
        <ele>46</ele>
        <time>2021-03-25T06:00:06Z</time>
      </trkpt>
      <trkpt lat="47.48003" lon="-0.57222">
        <ele>46</ele>
        <time>2021-03-25T06:00:09Z</time>
      </trkpt>
      <trkpt lat="47.48001" lon="-0.57219">
        <ele>46</ele>
        <time>2021-03-25T06:00:10Z</time>
      </trkpt>
      <trkpt lat="47.48001" lon="-0.57218">
        <ele>46</ele>
        <time>2021-03-25T06:00:10Z</time>
      </trkpt>
      <trkpt lat="47.4799" lon="-0.572">
        <ele>45</ele>
        <time>2021-03-25T06:00:13Z</time>
      </trkpt>
      <trkpt lat="47.47969" lon="-0.57166">
        <ele>45</ele>
        <time>2021-03-25T06:00:18Z</time>
      </trkpt>
      <trkpt lat="47.4795" lon="-0.57135">
        <ele>44</ele>
        <time>2021-03-25T06:00:23Z</time>
      </trkpt>
      <trkpt lat="47.47942" lon="-0.57121">
        <ele>44</ele>
        <time>2021-03-25T06:00:25Z</time>
      </trkpt>
      <trkpt lat="47.47923" lon="-0.57083">
        <ele>44</ele>
        <time>2021-03-25T06:00:31Z</time>
      </trkpt>
      <trkpt lat="47.47914" lon="-0.57068">
        <ele>43</ele>
        <time>2021-03-25T06:00:34Z</time>
      </trkpt>
      <trkpt lat="47.47902" lon="-0.57043">
        <ele>42</ele>
        <time>2021-03-25T06:00:37Z</time>
      </trkpt>
      <trkpt lat="47.47887" lon="-0.57013">
        <ele>40</ele>
        <time>2021-03-25T06:00:42Z</time>
      </trkpt>
      <trkpt lat="47.47856" lon="-0.56966">
        <ele>39</ele>
        <time>2021-03-25T06:00:50Z</time>
      </trkpt>
      <trkpt lat="47.47835" lon="-0.56931">
        <ele>38</ele>
        <time>2021-03-25T06:00:55Z</time>
      </trkpt>
      <trkpt lat="47.47827" lon="-0.56918">
        <ele>38</ele>
        <time>2021-03-25T06:00:57Z</time>
      </trkpt>
      <trkpt lat="47.47812" lon="-0.56893">
        <ele>38</ele>
        <time>2021-03-25T06:01:01Z</time>
      </trkpt>
      <trkpt lat="47.47803" lon="-0.56879">
        <ele>39</ele>
        <time>2021-03-25T06:01:04Z</time>
      </trkpt>
      <trkpt lat="47.478" lon="-0.56873">
        <ele>39</ele>
        <time>2021-03-25T06:01:05Z</time>
      </trkpt>
      <trkpt lat="47.47793" lon="-0.56863">
        <ele>39</ele>
        <time>2021-03-25T06:01:06Z</time>
      </trkpt>
      <trkpt lat="47.47789" lon="-0.56856">
        <ele>39</ele>
        <time>2021-03-25T06:01:07Z</time>
      </trkpt>
      <trkpt lat="47.47785" lon="-0.56849">
        <ele>39</ele>
        <time>2021-03-25T06:01:09Z</time>
      </trkpt>
      <trkpt lat="47.47777" lon="-0.56839">
        <ele>39</ele>
        <time>2021-03-25T06:01:10Z</time>
      </trkpt>
      <trkpt lat="47.47774" lon="-0.56835">
        <ele>39</ele>
        <time>2021-03-25T06:01:11Z</time>
      </trkpt>
      <trkpt lat="47.47771" lon="-0.56831">
        <ele>39</ele>
        <time>2021-03-25T06:01:12Z</time>
      </trkpt>
      <trkpt lat="47.47765" lon="-0.56824">
        <ele>39</ele>
        <time>2021-03-25T06:01:13Z</time>
      </trkpt>
      <trkpt lat="47.47754" lon="-0.56814">
        <ele>39</ele>
        <time>2021-03-25T06:01:15Z</time>
      </trkpt>
      <trkpt lat="47.47753" lon="-0.56814">
        <ele>39</ele>
        <time>2021-03-25T06:01:16Z</time>
      </trkpt>
      <trkpt lat="47.47752" lon="-0.56814">
        <ele>39</ele>
        <time>2021-03-25T06:01:16Z</time>
      </trkpt>
      <trkpt lat="47.47752" lon="-0.56813">
        <ele>39</ele>
        <time>2021-03-25T06:01:16Z</time>
      </trkpt>
      <trkpt lat="47.47751" lon="-0.56813">
        <ele>39</ele>
        <time>2021-03-25T06:01:16Z</time>
      </trkpt>
      <trkpt lat="47.4775" lon="-0.56813">
        <ele>38</ele>
        <time>2021-03-25T06:01:16Z</time>
      </trkpt>
      <trkpt lat="47.4775" lon="-0.56812">
        <ele>39</ele>
        <time>2021-03-25T06:01:16Z</time>
      </trkpt>
      <trkpt lat="47.47749" lon="-0.56812">
        <ele>39</ele>
        <time>2021-03-25T06:01:17Z</time>
      </trkpt>
      <trkpt lat="47.47749" lon="-0.56811">
        <ele>39</ele>
        <time>2021-03-25T06:01:17Z</time>
      </trkpt>
      <trkpt lat="47.47748" lon="-0.56811">
        <ele>39</ele>
        <time>2021-03-25T06:01:17Z</time>
      </trkpt>
      <trkpt lat="47.47748" lon="-0.5681">
        <ele>39</ele>
        <time>2021-03-25T06:01:17Z</time>
      </trkpt>
      <trkpt lat="47.47747" lon="-0.5681">
        <ele>39</ele>
        <time>2021-03-25T06:01:17Z</time>
      </trkpt>
      <trkpt lat="47.47747" lon="-0.56809">
        <ele>39</ele>
        <time>2021-03-25T06:01:17Z</time>
      </trkpt>
      <trkpt lat="47.47747" lon="-0.56808">
        <ele>39</ele>
        <time>2021-03-25T06:01:17Z</time>
      </trkpt>
      <trkpt lat="47.47746" lon="-0.56807">
        <ele>39</ele>
        <time>2021-03-25T06:01:18Z</time>
      </trkpt>
      <trkpt lat="47.47746" lon="-0.56806">
        <ele>39</ele>
        <time>2021-03-25T06:01:18Z</time>
      </trkpt>
      <trkpt lat="47.47737" lon="-0.56799">
        <ele>39</ele>
        <time>2021-03-25T06:01:20Z</time>
      </trkpt>
      <trkpt lat="47.47728" lon="-0.56792">
        <ele>39</ele>
        <time>2021-03-25T06:01:21Z</time>
      </trkpt>
      <trkpt lat="47.47714" lon="-0.56779">
        <ele>39</ele>
        <time>2021-03-25T06:01:24Z</time>
      </trkpt>
      <trkpt lat="47.47707" lon="-0.56773">
        <ele>39</ele>
        <time>2021-03-25T06:01:26Z</time>
      </trkpt>
      <trkpt lat="47.47701" lon="-0.56767">
        <ele>40</ele>
        <time>2021-03-25T06:01:27Z</time>
      </trkpt>
      <trkpt lat="47.47697" lon="-0.56762">
        <ele>40</ele>
        <time>2021-03-25T06:01:28Z</time>
      </trkpt>
      <trkpt lat="47.47694" lon="-0.56759">
        <ele>40</ele>
        <time>2021-03-25T06:01:29Z</time>
      </trkpt>
      <trkpt lat="47.47685" lon="-0.56744">
        <ele>40</ele>
        <time>2021-03-25T06:01:31Z</time>
      </trkpt>
      <trkpt lat="47.47684" lon="-0.56743">
        <ele>40</ele>
        <time>2021-03-25T06:01:31Z</time>
      </trkpt>
      <trkpt lat="47.47681" lon="-0.56739">
        <ele>40</ele>
        <time>2021-03-25T06:01:32Z</time>
      </trkpt>
      <trkpt lat="47.4768" lon="-0.56736">
        <ele>40</ele>
        <time>2021-03-25T06:01:32Z</time>
      </trkpt>
      <trkpt lat="47.47674" lon="-0.56726">
        <ele>40</ele>
        <time>2021-03-25T06:01:34Z</time>
      </trkpt>
      <trkpt lat="47.47671" lon="-0.5672">
        <ele>40</ele>
        <time>2021-03-25T06:01:35Z</time>
      </trkpt>
      <trkpt lat="47.47652" lon="-0.56679">
        <ele>39</ele>
        <time>2021-03-25T06:01:41Z</time>
      </trkpt>
      <trkpt lat="47.47646" lon="-0.56667">
        <ele>39</ele>
        <time>2021-03-25T06:01:43Z</time>
      </trkpt>
      <trkpt lat="47.47643" lon="-0.5666">
        <ele>39</ele>
        <time>2021-03-25T06:01:44Z</time>
      </trkpt>
      <trkpt lat="47.47638" lon="-0.5665">
        <ele>39</ele>
        <time>2021-03-25T06:01:45Z</time>
      </trkpt>
      <trkpt lat="47.47638" lon="-0.5665">
        <ele>39</ele>
        <time>2021-03-25T06:01:45Z</time>
      </trkpt>
      <trkpt lat="47.47634" lon="-0.56638">
        <ele>39</ele>
        <time>2021-03-25T06:01:47Z</time>
      </trkpt>
      <trkpt lat="47.47635" lon="-0.56626">
        <ele>39</ele>
        <time>2021-03-25T06:01:48Z</time>
      </trkpt>
      <trkpt lat="47.47605" lon="-0.56537">
        <ele>37</ele>
        <time>2021-03-25T06:02:00Z</time>
      </trkpt>
      <trkpt lat="47.47601" lon="-0.56521">
        <ele>36</ele>
        <time>2021-03-25T06:02:02Z</time>
      </trkpt>
      <trkpt lat="47.47579" lon="-0.56437">
        <ele>34</ele>
        <time>2021-03-25T06:02:13Z</time>
      </trkpt>
      <trkpt lat="47.47561" lon="-0.5638">
        <ele>34</ele>
        <time>2021-03-25T06:02:21Z</time>
      </trkpt>
      <trkpt lat="47.47542" lon="-0.56307">
        <ele>33</ele>
        <time>2021-03-25T06:02:30Z</time>
      </trkpt>
      <trkpt lat="47.47536" lon="-0.56285">
        <ele>33</ele>
        <time>2021-03-25T06:02:33Z</time>
      </trkpt>
      <trkpt lat="47.47523" lon="-0.5625">
        <ele>32</ele>
        <time>2021-03-25T06:02:38Z</time>
      </trkpt>
      <trkpt lat="47.47523" lon="-0.5625">
        <ele>32</ele>
        <time>2021-03-25T06:02:38Z</time>
      </trkpt>
      <trkpt lat="47.4752" lon="-0.5624">
        <ele>32</ele>
        <time>2021-03-25T06:02:39Z</time>
      </trkpt>
      <trkpt lat="47.47521" lon="-0.56228">
        <ele>32</ele>
        <time>2021-03-25T06:02:40Z</time>
      </trkpt>
      <trkpt lat="47.47521" lon="-0.56222">
        <ele>32</ele>
        <time>2021-03-25T06:02:41Z</time>
      </trkpt>
      <trkpt lat="47.47521" lon="-0.5622">
        <ele>32</ele>
        <time>2021-03-25T06:02:41Z</time>
      </trkpt>
      <trkpt lat="47.47519" lon="-0.56212">
        <ele>32</ele>
        <time>2021-03-25T06:02:42Z</time>
      </trkpt>
      <trkpt lat="47.47518" lon="-0.56206">
        <ele>32</ele>
        <time>2021-03-25T06:02:43Z</time>
      </trkpt>
      <trkpt lat="47.47517" lon="-0.56201">
        <ele>32</ele>
        <time>2021-03-25T06:02:44Z</time>
      </trkpt>
      <trkpt lat="47.47516" lon="-0.56197">
        <ele>32</ele>
        <time>2021-03-25T06:02:44Z</time>
      </trkpt>
      <trkpt lat="47.47514" lon="-0.5619">
        <ele>32</ele>
        <time>2021-03-25T06:02:45Z</time>
      </trkpt>
      <trkpt lat="47.47514" lon="-0.56183">
        <ele>32</ele>
        <time>2021-03-25T06:02:46Z</time>
      </trkpt>
      <trkpt lat="47.47512" lon="-0.5616">
        <ele>32</ele>
        <time>2021-03-25T06:02:49Z</time>
      </trkpt>
      <trkpt lat="47.47512" lon="-0.5616">
        <ele>32</ele>
        <time>2021-03-25T06:02:49Z</time>
      </trkpt>
      <trkpt lat="47.475" lon="-0.56128">
        <ele>31</ele>
        <time>2021-03-25T06:02:53Z</time>
      </trkpt>
      <trkpt lat="47.47478" lon="-0.56078">
        <ele>28</ele>
        <time>2021-03-25T06:03:00Z</time>
      </trkpt>
      <trkpt lat="47.47448" lon="-0.56023">
        <ele>25</ele>
        <time>2021-03-25T06:03:09Z</time>
      </trkpt>
      <trkpt lat="47.47445" lon="-0.56019">
        <ele>25</ele>
        <time>2021-03-25T06:03:10Z</time>
      </trkpt>
      <trkpt lat="47.47445" lon="-0.56019">
        <ele>25</ele>
        <time>2021-03-25T06:03:10Z</time>
      </trkpt>
      <trkpt lat="47.47448" lon="-0.56023">
        <ele>25</ele>
        <time>2021-03-25T06:03:10Z</time>
      </trkpt>
      <trkpt lat="47.47448" lon="-0.56023">
        <ele>25</ele>
        <time>2021-03-25T06:03:10Z</time>
      </trkpt>
      <trkpt lat="47.47418" lon="-0.56063">
        <ele>26</ele>
        <time>2021-03-25T06:03:18Z</time>
      </trkpt>
      <trkpt lat="47.474" lon="-0.56086">
        <ele>25</ele>
        <time>2021-03-25T06:03:22Z</time>
      </trkpt>
      <trkpt lat="47.47321" lon="-0.56205">
        <ele>23</ele>
        <time>2021-03-25T06:03:42Z</time>
      </trkpt>
      <trkpt lat="47.47303" lon="-0.56213">
        <ele>23</ele>
        <time>2021-03-25T06:03:45Z</time>
      </trkpt>
      <trkpt lat="47.47292" lon="-0.56232">
        <ele>22</ele>
        <time>2021-03-25T06:03:48Z</time>
      </trkpt>
      <trkpt lat="47.47249" lon="-0.56296">
        <ele>22</ele>
        <time>2021-03-25T06:03:59Z</time>
      </trkpt>
      <trkpt lat="47.47211" lon="-0.56356">
        <ele>21</ele>
        <time>2021-03-25T06:04:09Z</time>
      </trkpt>
      <trkpt lat="47.472" lon="-0.56372">
        <ele>21</ele>
        <time>2021-03-25T06:04:12Z</time>
      </trkpt>
      <trkpt lat="47.47157" lon="-0.56436">
        <ele>22</ele>
        <time>2021-03-25T06:04:23Z</time>
      </trkpt>
      <trkpt lat="47.47157" lon="-0.56436">
        <ele>22</ele>
        <time>2021-03-25T06:04:23Z</time>
      </trkpt>
      <trkpt lat="47.47151" lon="-0.56445">
        <ele>22</ele>
        <time>2021-03-25T06:04:24Z</time>
      </trkpt>
      <trkpt lat="47.47128" lon="-0.5648">
        <ele>22</ele>
        <time>2021-03-25T06:04:30Z</time>
      </trkpt>
      <trkpt lat="47.47114" lon="-0.565">
        <ele>22</ele>
        <time>2021-03-25T06:04:33Z</time>
      </trkpt>
      <trkpt lat="47.47112" lon="-0.56504">
        <ele>22</ele>
        <time>2021-03-25T06:04:34Z</time>
      </trkpt>
      <trkpt lat="47.47089" lon="-0.5654">
        <ele>23</ele>
        <time>2021-03-25T06:04:40Z</time>
      </trkpt>
      <trkpt lat="47.47072" lon="-0.56566">
        <ele>23</ele>
        <time>2021-03-25T06:04:44Z</time>
      </trkpt>
      <trkpt lat="47.47062" lon="-0.56583">
        <ele>23</ele>
        <time>2021-03-25T06:04:47Z</time>
      </trkpt>
      <trkpt lat="47.47057" lon="-0.5659">
        <ele>23</ele>
        <time>2021-03-25T06:04:48Z</time>
      </trkpt>
      <trkpt lat="47.47039" lon="-0.56615">
        <ele>24</ele>
        <time>2021-03-25T06:04:53Z</time>
      </trkpt>
      <trkpt lat="47.47035" lon="-0.56621">
        <ele>24</ele>
        <time>2021-03-25T06:04:54Z</time>
      </trkpt>
      <trkpt lat="47.47026" lon="-0.56634">
        <ele>24</ele>
        <time>2021-03-25T06:04:56Z</time>
      </trkpt>
      <trkpt lat="47.47019" lon="-0.56645">
        <ele>24</ele>
        <time>2021-03-25T06:04:58Z</time>
      </trkpt>
      <trkpt lat="47.47015" lon="-0.56655">
        <ele>24</ele>
        <time>2021-03-25T06:04:59Z</time>
      </trkpt>
      <trkpt lat="47.47011" lon="-0.56663">
        <ele>24</ele>
        <time>2021-03-25T06:05:00Z</time>
      </trkpt>
      <trkpt lat="47.47008" lon="-0.56672">
        <ele>24</ele>
        <time>2021-03-25T06:05:02Z</time>
      </trkpt>
      <trkpt lat="47.47006" lon="-0.56675">
        <ele>24</ele>
        <time>2021-03-25T06:05:02Z</time>
      </trkpt>
      <trkpt lat="47.47003" lon="-0.56684">
        <ele>24</ele>
        <time>2021-03-25T06:05:03Z</time>
      </trkpt>
      <trkpt lat="47.47001" lon="-0.56693">
        <ele>24</ele>
        <time>2021-03-25T06:05:04Z</time>
      </trkpt>
      <trkpt lat="47.46996" lon="-0.56713">
        <ele>23</ele>
        <time>2021-03-25T06:05:07Z</time>
      </trkpt>
      <trkpt lat="47.46994" lon="-0.5673">
        <ele>23</ele>
        <time>2021-03-25T06:05:09Z</time>
      </trkpt>
      <trkpt lat="47.46994" lon="-0.56735">
        <ele>23</ele>
        <time>2021-03-25T06:05:10Z</time>
      </trkpt>
      <trkpt lat="47.46993" lon="-0.56757">
        <ele>22</ele>
        <time>2021-03-25T06:05:12Z</time>
      </trkpt>
      <trkpt lat="47.46994" lon="-0.56781">
        <ele>22</ele>
        <time>2021-03-25T06:05:15Z</time>
      </trkpt>
      <trkpt lat="47.46995" lon="-0.568">
        <ele>22</ele>
        <time>2021-03-25T06:05:17Z</time>
      </trkpt>
      <trkpt lat="47.46996" lon="-0.56806">
        <ele>22</ele>
        <time>2021-03-25T06:05:18Z</time>
      </trkpt>
      <trkpt lat="47.46998" lon="-0.56809">
        <ele>23</ele>
        <time>2021-03-25T06:05:19Z</time>
      </trkpt>
      <trkpt lat="47.47" lon="-0.56813">
        <ele>23</ele>
        <time>2021-03-25T06:05:19Z</time>
      </trkpt>
      <trkpt lat="47.47002" lon="-0.56817">
        <ele>23</ele>
        <time>2021-03-25T06:05:20Z</time>
      </trkpt>
      <trkpt lat="47.47004" lon="-0.56822">
        <ele>23</ele>
        <time>2021-03-25T06:05:21Z</time>
      </trkpt>
      <trkpt lat="47.47005" lon="-0.56825">
        <ele>23</ele>
        <time>2021-03-25T06:05:21Z</time>
      </trkpt>
      <trkpt lat="47.47006" lon="-0.56828">
        <ele>23</ele>
        <time>2021-03-25T06:05:21Z</time>
      </trkpt>
      <trkpt lat="47.47007" lon="-0.56831">
        <ele>23</ele>
        <time>2021-03-25T06:05:22Z</time>
      </trkpt>
      <trkpt lat="47.47008" lon="-0.56835">
        <ele>23</ele>
        <time>2021-03-25T06:05:22Z</time>
      </trkpt>
      <trkpt lat="47.4701" lon="-0.56841">
        <ele>23</ele>
        <time>2021-03-25T06:05:23Z</time>
      </trkpt>
      <trkpt lat="47.47011" lon="-0.56848">
        <ele>23</ele>
        <time>2021-03-25T06:05:24Z</time>
      </trkpt>
      <trkpt lat="47.47013" lon="-0.56856">
        <ele>22</ele>
        <time>2021-03-25T06:05:25Z</time>
      </trkpt>
      <trkpt lat="47.47015" lon="-0.56862">
        <ele>22</ele>
        <time>2021-03-25T06:05:26Z</time>
      </trkpt>
      <trkpt lat="47.47015" lon="-0.56864">
        <ele>22</ele>
        <time>2021-03-25T06:05:26Z</time>
      </trkpt>
      <trkpt lat="47.47019" lon="-0.56874">
        <ele>22</ele>
        <time>2021-03-25T06:05:27Z</time>
      </trkpt>
      <trkpt lat="47.47021" lon="-0.56883">
        <ele>22</ele>
        <time>2021-03-25T06:05:29Z</time>
      </trkpt>
      <trkpt lat="47.47024" lon="-0.56891">
        <ele>22</ele>
        <time>2021-03-25T06:05:30Z</time>
      </trkpt>
      <trkpt lat="47.47028" lon="-0.56892">
        <ele>22</ele>
        <time>2021-03-25T06:05:30Z</time>
      </trkpt>
      <trkpt lat="47.4703" lon="-0.56893">
        <ele>22</ele>
        <time>2021-03-25T06:05:31Z</time>
      </trkpt>
      <trkpt lat="47.47032" lon="-0.56894">
        <ele>22</ele>
        <time>2021-03-25T06:05:31Z</time>
      </trkpt>
      <trkpt lat="47.47033" lon="-0.56896">
        <ele>21</ele>
        <time>2021-03-25T06:05:31Z</time>
      </trkpt>
      <trkpt lat="47.47034" lon="-0.56898">
        <ele>21</ele>
        <time>2021-03-25T06:05:32Z</time>
      </trkpt>
      <trkpt lat="47.47036" lon="-0.569">
        <ele>21</ele>
        <time>2021-03-25T06:05:32Z</time>
      </trkpt>
      <trkpt lat="47.47036" lon="-0.56903">
        <ele>21</ele>
        <time>2021-03-25T06:05:33Z</time>
      </trkpt>
      <trkpt lat="47.47037" lon="-0.56905">
        <ele>21</ele>
        <time>2021-03-25T06:05:33Z</time>
      </trkpt>
      <trkpt lat="47.47037" lon="-0.56908">
        <ele>21</ele>
        <time>2021-03-25T06:05:33Z</time>
      </trkpt>
      <trkpt lat="47.47038" lon="-0.56911">
        <ele>21</ele>
        <time>2021-03-25T06:05:34Z</time>
      </trkpt>
      <trkpt lat="47.47038" lon="-0.56917">
        <ele>21</ele>
        <time>2021-03-25T06:05:34Z</time>
      </trkpt>
      <trkpt lat="47.47037" lon="-0.5692">
        <ele>21</ele>
        <time>2021-03-25T06:05:35Z</time>
      </trkpt>
      <trkpt lat="47.47035" lon="-0.56923">
        <ele>21</ele>
        <time>2021-03-25T06:05:35Z</time>
      </trkpt>
      <trkpt lat="47.47035" lon="-0.56935">
        <ele>20</ele>
        <time>2021-03-25T06:05:37Z</time>
      </trkpt>
      <trkpt lat="47.47036" lon="-0.56938">
        <ele>20</ele>
        <time>2021-03-25T06:05:37Z</time>
      </trkpt>
      <trkpt lat="47.47037" lon="-0.56946">
        <ele>20</ele>
        <time>2021-03-25T06:05:38Z</time>
      </trkpt>
      <trkpt lat="47.47039" lon="-0.56958">
        <ele>20</ele>
        <time>2021-03-25T06:05:40Z</time>
      </trkpt>
      <trkpt lat="47.47052" lon="-0.57014">
        <ele>19</ele>
        <time>2021-03-25T06:05:47Z</time>
      </trkpt>
      <trkpt lat="47.47062" lon="-0.57056">
        <ele>19</ele>
        <time>2021-03-25T06:05:52Z</time>
      </trkpt>
      <trkpt lat="47.47069" lon="-0.57088">
        <ele>19</ele>
        <time>2021-03-25T06:05:56Z</time>
      </trkpt>
      <trkpt lat="47.47085" lon="-0.57156">
        <ele>19</ele>
        <time>2021-03-25T06:06:05Z</time>
      </trkpt>
      <trkpt lat="47.47099" lon="-0.5721">
        <ele>18</ele>
        <time>2021-03-25T06:06:12Z</time>
      </trkpt>
      <trkpt lat="47.47118" lon="-0.57273">
        <ele>17</ele>
        <time>2021-03-25T06:06:20Z</time>
      </trkpt>
      <trkpt lat="47.47136" lon="-0.57328">
        <ele>18</ele>
        <time>2021-03-25T06:06:27Z</time>
      </trkpt>
      <trkpt lat="47.47151" lon="-0.57369">
        <ele>19</ele>
        <time>2021-03-25T06:06:33Z</time>
      </trkpt>
      <trkpt lat="47.47166" lon="-0.57406">
        <ele>20</ele>
        <time>2021-03-25T06:06:38Z</time>
      </trkpt>
      <trkpt lat="47.47182" lon="-0.57446">
        <ele>21</ele>
        <time>2021-03-25T06:06:44Z</time>
      </trkpt>
      <trkpt lat="47.47195" lon="-0.57477">
        <ele>22</ele>
        <time>2021-03-25T06:06:48Z</time>
      </trkpt>
      <trkpt lat="47.47233" lon="-0.57561">
        <ele>20</ele>
        <time>2021-03-25T06:07:00Z</time>
      </trkpt>
      <trkpt lat="47.47245" lon="-0.57592">
        <ele>20</ele>
        <time>2021-03-25T06:07:05Z</time>
      </trkpt>
      <trkpt lat="47.47287" lon="-0.57685">
        <ele>22</ele>
        <time>2021-03-25T06:07:18Z</time>
      </trkpt>
      <trkpt lat="47.47302" lon="-0.57722">
        <ele>23</ele>
        <time>2021-03-25T06:07:23Z</time>
      </trkpt>
      <trkpt lat="47.47306" lon="-0.57732">
        <ele>24</ele>
        <time>2021-03-25T06:07:25Z</time>
      </trkpt>
      <trkpt lat="47.47324" lon="-0.57776">
        <ele>25</ele>
        <time>2021-03-25T06:07:31Z</time>
      </trkpt>
      <trkpt lat="47.47344" lon="-0.5783">
        <ele>28</ele>
        <time>2021-03-25T06:07:38Z</time>
      </trkpt>
      <trkpt lat="47.4736" lon="-0.5787">
        <ele>28</ele>
        <time>2021-03-25T06:07:44Z</time>
      </trkpt>
      <trkpt lat="47.4736" lon="-0.5787">
        <ele>28</ele>
        <time>2021-03-25T06:07:44Z</time>
      </trkpt>
      <trkpt lat="47.47362" lon="-0.5788">
        <ele>29</ele>
        <time>2021-03-25T06:07:45Z</time>
      </trkpt>
      <trkpt lat="47.47367" lon="-0.57897">
        <ele>29</ele>
        <time>2021-03-25T06:07:47Z</time>
      </trkpt>
      <trkpt lat="47.47358" lon="-0.57902">
        <ele>29</ele>
        <time>2021-03-25T06:07:49Z</time>
      </trkpt>
      <trkpt lat="47.47353" lon="-0.57902">
        <ele>29</ele>
        <time>2021-03-25T06:07:50Z</time>
      </trkpt>
      <trkpt lat="47.47349" lon="-0.57903">
        <ele>29</ele>
        <time>2021-03-25T06:07:51Z</time>
      </trkpt>
      <trkpt lat="47.47346" lon="-0.57905">
        <ele>30</ele>
        <time>2021-03-25T06:07:51Z</time>
      </trkpt>
      <trkpt lat="47.47343" lon="-0.57907">
        <ele>30</ele>
        <time>2021-03-25T06:07:52Z</time>
      </trkpt>
      <trkpt lat="47.47341" lon="-0.57911">
        <ele>30</ele>
        <time>2021-03-25T06:07:52Z</time>
      </trkpt>
      <trkpt lat="47.4734" lon="-0.57918">
        <ele>30</ele>
        <time>2021-03-25T06:07:53Z</time>
      </trkpt>
      <trkpt lat="47.4734" lon="-0.57925">
        <ele>30</ele>
        <time>2021-03-25T06:07:54Z</time>
      </trkpt>
      <trkpt lat="47.47341" lon="-0.57935">
        <ele>30</ele>
        <time>2021-03-25T06:07:55Z</time>
      </trkpt>
      <trkpt lat="47.47341" lon="-0.57946">
        <ele>30</ele>
        <time>2021-03-25T06:07:57Z</time>
      </trkpt>
      <trkpt lat="47.47343" lon="-0.57961">
        <ele>30</ele>
        <time>2021-03-25T06:07:58Z</time>
      </trkpt>
      <trkpt lat="47.47343" lon="-0.57977">
        <ele>30</ele>
        <time>2021-03-25T06:08:00Z</time>
      </trkpt>
      <trkpt lat="47.47343" lon="-0.57989">
        <ele>30</ele>
        <time>2021-03-25T06:08:02Z</time>
      </trkpt>
      <trkpt lat="47.47343" lon="-0.58">
        <ele>30</ele>
        <time>2021-03-25T06:08:03Z</time>
      </trkpt>
      <trkpt lat="47.47343" lon="-0.58009">
        <ele>30</ele>
        <time>2021-03-25T06:08:04Z</time>
      </trkpt>
      <trkpt lat="47.47342" lon="-0.58018">
        <ele>30</ele>
        <time>2021-03-25T06:08:05Z</time>
      </trkpt>
      <trkpt lat="47.4734" lon="-0.58026">
        <ele>30</ele>
        <time>2021-03-25T06:08:06Z</time>
      </trkpt>
      <trkpt lat="47.47338" lon="-0.58036">
        <ele>31</ele>
        <time>2021-03-25T06:08:08Z</time>
      </trkpt>
      <trkpt lat="47.47308" lon="-0.58141">
        <ele>32</ele>
        <time>2021-03-25T06:08:21Z</time>
      </trkpt>
      <trkpt lat="47.47279" lon="-0.58236">
        <ele>31</ele>
        <time>2021-03-25T06:08:34Z</time>
      </trkpt>
      <trkpt lat="47.4727" lon="-0.58265">
        <ele>31</ele>
        <time>2021-03-25T06:08:38Z</time>
      </trkpt>
      <trkpt lat="47.47262" lon="-0.58298">
        <ele>30</ele>
        <time>2021-03-25T06:08:42Z</time>
      </trkpt>
      <trkpt lat="47.47256" lon="-0.58337">
        <ele>29</ele>
        <time>2021-03-25T06:08:47Z</time>
      </trkpt>
      <trkpt lat="47.4725" lon="-0.58371">
        <ele>30</ele>
        <time>2021-03-25T06:08:51Z</time>
      </trkpt>
      <trkpt lat="47.47249" lon="-0.58379">
        <ele>31</ele>
        <time>2021-03-25T06:08:52Z</time>
      </trkpt>
      <trkpt lat="47.47246" lon="-0.58399">
        <ele>31</ele>
        <time>2021-03-25T06:08:54Z</time>
      </trkpt>
      <trkpt lat="47.47245" lon="-0.58409">
        <ele>32</ele>
        <time>2021-03-25T06:08:56Z</time>
      </trkpt>
      <trkpt lat="47.47243" lon="-0.58418">
        <ele>32</ele>
        <time>2021-03-25T06:08:57Z</time>
      </trkpt>
      <trkpt lat="47.47232" lon="-0.58466">
        <ele>32</ele>
        <time>2021-03-25T06:09:03Z</time>
      </trkpt>
      <trkpt lat="47.47232" lon="-0.58468">
        <ele>32</ele>
        <time>2021-03-25T06:09:03Z</time>
      </trkpt>
    </trkseg>
  </trk>
</gpx>